<?xml version='1.0' encoding='UTF-8'?><gpx version="1.1" creator="JPX - https://github.com/jenetics/jpx" xmlns="http://www.topografix.com/GPX/1/1"><trk><trkseg><trkpt lat="45.62609189886629" lon="12.164427240002693"><ele>15.0</ele><time>2026-04-25T12:47:03Z</time></trkpt><trkpt lat="45.626166425628846" lon="12.164352595065608"><ele>15.0</ele><time>2026-04-25T12:47:05Z</time></trkpt><trkpt lat="45.626227136713815" lon="12.164315511846265"><ele>15.0</ele><time>2026-04-25T12:47:06Z</time></trkpt><trkpt lat="45.62631170180702" lon="12.164309060533755"><ele>15.0</ele><time>2026-04-25T12:47:07Z</time></trkpt><trkpt lat="45.626406626103396" lon="12.16431155703872"><ele>15.0</ele><time>2026-04-25T12:47:08Z</time></trkpt><trkpt lat="45.62649534116732" lon="12.164311215557625"><ele>15.0</ele><time>2026-04-25T12:47:09Z</time></trkpt><trkpt lat="45.62658971145043" lon="12.16430780772133"><ele>15.0</ele><time>2026-04-25T12:47:10Z</time></trkpt><trkpt lat="45.62669324545985" lon="12.16430545383621"><ele>15.0</ele><time>2026-04-25T12:47:11Z</time></trkpt><trkpt lat="45.62680104973439" lon="12.16430119406897"><ele>15.0</ele><time>2026-04-25T12:47:12Z</time></trkpt><trkpt lat="45.626912352921096" lon="12.164301237098213"><ele>15.0</ele><time>2026-04-25T12:47:13Z</time></trkpt><trkpt lat="45.6270330149606" lon="12.164304719770879"><ele>15.0</ele><time>2026-04-25T12:47:14Z</time></trkpt><trkpt lat="45.62714914840006" lon="12.164304009448706"><ele>14.75</ele><time>2026-04-25T12:47:15Z</time></trkpt><trkpt lat="45.6272634861462" lon="12.164295847971461"><ele>14.5</ele><time>2026-04-25T12:47:16Z</time></trkpt><trkpt lat="45.627379373764846" lon="12.164289026710556"><ele>14.25</ele><time>2026-04-25T12:47:17Z</time></trkpt><trkpt lat="45.62749960888217" lon="12.164287486524238"><ele>14.0</ele><time>2026-04-25T12:47:18Z</time></trkpt><trkpt lat="45.627621503691316" lon="12.164286690481571"><ele>14.0</ele><time>2026-04-25T12:47:19Z</time></trkpt><trkpt lat="45.62774469715701" lon="12.164285194747418"><ele>14.0</ele><time>2026-04-25T12:47:20Z</time></trkpt><trkpt lat="45.6278667977501" lon="12.164287470435095"><ele>14.0</ele><time>2026-04-25T12:47:21Z</time></trkpt><trkpt lat="45.627989357164466" lon="12.164288775422479"><ele>14.0</ele><time>2026-04-25T12:47:22Z</time></trkpt><trkpt lat="45.628111839132586" lon="12.164293627343886"><ele>14.5</ele><time>2026-04-25T12:47:23Z</time></trkpt><trkpt lat="45.62823558802531" lon="12.164295487891494"><ele>15.0</ele><time>2026-04-25T12:47:24Z</time></trkpt><trkpt lat="45.628359616886755" lon="12.164292047162602"><ele>15.5</ele><time>2026-04-25T12:47:25Z</time></trkpt><trkpt lat="45.62848401931326" lon="12.164292879423598"><ele>16.0</ele><time>2026-04-25T12:47:26Z</time></trkpt><trkpt lat="45.6286082061088" lon="12.164293067092675"><ele>16.0</ele><time>2026-04-25T12:47:27Z</time></trkpt><trkpt lat="45.628734057679864" lon="12.16429439089842"><ele>16.0</ele><time>2026-04-25T12:47:28Z</time></trkpt><trkpt lat="45.62885887461478" lon="12.164299298960936"><ele>16.0</ele><time>2026-04-25T12:47:29Z</time></trkpt><trkpt lat="45.628976383125824" lon="12.164304613405243"><ele>16.0</ele><time>2026-04-25T12:47:30Z</time></trkpt><trkpt lat="45.62908511020958" lon="12.164308617267658"><ele>15.999999999999998</ele><time>2026-04-25T12:47:31Z</time></trkpt><trkpt lat="45.62918690562168" lon="12.16431097628179"><ele>16.0</ele><time>2026-04-25T12:47:32Z</time></trkpt><trkpt lat="45.629280467426526" lon="12.164314614630676"><ele>16.0</ele><time>2026-04-25T12:47:33Z</time></trkpt><trkpt lat="45.62936887217322" lon="12.164320616779142"><ele>16.0</ele><time>2026-04-25T12:47:34Z</time></trkpt><trkpt lat="45.62945253265368" lon="12.164332786497742"><ele>15.999999999999998</ele><time>2026-04-25T12:47:35Z</time></trkpt><trkpt lat="45.62952978943932" lon="12.164363062865656"><ele>16.0</ele><time>2026-04-25T12:47:36Z</time></trkpt><trkpt lat="45.6295944816925" lon="12.164419044575904"><ele>15.999999999999998</ele><time>2026-04-25T12:47:36.999Z</time></trkpt><trkpt lat="45.62964789019556" lon="12.16450106295686"><ele>16.0</ele><time>2026-04-25T12:47:37.999Z</time></trkpt><trkpt lat="45.62970253820978" lon="12.164592714863204"><ele>16.0</ele><time>2026-04-25T12:47:38.999Z</time></trkpt><trkpt lat="45.629772925350196" lon="12.164666047423522"><ele>16.0</ele><time>2026-04-25T12:47:39.999Z</time></trkpt><trkpt lat="45.62985129902931" lon="12.16471611956279"><ele>15.999999999999998</ele><time>2026-04-25T12:47:40.999Z</time></trkpt><trkpt lat="45.629929637718234" lon="12.164722937026017"><ele>16.0</ele><time>2026-04-25T12:47:41.999Z</time></trkpt><trkpt lat="45.63007978330909" lon="12.164595862203678"><ele>16.0</ele><time>2026-04-25T12:47:43.999Z</time></trkpt><trkpt lat="45.63015494743761" lon="12.164500207141153"><ele>16.0</ele><time>2026-04-25T12:47:44.999Z</time></trkpt><trkpt lat="45.630239252875846" lon="12.164405480110446"><ele>16.0</ele><time>2026-04-25T12:47:45.999Z</time></trkpt><trkpt lat="45.63034956831416" lon="12.16433823733317"><ele>16.0</ele><time>2026-04-25T12:47:46.999Z</time></trkpt><trkpt lat="45.63047146486971" lon="12.164270754241272"><ele>15.75</ele><time>2026-04-25T12:47:47.999Z</time></trkpt><trkpt lat="45.63061582996566" lon="12.16427615260717"><ele>15.5</ele><time>2026-04-25T12:47:48.999Z</time></trkpt><trkpt lat="45.63076408121287" lon="12.164262340782024"><ele>15.25</ele><time>2026-04-25T12:47:49.999Z</time></trkpt><trkpt lat="45.63091444588066" lon="12.164255644468467"><ele>15.0</ele><time>2026-04-25T12:47:50.999Z</time></trkpt><trkpt lat="45.63107186546245" lon="12.16424806211098"><ele>15.333333333333332</ele><time>2026-04-25T12:47:51.999Z</time></trkpt><trkpt lat="45.63123542059372" lon="12.164242178625466"><ele>15.666666666666666</ele><time>2026-04-25T12:47:52.999Z</time></trkpt><trkpt lat="45.631403970173594" lon="12.16423933143171"><ele>16.0</ele><time>2026-04-25T12:47:53.999Z</time></trkpt><trkpt lat="45.631577374269305" lon="12.164235599409995"><ele>16.0</ele><time>2026-04-25T12:47:54.999Z</time></trkpt><trkpt lat="45.6317491696587" lon="12.164233307585176"><ele>16.0</ele><time>2026-04-25T12:47:55.999Z</time></trkpt><trkpt lat="45.63192359571441" lon="12.16422847548487"><ele>16.0</ele><time>2026-04-25T12:47:56.999Z</time></trkpt><trkpt lat="45.63209953771889" lon="12.164225160467973"><ele>15.666666666666666</ele><time>2026-04-25T12:47:57.999Z</time></trkpt><trkpt lat="45.63227935220584" lon="12.164225703882593"><ele>15.333333333333332</ele><time>2026-04-25T12:47:58.999Z</time></trkpt><trkpt lat="45.63245691614687" lon="12.164224844908572"><ele>15.0</ele><time>2026-04-25T12:47:59.999Z</time></trkpt><trkpt lat="45.632636136460896" lon="12.164222486336142"><ele>15.0</ele><time>2026-04-25T12:48:00.999Z</time></trkpt><trkpt lat="45.6328162469241" lon="12.164218125883313"><ele>15.0</ele><time>2026-04-25T12:48:01.999Z</time></trkpt><trkpt lat="45.63299951683171" lon="12.164214924764893"><ele>15.0</ele><time>2026-04-25T12:48:02.999Z</time></trkpt><trkpt lat="45.63318323372715" lon="12.164213043326136"><ele>15.0</ele><time>2026-04-25T12:48:03.999Z</time></trkpt><trkpt lat="45.63336863524104" lon="12.164205755412013"><ele>15.0</ele><time>2026-04-25T12:48:04.999Z</time></trkpt><trkpt lat="45.63355283750529" lon="12.164200482985597"><ele>15.0</ele><time>2026-04-25T12:48:05.999Z</time></trkpt><trkpt lat="45.633736908095486" lon="12.164195414169058"><ele>15.0</ele><time>2026-04-25T12:48:06.999Z</time></trkpt><trkpt lat="45.63392052727548" lon="12.164192132962164"><ele>15.0</ele><time>2026-04-25T12:48:07.999Z</time></trkpt><trkpt lat="45.634098194175195" lon="12.164190384094885"><ele>15.0</ele><time>2026-04-25T12:48:08.999Z</time></trkpt><trkpt lat="45.634274102873334" lon="12.164188381599681"><ele>15.0</ele><time>2026-04-25T12:48:09.999Z</time></trkpt><trkpt lat="45.63444845352668" lon="12.164185821979617"><ele>15.0</ele><time>2026-04-25T12:48:10.999Z</time></trkpt><trkpt lat="45.634616153406505" lon="12.164182680457674"><ele>15.0</ele><time>2026-04-25T12:48:11.999Z</time></trkpt><trkpt lat="45.634775329587036" lon="12.16417648904743"><ele>15.0</ele><time>2026-04-25T12:48:12.999Z</time></trkpt><trkpt lat="45.63492576263245" lon="12.164167924401259"><ele>15.0</ele><time>2026-04-25T12:48:13.999Z</time></trkpt><trkpt lat="45.635073590133906" lon="12.164160221286803"><ele>15.0</ele><time>2026-04-25T12:48:14.999Z</time></trkpt><trkpt lat="45.63521818691888" lon="12.164143905140046"><ele>15.0</ele><time>2026-04-25T12:48:15.999Z</time></trkpt><trkpt lat="45.635362713320156" lon="12.164122156642655"><ele>15.0</ele><time>2026-04-25T12:48:16.999Z</time></trkpt><trkpt lat="45.635501110789114" lon="12.164094002294688"><ele>15.0</ele><time>2026-04-25T12:48:17.999Z</time></trkpt><trkpt lat="45.63563787110517" lon="12.164062146756393"><ele>15.0</ele><time>2026-04-25T12:48:18.999Z</time></trkpt><trkpt lat="45.63577340736631" lon="12.164027780004302"><ele>15.0</ele><time>2026-04-25T12:48:19.999Z</time></trkpt><trkpt lat="45.63590706219335" lon="12.163993540266741"><ele>15.25</ele><time>2026-04-25T12:48:20.999Z</time></trkpt><trkpt lat="45.63603782642422" lon="12.16395893831136"><ele>15.5</ele><time>2026-04-25T12:48:21.999Z</time></trkpt><trkpt lat="45.63616631048242" lon="12.16392287345945"><ele>15.75</ele><time>2026-04-25T12:48:22.999Z</time></trkpt><trkpt lat="45.636296315488664" lon="12.163887833763123"><ele>16.0</ele><time>2026-04-25T12:48:23.999Z</time></trkpt><trkpt lat="45.636427368021046" lon="12.16385410637557"><ele>16.0</ele><time>2026-04-25T12:48:24.999Z</time></trkpt><trkpt lat="45.63655822643407" lon="12.16382237131943"><ele>16.0</ele><time>2026-04-25T12:48:25.999Z</time></trkpt><trkpt lat="45.636687967683336" lon="12.163787989568055"><ele>16.0</ele><time>2026-04-25T12:48:26.999Z</time></trkpt><trkpt lat="45.63681999342469" lon="12.163751954328749"><ele>16.0</ele><time>2026-04-25T12:48:27.999Z</time></trkpt><trkpt lat="45.636951897169936" lon="12.163715588381207"><ele>16.25</ele><time>2026-04-25T12:48:28.999Z</time></trkpt><trkpt lat="45.63708590606982" lon="12.163679577725748"><ele>16.5</ele><time>2026-04-25T12:48:29.999Z</time></trkpt><trkpt lat="45.63721937480791" lon="12.163645051028608"><ele>16.75</ele><time>2026-04-25T12:48:30.999Z</time></trkpt><trkpt lat="45.637350745083374" lon="12.163610031237784"><ele>17.0</ele><time>2026-04-25T12:48:31.999Z</time></trkpt><trkpt lat="45.63748357155298" lon="12.163574086491463"><ele>17.0</ele><time>2026-04-25T12:48:32.999Z</time></trkpt><trkpt lat="45.637617035624324" lon="12.16353937622398"><ele>17.0</ele><time>2026-04-25T12:48:33.999Z</time></trkpt><trkpt lat="45.63774785869048" lon="12.163505298233813"><ele>17.0</ele><time>2026-04-25T12:48:34.999Z</time></trkpt><trkpt lat="45.637879406076195" lon="12.16346986878474"><ele>17.0</ele><time>2026-04-25T12:48:35.999Z</time></trkpt><trkpt lat="45.63801493504618" lon="12.163435481723251"><ele>16.75</ele><time>2026-04-25T12:48:36.999Z</time></trkpt><trkpt lat="45.63814670595474" lon="12.163401668617743"><ele>16.5</ele><time>2026-04-25T12:48:37.999Z</time></trkpt><trkpt lat="45.63827303598035" lon="12.163369611166608"><ele>16.25</ele><time>2026-04-25T12:48:38.999Z</time></trkpt><trkpt lat="45.638392571529934" lon="12.163340346104379"><ele>16.0</ele><time>2026-04-25T12:48:39.999Z</time></trkpt><trkpt lat="45.638504413340854" lon="12.163311890432274"><ele>16.0</ele><time>2026-04-25T12:48:40.999Z</time></trkpt><trkpt lat="45.638614872453445" lon="12.163285531029"><ele>16.0</ele><time>2026-04-25T12:48:41.999Z</time></trkpt><trkpt lat="45.638721072922266" lon="12.163259134530923"><ele>16.0</ele><time>2026-04-25T12:48:42.999Z</time></trkpt><trkpt lat="45.63882137061822" lon="12.163233546481885"><ele>16.0</ele><time>2026-04-25T12:48:43.999Z</time></trkpt><trkpt lat="45.638915394653054" lon="12.163208408278082"><ele>16.0</ele><time>2026-04-25T12:48:44.999Z</time></trkpt><trkpt lat="45.639005394431" lon="12.16318447157522"><ele>15.833333333333332</ele><time>2026-04-25T12:48:45.999Z</time></trkpt><trkpt lat="45.63908867271823" lon="12.163163589656724"><ele>15.666666666666666</ele><time>2026-04-25T12:48:46.999Z</time></trkpt><trkpt lat="45.639154569694924" lon="12.163149334869376"><ele>15.5</ele><time>2026-04-25T12:48:47.999Z</time></trkpt><trkpt lat="45.63927513978548" lon="12.16314384710081"><ele>15.333333333333332</ele><time>2026-04-25T12:48:49.999Z</time></trkpt><trkpt lat="45.639339836836264" lon="12.16316659464016"><ele>15.166666666666666</ele><time>2026-04-25T12:48:50.999Z</time></trkpt><trkpt lat="45.63940625257165" lon="12.163177606790637"><ele>15.0</ele><time>2026-04-25T12:48:51.999Z</time></trkpt><trkpt lat="45.63947952810527" lon="12.16316168690641"><ele>15.0</ele><time>2026-04-25T12:48:52.999Z</time></trkpt><trkpt lat="45.639557125922224" lon="12.163124560401073"><ele>15.0</ele><time>2026-04-25T12:48:53.999Z</time></trkpt><trkpt lat="45.63963928488061" lon="12.163053758903589"><ele>15.0</ele><time>2026-04-25T12:48:54.999Z</time></trkpt><trkpt lat="45.63974127380801" lon="12.162994762493168"><ele>15.0</ele><time>2026-04-25T12:48:55.999Z</time></trkpt><trkpt lat="45.63985815810395" lon="12.162964684902484"><ele>15.0</ele><time>2026-04-25T12:48:56.999Z</time></trkpt><trkpt lat="45.63997818990149" lon="12.162941448268214"><ele>15.0</ele><time>2026-04-25T12:48:57.999Z</time></trkpt><trkpt lat="45.64010143904239" lon="12.16292780218225"><ele>15.0</ele><time>2026-04-25T12:48:58.999Z</time></trkpt><trkpt lat="45.64022898702352" lon="12.162919100230802"><ele>15.0</ele><time>2026-04-25T12:48:59.999Z</time></trkpt><trkpt lat="45.64036400692292" lon="12.162913398350016"><ele>15.0</ele><time>2026-04-25T12:49:00.999Z</time></trkpt><trkpt lat="45.6405035218045" lon="12.162919962977423"><ele>15.25</ele><time>2026-04-25T12:49:01.999Z</time></trkpt><trkpt lat="45.64064615373932" lon="12.16293627070491"><ele>15.5</ele><time>2026-04-25T12:49:02.999Z</time></trkpt><trkpt lat="45.640781725768974" lon="12.162961592627088"><ele>15.75</ele><time>2026-04-25T12:49:03.999Z</time></trkpt><trkpt lat="45.6409162251124" lon="12.162990549635177"><ele>16.0</ele><time>2026-04-25T12:49:04.999Z</time></trkpt><trkpt lat="45.641047694115564" lon="12.163026199465392"><ele>16.0</ele><time>2026-04-25T12:49:05.999Z</time></trkpt><trkpt lat="45.64117925087143" lon="12.163071139079447"><ele>16.0</ele><time>2026-04-25T12:49:06.999Z</time></trkpt><trkpt lat="45.64130766386401" lon="12.163120902993182"><ele>16.0</ele><time>2026-04-25T12:49:07.999Z</time></trkpt><trkpt lat="45.64143505142127" lon="12.163178777925282"><ele>16.0</ele><time>2026-04-25T12:49:08.999Z</time></trkpt><trkpt lat="45.64155729630185" lon="12.163234099499755"><ele>16.0</ele><time>2026-04-25T12:49:09.999Z</time></trkpt><trkpt lat="45.64166766174994" lon="12.16328810988252"><ele>16.0</ele><time>2026-04-25T12:49:10.999Z</time></trkpt><trkpt lat="45.641778688516105" lon="12.1633392760344"><ele>16.0</ele><time>2026-04-25T12:49:11.999Z</time></trkpt><trkpt lat="45.64188027404628" lon="12.163384715227698"><ele>16.0</ele><time>2026-04-25T12:49:12.999Z</time></trkpt><trkpt lat="45.64198186260095" lon="12.16342813269341"><ele>16.0</ele><time>2026-04-25T12:49:13.999Z</time></trkpt><trkpt lat="45.64207607810969" lon="12.163455822171557"><ele>15.8</ele><time>2026-04-25T12:49:14.999Z</time></trkpt><trkpt lat="45.64216841672867" lon="12.163496717539866"><ele>15.600000000000001</ele><time>2026-04-25T12:49:15.999Z</time></trkpt><trkpt lat="45.64227459904654" lon="12.16353970062843"><ele>15.4</ele><time>2026-04-25T12:49:16.999Z</time></trkpt><trkpt lat="45.64238485335556" lon="12.16360349907175"><ele>15.2</ele><time>2026-04-25T12:49:17.999Z</time></trkpt><trkpt lat="45.64249801263591" lon="12.16365926017729"><ele>15.0</ele><time>2026-04-25T12:49:18.999Z</time></trkpt><trkpt lat="45.64261323365496" lon="12.163715500220945"><ele>15.0</ele><time>2026-04-25T12:49:19.999Z</time></trkpt><trkpt lat="45.642732799288176" lon="12.16377724915507"><ele>15.0</ele><time>2026-04-25T12:49:20.999Z</time></trkpt><trkpt lat="45.64285464816741" lon="12.163842763723055"><ele>15.0</ele><time>2026-04-25T12:49:21.999Z</time></trkpt><trkpt lat="45.64297583698676" lon="12.163906516338553"><ele>15.0</ele><time>2026-04-25T12:49:22.999Z</time></trkpt><trkpt lat="45.6430983177951" lon="12.163972813062665"><ele>14.75</ele><time>2026-04-25T12:49:23.999Z</time></trkpt><trkpt lat="45.64322597894755" lon="12.164045099436832"><ele>14.5</ele><time>2026-04-25T12:49:24.999Z</time></trkpt><trkpt lat="45.64335074863384" lon="12.164130746002224"><ele>14.25</ele><time>2026-04-25T12:49:25.999Z</time></trkpt><trkpt lat="45.64347036753085" lon="12.164224276843557"><ele>14.0</ele><time>2026-04-25T12:49:26.999Z</time></trkpt><trkpt lat="45.64358986553374" lon="12.164323903199241"><ele>13.75</ele><time>2026-04-25T12:49:27.999Z</time></trkpt><trkpt lat="45.6437096027475" lon="12.164426950520928"><ele>13.5</ele><time>2026-04-25T12:49:28.999Z</time></trkpt><trkpt lat="45.64382581233775" lon="12.164532776796928"><ele>13.25</ele><time>2026-04-25T12:49:29.999Z</time></trkpt><trkpt lat="45.643939929284876" lon="12.16465522555661"><ele>13.0</ele><time>2026-04-25T12:49:30.999Z</time></trkpt><trkpt lat="45.644049079460785" lon="12.164782321395947"><ele>13.25</ele><time>2026-04-25T12:49:31.999Z</time></trkpt><trkpt lat="45.644152099412175" lon="12.16491215572063"><ele>13.5</ele><time>2026-04-25T12:49:32.999Z</time></trkpt><trkpt lat="45.64424841718122" lon="12.165049488707476"><ele>13.75</ele><time>2026-04-25T12:49:33.999Z</time></trkpt><trkpt lat="45.64433797923839" lon="12.16519202063135"><ele>14.0</ele><time>2026-04-25T12:49:34.999Z</time></trkpt><trkpt lat="45.64442175721201" lon="12.165332866972458"><ele>14.0</ele><time>2026-04-25T12:49:35.999Z</time></trkpt><trkpt lat="45.64450074019344" lon="12.165473305065404"><ele>14.0</ele><time>2026-04-25T12:49:36.999Z</time></trkpt><trkpt lat="45.644575191698095" lon="12.16560868692752"><ele>14.0</ele><time>2026-04-25T12:49:37.999Z</time></trkpt><trkpt lat="45.64464633120375" lon="12.165744794008164"><ele>14.0</ele><time>2026-04-25T12:49:38.999Z</time></trkpt><trkpt lat="45.64471128263312" lon="12.165881498354443"><ele>14.0</ele><time>2026-04-25T12:49:39.999Z</time></trkpt><trkpt lat="45.644773678699096" lon="12.166019777516892"><ele>14.0</ele><time>2026-04-25T12:49:40.999Z</time></trkpt><trkpt lat="45.644831078178825" lon="12.166160357282154"><ele>14.0</ele><time>2026-04-25T12:49:41.999Z</time></trkpt><trkpt lat="45.64487882672159" lon="12.16630807834026"><ele>14.0</ele><time>2026-04-25T12:49:42.999Z</time></trkpt><trkpt lat="45.64493451048001" lon="12.166453456719559"><ele>14.25</ele><time>2026-04-25T12:49:43.999Z</time></trkpt><trkpt lat="45.64498855897576" lon="12.166597463376526"><ele>14.5</ele><time>2026-04-25T12:49:44.999Z</time></trkpt><trkpt lat="45.645040132226136" lon="12.16674830510583"><ele>14.75</ele><time>2026-04-25T12:49:45.999Z</time></trkpt><trkpt lat="45.64509201500355" lon="12.166895086388907"><ele>15.0</ele><time>2026-04-25T12:49:46.999Z</time></trkpt><trkpt lat="45.645145864517374" lon="12.16704695597656"><ele>15.0</ele><time>2026-04-25T12:49:47.999Z</time></trkpt><trkpt lat="45.64519780128573" lon="12.167195359881632"><ele>15.0</ele><time>2026-04-25T12:49:48.999Z</time></trkpt><trkpt lat="45.645251481449236" lon="12.167349734405361"><ele>15.0</ele><time>2026-04-25T12:49:49.999Z</time></trkpt><trkpt lat="45.64530521898199" lon="12.167508287747346"><ele>15.0</ele><time>2026-04-25T12:49:50.999Z</time></trkpt><trkpt lat="45.64536120838136" lon="12.167664667545596"><ele>15.25</ele><time>2026-04-25T12:49:51.999Z</time></trkpt><trkpt lat="45.64541822415604" lon="12.167821262867314"><ele>15.5</ele><time>2026-04-25T12:49:52.999Z</time></trkpt><trkpt lat="45.64547416883065" lon="12.167983862557747"><ele>15.75</ele><time>2026-04-25T12:49:53.999Z</time></trkpt><trkpt lat="45.64553200297196" lon="12.16814156541666"><ele>16.0</ele><time>2026-04-25T12:49:54.999Z</time></trkpt><trkpt lat="45.645587436456466" lon="12.168298538878895"><ele>16.0</ele><time>2026-04-25T12:49:55.999Z</time></trkpt><trkpt lat="45.645641217961625" lon="12.168455361268549"><ele>16.0</ele><time>2026-04-25T12:49:56.999Z</time></trkpt><trkpt lat="45.64569376645999" lon="12.168607409485126"><ele>16.0</ele><time>2026-04-25T12:49:57.999Z</time></trkpt><trkpt lat="45.645745076634455" lon="12.168759345784354"><ele>16.0</ele><time>2026-04-25T12:49:58.999Z</time></trkpt><trkpt lat="45.645795463110446" lon="12.168910662129926"><ele>16.400000000000002</ele><time>2026-04-25T12:49:59.999Z</time></trkpt><trkpt lat="45.64584564744461" lon="12.169059339446573"><ele>16.8</ele><time>2026-04-25T12:50:00.999Z</time></trkpt><trkpt lat="45.645895718567836" lon="12.169206894837238"><ele>17.200000000000003</ele><time>2026-04-25T12:50:01.999Z</time></trkpt><trkpt lat="45.64594620138563" lon="12.169350467755306"><ele>17.6</ele><time>2026-04-25T12:50:02.999Z</time></trkpt><trkpt lat="45.64599213685772" lon="12.169487151077002"><ele>18.0</ele><time>2026-04-25T12:50:03.999Z</time></trkpt><trkpt lat="45.64603850882718" lon="12.169616248406172"><ele>18.0</ele><time>2026-04-25T12:50:04.999Z</time></trkpt><trkpt lat="45.646080646509255" lon="12.169738374443352"><ele>18.0</ele><time>2026-04-25T12:50:05.999Z</time></trkpt><trkpt lat="45.64611867540899" lon="12.169858700550382"><ele>18.0</ele><time>2026-04-25T12:50:06.999Z</time></trkpt><trkpt lat="45.6461553817247" lon="12.169980885334327"><ele>18.0</ele><time>2026-04-25T12:50:07.999Z</time></trkpt><trkpt lat="45.646190481705865" lon="12.170103986754883"><ele>18.0</ele><time>2026-04-25T12:50:08.999Z</time></trkpt><trkpt lat="45.646223867603375" lon="12.170231447442267"><ele>17.833333333333332</ele><time>2026-04-25T12:50:09.999Z</time></trkpt><trkpt lat="45.64625431636505" lon="12.170357692224949"><ele>17.666666666666668</ele><time>2026-04-25T12:50:10.999Z</time></trkpt><trkpt lat="45.6462814988001" lon="12.170480180290363"><ele>17.5</ele><time>2026-04-25T12:50:11.999Z</time></trkpt><trkpt lat="45.6463039244458" lon="12.170596395357158"><ele>17.333333333333336</ele><time>2026-04-25T12:50:12.999Z</time></trkpt><trkpt lat="45.646320445668316" lon="12.170707731610422"><ele>17.166666666666668</ele><time>2026-04-25T12:50:13.999Z</time></trkpt><trkpt lat="45.646333973187176" lon="12.17082319066982"><ele>17.0</ele><time>2026-04-25T12:50:14.999Z</time></trkpt><trkpt lat="45.64633466742783" lon="12.170940863796135"><ele>16.833333333333336</ele><time>2026-04-25T12:50:15.999Z</time></trkpt><trkpt lat="45.64635233624885" lon="12.171048151327613"><ele>16.666666666666668</ele><time>2026-04-25T12:50:16.999Z</time></trkpt><trkpt lat="45.646397043337856" lon="12.171147746096436"><ele>16.5</ele><time>2026-04-25T12:50:17.999Z</time></trkpt><trkpt lat="45.64647933433138" lon="12.171218257353068"><ele>16.333333333333332</ele><time>2026-04-25T12:50:18.999Z</time></trkpt><trkpt lat="45.64656132742695" lon="12.171283698239316"><ele>16.166666666666664</ele><time>2026-04-25T12:50:19.999Z</time></trkpt><trkpt lat="45.64662419706034" lon="12.171373307100135"><ele>16.0</ele><time>2026-04-25T12:50:20.999Z</time></trkpt><trkpt lat="45.646666966854454" lon="12.171471089596299"><ele>16.2</ele><time>2026-04-25T12:50:21.999Z</time></trkpt><trkpt lat="45.646700964469446" lon="12.171570338219192"><ele>16.400000000000002</ele><time>2026-04-25T12:50:22.999Z</time></trkpt><trkpt lat="45.646731802656504" lon="12.171676426642232"><ele>16.6</ele><time>2026-04-25T12:50:23.999Z</time></trkpt><trkpt lat="45.64676715033539" lon="12.171795909452705"><ele>16.8</ele><time>2026-04-25T12:50:24.999Z</time></trkpt><trkpt lat="45.646807014301565" lon="12.171927932122298"><ele>17.0</ele><time>2026-04-25T12:50:25.999Z</time></trkpt><trkpt lat="45.646846750430534" lon="12.172074869763028"><ele>17.0</ele><time>2026-04-25T12:50:26.999Z</time></trkpt><trkpt lat="45.64688951277869" lon="12.172231818301016"><ele>17.0</ele><time>2026-04-25T12:50:27.999Z</time></trkpt><trkpt lat="45.646930473450126" lon="12.172379920105078"><ele>17.0</ele><time>2026-04-25T12:50:28.999Z</time></trkpt><trkpt lat="45.64696385462978" lon="12.172520489942283"><ele>17.0</ele><time>2026-04-25T12:50:29.999Z</time></trkpt><trkpt lat="45.64699652805264" lon="12.172653176900347"><ele>17.0</ele><time>2026-04-25T12:50:30.999Z</time></trkpt><trkpt lat="45.64703729737514" lon="12.17278392391324"><ele>17.0</ele><time>2026-04-25T12:50:31.999Z</time></trkpt><trkpt lat="45.647082616797356" lon="12.172934871456643"><ele>17.0</ele><time>2026-04-25T12:50:32.999Z</time></trkpt><trkpt lat="45.647111664953165" lon="12.17312050899448"><ele>17.0</ele><time>2026-04-25T12:50:33.999Z</time></trkpt><trkpt lat="45.647151831863034" lon="12.173333796016118"><ele>17.0</ele><time>2026-04-25T12:50:34.999Z</time></trkpt><trkpt lat="45.6472046962542" lon="12.173546575572736"><ele>17.0</ele><time>2026-04-25T12:50:35.999Z</time></trkpt><trkpt lat="45.64726616036378" lon="12.173776151862313"><ele>17.0</ele><time>2026-04-25T12:50:36.999Z</time></trkpt><trkpt lat="45.64733013295545" lon="12.173989889943027"><ele>17.0</ele><time>2026-04-25T12:50:37.999Z</time></trkpt><trkpt lat="45.647378109223226" lon="12.174223695680848"><ele>17.333333333333336</ele><time>2026-04-25T12:50:38.999Z</time></trkpt><trkpt lat="45.64743431425927" lon="12.174455267577313"><ele>17.666666666666668</ele><time>2026-04-25T12:50:39.999Z</time></trkpt><trkpt lat="45.64749416057926" lon="12.174704257706559"><ele>18.0</ele><time>2026-04-25T12:50:40.999Z</time></trkpt><trkpt lat="45.647565142266686" lon="12.175048071611624"><ele>18.333333333333332</ele><time>2026-04-25T12:50:41.999Z</time></trkpt><trkpt lat="45.647624972262705" lon="12.175286110313092"><ele>18.666666666666664</ele><time>2026-04-25T12:50:42.999Z</time></trkpt><trkpt lat="45.64768313203518" lon="12.175523444220874"><ele>19.0</ele><time>2026-04-25T12:50:43.999Z</time></trkpt><trkpt lat="45.64774220666217" lon="12.175757550597474"><ele>18.666666666666664</ele><time>2026-04-25T12:50:44.999Z</time></trkpt><trkpt lat="45.64779540820695" lon="12.175981780700642"><ele>18.333333333333332</ele><time>2026-04-25T12:50:45.999Z</time></trkpt><trkpt lat="45.64785122076425" lon="12.176207200251984"><ele>18.0</ele><time>2026-04-25T12:50:46.999Z</time></trkpt><trkpt lat="45.647901293850026" lon="12.1764239106572"><ele>17.666666666666668</ele><time>2026-04-25T12:50:47.999Z</time></trkpt><trkpt lat="45.647950283243304" lon="12.176633563569501"><ele>17.333333333333336</ele><time>2026-04-25T12:50:48.999Z</time></trkpt><trkpt lat="45.64800046094624" lon="12.176836129650441"><ele>17.0</ele><time>2026-04-25T12:50:49.999Z</time></trkpt><trkpt lat="45.6480504758905" lon="12.177037906096352"><ele>17.0</ele><time>2026-04-25T12:50:50.999Z</time></trkpt><trkpt lat="45.64810151456717" lon="12.177231321729526"><ele>17.0</ele><time>2026-04-25T12:50:51.999Z</time></trkpt><trkpt lat="45.6481495888067" lon="12.177423418613545"><ele>17.0</ele><time>2026-04-25T12:50:52.999Z</time></trkpt><trkpt lat="45.648198176584295" lon="12.177619248398823"><ele>17.0</ele><time>2026-04-25T12:50:53.999Z</time></trkpt><trkpt lat="45.64824621264269" lon="12.177821680131135"><ele>17.0</ele><time>2026-04-25T12:50:54.999Z</time></trkpt><trkpt lat="45.648295106870314" lon="12.178026130242893"><ele>17.0</ele><time>2026-04-25T12:50:55.999Z</time></trkpt><trkpt lat="45.648345176727716" lon="12.178232933954034"><ele>17.0</ele><time>2026-04-25T12:50:56.999Z</time></trkpt><trkpt lat="45.648398703566095" lon="12.17844672619026"><ele>17.0</ele><time>2026-04-25T12:50:57.999Z</time></trkpt><trkpt lat="45.64845188201603" lon="12.178665503639914"><ele>17.0</ele><time>2026-04-25T12:50:58.999Z</time></trkpt><trkpt lat="45.64850585487067" lon="12.178889713663972"><ele>17.0</ele><time>2026-04-25T12:50:59.999Z</time></trkpt><trkpt lat="45.648562668787825" lon="12.17911293774511"><ele>17.0</ele><time>2026-04-25T12:51:00.999Z</time></trkpt><trkpt lat="45.64861645896117" lon="12.179336925095336"><ele>17.0</ele><time>2026-04-25T12:51:01.999Z</time></trkpt><trkpt lat="45.64867000155785" lon="12.179562605014112"><ele>17.0</ele><time>2026-04-25T12:51:02.999Z</time></trkpt><trkpt lat="45.64872779044787" lon="12.179789249145406"><ele>17.0</ele><time>2026-04-25T12:51:03.999Z</time></trkpt><trkpt lat="45.648781807045246" lon="12.180015502558739"><ele>17.0</ele><time>2026-04-25T12:51:04.999Z</time></trkpt><trkpt lat="45.64883953401898" lon="12.180243075405128"><ele>17.0</ele><time>2026-04-25T12:51:05.999Z</time></trkpt><trkpt lat="45.64889137418438" lon="12.180472836706057"><ele>16.666666666666668</ele><time>2026-04-25T12:51:06.999Z</time></trkpt><trkpt lat="45.64894215916328" lon="12.180696045060294"><ele>16.333333333333332</ele><time>2026-04-25T12:51:07.999Z</time></trkpt><trkpt lat="45.64899913465098" lon="12.180921046919932"><ele>16.0</ele><time>2026-04-25T12:51:08.999Z</time></trkpt><trkpt lat="45.649057018758064" lon="12.181139767465602"><ele>16.0</ele><time>2026-04-25T12:51:09.999Z</time></trkpt><trkpt lat="45.64910824475146" lon="12.181364358225789"><ele>16.0</ele><time>2026-04-25T12:51:10.999Z</time></trkpt><trkpt lat="45.649162299565006" lon="12.181584783608034"><ele>16.0</ele><time>2026-04-25T12:51:11.999Z</time></trkpt><trkpt lat="45.64921530214443" lon="12.181809018302928"><ele>16.0</ele><time>2026-04-25T12:51:12.999Z</time></trkpt><trkpt lat="45.64927035221328" lon="12.182026229180654"><ele>16.0</ele><time>2026-04-25T12:51:13.999Z</time></trkpt><trkpt lat="45.64932225350407" lon="12.18224689184232"><ele>16.0</ele><time>2026-04-25T12:51:14.999Z</time></trkpt><trkpt lat="45.649376743284336" lon="12.18246782493151"><ele>15.666666666666666</ele><time>2026-04-25T12:51:15.999Z</time></trkpt><trkpt lat="45.64942994667249" lon="12.182687728649052"><ele>15.333333333333332</ele><time>2026-04-25T12:51:16.999Z</time></trkpt><trkpt lat="45.64948420738061" lon="12.182906635962329"><ele>15.0</ele><time>2026-04-25T12:51:17.999Z</time></trkpt><trkpt lat="45.649540833119346" lon="12.183119128143636"><ele>15.0</ele><time>2026-04-25T12:51:18.999Z</time></trkpt><trkpt lat="45.64958981217864" lon="12.183341178997242"><ele>15.0</ele><time>2026-04-25T12:51:19.999Z</time></trkpt><trkpt lat="45.64964680736708" lon="12.183554648109107"><ele>15.0</ele><time>2026-04-25T12:51:20.999Z</time></trkpt><trkpt lat="45.649699080535775" lon="12.18376834267766"><ele>15.0</ele><time>2026-04-25T12:51:21.999Z</time></trkpt><trkpt lat="45.64974446038464" lon="12.183978582126175"><ele>15.0</ele><time>2026-04-25T12:51:22.999Z</time></trkpt><trkpt lat="45.64979368950638" lon="12.184168045617307"><ele>15.0</ele><time>2026-04-25T12:51:23.999Z</time></trkpt><trkpt lat="45.64983926860346" lon="12.184355927521143"><ele>15.0</ele><time>2026-04-25T12:51:24.999Z</time></trkpt><trkpt lat="45.64988403093464" lon="12.184548828138752"><ele>15.0</ele><time>2026-04-25T12:51:25.999Z</time></trkpt><trkpt lat="45.64993521542891" lon="12.184736886390759"><ele>15.0</ele><time>2026-04-25T12:51:26.999Z</time></trkpt><trkpt lat="45.649976385940434" lon="12.184904610759009"><ele>15.0</ele><time>2026-04-25T12:51:27.999Z</time></trkpt><trkpt lat="45.650013648501286" lon="12.185073054640329"><ele>15.0</ele><time>2026-04-25T12:51:28.999Z</time></trkpt><trkpt lat="45.650056029848095" lon="12.185242638794834"><ele>15.0</ele><time>2026-04-25T12:51:29.999Z</time></trkpt><trkpt lat="45.65009827702015" lon="12.185413380052331"><ele>15.0</ele><time>2026-04-25T12:51:30.999Z</time></trkpt><trkpt lat="45.650137571761476" lon="12.185582637339945"><ele>15.0</ele><time>2026-04-25T12:51:31.999Z</time></trkpt><trkpt lat="45.65017976576401" lon="12.185754899830016"><ele>15.0</ele><time>2026-04-25T12:51:32.999Z</time></trkpt><trkpt lat="45.65022057328812" lon="12.185930547120261"><ele>15.25</ele><time>2026-04-25T12:51:33.999Z</time></trkpt><trkpt lat="45.650268917530184" lon="12.186105625459696"><ele>15.5</ele><time>2026-04-25T12:51:34.999Z</time></trkpt><trkpt lat="45.650321657999406" lon="12.186273628280889"><ele>15.75</ele><time>2026-04-25T12:51:35.999Z</time></trkpt><trkpt lat="45.65037320995724" lon="12.186428957536027"><ele>16.0</ele><time>2026-04-25T12:51:36.999Z</time></trkpt><trkpt lat="45.65041568487" lon="12.186572188162188"><ele>16.0</ele><time>2026-04-25T12:51:37.999Z</time></trkpt><trkpt lat="45.650461665925" lon="12.186720646745195"><ele>16.0</ele><time>2026-04-25T12:51:38.999Z</time></trkpt><trkpt lat="45.65051930730838" lon="12.186892403906286"><ele>16.0</ele><time>2026-04-25T12:51:39.999Z</time></trkpt><trkpt lat="45.65057655587838" lon="12.187072970170378"><ele>16.0</ele><time>2026-04-25T12:51:40.999Z</time></trkpt><trkpt lat="45.65063160238003" lon="12.187259890619716"><ele>16.0</ele><time>2026-04-25T12:51:41.999Z</time></trkpt><trkpt lat="45.65069614550429" lon="12.187462607363967"><ele>16.0</ele><time>2026-04-25T12:51:42.999Z</time></trkpt><trkpt lat="45.65077033089254" lon="12.187662267111715"><ele>16.0</ele><time>2026-04-25T12:51:43.999Z</time></trkpt><trkpt lat="45.65085020908766" lon="12.18787132352831"><ele>16.0</ele><time>2026-04-25T12:51:44.999Z</time></trkpt><trkpt lat="45.650930183428166" lon="12.188076316501503"><ele>16.0</ele><time>2026-04-25T12:51:45.999Z</time></trkpt><trkpt lat="45.651008084910984" lon="12.188283636488045"><ele>16.0</ele><time>2026-04-25T12:51:46.999Z</time></trkpt><trkpt lat="45.651083886956066" lon="12.188493133259385"><ele>16.0</ele><time>2026-04-25T12:51:47.999Z</time></trkpt><trkpt lat="45.65116671201956" lon="12.188702148592553"><ele>16.0</ele><time>2026-04-25T12:51:48.999Z</time></trkpt><trkpt lat="45.65124776179623" lon="12.188905277861892"><ele>16.0</ele><time>2026-04-25T12:51:49.999Z</time></trkpt><trkpt lat="45.65131869976354" lon="12.189104818190266"><ele>16.333333333333332</ele><time>2026-04-25T12:51:50.999Z</time></trkpt><trkpt lat="45.65139496344236" lon="12.18931230486727"><ele>16.666666666666668</ele><time>2026-04-25T12:51:51.999Z</time></trkpt><trkpt lat="45.65147584538578" lon="12.189520868787408"><ele>17.0</ele><time>2026-04-25T12:51:52.999Z</time></trkpt><trkpt lat="45.65154973563048" lon="12.189714549716502"><ele>17.0</ele><time>2026-04-25T12:51:53.999Z</time></trkpt><trkpt lat="45.65162308299729" lon="12.189897247689846"><ele>17.0</ele><time>2026-04-25T12:51:54.999Z</time></trkpt><trkpt lat="45.65169431655586" lon="12.190086028419596"><ele>17.0</ele><time>2026-04-25T12:51:55.999Z</time></trkpt><trkpt lat="45.6517621896338" lon="12.190267832837046"><ele>17.0</ele><time>2026-04-25T12:51:56.999Z</time></trkpt><trkpt lat="45.651830907566534" lon="12.190450843626413"><ele>17.0</ele><time>2026-04-25T12:51:57.999Z</time></trkpt><trkpt lat="45.65190045219033" lon="12.190633840115503"><ele>17.0</ele><time>2026-04-25T12:51:58.999Z</time></trkpt><trkpt lat="45.65196880188303" lon="12.190816433436353"><ele>17.0</ele><time>2026-04-25T12:51:59.999Z</time></trkpt><trkpt lat="45.65204112268146" lon="12.191004837630196"><ele>17.0</ele><time>2026-04-25T12:52:00.999Z</time></trkpt><trkpt lat="45.652112919861594" lon="12.191193761646518"><ele>16.666666666666668</ele><time>2026-04-25T12:52:01.999Z</time></trkpt><trkpt lat="45.65218678663669" lon="12.191388120126721"><ele>16.333333333333332</ele><time>2026-04-25T12:52:02.999Z</time></trkpt><trkpt lat="45.65225938170722" lon="12.191578953994371"><ele>16.0</ele><time>2026-04-25T12:52:03.999Z</time></trkpt><trkpt lat="45.652334841082045" lon="12.191779784386068"><ele>16.0</ele><time>2026-04-25T12:52:04.999Z</time></trkpt><trkpt lat="45.65240421365751" lon="12.191978373949151"><ele>16.0</ele><time>2026-04-25T12:52:05.999Z</time></trkpt><trkpt lat="45.65247963906802" lon="12.192178263456075"><ele>16.0</ele><time>2026-04-25T12:52:06.999Z</time></trkpt><trkpt lat="45.65255034693275" lon="12.19238080460898"><ele>16.333333333333332</ele><time>2026-04-25T12:52:07.999Z</time></trkpt><trkpt lat="45.65263064478774" lon="12.19258208702631"><ele>16.666666666666668</ele><time>2026-04-25T12:52:08.999Z</time></trkpt><trkpt lat="45.65270711493895" lon="12.192786855606125"><ele>17.0</ele><time>2026-04-25T12:52:09.999Z</time></trkpt><trkpt lat="45.65278007864759" lon="12.192998611697"><ele>16.333333333333336</ele><time>2026-04-25T12:52:10.999Z</time></trkpt><trkpt lat="45.65284634301874" lon="12.19321177031155"><ele>15.666666666666668</ele><time>2026-04-25T12:52:11.999Z</time></trkpt><trkpt lat="45.65290753936161" lon="12.193425140521265"><ele>15.0</ele><time>2026-04-25T12:52:12.999Z</time></trkpt><trkpt lat="45.65296386184268" lon="12.193641716347043"><ele>15.0</ele><time>2026-04-25T12:52:13.999Z</time></trkpt><trkpt lat="45.653008760500214" lon="12.193859127017888"><ele>15.0</ele><time>2026-04-25T12:52:14.999Z</time></trkpt><trkpt lat="45.65305356445259" lon="12.194077471870552"><ele>15.0</ele><time>2026-04-25T12:52:15.999Z</time></trkpt><trkpt lat="45.653101974626495" lon="12.194298409343727"><ele>15.0</ele><time>2026-04-25T12:52:16.999Z</time></trkpt><trkpt lat="45.653147121889205" lon="12.19451729653322"><ele>15.0</ele><time>2026-04-25T12:52:17.999Z</time></trkpt><trkpt lat="45.653190227376356" lon="12.194736756324286"><ele>15.0</ele><time>2026-04-25T12:52:18.999Z</time></trkpt><trkpt lat="45.653233474276654" lon="12.194960766077893"><ele>14.333333333333332</ele><time>2026-04-25T12:52:19.999Z</time></trkpt><trkpt lat="45.653274349581615" lon="12.195173605187911"><ele>13.666666666666666</ele><time>2026-04-25T12:52:20.999Z</time></trkpt><trkpt lat="45.65331479044643" lon="12.195386880674146"><ele>13.0</ele><time>2026-04-25T12:52:21.999Z</time></trkpt><trkpt lat="45.65336034418146" lon="12.195596722152409"><ele>13.75</ele><time>2026-04-25T12:52:22.999Z</time></trkpt><trkpt lat="45.65341109064585" lon="12.195800291325428"><ele>14.5</ele><time>2026-04-25T12:52:23.999Z</time></trkpt><trkpt lat="45.65346154297116" lon="12.195997447190784"><ele>15.25</ele><time>2026-04-25T12:52:24.999Z</time></trkpt><trkpt lat="45.65351799016733" lon="12.196185333507088"><ele>16.0</ele><time>2026-04-25T12:52:25.999Z</time></trkpt><trkpt lat="45.653581022664824" lon="12.196370939348707"><ele>15.5</ele><time>2026-04-25T12:52:26.999Z</time></trkpt><trkpt lat="45.65364787434019" lon="12.196557134298825"><ele>15.0</ele><time>2026-04-25T12:52:27.999Z</time></trkpt><trkpt lat="45.653715666159464" lon="12.196746884045947"><ele>14.5</ele><time>2026-04-25T12:52:28.999Z</time></trkpt><trkpt lat="45.653784693415965" lon="12.196940290982441"><ele>14.0</ele><time>2026-04-25T12:52:29.999Z</time></trkpt><trkpt lat="45.65385178053214" lon="12.197133821563606"><ele>14.0</ele><time>2026-04-25T12:52:30.999Z</time></trkpt><trkpt lat="45.65391903279305" lon="12.19733261313843"><ele>14.0</ele><time>2026-04-25T12:52:31.999Z</time></trkpt><trkpt lat="45.653990663238275" lon="12.197528588470236"><ele>14.0</ele><time>2026-04-25T12:52:32.999Z</time></trkpt><trkpt lat="45.65406101424212" lon="12.197730976699859"><ele>14.666666666666668</ele><time>2026-04-25T12:52:33.999Z</time></trkpt><trkpt lat="45.654131694384766" lon="12.19793013719505"><ele>15.333333333333332</ele><time>2026-04-25T12:52:34.999Z</time></trkpt><trkpt lat="45.6542032157836" lon="12.19813846377342"><ele>16.0</ele><time>2026-04-25T12:52:35.999Z</time></trkpt><trkpt lat="45.654275060324174" lon="12.198341882006943"><ele>16.0</ele><time>2026-04-25T12:52:36.999Z</time></trkpt><trkpt lat="45.65434518133181" lon="12.19854787109645"><ele>16.0</ele><time>2026-04-25T12:52:37.999Z</time></trkpt><trkpt lat="45.65441091428107" lon="12.198756077078862"><ele>16.0</ele><time>2026-04-25T12:52:38.999Z</time></trkpt><trkpt lat="45.65447366762445" lon="12.198972578007844"><ele>15.333333333333332</ele><time>2026-04-25T12:52:39.999Z</time></trkpt><trkpt lat="45.65453006390988" lon="12.199187529897202"><ele>14.666666666666668</ele><time>2026-04-25T12:52:40.999Z</time></trkpt><trkpt lat="45.65457583714028" lon="12.1994043677881"><ele>14.0</ele><time>2026-04-25T12:52:41.999Z</time></trkpt><trkpt lat="45.654618992499465" lon="12.199615780491188"><ele>14.0</ele><time>2026-04-25T12:52:42.999Z</time></trkpt><trkpt lat="45.65466580431529" lon="12.199834175511995"><ele>14.0</ele><time>2026-04-25T12:52:43.999Z</time></trkpt><trkpt lat="45.654712394385065" lon="12.200042657741"><ele>14.0</ele><time>2026-04-25T12:52:44.999Z</time></trkpt><trkpt lat="45.65476157315978" lon="12.200265145367947"><ele>14.0</ele><time>2026-04-25T12:52:45.999Z</time></trkpt><trkpt lat="45.65480042357657" lon="12.200480190625056"><ele>14.0</ele><time>2026-04-25T12:52:46.999Z</time></trkpt><trkpt lat="45.65484614936529" lon="12.200699734728778"><ele>14.0</ele><time>2026-04-25T12:52:47.999Z</time></trkpt><trkpt lat="45.654889535168685" lon="12.200911465480013"><ele>14.0</ele><time>2026-04-25T12:52:48.999Z</time></trkpt><trkpt lat="45.65493740279653" lon="12.20113173681456"><ele>14.0</ele><time>2026-04-25T12:52:49.999Z</time></trkpt><trkpt lat="45.65497618523341" lon="12.201345621927318"><ele>14.0</ele><time>2026-04-25T12:52:50.999Z</time></trkpt><trkpt lat="45.6550081985276" lon="12.201564348297653"><ele>14.0</ele><time>2026-04-25T12:52:51.999Z</time></trkpt><trkpt lat="45.65503400411215" lon="12.201778830540585"><ele>14.0</ele><time>2026-04-25T12:52:52.999Z</time></trkpt><trkpt lat="45.65505628643812" lon="12.201991876825273"><ele>14.0</ele><time>2026-04-25T12:52:53.999Z</time></trkpt><trkpt lat="45.65507538221272" lon="12.20220022103745"><ele>14.25</ele><time>2026-04-25T12:52:54.999Z</time></trkpt><trkpt lat="45.655092938080585" lon="12.202393506402478"><ele>14.5</ele><time>2026-04-25T12:52:55.999Z</time></trkpt><trkpt lat="45.6551127746191" lon="12.202593806532326"><ele>14.75</ele><time>2026-04-25T12:52:56.999Z</time></trkpt><trkpt lat="45.65513238011348" lon="12.202780462703846"><ele>15.0</ele><time>2026-04-25T12:52:57.999Z</time></trkpt><trkpt lat="45.655151471385466" lon="12.202967787963912"><ele>15.0</ele><time>2026-04-25T12:52:58.999Z</time></trkpt><trkpt lat="45.655174123195174" lon="12.203156016428998"><ele>15.0</ele><time>2026-04-25T12:52:59.999Z</time></trkpt><trkpt lat="45.65519508775694" lon="12.203341679854265"><ele>15.0</ele><time>2026-04-25T12:53:00.999Z</time></trkpt><trkpt lat="45.6552151330398" lon="12.203527487831717"><ele>15.0</ele><time>2026-04-25T12:53:01.999Z</time></trkpt><trkpt lat="45.655235477612194" lon="12.203710118485306"><ele>15.0</ele><time>2026-04-25T12:53:02.999Z</time></trkpt><trkpt lat="45.655255645120235" lon="12.203896257298481"><ele>15.0</ele><time>2026-04-25T12:53:03.999Z</time></trkpt><trkpt lat="45.65527671584372" lon="12.204080863435124"><ele>15.0</ele><time>2026-04-25T12:53:04.999Z</time></trkpt><trkpt lat="45.65529323796455" lon="12.204269078374496"><ele>15.0</ele><time>2026-04-25T12:53:05.999Z</time></trkpt><trkpt lat="45.655308038524296" lon="12.204453078759036"><ele>15.25</ele><time>2026-04-25T12:53:06.999Z</time></trkpt><trkpt lat="45.655331324067994" lon="12.204612920515636"><ele>15.5</ele><time>2026-04-25T12:53:07.999Z</time></trkpt><trkpt lat="45.655330617816624" lon="12.204791969199128"><ele>15.75</ele><time>2026-04-25T12:53:08.999Z</time></trkpt><trkpt lat="45.65533418438641" lon="12.204957244674192"><ele>16.0</ele><time>2026-04-25T12:53:09.999Z</time></trkpt><trkpt lat="45.65532898219922" lon="12.205119159822367"><ele>16.0</ele><time>2026-04-25T12:53:10.999Z</time></trkpt><trkpt lat="45.655323216465575" lon="12.20528406687217"><ele>16.0</ele><time>2026-04-25T12:53:11.999Z</time></trkpt><trkpt lat="45.65531539194188" lon="12.205432003883384"><ele>16.0</ele><time>2026-04-25T12:53:12.999Z</time></trkpt><trkpt lat="45.65531393311731" lon="12.205583305571393"><ele>16.0</ele><time>2026-04-25T12:53:13.999Z</time></trkpt><trkpt lat="45.65530712377519" lon="12.205729903908233"><ele>16.0</ele><time>2026-04-25T12:53:14.999Z</time></trkpt><trkpt lat="45.65531227063433" lon="12.205874826613767"><ele>15.75</ele><time>2026-04-25T12:53:15.999Z</time></trkpt><trkpt lat="45.65531093959948" lon="12.206019608684098"><ele>15.5</ele><time>2026-04-25T12:53:16.999Z</time></trkpt><trkpt lat="45.65531131354497" lon="12.20617737199126"><ele>15.25</ele><time>2026-04-25T12:53:17.999Z</time></trkpt><trkpt lat="45.6553153139446" lon="12.206354258361245"><ele>15.0</ele><time>2026-04-25T12:53:18.999Z</time></trkpt><trkpt lat="45.65532310448748" lon="12.20654694920159"><ele>14.75</ele><time>2026-04-25T12:53:19.999Z</time></trkpt><trkpt lat="45.65533307910309" lon="12.20674832959623"><ele>14.5</ele><time>2026-04-25T12:53:20.999Z</time></trkpt><trkpt lat="45.65534861003255" lon="12.206961308775606"><ele>14.25</ele><time>2026-04-25T12:53:21.999Z</time></trkpt><trkpt lat="45.65536726954687" lon="12.207173627330002"><ele>14.0</ele><time>2026-04-25T12:53:22.999Z</time></trkpt><trkpt lat="45.65539114683211" lon="12.207390033250665"><ele>14.0</ele><time>2026-04-25T12:53:23.999Z</time></trkpt><trkpt lat="45.655419398584264" lon="12.20760383477509"><ele>14.0</ele><time>2026-04-25T12:53:24.999Z</time></trkpt><trkpt lat="45.655457311892675" lon="12.207818688318188"><ele>14.0</ele><time>2026-04-25T12:53:25.999Z</time></trkpt><trkpt lat="45.65550568842017" lon="12.208034861149097"><ele>14.333333333333334</ele><time>2026-04-25T12:53:26.999Z</time></trkpt><trkpt lat="45.65556210162129" lon="12.208247680130828"><ele>14.666666666666668</ele><time>2026-04-25T12:53:27.999Z</time></trkpt><trkpt lat="45.65562322879892" lon="12.208452938010453"><ele>15.0</ele><time>2026-04-25T12:53:28.999Z</time></trkpt><trkpt lat="45.65568045687149" lon="12.20864472077253"><ele>15.0</ele><time>2026-04-25T12:53:29.999Z</time></trkpt><trkpt lat="45.65573683205141" lon="12.208826339008448"><ele>15.0</ele><time>2026-04-25T12:53:30.999Z</time></trkpt><trkpt lat="45.65578918620904" lon="12.209003605658546"><ele>15.0</ele><time>2026-04-25T12:53:31.999Z</time></trkpt><trkpt lat="45.655838844714204" lon="12.209172981781386"><ele>15.0</ele><time>2026-04-25T12:53:32.999Z</time></trkpt><trkpt lat="45.65588329766936" lon="12.209333663345168"><ele>14.8</ele><time>2026-04-25T12:53:33.999Z</time></trkpt><trkpt lat="45.65591068901957" lon="12.209493249905623"><ele>14.6</ele><time>2026-04-25T12:53:34.999Z</time></trkpt><trkpt lat="45.65592093794085" lon="12.209646828993849"><ele>14.399999999999999</ele><time>2026-04-25T12:53:35.999Z</time></trkpt><trkpt lat="45.6559171937648" lon="12.209800607249505"><ele>14.2</ele><time>2026-04-25T12:53:36.999Z</time></trkpt><trkpt lat="45.65589762922273" lon="12.209945640117065"><ele>14.0</ele><time>2026-04-25T12:53:37.999Z</time></trkpt><trkpt lat="45.65586766240009" lon="12.210069952281426"><ele>14.0</ele><time>2026-04-25T12:53:38.999Z</time></trkpt><trkpt lat="45.65582910677362" lon="12.210168698870117"><ele>13.999999999999998</ele><time>2026-04-25T12:53:39.999Z</time></trkpt><trkpt lat="45.65577484397126" lon="12.210274593184058"><ele>13.999999999999998</ele><time>2026-04-25T12:53:41.999Z</time></trkpt><trkpt lat="45.655697564432415" lon="12.21034861375979"><ele>14.0</ele><time>2026-04-25T12:53:44.999Z</time></trkpt><trkpt lat="45.65560809073576" lon="12.210472509795077"><ele>14.0</ele><time>2026-04-25T12:53:46.999Z</time></trkpt><trkpt lat="45.65555625137494" lon="12.21059296038001"><ele>13.799999999999999</ele><time>2026-04-25T12:53:47.999Z</time></trkpt><trkpt lat="45.65551878462879" lon="12.210728367240266"><ele>13.599999999999998</ele><time>2026-04-25T12:53:48.999Z</time></trkpt><trkpt lat="45.65549551306053" lon="12.210889302515458"><ele>13.4</ele><time>2026-04-25T12:53:49.999Z</time></trkpt><trkpt lat="45.65549887045387" lon="12.21104404084498"><ele>13.2</ele><time>2026-04-25T12:53:50.999Z</time></trkpt><trkpt lat="45.655518618365825" lon="12.211201768517068"><ele>13.0</ele><time>2026-04-25T12:53:51.999Z</time></trkpt><trkpt lat="45.655570986737025" lon="12.211340655697093"><ele>13.0</ele><time>2026-04-25T12:53:52.999Z</time></trkpt><trkpt lat="45.65565176458191" lon="12.211458434345309"><ele>13.0</ele><time>2026-04-25T12:53:53.999Z</time></trkpt><trkpt lat="45.65575369951317" lon="12.211549481759759"><ele>13.0</ele><time>2026-04-25T12:53:54.999Z</time></trkpt><trkpt lat="45.65587241454845" lon="12.211589461948558"><ele>13.0</ele><time>2026-04-25T12:53:55.999Z</time></trkpt><trkpt lat="45.65596767103596" lon="12.211638766828848"><ele>12.8</ele><time>2026-04-25T12:53:56.999Z</time></trkpt><trkpt lat="45.65606134494439" lon="12.211689574906075"><ele>12.600000000000001</ele><time>2026-04-25T12:53:57.999Z</time></trkpt><trkpt lat="45.656137552023786" lon="12.211777206053032"><ele>12.399999999999999</ele><time>2026-04-25T12:53:58.999Z</time></trkpt><trkpt lat="45.65620072798709" lon="12.211876949252753"><ele>12.2</ele><time>2026-04-25T12:53:59.999Z</time></trkpt><trkpt lat="45.65626062090971" lon="12.211967103969608"><ele>12.0</ele><time>2026-04-25T12:54:00.999Z</time></trkpt><trkpt lat="45.65633424854905" lon="12.212035697497951"><ele>11.6</ele><time>2026-04-25T12:54:01.999Z</time></trkpt><trkpt lat="45.656423692680264" lon="12.21208282520377"><ele>11.2</ele><time>2026-04-25T12:54:02.999Z</time></trkpt><trkpt lat="45.65652331877866" lon="12.212105402373627"><ele>10.8</ele><time>2026-04-25T12:54:03.999Z</time></trkpt><trkpt lat="45.65663013004514" lon="12.212110729962424"><ele>10.4</ele><time>2026-04-25T12:54:04.999Z</time></trkpt><trkpt lat="45.65674120555284" lon="12.212112354364296"><ele>10.0</ele><time>2026-04-25T12:54:05.999Z</time></trkpt><trkpt lat="45.65685363359236" lon="12.212123019857287"><ele>10.25</ele><time>2026-04-25T12:54:06.999Z</time></trkpt><trkpt lat="45.65696675135479" lon="12.212145442604383"><ele>10.5</ele><time>2026-04-25T12:54:07.999Z</time></trkpt><trkpt lat="45.65708072811696" lon="12.212184048733548"><ele>10.75</ele><time>2026-04-25T12:54:08.999Z</time></trkpt><trkpt lat="45.65719384347981" lon="12.212251039410821"><ele>11.0</ele><time>2026-04-25T12:54:09.999Z</time></trkpt><trkpt lat="45.65730388568654" lon="12.212345187199256"><ele>11.0</ele><time>2026-04-25T12:54:10.999Z</time></trkpt><trkpt lat="45.657405265852404" lon="12.212462472558743"><ele>11.0</ele><time>2026-04-25T12:54:11.999Z</time></trkpt><trkpt lat="45.65749444853061" lon="12.21259479014185"><ele>11.0</ele><time>2026-04-25T12:54:12.999Z</time></trkpt><trkpt lat="45.65758080945954" lon="12.212732059722201"><ele>11.0</ele><time>2026-04-25T12:54:13.999Z</time></trkpt><trkpt lat="45.65766618332794" lon="12.212866262379523"><ele>11.0</ele><time>2026-04-25T12:54:14.999Z</time></trkpt><trkpt lat="45.65775304649435" lon="12.21299982770698"><ele>11.0</ele><time>2026-04-25T12:54:15.999Z</time></trkpt><trkpt lat="45.65783808687245" lon="12.213132534044712"><ele>11.0</ele><time>2026-04-25T12:54:16.999Z</time></trkpt><trkpt lat="45.657923816906234" lon="12.213267347660912"><ele>11.0</ele><time>2026-04-25T12:54:17.999Z</time></trkpt><trkpt lat="45.658007007510335" lon="12.21340734355037"><ele>12.25</ele><time>2026-04-25T12:54:18.999Z</time></trkpt><trkpt lat="45.65808542944654" lon="12.213556734023594"><ele>13.5</ele><time>2026-04-25T12:54:19.999Z</time></trkpt><trkpt lat="45.65815550124817" lon="12.213711517767168"><ele>14.75</ele><time>2026-04-25T12:54:20.999Z</time></trkpt><trkpt lat="45.658219239216216" lon="12.213865106100114"><ele>16.0</ele><time>2026-04-25T12:54:21.999Z</time></trkpt><trkpt lat="45.658275377836" lon="12.214014846257932"><ele>16.0</ele><time>2026-04-25T12:54:22.999Z</time></trkpt><trkpt lat="45.658325466110995" lon="12.214158126676033"><ele>16.0</ele><time>2026-04-25T12:54:23.999Z</time></trkpt><trkpt lat="45.658372869920974" lon="12.214304000854284"><ele>16.0</ele><time>2026-04-25T12:54:24.999Z</time></trkpt><trkpt lat="45.65841700384019" lon="12.214443712324764"><ele>16.0</ele><time>2026-04-25T12:54:25.999Z</time></trkpt><trkpt lat="45.6584622373002" lon="12.214572177540946"><ele>16.0</ele><time>2026-04-25T12:54:26.999Z</time></trkpt><trkpt lat="45.65850325459234" lon="12.214692211653293"><ele>15.999999999999998</ele><time>2026-04-25T12:54:27.999Z</time></trkpt><trkpt lat="45.65854155575806" lon="12.214804157097383"><ele>16.0</ele><time>2026-04-25T12:54:28.999Z</time></trkpt><trkpt lat="45.658577502689916" lon="12.214913982840569"><ele>16.0</ele><time>2026-04-25T12:54:29.999Z</time></trkpt><trkpt lat="45.65861472957487" lon="12.215025599034822"><ele>16.0</ele><time>2026-04-25T12:54:30.999Z</time></trkpt><trkpt lat="45.658652837523505" lon="12.215143488701685"><ele>15.999999999999998</ele><time>2026-04-25T12:54:31.999Z</time></trkpt><trkpt lat="45.65869371109018" lon="12.215265253242187"><ele>16.0</ele><time>2026-04-25T12:54:32.999Z</time></trkpt><trkpt lat="45.65873625252737" lon="12.215392681748996"><ele>15.8</ele><time>2026-04-25T12:54:33.999Z</time></trkpt><trkpt lat="45.658780412129595" lon="12.215523837674695"><ele>15.600000000000001</ele><time>2026-04-25T12:54:34.999Z</time></trkpt><trkpt lat="45.658823267953295" lon="12.21565744915771"><ele>15.4</ele><time>2026-04-25T12:54:35.999Z</time></trkpt><trkpt lat="45.658868684856806" lon="12.21579138069623"><ele>15.2</ele><time>2026-04-25T12:54:36.999Z</time></trkpt><trkpt lat="45.65891449661337" lon="12.215926477062135"><ele>15.0</ele><time>2026-04-25T12:54:37.999Z</time></trkpt><trkpt lat="45.65895792349782" lon="12.216066789741301"><ele>15.25</ele><time>2026-04-25T12:54:38.999Z</time></trkpt><trkpt lat="45.659004362176695" lon="12.2162113664975"><ele>15.5</ele><time>2026-04-25T12:54:39.999Z</time></trkpt><trkpt lat="45.659056741179235" lon="12.216356180409553"><ele>15.75</ele><time>2026-04-25T12:54:40.999Z</time></trkpt><trkpt lat="45.659117081867514" lon="12.216500204853146"><ele>16.0</ele><time>2026-04-25T12:54:41.999Z</time></trkpt><trkpt lat="45.65917979348552" lon="12.216641677212323"><ele>16.0</ele><time>2026-04-25T12:54:42.999Z</time></trkpt><trkpt lat="45.659244798578186" lon="12.216781110923751"><ele>16.0</ele><time>2026-04-25T12:54:43.999Z</time></trkpt><trkpt lat="45.65931761218621" lon="12.216913684100343"><ele>16.0</ele><time>2026-04-25T12:54:44.999Z</time></trkpt><trkpt lat="45.659393571148264" lon="12.217043126746054"><ele>16.0</ele><time>2026-04-25T12:54:45.999Z</time></trkpt><trkpt lat="45.65947429049624" lon="12.217172998290087"><ele>16.25</ele><time>2026-04-25T12:54:46.999Z</time></trkpt><trkpt lat="45.65956085926269" lon="12.21729330981603"><ele>16.5</ele><time>2026-04-25T12:54:47.999Z</time></trkpt><trkpt lat="45.659652215595315" lon="12.217404443285387"><ele>16.75</ele><time>2026-04-25T12:54:48.999Z</time></trkpt><trkpt lat="45.6597434706622" lon="12.21750974642861"><ele>17.0</ele><time>2026-04-25T12:54:49.999Z</time></trkpt><trkpt lat="45.65983324022292" lon="12.217616996269864"><ele>17.2</ele><time>2026-04-25T12:54:50.999Z</time></trkpt><trkpt lat="45.65992354998763" lon="12.217721363220749"><ele>17.4</ele><time>2026-04-25T12:54:51.999Z</time></trkpt><trkpt lat="45.66001281092446" lon="12.217826175455365"><ele>17.6</ele><time>2026-04-25T12:54:52.999Z</time></trkpt><trkpt lat="45.660094765530125" lon="12.217925440399403"><ele>17.8</ele><time>2026-04-25T12:54:53.999Z</time></trkpt><trkpt lat="45.660168383501066" lon="12.218026267081743"><ele>18.0</ele><time>2026-04-25T12:54:54.999Z</time></trkpt><trkpt lat="45.6602379362809" lon="12.218129064837003"><ele>17.8</ele><time>2026-04-25T12:54:55.999Z</time></trkpt><trkpt lat="45.66030764044241" lon="12.21823309282683"><ele>17.6</ele><time>2026-04-25T12:54:56.999Z</time></trkpt><trkpt lat="45.66037306035782" lon="12.218341324657708"><ele>17.4</ele><time>2026-04-25T12:54:57.999Z</time></trkpt><trkpt lat="45.66043810698427" lon="12.218455349273434"><ele>17.2</ele><time>2026-04-25T12:54:58.999Z</time></trkpt><trkpt lat="45.66050427925906" lon="12.218574320427553"><ele>17.0</ele><time>2026-04-25T12:54:59.999Z</time></trkpt><trkpt lat="45.66057193300356" lon="12.218699255644475"><ele>17.0</ele><time>2026-04-25T12:55:00.999Z</time></trkpt><trkpt lat="45.66064144425762" lon="12.218831597661568"><ele>17.0</ele><time>2026-04-25T12:55:01.999Z</time></trkpt><trkpt lat="45.660713642848485" lon="12.218965333341169"><ele>17.0</ele><time>2026-04-25T12:55:02.999Z</time></trkpt><trkpt lat="45.66078232427687" lon="12.21909855588074"><ele>17.0</ele><time>2026-04-25T12:55:03.999Z</time></trkpt><trkpt lat="45.6608502659965" lon="12.219222179134322"><ele>16.8</ele><time>2026-04-25T12:55:04.999Z</time></trkpt><trkpt lat="45.66091589359283" lon="12.219338988059592"><ele>16.6</ele><time>2026-04-25T12:55:05.999Z</time></trkpt><trkpt lat="45.660977542394484" lon="12.219456182229518"><ele>16.400000000000002</ele><time>2026-04-25T12:55:06.999Z</time></trkpt><trkpt lat="45.661037611135036" lon="12.219578430133408"><ele>16.2</ele><time>2026-04-25T12:55:07.999Z</time></trkpt><trkpt lat="45.661099325596105" lon="12.219696757463813"><ele>16.0</ele><time>2026-04-25T12:55:08.999Z</time></trkpt><trkpt lat="45.661160160192516" lon="12.219813370514245"><ele>15.4</ele><time>2026-04-25T12:55:09.999Z</time></trkpt><trkpt lat="45.66121946785926" lon="12.219928090861156"><ele>14.8</ele><time>2026-04-25T12:55:10.999Z</time></trkpt><trkpt lat="45.66127827196816" lon="12.22004054684745"><ele>14.200000000000001</ele><time>2026-04-25T12:55:11.999Z</time></trkpt><trkpt lat="45.66134000562157" lon="12.220155042355056"><ele>13.600000000000001</ele><time>2026-04-25T12:55:12.999Z</time></trkpt><trkpt lat="45.66140760794892" lon="12.220273884599969"><ele>13.0</ele><time>2026-04-25T12:55:13.999Z</time></trkpt><trkpt lat="45.66148105457162" lon="12.220397136474901"><ele>13.0</ele><time>2026-04-25T12:55:14.999Z</time></trkpt><trkpt lat="45.661559249243865" lon="12.220527518305088"><ele>13.0</ele><time>2026-04-25T12:55:15.999Z</time></trkpt><trkpt lat="45.661639082553684" lon="12.220666908605912"><ele>13.0</ele><time>2026-04-25T12:55:16.999Z</time></trkpt><trkpt lat="45.661725254366274" lon="12.220813777359732"><ele>13.0</ele><time>2026-04-25T12:55:17.999Z</time></trkpt><trkpt lat="45.661816514436005" lon="12.220964049749798"><ele>12.75</ele><time>2026-04-25T12:55:18.999Z</time></trkpt><trkpt lat="45.66191004157592" lon="12.22111267727518"><ele>12.5</ele><time>2026-04-25T12:55:19.999Z</time></trkpt><trkpt lat="45.66201901093464" lon="12.221252610672595"><ele>12.25</ele><time>2026-04-25T12:55:20.999Z</time></trkpt><trkpt lat="45.66213319031131" lon="12.221383243769678"><ele>12.0</ele><time>2026-04-25T12:55:21.999Z</time></trkpt><trkpt lat="45.66225551430272" lon="12.221500571582435"><ele>13.25</ele><time>2026-04-25T12:55:22.999Z</time></trkpt><trkpt lat="45.66238027682606" lon="12.221608393704578"><ele>14.5</ele><time>2026-04-25T12:55:23.999Z</time></trkpt><trkpt lat="45.662506503043346" lon="12.221707721371004"><ele>15.75</ele><time>2026-04-25T12:55:24.999Z</time></trkpt><trkpt lat="45.66263774344693" lon="12.221790791843613"><ele>17.0</ele><time>2026-04-25T12:55:25.999Z</time></trkpt><trkpt lat="45.66277424788039" lon="12.221857390694252"><ele>16.0</ele><time>2026-04-25T12:55:26.999Z</time></trkpt><trkpt lat="45.66291490795075" lon="12.221909949081677"><ele>15.0</ele><time>2026-04-25T12:55:27.999Z</time></trkpt><trkpt lat="45.66305728888071" lon="12.221953574856348"><ele>14.0</ele><time>2026-04-25T12:55:28.999Z</time></trkpt><trkpt lat="45.66319805999376" lon="12.221987124984041"><ele>13.0</ele><time>2026-04-25T12:55:29.999Z</time></trkpt><trkpt lat="45.66333683419215" lon="12.222012917937048"><ele>13.0</ele><time>2026-04-25T12:55:30.999Z</time></trkpt><trkpt lat="45.66347369143985" lon="12.222036650234612"><ele>13.0</ele><time>2026-04-25T12:55:31.999Z</time></trkpt><trkpt lat="45.66360566856773" lon="12.222062122346124"><ele>13.0</ele><time>2026-04-25T12:55:32.999Z</time></trkpt><trkpt lat="45.66373718636989" lon="12.22208824764817"><ele>13.0</ele><time>2026-04-25T12:55:33.999Z</time></trkpt><trkpt lat="45.66386645006871" lon="12.22211196701579"><ele>14.0</ele><time>2026-04-25T12:55:34.999Z</time></trkpt><trkpt lat="45.66399699954871" lon="12.222135681104021"><ele>15.0</ele><time>2026-04-25T12:55:35.999Z</time></trkpt><trkpt lat="45.66412810422517" lon="12.22215932396071"><ele>16.0</ele><time>2026-04-25T12:55:36.999Z</time></trkpt><trkpt lat="45.664257296154624" lon="12.222183032649792"><ele>17.0</ele><time>2026-04-25T12:55:37.999Z</time></trkpt><trkpt lat="45.66437936799512" lon="12.22220632504569"><ele>16.0</ele><time>2026-04-25T12:55:38.999Z</time></trkpt><trkpt lat="45.66450202923659" lon="12.222229211680038"><ele>15.0</ele><time>2026-04-25T12:55:39.999Z</time></trkpt><trkpt lat="45.66461933121966" lon="12.222250576386662"><ele>14.0</ele><time>2026-04-25T12:55:40.999Z</time></trkpt><trkpt lat="45.664736810322765" lon="12.2222733227501"><ele>13.0</ele><time>2026-04-25T12:55:41.999Z</time></trkpt><trkpt lat="45.6648539989102" lon="12.222295495349517"><ele>13.75</ele><time>2026-04-25T12:55:42.999Z</time></trkpt><trkpt lat="45.664971262322" lon="12.222317806937202"><ele>14.5</ele><time>2026-04-25T12:55:43.999Z</time></trkpt><trkpt lat="45.665089450883684" lon="12.222342321088187"><ele>15.25</ele><time>2026-04-25T12:55:44.999Z</time></trkpt><trkpt lat="45.66520827457027" lon="12.222363260640378"><ele>16.0</ele><time>2026-04-25T12:55:45.999Z</time></trkpt><trkpt lat="45.66533116203939" lon="12.222384514747487"><ele>16.0</ele><time>2026-04-25T12:55:46.999Z</time></trkpt><trkpt lat="45.66545895910267" lon="12.222404638311033"><ele>16.0</ele><time>2026-04-25T12:55:47.999Z</time></trkpt><trkpt lat="45.66558316229781" lon="12.222425591026235"><ele>16.0</ele><time>2026-04-25T12:55:48.999Z</time></trkpt><trkpt lat="45.66570926575614" lon="12.222446600676385"><ele>16.0</ele><time>2026-04-25T12:55:49.999Z</time></trkpt><trkpt lat="45.66583881946327" lon="12.222471043682427"><ele>16.0</ele><time>2026-04-25T12:55:50.999Z</time></trkpt><trkpt lat="45.66596776208709" lon="12.222494099604083"><ele>16.0</ele><time>2026-04-25T12:55:51.999Z</time></trkpt><trkpt lat="45.66609805918241" lon="12.22252167941234"><ele>16.0</ele><time>2026-04-25T12:55:52.999Z</time></trkpt><trkpt lat="45.6662285119338" lon="12.222547450303557"><ele>16.0</ele><time>2026-04-25T12:55:53.999Z</time></trkpt><trkpt lat="45.6663600416574" lon="12.22257158230734"><ele>16.0</ele><time>2026-04-25T12:55:54.999Z</time></trkpt><trkpt lat="45.66649310899425" lon="12.222596159375511"><ele>16.0</ele><time>2026-04-25T12:55:55.999Z</time></trkpt><trkpt lat="45.666625411805484" lon="12.222625465083023"><ele>16.0</ele><time>2026-04-25T12:55:56.999Z</time></trkpt><trkpt lat="45.666756361626945" lon="12.222660129289125"><ele>16.0</ele><time>2026-04-25T12:55:57.999Z</time></trkpt><trkpt lat="45.66688002940449" lon="12.222696966124357"><ele>15.600000000000001</ele><time>2026-04-25T12:55:58.999Z</time></trkpt><trkpt lat="45.66699726936333" lon="12.222735952466163"><ele>15.200000000000001</ele><time>2026-04-25T12:55:59.999Z</time></trkpt><trkpt lat="45.66710895682388" lon="12.222777413106494"><ele>14.799999999999999</ele><time>2026-04-25T12:56:00.999Z</time></trkpt><trkpt lat="45.667214455058385" lon="12.222825135815036"><ele>14.399999999999999</ele><time>2026-04-25T12:56:02Z</time></trkpt><trkpt lat="45.667312948017916" lon="12.222867858845712"><ele>14.0</ele><time>2026-04-25T12:56:03Z</time></trkpt><trkpt lat="45.66740533667568" lon="12.22290882127891"><ele>14.0</ele><time>2026-04-25T12:56:04Z</time></trkpt><trkpt lat="45.66749625097305" lon="12.222957641338457"><ele>13.999999999999998</ele><time>2026-04-25T12:56:05Z</time></trkpt><trkpt lat="45.66758676035448" lon="12.223031501137843"><ele>13.999999999999998</ele><time>2026-04-25T12:56:06Z</time></trkpt><trkpt lat="45.667678868691084" lon="12.223128172735118"><ele>14.0</ele><time>2026-04-25T12:56:07Z</time></trkpt><trkpt lat="45.66777622339541" lon="12.223236164998527"><ele>14.0</ele><time>2026-04-25T12:56:08Z</time></trkpt><trkpt lat="45.66787575200878" lon="12.223355356296874"><ele>15.0</ele><time>2026-04-25T12:56:09Z</time></trkpt><trkpt lat="45.66796442112926" lon="12.223483091032282"><ele>16.0</ele><time>2026-04-25T12:56:10Z</time></trkpt><trkpt lat="45.668042144320154" lon="12.223610199268768"><ele>17.0</ele><time>2026-04-25T12:56:11Z</time></trkpt><trkpt lat="45.66811193560745" lon="12.223733073294891"><ele>18.0</ele><time>2026-04-25T12:56:12Z</time></trkpt><trkpt lat="45.6681744858422" lon="12.223848657557419"><ele>18.0</ele><time>2026-04-25T12:56:13Z</time></trkpt><trkpt lat="45.668230655452824" lon="12.22395436719057"><ele>18.0</ele><time>2026-04-25T12:56:14Z</time></trkpt><trkpt lat="45.66828492706352" lon="12.224049737813926"><ele>18.0</ele><time>2026-04-25T12:56:15Z</time></trkpt><trkpt lat="45.668330689744444" lon="12.22413695301261"><ele>18.0</ele><time>2026-04-25T12:56:16Z</time></trkpt><trkpt lat="45.66838895359906" lon="12.224257617881063"><ele>18.0</ele><time>2026-04-25T12:56:18Z</time></trkpt><trkpt lat="45.66842617496539" lon="12.22433055129725"><ele>18.0</ele><time>2026-04-25T12:56:21Z</time></trkpt><trkpt lat="45.66846061400119" lon="12.22440671268153"><ele>17.4</ele><time>2026-04-25T12:56:54Z</time></trkpt><trkpt lat="45.668496910424764" lon="12.224483220204425"><ele>16.8</ele><time>2026-04-25T12:56:55Z</time></trkpt><trkpt lat="45.66854513655059" lon="12.224574975041664"><ele>16.2</ele><time>2026-04-25T12:56:56Z</time></trkpt><trkpt lat="45.668604904869085" lon="12.224697553049648"><ele>15.6</ele><time>2026-04-25T12:56:57Z</time></trkpt><trkpt lat="45.668675934997495" lon="12.224838153697785"><ele>15.0</ele><time>2026-04-25T12:56:58Z</time></trkpt><trkpt lat="45.668757190857825" lon="12.225003445858702"><ele>14.666666666666668</ele><time>2026-04-25T12:56:59Z</time></trkpt><trkpt lat="45.668835416722594" lon="12.22517673304495"><ele>14.333333333333334</ele><time>2026-04-25T12:57:00Z</time></trkpt><trkpt lat="45.6689051270267" lon="12.225369609843478"><ele>14.0</ele><time>2026-04-25T12:57:01Z</time></trkpt><trkpt lat="45.66899815421389" lon="12.225577861024961"><ele>14.333333333333334</ele><time>2026-04-25T12:57:02Z</time></trkpt><trkpt lat="45.66909679169425" lon="12.225774959769563"><ele>14.666666666666668</ele><time>2026-04-25T12:57:03Z</time></trkpt><trkpt lat="45.66920467999252" lon="12.225967784348324"><ele>15.0</ele><time>2026-04-25T12:57:04Z</time></trkpt><trkpt lat="45.669306712256834" lon="12.226161365292095"><ele>15.0</ele><time>2026-04-25T12:57:05Z</time></trkpt><trkpt lat="45.669401637098616" lon="12.226348864144223"><ele>15.0</ele><time>2026-04-25T12:57:06Z</time></trkpt><trkpt lat="45.66949004065859" lon="12.226531712882135"><ele>15.0</ele><time>2026-04-25T12:57:07Z</time></trkpt><trkpt lat="45.66958034599645" lon="12.226704678040692"><ele>14.75</ele><time>2026-04-25T12:57:08Z</time></trkpt><trkpt lat="45.669666192955546" lon="12.226875930257076"><ele>14.5</ele><time>2026-04-25T12:57:09Z</time></trkpt><trkpt lat="45.66975706532777" lon="12.22704506261958"><ele>14.25</ele><time>2026-04-25T12:57:10Z</time></trkpt><trkpt lat="45.669838457946064" lon="12.227200107364363"><ele>14.0</ele><time>2026-04-25T12:57:11Z</time></trkpt><trkpt lat="45.6699171712632" lon="12.227345717509763"><ele>13.399999999999999</ele><time>2026-04-25T12:57:12Z</time></trkpt><trkpt lat="45.669987684421805" lon="12.227481129226081"><ele>12.799999999999999</ele><time>2026-04-25T12:57:13Z</time></trkpt><trkpt lat="45.67004261483269" lon="12.2276165930973"><ele>12.2</ele><time>2026-04-25T12:57:14Z</time></trkpt><trkpt lat="45.67007826650027" lon="12.22775997029788"><ele>11.600000000000001</ele><time>2026-04-25T12:57:15Z</time></trkpt><trkpt lat="45.67009296756857" lon="12.227909413166595"><ele>11.0</ele><time>2026-04-25T12:57:16Z</time></trkpt><trkpt lat="45.67009717428775" lon="12.228067469906351"><ele>10.75</ele><time>2026-04-25T12:57:17Z</time></trkpt><trkpt lat="45.67009894603132" lon="12.228231322007463"><ele>10.5</ele><time>2026-04-25T12:57:18Z</time></trkpt><trkpt lat="45.670128001197554" lon="12.228387696463859"><ele>10.25</ele><time>2026-04-25T12:57:19Z</time></trkpt><trkpt lat="45.67019392988115" lon="12.228520674045507"><ele>10.0</ele><time>2026-04-25T12:57:20Z</time></trkpt><trkpt lat="45.67029636663743" lon="12.22861498001655"><ele>10.5</ele><time>2026-04-25T12:57:20.999Z</time></trkpt><trkpt lat="45.670430742330225" lon="12.228684124573743"><ele>11.0</ele><time>2026-04-25T12:57:21.999Z</time></trkpt><trkpt lat="45.67057293775074" lon="12.228769232901724"><ele>11.5</ele><time>2026-04-25T12:57:22.999Z</time></trkpt><trkpt lat="45.670694103939574" lon="12.228897931084466"><ele>12.0</ele><time>2026-04-25T12:57:23.999Z</time></trkpt><trkpt lat="45.6707984643824" lon="12.229053280349921"><ele>12.333333333333332</ele><time>2026-04-25T12:57:24.999Z</time></trkpt><trkpt lat="45.670892887897054" lon="12.229236408222633"><ele>12.666666666666666</ele><time>2026-04-25T12:57:25.999Z</time></trkpt><trkpt lat="45.670982667900155" lon="12.229434308265251"><ele>13.0</ele><time>2026-04-25T12:57:26.999Z</time></trkpt><trkpt lat="45.67107958341704" lon="12.229637442903103"><ele>13.666666666666666</ele><time>2026-04-25T12:57:27.999Z</time></trkpt><trkpt lat="45.67117595562749" lon="12.22983309488191"><ele>14.333333333333332</ele><time>2026-04-25T12:57:28.999Z</time></trkpt><trkpt lat="45.671262716391126" lon="12.230008747634487"><ele>15.0</ele><time>2026-04-25T12:57:29.999Z</time></trkpt><trkpt lat="45.67134748463477" lon="12.230174488719237"><ele>15.0</ele><time>2026-04-25T12:57:30.999Z</time></trkpt><trkpt lat="45.67142933324285" lon="12.2303324525106"><ele>15.0</ele><time>2026-04-25T12:57:31.999Z</time></trkpt><trkpt lat="45.67150686384696" lon="12.230487161705803"><ele>15.0</ele><time>2026-04-25T12:57:32.999Z</time></trkpt><trkpt lat="45.671583107176744" lon="12.23063502936909"><ele>15.0</ele><time>2026-04-25T12:57:33.999Z</time></trkpt><trkpt lat="45.671656681569296" lon="12.230776922106408"><ele>15.0</ele><time>2026-04-25T12:57:34.999Z</time></trkpt><trkpt lat="45.671727667612856" lon="12.230913824367587"><ele>15.0</ele><time>2026-04-25T12:57:35.999Z</time></trkpt><trkpt lat="45.67179927922373" lon="12.231053442209918"><ele>15.0</ele><time>2026-04-25T12:57:36.999Z</time></trkpt><trkpt lat="45.67186734101189" lon="12.231185577176415"><ele>15.0</ele><time>2026-04-25T12:57:37.999Z</time></trkpt><trkpt lat="45.671933485446864" lon="12.231314690298412"><ele>14.6</ele><time>2026-04-25T12:57:38.999Z</time></trkpt><trkpt lat="45.67199135498659" lon="12.231428366964854"><ele>14.2</ele><time>2026-04-25T12:57:39.999Z</time></trkpt><trkpt lat="45.672048621266015" lon="12.23153885472149"><ele>13.8</ele><time>2026-04-25T12:57:40.999Z</time></trkpt><trkpt lat="45.672101598425066" lon="12.231638725707231"><ele>13.4</ele><time>2026-04-25T12:57:41.999Z</time></trkpt><trkpt lat="45.672157453653064" lon="12.231735904171476"><ele>13.0</ele><time>2026-04-25T12:57:43Z</time></trkpt><trkpt lat="45.672198982639316" lon="12.231835137227959"><ele>12.999999999999998</ele><time>2026-04-25T12:57:44Z</time></trkpt><trkpt lat="45.67225128855978" lon="12.231920335743737"><ele>13.0</ele><time>2026-04-25T12:57:45Z</time></trkpt><trkpt lat="45.672299372300586" lon="12.231994595045183"><ele>13.0</ele><time>2026-04-25T12:57:46Z</time></trkpt><trkpt lat="45.67234473039603" lon="12.23206428956437"><ele>13.0</ele><time>2026-04-25T12:57:47Z</time></trkpt><trkpt lat="45.67242026314468" lon="12.232177492719961"><ele>12.999999999999998</ele><time>2026-04-25T12:57:49Z</time></trkpt><trkpt lat="45.67249548388795" lon="12.232267594522659"><ele>13.0</ele><time>2026-04-25T12:57:51Z</time></trkpt><trkpt lat="45.67257318682079" lon="12.232399888477019"><ele>13.2</ele><time>2026-04-25T12:57:53Z</time></trkpt><trkpt lat="45.672624630782515" lon="12.23248418897694"><ele>13.4</ele><time>2026-04-25T12:57:54Z</time></trkpt><trkpt lat="45.672683780380005" lon="12.23257827692408"><ele>13.599999999999998</ele><time>2026-04-25T12:57:55Z</time></trkpt><trkpt lat="45.67275371831566" lon="12.23268489465138"><ele>13.799999999999999</ele><time>2026-04-25T12:57:56Z</time></trkpt><trkpt lat="45.67282781545578" lon="12.232793756275385"><ele>14.0</ele><time>2026-04-25T12:57:57Z</time></trkpt><trkpt lat="45.67291353109836" lon="12.232896552162577"><ele>14.0</ele><time>2026-04-25T12:57:58Z</time></trkpt><trkpt lat="45.67299909062511" lon="12.232996982286322"><ele>14.0</ele><time>2026-04-25T12:57:59Z</time></trkpt><trkpt lat="45.673092781819086" lon="12.233090586418458"><ele>14.0</ele><time>2026-04-25T12:58:00Z</time></trkpt><trkpt lat="45.67321353889016" lon="12.233171421709898"><ele>14.0</ele><time>2026-04-25T12:58:01Z</time></trkpt><trkpt lat="45.673373569827085" lon="12.23326213848007"><ele>14.333333333333334</ele><time>2026-04-25T12:58:02Z</time></trkpt><trkpt lat="45.673550605974675" lon="12.23338655910881"><ele>14.666666666666668</ele><time>2026-04-25T12:58:03Z</time></trkpt><trkpt lat="45.67376849883595" lon="12.233468908038757"><ele>15.0</ele><time>2026-04-25T12:58:04Z</time></trkpt><trkpt lat="45.67399592776505" lon="12.23357989133023"><ele>15.0</ele><time>2026-04-25T12:58:05Z</time></trkpt><trkpt lat="45.674223897620124" lon="12.233714503457824"><ele>15.0</ele><time>2026-04-25T12:58:06Z</time></trkpt><trkpt lat="45.67444472275253" lon="12.233874727124565"><ele>15.0</ele><time>2026-04-25T12:58:07Z</time></trkpt><trkpt lat="45.67465322282559" lon="12.234055550266087"><ele>15.0</ele><time>2026-04-25T12:58:08Z</time></trkpt><trkpt lat="45.67485295060423" lon="12.234233843596591"><ele>15.0</ele><time>2026-04-25T12:58:09Z</time></trkpt><trkpt lat="45.675042393832896" lon="12.234422186788482"><ele>15.0</ele><time>2026-04-25T12:58:10Z</time></trkpt><trkpt lat="45.67522197229027" lon="12.234631837049314"><ele>15.0</ele><time>2026-04-25T12:58:11Z</time></trkpt><trkpt lat="45.6753867159334" lon="12.23484158649503"><ele>15.0</ele><time>2026-04-25T12:58:12Z</time></trkpt><trkpt lat="45.67554048182085" lon="12.235066606334788"><ele>15.0</ele><time>2026-04-25T12:58:13Z</time></trkpt><trkpt lat="45.67567181889604" lon="12.235285350030585"><ele>15.0</ele><time>2026-04-25T12:58:14Z</time></trkpt><trkpt lat="45.675789983607835" lon="12.235492128120159"><ele>15.0</ele><time>2026-04-25T12:58:15Z</time></trkpt><trkpt lat="45.67590268211064" lon="12.235698213241616"><ele>15.0</ele><time>2026-04-25T12:58:16Z</time></trkpt><trkpt lat="45.67600643180755" lon="12.23589349649544"><ele>14.666666666666668</ele><time>2026-04-25T12:58:17Z</time></trkpt><trkpt lat="45.67610740748162" lon="12.236074465386702"><ele>14.333333333333334</ele><time>2026-04-25T12:58:18Z</time></trkpt><trkpt lat="45.676200845247735" lon="12.23624572575991"><ele>14.0</ele><time>2026-04-25T12:58:19Z</time></trkpt><trkpt lat="45.6762895066959" lon="12.236399906037127"><ele>14.0</ele><time>2026-04-25T12:58:20Z</time></trkpt><trkpt lat="45.67637210484894" lon="12.236528154155822"><ele>13.999999999999998</ele><time>2026-04-25T12:58:21Z</time></trkpt><trkpt lat="45.6764431829571" lon="12.236631937373915"><ele>13.999999999999998</ele><time>2026-04-25T12:58:22Z</time></trkpt><trkpt lat="45.67651061810817" lon="12.2367090863919"><ele>14.0</ele><time>2026-04-25T12:58:23Z</time></trkpt><trkpt lat="45.67657034805301" lon="12.236772049706996"><ele>14.0</ele><time>2026-04-25T12:58:24Z</time></trkpt><trkpt lat="45.676645897299615" lon="12.236842741858398"><ele>14.0</ele><time>2026-04-25T12:58:26Z</time></trkpt><trkpt lat="45.676724368935986" lon="12.236927169981616"><ele>14.0</ele><time>2026-04-25T12:58:38Z</time></trkpt><trkpt lat="45.676811861949176" lon="12.237015012210305"><ele>14.0</ele><time>2026-04-25T12:58:39Z</time></trkpt><trkpt lat="45.676915341485525" lon="12.237122596870226"><ele>14.0</ele><time>2026-04-25T12:58:40Z</time></trkpt><trkpt lat="45.67702983946911" lon="12.237249515593648"><ele>15.0</ele><time>2026-04-25T12:58:41Z</time></trkpt><trkpt lat="45.677162695889585" lon="12.237393738470137"><ele>16.0</ele><time>2026-04-25T12:58:42Z</time></trkpt><trkpt lat="45.67730040460649" lon="12.23753765077035"><ele>17.0</ele><time>2026-04-25T12:58:43Z</time></trkpt><trkpt lat="45.67744621866368" lon="12.237687095691099"><ele>17.0</ele><time>2026-04-25T12:58:44Z</time></trkpt><trkpt lat="45.67759384152249" lon="12.237834998710065"><ele>17.0</ele><time>2026-04-25T12:58:45Z</time></trkpt><trkpt lat="45.67774100796854" lon="12.237988628632673"><ele>17.0</ele><time>2026-04-25T12:58:46Z</time></trkpt><trkpt lat="45.677898366485934" lon="12.238149530296424"><ele>17.333333333333336</ele><time>2026-04-25T12:58:47Z</time></trkpt><trkpt lat="45.678044484026245" lon="12.238298076926302"><ele>17.666666666666668</ele><time>2026-04-25T12:58:48Z</time></trkpt><trkpt lat="45.67819271096895" lon="12.238454588771743"><ele>18.0</ele><time>2026-04-25T12:58:49Z</time></trkpt><trkpt lat="45.678335587550805" lon="12.238595961302096"><ele>18.0</ele><time>2026-04-25T12:58:50Z</time></trkpt><trkpt lat="45.67848070962321" lon="12.238748998885013"><ele>18.0</ele><time>2026-04-25T12:58:51Z</time></trkpt><trkpt lat="45.67863079007741" lon="12.238907031619068"><ele>18.0</ele><time>2026-04-25T12:58:52Z</time></trkpt><trkpt lat="45.67877396397442" lon="12.23904937333455"><ele>16.666666666666668</ele><time>2026-04-25T12:58:53Z</time></trkpt><trkpt lat="45.67892355508919" lon="12.239192914165825"><ele>15.333333333333334</ele><time>2026-04-25T12:58:54Z</time></trkpt><trkpt lat="45.67906547975314" lon="12.23935295347959"><ele>14.0</ele><time>2026-04-25T12:58:55Z</time></trkpt><trkpt lat="45.679205883863965" lon="12.239491654739922"><ele>14.0</ele><time>2026-04-25T12:58:56Z</time></trkpt><trkpt lat="45.679327871317824" lon="12.239623263042008"><ele>14.0</ele><time>2026-04-25T12:58:57Z</time></trkpt><trkpt lat="45.67945500196453" lon="12.239755636907862"><ele>14.0</ele><time>2026-04-25T12:58:58Z</time></trkpt><trkpt lat="45.67957590381603" lon="12.23988804508096"><ele>14.5</ele><time>2026-04-25T12:58:59Z</time></trkpt><trkpt lat="45.6796973142951" lon="12.240013886405317"><ele>15.0</ele><time>2026-04-25T12:59:00Z</time></trkpt><trkpt lat="45.67981603090354" lon="12.240140517452653"><ele>15.5</ele><time>2026-04-25T12:59:01Z</time></trkpt><trkpt lat="45.67993729456165" lon="12.240259208506293"><ele>16.0</ele><time>2026-04-25T12:59:02Z</time></trkpt><trkpt lat="45.68004853851082" lon="12.240373268406252"><ele>16.0</ele><time>2026-04-25T12:59:03Z</time></trkpt><trkpt lat="45.68015707493423" lon="12.240485261727633"><ele>16.0</ele><time>2026-04-25T12:59:04Z</time></trkpt><trkpt lat="45.680262390387995" lon="12.240597396703048"><ele>16.0</ele><time>2026-04-25T12:59:05Z</time></trkpt><trkpt lat="45.68036677913032" lon="12.24071276654018"><ele>16.0</ele><time>2026-04-25T12:59:06Z</time></trkpt><trkpt lat="45.680469961138236" lon="12.240818508557005"><ele>16.25</ele><time>2026-04-25T12:59:07Z</time></trkpt><trkpt lat="45.68056882152469" lon="12.240919219181091"><ele>16.5</ele><time>2026-04-25T12:59:08Z</time></trkpt><trkpt lat="45.68066412877492" lon="12.241019402572672"><ele>16.75</ele><time>2026-04-25T12:59:09Z</time></trkpt><trkpt lat="45.680757269401724" lon="12.241113187331266"><ele>17.0</ele><time>2026-04-25T12:59:10Z</time></trkpt><trkpt lat="45.680841950864156" lon="12.241204075987318"><ele>17.0</ele><time>2026-04-25T12:59:11Z</time></trkpt><trkpt lat="45.68092207286391" lon="12.241292630545804"><ele>17.0</ele><time>2026-04-25T12:59:12Z</time></trkpt><trkpt lat="45.68100054406705" lon="12.24137530644246"><ele>17.0</ele><time>2026-04-25T12:59:13Z</time></trkpt><trkpt lat="45.681078879125565" lon="12.241453000194092"><ele>17.0</ele><time>2026-04-25T12:59:14Z</time></trkpt><trkpt lat="45.681147685385376" lon="12.241527848278905"><ele>17.0</ele><time>2026-04-25T12:59:15Z</time></trkpt><trkpt lat="45.68121633902684" lon="12.241594508991435"><ele>16.833333333333336</ele><time>2026-04-25T12:59:16Z</time></trkpt><trkpt lat="45.681280661367616" lon="12.241662456876776"><ele>16.666666666666668</ele><time>2026-04-25T12:59:17Z</time></trkpt><trkpt lat="45.681338792188484" lon="12.241724182323635"><ele>16.5</ele><time>2026-04-25T12:59:18Z</time></trkpt><trkpt lat="45.6813932473623" lon="12.241781775231052"><ele>16.333333333333332</ele><time>2026-04-25T12:59:19Z</time></trkpt><trkpt lat="45.68147392150487" lon="12.241869842328873"><ele>16.166666666666664</ele><time>2026-04-25T12:59:21Z</time></trkpt><trkpt lat="45.68153150657272" lon="12.24192437229941"><ele>16.0</ele><time>2026-04-25T12:59:24Z</time></trkpt><trkpt lat="45.6816198931277" lon="12.2420071429243"><ele>16.0</ele><time>2026-04-25T12:59:46Z</time></trkpt><trkpt lat="45.68169493162781" lon="12.242078729220294"><ele>16.0</ele><time>2026-04-25T12:59:48Z</time></trkpt><trkpt lat="45.681786731261276" lon="12.242161339288637"><ele>16.0</ele><time>2026-04-25T12:59:50Z</time></trkpt><trkpt lat="45.68185107219808" lon="12.24221484413557"><ele>16.0</ele><time>2026-04-25T12:59:51Z</time></trkpt><trkpt lat="45.68192295544134" lon="12.242272955747364"><ele>16.0</ele><time>2026-04-25T12:59:52Z</time></trkpt><trkpt lat="45.682008451843856" lon="12.242337699673579"><ele>15.75</ele><time>2026-04-25T12:59:53Z</time></trkpt><trkpt lat="45.68211905050298" lon="12.242414051483433"><ele>15.5</ele><time>2026-04-25T12:59:54Z</time></trkpt><trkpt lat="45.6822227001008" lon="12.242525734328513"><ele>15.25</ele><time>2026-04-25T12:59:55Z</time></trkpt><trkpt lat="45.68235009745985" lon="12.242602043979504"><ele>15.0</ele><time>2026-04-25T12:59:56Z</time></trkpt><trkpt lat="45.68247584810132" lon="12.242699500813293"><ele>15.0</ele><time>2026-04-25T12:59:57Z</time></trkpt><trkpt lat="45.68260655175441" lon="12.242796009861458"><ele>15.0</ele><time>2026-04-25T12:59:58Z</time></trkpt><trkpt lat="45.68273984249539" lon="12.242897005725089"><ele>15.0</ele><time>2026-04-25T12:59:59Z</time></trkpt><trkpt lat="45.68287180774784" lon="12.242997132954038"><ele>15.0</ele><time>2026-04-25T13:00:00Z</time></trkpt><trkpt lat="45.6830008545242" lon="12.243091348891202"><ele>15.333333333333332</ele><time>2026-04-25T13:00:01Z</time></trkpt><trkpt lat="45.68312490435331" lon="12.243187847825817"><ele>15.666666666666666</ele><time>2026-04-25T13:00:02Z</time></trkpt><trkpt lat="45.68328312602903" lon="12.243316535771935"><ele>16.0</ele><time>2026-04-25T13:00:03Z</time></trkpt><trkpt lat="45.6834289863055" lon="12.243425679538532"><ele>16.0</ele><time>2026-04-25T13:00:04Z</time></trkpt><trkpt lat="45.68357728165905" lon="12.243540074837549"><ele>16.0</ele><time>2026-04-25T13:00:05Z</time></trkpt><trkpt lat="45.68372394813756" lon="12.243651781153549"><ele>16.0</ele><time>2026-04-25T13:00:06Z</time></trkpt><trkpt lat="45.68387920570353" lon="12.24376412328358"><ele>15.666666666666666</ele><time>2026-04-25T13:00:07Z</time></trkpt><trkpt lat="45.684033777178996" lon="12.243879778148557"><ele>15.333333333333332</ele><time>2026-04-25T13:00:08Z</time></trkpt><trkpt lat="45.684189607621285" lon="12.243994973255552"><ele>15.0</ele><time>2026-04-25T13:00:09Z</time></trkpt><trkpt lat="45.6843387688643" lon="12.244102683474322"><ele>15.333333333333332</ele><time>2026-04-25T13:00:10Z</time></trkpt><trkpt lat="45.68448476792261" lon="12.244214492063957"><ele>15.666666666666666</ele><time>2026-04-25T13:00:11Z</time></trkpt><trkpt lat="45.68462867396236" lon="12.24432093297349"><ele>16.0</ele><time>2026-04-25T13:00:12Z</time></trkpt><trkpt lat="45.68476779769949" lon="12.244421766235932"><ele>16.0</ele><time>2026-04-25T13:00:13Z</time></trkpt><trkpt lat="45.684897304096246" lon="12.244517290372377"><ele>16.0</ele><time>2026-04-25T13:00:14Z</time></trkpt><trkpt lat="45.68502058232624" lon="12.244612405252063"><ele>16.0</ele><time>2026-04-25T13:00:15Z</time></trkpt><trkpt lat="45.68513790869621" lon="12.244697955830155"><ele>16.0</ele><time>2026-04-25T13:00:16Z</time></trkpt><trkpt lat="45.68525038161372" lon="12.244778619909715"><ele>16.5</ele><time>2026-04-25T13:00:17Z</time></trkpt><trkpt lat="45.685358211696986" lon="12.24485997099671"><ele>17.0</ele><time>2026-04-25T13:00:18Z</time></trkpt><trkpt lat="45.685467163237966" lon="12.244941510228017"><ele>17.5</ele><time>2026-04-25T13:00:19Z</time></trkpt><trkpt lat="45.685574534613984" lon="12.245031878035377"><ele>18.0</ele><time>2026-04-25T13:00:20Z</time></trkpt><trkpt lat="45.68568855879042" lon="12.245116138862192"><ele>18.0</ele><time>2026-04-25T13:00:21Z</time></trkpt><trkpt lat="45.68580886062306" lon="12.24520837440452"><ele>18.0</ele><time>2026-04-25T13:00:22Z</time></trkpt><trkpt lat="45.68593137214991" lon="12.245304620881996"><ele>18.0</ele><time>2026-04-25T13:00:23Z</time></trkpt><trkpt lat="45.686057166560204" lon="12.245401597692563"><ele>18.0</ele><time>2026-04-25T13:00:24Z</time></trkpt><trkpt lat="45.6861824776341" lon="12.245498852771112"><ele>18.0</ele><time>2026-04-25T13:00:25Z</time></trkpt><trkpt lat="45.686303041056405" lon="12.24560585247639"><ele>18.0</ele><time>2026-04-25T13:00:26Z</time></trkpt><trkpt lat="45.68641104078423" lon="12.245698951277639"><ele>18.0</ele><time>2026-04-25T13:00:27Z</time></trkpt><trkpt lat="45.68653144426934" lon="12.245801400309304"><ele>18.0</ele><time>2026-04-25T13:00:28Z</time></trkpt><trkpt lat="45.68664093891165" lon="12.245897968632642"><ele>18.0</ele><time>2026-04-25T13:00:29Z</time></trkpt><trkpt lat="45.68674240504443" lon="12.245986456149893"><ele>18.0</ele><time>2026-04-25T13:00:30Z</time></trkpt><trkpt lat="45.68684115797876" lon="12.246074772811168"><ele>18.0</ele><time>2026-04-25T13:00:31Z</time></trkpt><trkpt lat="45.686929810995984" lon="12.246154157500227"><ele>18.0</ele><time>2026-04-25T13:00:32Z</time></trkpt><trkpt lat="45.687006528929146" lon="12.246227604104186"><ele>18.0</ele><time>2026-04-25T13:00:33Z</time></trkpt><trkpt lat="45.68707484223743" lon="12.246299033862728"><ele>18.0</ele><time>2026-04-25T13:00:34Z</time></trkpt><trkpt lat="45.68713668253298" lon="12.24637502184166"><ele>18.0</ele><time>2026-04-25T13:00:35Z</time></trkpt><trkpt lat="45.687200250630916" lon="12.246446799534871"><ele>18.0</ele><time>2026-04-25T13:00:36Z</time></trkpt><trkpt lat="45.687286954092755" lon="12.246517245879591"><ele>18.0</ele><time>2026-04-25T13:00:37Z</time></trkpt><trkpt lat="45.68739343162409" lon="12.246593545824085"><ele>18.0</ele><time>2026-04-25T13:00:38Z</time></trkpt><trkpt lat="45.68752423662872" lon="12.246690430862502"><ele>17.333333333333332</ele><time>2026-04-25T13:00:39Z</time></trkpt><trkpt lat="45.68766325009783" lon="12.246842111210027"><ele>16.666666666666664</ele><time>2026-04-25T13:00:40Z</time></trkpt><trkpt lat="45.68782221596191" lon="12.246988338835658"><ele>16.0</ele><time>2026-04-25T13:00:41Z</time></trkpt><trkpt lat="45.68800498553999" lon="12.247130512958302"><ele>16.333333333333332</ele><time>2026-04-25T13:00:42Z</time></trkpt><trkpt lat="45.68817674003548" lon="12.247306973176336"><ele>16.666666666666668</ele><time>2026-04-25T13:00:43Z</time></trkpt><trkpt lat="45.68836416578159" lon="12.247477519351957"><ele>17.0</ele><time>2026-04-25T13:00:44Z</time></trkpt><trkpt lat="45.68855150032716" lon="12.247648244239755"><ele>16.5</ele><time>2026-04-25T13:00:45Z</time></trkpt><trkpt lat="45.68874357834047" lon="12.247826472839364"><ele>16.0</ele><time>2026-04-25T13:00:46Z</time></trkpt><trkpt lat="45.68893139151651" lon="12.247998943918185"><ele>16.333333333333332</ele><time>2026-04-25T13:00:47Z</time></trkpt><trkpt lat="45.68911382773787" lon="12.248166867048756"><ele>16.666666666666668</ele><time>2026-04-25T13:00:48Z</time></trkpt><trkpt lat="45.68930122255013" lon="12.248339412519599"><ele>17.0</ele><time>2026-04-25T13:00:49Z</time></trkpt><trkpt lat="45.68947844532291" lon="12.24850938232113"><ele>17.0</ele><time>2026-04-25T13:00:50Z</time></trkpt><trkpt lat="45.68966140580402" lon="12.248674049684782"><ele>17.0</ele><time>2026-04-25T13:00:51Z</time></trkpt><trkpt lat="45.68984459398198" lon="12.248844392258386"><ele>17.0</ele><time>2026-04-25T13:00:52Z</time></trkpt><trkpt lat="45.69002336041353" lon="12.24901074255759"><ele>17.0</ele><time>2026-04-25T13:00:53Z</time></trkpt><trkpt lat="45.69020302533972" lon="12.249178093064957"><ele>17.0</ele><time>2026-04-25T13:00:54Z</time></trkpt><trkpt lat="45.69037741773596" lon="12.24934230508482"><ele>17.0</ele><time>2026-04-25T13:00:55Z</time></trkpt><trkpt lat="45.6905499633804" lon="12.249509260988281"><ele>16.666666666666668</ele><time>2026-04-25T13:00:56Z</time></trkpt><trkpt lat="45.69071634264432" lon="12.249675139802246"><ele>16.333333333333332</ele><time>2026-04-25T13:00:57Z</time></trkpt><trkpt lat="45.690881200148304" lon="12.249832480185612"><ele>16.0</ele><time>2026-04-25T13:00:58Z</time></trkpt><trkpt lat="45.691051296704465" lon="12.249976630014904"><ele>17.0</ele><time>2026-04-25T13:00:59Z</time></trkpt><trkpt lat="45.69121668007951" lon="12.250116586013622"><ele>18.0</ele><time>2026-04-25T13:01:00Z</time></trkpt><trkpt lat="45.69138309995063" lon="12.25027178297787"><ele>19.0</ele><time>2026-04-25T13:01:01Z</time></trkpt><trkpt lat="45.69154157415762" lon="12.250420404564522"><ele>19.0</ele><time>2026-04-25T13:01:02Z</time></trkpt><trkpt lat="45.691703080246405" lon="12.250569824165721"><ele>19.0</ele><time>2026-04-25T13:01:03Z</time></trkpt><trkpt lat="45.69187398283703" lon="12.250723182664748"><ele>19.0</ele><time>2026-04-25T13:01:04Z</time></trkpt><trkpt lat="45.692023172355285" lon="12.250869227780619"><ele>18.333333333333332</ele><time>2026-04-25T13:01:05Z</time></trkpt><trkpt lat="45.69217681740888" lon="12.251011870734258"><ele>17.666666666666668</ele><time>2026-04-25T13:01:06Z</time></trkpt><trkpt lat="45.69232837673518" lon="12.251142812055827"><ele>17.0</ele><time>2026-04-25T13:01:07Z</time></trkpt><trkpt lat="45.692472639064654" lon="12.251279854881874"><ele>17.0</ele><time>2026-04-25T13:01:08Z</time></trkpt><trkpt lat="45.69261931925833" lon="12.251405697219488"><ele>17.0</ele><time>2026-04-25T13:01:09Z</time></trkpt><trkpt lat="45.69275542951728" lon="12.251534745760635"><ele>17.0</ele><time>2026-04-25T13:01:10Z</time></trkpt><trkpt lat="45.69289486068095" lon="12.251656870692791"><ele>17.0</ele><time>2026-04-25T13:01:11Z</time></trkpt><trkpt lat="45.69302027533407" lon="12.251771424891379"><ele>17.0</ele><time>2026-04-25T13:01:12Z</time></trkpt><trkpt lat="45.693143443730364" lon="12.251875676532023"><ele>17.0</ele><time>2026-04-25T13:01:13Z</time></trkpt><trkpt lat="45.693255875986324" lon="12.251975143679138"><ele>17.0</ele><time>2026-04-25T13:01:14Z</time></trkpt><trkpt lat="45.69336445482745" lon="12.252075553145763"><ele>17.0</ele><time>2026-04-25T13:01:15Z</time></trkpt><trkpt lat="45.693444480721766" lon="12.252156862547809"><ele>17.0</ele><time>2026-04-25T13:01:16Z</time></trkpt><trkpt lat="45.693512130704086" lon="12.252231766225568"><ele>17.0</ele><time>2026-04-25T13:01:17Z</time></trkpt><trkpt lat="45.693576795836265" lon="12.2523032397405"><ele>17.0</ele><time>2026-04-25T13:01:18Z</time></trkpt><trkpt lat="45.69363343112252" lon="12.252389003599273"><ele>17.0</ele><time>2026-04-25T13:01:19Z</time></trkpt><trkpt lat="45.693697585765975" lon="12.252491982849165"><ele>17.0</ele><time>2026-04-25T13:01:20Z</time></trkpt><trkpt lat="45.69379302500406" lon="12.252577181349006"><ele>17.0</ele><time>2026-04-25T13:01:21Z</time></trkpt><trkpt lat="45.69392198059738" lon="12.25266493740768"><ele>17.0</ele><time>2026-04-25T13:01:22Z</time></trkpt><trkpt lat="45.69406985154245" lon="12.252765675477553"><ele>17.0</ele><time>2026-04-25T13:01:23Z</time></trkpt><trkpt lat="45.694221625026685" lon="12.252898313917505"><ele>17.0</ele><time>2026-04-25T13:01:24Z</time></trkpt><trkpt lat="45.69437224429583" lon="12.253036837040266"><ele>17.0</ele><time>2026-04-25T13:01:25Z</time></trkpt><trkpt lat="45.69453853617536" lon="12.253179613568781"><ele>17.0</ele><time>2026-04-25T13:01:26Z</time></trkpt><trkpt lat="45.694708376813765" lon="12.253321788226746"><ele>17.666666666666668</ele><time>2026-04-25T13:01:27Z</time></trkpt><trkpt lat="45.69488660819975" lon="12.253471995211656"><ele>18.333333333333332</ele><time>2026-04-25T13:01:28Z</time></trkpt><trkpt lat="45.69506690136273" lon="12.253639140467"><ele>19.0</ele><time>2026-04-25T13:01:29Z</time></trkpt><trkpt lat="45.69524721648952" lon="12.253811166181226"><ele>18.333333333333332</ele><time>2026-04-25T13:01:30Z</time></trkpt><trkpt lat="45.69542965564295" lon="12.253983446900977"><ele>17.666666666666668</ele><time>2026-04-25T13:01:31Z</time></trkpt><trkpt lat="45.69561255625732" lon="12.254155789326289"><ele>17.0</ele><time>2026-04-25T13:01:32Z</time></trkpt><trkpt lat="45.69579291976977" lon="12.254320720437606"><ele>17.0</ele><time>2026-04-25T13:01:33Z</time></trkpt><trkpt lat="45.69596199171516" lon="12.25448107394157"><ele>17.0</ele><time>2026-04-25T13:01:34Z</time></trkpt><trkpt lat="45.69613476008275" lon="12.254636694728102"><ele>17.0</ele><time>2026-04-25T13:01:35Z</time></trkpt><trkpt lat="45.69630201978358" lon="12.25479680256765"><ele>17.666666666666668</ele><time>2026-04-25T13:01:36Z</time></trkpt><trkpt lat="45.69646261017414" lon="12.254950895067418"><ele>18.333333333333332</ele><time>2026-04-25T13:01:37Z</time></trkpt><trkpt lat="45.696610770457816" lon="12.255110073005078"><ele>19.0</ele><time>2026-04-25T13:01:38Z</time></trkpt><trkpt lat="45.69675060146622" lon="12.255279765282374"><ele>19.0</ele><time>2026-04-25T13:01:39Z</time></trkpt><trkpt lat="45.69688596614228" lon="12.255462854049865"><ele>19.0</ele><time>2026-04-25T13:01:40Z</time></trkpt><trkpt lat="45.69701076165472" lon="12.25564496496502"><ele>19.0</ele><time>2026-04-25T13:01:41Z</time></trkpt><trkpt lat="45.69712916101527" lon="12.255821304846403"><ele>19.0</ele><time>2026-04-25T13:01:42Z</time></trkpt><trkpt lat="45.69724450818575" lon="12.255997505114507"><ele>19.0</ele><time>2026-04-25T13:01:43Z</time></trkpt><trkpt lat="45.697353974207424" lon="12.256163134631747"><ele>19.0</ele><time>2026-04-25T13:01:44Z</time></trkpt><trkpt lat="45.69747067620561" lon="12.256324678894035"><ele>19.0</ele><time>2026-04-25T13:01:45Z</time></trkpt><trkpt lat="45.69758499638632" lon="12.256489701895882"><ele>19.0</ele><time>2026-04-25T13:01:46Z</time></trkpt><trkpt lat="45.69769005599867" lon="12.256648584125134"><ele>19.0</ele><time>2026-04-25T13:01:47Z</time></trkpt><trkpt lat="45.697793369483925" lon="12.256806720820123"><ele>18.75</ele><time>2026-04-25T13:01:48Z</time></trkpt><trkpt lat="45.69789516830079" lon="12.256965572757972"><ele>18.5</ele><time>2026-04-25T13:01:49Z</time></trkpt><trkpt lat="45.69799813519062" lon="12.257114593202607"><ele>18.25</ele><time>2026-04-25T13:01:50Z</time></trkpt><trkpt lat="45.698098963606064" lon="12.257260749766944"><ele>18.0</ele><time>2026-04-25T13:01:51Z</time></trkpt><trkpt lat="45.698198338104476" lon="12.257407361134774"><ele>18.5</ele><time>2026-04-25T13:01:52Z</time></trkpt><trkpt lat="45.69829450420728" lon="12.257552242452734"><ele>19.0</ele><time>2026-04-25T13:01:53Z</time></trkpt><trkpt lat="45.69838898885667" lon="12.257694602900328"><ele>19.5</ele><time>2026-04-25T13:01:54Z</time></trkpt><trkpt lat="45.698479252253215" lon="12.257828210682819"><ele>20.0</ele><time>2026-04-25T13:01:55Z</time></trkpt><trkpt lat="45.69856027668094" lon="12.257952308655957"><ele>20.0</ele><time>2026-04-25T13:01:56Z</time></trkpt><trkpt lat="45.698639814157005" lon="12.258067486171475"><ele>20.0</ele><time>2026-04-25T13:01:57Z</time></trkpt><trkpt lat="45.69869921889936" lon="12.258187949222314"><ele>20.0</ele><time>2026-04-25T13:01:58Z</time></trkpt><trkpt lat="45.698744829882216" lon="12.258318562498575"><ele>20.0</ele><time>2026-04-25T13:01:59Z</time></trkpt><trkpt lat="45.69876766581899" lon="12.258447002659379"><ele>20.0</ele><time>2026-04-25T13:02:00Z</time></trkpt><trkpt lat="45.698780858018736" lon="12.258573897124474"><ele>20.4</ele><time>2026-04-25T13:02:01Z</time></trkpt><trkpt lat="45.698807571160984" lon="12.258686893214147"><ele>20.8</ele><time>2026-04-25T13:02:02Z</time></trkpt><trkpt lat="45.69887490068229" lon="12.258760958683101"><ele>21.200000000000003</ele><time>2026-04-25T13:02:03Z</time></trkpt><trkpt lat="45.69897023041814" lon="12.258797730383574"><ele>21.6</ele><time>2026-04-25T13:02:04Z</time></trkpt><trkpt lat="45.69909361195518" lon="12.258814853551147"><ele>22.0</ele><time>2026-04-25T13:02:05Z</time></trkpt><trkpt lat="45.6992424065733" lon="12.258819377653282"><ele>22.0</ele><time>2026-04-25T13:02:06Z</time></trkpt><trkpt lat="45.69940823788155" lon="12.258843743571864"><ele>22.0</ele><time>2026-04-25T13:02:07Z</time></trkpt><trkpt lat="45.6995849341916" lon="12.258877683266242"><ele>22.0</ele><time>2026-04-25T13:02:08Z</time></trkpt><trkpt lat="45.69976532909875" lon="12.258917043144477"><ele>22.0</ele><time>2026-04-25T13:02:09Z</time></trkpt><trkpt lat="45.69994673961148" lon="12.258959488108589"><ele>22.0</ele><time>2026-04-25T13:02:10Z</time></trkpt><trkpt lat="45.700123215981165" lon="12.259001635966932"><ele>22.0</ele><time>2026-04-25T13:02:11Z</time></trkpt><trkpt lat="45.700282780166475" lon="12.259035286087757"><ele>22.0</ele><time>2026-04-25T13:02:12Z</time></trkpt><trkpt lat="45.70043714544115" lon="12.259062117045222"><ele>22.0</ele><time>2026-04-25T13:02:13Z</time></trkpt><trkpt lat="45.70058550202632" lon="12.25908796724771"><ele>22.0</ele><time>2026-04-25T13:02:14Z</time></trkpt><trkpt lat="45.70073291240126" lon="12.259111461125027"><ele>22.0</ele><time>2026-04-25T13:02:15Z</time></trkpt><trkpt lat="45.70088071228332" lon="12.259136714615972"><ele>22.0</ele><time>2026-04-25T13:02:16Z</time></trkpt><trkpt lat="45.701033765149205" lon="12.259164995293553"><ele>22.0</ele><time>2026-04-25T13:02:17Z</time></trkpt><trkpt lat="45.70119583668495" lon="12.259195253179845"><ele>21.666666666666664</ele><time>2026-04-25T13:02:18Z</time></trkpt><trkpt lat="45.701366548359736" lon="12.259226842470545"><ele>21.333333333333332</ele><time>2026-04-25T13:02:19Z</time></trkpt><trkpt lat="45.70154173075212" lon="12.259259359277683"><ele>21.0</ele><time>2026-04-25T13:02:20Z</time></trkpt><trkpt lat="45.7017188812117" lon="12.259293472807546"><ele>21.0</ele><time>2026-04-25T13:02:21Z</time></trkpt><trkpt lat="45.701899888741224" lon="12.259329111092674"><ele>21.0</ele><time>2026-04-25T13:02:22Z</time></trkpt><trkpt lat="45.70208636169633" lon="12.259361204637036"><ele>21.0</ele><time>2026-04-25T13:02:23Z</time></trkpt><trkpt lat="45.70228148704511" lon="12.259395958006069"><ele>20.666666666666668</ele><time>2026-04-25T13:02:24Z</time></trkpt><trkpt lat="45.70249080021931" lon="12.259423257842734"><ele>20.333333333333336</ele><time>2026-04-25T13:02:25Z</time></trkpt><trkpt lat="45.70271522903341" lon="12.259468600146862"><ele>20.0</ele><time>2026-04-25T13:02:26Z</time></trkpt><trkpt lat="45.70295319736884" lon="12.259493913256488"><ele>21.5</ele><time>2026-04-25T13:02:27Z</time></trkpt><trkpt lat="45.70319488320394" lon="12.25948018805551"><ele>23.0</ele><time>2026-04-25T13:02:28Z</time></trkpt><trkpt lat="45.703436327064814" lon="12.25949677188964"><ele>23.0</ele><time>2026-04-25T13:02:29Z</time></trkpt><trkpt lat="45.703670921523496" lon="12.259506825990885"><ele>23.0</ele><time>2026-04-25T13:02:30Z</time></trkpt><trkpt lat="45.70390149085338" lon="12.259521429492732"><ele>23.0</ele><time>2026-04-25T13:02:31Z</time></trkpt><trkpt lat="45.704126379492216" lon="12.259525714176117"><ele>23.0</ele><time>2026-04-25T13:02:32Z</time></trkpt><trkpt lat="45.70434986346095" lon="12.259537551869997"><ele>23.0</ele><time>2026-04-25T13:02:33Z</time></trkpt><trkpt lat="45.70456747923215" lon="12.259542118589941"><ele>22.333333333333336</ele><time>2026-04-25T13:02:34Z</time></trkpt><trkpt lat="45.704782804622745" lon="12.259548960296065"><ele>21.666666666666668</ele><time>2026-04-25T13:02:35Z</time></trkpt><trkpt lat="45.70499092753113" lon="12.2595564472085"><ele>21.0</ele><time>2026-04-25T13:02:36Z</time></trkpt><trkpt lat="45.70520293297043" lon="12.259566883279339"><ele>20.666666666666668</ele><time>2026-04-25T13:02:37Z</time></trkpt><trkpt lat="45.70542118160099" lon="12.259576572926198"><ele>20.333333333333336</ele><time>2026-04-25T13:02:38Z</time></trkpt><trkpt lat="45.705635601384884" lon="12.259587054473611"><ele>20.0</ele><time>2026-04-25T13:02:39Z</time></trkpt><trkpt lat="45.705846177779605" lon="12.259595902452515"><ele>20.0</ele><time>2026-04-25T13:02:40Z</time></trkpt><trkpt lat="45.70606622781491" lon="12.259606020082979"><ele>20.0</ele><time>2026-04-25T13:02:41Z</time></trkpt><trkpt lat="45.70627859894506" lon="12.259609088554527"><ele>20.0</ele><time>2026-04-25T13:02:42Z</time></trkpt><trkpt lat="45.706495791858124" lon="12.25961360082298"><ele>21.666666666666668</ele><time>2026-04-25T13:02:43Z</time></trkpt><trkpt lat="45.70671254412514" lon="12.259614922126254"><ele>23.333333333333336</ele><time>2026-04-25T13:02:44Z</time></trkpt><trkpt lat="45.70692997868794" lon="12.259615908337794"><ele>25.0</ele><time>2026-04-25T13:02:45Z</time></trkpt><trkpt lat="45.707151925139605" lon="12.259621493191878"><ele>25.0</ele><time>2026-04-25T13:02:46Z</time></trkpt><trkpt lat="45.70737079405841" lon="12.259633863353045"><ele>25.0</ele><time>2026-04-25T13:02:47Z</time></trkpt><trkpt lat="45.70758071958844" lon="12.259640410738994"><ele>25.0</ele><time>2026-04-25T13:02:48Z</time></trkpt><trkpt lat="45.70778801120345" lon="12.259642249341631"><ele>25.333333333333336</ele><time>2026-04-25T13:02:49Z</time></trkpt><trkpt lat="45.70799593486824" lon="12.259646622371001"><ele>25.666666666666664</ele><time>2026-04-25T13:02:50Z</time></trkpt><trkpt lat="45.708200563451605" lon="12.25965330210235"><ele>26.0</ele><time>2026-04-25T13:02:51Z</time></trkpt><trkpt lat="45.708402789918004" lon="12.2596603722206"><ele>26.0</ele><time>2026-04-25T13:02:52Z</time></trkpt><trkpt lat="45.70859795014293" lon="12.259666324356717"><ele>26.0</ele><time>2026-04-25T13:02:53Z</time></trkpt><trkpt lat="45.708794225371626" lon="12.259677718075332"><ele>26.0</ele><time>2026-04-25T13:02:54Z</time></trkpt><trkpt lat="45.70898761334062" lon="12.259685790163402"><ele>26.0</ele><time>2026-04-25T13:02:55Z</time></trkpt><trkpt lat="45.70918285403285" lon="12.259690070127037"><ele>26.0</ele><time>2026-04-25T13:02:56Z</time></trkpt><trkpt lat="45.70937472598702" lon="12.259696837134523"><ele>26.0</ele><time>2026-04-25T13:02:57Z</time></trkpt><trkpt lat="45.709558494425444" lon="12.259703889327692"><ele>26.0</ele><time>2026-04-25T13:02:58Z</time></trkpt><trkpt lat="45.709733891374015" lon="12.259712322365392"><ele>26.0</ele><time>2026-04-25T13:02:59Z</time></trkpt><trkpt lat="45.70990129449385" lon="12.259716193234452"><ele>26.0</ele><time>2026-04-25T13:03:00Z</time></trkpt><trkpt lat="45.71006084081817" lon="12.259719114974414"><ele>26.0</ele><time>2026-04-25T13:03:01Z</time></trkpt><trkpt lat="45.71021566341572" lon="12.259722703230409"><ele>26.0</ele><time>2026-04-25T13:03:02Z</time></trkpt><trkpt lat="45.71036972373049" lon="12.25972401258594"><ele>26.0</ele><time>2026-04-25T13:03:03Z</time></trkpt><trkpt lat="45.71052267208485" lon="12.259729483436999"><ele>26.333333333333332</ele><time>2026-04-25T13:03:04Z</time></trkpt><trkpt lat="45.710681622546375" lon="12.259736188293719"><ele>26.666666666666664</ele><time>2026-04-25T13:03:05Z</time></trkpt><trkpt lat="45.71084118520433" lon="12.259741171745361"><ele>27.0</ele><time>2026-04-25T13:03:06Z</time></trkpt><trkpt lat="45.71100190928758" lon="12.259747163199439"><ele>26.666666666666664</ele><time>2026-04-25T13:03:07Z</time></trkpt><trkpt lat="45.71115463028029" lon="12.259752268493093"><ele>26.333333333333332</ele><time>2026-04-25T13:03:08Z</time></trkpt><trkpt lat="45.711301392378545" lon="12.259748990900697"><ele>26.0</ele><time>2026-04-25T13:03:09Z</time></trkpt><trkpt lat="45.71145172320501" lon="12.259750053158553"><ele>26.0</ele><time>2026-04-25T13:03:10Z</time></trkpt><trkpt lat="45.711594148322014" lon="12.259752060032394"><ele>26.0</ele><time>2026-04-25T13:03:11Z</time></trkpt><trkpt lat="45.71173032932773" lon="12.259754414588768"><ele>26.0</ele><time>2026-04-25T13:03:12Z</time></trkpt><trkpt lat="45.71186111386715" lon="12.259755977441278"><ele>26.0</ele><time>2026-04-25T13:03:13Z</time></trkpt><trkpt lat="45.71198894421278" lon="12.259754873615538"><ele>26.0</ele><time>2026-04-25T13:03:14Z</time></trkpt><trkpt lat="45.712109550917255" lon="12.259770434496186"><ele>26.0</ele><time>2026-04-25T13:03:15Z</time></trkpt><trkpt lat="45.71222348237045" lon="12.259746939201785"><ele>26.0</ele><time>2026-04-25T13:03:16Z</time></trkpt><trkpt lat="45.712326748080706" lon="12.259706550651412"><ele>26.0</ele><time>2026-04-25T13:03:17Z</time></trkpt><trkpt lat="45.71242576312314" lon="12.259662503888082"><ele>26.0</ele><time>2026-04-25T13:03:18Z</time></trkpt><trkpt lat="45.7125192759963" lon="12.259595685352227"><ele>26.0</ele><time>2026-04-25T13:03:19Z</time></trkpt><trkpt lat="45.7126043727948" lon="12.259504870954451"><ele>26.0</ele><time>2026-04-25T13:03:20Z</time></trkpt><trkpt lat="45.71270070910465" lon="12.259431039940202"><ele>26.0</ele><time>2026-04-25T13:03:21Z</time></trkpt><trkpt lat="45.712796651339545" lon="12.259352634271767"><ele>26.0</ele><time>2026-04-25T13:03:22Z</time></trkpt><trkpt lat="45.712897776917124" lon="12.25926596688565"><ele>26.0</ele><time>2026-04-25T13:03:23Z</time></trkpt><trkpt lat="45.71299889259097" lon="12.259177541282124"><ele>26.25</ele><time>2026-04-25T13:03:24Z</time></trkpt><trkpt lat="45.71309867278536" lon="12.25909321352157"><ele>26.5</ele><time>2026-04-25T13:03:25Z</time></trkpt><trkpt lat="45.71319303178982" lon="12.259007375184805"><ele>26.75</ele><time>2026-04-25T13:03:26Z</time></trkpt><trkpt lat="45.71329736986388" lon="12.258925772736674"><ele>27.0</ele><time>2026-04-25T13:03:27Z</time></trkpt><trkpt lat="45.71339939436137" lon="12.258843158037678"><ele>27.0</ele><time>2026-04-25T13:03:28Z</time></trkpt><trkpt lat="45.71349641100067" lon="12.258757559985515"><ele>27.000000000000004</ele><time>2026-04-25T13:03:29Z</time></trkpt><trkpt lat="45.713585940918904" lon="12.258677211123715"><ele>27.000000000000004</ele><time>2026-04-25T13:03:30Z</time></trkpt><trkpt lat="45.71367059434995" lon="12.25860034597442"><ele>27.0</ele><time>2026-04-25T13:03:31Z</time></trkpt><trkpt lat="45.7137588312337" lon="12.258526019654685"><ele>27.0</ele><time>2026-04-25T13:03:32Z</time></trkpt><trkpt lat="45.713844863211435" lon="12.258450630341668"><ele>26.8</ele><time>2026-04-25T13:03:33Z</time></trkpt><trkpt lat="45.71393230512483" lon="12.25837567010886"><ele>26.6</ele><time>2026-04-25T13:03:34Z</time></trkpt><trkpt lat="45.71402670939887" lon="12.258295465280645"><ele>26.400000000000002</ele><time>2026-04-25T13:03:35Z</time></trkpt><trkpt lat="45.714124259883214" lon="12.258212602422036"><ele>26.200000000000003</ele><time>2026-04-25T13:03:36Z</time></trkpt><trkpt lat="45.71422914439023" lon="12.258124134785128"><ele>26.0</ele><time>2026-04-25T13:03:37Z</time></trkpt><trkpt lat="45.71433293942946" lon="12.258033891621775"><ele>26.0</ele><time>2026-04-25T13:03:38Z</time></trkpt><trkpt lat="45.71443721508992" lon="12.25794232804674"><ele>26.0</ele><time>2026-04-25T13:03:39.001Z</time></trkpt><trkpt lat="45.71453603142469" lon="12.257857316350982"><ele>26.0</ele><time>2026-04-25T13:03:40.001Z</time></trkpt><trkpt lat="45.714632468149766" lon="12.257775630571928"><ele>26.0</ele><time>2026-04-25T13:03:41.001Z</time></trkpt><trkpt lat="45.71473012231465" lon="12.257696718372138"><ele>26.0</ele><time>2026-04-25T13:03:42.001Z</time></trkpt><trkpt lat="45.714826539277844" lon="12.257619313813088"><ele>26.0</ele><time>2026-04-25T13:03:43.001Z</time></trkpt><trkpt lat="45.714925248568846" lon="12.257547168408292"><ele>26.0</ele><time>2026-04-25T13:03:44.001Z</time></trkpt><trkpt lat="45.715024709908086" lon="12.257478143841258"><ele>26.0</ele><time>2026-04-25T13:03:45.001Z</time></trkpt><trkpt lat="45.71512043754496" lon="12.257414717797957"><ele>26.0</ele><time>2026-04-25T13:03:46.001Z</time></trkpt><trkpt lat="45.71522275170645" lon="12.257347225303409"><ele>26.0</ele><time>2026-04-25T13:03:47.001Z</time></trkpt><trkpt lat="45.715333379648364" lon="12.257282916828435"><ele>26.0</ele><time>2026-04-25T13:03:48.001Z</time></trkpt><trkpt lat="45.71544526218617" lon="12.257219403674426"><ele>26.0</ele><time>2026-04-25T13:03:49.001Z</time></trkpt><trkpt lat="45.71556137340268" lon="12.25715280795407"><ele>26.0</ele><time>2026-04-25T13:03:50.001Z</time></trkpt><trkpt lat="45.71568194805804" lon="12.257093372891298"><ele>26.0</ele><time>2026-04-25T13:03:51.001Z</time></trkpt><trkpt lat="45.71580024522675" lon="12.257037305844985"><ele>26.0</ele><time>2026-04-25T13:03:52.001Z</time></trkpt><trkpt lat="45.7159159960644" lon="12.256985611053745"><ele>26.0</ele><time>2026-04-25T13:03:53.001Z</time></trkpt><trkpt lat="45.71602229179956" lon="12.25694012909283"><ele>26.0</ele><time>2026-04-25T13:03:54.001Z</time></trkpt><trkpt lat="45.71612482992272" lon="12.256898407363444"><ele>26.4</ele><time>2026-04-25T13:03:55.001Z</time></trkpt><trkpt lat="45.71622362976569" lon="12.25686266387507"><ele>26.8</ele><time>2026-04-25T13:03:56.001Z</time></trkpt><trkpt lat="45.71631886048525" lon="12.256829906788774"><ele>27.199999999999996</ele><time>2026-04-25T13:03:57.001Z</time></trkpt><trkpt lat="45.71641765915401" lon="12.256797044634222"><ele>27.599999999999998</ele><time>2026-04-25T13:03:58.001Z</time></trkpt><trkpt lat="45.71651582065159" lon="12.256762791305777"><ele>28.0</ele><time>2026-04-25T13:03:59Z</time></trkpt><trkpt lat="45.716614121910695" lon="12.256729919539106"><ele>28.0</ele><time>2026-04-25T13:04:00Z</time></trkpt><trkpt lat="45.71671032563201" lon="12.256695397099406"><ele>27.999999999999996</ele><time>2026-04-25T13:04:01Z</time></trkpt><trkpt lat="45.716809997041885" lon="12.256659841802932"><ele>27.999999999999996</ele><time>2026-04-25T13:04:02Z</time></trkpt><trkpt lat="45.716901458176956" lon="12.25662872204015"><ele>28.0</ele><time>2026-04-25T13:04:03Z</time></trkpt><trkpt lat="45.71699087147069" lon="12.256598796019718"><ele>28.0</ele><time>2026-04-25T13:04:04Z</time></trkpt><trkpt lat="45.71707949176147" lon="12.25657177615573"><ele>28.000000000000004</ele><time>2026-04-25T13:04:05Z</time></trkpt><trkpt lat="45.71716391641936" lon="12.256539910381157"><ele>28.0</ele><time>2026-04-25T13:04:06Z</time></trkpt><trkpt lat="45.717245802778535" lon="12.256514932126004"><ele>28.0</ele><time>2026-04-25T13:04:07Z</time></trkpt><trkpt lat="45.71732259260612" lon="12.256486340409335"><ele>28.0</ele><time>2026-04-25T13:04:08Z</time></trkpt><trkpt lat="45.71739821186166" lon="12.256460401172504"><ele>28.000000000000004</ele><time>2026-04-25T13:04:09Z</time></trkpt><trkpt lat="45.71747905875823" lon="12.256431566063677"><ele>28.0</ele><time>2026-04-25T13:04:10Z</time></trkpt><trkpt lat="45.71755162452761" lon="12.256401948895466"><ele>28.000000000000004</ele><time>2026-04-25T13:04:11Z</time></trkpt><trkpt lat="45.71762986989241" lon="12.256396547503805"><ele>28.0</ele><time>2026-04-25T13:04:12Z</time></trkpt><trkpt lat="45.71768719686579" lon="12.25631979173782"><ele>28.0</ele><time>2026-04-25T13:04:13Z</time></trkpt><trkpt lat="45.71775858906411" lon="12.256264955408202"><ele>28.0</ele><time>2026-04-25T13:04:14Z</time></trkpt><trkpt lat="45.717836478323306" lon="12.256239570214744"><ele>28.000000000000004</ele><time>2026-04-25T13:04:15Z</time></trkpt><trkpt lat="45.71791673646956" lon="12.256239348191242"><ele>28.0</ele><time>2026-04-25T13:04:16Z</time></trkpt><trkpt lat="45.71799864013857" lon="12.256245654689064"><ele>28.000000000000004</ele><time>2026-04-25T13:04:17Z</time></trkpt><trkpt lat="45.71807707121518" lon="12.256233106588919"><ele>28.0</ele><time>2026-04-25T13:04:18Z</time></trkpt><trkpt lat="45.71814735482868" lon="12.256186592389867"><ele>28.0</ele><time>2026-04-25T13:04:19Z</time></trkpt><trkpt lat="45.71821145480775" lon="12.25611530122131"><ele>28.0</ele><time>2026-04-25T13:04:20Z</time></trkpt><trkpt lat="45.71828991855289" lon="12.256052044106934"><ele>28.000000000000004</ele><time>2026-04-25T13:04:21Z</time></trkpt><trkpt lat="45.71838819389563" lon="12.256024808771837"><ele>28.0</ele><time>2026-04-25T13:04:22Z</time></trkpt><trkpt lat="45.71851103005272" lon="12.256014909348313"><ele>27.666666666666668</ele><time>2026-04-25T13:04:23Z</time></trkpt><trkpt lat="45.71865609283956" lon="12.256049320903955"><ele>27.333333333333336</ele><time>2026-04-25T13:04:24Z</time></trkpt><trkpt lat="45.718815119251886" lon="12.255952579475725"><ele>27.0</ele><time>2026-04-25T13:04:25Z</time></trkpt><trkpt lat="45.718969425339104" lon="12.255916098563947"><ele>27.0</ele><time>2026-04-25T13:04:26Z</time></trkpt><trkpt lat="45.719128586225246" lon="12.255870162477143"><ele>27.0</ele><time>2026-04-25T13:04:27Z</time></trkpt><trkpt lat="45.719281791561876" lon="12.255821110719907"><ele>27.0</ele><time>2026-04-25T13:04:28Z</time></trkpt><trkpt lat="45.71943873640627" lon="12.255776116987592"><ele>27.5</ele><time>2026-04-25T13:04:29Z</time></trkpt><trkpt lat="45.71960282499101" lon="12.2557363135235"><ele>28.0</ele><time>2026-04-25T13:04:30Z</time></trkpt><trkpt lat="45.71976951038871" lon="12.255701190501602"><ele>28.5</ele><time>2026-04-25T13:04:31Z</time></trkpt><trkpt lat="45.71982719025569" lon="12.255639603694194"><ele>29.0</ele><time>2026-04-25T13:04:32Z</time></trkpt><trkpt lat="45.719947241757" lon="12.25559700911233"><ele>29.0</ele><time>2026-04-25T13:04:33Z</time></trkpt><trkpt lat="45.72006134866259" lon="12.255557445306678"><ele>29.0</ele><time>2026-04-25T13:04:34Z</time></trkpt><trkpt lat="45.72018073750866" lon="12.25551498318497"><ele>29.0</ele><time>2026-04-25T13:04:35Z</time></trkpt><trkpt lat="45.72029934221417" lon="12.25547564993373"><ele>29.0</ele><time>2026-04-25T13:04:36Z</time></trkpt><trkpt lat="45.72041835341191" lon="12.255435536535474"><ele>28.75</ele><time>2026-04-25T13:04:37Z</time></trkpt><trkpt lat="45.72053935511798" lon="12.255397667837137"><ele>28.5</ele><time>2026-04-25T13:04:38Z</time></trkpt><trkpt lat="45.720659502448534" lon="12.255357779036565"><ele>28.25</ele><time>2026-04-25T13:04:39Z</time></trkpt><trkpt lat="45.72077998862306" lon="12.255314266590581"><ele>28.0</ele><time>2026-04-25T13:04:40Z</time></trkpt><trkpt lat="45.72089674363177" lon="12.255268671657754"><ele>28.0</ele><time>2026-04-25T13:04:41Z</time></trkpt><trkpt lat="45.72101724656014" lon="12.255225681258992"><ele>28.0</ele><time>2026-04-25T13:04:42Z</time></trkpt><trkpt lat="45.72113857489034" lon="12.255186832726634"><ele>28.0</ele><time>2026-04-25T13:04:43Z</time></trkpt><trkpt lat="45.72125376195961" lon="12.25514589872168"><ele>28.0</ele><time>2026-04-25T13:04:44Z</time></trkpt><trkpt lat="45.72136342874121" lon="12.255108448001977"><ele>28.5</ele><time>2026-04-25T13:04:45Z</time></trkpt><trkpt lat="45.72147243926937" lon="12.255069953307455"><ele>29.0</ele><time>2026-04-25T13:04:46Z</time></trkpt><trkpt lat="45.721581987066344" lon="12.255033194940122"><ele>29.5</ele><time>2026-04-25T13:04:47Z</time></trkpt><trkpt lat="45.72169419780453" lon="12.25499898676345"><ele>30.0</ele><time>2026-04-25T13:04:48Z</time></trkpt><trkpt lat="45.721802085458386" lon="12.254962509999295"><ele>30.0</ele><time>2026-04-25T13:04:49Z</time></trkpt><trkpt lat="45.72190724271148" lon="12.254930045527262"><ele>30.0</ele><time>2026-04-25T13:04:50Z</time></trkpt><trkpt lat="45.72201663355488" lon="12.254895534010627"><ele>30.0</ele><time>2026-04-25T13:04:51Z</time></trkpt><trkpt lat="45.72211616118666" lon="12.25485849521172"><ele>30.0</ele><time>2026-04-25T13:04:52Z</time></trkpt><trkpt lat="45.722203678627864" lon="12.25482555547416"><ele>30.0</ele><time>2026-04-25T13:04:53Z</time></trkpt><trkpt lat="45.722299675857826" lon="12.254790743227176"><ele>30.0</ele><time>2026-04-25T13:04:54Z</time></trkpt><trkpt lat="45.722392378704626" lon="12.254756104167187"><ele>30.0</ele><time>2026-04-25T13:04:55Z</time></trkpt><trkpt lat="45.72249802906122" lon="12.254726156667731"><ele>30.0</ele><time>2026-04-25T13:04:56Z</time></trkpt><trkpt lat="45.72260734220356" lon="12.254693408138058"><ele>30.0</ele><time>2026-04-25T13:04:57Z</time></trkpt><trkpt lat="45.72272288738867" lon="12.254648858003373"><ele>30.0</ele><time>2026-04-25T13:04:58Z</time></trkpt><trkpt lat="45.72284437855788" lon="12.254607135466552"><ele>30.0</ele><time>2026-04-25T13:04:59Z</time></trkpt><trkpt lat="45.72296590142819" lon="12.254565979653098"><ele>30.0</ele><time>2026-04-25T13:05:00Z</time></trkpt><trkpt lat="45.72308442351675" lon="12.254528115252011"><ele>30.0</ele><time>2026-04-25T13:05:01Z</time></trkpt><trkpt lat="45.723200317814296" lon="12.25448728680401"><ele>30.0</ele><time>2026-04-25T13:05:02Z</time></trkpt><trkpt lat="45.723320985180564" lon="12.254445015654746"><ele>30.0</ele><time>2026-04-25T13:05:03Z</time></trkpt><trkpt lat="45.72344412435551" lon="12.254400339150441"><ele>30.0</ele><time>2026-04-25T13:05:04Z</time></trkpt><trkpt lat="45.72356661787612" lon="12.254359421962613"><ele>30.0</ele><time>2026-04-25T13:05:05Z</time></trkpt><trkpt lat="45.72369093291033" lon="12.254317635484504"><ele>30.0</ele><time>2026-04-25T13:05:06Z</time></trkpt><trkpt lat="45.723813002605404" lon="12.254276386478473"><ele>29.75</ele><time>2026-04-25T13:05:07Z</time></trkpt><trkpt lat="45.72392841924732" lon="12.254237617936559"><ele>29.5</ele><time>2026-04-25T13:05:08Z</time></trkpt><trkpt lat="45.724042178892645" lon="12.254199156643269"><ele>29.25</ele><time>2026-04-25T13:05:09Z</time></trkpt><trkpt lat="45.72415226367014" lon="12.254160729333437"><ele>29.0</ele><time>2026-04-25T13:05:10Z</time></trkpt><trkpt lat="45.72426282905579" lon="12.254124779610601"><ele>29.0</ele><time>2026-04-25T13:05:11Z</time></trkpt><trkpt lat="45.724373598610946" lon="12.254088154222805"><ele>29.0</ele><time>2026-04-25T13:05:12Z</time></trkpt><trkpt lat="45.7244878383831" lon="12.254046229370243"><ele>29.0</ele><time>2026-04-25T13:05:13Z</time></trkpt><trkpt lat="45.72460715503557" lon="12.254008652630244"><ele>29.0</ele><time>2026-04-25T13:05:14Z</time></trkpt><trkpt lat="45.72472495560575" lon="12.253969068144501"><ele>29.5</ele><time>2026-04-25T13:05:15Z</time></trkpt><trkpt lat="45.72484737324817" lon="12.253926757974108"><ele>30.0</ele><time>2026-04-25T13:05:16Z</time></trkpt><trkpt lat="45.72496598048154" lon="12.253880159176466"><ele>30.5</ele><time>2026-04-25T13:05:17Z</time></trkpt><trkpt lat="45.72509734386127" lon="12.253829253399502"><ele>31.0</ele><time>2026-04-25T13:05:18Z</time></trkpt><trkpt lat="45.725232167504096" lon="12.253781025443217"><ele>32.0</ele><time>2026-04-25T13:05:19Z</time></trkpt><trkpt lat="45.725383468445806" lon="12.253724762250918"><ele>33.0</ele><time>2026-04-25T13:05:20Z</time></trkpt><trkpt lat="45.72554447096108" lon="12.25368790249418"><ele>34.0</ele><time>2026-04-25T13:05:21Z</time></trkpt><trkpt lat="45.72571394182812" lon="12.25360571452718"><ele>34.0</ele><time>2026-04-25T13:05:22Z</time></trkpt><trkpt lat="45.725884193076986" lon="12.253551339266615"><ele>34.0</ele><time>2026-04-25T13:05:23Z</time></trkpt><trkpt lat="45.726053891656534" lon="12.25349181058725"><ele>34.0</ele><time>2026-04-25T13:05:24Z</time></trkpt><trkpt lat="45.72621756454154" lon="12.253467048678923"><ele>33.66666666666667</ele><time>2026-04-25T13:05:25Z</time></trkpt><trkpt lat="45.726377852967495" lon="12.253418604535955"><ele>33.333333333333336</ele><time>2026-04-25T13:05:26Z</time></trkpt><trkpt lat="45.726532795431375" lon="12.253368295575044"><ele>33.0</ele><time>2026-04-25T13:05:27Z</time></trkpt><trkpt lat="45.72668319047251" lon="12.253317746807385"><ele>33.0</ele><time>2026-04-25T13:05:28Z</time></trkpt><trkpt lat="45.726842111357314" lon="12.253263832296271"><ele>33.0</ele><time>2026-04-25T13:05:29.001Z</time></trkpt><trkpt lat="45.72699961957607" lon="12.253209855161602"><ele>33.0</ele><time>2026-04-25T13:05:30.001Z</time></trkpt><trkpt lat="45.727151349239364" lon="12.253158624726895"><ele>33.0</ele><time>2026-04-25T13:05:31.001Z</time></trkpt><trkpt lat="45.72731024331651" lon="12.253104784541568"><ele>33.0</ele><time>2026-04-25T13:05:32.001Z</time></trkpt><trkpt lat="45.72746653398207" lon="12.253051826551248"><ele>33.0</ele><time>2026-04-25T13:05:33.001Z</time></trkpt><trkpt lat="45.72762721347348" lon="12.252997382236329"><ele>33.333333333333336</ele><time>2026-04-25T13:05:34.001Z</time></trkpt><trkpt lat="45.72779952516683" lon="12.252938285645179"><ele>33.66666666666667</ele><time>2026-04-25T13:05:35.001Z</time></trkpt><trkpt lat="45.72795971682431" lon="12.252883501170242"><ele>34.0</ele><time>2026-04-25T13:05:36.001Z</time></trkpt><trkpt lat="45.72811417398846" lon="12.25283114785802"><ele>34.0</ele><time>2026-04-25T13:05:37.001Z</time></trkpt><trkpt lat="45.72826936378157" lon="12.2527785461115"><ele>34.0</ele><time>2026-04-25T13:05:38.001Z</time></trkpt><trkpt lat="45.72841724705927" lon="12.252694989614376"><ele>34.0</ele><time>2026-04-25T13:05:39.001Z</time></trkpt><trkpt lat="45.72857030484353" lon="12.252646718386119"><ele>33.75</ele><time>2026-04-25T13:05:40.001Z</time></trkpt><trkpt lat="45.72871033819291" lon="12.252598885572905"><ele>33.5</ele><time>2026-04-25T13:05:41.001Z</time></trkpt><trkpt lat="45.72885091883205" lon="12.25254983968372"><ele>33.25</ele><time>2026-04-25T13:05:42.001Z</time></trkpt><trkpt lat="45.72900197591188" lon="12.252528382377225"><ele>33.0</ele><time>2026-04-25T13:05:43.001Z</time></trkpt><trkpt lat="45.729150684331586" lon="12.2524778310398"><ele>33.0</ele><time>2026-04-25T13:05:44.001Z</time></trkpt><trkpt lat="45.72930155136972" lon="12.252427152847417"><ele>33.0</ele><time>2026-04-25T13:05:45.001Z</time></trkpt><trkpt lat="45.729464717198255" lon="12.252372560446059"><ele>33.0</ele><time>2026-04-25T13:05:46.001Z</time></trkpt><trkpt lat="45.72962088850472" lon="12.252317064878877"><ele>33.0</ele><time>2026-04-25T13:05:47.001Z</time></trkpt><trkpt lat="45.72976768699956" lon="12.25226621293723"><ele>33.0</ele><time>2026-04-25T13:05:48.001Z</time></trkpt><trkpt lat="45.72991116721562" lon="12.252216824091338"><ele>33.0</ele><time>2026-04-25T13:05:49.001Z</time></trkpt><trkpt lat="45.730051265908465" lon="12.252145420919108"><ele>33.0</ele><time>2026-04-25T13:05:50.001Z</time></trkpt><trkpt lat="45.73033471730765" lon="12.252051191907022"><ele>32.5</ele><time>2026-04-25T13:05:52.001Z</time></trkpt><trkpt lat="45.73046963061468" lon="12.252003343941858"><ele>32.0</ele><time>2026-04-25T13:05:53.001Z</time></trkpt><trkpt lat="45.730604170606966" lon="12.251980439435648"><ele>31.5</ele><time>2026-04-25T13:05:54.001Z</time></trkpt><trkpt lat="45.7307405317469" lon="12.251934101645752"><ele>31.0</ele><time>2026-04-25T13:05:55.001Z</time></trkpt><trkpt lat="45.730883894204695" lon="12.251885645117106"><ele>31.0</ele><time>2026-04-25T13:05:56.001Z</time></trkpt><trkpt lat="45.73103330761351" lon="12.251835110002808"><ele>31.0</ele><time>2026-04-25T13:05:57.001Z</time></trkpt><trkpt lat="45.731190640694955" lon="12.251781581119578"><ele>31.0</ele><time>2026-04-25T13:05:58.001Z</time></trkpt><trkpt lat="45.7313516366564" lon="12.251726806124031"><ele>32.333333333333336</ele><time>2026-04-25T13:05:59.001Z</time></trkpt><trkpt lat="45.73151870069044" lon="12.25166995208797"><ele>33.666666666666664</ele><time>2026-04-25T13:06:00.001Z</time></trkpt><trkpt lat="45.73168640511747" lon="12.251612733121494"><ele>35.0</ele><time>2026-04-25T13:06:01Z</time></trkpt><trkpt lat="45.73185916083973" lon="12.25155363797069"><ele>35.0</ele><time>2026-04-25T13:06:02Z</time></trkpt><trkpt lat="45.73203823368974" lon="12.251491940006087"><ele>35.0</ele><time>2026-04-25T13:06:03Z</time></trkpt><trkpt lat="45.73221882344648" lon="12.25140778441135"><ele>35.0</ele><time>2026-04-25T13:06:04Z</time></trkpt><trkpt lat="45.73239241971221" lon="12.25134754598713"><ele>34.666666666666664</ele><time>2026-04-25T13:06:05Z</time></trkpt><trkpt lat="45.73255751838425" lon="12.25131417040158"><ele>34.333333333333336</ele><time>2026-04-25T13:06:06Z</time></trkpt><trkpt lat="45.732714867487694" lon="12.251260481772936"><ele>34.0</ele><time>2026-04-25T13:06:07Z</time></trkpt><trkpt lat="45.732858128041826" lon="12.25118861866067"><ele>34.0</ele><time>2026-04-25T13:06:08Z</time></trkpt><trkpt lat="45.73299901611843" lon="12.251141205612319"><ele>34.0</ele><time>2026-04-25T13:06:09Z</time></trkpt><trkpt lat="45.733129565619386" lon="12.25109636560462"><ele>34.0</ele><time>2026-04-25T13:06:10Z</time></trkpt><trkpt lat="45.7332558591733" lon="12.251053307166803"><ele>34.0</ele><time>2026-04-25T13:06:11Z</time></trkpt><trkpt lat="45.73337537131394" lon="12.251011838161665"><ele>34.0</ele><time>2026-04-25T13:06:12Z</time></trkpt><trkpt lat="45.7334868388272" lon="12.250974252430247"><ele>34.0</ele><time>2026-04-25T13:06:13Z</time></trkpt><trkpt lat="45.73360207833101" lon="12.250934838914274"><ele>34.0</ele><time>2026-04-25T13:06:14Z</time></trkpt><trkpt lat="45.73371737547858" lon="12.250897285447081"><ele>34.0</ele><time>2026-04-25T13:06:15Z</time></trkpt><trkpt lat="45.73383312718942" lon="12.2508615658694"><ele>34.5</ele><time>2026-04-25T13:06:16Z</time></trkpt><trkpt lat="45.733951449352716" lon="12.250823459686599"><ele>35.0</ele><time>2026-04-25T13:06:17Z</time></trkpt><trkpt lat="45.73407397855907" lon="12.250781490991741"><ele>35.5</ele><time>2026-04-25T13:06:18Z</time></trkpt><trkpt lat="45.734202440161546" lon="12.250737808616929"><ele>36.0</ele><time>2026-04-25T13:06:19Z</time></trkpt><trkpt lat="45.7343346921034" lon="12.250692859077319"><ele>36.0</ele><time>2026-04-25T13:06:20Z</time></trkpt><trkpt lat="45.73447140185608" lon="12.25064547578473"><ele>36.0</ele><time>2026-04-25T13:06:21Z</time></trkpt><trkpt lat="45.73460816403866" lon="12.250597470057995"><ele>36.0</ele><time>2026-04-25T13:06:22Z</time></trkpt><trkpt lat="45.73475038073828" lon="12.250549451885563"><ele>36.0</ele><time>2026-04-25T13:06:23Z</time></trkpt><trkpt lat="45.734901001890435" lon="12.250498457187273"><ele>36.0</ele><time>2026-04-25T13:06:24Z</time></trkpt><trkpt lat="45.73505102563726" lon="12.250448276078354"><ele>36.0</ele><time>2026-04-25T13:06:25Z</time></trkpt><trkpt lat="45.7352058771216" lon="12.250395108807304"><ele>36.0</ele><time>2026-04-25T13:06:26Z</time></trkpt><trkpt lat="45.73535849257852" lon="12.250342766904877"><ele>36.0</ele><time>2026-04-25T13:06:27Z</time></trkpt><trkpt lat="45.735509565755954" lon="12.250289904513286"><ele>36.0</ele><time>2026-04-25T13:06:28Z</time></trkpt><trkpt lat="45.73565198186455" lon="12.250239542887838"><ele>36.0</ele><time>2026-04-25T13:06:29Z</time></trkpt><trkpt lat="45.73578374974312" lon="12.250194489939885"><ele>36.0</ele><time>2026-04-25T13:06:30Z</time></trkpt><trkpt lat="45.73590920861535" lon="12.250175397698573"><ele>36.0</ele><time>2026-04-25T13:06:31Z</time></trkpt><trkpt lat="45.7360243625917" lon="12.250108071458667"><ele>36.0</ele><time>2026-04-25T13:06:32Z</time></trkpt><trkpt lat="45.73614472800875" lon="12.250063619136414"><ele>36.0</ele><time>2026-04-25T13:06:33Z</time></trkpt><trkpt lat="45.7362742954478" lon="12.250013521097763"><ele>36.0</ele><time>2026-04-25T13:06:34Z</time></trkpt><trkpt lat="45.73641740702611" lon="12.249957101354195"><ele>36.0</ele><time>2026-04-25T13:06:35Z</time></trkpt><trkpt lat="45.73656828030922" lon="12.249905168213067"><ele>36.0</ele><time>2026-04-25T13:06:36Z</time></trkpt><trkpt lat="45.736720277302574" lon="12.24985469661902"><ele>36.0</ele><time>2026-04-25T13:06:37Z</time></trkpt><trkpt lat="45.73687595529053" lon="12.249815562589113"><ele>36.25</ele><time>2026-04-25T13:06:38Z</time></trkpt><trkpt lat="45.73700865795754" lon="12.249803411169417"><ele>36.5</ele><time>2026-04-25T13:06:39Z</time></trkpt><trkpt lat="45.73713940999502" lon="12.249758141148838"><ele>36.75</ele><time>2026-04-25T13:06:40Z</time></trkpt><trkpt lat="45.73726880039383" lon="12.24971359626358"><ele>37.0</ele><time>2026-04-25T13:06:41Z</time></trkpt><trkpt lat="45.7374007118187" lon="12.24966802018879"><ele>37.0</ele><time>2026-04-25T13:06:42Z</time></trkpt><trkpt lat="45.7375541484117" lon="12.249613401291287"><ele>37.0</ele><time>2026-04-25T13:06:43Z</time></trkpt><trkpt lat="45.73771136421228" lon="12.249557437134097"><ele>37.0</ele><time>2026-04-25T13:06:44Z</time></trkpt><trkpt lat="45.737873507157595" lon="12.24947849443271"><ele>36.66666666666667</ele><time>2026-04-25T13:06:45Z</time></trkpt><trkpt lat="45.73803275117047" lon="12.249451722502096"><ele>36.333333333333336</ele><time>2026-04-25T13:06:46Z</time></trkpt><trkpt lat="45.73819348073227" lon="12.249377360565475"><ele>36.0</ele><time>2026-04-25T13:06:47Z</time></trkpt><trkpt lat="45.738347521490574" lon="12.249327289297966"><ele>36.0</ele><time>2026-04-25T13:06:48Z</time></trkpt><trkpt lat="45.73849763014655" lon="12.249276470808633"><ele>36.0</ele><time>2026-04-25T13:06:49Z</time></trkpt><trkpt lat="45.73864521621283" lon="12.249226796952845"><ele>36.0</ele><time>2026-04-25T13:06:50Z</time></trkpt><trkpt lat="45.73879082252917" lon="12.249184396590614"><ele>35.75</ele><time>2026-04-25T13:06:51Z</time></trkpt><trkpt lat="45.738929555512186" lon="12.249143225835741"><ele>35.5</ele><time>2026-04-25T13:06:52Z</time></trkpt><trkpt lat="45.73907272812675" lon="12.249104930168778"><ele>35.25</ele><time>2026-04-25T13:06:53Z</time></trkpt><trkpt lat="45.73920277576409" lon="12.249068690780634"><ele>35.0</ele><time>2026-04-25T13:06:54Z</time></trkpt><trkpt lat="45.739334849731264" lon="12.24904093711066"><ele>35.25</ele><time>2026-04-25T13:06:55Z</time></trkpt><trkpt lat="45.73947037936215" lon="12.249015859949953"><ele>35.5</ele><time>2026-04-25T13:06:56Z</time></trkpt><trkpt lat="45.7396059112113" lon="12.248988535808175"><ele>35.75</ele><time>2026-04-25T13:06:57Z</time></trkpt><trkpt lat="45.73973052468558" lon="12.248966111186192"><ele>36.0</ele><time>2026-04-25T13:06:58Z</time></trkpt><trkpt lat="45.73985093107883" lon="12.248947420420139"><ele>36.0</ele><time>2026-04-25T13:06:59Z</time></trkpt><trkpt lat="45.73997456673403" lon="12.248935977867736"><ele>36.0</ele><time>2026-04-25T13:07:00Z</time></trkpt><trkpt lat="45.74009834260135" lon="12.248926725309822"><ele>36.0</ele><time>2026-04-25T13:07:01Z</time></trkpt><trkpt lat="45.740223330634336" lon="12.248928786275236"><ele>36.0</ele><time>2026-04-25T13:07:02Z</time></trkpt><trkpt lat="45.7403473236929" lon="12.248923688526252"><ele>36.0</ele><time>2026-04-25T13:07:03Z</time></trkpt><trkpt lat="45.7404726499123" lon="12.248923690526597"><ele>36.0</ele><time>2026-04-25T13:07:04Z</time></trkpt><trkpt lat="45.740594317256175" lon="12.24892613747438"><ele>36.0</ele><time>2026-04-25T13:07:05Z</time></trkpt><trkpt lat="45.74072184127326" lon="12.248935376596428"><ele>36.0</ele><time>2026-04-25T13:07:06Z</time></trkpt><trkpt lat="45.740832863802105" lon="12.248938821411873"><ele>36.0</ele><time>2026-04-25T13:07:07Z</time></trkpt><trkpt lat="45.74094802609521" lon="12.248950879617649"><ele>36.0</ele><time>2026-04-25T13:07:08Z</time></trkpt><trkpt lat="45.74106719513991" lon="12.248960530197385"><ele>36.0</ele><time>2026-04-25T13:07:09Z</time></trkpt><trkpt lat="45.74118343511092" lon="12.248979004881948"><ele>36.0</ele><time>2026-04-25T13:07:10Z</time></trkpt><trkpt lat="45.741305159345785" lon="12.248996218609191"><ele>36.25</ele><time>2026-04-25T13:07:11Z</time></trkpt><trkpt lat="45.74142952007323" lon="12.249016523735271"><ele>36.5</ele><time>2026-04-25T13:07:12Z</time></trkpt><trkpt lat="45.74155963370666" lon="12.249035487543308"><ele>36.75</ele><time>2026-04-25T13:07:13Z</time></trkpt><trkpt lat="45.74169233036976" lon="12.249054752430066"><ele>37.0</ele><time>2026-04-25T13:07:14Z</time></trkpt><trkpt lat="45.74182934299881" lon="12.2490762040325"><ele>37.75</ele><time>2026-04-25T13:07:15Z</time></trkpt><trkpt lat="45.74196437176755" lon="12.249097393959545"><ele>38.5</ele><time>2026-04-25T13:07:16Z</time></trkpt><trkpt lat="45.74209307334155" lon="12.249117266710519"><ele>39.25</ele><time>2026-04-25T13:07:17Z</time></trkpt><trkpt lat="45.74221549975318" lon="12.24913151867303"><ele>40.0</ele><time>2026-04-25T13:07:18Z</time></trkpt><trkpt lat="45.742335935978176" lon="12.249151630334236"><ele>40.0</ele><time>2026-04-25T13:07:19Z</time></trkpt><trkpt lat="45.74245719189433" lon="12.249170445352489"><ele>40.0</ele><time>2026-04-25T13:07:20Z</time></trkpt><trkpt lat="45.74257498592072" lon="12.249187868217113"><ele>40.0</ele><time>2026-04-25T13:07:21Z</time></trkpt><trkpt lat="45.74269319601609" lon="12.24920650811495"><ele>40.0</ele><time>2026-04-25T13:07:22Z</time></trkpt><trkpt lat="45.742809921049364" lon="12.24922398947683"><ele>39.5</ele><time>2026-04-25T13:07:23Z</time></trkpt><trkpt lat="45.74292636518534" lon="12.249241614977683"><ele>39.0</ele><time>2026-04-25T13:07:24Z</time></trkpt><trkpt lat="45.74304101442487" lon="12.249258290736114"><ele>38.5</ele><time>2026-04-25T13:07:25Z</time></trkpt><trkpt lat="45.74315572326475" lon="12.249277138289516"><ele>38.0</ele><time>2026-04-25T13:07:26Z</time></trkpt><trkpt lat="45.74326983887321" lon="12.249292423388631"><ele>38.0</ele><time>2026-04-25T13:07:27Z</time></trkpt><trkpt lat="45.743387849739506" lon="12.249309949242813"><ele>38.0</ele><time>2026-04-25T13:07:28Z</time></trkpt><trkpt lat="45.74350395836371" lon="12.249325868639366"><ele>38.0</ele><time>2026-04-25T13:07:29Z</time></trkpt><trkpt lat="45.74361629517834" lon="12.249341864758089"><ele>38.0</ele><time>2026-04-25T13:07:30Z</time></trkpt><trkpt lat="45.74372399565437" lon="12.24935916962885"><ele>38.0</ele><time>2026-04-25T13:07:31Z</time></trkpt><trkpt lat="45.74383147083524" lon="12.249377950799753"><ele>38.0</ele><time>2026-04-25T13:07:32Z</time></trkpt><trkpt lat="45.743936652010454" lon="12.249394379641737"><ele>38.0</ele><time>2026-04-25T13:07:33Z</time></trkpt><trkpt lat="45.744042789379534" lon="12.249411047074027"><ele>38.0</ele><time>2026-04-25T13:07:34Z</time></trkpt><trkpt lat="45.744150468600594" lon="12.249426813452086"><ele>38.0</ele><time>2026-04-25T13:07:35Z</time></trkpt><trkpt lat="45.74426350027649" lon="12.249446104625793"><ele>38.0</ele><time>2026-04-25T13:07:36Z</time></trkpt><trkpt lat="45.74437758838585" lon="12.249462799199522"><ele>38.0</ele><time>2026-04-25T13:07:37Z</time></trkpt><trkpt lat="45.74449439681625" lon="12.249480968494945"><ele>38.0</ele><time>2026-04-25T13:07:38Z</time></trkpt><trkpt lat="45.744612824418084" lon="12.2494981070883"><ele>38.0</ele><time>2026-04-25T13:07:39Z</time></trkpt><trkpt lat="45.74473453485864" lon="12.249516020515456"><ele>38.0</ele><time>2026-04-25T13:07:40Z</time></trkpt><trkpt lat="45.74485561007498" lon="12.24953323078451"><ele>38.0</ele><time>2026-04-25T13:07:41Z</time></trkpt><trkpt lat="45.74497976886559" lon="12.249554203677574"><ele>38.0</ele><time>2026-04-25T13:07:42Z</time></trkpt><trkpt lat="45.7451054804888" lon="12.249573710561103"><ele>38.0</ele><time>2026-04-25T13:07:43Z</time></trkpt><trkpt lat="45.745227174109644" lon="12.249591362331921"><ele>38.0</ele><time>2026-04-25T13:07:44Z</time></trkpt><trkpt lat="45.74534880395713" lon="12.249609253661145"><ele>38.0</ele><time>2026-04-25T13:07:45Z</time></trkpt><trkpt lat="45.74546796086612" lon="12.249628381076787"><ele>38.0</ele><time>2026-04-25T13:07:46Z</time></trkpt><trkpt lat="45.74558741771921" lon="12.249647615746271"><ele>38.0</ele><time>2026-04-25T13:07:47Z</time></trkpt><trkpt lat="45.74570446483142" lon="12.24966679635525"><ele>38.0</ele><time>2026-04-25T13:07:48Z</time></trkpt><trkpt lat="45.74581831994341" lon="12.249682940821097"><ele>38.0</ele><time>2026-04-25T13:07:49Z</time></trkpt><trkpt lat="45.745925670909685" lon="12.249699972835208"><ele>38.0</ele><time>2026-04-25T13:07:50Z</time></trkpt><trkpt lat="45.74603211837497" lon="12.249716050316085"><ele>38.0</ele><time>2026-04-25T13:07:51Z</time></trkpt><trkpt lat="45.74613618364505" lon="12.249736748417593"><ele>38.0</ele><time>2026-04-25T13:07:52Z</time></trkpt><trkpt lat="45.74624013085177" lon="12.249750488677314"><ele>38.0</ele><time>2026-04-25T13:07:53Z</time></trkpt><trkpt lat="45.746341553505566" lon="12.249767774594952"><ele>38.0</ele><time>2026-04-25T13:07:54Z</time></trkpt><trkpt lat="45.746445920506346" lon="12.249783927316141"><ele>38.0</ele><time>2026-04-25T13:07:55Z</time></trkpt><trkpt lat="45.7465505645145" lon="12.249799340719203"><ele>38.0</ele><time>2026-04-25T13:07:56Z</time></trkpt><trkpt lat="45.74665001683359" lon="12.249813467564572"><ele>38.0</ele><time>2026-04-25T13:07:57Z</time></trkpt><trkpt lat="45.74674638744009" lon="12.249829949978853"><ele>38.199999999999996</ele><time>2026-04-25T13:07:58Z</time></trkpt><trkpt lat="45.7468380372106" lon="12.249844973071589"><ele>38.4</ele><time>2026-04-25T13:07:59Z</time></trkpt><trkpt lat="45.746930460931" lon="12.249858769794155"><ele>38.599999999999994</ele><time>2026-04-25T13:08:00Z</time></trkpt><trkpt lat="45.74702454181923" lon="12.249872347283523"><ele>38.8</ele><time>2026-04-25T13:08:01Z</time></trkpt><trkpt lat="45.747120234254666" lon="12.249888933890096"><ele>39.0</ele><time>2026-04-25T13:08:02Z</time></trkpt><trkpt lat="45.74722047138531" lon="12.24990594271322"><ele>39.2</ele><time>2026-04-25T13:08:03Z</time></trkpt><trkpt lat="45.7473233925285" lon="12.249923085285635"><ele>39.4</ele><time>2026-04-25T13:08:04Z</time></trkpt><trkpt lat="45.74743000974952" lon="12.249940006039756"><ele>39.6</ele><time>2026-04-25T13:08:05Z</time></trkpt><trkpt lat="45.747542235512" lon="12.249956728952604"><ele>39.8</ele><time>2026-04-25T13:08:06Z</time></trkpt><trkpt lat="45.74765661848496" lon="12.24997453590839"><ele>40.0</ele><time>2026-04-25T13:08:07Z</time></trkpt><trkpt lat="45.74777202686424" lon="12.24999542367348"><ele>40.0</ele><time>2026-04-25T13:08:08Z</time></trkpt><trkpt lat="45.74789116553149" lon="12.250020456341236"><ele>40.0</ele><time>2026-04-25T13:08:09Z</time></trkpt><trkpt lat="45.74801164162455" lon="12.250043574621722"><ele>40.0</ele><time>2026-04-25T13:08:10Z</time></trkpt><trkpt lat="45.74813449748177" lon="12.250067189330139"><ele>40.0</ele><time>2026-04-25T13:08:11Z</time></trkpt><trkpt lat="45.74825744760217" lon="12.250091497245698"><ele>40.0</ele><time>2026-04-25T13:08:12Z</time></trkpt><trkpt lat="45.74838632903763" lon="12.250108169913904"><ele>40.0</ele><time>2026-04-25T13:08:13Z</time></trkpt><trkpt lat="45.748518403930355" lon="12.25011806866783"><ele>40.0</ele><time>2026-04-25T13:08:14Z</time></trkpt><trkpt lat="45.74865570346669" lon="12.25013312867773"><ele>40.0</ele><time>2026-04-25T13:08:15Z</time></trkpt><trkpt lat="45.74880092514374" lon="12.25015570535384"><ele>40.5</ele><time>2026-04-25T13:08:16Z</time></trkpt><trkpt lat="45.74894672548094" lon="12.25017500841056"><ele>41.0</ele><time>2026-04-25T13:08:17Z</time></trkpt><trkpt lat="45.74909706485577" lon="12.250195108376749"><ele>41.5</ele><time>2026-04-25T13:08:18Z</time></trkpt><trkpt lat="45.749247234850564" lon="12.250213901333018"><ele>42.0</ele><time>2026-04-25T13:08:19Z</time></trkpt><trkpt lat="45.749400688127416" lon="12.250236262765334"><ele>42.0</ele><time>2026-04-25T13:08:20Z</time></trkpt><trkpt lat="45.7495532771995" lon="12.250259223446086"><ele>42.0</ele><time>2026-04-25T13:08:21Z</time></trkpt><trkpt lat="45.749706419621205" lon="12.250281518456692"><ele>42.0</ele><time>2026-04-25T13:08:22Z</time></trkpt><trkpt lat="45.749861843565625" lon="12.250308398331724"><ele>42.0</ele><time>2026-04-25T13:08:23Z</time></trkpt><trkpt lat="45.750009586983786" lon="12.250331638592206"><ele>42.0</ele><time>2026-04-25T13:08:24Z</time></trkpt><trkpt lat="45.750159828437894" lon="12.25035497020547"><ele>42.0</ele><time>2026-04-25T13:08:25Z</time></trkpt><trkpt lat="45.75031391515621" lon="12.250382979978346"><ele>41.333333333333336</ele><time>2026-04-25T13:08:26Z</time></trkpt><trkpt lat="45.75046886292903" lon="12.250411272304845"><ele>40.66666666666667</ele><time>2026-04-25T13:08:27Z</time></trkpt><trkpt lat="45.750623368966195" lon="12.250431312215369"><ele>40.0</ele><time>2026-04-25T13:08:28Z</time></trkpt><trkpt lat="45.75078100115828" lon="12.25045497846306"><ele>40.0</ele><time>2026-04-25T13:08:29Z</time></trkpt><trkpt lat="45.75094102572133" lon="12.250479623757661"><ele>40.0</ele><time>2026-04-25T13:08:30Z</time></trkpt><trkpt lat="45.75110274473135" lon="12.250503457107255"><ele>40.0</ele><time>2026-04-25T13:08:31Z</time></trkpt><trkpt lat="45.751254659339246" lon="12.250526388817141"><ele>40.5</ele><time>2026-04-25T13:08:32Z</time></trkpt><trkpt lat="45.75140000914006" lon="12.250548551394832"><ele>41.0</ele><time>2026-04-25T13:08:33Z</time></trkpt><trkpt lat="45.75153539289846" lon="12.25056808978477"><ele>41.5</ele><time>2026-04-25T13:08:34Z</time></trkpt><trkpt lat="45.751666656075884" lon="12.250588179073915"><ele>42.0</ele><time>2026-04-25T13:08:35Z</time></trkpt><trkpt lat="45.75179146912037" lon="12.250605773469138"><ele>42.0</ele><time>2026-04-25T13:08:36Z</time></trkpt><trkpt lat="45.75190938042821" lon="12.250619505227725"><ele>42.0</ele><time>2026-04-25T13:08:37Z</time></trkpt><trkpt lat="45.75200367477261" lon="12.25065824659753"><ele>42.0</ele><time>2026-04-25T13:08:38Z</time></trkpt><trkpt lat="45.75207735380863" lon="12.25066935243955"><ele>42.0</ele><time>2026-04-25T13:08:39Z</time></trkpt><trkpt lat="45.75214175541393" lon="12.250679280192998"><ele>42.0</ele><time>2026-04-25T13:08:40Z</time></trkpt><trkpt lat="45.75226676302067" lon="12.250701076497371"><ele>42.166666666666664</ele><time>2026-04-25T13:08:42Z</time></trkpt><trkpt lat="45.75233425990086" lon="12.250713233190329"><ele>42.333333333333336</ele><time>2026-04-25T13:08:43Z</time></trkpt><trkpt lat="45.7524176220905" lon="12.250722108138346"><ele>42.5</ele><time>2026-04-25T13:08:44Z</time></trkpt><trkpt lat="45.75250620340275" lon="12.25073581840309"><ele>42.66666666666667</ele><time>2026-04-25T13:08:45Z</time></trkpt><trkpt lat="45.75260100206093" lon="12.250751681288715"><ele>42.833333333333336</ele><time>2026-04-25T13:08:46Z</time></trkpt><trkpt lat="45.75270333415573" lon="12.250767370664734"><ele>43.0</ele><time>2026-04-25T13:08:47Z</time></trkpt><trkpt lat="45.75280813864939" lon="12.25078273438739"><ele>43.25</ele><time>2026-04-25T13:08:48Z</time></trkpt><trkpt lat="45.752920906528814" lon="12.25079820097717"><ele>43.5</ele><time>2026-04-25T13:08:49Z</time></trkpt><trkpt lat="45.75303451408975" lon="12.250813681575503"><ele>43.75</ele><time>2026-04-25T13:08:50Z</time></trkpt><trkpt lat="45.7531544342066" lon="12.250807328618448"><ele>44.0</ele><time>2026-04-25T13:08:51Z</time></trkpt><trkpt lat="45.753269024848095" lon="12.25084733710908"><ele>44.0</ele><time>2026-04-25T13:08:52Z</time></trkpt><trkpt lat="45.75339234879341" lon="12.250843273198074"><ele>44.0</ele><time>2026-04-25T13:08:53Z</time></trkpt><trkpt lat="45.75351113492204" lon="12.250862350316268"><ele>44.0</ele><time>2026-04-25T13:08:54Z</time></trkpt><trkpt lat="45.75363067918984" lon="12.250881516822805"><ele>44.0</ele><time>2026-04-25T13:08:55Z</time></trkpt><trkpt lat="45.753749386218296" lon="12.25090023497748"><ele>43.75</ele><time>2026-04-25T13:08:56Z</time></trkpt><trkpt lat="45.75387055501172" lon="12.250916722522167"><ele>43.5</ele><time>2026-04-25T13:08:57Z</time></trkpt><trkpt lat="45.753991569434376" lon="12.250935730884352"><ele>43.25</ele><time>2026-04-25T13:08:58Z</time></trkpt><trkpt lat="45.75411308803544" lon="12.250954093719093"><ele>43.0</ele><time>2026-04-25T13:08:59Z</time></trkpt><trkpt lat="45.754239297812674" lon="12.250974843795637"><ele>43.0</ele><time>2026-04-25T13:09:00Z</time></trkpt><trkpt lat="45.75436751995175" lon="12.25099656542556"><ele>43.0</ele><time>2026-04-25T13:09:01Z</time></trkpt><trkpt lat="45.75450185797658" lon="12.251019158178053"><ele>43.0</ele><time>2026-04-25T13:09:02Z</time></trkpt><trkpt lat="45.754636737566706" lon="12.251041909812622"><ele>43.0</ele><time>2026-04-25T13:09:03Z</time></trkpt><trkpt lat="45.75477307863955" lon="12.251061997745701"><ele>43.25</ele><time>2026-04-25T13:09:04Z</time></trkpt><trkpt lat="45.75490653042721" lon="12.251082999822223"><ele>43.5</ele><time>2026-04-25T13:09:05Z</time></trkpt><trkpt lat="45.75503837403847" lon="12.251102418377794"><ele>43.75</ele><time>2026-04-25T13:09:06Z</time></trkpt><trkpt lat="45.75517460605052" lon="12.25112125887012"><ele>44.0</ele><time>2026-04-25T13:09:07Z</time></trkpt><trkpt lat="45.75531972095065" lon="12.251142714903548"><ele>45.33333333333333</ele><time>2026-04-25T13:09:08Z</time></trkpt><trkpt lat="45.75546588465809" lon="12.251165074930793"><ele>46.666666666666664</ele><time>2026-04-25T13:09:09Z</time></trkpt><trkpt lat="45.755622858935176" lon="12.251194497791401"><ele>48.0</ele><time>2026-04-25T13:09:10Z</time></trkpt><trkpt lat="45.75577937572341" lon="12.251220833113154"><ele>48.0</ele><time>2026-04-25T13:09:11Z</time></trkpt><trkpt lat="45.755933890036474" lon="12.251244257656575"><ele>48.0</ele><time>2026-04-25T13:09:12Z</time></trkpt><trkpt lat="45.75609039882514" lon="12.251267475386031"><ele>48.0</ele><time>2026-04-25T13:09:13Z</time></trkpt><trkpt lat="45.75624318214319" lon="12.251290218145291"><ele>48.0</ele><time>2026-04-25T13:09:14Z</time></trkpt><trkpt lat="45.756397401132624" lon="12.251313473076086"><ele>48.0</ele><time>2026-04-25T13:09:15Z</time></trkpt><trkpt lat="45.756552839773136" lon="12.251335943772506"><ele>48.0</ele><time>2026-04-25T13:09:16Z</time></trkpt><trkpt lat="45.75670399354932" lon="12.251358981192904"><ele>48.0</ele><time>2026-04-25T13:09:17Z</time></trkpt><trkpt lat="45.756847460317985" lon="12.25138376889916"><ele>48.0</ele><time>2026-04-25T13:09:18Z</time></trkpt><trkpt lat="45.75698276666836" lon="12.251405069198183"><ele>48.0</ele><time>2026-04-25T13:09:19Z</time></trkpt><trkpt lat="45.75711094772643" lon="12.251424449600243"><ele>48.0</ele><time>2026-04-25T13:09:20Z</time></trkpt><trkpt lat="45.75723904762062" lon="12.251441420565468"><ele>47.75</ele><time>2026-04-25T13:09:21Z</time></trkpt><trkpt lat="45.75736723195129" lon="12.251456924934976"><ele>47.5</ele><time>2026-04-25T13:09:22Z</time></trkpt><trkpt lat="45.757483960615666" lon="12.251466826671466"><ele>47.25</ele><time>2026-04-25T13:09:23Z</time></trkpt><trkpt lat="45.757596370920844" lon="12.251474033719518"><ele>47.0</ele><time>2026-04-25T13:09:24Z</time></trkpt><trkpt lat="45.75770369807958" lon="12.251480343383859"><ele>46.75</ele><time>2026-04-25T13:09:25Z</time></trkpt><trkpt lat="45.75781550755436" lon="12.251486743779738"><ele>46.5</ele><time>2026-04-25T13:09:26Z</time></trkpt><trkpt lat="45.75793169578072" lon="12.25148413408847"><ele>46.25</ele><time>2026-04-25T13:09:27Z</time></trkpt><trkpt lat="45.75805626405716" lon="12.251476191954659"><ele>46.0</ele><time>2026-04-25T13:09:28Z</time></trkpt><trkpt lat="45.75818711432796" lon="12.251463891310033"><ele>46.0</ele><time>2026-04-25T13:09:29Z</time></trkpt><trkpt lat="45.75832535533797" lon="12.251453595923614"><ele>46.0</ele><time>2026-04-25T13:09:30Z</time></trkpt><trkpt lat="45.758469328619945" lon="12.251436875413265"><ele>46.0</ele><time>2026-04-25T13:09:31Z</time></trkpt><trkpt lat="45.758617235461955" lon="12.251415336640822"><ele>46.0</ele><time>2026-04-25T13:09:32Z</time></trkpt><trkpt lat="45.75876647233462" lon="12.251395534170129"><ele>46.0</ele><time>2026-04-25T13:09:33Z</time></trkpt><trkpt lat="45.75891897260295" lon="12.251375026958693"><ele>46.0</ele><time>2026-04-25T13:09:34Z</time></trkpt><trkpt lat="45.7590736056009" lon="12.251356235208437"><ele>46.0</ele><time>2026-04-25T13:09:35Z</time></trkpt><trkpt lat="45.759228467549626" lon="12.251339736205965"><ele>46.66666666666667</ele><time>2026-04-25T13:09:36Z</time></trkpt><trkpt lat="45.7593850909968" lon="12.251320378398386"><ele>47.333333333333336</ele><time>2026-04-25T13:09:37Z</time></trkpt><trkpt lat="45.75954284810039" lon="12.251301340470677"><ele>48.0</ele><time>2026-04-25T13:09:38Z</time></trkpt><trkpt lat="45.75970081763917" lon="12.251281288480868"><ele>48.0</ele><time>2026-04-25T13:09:39Z</time></trkpt><trkpt lat="45.75986160640356" lon="12.251262244225847"><ele>48.0</ele><time>2026-04-25T13:09:40Z</time></trkpt><trkpt lat="45.76002295881699" lon="12.251245909772216"><ele>48.0</ele><time>2026-04-25T13:09:41Z</time></trkpt><trkpt lat="45.76018684142878" lon="12.25122881557977"><ele>50.33333333333333</ele><time>2026-04-25T13:09:42Z</time></trkpt><trkpt lat="45.76035081968675" lon="12.251208909005307"><ele>52.666666666666664</ele><time>2026-04-25T13:09:43Z</time></trkpt><trkpt lat="45.760516277395865" lon="12.25119012555343"><ele>55.0</ele><time>2026-04-25T13:09:44Z</time></trkpt><trkpt lat="45.76068158708498" lon="12.251172101853443"><ele>55.0</ele><time>2026-04-25T13:09:45Z</time></trkpt><trkpt lat="45.760847439995295" lon="12.251155763348438"><ele>55.0</ele><time>2026-04-25T13:09:46Z</time></trkpt><trkpt lat="45.76101103973172" lon="12.25114017165185"><ele>55.0</ele><time>2026-04-25T13:09:47Z</time></trkpt><trkpt lat="45.76117622957866" lon="12.251122428088909"><ele>53.33333333333333</ele><time>2026-04-25T13:09:48Z</time></trkpt><trkpt lat="45.761336526356" lon="12.251105308390368"><ele>51.66666666666667</ele><time>2026-04-25T13:09:49Z</time></trkpt><trkpt lat="45.76149748801916" lon="12.251086988992164"><ele>50.0</ele><time>2026-04-25T13:09:50Z</time></trkpt><trkpt lat="45.76165256070592" lon="12.251070112316084"><ele>50.0</ele><time>2026-04-25T13:09:51Z</time></trkpt><trkpt lat="45.76180620850559" lon="12.251055280537903"><ele>50.0</ele><time>2026-04-25T13:09:52Z</time></trkpt><trkpt lat="45.761960642102196" lon="12.25104161773003"><ele>50.0</ele><time>2026-04-25T13:09:53Z</time></trkpt><trkpt lat="45.762116730881885" lon="12.251039091108911"><ele>49.0</ele><time>2026-04-25T13:09:54Z</time></trkpt><trkpt lat="45.76227502084675" lon="12.251036954255817"><ele>48.0</ele><time>2026-04-25T13:09:55Z</time></trkpt><trkpt lat="45.76243188734351" lon="12.251035297148812"><ele>47.0</ele><time>2026-04-25T13:09:56Z</time></trkpt><trkpt lat="45.76259065584841" lon="12.251032714230043"><ele>47.33333333333333</ele><time>2026-04-25T13:09:57Z</time></trkpt><trkpt lat="45.762749025414266" lon="12.25102692774582"><ele>47.666666666666664</ele><time>2026-04-25T13:09:58Z</time></trkpt><trkpt lat="45.76290677020077" lon="12.25101642338723"><ele>48.0</ele><time>2026-04-25T13:09:59Z</time></trkpt><trkpt lat="45.763064887680606" lon="12.251010195972723"><ele>48.0</ele><time>2026-04-25T13:10:00Z</time></trkpt><trkpt lat="45.76322797953285" lon="12.251004453500805"><ele>48.0</ele><time>2026-04-25T13:10:01Z</time></trkpt><trkpt lat="45.76339431080791" lon="12.25100093458421"><ele>48.0</ele><time>2026-04-25T13:10:02Z</time></trkpt><trkpt lat="45.76355946022324" lon="12.250994733139853"><ele>48.33333333333333</ele><time>2026-04-25T13:10:03Z</time></trkpt><trkpt lat="45.763729465296" lon="12.250992709126873"><ele>48.666666666666664</ele><time>2026-04-25T13:10:04Z</time></trkpt><trkpt lat="45.76389582172334" lon="12.250988512077324"><ele>49.0</ele><time>2026-04-25T13:10:05Z</time></trkpt><trkpt lat="45.764060284692405" lon="12.250983743735999"><ele>49.0</ele><time>2026-04-25T13:10:06Z</time></trkpt><trkpt lat="45.76422808921975" lon="12.250979649190079"><ele>49.0</ele><time>2026-04-25T13:10:07Z</time></trkpt><trkpt lat="45.76439447760464" lon="12.250975286556535"><ele>49.0</ele><time>2026-04-25T13:10:08Z</time></trkpt><trkpt lat="45.76456406191118" lon="12.250969568800032"><ele>48.666666666666664</ele><time>2026-04-25T13:10:09Z</time></trkpt><trkpt lat="45.76473834957179" lon="12.250969167290293"><ele>48.33333333333333</ele><time>2026-04-25T13:10:10Z</time></trkpt><trkpt lat="45.764910004680516" lon="12.250964845019952"><ele>48.0</ele><time>2026-04-25T13:10:11Z</time></trkpt><trkpt lat="45.76508455569932" lon="12.250960386185819"><ele>48.0</ele><time>2026-04-25T13:10:12Z</time></trkpt><trkpt lat="45.76525946559955" lon="12.250955307586514"><ele>48.0</ele><time>2026-04-25T13:10:13Z</time></trkpt><trkpt lat="45.765436647457136" lon="12.250952143517717"><ele>48.0</ele><time>2026-04-25T13:10:14Z</time></trkpt><trkpt lat="45.76561634487625" lon="12.250954098766021"><ele>48.0</ele><time>2026-04-25T13:10:15Z</time></trkpt><trkpt lat="45.765797567044245" lon="12.250970668315537"><ele>48.0</ele><time>2026-04-25T13:10:16Z</time></trkpt><trkpt lat="45.76597220572279" lon="12.251002207548593"><ele>48.0</ele><time>2026-04-25T13:10:17Z</time></trkpt><trkpt lat="45.76614260902407" lon="12.251049515742476"><ele>48.0</ele><time>2026-04-25T13:10:18Z</time></trkpt><trkpt lat="45.766309090723844" lon="12.251107629070667"><ele>48.0</ele><time>2026-04-25T13:10:19Z</time></trkpt><trkpt lat="45.76647212397999" lon="12.251169279763532"><ele>48.0</ele><time>2026-04-25T13:10:20Z</time></trkpt><trkpt lat="45.76663347739185" lon="12.251232420410432"><ele>48.0</ele><time>2026-04-25T13:10:21Z</time></trkpt><trkpt lat="45.766796020353944" lon="12.251292489461225"><ele>48.0</ele><time>2026-04-25T13:10:22Z</time></trkpt><trkpt lat="45.76695710437627" lon="12.251351578263984"><ele>48.0</ele><time>2026-04-25T13:10:23Z</time></trkpt><trkpt lat="45.76711728171062" lon="12.25141201735004"><ele>48.66666666666667</ele><time>2026-04-25T13:10:24Z</time></trkpt><trkpt lat="45.76727736976598" lon="12.251473582520118"><ele>49.333333333333336</ele><time>2026-04-25T13:10:25Z</time></trkpt><trkpt lat="45.76743650631944" lon="12.251535005374583"><ele>50.0</ele><time>2026-04-25T13:10:26Z</time></trkpt><trkpt lat="45.76759446659715" lon="12.251595215877707"><ele>50.66666666666667</ele><time>2026-04-25T13:10:27Z</time></trkpt><trkpt lat="45.767748196496555" lon="12.251656099029471"><ele>51.33333333333333</ele><time>2026-04-25T13:10:28Z</time></trkpt><trkpt lat="45.767897696147735" lon="12.251721450155614"><ele>52.0</ele><time>2026-04-25T13:10:29Z</time></trkpt><trkpt lat="45.76803928837216" lon="12.25179276151996"><ele>52.0</ele><time>2026-04-25T13:10:30Z</time></trkpt><trkpt lat="45.768172479044146" lon="12.251865830862574"><ele>52.0</ele><time>2026-04-25T13:10:31Z</time></trkpt><trkpt lat="45.76829359777666" lon="12.251942578028462"><ele>52.0</ele><time>2026-04-25T13:10:32Z</time></trkpt><trkpt lat="45.768411385675385" lon="12.252019512608683"><ele>52.0</ele><time>2026-04-25T13:10:33Z</time></trkpt><trkpt lat="45.76852749993545" lon="12.252098842144452"><ele>51.75</ele><time>2026-04-25T13:10:34Z</time></trkpt><trkpt lat="45.76864014199271" lon="12.25217701780509"><ele>51.5</ele><time>2026-04-25T13:10:35Z</time></trkpt><trkpt lat="45.768751123275614" lon="12.252255764880562"><ele>51.25</ele><time>2026-04-25T13:10:36Z</time></trkpt><trkpt lat="45.76885636580607" lon="12.252328374347405"><ele>51.0</ele><time>2026-04-25T13:10:37Z</time></trkpt><trkpt lat="45.76896130973587" lon="12.252398036883125"><ele>50.599999999999994</ele><time>2026-04-25T13:10:38Z</time></trkpt><trkpt lat="45.769060218992465" lon="12.252465574048706"><ele>50.2</ele><time>2026-04-25T13:10:39Z</time></trkpt><trkpt lat="45.76915733519194" lon="12.252535335168359"><ele>49.8</ele><time>2026-04-25T13:10:40Z</time></trkpt><trkpt lat="45.769257421058626" lon="12.25260442846523"><ele>49.400000000000006</ele><time>2026-04-25T13:10:41Z</time></trkpt><trkpt lat="45.769356404866755" lon="12.252675485314763"><ele>49.0</ele><time>2026-04-25T13:10:42Z</time></trkpt><trkpt lat="45.769447081150446" lon="12.252740784076673"><ele>48.666666666666664</ele><time>2026-04-25T13:10:43Z</time></trkpt><trkpt lat="45.76953265973235" lon="12.252796044055046"><ele>48.33333333333333</ele><time>2026-04-25T13:10:44Z</time></trkpt><trkpt lat="45.76960158206181" lon="12.252843647886136"><ele>48.0</ele><time>2026-04-25T13:10:45Z</time></trkpt><trkpt lat="45.76966051895241" lon="12.252880728797324"><ele>47.666666666666664</ele><time>2026-04-25T13:10:46Z</time></trkpt><trkpt lat="45.769730259652185" lon="12.25292170202545"><ele>47.33333333333333</ele><time>2026-04-25T13:10:48Z</time></trkpt><trkpt lat="45.76980096238046" lon="12.252954992446888"><ele>47.0</ele><time>2026-04-25T13:10:50Z</time></trkpt><trkpt lat="45.76985904310311" lon="12.253042336303793"><ele>47.5</ele><time>2026-04-25T13:10:52Z</time></trkpt><trkpt lat="45.769923487857604" lon="12.25317714293125"><ele>48.0</ele><time>2026-04-25T13:10:54Z</time></trkpt><trkpt lat="45.76995831542911" lon="12.253252915232732"><ele>48.5</ele><time>2026-04-25T13:10:55Z</time></trkpt><trkpt lat="45.770013648449044" lon="12.253312548274153"><ele>49.0</ele><time>2026-04-25T13:10:56Z</time></trkpt><trkpt lat="45.77008979253897" lon="12.253336443405262"><ele>49.50000000000001</ele><time>2026-04-25T13:10:57Z</time></trkpt><trkpt lat="45.77017929823844" lon="12.253334839345607"><ele>50.0</ele><time>2026-04-25T13:10:58Z</time></trkpt><trkpt lat="45.77026799984311" lon="12.253339805964817"><ele>50.25</ele><time>2026-04-25T13:10:59Z</time></trkpt><trkpt lat="45.77036283358428" lon="12.25337927641386"><ele>50.5</ele><time>2026-04-25T13:11:00Z</time></trkpt><trkpt lat="45.770466442378314" lon="12.253439966852655"><ele>50.75</ele><time>2026-04-25T13:11:01Z</time></trkpt><trkpt lat="45.77057295647668" lon="12.253514060786642"><ele>51.0</ele><time>2026-04-25T13:11:02Z</time></trkpt><trkpt lat="45.77069538845512" lon="12.253592534384874"><ele>51.0</ele><time>2026-04-25T13:11:03Z</time></trkpt><trkpt lat="45.770825944977574" lon="12.253678904142763"><ele>51.0</ele><time>2026-04-25T13:11:04Z</time></trkpt><trkpt lat="45.77095785340366" lon="12.253773931564497"><ele>51.0</ele><time>2026-04-25T13:11:05Z</time></trkpt><trkpt lat="45.771091992539425" lon="12.253871336542362"><ele>51.0</ele><time>2026-04-25T13:11:06Z</time></trkpt><trkpt lat="45.77123279420079" lon="12.253965874646283"><ele>51.33333333333333</ele><time>2026-04-25T13:11:07Z</time></trkpt><trkpt lat="45.771392578380045" lon="12.254061869548147"><ele>51.666666666666664</ele><time>2026-04-25T13:11:08Z</time></trkpt><trkpt lat="45.7715564508272" lon="12.254171019524847"><ele>52.0</ele><time>2026-04-25T13:11:09Z</time></trkpt><trkpt lat="45.771726515705026" lon="12.254297820517545"><ele>52.666666666666664</ele><time>2026-04-25T13:11:10Z</time></trkpt><trkpt lat="45.77191087837387" lon="12.254425501417495"><ele>53.33333333333333</ele><time>2026-04-25T13:11:11Z</time></trkpt><trkpt lat="45.772095918718755" lon="12.254562138141148"><ele>54.0</ele><time>2026-04-25T13:11:12Z</time></trkpt><trkpt lat="45.772287465376856" lon="12.254693609595341"><ele>53.66666666666667</ele><time>2026-04-25T13:11:13Z</time></trkpt><trkpt lat="45.77247185443666" lon="12.25480991248888"><ele>53.333333333333336</ele><time>2026-04-25T13:11:14Z</time></trkpt><trkpt lat="45.77265182584377" lon="12.254925882789781"><ele>53.0</ele><time>2026-04-25T13:11:15Z</time></trkpt><trkpt lat="45.77282924240204" lon="12.255041005485245"><ele>53.0</ele><time>2026-04-25T13:11:16Z</time></trkpt><trkpt lat="45.77300329718825" lon="12.255150221465327"><ele>53.0</ele><time>2026-04-25T13:11:17Z</time></trkpt><trkpt lat="45.77316646339973" lon="12.255262192586146"><ele>53.0</ele><time>2026-04-25T13:11:18Z</time></trkpt><trkpt lat="45.77332739583129" lon="12.255373604098354"><ele>53.0</ele><time>2026-04-25T13:11:19Z</time></trkpt><trkpt lat="45.77348268184846" lon="12.255481978992291"><ele>53.0</ele><time>2026-04-25T13:11:20Z</time></trkpt><trkpt lat="45.77363216407896" lon="12.25559146386388"><ele>53.0</ele><time>2026-04-25T13:11:21Z</time></trkpt><trkpt lat="45.77378827573743" lon="12.255706111886166"><ele>52.333333333333336</ele><time>2026-04-25T13:11:22Z</time></trkpt><trkpt lat="45.773939104473826" lon="12.255820588144175"><ele>51.66666666666667</ele><time>2026-04-25T13:11:23Z</time></trkpt><trkpt lat="45.77408881282308" lon="12.255938086969417"><ele>51.0</ele><time>2026-04-25T13:11:24Z</time></trkpt><trkpt lat="45.77424013327423" lon="12.256056884019037"><ele>51.33333333333333</ele><time>2026-04-25T13:11:25Z</time></trkpt><trkpt lat="45.77438721904539" lon="12.256176813578678"><ele>51.666666666666664</ele><time>2026-04-25T13:11:26Z</time></trkpt><trkpt lat="45.77453887143869" lon="12.256293393190656"><ele>52.0</ele><time>2026-04-25T13:11:27Z</time></trkpt><trkpt lat="45.77468780522418" lon="12.256411489882622"><ele>52.33333333333333</ele><time>2026-04-25T13:11:28Z</time></trkpt><trkpt lat="45.77483140260307" lon="12.256532358634455"><ele>52.66666666666667</ele><time>2026-04-25T13:11:29Z</time></trkpt><trkpt lat="45.77497276129632" lon="12.256659679945196"><ele>53.0</ele><time>2026-04-25T13:11:30Z</time></trkpt><trkpt lat="45.77510651076433" lon="12.25679684061771"><ele>53.0</ele><time>2026-04-25T13:11:31Z</time></trkpt><trkpt lat="45.775230702211296" lon="12.256954850178362"><ele>53.0</ele><time>2026-04-25T13:11:32Z</time></trkpt><trkpt lat="45.775335933838484" lon="12.257139812719881"><ele>53.0</ele><time>2026-04-25T13:11:33Z</time></trkpt><trkpt lat="45.7754490612015" lon="12.257305065337363"><ele>53.0</ele><time>2026-04-25T13:11:34Z</time></trkpt><trkpt lat="45.775567817021404" lon="12.257468543059941"><ele>53.0</ele><time>2026-04-25T13:11:35Z</time></trkpt><trkpt lat="45.775691123037305" lon="12.257634631707115"><ele>53.0</ele><time>2026-04-25T13:11:36Z</time></trkpt><trkpt lat="45.77581309553316" lon="12.25779803513311"><ele>53.0</ele><time>2026-04-25T13:11:37Z</time></trkpt><trkpt lat="45.77593615962799" lon="12.257964804111356"><ele>53.0</ele><time>2026-04-25T13:11:38Z</time></trkpt><trkpt lat="45.77606229235541" lon="12.258130688004409"><ele>53.0</ele><time>2026-04-25T13:11:39Z</time></trkpt><trkpt lat="45.77618830065942" lon="12.258294917081368"><ele>53.333333333333336</ele><time>2026-04-25T13:11:40Z</time></trkpt><trkpt lat="45.77631922046087" lon="12.258448521483029"><ele>53.66666666666667</ele><time>2026-04-25T13:11:41Z</time></trkpt><trkpt lat="45.77645584984179" lon="12.258585636712045"><ele>54.0</ele><time>2026-04-25T13:11:42Z</time></trkpt><trkpt lat="45.776593782289204" lon="12.258716642141303"><ele>54.0</ele><time>2026-04-25T13:11:43Z</time></trkpt><trkpt lat="45.77673696666709" lon="12.25884594570234"><ele>54.0</ele><time>2026-04-25T13:11:44Z</time></trkpt><trkpt lat="45.77687792400566" lon="12.258965097592851"><ele>54.0</ele><time>2026-04-25T13:11:45Z</time></trkpt><trkpt lat="45.777024889903466" lon="12.259079811233063"><ele>54.0</ele><time>2026-04-25T13:11:46Z</time></trkpt><trkpt lat="45.777175667496095" lon="12.259185080107537"><ele>54.0</ele><time>2026-04-25T13:11:47Z</time></trkpt><trkpt lat="45.77733470761994" lon="12.25927094412653"><ele>54.0</ele><time>2026-04-25T13:11:48Z</time></trkpt><trkpt lat="45.777497298011205" lon="12.259357242920254"><ele>54.0</ele><time>2026-04-25T13:11:49Z</time></trkpt><trkpt lat="45.777660718047535" lon="12.259437050324898"><ele>54.0</ele><time>2026-04-25T13:11:50Z</time></trkpt><trkpt lat="45.777820452629705" lon="12.2595083244656"><ele>54.0</ele><time>2026-04-25T13:11:51Z</time></trkpt><trkpt lat="45.77797650187891" lon="12.259570829723042"><ele>54.0</ele><time>2026-04-25T13:11:52Z</time></trkpt><trkpt lat="45.7781263923923" lon="12.25962167182096"><ele>54.0</ele><time>2026-04-25T13:11:53Z</time></trkpt><trkpt lat="45.778272165653156" lon="12.259667307692254"><ele>54.0</ele><time>2026-04-25T13:11:54Z</time></trkpt><trkpt lat="45.778409095371174" lon="12.259695305830167"><ele>54.0</ele><time>2026-04-25T13:11:55Z</time></trkpt><trkpt lat="45.77853702194044" lon="12.25972912601724"><ele>54.0</ele><time>2026-04-25T13:11:56Z</time></trkpt><trkpt lat="45.77865940976187" lon="12.25974155507848"><ele>54.0</ele><time>2026-04-25T13:11:57Z</time></trkpt><trkpt lat="45.778780755102325" lon="12.259749579085096"><ele>54.0</ele><time>2026-04-25T13:11:58Z</time></trkpt><trkpt lat="45.77889323116251" lon="12.259751119181121"><ele>54.0</ele><time>2026-04-25T13:11:59Z</time></trkpt><trkpt lat="45.77900198545698" lon="12.259749923730224"><ele>54.0</ele><time>2026-04-25T13:12:00Z</time></trkpt><trkpt lat="45.77910086705069" lon="12.259745207917804"><ele>54.0</ele><time>2026-04-25T13:12:01Z</time></trkpt><trkpt lat="45.77919480116345" lon="12.259732652567722"><ele>54.0</ele><time>2026-04-25T13:12:02Z</time></trkpt><trkpt lat="45.77928409398408" lon="12.25972079186516"><ele>54.0</ele><time>2026-04-25T13:12:03Z</time></trkpt><trkpt lat="45.779365629680825" lon="12.25970345285259"><ele>54.0</ele><time>2026-04-25T13:12:04Z</time></trkpt><trkpt lat="45.779445916262446" lon="12.259686013219492"><ele>54.0</ele><time>2026-04-25T13:12:05Z</time></trkpt><trkpt lat="45.779520480453215" lon="12.259663976460708"><ele>54.333333333333336</ele><time>2026-04-25T13:12:06Z</time></trkpt><trkpt lat="45.77958903118783" lon="12.259667406951303"><ele>54.66666666666667</ele><time>2026-04-25T13:12:07Z</time></trkpt><trkpt lat="45.77965546451504" lon="12.259648911626181"><ele>55.0</ele><time>2026-04-25T13:12:08Z</time></trkpt><trkpt lat="45.77977070717587" lon="12.259589720268705"><ele>55.333333333333336</ele><time>2026-04-25T13:12:10Z</time></trkpt><trkpt lat="45.7798600342355" lon="12.259576811647236"><ele>55.66666666666667</ele><time>2026-04-25T13:12:11Z</time></trkpt><trkpt lat="45.77995078873522" lon="12.259537433324251"><ele>56.0</ele><time>2026-04-25T13:12:12Z</time></trkpt><trkpt lat="45.780053986643054" lon="12.259505573425754"><ele>56.0</ele><time>2026-04-25T13:12:13Z</time></trkpt><trkpt lat="45.780165658356516" lon="12.259477433382436"><ele>56.0</ele><time>2026-04-25T13:12:14Z</time></trkpt><trkpt lat="45.78028983453186" lon="12.259456130715451"><ele>56.0</ele><time>2026-04-25T13:12:15Z</time></trkpt><trkpt lat="45.78041825556414" lon="12.259415323075485"><ele>56.0</ele><time>2026-04-25T13:12:16Z</time></trkpt><trkpt lat="45.78054683406582" lon="12.25937499373358"><ele>56.0</ele><time>2026-04-25T13:12:17Z</time></trkpt><trkpt lat="45.78068589136972" lon="12.259331919945875"><ele>56.0</ele><time>2026-04-25T13:12:18Z</time></trkpt><trkpt lat="45.78082327728577" lon="12.259277409891654"><ele>56.0</ele><time>2026-04-25T13:12:19Z</time></trkpt><trkpt lat="45.780974693446026" lon="12.259235406378538"><ele>56.0</ele><time>2026-04-25T13:12:20Z</time></trkpt><trkpt lat="45.78112233002922" lon="12.259182794921667"><ele>56.5</ele><time>2026-04-25T13:12:21Z</time></trkpt><trkpt lat="45.78126558050856" lon="12.259136060869356"><ele>57.0</ele><time>2026-04-25T13:12:22Z</time></trkpt><trkpt lat="45.7814107654639" lon="12.259085581097658"><ele>57.5</ele><time>2026-04-25T13:12:23Z</time></trkpt><trkpt lat="45.78155670184371" lon="12.259036031589359"><ele>58.0</ele><time>2026-04-25T13:12:24Z</time></trkpt><trkpt lat="45.78170222739871" lon="12.258985603085458"><ele>57.33333333333333</ele><time>2026-04-25T13:12:25Z</time></trkpt><trkpt lat="45.78184658678809" lon="12.258931076155108"><ele>56.66666666666667</ele><time>2026-04-25T13:12:26Z</time></trkpt><trkpt lat="45.7819942109836" lon="12.258888377824606"><ele>56.0</ele><time>2026-04-25T13:12:27Z</time></trkpt><trkpt lat="45.782145208024325" lon="12.25883774158811"><ele>56.0</ele><time>2026-04-25T13:12:28Z</time></trkpt><trkpt lat="45.78229982486126" lon="12.258788756911375"><ele>56.0</ele><time>2026-04-25T13:12:29Z</time></trkpt><trkpt lat="45.78244506727915" lon="12.258735501304901"><ele>56.0</ele><time>2026-04-25T13:12:30Z</time></trkpt><trkpt lat="45.78260647847818" lon="12.258683904057445"><ele>55.66666666666667</ele><time>2026-04-25T13:12:31Z</time></trkpt><trkpt lat="45.78276372741478" lon="12.258628623831713"><ele>55.33333333333333</ele><time>2026-04-25T13:12:32Z</time></trkpt><trkpt lat="45.7829217870335" lon="12.258571764051108"><ele>55.0</ele><time>2026-04-25T13:12:33Z</time></trkpt><trkpt lat="45.783084297249175" lon="12.258515640919708"><ele>55.0</ele><time>2026-04-25T13:12:34Z</time></trkpt><trkpt lat="45.78324716458816" lon="12.25846627433718"><ele>55.0</ele><time>2026-04-25T13:12:35Z</time></trkpt><trkpt lat="45.78341337019664" lon="12.258409790207688"><ele>55.0</ele><time>2026-04-25T13:12:36Z</time></trkpt><trkpt lat="45.7835791365037" lon="12.258360100263632"><ele>55.0</ele><time>2026-04-25T13:12:37Z</time></trkpt><trkpt lat="45.783747281416865" lon="12.258302339590424"><ele>55.0</ele><time>2026-04-25T13:12:38Z</time></trkpt><trkpt lat="45.78391644249655" lon="12.258247035771083"><ele>55.0</ele><time>2026-04-25T13:12:39Z</time></trkpt><trkpt lat="45.78408511607028" lon="12.258191383151601"><ele>55.0</ele><time>2026-04-25T13:12:40Z</time></trkpt><trkpt lat="45.78425228060469" lon="12.25813690031745"><ele>55.0</ele><time>2026-04-25T13:12:41Z</time></trkpt><trkpt lat="45.78442043632894" lon="12.25808009408691"><ele>55.0</ele><time>2026-04-25T13:12:42Z</time></trkpt><trkpt lat="45.78458766160302" lon="12.258022202393706"><ele>55.666666666666664</ele><time>2026-04-25T13:12:43Z</time></trkpt><trkpt lat="45.78475486661768" lon="12.257967728383763"><ele>56.33333333333333</ele><time>2026-04-25T13:12:44Z</time></trkpt><trkpt lat="45.7849219781628" lon="12.257915271294486"><ele>57.0</ele><time>2026-04-25T13:12:45Z</time></trkpt><trkpt lat="45.78508990569333" lon="12.257860209520693"><ele>57.0</ele><time>2026-04-25T13:12:46Z</time></trkpt><trkpt lat="45.78525849472316" lon="12.257800861031518"><ele>57.0</ele><time>2026-04-25T13:12:47Z</time></trkpt><trkpt lat="45.78543060640617" lon="12.257746763011541"><ele>57.0</ele><time>2026-04-25T13:12:48Z</time></trkpt><trkpt lat="45.78559464186632" lon="12.257691668821522"><ele>57.0</ele><time>2026-04-25T13:12:49Z</time></trkpt><trkpt lat="45.785771010241994" lon="12.257636267251064"><ele>57.0</ele><time>2026-04-25T13:12:50Z</time></trkpt><trkpt lat="45.7859416348371" lon="12.257576399658708"><ele>57.0</ele><time>2026-04-25T13:12:51Z</time></trkpt><trkpt lat="45.78611195589383" lon="12.25751612417167"><ele>57.0</ele><time>2026-04-25T13:12:52Z</time></trkpt><trkpt lat="45.78628548523514" lon="12.257456157672035"><ele>57.0</ele><time>2026-04-25T13:12:53Z</time></trkpt><trkpt lat="45.78645685252488" lon="12.257401541695998"><ele>57.0</ele><time>2026-04-25T13:12:54Z</time></trkpt><trkpt lat="45.786635354344625" lon="12.257343956797946"><ele>57.0</ele><time>2026-04-25T13:12:55Z</time></trkpt><trkpt lat="45.78681335882703" lon="12.257288379936705"><ele>57.0</ele><time>2026-04-25T13:12:56Z</time></trkpt><trkpt lat="45.786988992602566" lon="12.257235119365967"><ele>57.0</ele><time>2026-04-25T13:12:57Z</time></trkpt><trkpt lat="45.78716641121512" lon="12.25718017602151"><ele>57.0</ele><time>2026-04-25T13:12:58Z</time></trkpt><trkpt lat="45.78734557885088" lon="12.257121342717614"><ele>57.0</ele><time>2026-04-25T13:12:59Z</time></trkpt><trkpt lat="45.78752410312008" lon="12.257064318486327"><ele>57.0</ele><time>2026-04-25T13:13:00Z</time></trkpt><trkpt lat="45.78769950248231" lon="12.257004646588905"><ele>56.66666666666667</ele><time>2026-04-25T13:13:01Z</time></trkpt><trkpt lat="45.78787899767186" lon="12.256949811711396"><ele>56.333333333333336</ele><time>2026-04-25T13:13:02Z</time></trkpt><trkpt lat="45.78805455231062" lon="12.256892070590094"><ele>56.0</ele><time>2026-04-25T13:13:03Z</time></trkpt><trkpt lat="45.78822688541546" lon="12.256832310711582"><ele>56.0</ele><time>2026-04-25T13:13:04Z</time></trkpt><trkpt lat="45.78840262837468" lon="12.256773475864088"><ele>56.0</ele><time>2026-04-25T13:13:05Z</time></trkpt><trkpt lat="45.78857553330527" lon="12.256713438240649"><ele>56.0</ele><time>2026-04-25T13:13:06Z</time></trkpt><trkpt lat="45.788748535883514" lon="12.256656248132215"><ele>56.0</ele><time>2026-04-25T13:13:07Z</time></trkpt><trkpt lat="45.7889242500037" lon="12.256598260667115"><ele>56.0</ele><time>2026-04-25T13:13:08Z</time></trkpt><trkpt lat="45.78909892042679" lon="12.256538738013601"><ele>56.0</ele><time>2026-04-25T13:13:09Z</time></trkpt><trkpt lat="45.78927455334386" lon="12.25648235328603"><ele>55.66666666666667</ele><time>2026-04-25T13:13:10Z</time></trkpt><trkpt lat="45.78945226109515" lon="12.256423041706594"><ele>55.33333333333333</ele><time>2026-04-25T13:13:11Z</time></trkpt><trkpt lat="45.78962817759957" lon="12.25636739862259"><ele>55.0</ele><time>2026-04-25T13:13:12Z</time></trkpt><trkpt lat="45.7898031660083" lon="12.256308289808297"><ele>55.0</ele><time>2026-04-25T13:13:13Z</time></trkpt><trkpt lat="45.7899858568137" lon="12.256251830946258"><ele>55.0</ele><time>2026-04-25T13:13:14Z</time></trkpt><trkpt lat="45.790165149563485" lon="12.256189580271915"><ele>55.0</ele><time>2026-04-25T13:13:15Z</time></trkpt><trkpt lat="45.79034602261758" lon="12.256128273075715"><ele>56.33333333333333</ele><time>2026-04-25T13:13:16Z</time></trkpt><trkpt lat="45.790530696671226" lon="12.256069417049735"><ele>57.66666666666667</ele><time>2026-04-25T13:13:17Z</time></trkpt><trkpt lat="45.79071544303941" lon="12.256008631463052"><ele>59.0</ele><time>2026-04-25T13:13:18Z</time></trkpt><trkpt lat="45.790907275332366" lon="12.255948314815821"><ele>58.333333333333336</ele><time>2026-04-25T13:13:19Z</time></trkpt><trkpt lat="45.791100308332624" lon="12.255885310776891"><ele>57.66666666666667</ele><time>2026-04-25T13:13:20Z</time></trkpt><trkpt lat="45.79129626241706" lon="12.255819704698999"><ele>57.0</ele><time>2026-04-25T13:13:21Z</time></trkpt><trkpt lat="45.791495911349585" lon="12.255755809302519"><ele>57.0</ele><time>2026-04-25T13:13:22Z</time></trkpt><trkpt lat="45.79169422424887" lon="12.255682616724362"><ele>57.0</ele><time>2026-04-25T13:13:23Z</time></trkpt><trkpt lat="45.79190293271002" lon="12.255614583186434"><ele>57.0</ele><time>2026-04-25T13:13:24Z</time></trkpt><trkpt lat="45.79211434205275" lon="12.255548468035693"><ele>57.0</ele><time>2026-04-25T13:13:25Z</time></trkpt><trkpt lat="45.79232309167241" lon="12.255478821459363"><ele>57.0</ele><time>2026-04-25T13:13:26Z</time></trkpt><trkpt lat="45.79253454017749" lon="12.255411784542416"><ele>57.0</ele><time>2026-04-25T13:13:27Z</time></trkpt><trkpt lat="45.7927496475608" lon="12.255340223454196"><ele>57.0</ele><time>2026-04-25T13:13:28Z</time></trkpt><trkpt lat="45.792964134215325" lon="12.255270857952533"><ele>57.0</ele><time>2026-04-25T13:13:29Z</time></trkpt><trkpt lat="45.79318284331011" lon="12.255197788685487"><ele>57.0</ele><time>2026-04-25T13:13:30Z</time></trkpt><trkpt lat="45.79340086798888" lon="12.255126505773177"><ele>57.0</ele><time>2026-04-25T13:13:31Z</time></trkpt><trkpt lat="45.793620677812044" lon="12.255056852324849"><ele>57.0</ele><time>2026-04-25T13:13:32Z</time></trkpt><trkpt lat="45.79383943515758" lon="12.254986216643076"><ele>57.0</ele><time>2026-04-25T13:13:33Z</time></trkpt><trkpt lat="45.79405617768547" lon="12.254916302042384"><ele>57.0</ele><time>2026-04-25T13:13:34Z</time></trkpt><trkpt lat="45.79427128227729" lon="12.254846134535416"><ele>57.0</ele><time>2026-04-25T13:13:35Z</time></trkpt><trkpt lat="45.794489034161174" lon="12.254773047440507"><ele>57.0</ele><time>2026-04-25T13:13:36Z</time></trkpt><trkpt lat="45.79470338087905" lon="12.25470515192863"><ele>57.33333333333333</ele><time>2026-04-25T13:13:37Z</time></trkpt><trkpt lat="45.794920828959555" lon="12.254636891817183"><ele>57.666666666666664</ele><time>2026-04-25T13:13:38Z</time></trkpt><trkpt lat="45.79513644108673" lon="12.254568481600922"><ele>58.0</ele><time>2026-04-25T13:13:39Z</time></trkpt><trkpt lat="45.79534962119499" lon="12.25449841153085"><ele>58.0</ele><time>2026-04-25T13:13:40Z</time></trkpt><trkpt lat="45.795563927615795" lon="12.254426780802362"><ele>58.0</ele><time>2026-04-25T13:13:41Z</time></trkpt><trkpt lat="45.795777431392295" lon="12.254354221584085"><ele>58.0</ele><time>2026-04-25T13:13:42Z</time></trkpt><trkpt lat="45.79599386810417" lon="12.254283333735469"><ele>57.666666666666664</ele><time>2026-04-25T13:13:43Z</time></trkpt><trkpt lat="45.79620899081149" lon="12.25421261688335"><ele>57.33333333333333</ele><time>2026-04-25T13:13:44Z</time></trkpt><trkpt lat="45.79642681336295" lon="12.25414124095189"><ele>57.0</ele><time>2026-04-25T13:13:45Z</time></trkpt><trkpt lat="45.796645823824285" lon="12.25406801527621"><ele>57.0</ele><time>2026-04-25T13:13:46Z</time></trkpt><trkpt lat="45.79686791574051" lon="12.253997865264997"><ele>57.0</ele><time>2026-04-25T13:13:47Z</time></trkpt><trkpt lat="45.797083098009615" lon="12.253923908025744"><ele>57.0</ele><time>2026-04-25T13:13:48Z</time></trkpt><trkpt lat="45.79729818378279" lon="12.253851182391672"><ele>56.66666666666667</ele><time>2026-04-25T13:13:49Z</time></trkpt><trkpt lat="45.797514195079856" lon="12.253779304538394"><ele>56.333333333333336</ele><time>2026-04-25T13:13:50Z</time></trkpt><trkpt lat="45.797733097383215" lon="12.25371155514314"><ele>56.0</ele><time>2026-04-25T13:13:51Z</time></trkpt><trkpt lat="45.79794639790568" lon="12.253640614805297"><ele>57.0</ele><time>2026-04-25T13:13:52Z</time></trkpt><trkpt lat="45.79816166927457" lon="12.253567533866903"><ele>58.0</ele><time>2026-04-25T13:13:53Z</time></trkpt><trkpt lat="45.79837786475601" lon="12.25349479812664"><ele>59.0</ele><time>2026-04-25T13:13:54Z</time></trkpt><trkpt lat="45.798596114320354" lon="12.253421659152414"><ele>59.333333333333336</ele><time>2026-04-25T13:13:55Z</time></trkpt><trkpt lat="45.79881494717522" lon="12.253350409455525"><ele>59.66666666666667</ele><time>2026-04-25T13:13:56Z</time></trkpt><trkpt lat="45.79903428251575" lon="12.253279002222351"><ele>60.0</ele><time>2026-04-25T13:13:57Z</time></trkpt><trkpt lat="45.799258332504024" lon="12.253204995274277"><ele>60.0</ele><time>2026-04-25T13:13:58Z</time></trkpt><trkpt lat="45.7994821444947" lon="12.253132181270315"><ele>60.0</ele><time>2026-04-25T13:13:59Z</time></trkpt><trkpt lat="45.79970490817681" lon="12.25305881300113"><ele>60.0</ele><time>2026-04-25T13:14:00Z</time></trkpt><trkpt lat="45.79992475707969" lon="12.25298821995417"><ele>60.0</ele><time>2026-04-25T13:14:01Z</time></trkpt><trkpt lat="45.80014863417614" lon="12.252916123897185"><ele>60.33333333333333</ele><time>2026-04-25T13:14:02Z</time></trkpt><trkpt lat="45.80036747454286" lon="12.252843362420029"><ele>60.666666666666664</ele><time>2026-04-25T13:14:03Z</time></trkpt><trkpt lat="45.80058523059843" lon="12.252770822226049"><ele>61.0</ele><time>2026-04-25T13:14:04Z</time></trkpt><trkpt lat="45.800800802619634" lon="12.25269816332011"><ele>61.33333333333333</ele><time>2026-04-25T13:14:05Z</time></trkpt><trkpt lat="45.80101512346806" lon="12.252628492111949"><ele>61.66666666666667</ele><time>2026-04-25T13:14:06Z</time></trkpt><trkpt lat="45.80122730281262" lon="12.252557446958598"><ele>62.0</ele><time>2026-04-25T13:14:07Z</time></trkpt><trkpt lat="45.80143816123326" lon="12.252486774407782"><ele>62.0</ele><time>2026-04-25T13:14:08Z</time></trkpt><trkpt lat="45.801648088666525" lon="12.252416110058759"><ele>62.0</ele><time>2026-04-25T13:14:09Z</time></trkpt><trkpt lat="45.80186168518068" lon="12.252348754083123"><ele>62.0</ele><time>2026-04-25T13:14:10Z</time></trkpt><trkpt lat="45.80207358848684" lon="12.25228544737395"><ele>62.0</ele><time>2026-04-25T13:14:11Z</time></trkpt><trkpt lat="45.80228093712239" lon="12.252221283041"><ele>62.0</ele><time>2026-04-25T13:14:12Z</time></trkpt><trkpt lat="45.802489641794985" lon="12.252154949798298"><ele>62.0</ele><time>2026-04-25T13:14:13Z</time></trkpt><trkpt lat="45.802701755182525" lon="12.252089148800238"><ele>62.0</ele><time>2026-04-25T13:14:14Z</time></trkpt><trkpt lat="45.80291059300464" lon="12.252019472525136"><ele>62.0</ele><time>2026-04-25T13:14:15Z</time></trkpt><trkpt lat="45.803116778416836" lon="12.251951457460327"><ele>62.0</ele><time>2026-04-25T13:14:16Z</time></trkpt><trkpt lat="45.80332451981949" lon="12.251884630195589"><ele>62.66666666666667</ele><time>2026-04-25T13:14:17Z</time></trkpt><trkpt lat="45.803529524300906" lon="12.25181734258437"><ele>63.33333333333333</ele><time>2026-04-25T13:14:18Z</time></trkpt><trkpt lat="45.80373630661773" lon="12.251747166921252"><ele>64.0</ele><time>2026-04-25T13:14:19Z</time></trkpt><trkpt lat="45.80394310874055" lon="12.251676168320213"><ele>64.0</ele><time>2026-04-25T13:14:20Z</time></trkpt><trkpt lat="45.80414999085925" lon="12.251607141082667"><ele>64.0</ele><time>2026-04-25T13:14:21Z</time></trkpt><trkpt lat="45.80435316661378" lon="12.25153902706067"><ele>64.0</ele><time>2026-04-25T13:14:22Z</time></trkpt><trkpt lat="45.804559562330546" lon="12.251471946039853"><ele>64.33333333333333</ele><time>2026-04-25T13:14:23Z</time></trkpt><trkpt lat="45.8047661740616" lon="12.251404538559388"><ele>64.66666666666667</ele><time>2026-04-25T13:14:24Z</time></trkpt><trkpt lat="45.804973732131934" lon="12.251341966766253"><ele>65.0</ele><time>2026-04-25T13:14:25Z</time></trkpt><trkpt lat="45.805186316667445" lon="12.251277543834703"><ele>64.33333333333334</ele><time>2026-04-25T13:14:26Z</time></trkpt><trkpt lat="45.805397874432735" lon="12.251205211228259"><ele>63.66666666666667</ele><time>2026-04-25T13:14:27Z</time></trkpt><trkpt lat="45.80560610056916" lon="12.251132548254695"><ele>63.0</ele><time>2026-04-25T13:14:28Z</time></trkpt><trkpt lat="45.80581544695566" lon="12.251060020323076"><ele>63.33333333333333</ele><time>2026-04-25T13:14:29Z</time></trkpt><trkpt lat="45.80602506035969" lon="12.250991621909186"><ele>63.666666666666664</ele><time>2026-04-25T13:14:30Z</time></trkpt><trkpt lat="45.80623617175969" lon="12.250916515632342"><ele>64.0</ele><time>2026-04-25T13:14:31Z</time></trkpt><trkpt lat="45.80644636933827" lon="12.250848885402126"><ele>64.0</ele><time>2026-04-25T13:14:32Z</time></trkpt><trkpt lat="45.80665671459381" lon="12.25077961119834"><ele>64.0</ele><time>2026-04-25T13:14:33Z</time></trkpt><trkpt lat="45.80686983457752" lon="12.250714373296459"><ele>64.0</ele><time>2026-04-25T13:14:34Z</time></trkpt><trkpt lat="45.80708108253328" lon="12.25064753318733"><ele>64.0</ele><time>2026-04-25T13:14:35Z</time></trkpt><trkpt lat="45.80729591522502" lon="12.250580366999682"><ele>64.0</ele><time>2026-04-25T13:14:36Z</time></trkpt><trkpt lat="45.80751521794695" lon="12.250510923104986"><ele>64.0</ele><time>2026-04-25T13:14:37Z</time></trkpt><trkpt lat="45.80773735100639" lon="12.250437857763659"><ele>63.5</ele><time>2026-04-25T13:14:38Z</time></trkpt><trkpt lat="45.80796364282897" lon="12.250353708163738"><ele>63.0</ele><time>2026-04-25T13:14:39Z</time></trkpt><trkpt lat="45.808196862510606" lon="12.250279796854217"><ele>63.0</ele><time>2026-04-25T13:14:40Z</time></trkpt><trkpt lat="45.808423495419916" lon="12.250206306463761"><ele>63.0</ele><time>2026-04-25T13:14:41Z</time></trkpt><trkpt lat="45.80865054907919" lon="12.25013204906038"><ele>64.0</ele><time>2026-04-25T13:14:42Z</time></trkpt><trkpt lat="45.808879338287994" lon="12.250055937235494"><ele>65.0</ele><time>2026-04-25T13:14:43Z</time></trkpt><trkpt lat="45.80909986905816" lon="12.249984906360837"><ele>65.0</ele><time>2026-04-25T13:14:44Z</time></trkpt><trkpt lat="45.809319226180094" lon="12.249917288737604"><ele>65.0</ele><time>2026-04-25T13:14:45Z</time></trkpt><trkpt lat="45.80953220005587" lon="12.249850410327571"><ele>65.0</ele><time>2026-04-25T13:14:46Z</time></trkpt><trkpt lat="45.8097392206188" lon="12.249786137231753"><ele>65.0</ele><time>2026-04-25T13:14:47Z</time></trkpt><trkpt lat="45.80994251245877" lon="12.249724065824081"><ele>65.0</ele><time>2026-04-25T13:14:48Z</time></trkpt><trkpt lat="45.81014174715451" lon="12.2496613467825"><ele>65.0</ele><time>2026-04-25T13:14:49Z</time></trkpt><trkpt lat="45.81033820214877" lon="12.24960028427918"><ele>66.0</ele><time>2026-04-25T13:14:50Z</time></trkpt><trkpt lat="45.81053550715912" lon="12.249539054818495"><ele>67.0</ele><time>2026-04-25T13:14:51Z</time></trkpt><trkpt lat="45.810733624726396" lon="12.24947694591707"><ele>68.0</ele><time>2026-04-25T13:14:52Z</time></trkpt><trkpt lat="45.81092149865775" lon="12.24940718449045"><ele>67.66666666666667</ele><time>2026-04-25T13:14:53Z</time></trkpt><trkpt lat="45.81111562082818" lon="12.249339420611868"><ele>67.33333333333333</ele><time>2026-04-25T13:14:54Z</time></trkpt><trkpt lat="45.8113066702606" lon="12.249271050750504"><ele>67.0</ele><time>2026-04-25T13:14:55Z</time></trkpt><trkpt lat="45.81148851523776" lon="12.249197027348814"><ele>67.0</ele><time>2026-04-25T13:14:56Z</time></trkpt><trkpt lat="45.81168623479699" lon="12.249155468333614"><ele>67.0</ele><time>2026-04-25T13:14:57Z</time></trkpt><trkpt lat="45.81185983668034" lon="12.249101277188299"><ele>67.0</ele><time>2026-04-25T13:14:58Z</time></trkpt><trkpt lat="45.812032920410545" lon="12.249042744204294"><ele>67.0</ele><time>2026-04-25T13:14:59Z</time></trkpt><trkpt lat="45.812214628115065" lon="12.248986653650096"><ele>67.0</ele><time>2026-04-25T13:15:00Z</time></trkpt><trkpt lat="45.81238854919766" lon="12.248920563793314"><ele>67.0</ele><time>2026-04-25T13:15:01Z</time></trkpt><trkpt lat="45.81256975041065" lon="12.248859784293325"><ele>66.66666666666666</ele><time>2026-04-25T13:15:02Z</time></trkpt><trkpt lat="45.812747849995944" lon="12.248797330901699"><ele>66.33333333333333</ele><time>2026-04-25T13:15:03Z</time></trkpt><trkpt lat="45.812929584828424" lon="12.248730684150315"><ele>66.0</ele><time>2026-04-25T13:15:04Z</time></trkpt><trkpt lat="45.81311305350462" lon="12.248666977061058"><ele>66.0</ele><time>2026-04-25T13:15:05Z</time></trkpt><trkpt lat="45.813294572467" lon="12.2486071516078"><ele>66.0</ele><time>2026-04-25T13:15:06Z</time></trkpt><trkpt lat="45.813459875243105" lon="12.248546940825303"><ele>66.0</ele><time>2026-04-25T13:15:07Z</time></trkpt><trkpt lat="45.81361635213747" lon="12.248499819476406"><ele>66.33333333333333</ele><time>2026-04-25T13:15:08Z</time></trkpt><trkpt lat="45.813775101145936" lon="12.248442397057211"><ele>66.66666666666666</ele><time>2026-04-25T13:15:09Z</time></trkpt><trkpt lat="45.81392608737522" lon="12.248389218743236"><ele>67.0</ele><time>2026-04-25T13:15:10Z</time></trkpt><trkpt lat="45.814069096994125" lon="12.248337800712537"><ele>67.0</ele><time>2026-04-25T13:15:11Z</time></trkpt><trkpt lat="45.81420697396945" lon="12.248295613136388"><ele>67.0</ele><time>2026-04-25T13:15:12Z</time></trkpt><trkpt lat="45.814324582186885" lon="12.248263724046447"><ele>67.0</ele><time>2026-04-25T13:15:13Z</time></trkpt><trkpt lat="45.81444594598869" lon="12.2482314698726"><ele>67.0</ele><time>2026-04-25T13:15:14Z</time></trkpt><trkpt lat="45.814563667199316" lon="12.248214847496866"><ele>67.75</ele><time>2026-04-25T13:15:15Z</time></trkpt><trkpt lat="45.81467931646768" lon="12.24820838610065"><ele>68.5</ele><time>2026-04-25T13:15:16Z</time></trkpt><trkpt lat="45.81480209750567" lon="12.248274446813925"><ele>69.25</ele><time>2026-04-25T13:15:17Z</time></trkpt><trkpt lat="45.81493152257575" lon="12.248347197915212"><ele>70.0</ele><time>2026-04-25T13:15:18Z</time></trkpt><trkpt lat="45.8150661308686" lon="12.248483461568238"><ele>67.66666666666666</ele><time>2026-04-25T13:15:19Z</time></trkpt><trkpt lat="45.81519500235565" lon="12.248624205992888"><ele>65.33333333333333</ele><time>2026-04-25T13:15:20Z</time></trkpt><trkpt lat="45.81533859825023" lon="12.248765444734941"><ele>63.0</ele><time>2026-04-25T13:15:21Z</time></trkpt><trkpt lat="45.815501662126806" lon="12.248909624287982"><ele>62.33333333333333</ele><time>2026-04-25T13:15:22Z</time></trkpt><trkpt lat="45.8156716681878" lon="12.24905445188198"><ele>61.666666666666664</ele><time>2026-04-25T13:15:23Z</time></trkpt><trkpt lat="45.81584139674022" lon="12.249212717916672"><ele>61.0</ele><time>2026-04-25T13:15:24Z</time></trkpt><trkpt lat="45.81601865625237" lon="12.249376041089283"><ele>61.0</ele><time>2026-04-25T13:15:25Z</time></trkpt><trkpt lat="45.81619766101733" lon="12.249538769855137"><ele>61.0</ele><time>2026-04-25T13:15:26Z</time></trkpt><trkpt lat="45.81637428062593" lon="12.24969956337374"><ele>61.0</ele><time>2026-04-25T13:15:27Z</time></trkpt><trkpt lat="45.81654899698506" lon="12.249859525447027"><ele>61.0</ele><time>2026-04-25T13:15:28Z</time></trkpt><trkpt lat="45.8167196643997" lon="12.250016486902643"><ele>61.0</ele><time>2026-04-25T13:15:29Z</time></trkpt><trkpt lat="45.816891316921854" lon="12.250170179852127"><ele>61.0</ele><time>2026-04-25T13:15:30Z</time></trkpt><trkpt lat="45.817056091875514" lon="12.250322928387387"><ele>61.666666666666664</ele><time>2026-04-25T13:15:31Z</time></trkpt><trkpt lat="45.817218466930676" lon="12.25046845290547"><ele>62.33333333333333</ele><time>2026-04-25T13:15:32Z</time></trkpt><trkpt lat="45.81737867558388" lon="12.250612728521139"><ele>63.0</ele><time>2026-04-25T13:15:33Z</time></trkpt><trkpt lat="45.81753456241475" lon="12.250756608669109"><ele>63.66666666666667</ele><time>2026-04-25T13:15:34Z</time></trkpt><trkpt lat="45.817690917315204" lon="12.250900636774901"><ele>64.33333333333334</ele><time>2026-04-25T13:15:35Z</time></trkpt><trkpt lat="45.817841394034836" lon="12.25103974177483"><ele>65.0</ele><time>2026-04-25T13:15:36Z</time></trkpt><trkpt lat="45.81798979652564" lon="12.251178668186343"><ele>65.0</ele><time>2026-04-25T13:15:37Z</time></trkpt><trkpt lat="45.818134776563134" lon="12.25131255173508"><ele>65.0</ele><time>2026-04-25T13:15:38Z</time></trkpt><trkpt lat="45.81827605290428" lon="12.251448773392502"><ele>65.0</ele><time>2026-04-25T13:15:39Z</time></trkpt><trkpt lat="45.818419033790875" lon="12.251585857564303"><ele>65.66666666666667</ele><time>2026-04-25T13:15:40Z</time></trkpt><trkpt lat="45.8185595505997" lon="12.251715709530052"><ele>66.33333333333333</ele><time>2026-04-25T13:15:41Z</time></trkpt><trkpt lat="45.818700062186586" lon="12.251843967010162"><ele>67.0</ele><time>2026-04-25T13:15:42Z</time></trkpt><trkpt lat="45.81884284580558" lon="12.251975933025475"><ele>67.0</ele><time>2026-04-25T13:15:43Z</time></trkpt><trkpt lat="45.81898957542919" lon="12.25210724730269"><ele>67.0</ele><time>2026-04-25T13:15:44Z</time></trkpt><trkpt lat="45.81912979928433" lon="12.252236489388757"><ele>67.0</ele><time>2026-04-25T13:15:45Z</time></trkpt><trkpt lat="45.81925817222603" lon="12.252358964572196"><ele>67.0</ele><time>2026-04-25T13:15:46Z</time></trkpt><trkpt lat="45.81939490296638" lon="12.252482183298284"><ele>67.0</ele><time>2026-04-25T13:15:47Z</time></trkpt><trkpt lat="45.81951707764759" lon="12.252591629696711"><ele>67.0</ele><time>2026-04-25T13:15:48Z</time></trkpt><trkpt lat="45.819640274373725" lon="12.252697313431785"><ele>67.0</ele><time>2026-04-25T13:15:49Z</time></trkpt><trkpt lat="45.81975687849264" lon="12.252803439341683"><ele>67.0</ele><time>2026-04-25T13:15:50Z</time></trkpt><trkpt lat="45.819870939372294" lon="12.252886816480164"><ele>67.0</ele><time>2026-04-25T13:15:51Z</time></trkpt><trkpt lat="45.819991961726934" lon="12.252968610454895"><ele>67.0</ele><time>2026-04-25T13:15:52Z</time></trkpt><trkpt lat="45.82011481449405" lon="12.253046413040613"><ele>67.0</ele><time>2026-04-25T13:15:53Z</time></trkpt><trkpt lat="45.82023492960782" lon="12.253124515685272"><ele>67.0</ele><time>2026-04-25T13:15:54Z</time></trkpt><trkpt lat="45.82035534065342" lon="12.253190287689424"><ele>67.0</ele><time>2026-04-25T13:15:55Z</time></trkpt><trkpt lat="45.82047426849936" lon="12.253245635952347"><ele>67.0</ele><time>2026-04-25T13:15:56Z</time></trkpt><trkpt lat="45.82058393110419" lon="12.25329710375021"><ele>67.0</ele><time>2026-04-25T13:15:57Z</time></trkpt><trkpt lat="45.82069132800437" lon="12.2533522285551"><ele>67.0</ele><time>2026-04-25T13:15:58Z</time></trkpt><trkpt lat="45.820800432586076" lon="12.253406931820733"><ele>67.0</ele><time>2026-04-25T13:15:59Z</time></trkpt><trkpt lat="45.8209149750569" lon="12.253455551846056"><ele>67.0</ele><time>2026-04-25T13:16:00Z</time></trkpt><trkpt lat="45.82103778924892" lon="12.253502092656424"><ele>67.0</ele><time>2026-04-25T13:16:01Z</time></trkpt><trkpt lat="45.821166953133535" lon="12.253556751043464"><ele>67.0</ele><time>2026-04-25T13:16:02Z</time></trkpt><trkpt lat="45.82129878413725" lon="12.25360911305675"><ele>67.0</ele><time>2026-04-25T13:16:03Z</time></trkpt><trkpt lat="45.821443695316724" lon="12.25365351004037"><ele>67.0</ele><time>2026-04-25T13:16:04Z</time></trkpt><trkpt lat="45.821584456710376" lon="12.253706825102123"><ele>67.0</ele><time>2026-04-25T13:16:05Z</time></trkpt><trkpt lat="45.821720538414034" lon="12.253752506790294"><ele>67.25</ele><time>2026-04-25T13:16:06Z</time></trkpt><trkpt lat="45.82186003325595" lon="12.253805149531194"><ele>67.5</ele><time>2026-04-25T13:16:07Z</time></trkpt><trkpt lat="45.821981284096545" lon="12.25383729485669"><ele>67.75</ele><time>2026-04-25T13:16:08Z</time></trkpt><trkpt lat="45.82209366674373" lon="12.25386196694646"><ele>68.0</ele><time>2026-04-25T13:16:09Z</time></trkpt><trkpt lat="45.822207900423905" lon="12.253901198990686"><ele>68.0</ele><time>2026-04-25T13:16:10Z</time></trkpt><trkpt lat="45.82230370230073" lon="12.25395257371178"><ele>68.0</ele><time>2026-04-25T13:16:11Z</time></trkpt><trkpt lat="45.82237589656789" lon="12.254008752425275"><ele>68.0</ele><time>2026-04-25T13:16:12Z</time></trkpt><trkpt lat="45.822435880777164" lon="12.254076769471094"><ele>68.0</ele><time>2026-04-25T13:16:13Z</time></trkpt><trkpt lat="45.822495774062496" lon="12.254159100484316"><ele>68.0</ele><time>2026-04-25T13:16:14Z</time></trkpt><trkpt lat="45.82257351395737" lon="12.254231549405729"><ele>68.0</ele><time>2026-04-25T13:16:15Z</time></trkpt><trkpt lat="45.822670114477695" lon="12.254265267566295"><ele>68.0</ele><time>2026-04-25T13:16:16Z</time></trkpt><trkpt lat="45.82277792172177" lon="12.25423868736159"><ele>68.0</ele><time>2026-04-25T13:16:17Z</time></trkpt><trkpt lat="45.82289967956154" lon="12.254196321645793"><ele>68.0</ele><time>2026-04-25T13:16:18Z</time></trkpt><trkpt lat="45.82304135502497" lon="12.254192407368903"><ele>68.0</ele><time>2026-04-25T13:16:19Z</time></trkpt><trkpt lat="45.823192710455174" lon="12.254228260647979"><ele>68.0</ele><time>2026-04-25T13:16:20Z</time></trkpt><trkpt lat="45.82334083696516" lon="12.254282012841054"><ele>68.0</ele><time>2026-04-25T13:16:21Z</time></trkpt><trkpt lat="45.82349876297125" lon="12.254349826987367"><ele>68.0</ele><time>2026-04-25T13:16:22Z</time></trkpt><trkpt lat="45.82366615125056" lon="12.254410439810103"><ele>68.0</ele><time>2026-04-25T13:16:23Z</time></trkpt><trkpt lat="45.823841787419425" lon="12.254470365814973"><ele>68.0</ele><time>2026-04-25T13:16:24Z</time></trkpt><trkpt lat="45.82401726438014" lon="12.254528042458352"><ele>68.0</ele><time>2026-04-25T13:16:25Z</time></trkpt><trkpt lat="45.82419441015861" lon="12.254583593021989"><ele>67.66666666666667</ele><time>2026-04-25T13:16:26Z</time></trkpt><trkpt lat="45.82436695237219" lon="12.254642774144424"><ele>67.33333333333333</ele><time>2026-04-25T13:16:27Z</time></trkpt><trkpt lat="45.82453471689952" lon="12.25470832012418"><ele>67.0</ele><time>2026-04-25T13:16:28Z</time></trkpt><trkpt lat="45.82470571709377" lon="12.254758852833984"><ele>67.0</ele><time>2026-04-25T13:16:29Z</time></trkpt><trkpt lat="45.82487480963715" lon="12.254820655504128"><ele>67.0</ele><time>2026-04-25T13:16:30Z</time></trkpt><trkpt lat="45.82505327581543" lon="12.254881116333099"><ele>67.0</ele><time>2026-04-25T13:16:31Z</time></trkpt><trkpt lat="45.82522868410273" lon="12.254943325734372"><ele>67.0</ele><time>2026-04-25T13:16:32Z</time></trkpt><trkpt lat="45.82540529082313" lon="12.255006019560515"><ele>67.0</ele><time>2026-04-25T13:16:33Z</time></trkpt><trkpt lat="45.82558900401897" lon="12.25506762002331"><ele>67.0</ele><time>2026-04-25T13:16:34Z</time></trkpt><trkpt lat="45.82577276898454" lon="12.255132705151984"><ele>67.0</ele><time>2026-04-25T13:16:35Z</time></trkpt><trkpt lat="45.825960102643066" lon="12.25519480608623"><ele>67.0</ele><time>2026-04-25T13:16:36Z</time></trkpt><trkpt lat="45.826148997757244" lon="12.255259765061556"><ele>67.0</ele><time>2026-04-25T13:16:37Z</time></trkpt><trkpt lat="45.82634008964447" lon="12.25532742216673"><ele>67.0</ele><time>2026-04-25T13:16:38Z</time></trkpt><trkpt lat="45.82653472019345" lon="12.255396342335061"><ele>67.0</ele><time>2026-04-25T13:16:39Z</time></trkpt><trkpt lat="45.826730644840914" lon="12.25546317847002"><ele>67.0</ele><time>2026-04-25T13:16:40Z</time></trkpt><trkpt lat="45.826938165716165" lon="12.255531615702054"><ele>67.0</ele><time>2026-04-25T13:16:41Z</time></trkpt><trkpt lat="45.827142760416706" lon="12.255599883013844"><ele>67.0</ele><time>2026-04-25T13:16:42Z</time></trkpt><trkpt lat="45.82734960606255" lon="12.255671772303387"><ele>67.0</ele><time>2026-04-25T13:16:43Z</time></trkpt><trkpt lat="45.827557091439225" lon="12.255744312307128"><ele>67.33333333333333</ele><time>2026-04-25T13:16:44Z</time></trkpt><trkpt lat="45.827764922568" lon="12.255813675503381"><ele>67.66666666666667</ele><time>2026-04-25T13:16:45Z</time></trkpt><trkpt lat="45.82797021139526" lon="12.255885130180795"><ele>68.0</ele><time>2026-04-25T13:16:46Z</time></trkpt><trkpt lat="45.82818002977676" lon="12.255959306599003"><ele>68.0</ele><time>2026-04-25T13:16:47Z</time></trkpt><trkpt lat="45.828392259725334" lon="12.256032862453052"><ele>68.0</ele><time>2026-04-25T13:16:48Z</time></trkpt><trkpt lat="45.828603671510955" lon="12.25610533028997"><ele>68.0</ele><time>2026-04-25T13:16:49Z</time></trkpt><trkpt lat="45.82881059113343" lon="12.256178053713962"><ele>67.66666666666667</ele><time>2026-04-25T13:16:50Z</time></trkpt><trkpt lat="45.82901306744313" lon="12.256242992029724"><ele>67.33333333333333</ele><time>2026-04-25T13:16:51Z</time></trkpt><trkpt lat="45.82920911003046" lon="12.256308043942468"><ele>67.0</ele><time>2026-04-25T13:16:52Z</time></trkpt><trkpt lat="45.82940633793324" lon="12.256369777357875"><ele>66.66666666666666</ele><time>2026-04-25T13:16:53Z</time></trkpt><trkpt lat="45.82960172762776" lon="12.256429918736474"><ele>66.33333333333333</ele><time>2026-04-25T13:16:54Z</time></trkpt><trkpt lat="45.82978833768689" lon="12.256480676301102"><ele>66.0</ele><time>2026-04-25T13:16:55Z</time></trkpt><trkpt lat="45.82997108844973" lon="12.256517091266403"><ele>66.66666666666667</ele><time>2026-04-25T13:16:56Z</time></trkpt><trkpt lat="45.83016076941902" lon="12.256532589982665"><ele>67.33333333333334</ele><time>2026-04-25T13:16:57Z</time></trkpt><trkpt lat="45.83034371336589" lon="12.256536549558446"><ele>68.0</ele><time>2026-04-25T13:16:58Z</time></trkpt><trkpt lat="45.830537809135095" lon="12.25651316535917"><ele>68.0</ele><time>2026-04-25T13:16:59Z</time></trkpt><trkpt lat="45.830730743777664" lon="12.256478779767761"><ele>68.0</ele><time>2026-04-25T13:17:00Z</time></trkpt><trkpt lat="45.8309221085074" lon="12.256438047035799"><ele>68.0</ele><time>2026-04-25T13:17:01Z</time></trkpt><trkpt lat="45.83112178380216" lon="12.256391800757871"><ele>67.66666666666667</ele><time>2026-04-25T13:17:02Z</time></trkpt><trkpt lat="45.831329177059395" lon="12.256353148401896"><ele>67.33333333333333</ele><time>2026-04-25T13:17:03Z</time></trkpt><trkpt lat="45.831536209069405" lon="12.256314727808888"><ele>67.0</ele><time>2026-04-25T13:17:04Z</time></trkpt><trkpt lat="45.831742668760185" lon="12.256270614087487"><ele>66.66666666666666</ele><time>2026-04-25T13:17:05Z</time></trkpt><trkpt lat="45.83194891919803" lon="12.256227498349023"><ele>66.33333333333333</ele><time>2026-04-25T13:17:06Z</time></trkpt><trkpt lat="45.83215818832971" lon="12.256188647822869"><ele>66.0</ele><time>2026-04-25T13:17:07Z</time></trkpt><trkpt lat="45.832370727555606" lon="12.256150722851313"><ele>66.0</ele><time>2026-04-25T13:17:08Z</time></trkpt><trkpt lat="45.83258464315909" lon="12.256114125059142"><ele>66.0</ele><time>2026-04-25T13:17:09Z</time></trkpt><trkpt lat="45.83279853093966" lon="12.256070767933863"><ele>66.0</ele><time>2026-04-25T13:17:10Z</time></trkpt><trkpt lat="45.83301146014148" lon="12.256028286943598"><ele>66.0</ele><time>2026-04-25T13:17:11Z</time></trkpt><trkpt lat="45.83322874393925" lon="12.25598722969542"><ele>66.0</ele><time>2026-04-25T13:17:12Z</time></trkpt><trkpt lat="45.833442426735246" lon="12.255943070104642"><ele>66.0</ele><time>2026-04-25T13:17:13Z</time></trkpt><trkpt lat="45.83365546317198" lon="12.255901056542998"><ele>66.0</ele><time>2026-04-25T13:17:14Z</time></trkpt><trkpt lat="45.83386596670369" lon="12.255859146364871"><ele>66.0</ele><time>2026-04-25T13:17:15Z</time></trkpt><trkpt lat="45.83407660547771" lon="12.255816728138406"><ele>66.0</ele><time>2026-04-25T13:17:16Z</time></trkpt><trkpt lat="45.83428514306588" lon="12.255773686233649"><ele>66.0</ele><time>2026-04-25T13:17:17Z</time></trkpt><trkpt lat="45.83449341995399" lon="12.255729896044123"><ele>66.0</ele><time>2026-04-25T13:17:18Z</time></trkpt><trkpt lat="45.83470197374404" lon="12.255686730562047"><ele>66.0</ele><time>2026-04-25T13:17:19Z</time></trkpt><trkpt lat="45.834907232968156" lon="12.255652146785234"><ele>65.0</ele><time>2026-04-25T13:17:20Z</time></trkpt><trkpt lat="45.835111720984436" lon="12.255609281997751"><ele>64.0</ele><time>2026-04-25T13:17:21Z</time></trkpt><trkpt lat="45.83531572733903" lon="12.255571177568077"><ele>63.0</ele><time>2026-04-25T13:17:22Z</time></trkpt><trkpt lat="45.83551467599142" lon="12.255535692434961"><ele>63.0</ele><time>2026-04-25T13:17:23Z</time></trkpt><trkpt lat="45.83570974890398" lon="12.255496570982341"><ele>63.0</ele><time>2026-04-25T13:17:24Z</time></trkpt><trkpt lat="45.835898543410714" lon="12.255463877623582"><ele>63.0</ele><time>2026-04-25T13:17:25Z</time></trkpt><trkpt lat="45.83608774063626" lon="12.25542296050658"><ele>63.66666666666667</ele><time>2026-04-25T13:17:26Z</time></trkpt><trkpt lat="45.8362777294266" lon="12.255385435872327"><ele>64.33333333333334</ele><time>2026-04-25T13:17:27Z</time></trkpt><trkpt lat="45.83646944338202" lon="12.25534486797126"><ele>65.0</ele><time>2026-04-25T13:17:28Z</time></trkpt><trkpt lat="45.8366602156722" lon="12.255304039314515"><ele>66.0</ele><time>2026-04-25T13:17:29Z</time></trkpt><trkpt lat="45.836852052502636" lon="12.25526155912277"><ele>67.0</ele><time>2026-04-25T13:17:30Z</time></trkpt><trkpt lat="45.837043704866495" lon="12.255211509853817"><ele>68.0</ele><time>2026-04-25T13:17:31Z</time></trkpt><trkpt lat="45.83723372852405" lon="12.255154603910189"><ele>68.0</ele><time>2026-04-25T13:17:32Z</time></trkpt><trkpt lat="45.83742423449773" lon="12.255088699809415"><ele>68.0</ele><time>2026-04-25T13:17:33Z</time></trkpt><trkpt lat="45.83760768243805" lon="12.255015458289762"><ele>68.0</ele><time>2026-04-25T13:17:34Z</time></trkpt><trkpt lat="45.83779134844004" lon="12.25493880887604"><ele>67.33333333333334</ele><time>2026-04-25T13:17:35Z</time></trkpt><trkpt lat="45.83796799252613" lon="12.254869877534832"><ele>66.66666666666667</ele><time>2026-04-25T13:17:36Z</time></trkpt><trkpt lat="45.838147438898694" lon="12.254809037807206"><ele>66.0</ele><time>2026-04-25T13:17:37Z</time></trkpt><trkpt lat="45.838325026585736" lon="12.254761288893608"><ele>66.0</ele><time>2026-04-25T13:17:38Z</time></trkpt><trkpt lat="45.83848926795127" lon="12.254711085737377"><ele>66.0</ele><time>2026-04-25T13:17:39Z</time></trkpt><trkpt lat="45.838647023283905" lon="12.254662002752394"><ele>66.0</ele><time>2026-04-25T13:17:40Z</time></trkpt><trkpt lat="45.83879897959142" lon="12.254614808944297"><ele>66.0</ele><time>2026-04-25T13:17:41Z</time></trkpt><trkpt lat="45.838942865594" lon="12.254568678188702"><ele>66.0</ele><time>2026-04-25T13:17:42Z</time></trkpt><trkpt lat="45.83908145002846" lon="12.254524594638044"><ele>66.0</ele><time>2026-04-25T13:17:43Z</time></trkpt><trkpt lat="45.83921582675257" lon="12.25448274143326"><ele>66.0</ele><time>2026-04-25T13:17:44Z</time></trkpt><trkpt lat="45.83934438350639" lon="12.254444329789887"><ele>65.75</ele><time>2026-04-25T13:17:45Z</time></trkpt><trkpt lat="45.83947407654228" lon="12.254409251165244"><ele>65.5</ele><time>2026-04-25T13:17:46Z</time></trkpt><trkpt lat="45.8396026577344" lon="12.25436978870284"><ele>65.25</ele><time>2026-04-25T13:17:47Z</time></trkpt><trkpt lat="45.83972911505645" lon="12.254331402303679"><ele>65.0</ele><time>2026-04-25T13:17:48Z</time></trkpt><trkpt lat="45.839854272466596" lon="12.254294729062691"><ele>65.0</ele><time>2026-04-25T13:17:49Z</time></trkpt><trkpt lat="45.839980039201116" lon="12.254254521643826"><ele>65.0</ele><time>2026-04-25T13:17:50Z</time></trkpt><trkpt lat="45.84010309305425" lon="12.254196317945777"><ele>65.0</ele><time>2026-04-25T13:17:51Z</time></trkpt><trkpt lat="45.840221877762346" lon="12.254116533334441"><ele>65.0</ele><time>2026-04-25T13:17:52Z</time></trkpt><trkpt lat="45.8403326359534" lon="12.254010695292752"><ele>65.25</ele><time>2026-04-25T13:17:53Z</time></trkpt><trkpt lat="45.84043816078386" lon="12.25387682350399"><ele>65.5</ele><time>2026-04-25T13:17:54Z</time></trkpt><trkpt lat="45.84053499313013" lon="12.253726632049029"><ele>65.75</ele><time>2026-04-25T13:17:55Z</time></trkpt><trkpt lat="45.84062265005809" lon="12.253563262153834"><ele>66.0</ele><time>2026-04-25T13:17:56Z</time></trkpt><trkpt lat="45.84070205851281" lon="12.253379470427248"><ele>66.0</ele><time>2026-04-25T13:17:57Z</time></trkpt><trkpt lat="45.84077521412323" lon="12.253186079585499"><ele>66.0</ele><time>2026-04-25T13:17:58Z</time></trkpt><trkpt lat="45.84084477734793" lon="12.252998708497696"><ele>66.0</ele><time>2026-04-25T13:17:59Z</time></trkpt><trkpt lat="45.84093497519839" lon="12.252829523324396"><ele>66.0</ele><time>2026-04-25T13:18:00Z</time></trkpt><trkpt lat="45.841043210079725" lon="12.252676898019395"><ele>66.0</ele><time>2026-04-25T13:18:01Z</time></trkpt><trkpt lat="45.841163548631364" lon="12.25254196660511"><ele>66.0</ele><time>2026-04-25T13:18:02Z</time></trkpt><trkpt lat="45.84130871073558" lon="12.252435667403107"><ele>66.0</ele><time>2026-04-25T13:18:03Z</time></trkpt><trkpt lat="45.841462328889584" lon="12.252336157385828"><ele>66.0</ele><time>2026-04-25T13:18:04Z</time></trkpt><trkpt lat="45.8416219248817" lon="12.25223787438385"><ele>66.0</ele><time>2026-04-25T13:18:05Z</time></trkpt><trkpt lat="45.84178172437035" lon="12.252134578607683"><ele>66.33333333333333</ele><time>2026-04-25T13:18:06Z</time></trkpt><trkpt lat="45.84194491872688" lon="12.252029438755805"><ele>66.66666666666666</ele><time>2026-04-25T13:18:07Z</time></trkpt><trkpt lat="45.84210505536209" lon="12.251922594517843"><ele>67.0</ele><time>2026-04-25T13:18:08Z</time></trkpt><trkpt lat="45.84226570217248" lon="12.251816550399331"><ele>67.0</ele><time>2026-04-25T13:18:09Z</time></trkpt><trkpt lat="45.8424266719019" lon="12.25171027686134"><ele>67.0</ele><time>2026-04-25T13:18:10Z</time></trkpt><trkpt lat="45.84258613723486" lon="12.251603668254722"><ele>67.0</ele><time>2026-04-25T13:18:11Z</time></trkpt><trkpt lat="45.84274928891926" lon="12.251496546747326"><ele>67.33333333333333</ele><time>2026-04-25T13:18:12Z</time></trkpt><trkpt lat="45.84291144765858" lon="12.251388861966827"><ele>67.66666666666667</ele><time>2026-04-25T13:18:13Z</time></trkpt><trkpt lat="45.84307933007229" lon="12.25128032095408"><ele>68.0</ele><time>2026-04-25T13:18:14Z</time></trkpt><trkpt lat="45.84324454759749" lon="12.251170881120101"><ele>68.0</ele><time>2026-04-25T13:18:15Z</time></trkpt><trkpt lat="45.843406409833314" lon="12.25106061149048"><ele>68.0</ele><time>2026-04-25T13:18:16Z</time></trkpt><trkpt lat="45.843568765172776" lon="12.250948739249534"><ele>68.0</ele><time>2026-04-25T13:18:17Z</time></trkpt><trkpt lat="45.84372888636137" lon="12.2508395165923"><ele>68.66666666666667</ele><time>2026-04-25T13:18:18Z</time></trkpt><trkpt lat="45.84389194736973" lon="12.25073451575431"><ele>69.33333333333333</ele><time>2026-04-25T13:18:19Z</time></trkpt><trkpt lat="45.84405758538662" lon="12.250626895097323"><ele>70.0</ele><time>2026-04-25T13:18:20Z</time></trkpt><trkpt lat="45.84422445077259" lon="12.25051852994248"><ele>70.33333333333333</ele><time>2026-04-25T13:18:21Z</time></trkpt><trkpt lat="45.8443902283137" lon="12.250407512226301"><ele>70.66666666666667</ele><time>2026-04-25T13:18:22Z</time></trkpt><trkpt lat="45.84455222436279" lon="12.25029823778014"><ele>71.0</ele><time>2026-04-25T13:18:23Z</time></trkpt><trkpt lat="45.84470738416753" lon="12.2501937400072"><ele>71.0</ele><time>2026-04-25T13:18:24Z</time></trkpt><trkpt lat="45.84486169540131" lon="12.25009372217872"><ele>71.0</ele><time>2026-04-25T13:18:25Z</time></trkpt><trkpt lat="45.845014812795235" lon="12.249996938106026"><ele>71.0</ele><time>2026-04-25T13:18:26Z</time></trkpt><trkpt lat="45.8451642044531" lon="12.249898409489344"><ele>70.66666666666667</ele><time>2026-04-25T13:18:27Z</time></trkpt><trkpt lat="45.84530978885666" lon="12.249802434932086"><ele>70.33333333333333</ele><time>2026-04-25T13:18:28Z</time></trkpt><trkpt lat="45.845452706158895" lon="12.249709539907295"><ele>70.0</ele><time>2026-04-25T13:18:29Z</time></trkpt><trkpt lat="45.84559400886833" lon="12.249616044765927"><ele>70.0</ele><time>2026-04-25T13:18:30Z</time></trkpt><trkpt lat="45.84573558595174" lon="12.249524374735168"><ele>70.0</ele><time>2026-04-25T13:18:31Z</time></trkpt><trkpt lat="45.845875347219724" lon="12.249432232772795"><ele>70.0</ele><time>2026-04-25T13:18:32Z</time></trkpt><trkpt lat="45.84601353444189" lon="12.249339897035563"><ele>70.5</ele><time>2026-04-25T13:18:33Z</time></trkpt><trkpt lat="45.84615362987868" lon="12.249252115646813"><ele>71.0</ele><time>2026-04-25T13:18:34Z</time></trkpt><trkpt lat="45.84629102118289" lon="12.249159960511696"><ele>71.5</ele><time>2026-04-25T13:18:35Z</time></trkpt><trkpt lat="45.84642765583507" lon="12.249093152835806"><ele>72.0</ele><time>2026-04-25T13:18:36Z</time></trkpt><trkpt lat="45.846548518496775" lon="12.249014026159912"><ele>72.25</ele><time>2026-04-25T13:18:37Z</time></trkpt><trkpt lat="45.84666361549112" lon="12.248920043348198"><ele>72.5</ele><time>2026-04-25T13:18:38Z</time></trkpt><trkpt lat="45.84677770034888" lon="12.24885660155793"><ele>72.75</ele><time>2026-04-25T13:18:39Z</time></trkpt><trkpt lat="45.84689212558312" lon="12.248803501114491"><ele>73.0</ele><time>2026-04-25T13:18:40Z</time></trkpt><trkpt lat="45.84700588641519" lon="12.248757250596782"><ele>73.0</ele><time>2026-04-25T13:18:41Z</time></trkpt><trkpt lat="45.847117896867076" lon="12.248717785823093"><ele>73.0</ele><time>2026-04-25T13:18:42Z</time></trkpt><trkpt lat="45.84722901716901" lon="12.248683312347504"><ele>73.0</ele><time>2026-04-25T13:18:43Z</time></trkpt><trkpt lat="45.84733703166897" lon="12.248652824082665"><ele>73.0</ele><time>2026-04-25T13:18:44Z</time></trkpt><trkpt lat="45.847442358333275" lon="12.248626226799367"><ele>73.0</ele><time>2026-04-25T13:18:45Z</time></trkpt><trkpt lat="45.84754199017143" lon="12.248603717202004"><ele>73.2</ele><time>2026-04-25T13:18:46Z</time></trkpt><trkpt lat="45.8476350769761" lon="12.248588172018035"><ele>73.4</ele><time>2026-04-25T13:18:47Z</time></trkpt><trkpt lat="45.84771307518367" lon="12.24858608939551"><ele>73.60000000000001</ele><time>2026-04-25T13:18:48Z</time></trkpt><trkpt lat="45.84780002326564" lon="12.248626528494269"><ele>73.8</ele><time>2026-04-25T13:18:50Z</time></trkpt><trkpt lat="45.84790221467835" lon="12.24869459873381"><ele>74.0</ele><time>2026-04-25T13:18:53Z</time></trkpt><trkpt lat="45.848021534522" lon="12.24878036628129"><ele>74.0</ele><time>2026-04-25T13:18:55Z</time></trkpt><trkpt lat="45.84809957721029" lon="12.248800244575486"><ele>74.0</ele><time>2026-04-25T13:18:56Z</time></trkpt><trkpt lat="45.84818392267919" lon="12.248790685444607"><ele>74.0</ele><time>2026-04-25T13:18:57Z</time></trkpt><trkpt lat="45.84826633556326" lon="12.248757749566286"><ele>74.0</ele><time>2026-04-25T13:18:58Z</time></trkpt><trkpt lat="45.84834541054369" lon="12.248692472703002"><ele>74.0</ele><time>2026-04-25T13:18:59Z</time></trkpt><trkpt lat="45.84842262177449" lon="12.24861642818475"><ele>74.0</ele><time>2026-04-25T13:19:00Z</time></trkpt><trkpt lat="45.84851262467981" lon="12.248556981442224"><ele>74.75</ele><time>2026-04-25T13:19:01Z</time></trkpt><trkpt lat="45.84861991980564" lon="12.248535960145942"><ele>75.5</ele><time>2026-04-25T13:19:02Z</time></trkpt><trkpt lat="45.84873426811903" lon="12.248550966143577"><ele>76.25</ele><time>2026-04-25T13:19:03Z</time></trkpt><trkpt lat="45.84885224060811" lon="12.248598692870354"><ele>77.0</ele><time>2026-04-25T13:19:04Z</time></trkpt><trkpt lat="45.848964342370664" lon="12.24866263823233"><ele>77.0</ele><time>2026-04-25T13:19:05Z</time></trkpt><trkpt lat="45.849072683498804" lon="12.248749345573057"><ele>77.0</ele><time>2026-04-25T13:19:06Z</time></trkpt><trkpt lat="45.84918061961692" lon="12.248854725288929"><ele>77.0</ele><time>2026-04-25T13:19:07Z</time></trkpt><trkpt lat="45.849285675892716" lon="12.248973827469845"><ele>77.0</ele><time>2026-04-25T13:19:08Z</time></trkpt><trkpt lat="45.84938634724044" lon="12.249104528659235"><ele>77.0</ele><time>2026-04-25T13:19:09Z</time></trkpt><trkpt lat="45.84948842613049" lon="12.24924098175807"><ele>77.0</ele><time>2026-04-25T13:19:10Z</time></trkpt><trkpt lat="45.84958967056588" lon="12.249382370418218"><ele>77.0</ele><time>2026-04-25T13:19:11Z</time></trkpt><trkpt lat="45.849693156579846" lon="12.24952282468703"><ele>77.0</ele><time>2026-04-25T13:19:12Z</time></trkpt><trkpt lat="45.84979916156503" lon="12.249660758875976"><ele>77.0</ele><time>2026-04-25T13:19:13Z</time></trkpt><trkpt lat="45.849905427523865" lon="12.249801009801326"><ele>77.0</ele><time>2026-04-25T13:19:14Z</time></trkpt><trkpt lat="45.850014272252" lon="12.249939612328422"><ele>77.0</ele><time>2026-04-25T13:19:15Z</time></trkpt><trkpt lat="45.85011895851656" lon="12.2500741242"><ele>77.0</ele><time>2026-04-25T13:19:16Z</time></trkpt><trkpt lat="45.8502241926579" lon="12.250212781020082"><ele>76.5</ele><time>2026-04-25T13:19:17Z</time></trkpt><trkpt lat="45.85032840180287" lon="12.250351309572995"><ele>76.0</ele><time>2026-04-25T13:19:18Z</time></trkpt><trkpt lat="45.85042909529143" lon="12.250487110794772"><ele>75.5</ele><time>2026-04-25T13:19:19Z</time></trkpt><trkpt lat="45.85052975457077" lon="12.250615243279055"><ele>75.0</ele><time>2026-04-25T13:19:20Z</time></trkpt><trkpt lat="45.85062900069672" lon="12.250740976776502"><ele>75.0</ele><time>2026-04-25T13:19:21Z</time></trkpt><trkpt lat="45.85072324941565" lon="12.250876100845424"><ele>75.0</ele><time>2026-04-25T13:19:22Z</time></trkpt><trkpt lat="45.85082050484035" lon="12.251000883335214"><ele>75.0</ele><time>2026-04-25T13:19:23Z</time></trkpt><trkpt lat="45.85092014054006" lon="12.251128940887709"><ele>75.0</ele><time>2026-04-25T13:19:24Z</time></trkpt><trkpt lat="45.85101748778783" lon="12.25126356400883"><ele>74.75</ele><time>2026-04-25T13:19:25Z</time></trkpt><trkpt lat="45.85111677491111" lon="12.251398570232977"><ele>74.5</ele><time>2026-04-25T13:19:26Z</time></trkpt><trkpt lat="45.851218218111015" lon="12.251538324086368"><ele>74.25</ele><time>2026-04-25T13:19:27Z</time></trkpt><trkpt lat="45.85132270860228" lon="12.25168166981202"><ele>74.0</ele><time>2026-04-25T13:19:28Z</time></trkpt><trkpt lat="45.851429542851776" lon="12.251823943801481"><ele>74.0</ele><time>2026-04-25T13:19:29Z</time></trkpt><trkpt lat="45.85153475234543" lon="12.25196287073763"><ele>74.0</ele><time>2026-04-25T13:19:30Z</time></trkpt><trkpt lat="45.85163975945165" lon="12.252099643802609"><ele>74.0</ele><time>2026-04-25T13:19:31Z</time></trkpt><trkpt lat="45.8517434338954" lon="12.252238004351529"><ele>74.0</ele><time>2026-04-25T13:19:32Z</time></trkpt><trkpt lat="45.85184674252853" lon="12.252375943981477"><ele>74.0</ele><time>2026-04-25T13:19:33Z</time></trkpt><trkpt lat="45.85195167010316" lon="12.25251499105658"><ele>74.0</ele><time>2026-04-25T13:19:34Z</time></trkpt><trkpt lat="45.852056747522596" lon="12.252657336272879"><ele>74.0</ele><time>2026-04-25T13:19:35Z</time></trkpt><trkpt lat="45.85216611293292" lon="12.252805286051098"><ele>74.0</ele><time>2026-04-25T13:19:36Z</time></trkpt><trkpt lat="45.85227860799966" lon="12.252953831165792"><ele>74.0</ele><time>2026-04-25T13:19:37Z</time></trkpt><trkpt lat="45.85239304917932" lon="12.25311080609549"><ele>74.0</ele><time>2026-04-25T13:19:38Z</time></trkpt><trkpt lat="45.852515209583174" lon="12.253268473863933"><ele>74.0</ele><time>2026-04-25T13:19:39Z</time></trkpt><trkpt lat="45.852635127960596" lon="12.253429975633917"><ele>73.33333333333334</ele><time>2026-04-25T13:19:40Z</time></trkpt><trkpt lat="45.852759266889166" lon="12.253591545379269"><ele>72.66666666666667</ele><time>2026-04-25T13:19:41Z</time></trkpt><trkpt lat="45.85288111880865" lon="12.253757782774114"><ele>72.0</ele><time>2026-04-25T13:19:42Z</time></trkpt><trkpt lat="45.85300475117659" lon="12.253922741106274"><ele>71.66666666666667</ele><time>2026-04-25T13:19:43Z</time></trkpt><trkpt lat="45.85313274441426" lon="12.254092916420893"><ele>71.33333333333334</ele><time>2026-04-25T13:19:44Z</time></trkpt><trkpt lat="45.853256860511515" lon="12.254258621153449"><ele>71.0</ele><time>2026-04-25T13:19:45Z</time></trkpt><trkpt lat="45.85337864417481" lon="12.254421498483467"><ele>71.0</ele><time>2026-04-25T13:19:46Z</time></trkpt><trkpt lat="45.8535006270775" lon="12.254582946973828"><ele>71.0</ele><time>2026-04-25T13:19:47Z</time></trkpt><trkpt lat="45.85361592536101" lon="12.254744834085958"><ele>71.0</ele><time>2026-04-25T13:19:48Z</time></trkpt><trkpt lat="45.85373649228198" lon="12.254905296224443"><ele>70.66666666666667</ele><time>2026-04-25T13:19:49Z</time></trkpt><trkpt lat="45.85385430989916" lon="12.255063581979554"><ele>70.33333333333333</ele><time>2026-04-25T13:19:50Z</time></trkpt><trkpt lat="45.85397495625429" lon="12.255226268427528"><ele>70.0</ele><time>2026-04-25T13:19:51Z</time></trkpt><trkpt lat="45.85409864442838" lon="12.255389334731985"><ele>70.0</ele><time>2026-04-25T13:19:52Z</time></trkpt><trkpt lat="45.85422366186795" lon="12.255552571861253"><ele>70.0</ele><time>2026-04-25T13:19:53Z</time></trkpt><trkpt lat="45.85434456262155" lon="12.255721254130654"><ele>70.0</ele><time>2026-04-25T13:19:54Z</time></trkpt><trkpt lat="45.85446833975999" lon="12.255891237015305"><ele>70.33333333333333</ele><time>2026-04-25T13:19:55Z</time></trkpt><trkpt lat="45.854594635873596" lon="12.256060692476362"><ele>70.66666666666667</ele><time>2026-04-25T13:19:56Z</time></trkpt><trkpt lat="45.854727255449255" lon="12.256229489708451"><ele>71.0</ele><time>2026-04-25T13:19:57Z</time></trkpt><trkpt lat="45.85485484345238" lon="12.2563997186342"><ele>71.33333333333334</ele><time>2026-04-25T13:19:58Z</time></trkpt><trkpt lat="45.85498280529032" lon="12.256568835080673"><ele>71.66666666666667</ele><time>2026-04-25T13:19:59Z</time></trkpt><trkpt lat="45.855109728939304" lon="12.256739556998152"><ele>72.0</ele><time>2026-04-25T13:20:00Z</time></trkpt><trkpt lat="45.8552360045295" lon="12.256908785588568"><ele>71.33333333333333</ele><time>2026-04-25T13:20:01Z</time></trkpt><trkpt lat="45.8553609726292" lon="12.257076398405589"><ele>70.66666666666666</ele><time>2026-04-25T13:20:02Z</time></trkpt><trkpt lat="45.85548427673428" lon="12.257245865773717"><ele>70.0</ele><time>2026-04-25T13:20:03Z</time></trkpt><trkpt lat="45.855610183217685" lon="12.257417528291054"><ele>69.66666666666666</ele><time>2026-04-25T13:20:04Z</time></trkpt><trkpt lat="45.85573215349258" lon="12.257583791685999"><ele>69.33333333333333</ele><time>2026-04-25T13:20:05Z</time></trkpt><trkpt lat="45.8558520159172" lon="12.257742383771378"><ele>69.0</ele><time>2026-04-25T13:20:06Z</time></trkpt><trkpt lat="45.855973841800456" lon="12.257901155742397"><ele>68.66666666666667</ele><time>2026-04-25T13:20:07Z</time></trkpt><trkpt lat="45.85609279283724" lon="12.25805948085327"><ele>68.33333333333334</ele><time>2026-04-25T13:20:08Z</time></trkpt><trkpt lat="45.85620957172383" lon="12.258215434554517"><ele>68.0</ele><time>2026-04-25T13:20:09Z</time></trkpt><trkpt lat="45.85632811168704" lon="12.258372913195606"><ele>68.0</ele><time>2026-04-25T13:20:10Z</time></trkpt><trkpt lat="45.856448393279805" lon="12.258532484717874"><ele>68.0</ele><time>2026-04-25T13:20:11Z</time></trkpt><trkpt lat="45.85656604809925" lon="12.258690021111676"><ele>68.0</ele><time>2026-04-25T13:20:12Z</time></trkpt><trkpt lat="45.85668717089636" lon="12.258853199108525"><ele>67.0</ele><time>2026-04-25T13:20:13Z</time></trkpt><trkpt lat="45.85680642045933" lon="12.259013915818453"><ele>66.0</ele><time>2026-04-25T13:20:14Z</time></trkpt><trkpt lat="45.85692731502601" lon="12.25917902628684"><ele>65.0</ele><time>2026-04-25T13:20:15Z</time></trkpt><trkpt lat="45.85704712657079" lon="12.259341988671578"><ele>65.0</ele><time>2026-04-25T13:20:16Z</time></trkpt><trkpt lat="45.857170029778146" lon="12.259506988406455"><ele>65.0</ele><time>2026-04-25T13:20:17Z</time></trkpt><trkpt lat="45.857296797167294" lon="12.259672519333906"><ele>65.0</ele><time>2026-04-25T13:20:18Z</time></trkpt><trkpt lat="45.85741807591642" lon="12.259837495558106"><ele>64.66666666666667</ele><time>2026-04-25T13:20:19Z</time></trkpt><trkpt lat="45.8575421505758" lon="12.260001301491561"><ele>64.33333333333333</ele><time>2026-04-25T13:20:20Z</time></trkpt><trkpt lat="45.857662493374065" lon="12.26016035838724"><ele>64.0</ele><time>2026-04-25T13:20:21Z</time></trkpt><trkpt lat="45.85778384844656" lon="12.260317102602365"><ele>64.0</ele><time>2026-04-25T13:20:22Z</time></trkpt><trkpt lat="45.857899871344046" lon="12.260476511407854"><ele>64.0</ele><time>2026-04-25T13:20:23Z</time></trkpt><trkpt lat="45.85801442109588" lon="12.260629868025084"><ele>64.0</ele><time>2026-04-25T13:20:24Z</time></trkpt><trkpt lat="45.858129521313344" lon="12.260785928682049"><ele>64.0</ele><time>2026-04-25T13:20:25Z</time></trkpt><trkpt lat="45.8582449176575" lon="12.260937678005163"><ele>64.0</ele><time>2026-04-25T13:20:26Z</time></trkpt><trkpt lat="45.85835890496779" lon="12.2610923025163"><ele>64.0</ele><time>2026-04-25T13:20:27Z</time></trkpt><trkpt lat="45.85847139754986" lon="12.261245807569509"><ele>63.666666666666664</ele><time>2026-04-25T13:20:28Z</time></trkpt><trkpt lat="45.85858979409527" lon="12.26139820992054"><ele>63.33333333333333</ele><time>2026-04-25T13:20:29Z</time></trkpt><trkpt lat="45.85870687057595" lon="12.261556819524037"><ele>63.0</ele><time>2026-04-25T13:20:30Z</time></trkpt><trkpt lat="45.858823019162756" lon="12.26171383343507"><ele>63.0</ele><time>2026-04-25T13:20:31Z</time></trkpt><trkpt lat="45.85894011129621" lon="12.26186466337694"><ele>63.0</ele><time>2026-04-25T13:20:32Z</time></trkpt><trkpt lat="45.85905620575624" lon="12.262017794747644"><ele>63.0</ele><time>2026-04-25T13:20:33Z</time></trkpt><trkpt lat="45.85916944846719" lon="12.26216933371293"><ele>63.0</ele><time>2026-04-25T13:20:34Z</time></trkpt><trkpt lat="45.8592808871029" lon="12.26232198923551"><ele>63.0</ele><time>2026-04-25T13:20:35Z</time></trkpt><trkpt lat="45.8593837390954" lon="12.26246621038046"><ele>63.0</ele><time>2026-04-25T13:20:36Z</time></trkpt><trkpt lat="45.85948500051783" lon="12.262607903307124"><ele>63.0</ele><time>2026-04-25T13:20:37Z</time></trkpt><trkpt lat="45.859586250634585" lon="12.262744731808853"><ele>63.0</ele><time>2026-04-25T13:20:38Z</time></trkpt><trkpt lat="45.85968438930527" lon="12.26287811800618"><ele>63.0</ele><time>2026-04-25T13:20:39Z</time></trkpt><trkpt lat="45.85978422450341" lon="12.263014854608645"><ele>63.0</ele><time>2026-04-25T13:20:40Z</time></trkpt><trkpt lat="45.85987945121305" lon="12.26314430368251"><ele>63.0</ele><time>2026-04-25T13:20:41Z</time></trkpt><trkpt lat="45.85997263246962" lon="12.263276507570527"><ele>63.0</ele><time>2026-04-25T13:20:42Z</time></trkpt><trkpt lat="45.86006634440532" lon="12.263403084697702"><ele>63.0</ele><time>2026-04-25T13:20:43Z</time></trkpt><trkpt lat="45.8601636646592" lon="12.263536409329014"><ele>63.0</ele><time>2026-04-25T13:20:44Z</time></trkpt><trkpt lat="45.86026307247522" lon="12.26366657251883"><ele>63.0</ele><time>2026-04-25T13:20:45Z</time></trkpt><trkpt lat="45.860362839228" lon="12.263801187092472"><ele>63.5</ele><time>2026-04-25T13:20:46Z</time></trkpt><trkpt lat="45.86046544821729" lon="12.263933047840757"><ele>64.0</ele><time>2026-04-25T13:20:47Z</time></trkpt><trkpt lat="45.860565441605175" lon="12.264067215376912"><ele>64.5</ele><time>2026-04-25T13:20:48Z</time></trkpt><trkpt lat="45.86066590299408" lon="12.264202017889664"><ele>65.0</ele><time>2026-04-25T13:20:49Z</time></trkpt><trkpt lat="45.860767762574504" lon="12.264336278899341"><ele>65.0</ele><time>2026-04-25T13:20:50Z</time></trkpt><trkpt lat="45.86086843816082" lon="12.264469787822883"><ele>65.0</ele><time>2026-04-25T13:20:51Z</time></trkpt><trkpt lat="45.86096921645953" lon="12.26460773062816"><ele>65.0</ele><time>2026-04-25T13:20:52Z</time></trkpt><trkpt lat="45.861064640959675" lon="12.264738360097802"><ele>65.0</ele><time>2026-04-25T13:20:53Z</time></trkpt><trkpt lat="45.86115459951919" lon="12.264865723772397"><ele>64.6</ele><time>2026-04-25T13:20:54Z</time></trkpt><trkpt lat="45.8612369488885" lon="12.264990454268561"><ele>64.2</ele><time>2026-04-25T13:20:55Z</time></trkpt><trkpt lat="45.861316937552274" lon="12.26511043864528"><ele>63.8</ele><time>2026-04-25T13:20:56Z</time></trkpt><trkpt lat="45.86139600742464" lon="12.265226499603754"><ele>63.4</ele><time>2026-04-25T13:20:57Z</time></trkpt><trkpt lat="45.86146324645068" lon="12.26532706970304"><ele>63.0</ele><time>2026-04-25T13:20:58Z</time></trkpt><trkpt lat="45.86152211588455" lon="12.265426675423175"><ele>63.0</ele><time>2026-04-25T13:20:59Z</time></trkpt><trkpt lat="45.86156343140787" lon="12.265533767338724"><ele>63.0</ele><time>2026-04-25T13:21:00Z</time></trkpt><trkpt lat="45.86159431597859" lon="12.265653589927044"><ele>63.0</ele><time>2026-04-25T13:21:01Z</time></trkpt><trkpt lat="45.86164001039385" lon="12.265772953967595"><ele>63.0</ele><time>2026-04-25T13:21:02Z</time></trkpt><trkpt lat="45.861723726920786" lon="12.265855494286393"><ele>63.0</ele><time>2026-04-25T13:21:03Z</time></trkpt><trkpt lat="45.86182319093307" lon="12.265895507439206"><ele>62.75</ele><time>2026-04-25T13:21:04Z</time></trkpt><trkpt lat="45.861930424830504" lon="12.26594987057763"><ele>62.5</ele><time>2026-04-25T13:21:05Z</time></trkpt><trkpt lat="45.8620338927258" lon="12.266039466121642"><ele>62.25</ele><time>2026-04-25T13:21:06Z</time></trkpt><trkpt lat="45.86213403777896" lon="12.266162101011897"><ele>62.0</ele><time>2026-04-25T13:21:07Z</time></trkpt><trkpt lat="45.862234998763064" lon="12.266294711325557"><ele>62.0</ele><time>2026-04-25T13:21:08Z</time></trkpt><trkpt lat="45.86233969603458" lon="12.266433424045534"><ele>62.0</ele><time>2026-04-25T13:21:09Z</time></trkpt><trkpt lat="45.8624482086135" lon="12.266576205336724"><ele>62.0</ele><time>2026-04-25T13:21:10Z</time></trkpt><trkpt lat="45.862559469892176" lon="12.266729076144712"><ele>62.0</ele><time>2026-04-25T13:21:11Z</time></trkpt><trkpt lat="45.862672700807124" lon="12.266883081228134"><ele>61.75</ele><time>2026-04-25T13:21:12Z</time></trkpt><trkpt lat="45.86278697318183" lon="12.267034053525926"><ele>61.5</ele><time>2026-04-25T13:21:13Z</time></trkpt><trkpt lat="45.86289380705209" lon="12.26717147215152"><ele>61.25</ele><time>2026-04-25T13:21:14Z</time></trkpt><trkpt lat="45.862984369644565" lon="12.267287564488889"><ele>61.0</ele><time>2026-04-25T13:21:15Z</time></trkpt><trkpt lat="45.86306953821831" lon="12.267405079848237"><ele>61.0</ele><time>2026-04-25T13:21:16Z</time></trkpt><trkpt lat="45.8631520779498" lon="12.267519647271818"><ele>61.0</ele><time>2026-04-25T13:21:17Z</time></trkpt><trkpt lat="45.86323682162722" lon="12.267634539883476"><ele>61.0</ele><time>2026-04-25T13:21:18Z</time></trkpt><trkpt lat="45.86332225633814" lon="12.267749474791035"><ele>61.0</ele><time>2026-04-25T13:21:19Z</time></trkpt><trkpt lat="45.86341099773665" lon="12.267868687931438"><ele>61.0</ele><time>2026-04-25T13:21:20Z</time></trkpt><trkpt lat="45.86350275863618" lon="12.26799180024448"><ele>61.0</ele><time>2026-04-25T13:21:21Z</time></trkpt><trkpt lat="45.86359689007685" lon="12.268116706311769"><ele>61.0</ele><time>2026-04-25T13:21:22Z</time></trkpt><trkpt lat="45.8636917757213" lon="12.268245322380572"><ele>61.0</ele><time>2026-04-25T13:21:23Z</time></trkpt><trkpt lat="45.86378899233168" lon="12.268378328183971"><ele>61.25</ele><time>2026-04-25T13:21:24Z</time></trkpt><trkpt lat="45.86389114905425" lon="12.268513870254088"><ele>61.5</ele><time>2026-04-25T13:21:25Z</time></trkpt><trkpt lat="45.863995032520215" lon="12.26865346906812"><ele>61.75</ele><time>2026-04-25T13:21:26Z</time></trkpt><trkpt lat="45.86410024530221" lon="12.268793313836083"><ele>62.0</ele><time>2026-04-25T13:21:27Z</time></trkpt><trkpt lat="45.86420555748425" lon="12.26893353611883"><ele>62.0</ele><time>2026-04-25T13:21:28Z</time></trkpt><trkpt lat="45.864311588719524" lon="12.26907485899941"><ele>62.0</ele><time>2026-04-25T13:21:29Z</time></trkpt><trkpt lat="45.86441906006196" lon="12.26921949710943"><ele>62.0</ele><time>2026-04-25T13:21:30Z</time></trkpt><trkpt lat="45.864527230831804" lon="12.269364813019733"><ele>62.0</ele><time>2026-04-25T13:21:31Z</time></trkpt><trkpt lat="45.86463696517141" lon="12.269511627679348"><ele>62.0</ele><time>2026-04-25T13:21:32Z</time></trkpt><trkpt lat="45.86474827140081" lon="12.269659273733517"><ele>62.0</ele><time>2026-04-25T13:21:33Z</time></trkpt><trkpt lat="45.86485579395836" lon="12.269803324634308"><ele>62.0</ele><time>2026-04-25T13:21:34Z</time></trkpt><trkpt lat="45.86496145597179" lon="12.269945579169029"><ele>62.0</ele><time>2026-04-25T13:21:35Z</time></trkpt><trkpt lat="45.86506008304152" lon="12.270079471338251"><ele>61.75</ele><time>2026-04-25T13:21:36Z</time></trkpt><trkpt lat="45.86515472945657" lon="12.27020221722459"><ele>61.5</ele><time>2026-04-25T13:21:37Z</time></trkpt><trkpt lat="45.86524447977892" lon="12.27031849024851"><ele>61.25</ele><time>2026-04-25T13:21:38Z</time></trkpt><trkpt lat="45.865330606199535" lon="12.270429492728857"><ele>61.0</ele><time>2026-04-25T13:21:39Z</time></trkpt><trkpt lat="45.86540888189218" lon="12.270533652485177"><ele>60.8</ele><time>2026-04-25T13:21:40Z</time></trkpt><trkpt lat="45.86548243452727" lon="12.270632899644943"><ele>60.599999999999994</ele><time>2026-04-25T13:21:41Z</time></trkpt><trkpt lat="45.86555397853598" lon="12.270721223840194"><ele>60.4</ele><time>2026-04-25T13:21:42Z</time></trkpt><trkpt lat="45.86562372888781" lon="12.270794460828888"><ele>60.2</ele><time>2026-04-25T13:21:43Z</time></trkpt><trkpt lat="45.86569931701979" lon="12.270855502516726"><ele>60.0</ele><time>2026-04-25T13:21:44Z</time></trkpt><trkpt lat="45.86577683018353" lon="12.27091006928948"><ele>60.0</ele><time>2026-04-25T13:21:45Z</time></trkpt><trkpt lat="45.86584605359024" lon="12.27098903860724"><ele>60.0</ele><time>2026-04-25T13:21:46Z</time></trkpt><trkpt lat="45.86590842711515" lon="12.271091675277459"><ele>60.0</ele><time>2026-04-25T13:21:47Z</time></trkpt><trkpt lat="45.865967478067795" lon="12.271206955249001"><ele>60.0</ele><time>2026-04-25T13:21:48Z</time></trkpt><trkpt lat="45.866039773743466" lon="12.271314285073615"><ele>60.0</ele><time>2026-04-25T13:21:49Z</time></trkpt><trkpt lat="45.86612735168851" lon="12.271405688149423"><ele>60.5</ele><time>2026-04-25T13:21:50Z</time></trkpt><trkpt lat="45.86622580469512" lon="12.271490937651237"><ele>61.0</ele><time>2026-04-25T13:21:51Z</time></trkpt><trkpt lat="45.866324538889046" lon="12.271591218355253"><ele>61.5</ele><time>2026-04-25T13:21:52Z</time></trkpt><trkpt lat="45.866423183808955" lon="12.271730772475102"><ele>62.0</ele><time>2026-04-25T13:21:53Z</time></trkpt><trkpt lat="45.86651905820937" lon="12.271902918795789"><ele>62.0</ele><time>2026-04-25T13:21:54Z</time></trkpt><trkpt lat="45.866620632954294" lon="12.272094094474358"><ele>62.0</ele><time>2026-04-25T13:21:55Z</time></trkpt><trkpt lat="45.86673923742765" lon="12.272267237893779"><ele>62.0</ele><time>2026-04-25T13:21:56Z</time></trkpt><trkpt lat="45.86686897147104" lon="12.272454571592835"><ele>62.0</ele><time>2026-04-25T13:21:57Z</time></trkpt><trkpt lat="45.86701271638853" lon="12.272644315321056"><ele>62.0</ele><time>2026-04-25T13:21:58Z</time></trkpt><trkpt lat="45.86715192992107" lon="12.272828072957259"><ele>62.0</ele><time>2026-04-25T13:21:59Z</time></trkpt><trkpt lat="45.86728469642563" lon="12.273003035681938"><ele>61.333333333333336</ele><time>2026-04-25T13:22:00Z</time></trkpt><trkpt lat="45.867411033511885" lon="12.273169524328662"><ele>60.66666666666667</ele><time>2026-04-25T13:22:01Z</time></trkpt><trkpt lat="45.86754208494956" lon="12.27330930999509"><ele>60.0</ele><time>2026-04-25T13:22:02Z</time></trkpt><trkpt lat="45.86765241956124" lon="12.273458068576405"><ele>60.0</ele><time>2026-04-25T13:22:03Z</time></trkpt><trkpt lat="45.867758034191084" lon="12.273597442353841"><ele>60.0</ele><time>2026-04-25T13:22:04Z</time></trkpt><trkpt lat="45.86785642944056" lon="12.273730379448395"><ele>60.0</ele><time>2026-04-25T13:22:05Z</time></trkpt><trkpt lat="45.867950056371036" lon="12.273856576849262"><ele>60.0</ele><time>2026-04-25T13:22:06Z</time></trkpt><trkpt lat="45.86804145908068" lon="12.273973656466596"><ele>59.8</ele><time>2026-04-25T13:22:07Z</time></trkpt><trkpt lat="45.868126551837484" lon="12.274084754966296"><ele>59.6</ele><time>2026-04-25T13:22:08Z</time></trkpt><trkpt lat="45.8682064942164" lon="12.274186708249566"><ele>59.400000000000006</ele><time>2026-04-25T13:22:09Z</time></trkpt><trkpt lat="45.86828142572417" lon="12.274284236968478"><ele>59.2</ele><time>2026-04-25T13:22:10Z</time></trkpt><trkpt lat="45.868351856947626" lon="12.2743791200896"><ele>59.0</ele><time>2026-04-25T13:22:11Z</time></trkpt><trkpt lat="45.86842288948302" lon="12.27447045542734"><ele>59.0</ele><time>2026-04-25T13:22:12Z</time></trkpt><trkpt lat="45.86849367702969" lon="12.274565127362795"><ele>59.00000000000001</ele><time>2026-04-25T13:22:13Z</time></trkpt><trkpt lat="45.86856219870436" lon="12.274661905323628"><ele>59.00000000000001</ele><time>2026-04-25T13:22:14Z</time></trkpt><trkpt lat="45.8686318806265" lon="12.274760914302702"><ele>59.0</ele><time>2026-04-25T13:22:15Z</time></trkpt><trkpt lat="45.86870271728483" lon="12.274864360927262"><ele>59.0</ele><time>2026-04-25T13:22:16Z</time></trkpt><trkpt lat="45.86877313317217" lon="12.274968534807995"><ele>59.2</ele><time>2026-04-25T13:22:17Z</time></trkpt><trkpt lat="45.86884258956571" lon="12.275070272631734"><ele>59.400000000000006</ele><time>2026-04-25T13:22:18Z</time></trkpt><trkpt lat="45.868913064436235" lon="12.275170559005117"><ele>59.6</ele><time>2026-04-25T13:22:19Z</time></trkpt><trkpt lat="45.86898790460704" lon="12.275269875146943"><ele>59.8</ele><time>2026-04-25T13:22:20Z</time></trkpt><trkpt lat="45.86906772912628" lon="12.275372602769671"><ele>60.0</ele><time>2026-04-25T13:22:21Z</time></trkpt><trkpt lat="45.86915086871977" lon="12.275481383693249"><ele>60.0</ele><time>2026-04-25T13:22:22Z</time></trkpt><trkpt lat="45.869236439856074" lon="12.275596024558736"><ele>60.0</ele><time>2026-04-25T13:22:23Z</time></trkpt><trkpt lat="45.869324457127895" lon="12.275708200851765"><ele>60.0</ele><time>2026-04-25T13:22:24Z</time></trkpt><trkpt lat="45.869415124368004" lon="12.275814248622492"><ele>60.0</ele><time>2026-04-25T13:22:25Z</time></trkpt><trkpt lat="45.86950457354572" lon="12.275920167504681"><ele>59.5</ele><time>2026-04-25T13:22:26Z</time></trkpt><trkpt lat="45.869594327124396" lon="12.27602982730439"><ele>59.0</ele><time>2026-04-25T13:22:27Z</time></trkpt><trkpt lat="45.86968401184298" lon="12.27614219460554"><ele>58.5</ele><time>2026-04-25T13:22:28Z</time></trkpt><trkpt lat="45.86977523765672" lon="12.276258466839211"><ele>58.0</ele><time>2026-04-25T13:22:29Z</time></trkpt><trkpt lat="45.86986589639139" lon="12.27637557303146"><ele>58.2</ele><time>2026-04-25T13:22:30Z</time></trkpt><trkpt lat="45.869954613414926" lon="12.276490268757115"><ele>58.4</ele><time>2026-04-25T13:22:31Z</time></trkpt><trkpt lat="45.870039533061735" lon="12.276601399341656"><ele>58.60000000000001</ele><time>2026-04-25T13:22:32Z</time></trkpt><trkpt lat="45.87011880202368" lon="12.276707889271039"><ele>58.800000000000004</ele><time>2026-04-25T13:22:33Z</time></trkpt><trkpt lat="45.870195843024696" lon="12.276809634327348"><ele>59.0</ele><time>2026-04-25T13:22:34Z</time></trkpt><trkpt lat="45.87027044865878" lon="12.276909183500337"><ele>59.0</ele><time>2026-04-25T13:22:35Z</time></trkpt><trkpt lat="45.870345438144156" lon="12.277007554132952"><ele>59.00000000000001</ele><time>2026-04-25T13:22:36Z</time></trkpt><trkpt lat="45.870419302388065" lon="12.277105811229692"><ele>59.00000000000001</ele><time>2026-04-25T13:22:37Z</time></trkpt><trkpt lat="45.870492790874486" lon="12.277203732481098"><ele>59.0</ele><time>2026-04-25T13:22:38Z</time></trkpt><trkpt lat="45.87056710083237" lon="12.277302691460648"><ele>59.0</ele><time>2026-04-25T13:22:39Z</time></trkpt><trkpt lat="45.8706408634392" lon="12.27739940772913"><ele>58.800000000000004</ele><time>2026-04-25T13:22:40Z</time></trkpt><trkpt lat="45.870713606016025" lon="12.277497693115915"><ele>58.60000000000001</ele><time>2026-04-25T13:22:41Z</time></trkpt><trkpt lat="45.87078929692921" lon="12.277598900340582"><ele>58.4</ele><time>2026-04-25T13:22:42Z</time></trkpt><trkpt lat="45.870867878524294" lon="12.277703505767418"><ele>58.2</ele><time>2026-04-25T13:22:43Z</time></trkpt><trkpt lat="45.870948403265984" lon="12.277809093319174"><ele>58.0</ele><time>2026-04-25T13:22:44Z</time></trkpt><trkpt lat="45.87102973481617" lon="12.277916815511743"><ele>58.0</ele><time>2026-04-25T13:22:45Z</time></trkpt><trkpt lat="45.87111100289315" lon="12.278026870583352"><ele>58.0</ele><time>2026-04-25T13:22:46Z</time></trkpt><trkpt lat="45.871196457783064" lon="12.278134951913426"><ele>58.0</ele><time>2026-04-25T13:22:47Z</time></trkpt><trkpt lat="45.87127968528785" lon="12.278249245313905"><ele>58.0</ele><time>2026-04-25T13:22:48Z</time></trkpt><trkpt lat="45.87135885627027" lon="12.278350710734957"><ele>58.0</ele><time>2026-04-25T13:22:49Z</time></trkpt><trkpt lat="45.871431794778175" lon="12.278445468604884"><ele>58.2</ele><time>2026-04-25T13:22:50Z</time></trkpt><trkpt lat="45.87149809792723" lon="12.278536215603483"><ele>58.4</ele><time>2026-04-25T13:22:51Z</time></trkpt><trkpt lat="45.871564913598235" lon="12.278623672608248"><ele>58.60000000000001</ele><time>2026-04-25T13:22:52Z</time></trkpt><trkpt lat="45.87163185905296" lon="12.278713511397108"><ele>58.800000000000004</ele><time>2026-04-25T13:22:53Z</time></trkpt><trkpt lat="45.87169904475007" lon="12.27880386123558"><ele>59.0</ele><time>2026-04-25T13:22:54Z</time></trkpt><trkpt lat="45.87176775178881" lon="12.27889332986923"><ele>59.0</ele><time>2026-04-25T13:22:55Z</time></trkpt><trkpt lat="45.87183871332076" lon="12.278986137019142"><ele>59.00000000000001</ele><time>2026-04-25T13:22:56Z</time></trkpt><trkpt lat="45.87191397306253" lon="12.279081814858015"><ele>59.00000000000001</ele><time>2026-04-25T13:22:57Z</time></trkpt><trkpt lat="45.87199011473596" lon="12.279180818492621"><ele>59.0</ele><time>2026-04-25T13:22:58Z</time></trkpt><trkpt lat="45.872062491915116" lon="12.279271247031993"><ele>59.0</ele><time>2026-04-25T13:22:59Z</time></trkpt><trkpt lat="45.87212954768064" lon="12.279355102668925"><ele>59.00000000000001</ele><time>2026-04-25T13:23:00Z</time></trkpt><trkpt lat="45.872187998691466" lon="12.279427284438587"><ele>59.0</ele><time>2026-04-25T13:23:01Z</time></trkpt><trkpt lat="45.87223620403073" lon="12.279494937076317"><ele>59.0</ele><time>2026-04-25T13:23:02Z</time></trkpt><trkpt lat="45.87229789967334" lon="12.279575217562586"><ele>59.0</ele><time>2026-04-25T13:23:04Z</time></trkpt><trkpt lat="45.87237176646616" lon="12.279659448856265"><ele>59.00000000000001</ele><time>2026-04-25T13:23:07Z</time></trkpt><trkpt lat="45.87244030904825" lon="12.279743452647061"><ele>59.0</ele><time>2026-04-25T13:23:10Z</time></trkpt><trkpt lat="45.87249757783752" lon="12.279832547444103"><ele>58.800000000000004</ele><time>2026-04-25T13:23:13Z</time></trkpt><trkpt lat="45.872563566966285" lon="12.279922093160874"><ele>58.60000000000001</ele><time>2026-04-25T13:23:15Z</time></trkpt><trkpt lat="45.872663851979695" lon="12.280053499567833"><ele>58.4</ele><time>2026-04-25T13:23:17Z</time></trkpt><trkpt lat="45.872723208822464" lon="12.280134144755676"><ele>58.2</ele><time>2026-04-25T13:23:18Z</time></trkpt><trkpt lat="45.87278929567638" lon="12.280224785147562"><ele>58.0</ele><time>2026-04-25T13:23:19Z</time></trkpt><trkpt lat="45.87285975555863" lon="12.280324003101258"><ele>58.0</ele><time>2026-04-25T13:23:20Z</time></trkpt><trkpt lat="45.87293778934087" lon="12.28042367718286"><ele>58.0</ele><time>2026-04-25T13:23:21Z</time></trkpt><trkpt lat="45.87301496863064" lon="12.280527746938509"><ele>58.0</ele><time>2026-04-25T13:23:22Z</time></trkpt><trkpt lat="45.873092748035795" lon="12.28062823568566"><ele>58.0</ele><time>2026-04-25T13:23:23Z</time></trkpt><trkpt lat="45.87317088924194" lon="12.280727439849967"><ele>58.0</ele><time>2026-04-25T13:23:24Z</time></trkpt><trkpt lat="45.87324076420444" lon="12.280818207695702"><ele>57.8</ele><time>2026-04-25T13:23:25Z</time></trkpt><trkpt lat="45.8733025684171" lon="12.280898584311217"><ele>57.599999999999994</ele><time>2026-04-25T13:23:26Z</time></trkpt><trkpt lat="45.87335459847453" lon="12.2809653894782"><ele>57.400000000000006</ele><time>2026-04-25T13:23:27Z</time></trkpt><trkpt lat="45.87342945039239" lon="12.281062817447758"><ele>57.2</ele><time>2026-04-25T13:23:29Z</time></trkpt><trkpt lat="45.873489086635836" lon="12.281145837838961"><ele>57.0</ele><time>2026-04-25T13:23:31Z</time></trkpt><trkpt lat="45.87357238812979" lon="12.281257935685115"><ele>57.2</ele><time>2026-04-25T13:23:33Z</time></trkpt><trkpt lat="45.87363271284675" lon="12.28133643593798"><ele>57.400000000000006</ele><time>2026-04-25T13:23:34Z</time></trkpt><trkpt lat="45.87370248486324" lon="12.28142706689371"><ele>57.599999999999994</ele><time>2026-04-25T13:23:35Z</time></trkpt><trkpt lat="45.8737881001161" lon="12.281533672871273"><ele>57.8</ele><time>2026-04-25T13:23:36Z</time></trkpt><trkpt lat="45.87387593597386" lon="12.281647696143388"><ele>58.0</ele><time>2026-04-25T13:23:37Z</time></trkpt><trkpt lat="45.87396270582783" lon="12.281759205357536"><ele>58.0</ele><time>2026-04-25T13:23:38Z</time></trkpt><trkpt lat="45.87404765231821" lon="12.281871607747586"><ele>58.0</ele><time>2026-04-25T13:23:39Z</time></trkpt><trkpt lat="45.87413547583401" lon="12.281989583419568"><ele>58.0</ele><time>2026-04-25T13:23:40Z</time></trkpt><trkpt lat="45.87422480387103" lon="12.282104232771529"><ele>58.0</ele><time>2026-04-25T13:23:41Z</time></trkpt><trkpt lat="45.87431472814245" lon="12.282224351858611"><ele>58.0</ele><time>2026-04-25T13:23:42Z</time></trkpt><trkpt lat="45.87440228113287" lon="12.282344871947323"><ele>58.0</ele><time>2026-04-25T13:23:43Z</time></trkpt><trkpt lat="45.87447930272061" lon="12.282460575332673"><ele>58.0</ele><time>2026-04-25T13:23:44Z</time></trkpt><trkpt lat="45.87455118682551" lon="12.282572415235949"><ele>58.0</ele><time>2026-04-25T13:23:45Z</time></trkpt><trkpt lat="45.874616617674214" lon="12.282678201577697"><ele>58.0</ele><time>2026-04-25T13:23:46Z</time></trkpt><trkpt lat="45.87467551839729" lon="12.282780229230745"><ele>57.99999999999999</ele><time>2026-04-25T13:23:47Z</time></trkpt><trkpt lat="45.87472722192806" lon="12.282878405470257"><ele>58.0</ele><time>2026-04-25T13:23:48Z</time></trkpt><trkpt lat="45.87477832332099" lon="12.282978348135327"><ele>58.0</ele><time>2026-04-25T13:23:49Z</time></trkpt><trkpt lat="45.87482333847194" lon="12.283077980429278"><ele>58.0</ele><time>2026-04-25T13:23:50Z</time></trkpt><trkpt lat="45.87485917633299" lon="12.28318108098515"><ele>57.99999999999999</ele><time>2026-04-25T13:23:51Z</time></trkpt><trkpt lat="45.874877144594905" lon="12.283282944247958"><ele>58.0</ele><time>2026-04-25T13:23:52Z</time></trkpt><trkpt lat="45.874900068823244" lon="12.283400486349334"><ele>57.599999999999994</ele><time>2026-04-25T13:23:54Z</time></trkpt><trkpt lat="45.874869835620245" lon="12.283528344674474"><ele>57.199999999999996</ele><time>2026-04-25T13:23:56Z</time></trkpt><trkpt lat="45.8748753245643" lon="12.283623630182682"><ele>56.8</ele><time>2026-04-25T13:23:57Z</time></trkpt><trkpt lat="45.8748977200448" lon="12.283739689688074"><ele>56.4</ele><time>2026-04-25T13:23:58Z</time></trkpt><trkpt lat="45.87495557899779" lon="12.283860017468935"><ele>56.0</ele><time>2026-04-25T13:23:59Z</time></trkpt><trkpt lat="45.87501792728311" lon="12.28398534993668"><ele>56.0</ele><time>2026-04-25T13:24:00Z</time></trkpt><trkpt lat="45.87507162988012" lon="12.28411928651096"><ele>55.99999999999999</ele><time>2026-04-25T13:24:01Z</time></trkpt><trkpt lat="45.875109882174335" lon="12.284261876513481"><ele>55.99999999999999</ele><time>2026-04-25T13:24:02Z</time></trkpt><trkpt lat="45.87514317015142" lon="12.284411148183091"><ele>56.0</ele><time>2026-04-25T13:24:03Z</time></trkpt><trkpt lat="45.87518014354282" lon="12.284570368538978"><ele>56.0</ele><time>2026-04-25T13:24:04Z</time></trkpt><trkpt lat="45.8752180865437" lon="12.28473055970253"><ele>56.75</ele><time>2026-04-25T13:24:05Z</time></trkpt><trkpt lat="45.875255581576" lon="12.284899633970264"><ele>57.5</ele><time>2026-04-25T13:24:06Z</time></trkpt><trkpt lat="45.87529339833753" lon="12.285071015982645"><ele>58.25</ele><time>2026-04-25T13:24:07Z</time></trkpt><trkpt lat="45.87533094096217" lon="12.285246469449222"><ele>59.0</ele><time>2026-04-25T13:24:08Z</time></trkpt><trkpt lat="45.875367739813534" lon="12.285422297954064"><ele>58.5</ele><time>2026-04-25T13:24:09Z</time></trkpt><trkpt lat="45.87540409570356" lon="12.285597461661105"><ele>58.0</ele><time>2026-04-25T13:24:10Z</time></trkpt><trkpt lat="45.8754408932833" lon="12.285774480798937"><ele>57.5</ele><time>2026-04-25T13:24:11Z</time></trkpt><trkpt lat="45.875476873468926" lon="12.28595204642608"><ele>57.0</ele><time>2026-04-25T13:24:12Z</time></trkpt><trkpt lat="45.87550991016343" lon="12.286131678609678"><ele>57.0</ele><time>2026-04-25T13:24:13Z</time></trkpt><trkpt lat="45.87554019099613" lon="12.286316235293025"><ele>57.0</ele><time>2026-04-25T13:24:14Z</time></trkpt><trkpt lat="45.87556645991268" lon="12.28650832823204"><ele>57.0</ele><time>2026-04-25T13:24:15Z</time></trkpt><trkpt lat="45.87558750139128" lon="12.286705421522669"><ele>57.0</ele><time>2026-04-25T13:24:16Z</time></trkpt><trkpt lat="45.87560428009908" lon="12.286909517564434"><ele>56.75</ele><time>2026-04-25T13:24:17Z</time></trkpt><trkpt lat="45.875615003838604" lon="12.287114608008174"><ele>56.5</ele><time>2026-04-25T13:24:18Z</time></trkpt><trkpt lat="45.87562123922095" lon="12.287317842413339"><ele>56.25</ele><time>2026-04-25T13:24:19Z</time></trkpt><trkpt lat="45.87562630721667" lon="12.287514938864097"><ele>56.0</ele><time>2026-04-25T13:24:20Z</time></trkpt><trkpt lat="45.87563189166009" lon="12.287703616705203"><ele>55.75</ele><time>2026-04-25T13:24:21Z</time></trkpt><trkpt lat="45.875636542804386" lon="12.287887832135963"><ele>55.5</ele><time>2026-04-25T13:24:22Z</time></trkpt><trkpt lat="45.87564103710876" lon="12.288064104498218"><ele>55.25</ele><time>2026-04-25T13:24:23Z</time></trkpt><trkpt lat="45.87564846319784" lon="12.288234647601698"><ele>55.0</ele><time>2026-04-25T13:24:24Z</time></trkpt><trkpt lat="45.87565263698856" lon="12.288408292798072"><ele>55.5</ele><time>2026-04-25T13:24:25Z</time></trkpt><trkpt lat="45.87565683193071" lon="12.288581383461704"><ele>56.0</ele><time>2026-04-25T13:24:26Z</time></trkpt><trkpt lat="45.87565963390306" lon="12.28875512554021"><ele>56.5</ele><time>2026-04-25T13:24:27Z</time></trkpt><trkpt lat="45.87566407007963" lon="12.288930053927526"><ele>57.0</ele><time>2026-04-25T13:24:28Z</time></trkpt><trkpt lat="45.87567030638661" lon="12.289105693431177"><ele>57.0</ele><time>2026-04-25T13:24:29Z</time></trkpt><trkpt lat="45.87567665481114" lon="12.289287772158378"><ele>57.0</ele><time>2026-04-25T13:24:30Z</time></trkpt><trkpt lat="45.87568674165007" lon="12.28947466892755"><ele>57.0</ele><time>2026-04-25T13:24:31Z</time></trkpt><trkpt lat="45.875692595038615" lon="12.28966868671385"><ele>57.0</ele><time>2026-04-25T13:24:32Z</time></trkpt><trkpt lat="45.87569756702316" lon="12.289865918692017"><ele>56.25</ele><time>2026-04-25T13:24:33Z</time></trkpt><trkpt lat="45.87570760101187" lon="12.290067133818948"><ele>55.5</ele><time>2026-04-25T13:24:34Z</time></trkpt><trkpt lat="45.87571613779978" lon="12.290271986300006"><ele>54.75</ele><time>2026-04-25T13:24:35Z</time></trkpt><trkpt lat="45.87572185628833" lon="12.29047561144474"><ele>54.0</ele><time>2026-04-25T13:24:36Z</time></trkpt><trkpt lat="45.87572916941917" lon="12.290669893924376"><ele>54.0</ele><time>2026-04-25T13:24:37Z</time></trkpt><trkpt lat="45.875738206346384" lon="12.290864654695099"><ele>54.0</ele><time>2026-04-25T13:24:38Z</time></trkpt><trkpt lat="45.875741938789" lon="12.29104761458654"><ele>54.0</ele><time>2026-04-25T13:24:38.999Z</time></trkpt><trkpt lat="45.87574788468" lon="12.291218892181126"><ele>54.0</ele><time>2026-04-25T13:24:39.999Z</time></trkpt><trkpt lat="45.87575343749656" lon="12.29137972847282"><ele>54.6</ele><time>2026-04-25T13:24:40.999Z</time></trkpt><trkpt lat="45.87575839114519" lon="12.291536163091141"><ele>55.2</ele><time>2026-04-25T13:24:41.999Z</time></trkpt><trkpt lat="45.87576095976817" lon="12.291689513692342"><ele>55.800000000000004</ele><time>2026-04-25T13:24:42.999Z</time></trkpt><trkpt lat="45.875768292848264" lon="12.291844016366092"><ele>56.400000000000006</ele><time>2026-04-25T13:24:43.999Z</time></trkpt><trkpt lat="45.87577467574915" lon="12.291997552876696"><ele>57.0</ele><time>2026-04-25T13:24:44.999Z</time></trkpt><trkpt lat="45.87578365109757" lon="12.292153839529782"><ele>56.6</ele><time>2026-04-25T13:24:45.999Z</time></trkpt><trkpt lat="45.875789012645384" lon="12.292307109833391"><ele>56.2</ele><time>2026-04-25T13:24:46.999Z</time></trkpt><trkpt lat="45.87579349703016" lon="12.292453568344088"><ele>55.8</ele><time>2026-04-25T13:24:47.999Z</time></trkpt><trkpt lat="45.87579404814486" lon="12.292592142428107"><ele>55.4</ele><time>2026-04-25T13:24:48.999Z</time></trkpt><trkpt lat="45.87579662306291" lon="12.29272309507041"><ele>55.0</ele><time>2026-04-25T13:24:49.999Z</time></trkpt><trkpt lat="45.87580037819629" lon="12.29284883403551"><ele>54.99999999999999</ele><time>2026-04-25T13:24:50.999Z</time></trkpt><trkpt lat="45.875805820460165" lon="12.292969432775415"><ele>55.0</ele><time>2026-04-25T13:24:52Z</time></trkpt><trkpt lat="45.87581292904232" lon="12.293091014691873"><ele>55.0</ele><time>2026-04-25T13:24:53Z</time></trkpt><trkpt lat="45.87582006775581" lon="12.293210672093002"><ele>55.0</ele><time>2026-04-25T13:24:54Z</time></trkpt><trkpt lat="45.87582548955094" lon="12.293330464928822"><ele>54.99999999999999</ele><time>2026-04-25T13:24:55Z</time></trkpt><trkpt lat="45.875828175112034" lon="12.293447138911567"><ele>55.0</ele><time>2026-04-25T13:24:56Z</time></trkpt><trkpt lat="45.87582413729797" lon="12.293557550408153"><ele>54.99999999999999</ele><time>2026-04-25T13:24:57Z</time></trkpt><trkpt lat="45.87581406889545" lon="12.293663554547534"><ele>55.0</ele><time>2026-04-25T13:24:58Z</time></trkpt><trkpt lat="45.87579301276917" lon="12.293762016993076"><ele>55.0</ele><time>2026-04-25T13:24:59Z</time></trkpt><trkpt lat="45.87576663483299" lon="12.293864966014596"><ele>55.0</ele><time>2026-04-25T13:25:00Z</time></trkpt><trkpt lat="45.87575099146261" lon="12.293980750300394"><ele>54.99999999999999</ele><time>2026-04-25T13:25:01Z</time></trkpt><trkpt lat="45.87576111116773" lon="12.294102378865643"><ele>55.0</ele><time>2026-04-25T13:25:02Z</time></trkpt><trkpt lat="45.87579234581213" lon="12.294222261288768"><ele>55.0</ele><time>2026-04-25T13:25:03Z</time></trkpt><trkpt lat="45.87585834248201" lon="12.294340193002808"><ele>55.0</ele><time>2026-04-25T13:25:04Z</time></trkpt><trkpt lat="45.87592753570279" lon="12.29446885760382"><ele>55.0</ele><time>2026-04-25T13:25:05Z</time></trkpt><trkpt lat="45.87597548952853" lon="12.29463516237118"><ele>55.0</ele><time>2026-04-25T13:25:06Z</time></trkpt><trkpt lat="45.876015566064254" lon="12.29482419878947"><ele>55.33333333333333</ele><time>2026-04-25T13:25:07Z</time></trkpt><trkpt lat="45.87605608707034" lon="12.295034295480942"><ele>55.66666666666667</ele><time>2026-04-25T13:25:08Z</time></trkpt><trkpt lat="45.87609694484565" lon="12.29524575424149"><ele>56.0</ele><time>2026-04-25T13:25:09Z</time></trkpt><trkpt lat="45.876146172957974" lon="12.295473370336529"><ele>56.0</ele><time>2026-04-25T13:25:10Z</time></trkpt><trkpt lat="45.87619863356959" lon="12.29570893124673"><ele>56.0</ele><time>2026-04-25T13:25:11Z</time></trkpt><trkpt lat="45.87625882531458" lon="12.295944868052711"><ele>56.0</ele><time>2026-04-25T13:25:12Z</time></trkpt><trkpt lat="45.87631289766618" lon="12.296209176890905"><ele>56.333333333333336</ele><time>2026-04-25T13:25:13Z</time></trkpt><trkpt lat="45.87635831916213" lon="12.296490339918476"><ele>56.66666666666667</ele><time>2026-04-25T13:25:14Z</time></trkpt><trkpt lat="45.87640523771122" lon="12.29677409525193"><ele>57.0</ele><time>2026-04-25T13:25:15Z</time></trkpt><trkpt lat="45.87645757986435" lon="12.297057143130345"><ele>57.0</ele><time>2026-04-25T13:25:16Z</time></trkpt><trkpt lat="45.876509547376095" lon="12.297338483458347"><ele>57.0</ele><time>2026-04-25T13:25:17Z</time></trkpt><trkpt lat="45.87656065019284" lon="12.297620320423045"><ele>57.0</ele><time>2026-04-25T13:25:18Z</time></trkpt><trkpt lat="45.87661406584331" lon="12.29789263179686"><ele>57.0</ele><time>2026-04-25T13:25:19Z</time></trkpt><trkpt lat="45.87666824098088" lon="12.298155776932353"><ele>57.0</ele><time>2026-04-25T13:25:20Z</time></trkpt><trkpt lat="45.87671981265781" lon="12.298412477200992"><ele>57.0</ele><time>2026-04-25T13:25:21Z</time></trkpt><trkpt lat="45.87677161289383" lon="12.298658786164221"><ele>57.0</ele><time>2026-04-25T13:25:22Z</time></trkpt><trkpt lat="45.876817669941204" lon="12.298893725167153"><ele>57.0</ele><time>2026-04-25T13:25:23Z</time></trkpt><trkpt lat="45.87686355386868" lon="12.29913382121584"><ele>57.0</ele><time>2026-04-25T13:25:24Z</time></trkpt><trkpt lat="45.876907829367696" lon="12.299366088633434"><ele>57.0</ele><time>2026-04-25T13:25:25Z</time></trkpt><trkpt lat="45.87695397145351" lon="12.299594094858156"><ele>57.0</ele><time>2026-04-25T13:25:26Z</time></trkpt><trkpt lat="45.876997838200595" lon="12.29981654312959"><ele>57.0</ele><time>2026-04-25T13:25:27Z</time></trkpt><trkpt lat="45.87704094056369" lon="12.300038877261628"><ele>56.33333333333333</ele><time>2026-04-25T13:25:28Z</time></trkpt><trkpt lat="45.87708231645432" lon="12.300260001596573"><ele>55.666666666666664</ele><time>2026-04-25T13:25:29Z</time></trkpt><trkpt lat="45.877124995415684" lon="12.300486099974679"><ele>55.0</ele><time>2026-04-25T13:25:30Z</time></trkpt><trkpt lat="45.87717003267024" lon="12.300704681495361"><ele>55.0</ele><time>2026-04-25T13:25:31Z</time></trkpt><trkpt lat="45.87720754029882" lon="12.300915310052542"><ele>55.0</ele><time>2026-04-25T13:25:32Z</time></trkpt><trkpt lat="45.87724657924201" lon="12.301111722038728"><ele>55.0</ele><time>2026-04-25T13:25:33Z</time></trkpt><trkpt lat="45.87728321886267" lon="12.3012959457694"><ele>55.0</ele><time>2026-04-25T13:25:34Z</time></trkpt><trkpt lat="45.87732039837846" lon="12.301478084599701"><ele>55.0</ele><time>2026-04-25T13:25:35Z</time></trkpt><trkpt lat="45.877358108806334" lon="12.301658660636907"><ele>55.0</ele><time>2026-04-25T13:25:36Z</time></trkpt><trkpt lat="45.8773912432808" lon="12.30184109205029"><ele>55.0</ele><time>2026-04-25T13:25:37Z</time></trkpt><trkpt lat="45.8774207231607" lon="12.302022994748166"><ele>55.0</ele><time>2026-04-25T13:25:38Z</time></trkpt><trkpt lat="45.877457223362924" lon="12.302207803515826"><ele>55.0</ele><time>2026-04-25T13:25:39Z</time></trkpt><trkpt lat="45.877492339422346" lon="12.302389492753987"><ele>55.0</ele><time>2026-04-25T13:25:40Z</time></trkpt><trkpt lat="45.8775259910931" lon="12.302566438427403"><ele>55.0</ele><time>2026-04-25T13:25:41Z</time></trkpt><trkpt lat="45.877558972751885" lon="12.302749124167912"><ele>55.0</ele><time>2026-04-25T13:25:42Z</time></trkpt><trkpt lat="45.87759422457229" lon="12.30293256243399"><ele>55.25</ele><time>2026-04-25T13:25:43Z</time></trkpt><trkpt lat="45.87763245769853" lon="12.303126531058865"><ele>55.5</ele><time>2026-04-25T13:25:44Z</time></trkpt><trkpt lat="45.87767294997565" lon="12.303329141558745"><ele>55.75</ele><time>2026-04-25T13:25:45Z</time></trkpt><trkpt lat="45.87771313705971" lon="12.30353419857757"><ele>56.0</ele><time>2026-04-25T13:25:46Z</time></trkpt><trkpt lat="45.87775687919696" lon="12.303746996042312"><ele>55.333333333333336</ele><time>2026-04-25T13:25:47Z</time></trkpt><trkpt lat="45.87779845630871" lon="12.303968997588703"><ele>54.66666666666667</ele><time>2026-04-25T13:25:48Z</time></trkpt><trkpt lat="45.87784023506488" lon="12.304188405709459"><ele>54.0</ele><time>2026-04-25T13:25:49Z</time></trkpt><trkpt lat="45.87788444620863" lon="12.304405381436387"><ele>54.0</ele><time>2026-04-25T13:25:50Z</time></trkpt><trkpt lat="45.87792885222885" lon="12.304619606109677"><ele>54.0</ele><time>2026-04-25T13:25:51Z</time></trkpt><trkpt lat="45.87797319202803" lon="12.304829899082007"><ele>54.0</ele><time>2026-04-25T13:25:52Z</time></trkpt><trkpt lat="45.878016965842136" lon="12.305030158678397"><ele>53.5</ele><time>2026-04-25T13:25:53Z</time></trkpt><trkpt lat="45.87805867869061" lon="12.305224028682039"><ele>53.0</ele><time>2026-04-25T13:25:54Z</time></trkpt><trkpt lat="45.87809441767389" lon="12.30540159022745"><ele>52.5</ele><time>2026-04-25T13:25:55Z</time></trkpt><trkpt lat="45.878130667079894" lon="12.305574854182577"><ele>52.0</ele><time>2026-04-25T13:25:56Z</time></trkpt><trkpt lat="45.87816092364246" lon="12.305742077859012"><ele>52.0</ele><time>2026-04-25T13:25:57Z</time></trkpt><trkpt lat="45.87819087878619" lon="12.305897923188981"><ele>52.0</ele><time>2026-04-25T13:25:58Z</time></trkpt><trkpt lat="45.878218592905455" lon="12.306049491850558"><ele>52.0</ele><time>2026-04-25T13:25:59Z</time></trkpt><trkpt lat="45.87824721043411" lon="12.30619682013209"><ele>52.0</ele><time>2026-04-25T13:26:00Z</time></trkpt><trkpt lat="45.87827300831027" lon="12.306345365991184"><ele>52.0</ele><time>2026-04-25T13:26:01Z</time></trkpt><trkpt lat="45.87830023330511" lon="12.306495594115322"><ele>51.75</ele><time>2026-04-25T13:26:02Z</time></trkpt><trkpt lat="45.87833013276796" lon="12.306650936219848"><ele>51.5</ele><time>2026-04-25T13:26:03Z</time></trkpt><trkpt lat="45.87836243742141" lon="12.306809130173432"><ele>51.25</ele><time>2026-04-25T13:26:04Z</time></trkpt><trkpt lat="45.87839573841666" lon="12.306973222271218"><ele>51.0</ele><time>2026-04-25T13:26:05Z</time></trkpt><trkpt lat="45.87842580781373" lon="12.307133050732588"><ele>51.0</ele><time>2026-04-25T13:26:06Z</time></trkpt><trkpt lat="45.87845570591892" lon="12.307291302677216"><ele>51.0</ele><time>2026-04-25T13:26:07Z</time></trkpt><trkpt lat="45.87848616448207" lon="12.307448265456715"><ele>51.0</ele><time>2026-04-25T13:26:08Z</time></trkpt><trkpt lat="45.87851605332471" lon="12.307599446067519"><ele>51.0</ele><time>2026-04-25T13:26:09Z</time></trkpt><trkpt lat="45.87854314133227" lon="12.307746465117448"><ele>51.0</ele><time>2026-04-25T13:26:10Z</time></trkpt><trkpt lat="45.8785685660472" lon="12.307888002772115"><ele>51.0</ele><time>2026-04-25T13:26:11Z</time></trkpt><trkpt lat="45.87859467882171" lon="12.3080261116822"><ele>51.0</ele><time>2026-04-25T13:26:12Z</time></trkpt><trkpt lat="45.87862358301081" lon="12.308164137869223"><ele>51.0</ele><time>2026-04-25T13:26:13Z</time></trkpt><trkpt lat="45.878649116317206" lon="12.308299441178175"><ele>51.0</ele><time>2026-04-25T13:26:14Z</time></trkpt><trkpt lat="45.878675735454436" lon="12.308431873572566"><ele>51.0</ele><time>2026-04-25T13:26:15Z</time></trkpt><trkpt lat="45.87870110350932" lon="12.308566697200218"><ele>51.199999999999996</ele><time>2026-04-25T13:26:16Z</time></trkpt><trkpt lat="45.878723134980746" lon="12.308704250293669"><ele>51.4</ele><time>2026-04-25T13:26:17Z</time></trkpt><trkpt lat="45.87874883257754" lon="12.308843019253079"><ele>51.6</ele><time>2026-04-25T13:26:18Z</time></trkpt><trkpt lat="45.87877596211439" lon="12.30898176090889"><ele>51.8</ele><time>2026-04-25T13:26:19Z</time></trkpt><trkpt lat="45.878802150475444" lon="12.309122775924754"><ele>52.0</ele><time>2026-04-25T13:26:20Z</time></trkpt><trkpt lat="45.878829784086925" lon="12.309260346739435"><ele>52.0</ele><time>2026-04-25T13:26:21Z</time></trkpt><trkpt lat="45.87885763712266" lon="12.309397541436478"><ele>52.0</ele><time>2026-04-25T13:26:22Z</time></trkpt><trkpt lat="45.878882480460426" lon="12.309527946166316"><ele>52.0</ele><time>2026-04-25T13:26:23Z</time></trkpt><trkpt lat="45.87890761842393" lon="12.309660336187807"><ele>52.0</ele><time>2026-04-25T13:26:24Z</time></trkpt><trkpt lat="45.87893316859724" lon="12.309792872277267"><ele>52.0</ele><time>2026-04-25T13:26:25Z</time></trkpt><trkpt lat="45.8789609010332" lon="12.309923128650123"><ele>51.83333333333333</ele><time>2026-04-25T13:26:26Z</time></trkpt><trkpt lat="45.87898859477187" lon="12.310047920965555"><ele>51.666666666666664</ele><time>2026-04-25T13:26:27Z</time></trkpt><trkpt lat="45.8790168953186" lon="12.31015918864514"><ele>51.5</ele><time>2026-04-25T13:26:28Z</time></trkpt><trkpt lat="45.87904538327255" lon="12.3102662357205"><ele>51.33333333333333</ele><time>2026-04-25T13:26:29Z</time></trkpt><trkpt lat="45.879072150063045" lon="12.310367028538133"><ele>51.166666666666664</ele><time>2026-04-25T13:26:30Z</time></trkpt><trkpt lat="45.87909716270148" lon="12.310475749755543"><ele>51.0</ele><time>2026-04-25T13:26:31Z</time></trkpt><trkpt lat="45.87911981158381" lon="12.310587119384946"><ele>50.75</ele><time>2026-04-25T13:26:32Z</time></trkpt><trkpt lat="45.87914570225" lon="12.310718694395087"><ele>50.5</ele><time>2026-04-25T13:26:33Z</time></trkpt><trkpt lat="45.879184159868906" lon="12.31085660652984"><ele>50.25</ele><time>2026-04-25T13:26:34Z</time></trkpt><trkpt lat="45.87923124476132" lon="12.31100542982762"><ele>50.0</ele><time>2026-04-25T13:26:35Z</time></trkpt><trkpt lat="45.8793364262137" lon="12.3113143921246"><ele>50.2</ele><time>2026-04-25T13:26:37Z</time></trkpt><trkpt lat="45.87939680119923" lon="12.311461654741224"><ele>50.4</ele><time>2026-04-25T13:26:38Z</time></trkpt><trkpt lat="45.879454919794" lon="12.311597098726265"><ele>50.599999999999994</ele><time>2026-04-25T13:26:39Z</time></trkpt><trkpt lat="45.879513818225995" lon="12.311716160499214"><ele>50.8</ele><time>2026-04-25T13:26:40Z</time></trkpt><trkpt lat="45.87957901826515" lon="12.31182245202417"><ele>51.0</ele><time>2026-04-25T13:26:41Z</time></trkpt><trkpt lat="45.87964575557246" lon="12.311917958825603"><ele>51.0</ele><time>2026-04-25T13:26:42Z</time></trkpt><trkpt lat="45.879711662846795" lon="12.312005796525355"><ele>51.0</ele><time>2026-04-25T13:26:43Z</time></trkpt><trkpt lat="45.87976949467385" lon="12.312086009603807"><ele>51.0</ele><time>2026-04-25T13:26:44Z</time></trkpt><trkpt lat="45.87981584728223" lon="12.31216046628655"><ele>51.0</ele><time>2026-04-25T13:26:44.999Z</time></trkpt><trkpt lat="45.87985559692041" lon="12.312238139174669"><ele>51.0</ele><time>2026-04-25T13:26:45.999Z</time></trkpt><trkpt lat="45.87989168982952" lon="12.31240686141198"><ele>51.0</ele><time>2026-04-25T13:26:47.999Z</time></trkpt><trkpt lat="45.87989174264881" lon="12.31250135533643"><ele>51.166666666666664</ele><time>2026-04-25T13:26:48.999Z</time></trkpt><trkpt lat="45.879896334367324" lon="12.312596150449508"><ele>51.33333333333333</ele><time>2026-04-25T13:26:49.999Z</time></trkpt><trkpt lat="45.87992827864974" lon="12.31269296714611"><ele>51.5</ele><time>2026-04-25T13:26:50.999Z</time></trkpt><trkpt lat="45.87998984110093" lon="12.312786677894644"><ele>51.666666666666664</ele><time>2026-04-25T13:26:51.999Z</time></trkpt><trkpt lat="45.8800684918449" lon="12.312870395212137"><ele>51.83333333333333</ele><time>2026-04-25T13:26:52.999Z</time></trkpt><trkpt lat="45.880156833715766" lon="12.312956625990957"><ele>52.0</ele><time>2026-04-25T13:26:53.999Z</time></trkpt><trkpt lat="45.880243935091755" lon="12.313062673065147"><ele>51.75</ele><time>2026-04-25T13:26:54.999Z</time></trkpt><trkpt lat="45.88033032725843" lon="12.31317750188958"><ele>51.5</ele><time>2026-04-25T13:26:55.999Z</time></trkpt><trkpt lat="45.8804172780644" lon="12.31329008211465"><ele>51.25</ele><time>2026-04-25T13:26:56.999Z</time></trkpt><trkpt lat="45.88050699683691" lon="12.313402108420915"><ele>51.0</ele><time>2026-04-25T13:26:57.999Z</time></trkpt><trkpt lat="45.88060400736837" lon="12.313512985369288"><ele>51.0</ele><time>2026-04-25T13:26:58.999Z</time></trkpt><trkpt lat="45.88069581144702" lon="12.313619161047543"><ele>51.0</ele><time>2026-04-25T13:26:59.999Z</time></trkpt><trkpt lat="45.880785863831484" lon="12.313725723276164"><ele>51.0</ele><time>2026-04-25T13:27:01Z</time></trkpt><trkpt lat="45.88087567092013" lon="12.313831846764456"><ele>51.0</ele><time>2026-04-25T13:27:02Z</time></trkpt><trkpt lat="45.88096711169739" lon="12.31394302651952"><ele>51.0</ele><time>2026-04-25T13:27:03Z</time></trkpt><trkpt lat="45.88106071223939" lon="12.314052543932815"><ele>51.0</ele><time>2026-04-25T13:27:04Z</time></trkpt><trkpt lat="45.88115557886457" lon="12.31416171966397"><ele>51.0</ele><time>2026-04-25T13:27:05Z</time></trkpt><trkpt lat="45.88125066958489" lon="12.314271869385236"><ele>51.0</ele><time>2026-04-25T13:27:06Z</time></trkpt><trkpt lat="45.88134529398778" lon="12.31438406964967"><ele>51.0</ele><time>2026-04-25T13:27:07Z</time></trkpt><trkpt lat="45.881439709661876" lon="12.314495674324897"><ele>51.0</ele><time>2026-04-25T13:27:08Z</time></trkpt><trkpt lat="45.88153552709328" lon="12.314606078401042"><ele>51.0</ele><time>2026-04-25T13:27:09Z</time></trkpt><trkpt lat="45.881632671545304" lon="12.314717453400425"><ele>51.0</ele><time>2026-04-25T13:27:10Z</time></trkpt><trkpt lat="45.881727827360784" lon="12.314827540129503"><ele>51.25</ele><time>2026-04-25T13:27:11Z</time></trkpt><trkpt lat="45.88181608178611" lon="12.314935981224435"><ele>51.5</ele><time>2026-04-25T13:27:12Z</time></trkpt><trkpt lat="45.88190555457985" lon="12.315040201394185"><ele>51.75</ele><time>2026-04-25T13:27:13Z</time></trkpt><trkpt lat="45.88199361716641" lon="12.315142744006858"><ele>52.0</ele><time>2026-04-25T13:27:14Z</time></trkpt><trkpt lat="45.882083613436244" lon="12.31524392511169"><ele>52.0</ele><time>2026-04-25T13:27:15Z</time></trkpt><trkpt lat="45.882171863178286" lon="12.315345987873712"><ele>52.0</ele><time>2026-04-25T13:27:16Z</time></trkpt><trkpt lat="45.8822636464907" lon="12.315451027156508"><ele>52.0</ele><time>2026-04-25T13:27:17Z</time></trkpt><trkpt lat="45.88235544484809" lon="12.315558036652929"><ele>52.0</ele><time>2026-04-25T13:27:18Z</time></trkpt><trkpt lat="45.88244638813824" lon="12.31567000353105"><ele>52.0</ele><time>2026-04-25T13:27:19Z</time></trkpt><trkpt lat="45.88253995748099" lon="12.315781099727921"><ele>52.0</ele><time>2026-04-25T13:27:20Z</time></trkpt><trkpt lat="45.882632293188536" lon="12.315890839500055"><ele>52.0</ele><time>2026-04-25T13:27:21Z</time></trkpt><trkpt lat="45.88272452295833" lon="12.31600083656917"><ele>52.0</ele><time>2026-04-25T13:27:22Z</time></trkpt><trkpt lat="45.882815710455525" lon="12.316108835550954"><ele>51.6</ele><time>2026-04-25T13:27:23Z</time></trkpt><trkpt lat="45.88290149626179" lon="12.31621017436761"><ele>51.2</ele><time>2026-04-25T13:27:24Z</time></trkpt><trkpt lat="45.88298358630961" lon="12.316305142741054"><ele>50.8</ele><time>2026-04-25T13:27:25Z</time></trkpt><trkpt lat="45.883064016765644" lon="12.316392303760885"><ele>50.4</ele><time>2026-04-25T13:27:26Z</time></trkpt><trkpt lat="45.88314058875185" lon="12.316478073248355"><ele>50.0</ele><time>2026-04-25T13:27:27Z</time></trkpt><trkpt lat="45.88321242277691" lon="12.316562529828202"><ele>50.00000000000001</ele><time>2026-04-25T13:27:28Z</time></trkpt><trkpt lat="45.88327332837089" lon="12.316636702724882"><ele>50.0</ele><time>2026-04-25T13:27:29Z</time></trkpt><trkpt lat="45.8833261766788" lon="12.316708618366528"><ele>50.0</ele><time>2026-04-25T13:27:30Z</time></trkpt><trkpt lat="45.88337100357131" lon="12.316812882982752"><ele>50.0</ele><time>2026-04-25T13:27:31Z</time></trkpt><trkpt lat="45.88341494059761" lon="12.316930230624564"><ele>50.00000000000001</ele><time>2026-04-25T13:27:32Z</time></trkpt><trkpt lat="45.8834730807127" lon="12.31703028562154"><ele>50.0</ele><time>2026-04-25T13:27:33Z</time></trkpt><trkpt lat="45.88355345426432" lon="12.317094279375784"><ele>50.0</ele><time>2026-04-25T13:27:34Z</time></trkpt><trkpt lat="45.88365823694721" lon="12.317151689209819"><ele>50.0</ele><time>2026-04-25T13:27:35Z</time></trkpt><trkpt lat="45.88376368862277" lon="12.317238718137682"><ele>50.0</ele><time>2026-04-25T13:27:36Z</time></trkpt><trkpt lat="45.88386940010613" lon="12.317350105029869"><ele>50.0</ele><time>2026-04-25T13:27:37Z</time></trkpt><trkpt lat="45.88397858681031" lon="12.317472661225713"><ele>50.0</ele><time>2026-04-25T13:27:38Z</time></trkpt><trkpt lat="45.884089666850485" lon="12.317597777259143"><ele>50.0</ele><time>2026-04-25T13:27:39Z</time></trkpt><trkpt lat="45.884206315356025" lon="12.317727303751306"><ele>50.0</ele><time>2026-04-25T13:27:40Z</time></trkpt><trkpt lat="45.884326993782146" lon="12.31786337811766"><ele>50.0</ele><time>2026-04-25T13:27:41Z</time></trkpt><trkpt lat="45.88444606878158" lon="12.318002446612693"><ele>50.333333333333336</ele><time>2026-04-25T13:27:42Z</time></trkpt><trkpt lat="45.88456591419265" lon="12.318143970175155"><ele>50.66666666666667</ele><time>2026-04-25T13:27:43Z</time></trkpt><trkpt lat="45.884685153299635" lon="12.31828610000873"><ele>51.0</ele><time>2026-04-25T13:27:44Z</time></trkpt><trkpt lat="45.88480554277537" lon="12.31842549277815"><ele>51.0</ele><time>2026-04-25T13:27:45Z</time></trkpt><trkpt lat="45.88492537850954" lon="12.318563723216686"><ele>51.0</ele><time>2026-04-25T13:27:46Z</time></trkpt><trkpt lat="45.88504343238579" lon="12.31870053573122"><ele>51.0</ele><time>2026-04-25T13:27:47Z</time></trkpt><trkpt lat="45.88515974747813" lon="12.318837799071074"><ele>51.0</ele><time>2026-04-25T13:27:48Z</time></trkpt><trkpt lat="45.885275083672134" lon="12.31897644736657"><ele>51.0</ele><time>2026-04-25T13:27:49Z</time></trkpt><trkpt lat="45.88539007325965" lon="12.319112801690205"><ele>51.0</ele><time>2026-04-25T13:27:50Z</time></trkpt><trkpt lat="45.885504236798035" lon="12.319248164585693"><ele>51.0</ele><time>2026-04-25T13:27:51Z</time></trkpt><trkpt lat="45.8856162224316" lon="12.319383694433302"><ele>51.0</ele><time>2026-04-25T13:27:52Z</time></trkpt><trkpt lat="45.885729365659216" lon="12.319520404964665"><ele>51.0</ele><time>2026-04-25T13:27:53Z</time></trkpt><trkpt lat="45.885846199277324" lon="12.319657963826579"><ele>51.0</ele><time>2026-04-25T13:27:54Z</time></trkpt><trkpt lat="45.88596741842461" lon="12.319800914852308"><ele>51.33333333333333</ele><time>2026-04-25T13:27:55Z</time></trkpt><trkpt lat="45.886093059099345" lon="12.319949320110876"><ele>51.666666666666664</ele><time>2026-04-25T13:27:56Z</time></trkpt><trkpt lat="45.88622019708991" lon="12.320099831883965"><ele>52.0</ele><time>2026-04-25T13:27:57Z</time></trkpt><trkpt lat="45.886350122029384" lon="12.320258655902196"><ele>52.0</ele><time>2026-04-25T13:27:58Z</time></trkpt><trkpt lat="45.886481915807565" lon="12.320422917059808"><ele>52.0</ele><time>2026-04-25T13:27:59Z</time></trkpt><trkpt lat="45.88661746185836" lon="12.320590694744844"><ele>52.0</ele><time>2026-04-25T13:28:00Z</time></trkpt><trkpt lat="45.88675384291829" lon="12.320760777671474"><ele>52.666666666666664</ele><time>2026-04-25T13:28:01Z</time></trkpt><trkpt lat="45.88689173633516" lon="12.320931408123915"><ele>53.33333333333333</ele><time>2026-04-25T13:28:02Z</time></trkpt><trkpt lat="45.88702949633105" lon="12.321106274194666"><ele>54.0</ele><time>2026-04-25T13:28:03Z</time></trkpt><trkpt lat="45.88716870831386" lon="12.32128130818976"><ele>53.33333333333333</ele><time>2026-04-25T13:28:04Z</time></trkpt><trkpt lat="45.887308304774244" lon="12.321452886019323"><ele>52.666666666666664</ele><time>2026-04-25T13:28:05Z</time></trkpt><trkpt lat="45.88744731869385" lon="12.321624158442612"><ele>52.0</ele><time>2026-04-25T13:28:06Z</time></trkpt><trkpt lat="45.88758526835208" lon="12.321795916178445"><ele>52.33333333333333</ele><time>2026-04-25T13:28:07Z</time></trkpt><trkpt lat="45.88772044091903" lon="12.321967495838585"><ele>52.66666666666667</ele><time>2026-04-25T13:28:08Z</time></trkpt><trkpt lat="45.8878547281358" lon="12.32213576261678"><ele>53.0</ele><time>2026-04-25T13:28:09Z</time></trkpt><trkpt lat="45.88798664015032" lon="12.3223011254895"><ele>53.66666666666667</ele><time>2026-04-25T13:28:10Z</time></trkpt><trkpt lat="45.88811753966632" lon="12.322463869281673"><ele>54.33333333333333</ele><time>2026-04-25T13:28:11Z</time></trkpt><trkpt lat="45.88824273915062" lon="12.322616974126678"><ele>55.0</ele><time>2026-04-25T13:28:12Z</time></trkpt><trkpt lat="45.888362812253234" lon="12.32276307553284"><ele>55.0</ele><time>2026-04-25T13:28:13Z</time></trkpt><trkpt lat="45.88847404816479" lon="12.322902724478649"><ele>55.0</ele><time>2026-04-25T13:28:14Z</time></trkpt><trkpt lat="45.888579889793455" lon="12.323036306932929"><ele>55.0</ele><time>2026-04-25T13:28:15Z</time></trkpt><trkpt lat="45.88868264483385" lon="12.323166671588458"><ele>55.0</ele><time>2026-04-25T13:28:16Z</time></trkpt><trkpt lat="45.88878435395026" lon="12.323293058238578"><ele>54.75</ele><time>2026-04-25T13:28:17Z</time></trkpt><trkpt lat="45.88888747270828" lon="12.32341875308731"><ele>54.5</ele><time>2026-04-25T13:28:18Z</time></trkpt><trkpt lat="45.88899010107799" lon="12.323544861910264"><ele>54.25</ele><time>2026-04-25T13:28:19Z</time></trkpt><trkpt lat="45.889093485788976" lon="12.323672909767291"><ele>54.0</ele><time>2026-04-25T13:28:20Z</time></trkpt><trkpt lat="45.88919590035286" lon="12.323799086718308"><ele>54.0</ele><time>2026-04-25T13:28:21Z</time></trkpt><trkpt lat="45.88929826635219" lon="12.323926693620507"><ele>54.0</ele><time>2026-04-25T13:28:22Z</time></trkpt><trkpt lat="45.88940368291381" lon="12.32405378016264"><ele>54.0</ele><time>2026-04-25T13:28:23Z</time></trkpt><trkpt lat="45.88951038815041" lon="12.324179905634239"><ele>54.0</ele><time>2026-04-25T13:28:24Z</time></trkpt><trkpt lat="45.889618673175086" lon="12.324303505335722"><ele>54.0</ele><time>2026-04-25T13:28:25Z</time></trkpt><trkpt lat="45.88972767031" lon="12.32442681568429"><ele>54.0</ele><time>2026-04-25T13:28:26Z</time></trkpt><trkpt lat="45.8898360953253" lon="12.324551881513832"><ele>54.0</ele><time>2026-04-25T13:28:27Z</time></trkpt><trkpt lat="45.88994548163177" lon="12.324676057051539"><ele>54.0</ele><time>2026-04-25T13:28:28Z</time></trkpt><trkpt lat="45.890054857462694" lon="12.32479796920769"><ele>54.0</ele><time>2026-04-25T13:28:29Z</time></trkpt><trkpt lat="45.890160608554204" lon="12.324913616219135"><ele>54.0</ele><time>2026-04-25T13:28:30Z</time></trkpt><trkpt lat="45.890260965976545" lon="12.32502507564149"><ele>54.0</ele><time>2026-04-25T13:28:31Z</time></trkpt><trkpt lat="45.890356292347306" lon="12.325132340184412"><ele>54.0</ele><time>2026-04-25T13:28:32Z</time></trkpt><trkpt lat="45.89044842504661" lon="12.32523445745842"><ele>54.0</ele><time>2026-04-25T13:28:33Z</time></trkpt><trkpt lat="45.89053692978888" lon="12.325331921824645"><ele>54.00000000000001</ele><time>2026-04-25T13:28:34Z</time></trkpt><trkpt lat="45.89062326770819" lon="12.32542632832754"><ele>54.00000000000001</ele><time>2026-04-25T13:28:35Z</time></trkpt><trkpt lat="45.890704323644584" lon="12.325518913778293"><ele>54.0</ele><time>2026-04-25T13:28:36Z</time></trkpt><trkpt lat="45.89078172022944" lon="12.325605875464264"><ele>54.0</ele><time>2026-04-25T13:28:37Z</time></trkpt><trkpt lat="45.89085605874739" lon="12.325686173298193"><ele>53.666666666666664</ele><time>2026-04-25T13:28:38Z</time></trkpt><trkpt lat="45.89092681629826" lon="12.325760678860146"><ele>53.33333333333333</ele><time>2026-04-25T13:28:39Z</time></trkpt><trkpt lat="45.89099308223125" lon="12.325829309358655"><ele>53.0</ele><time>2026-04-25T13:28:40Z</time></trkpt><trkpt lat="45.89105794263229" lon="12.325895750742365"><ele>52.666666666666664</ele><time>2026-04-25T13:28:41Z</time></trkpt><trkpt lat="45.89112482383728" lon="12.32596427490534"><ele>52.33333333333333</ele><time>2026-04-25T13:28:42Z</time></trkpt><trkpt lat="45.89119467394019" lon="12.326040700641567"><ele>52.0</ele><time>2026-04-25T13:28:43Z</time></trkpt><trkpt lat="45.89126844451649" lon="12.326120730305535"><ele>52.0</ele><time>2026-04-25T13:28:44Z</time></trkpt><trkpt lat="45.89134360189615" lon="12.326203767539049"><ele>52.0</ele><time>2026-04-25T13:28:45Z</time></trkpt><trkpt lat="45.89141762757436" lon="12.326290651736764"><ele>52.0</ele><time>2026-04-25T13:28:46Z</time></trkpt><trkpt lat="45.891487202810616" lon="12.326375627853597"><ele>52.0</ele><time>2026-04-25T13:28:47Z</time></trkpt><trkpt lat="45.89155524296834" lon="12.326455985414952"><ele>52.0</ele><time>2026-04-25T13:28:48Z</time></trkpt><trkpt lat="45.89162295404689" lon="12.326533384725693"><ele>52.2</ele><time>2026-04-25T13:28:49Z</time></trkpt><trkpt lat="45.89169481957321" lon="12.32661377677683"><ele>52.400000000000006</ele><time>2026-04-25T13:28:50Z</time></trkpt><trkpt lat="45.89177527395269" lon="12.3267061780646"><ele>52.599999999999994</ele><time>2026-04-25T13:28:51Z</time></trkpt><trkpt lat="45.89185473721537" lon="12.326797059333595"><ele>52.8</ele><time>2026-04-25T13:28:52Z</time></trkpt><trkpt lat="45.891939180617705" lon="12.326884522878471"><ele>53.0</ele><time>2026-04-25T13:28:53Z</time></trkpt><trkpt lat="45.892038230896645" lon="12.326983756749327"><ele>53.5</ele><time>2026-04-25T13:28:54Z</time></trkpt><trkpt lat="45.89214175538063" lon="12.32709738929678"><ele>54.0</ele><time>2026-04-25T13:28:55Z</time></trkpt><trkpt lat="45.8922477161201" lon="12.327215781938708"><ele>54.5</ele><time>2026-04-25T13:28:56Z</time></trkpt><trkpt lat="45.892352033791454" lon="12.327333945420005"><ele>55.0</ele><time>2026-04-25T13:28:57Z</time></trkpt><trkpt lat="45.89245491355616" lon="12.327449676718961"><ele>55.0</ele><time>2026-04-25T13:28:58Z</time></trkpt><trkpt lat="45.892556569035776" lon="12.32756359956999"><ele>55.0</ele><time>2026-04-25T13:28:59Z</time></trkpt><trkpt lat="45.892656044558294" lon="12.32767520314056"><ele>55.0</ele><time>2026-04-25T13:29:00Z</time></trkpt><trkpt lat="45.89275457132542" lon="12.327784192822755"><ele>55.0</ele><time>2026-04-25T13:29:01Z</time></trkpt><trkpt lat="45.89284973505309" lon="12.327890713989456"><ele>55.0</ele><time>2026-04-25T13:29:02Z</time></trkpt><trkpt lat="45.89294601245684" lon="12.327995897478857"><ele>55.0</ele><time>2026-04-25T13:29:03Z</time></trkpt><trkpt lat="45.893043046561424" lon="12.328099172934412"><ele>55.0</ele><time>2026-04-25T13:29:04Z</time></trkpt><trkpt lat="45.89314197874149" lon="12.328197712747187"><ele>55.0</ele><time>2026-04-25T13:29:05Z</time></trkpt><trkpt lat="45.893244545180586" lon="12.328291877476081"><ele>55.0</ele><time>2026-04-25T13:29:06Z</time></trkpt><trkpt lat="45.89334782327679" lon="12.328380962431407"><ele>55.0</ele><time>2026-04-25T13:29:07Z</time></trkpt><trkpt lat="45.89345028468183" lon="12.328467221744464"><ele>55.0</ele><time>2026-04-25T13:29:08Z</time></trkpt><trkpt lat="45.89355127312641" lon="12.32855155577882"><ele>55.0</ele><time>2026-04-25T13:29:09Z</time></trkpt><trkpt lat="45.89364969113012" lon="12.328631851739988"><ele>55.0</ele><time>2026-04-25T13:29:10Z</time></trkpt><trkpt lat="45.8937499557715" lon="12.328711755084703"><ele>55.0</ele><time>2026-04-25T13:29:11Z</time></trkpt><trkpt lat="45.893855618543036" lon="12.32878851215155"><ele>55.0</ele><time>2026-04-25T13:29:12Z</time></trkpt><trkpt lat="45.893963058950796" lon="12.328863828655162"><ele>55.0</ele><time>2026-04-25T13:29:13Z</time></trkpt><trkpt lat="45.89407179020627" lon="12.328938454349489"><ele>55.5</ele><time>2026-04-25T13:29:14Z</time></trkpt><trkpt lat="45.894182927989824" lon="12.329011997394542"><ele>56.0</ele><time>2026-04-25T13:29:15Z</time></trkpt><trkpt lat="45.894296312638566" lon="12.329085314829477"><ele>56.5</ele><time>2026-04-25T13:29:16Z</time></trkpt><trkpt lat="45.89441344112812" lon="12.329160958979642"><ele>57.0</ele><time>2026-04-25T13:29:17Z</time></trkpt><trkpt lat="45.89453395538646" lon="12.329239153324805"><ele>57.0</ele><time>2026-04-25T13:29:18Z</time></trkpt><trkpt lat="45.89466417413446" lon="12.329319669196993"><ele>57.0</ele><time>2026-04-25T13:29:19Z</time></trkpt><trkpt lat="45.89480474737121" lon="12.329399192316824"><ele>57.0</ele><time>2026-04-25T13:29:20Z</time></trkpt><trkpt lat="45.894949270390335" lon="12.329504171463167"><ele>56.66666666666667</ele><time>2026-04-25T13:29:21Z</time></trkpt><trkpt lat="45.89510400512558" lon="12.329600425548831"><ele>56.333333333333336</ele><time>2026-04-25T13:29:22Z</time></trkpt><trkpt lat="45.89526303699614" lon="12.329702191407147"><ele>56.0</ele><time>2026-04-25T13:29:23Z</time></trkpt><trkpt lat="45.89541561954972" lon="12.329818110763304"><ele>56.0</ele><time>2026-04-25T13:29:24Z</time></trkpt><trkpt lat="45.895584098295096" lon="12.329912668933838"><ele>56.0</ele><time>2026-04-25T13:29:25Z</time></trkpt><trkpt lat="45.89574162029167" lon="12.330020438380016"><ele>56.0</ele><time>2026-04-25T13:29:26Z</time></trkpt><trkpt lat="45.89589301341854" lon="12.330119119494196"><ele>56.333333333333336</ele><time>2026-04-25T13:29:27Z</time></trkpt><trkpt lat="45.89604477617831" lon="12.330215946368979"><ele>56.66666666666667</ele><time>2026-04-25T13:29:28Z</time></trkpt><trkpt lat="45.896194478047576" lon="12.330313922732584"><ele>57.0</ele><time>2026-04-25T13:29:29Z</time></trkpt><trkpt lat="45.89634000951317" lon="12.330409397329305"><ele>57.0</ele><time>2026-04-25T13:29:30Z</time></trkpt><trkpt lat="45.896474506626795" lon="12.330496649294014"><ele>57.0</ele><time>2026-04-25T13:29:31Z</time></trkpt><trkpt lat="45.896607181693106" lon="12.33057793224748"><ele>57.0</ele><time>2026-04-25T13:29:32Z</time></trkpt><trkpt lat="45.896734541572435" lon="12.330658171930935"><ele>57.0</ele><time>2026-04-25T13:29:33Z</time></trkpt><trkpt lat="45.896860520944955" lon="12.330739535643259"><ele>57.75</ele><time>2026-04-25T13:29:34Z</time></trkpt><trkpt lat="45.89698551822167" lon="12.330822531386161"><ele>58.5</ele><time>2026-04-25T13:29:35Z</time></trkpt><trkpt lat="45.89711158160193" lon="12.33090634205494"><ele>59.25</ele><time>2026-04-25T13:29:36Z</time></trkpt><trkpt lat="45.897242642481494" lon="12.330991367172512"><ele>60.0</ele><time>2026-04-25T13:29:37Z</time></trkpt><trkpt lat="45.897376498126704" lon="12.331076883364624"><ele>60.0</ele><time>2026-04-25T13:29:38Z</time></trkpt><trkpt lat="45.897512066291284" lon="12.331164915254547"><ele>60.0</ele><time>2026-04-25T13:29:39Z</time></trkpt><trkpt lat="45.89765094828481" lon="12.331256663642424"><ele>60.0</ele><time>2026-04-25T13:29:40Z</time></trkpt><trkpt lat="45.89779018708459" lon="12.331345714636802"><ele>60.66666666666667</ele><time>2026-04-25T13:29:41Z</time></trkpt><trkpt lat="45.897927978249626" lon="12.33143639779307"><ele>61.333333333333336</ele><time>2026-04-25T13:29:42Z</time></trkpt><trkpt lat="45.89806651833547" lon="12.331530710658635"><ele>62.0</ele><time>2026-04-25T13:29:43Z</time></trkpt><trkpt lat="45.898208845850746" lon="12.331617582264414"><ele>62.0</ele><time>2026-04-25T13:29:44Z</time></trkpt><trkpt lat="45.898342440439244" lon="12.331695657190018"><ele>62.0</ele><time>2026-04-25T13:29:45Z</time></trkpt><trkpt lat="45.898471127449895" lon="12.331770876658632"><ele>62.0</ele><time>2026-04-25T13:29:46Z</time></trkpt><trkpt lat="45.89857593883049" lon="12.331860826529198"><ele>62.0</ele><time>2026-04-25T13:29:47Z</time></trkpt><trkpt lat="45.898687111771174" lon="12.331930801632769"><ele>61.2</ele><time>2026-04-25T13:29:48Z</time></trkpt><trkpt lat="45.898790421088236" lon="12.33199468358509"><ele>60.400000000000006</ele><time>2026-04-25T13:29:49Z</time></trkpt><trkpt lat="45.8988890149378" lon="12.332056304953433"><ele>59.599999999999994</ele><time>2026-04-25T13:29:50Z</time></trkpt><trkpt lat="45.898993738072804" lon="12.332097605610544"><ele>58.8</ele><time>2026-04-25T13:29:51Z</time></trkpt><trkpt lat="45.89908803146019" lon="12.332158696686035"><ele>58.0</ele><time>2026-04-25T13:29:52Z</time></trkpt><trkpt lat="45.899157174666854" lon="12.332209413935336"><ele>58.0</ele><time>2026-04-25T13:29:53Z</time></trkpt><trkpt lat="45.899241069690895" lon="12.332264182296786"><ele>58.0</ele><time>2026-04-25T13:29:55Z</time></trkpt><trkpt lat="45.89936124285847" lon="12.33220924718626"><ele>58.0</ele><time>2026-04-25T13:30:01Z</time></trkpt><trkpt lat="45.89941580709618" lon="12.332104282727672"><ele>58.0</ele><time>2026-04-25T13:30:02Z</time></trkpt><trkpt lat="45.899496199030615" lon="12.3319976256286"><ele>58.0</ele><time>2026-04-25T13:30:03Z</time></trkpt><trkpt lat="45.89960075754388" lon="12.33188826113849"><ele>58.0</ele><time>2026-04-25T13:30:04Z</time></trkpt><trkpt lat="45.89971058811941" lon="12.331768753261121"><ele>58.0</ele><time>2026-04-25T13:30:05Z</time></trkpt><trkpt lat="45.899828335953686" lon="12.331633103083172"><ele>58.0</ele><time>2026-04-25T13:30:06Z</time></trkpt><trkpt lat="45.89994578307716" lon="12.331501339177297"><ele>58.0</ele><time>2026-04-25T13:30:07Z</time></trkpt><trkpt lat="45.90006367111035" lon="12.331369768897053"><ele>59.25</ele><time>2026-04-25T13:30:08Z</time></trkpt><trkpt lat="45.90017957158325" lon="12.331239484666781"><ele>60.5</ele><time>2026-04-25T13:30:09Z</time></trkpt><trkpt lat="45.90029606539778" lon="12.331114755008874"><ele>61.75</ele><time>2026-04-25T13:30:10Z</time></trkpt><trkpt lat="45.90041029202225" lon="12.330994926362846"><ele>63.0</ele><time>2026-04-25T13:30:11Z</time></trkpt><trkpt lat="45.90051826796349" lon="12.330877398522087"><ele>63.0</ele><time>2026-04-25T13:30:12Z</time></trkpt><trkpt lat="45.90061808898797" lon="12.330766446718725"><ele>63.0</ele><time>2026-04-25T13:30:13Z</time></trkpt><trkpt lat="45.90071307069452" lon="12.330661817693342"><ele>63.0</ele><time>2026-04-25T13:30:14Z</time></trkpt><trkpt lat="45.900804426847465" lon="12.330560351091727"><ele>63.0</ele><time>2026-04-25T13:30:15Z</time></trkpt><trkpt lat="45.90089943363949" lon="12.330452214891293"><ele>62.25</ele><time>2026-04-25T13:30:16Z</time></trkpt><trkpt lat="45.90100094404836" lon="12.330338129524645"><ele>61.5</ele><time>2026-04-25T13:30:17Z</time></trkpt><trkpt lat="45.901107157580924" lon="12.330222997674722"><ele>60.75</ele><time>2026-04-25T13:30:18Z</time></trkpt><trkpt lat="45.90121679958637" lon="12.330105513208464"><ele>60.0</ele><time>2026-04-25T13:30:19Z</time></trkpt><trkpt lat="45.901328509035984" lon="12.329986419436239"><ele>60.0</ele><time>2026-04-25T13:30:20Z</time></trkpt><trkpt lat="45.90144568435955" lon="12.329866241732214"><ele>60.0</ele><time>2026-04-25T13:30:21Z</time></trkpt><trkpt lat="45.90156404312978" lon="12.329747751773494"><ele>60.0</ele><time>2026-04-25T13:30:22Z</time></trkpt><trkpt lat="45.90168299451043" lon="12.329634238043091"><ele>60.0</ele><time>2026-04-25T13:30:23Z</time></trkpt><trkpt lat="45.90180143510453" lon="12.32952535464633"><ele>60.25</ele><time>2026-04-25T13:30:24Z</time></trkpt><trkpt lat="45.90192266234171" lon="12.329421395431456"><ele>60.5</ele><time>2026-04-25T13:30:25Z</time></trkpt><trkpt lat="45.902051389305825" lon="12.329326573998424"><ele>60.75</ele><time>2026-04-25T13:30:26Z</time></trkpt><trkpt lat="45.9021835761266" lon="12.329244991120817"><ele>61.0</ele><time>2026-04-25T13:30:27Z</time></trkpt><trkpt lat="45.902315695791565" lon="12.32916714741449"><ele>61.0</ele><time>2026-04-25T13:30:28Z</time></trkpt><trkpt lat="45.902443309093755" lon="12.329094748939578"><ele>61.0</ele><time>2026-04-25T13:30:29Z</time></trkpt><trkpt lat="45.90256672185973" lon="12.329024292378993"><ele>61.0</ele><time>2026-04-25T13:30:30Z</time></trkpt><trkpt lat="45.90268378466157" lon="12.328956742021125"><ele>61.0</ele><time>2026-04-25T13:30:31Z</time></trkpt><trkpt lat="45.90280152363921" lon="12.32889386145831"><ele>61.5</ele><time>2026-04-25T13:30:32Z</time></trkpt><trkpt lat="45.90291985435388" lon="12.328837378673482"><ele>62.0</ele><time>2026-04-25T13:30:33Z</time></trkpt><trkpt lat="45.903038169212756" lon="12.328778118928339"><ele>62.5</ele><time>2026-04-25T13:30:34Z</time></trkpt><trkpt lat="45.903157621929346" lon="12.328716506314217"><ele>63.0</ele><time>2026-04-25T13:30:35Z</time></trkpt><trkpt lat="45.90327796731183" lon="12.328657422661358"><ele>63.0</ele><time>2026-04-25T13:30:36Z</time></trkpt><trkpt lat="45.903400904068334" lon="12.328598726305396"><ele>63.0</ele><time>2026-04-25T13:30:37Z</time></trkpt><trkpt lat="45.90352458857233" lon="12.328540344029433"><ele>63.0</ele><time>2026-04-25T13:30:38Z</time></trkpt><trkpt lat="45.90364825521565" lon="12.328479574378612"><ele>63.0</ele><time>2026-04-25T13:30:39Z</time></trkpt><trkpt lat="45.90377462883767" lon="12.328418159984347"><ele>63.25</ele><time>2026-04-25T13:30:40Z</time></trkpt><trkpt lat="45.903903085172054" lon="12.328353959832638"><ele>63.5</ele><time>2026-04-25T13:30:41Z</time></trkpt><trkpt lat="45.90403075402882" lon="12.32828782619719"><ele>63.75</ele><time>2026-04-25T13:30:42Z</time></trkpt><trkpt lat="45.904158800247195" lon="12.32822040048608"><ele>64.0</ele><time>2026-04-25T13:30:43Z</time></trkpt><trkpt lat="45.90428769016009" lon="12.32815385682702"><ele>64.5</ele><time>2026-04-25T13:30:44Z</time></trkpt><trkpt lat="45.90441887975193" lon="12.328087509964703"><ele>65.0</ele><time>2026-04-25T13:30:45Z</time></trkpt><trkpt lat="45.904552108915375" lon="12.328021139733902"><ele>65.5</ele><time>2026-04-25T13:30:46Z</time></trkpt><trkpt lat="45.904686596960325" lon="12.327954997008156"><ele>66.0</ele><time>2026-04-25T13:30:47Z</time></trkpt><trkpt lat="45.90481858818406" lon="12.327888896880628"><ele>66.0</ele><time>2026-04-25T13:30:48Z</time></trkpt><trkpt lat="45.90495147099524" lon="12.327822978530298"><ele>66.0</ele><time>2026-04-25T13:30:49Z</time></trkpt><trkpt lat="45.905084325514956" lon="12.327757199583406"><ele>66.0</ele><time>2026-04-25T13:30:50Z</time></trkpt><trkpt lat="45.90521625054943" lon="12.327691656708387"><ele>66.0</ele><time>2026-04-25T13:30:51Z</time></trkpt><trkpt lat="45.90534819865491" lon="12.327624147017923"><ele>66.5</ele><time>2026-04-25T13:30:52Z</time></trkpt><trkpt lat="45.90548271375162" lon="12.327555423302465"><ele>67.0</ele><time>2026-04-25T13:30:53Z</time></trkpt><trkpt lat="45.905617465074954" lon="12.327486098628157"><ele>67.5</ele><time>2026-04-25T13:30:54Z</time></trkpt><trkpt lat="45.90575388799857" lon="12.327416399588758"><ele>68.0</ele><time>2026-04-25T13:30:55Z</time></trkpt><trkpt lat="45.90589018997546" lon="12.327347678394577"><ele>68.0</ele><time>2026-04-25T13:30:56Z</time></trkpt><trkpt lat="45.90603208176861" lon="12.327275571375319"><ele>68.0</ele><time>2026-04-25T13:30:57Z</time></trkpt><trkpt lat="45.90617706618634" lon="12.327203368119699"><ele>68.0</ele><time>2026-04-25T13:30:58Z</time></trkpt><trkpt lat="45.906325511284976" lon="12.32712974128156"><ele>68.0</ele><time>2026-04-25T13:30:59Z</time></trkpt><trkpt lat="45.906472554472714" lon="12.32705552156209"><ele>68.0</ele><time>2026-04-25T13:31:00Z</time></trkpt><trkpt lat="45.906621965742396" lon="12.326978825154656"><ele>68.0</ele><time>2026-04-25T13:31:01Z</time></trkpt><trkpt lat="45.90677051642318" lon="12.326901665566673"><ele>67.33333333333334</ele><time>2026-04-25T13:31:02Z</time></trkpt><trkpt lat="45.906922795075886" lon="12.326826590765673"><ele>66.66666666666667</ele><time>2026-04-25T13:31:03Z</time></trkpt><trkpt lat="45.9070739155969" lon="12.326754209697095"><ele>66.0</ele><time>2026-04-25T13:31:04Z</time></trkpt><trkpt lat="45.9072261014757" lon="12.326678754777245"><ele>66.0</ele><time>2026-04-25T13:31:05Z</time></trkpt><trkpt lat="45.90737889857911" lon="12.326602517141975"><ele>66.0</ele><time>2026-04-25T13:31:06Z</time></trkpt><trkpt lat="45.90753102345486" lon="12.326525685875334"><ele>66.0</ele><time>2026-04-25T13:31:07Z</time></trkpt><trkpt lat="45.90768300040962" lon="12.326448437668947"><ele>66.66666666666667</ele><time>2026-04-25T13:31:08Z</time></trkpt><trkpt lat="45.907834135729566" lon="12.326367502958014"><ele>67.33333333333334</ele><time>2026-04-25T13:31:09Z</time></trkpt><trkpt lat="45.9079902957637" lon="12.326307157325889"><ele>68.0</ele><time>2026-04-25T13:31:10Z</time></trkpt><trkpt lat="45.90814314683117" lon="12.326229972043695"><ele>68.0</ele><time>2026-04-25T13:31:11Z</time></trkpt><trkpt lat="45.90829454590107" lon="12.326153519939892"><ele>68.0</ele><time>2026-04-25T13:31:12Z</time></trkpt><trkpt lat="45.90844066468243" lon="12.32607921625273"><ele>68.0</ele><time>2026-04-25T13:31:13Z</time></trkpt><trkpt lat="45.908585216646955" lon="12.326005525679042"><ele>68.5</ele><time>2026-04-25T13:31:14Z</time></trkpt><trkpt lat="45.90872708456755" lon="12.32593320349197"><ele>69.0</ele><time>2026-04-25T13:31:15Z</time></trkpt><trkpt lat="45.908862461043626" lon="12.325839137909337"><ele>69.5</ele><time>2026-04-25T13:31:16Z</time></trkpt><trkpt lat="45.909001718420704" lon="12.325768724695779"><ele>70.0</ele><time>2026-04-25T13:31:17Z</time></trkpt><trkpt lat="45.909145028718726" lon="12.325694255213117"><ele>69.66666666666666</ele><time>2026-04-25T13:31:18Z</time></trkpt><trkpt lat="45.909303557100195" lon="12.325638102070325"><ele>69.33333333333333</ele><time>2026-04-25T13:31:19Z</time></trkpt><trkpt lat="45.90946491539897" lon="12.325556184198584"><ele>69.0</ele><time>2026-04-25T13:31:20Z</time></trkpt><trkpt lat="45.909636996466865" lon="12.325468822620886"><ele>69.0</ele><time>2026-04-25T13:31:21Z</time></trkpt><trkpt lat="45.90981605414908" lon="12.32537791906954"><ele>69.0</ele><time>2026-04-25T13:31:22Z</time></trkpt><trkpt lat="45.909999254439505" lon="12.325284912437958"><ele>69.0</ele><time>2026-04-25T13:31:23Z</time></trkpt><trkpt lat="45.910182297817066" lon="12.32519198552541"><ele>69.0</ele><time>2026-04-25T13:31:24Z</time></trkpt><trkpt lat="45.91035540955245" lon="12.325069969883165"><ele>69.0</ele><time>2026-04-25T13:31:25Z</time></trkpt><trkpt lat="45.910534894184515" lon="12.324985269330174"><ele>69.0</ele><time>2026-04-25T13:31:26Z</time></trkpt><trkpt lat="45.91071332695299" lon="12.32489525800822"><ele>69.0</ele><time>2026-04-25T13:31:27Z</time></trkpt><trkpt lat="45.91088816376667" lon="12.324806261685815"><ele>69.0</ele><time>2026-04-25T13:31:28Z</time></trkpt><trkpt lat="45.91106680263499" lon="12.324742388510558"><ele>69.0</ele><time>2026-04-25T13:31:29Z</time></trkpt><trkpt lat="45.91123338265081" lon="12.324657561279167"><ele>69.66666666666667</ele><time>2026-04-25T13:31:30Z</time></trkpt><trkpt lat="45.91139352303241" lon="12.324554384505573"><ele>70.33333333333334</ele><time>2026-04-25T13:31:31Z</time></trkpt><trkpt lat="45.91155704724419" lon="12.324475623442575"><ele>71.0</ele><time>2026-04-25T13:31:32Z</time></trkpt><trkpt lat="45.91171933935778" lon="12.3243981031258"><ele>71.33333333333334</ele><time>2026-04-25T13:31:33Z</time></trkpt><trkpt lat="45.911882041537034" lon="12.32431777039087"><ele>71.66666666666667</ele><time>2026-04-25T13:31:34Z</time></trkpt><trkpt lat="45.912043873397586" lon="12.324237613810526"><ele>72.0</ele><time>2026-04-25T13:31:35Z</time></trkpt><trkpt lat="45.91220558861266" lon="12.32415640068919"><ele>72.0</ele><time>2026-04-25T13:31:36Z</time></trkpt><trkpt lat="45.91236795383572" lon="12.324072397417424"><ele>72.0</ele><time>2026-04-25T13:31:37Z</time></trkpt><trkpt lat="45.91253183358976" lon="12.323988974269128"><ele>72.0</ele><time>2026-04-25T13:31:38Z</time></trkpt><trkpt lat="45.9126978377203" lon="12.32390679320754"><ele>71.66666666666667</ele><time>2026-04-25T13:31:39Z</time></trkpt><trkpt lat="45.9128635435003" lon="12.323823630571384"><ele>71.33333333333334</ele><time>2026-04-25T13:31:40Z</time></trkpt><trkpt lat="45.91302932265679" lon="12.32373776380688"><ele>71.0</ele><time>2026-04-25T13:31:41Z</time></trkpt><trkpt lat="45.91319585948424" lon="12.32365191455007"><ele>71.0</ele><time>2026-04-25T13:31:42Z</time></trkpt><trkpt lat="45.913364097375535" lon="12.323565959984002"><ele>71.0</ele><time>2026-04-25T13:31:43Z</time></trkpt><trkpt lat="45.913533350583116" lon="12.323480236898215"><ele>71.0</ele><time>2026-04-25T13:31:44Z</time></trkpt><trkpt lat="45.9137051185449" lon="12.323394520446628"><ele>71.66666666666667</ele><time>2026-04-25T13:31:45Z</time></trkpt><trkpt lat="45.91387780647247" lon="12.323308847577486"><ele>72.33333333333333</ele><time>2026-04-25T13:31:46Z</time></trkpt><trkpt lat="45.91405080720756" lon="12.323222639831"><ele>73.0</ele><time>2026-04-25T13:31:47Z</time></trkpt><trkpt lat="45.91422430686291" lon="12.323136063955719"><ele>72.66666666666666</ele><time>2026-04-25T13:31:48Z</time></trkpt><trkpt lat="45.91439690595977" lon="12.323049255978999"><ele>72.33333333333333</ele><time>2026-04-25T13:31:49Z</time></trkpt><trkpt lat="45.91457029250623" lon="12.322959410059442"><ele>72.0</ele><time>2026-04-25T13:31:50Z</time></trkpt><trkpt lat="45.914741587964194" lon="12.322869384619004"><ele>72.0</ele><time>2026-04-25T13:31:51Z</time></trkpt><trkpt lat="45.9149106181159" lon="12.32278222181045"><ele>72.0</ele><time>2026-04-25T13:31:52Z</time></trkpt><trkpt lat="45.91507726450327" lon="12.32269803428033"><ele>72.0</ele><time>2026-04-25T13:31:53Z</time></trkpt><trkpt lat="45.91524167768757" lon="12.322616229558449"><ele>71.66666666666667</ele><time>2026-04-25T13:31:54Z</time></trkpt><trkpt lat="45.91540564648391" lon="12.322531961166867"><ele>71.33333333333334</ele><time>2026-04-25T13:31:55Z</time></trkpt><trkpt lat="45.91556818874757" lon="12.32244919739298"><ele>71.0</ele><time>2026-04-25T13:31:56Z</time></trkpt><trkpt lat="45.915731865366524" lon="12.322365510872487"><ele>71.0</ele><time>2026-04-25T13:31:57Z</time></trkpt><trkpt lat="45.915896232721074" lon="12.32228351658855"><ele>71.0</ele><time>2026-04-25T13:31:58Z</time></trkpt><trkpt lat="45.91605782830605" lon="12.322201857854317"><ele>71.0</ele><time>2026-04-25T13:31:59Z</time></trkpt><trkpt lat="45.916219277681094" lon="12.322119937505654"><ele>72.33333333333334</ele><time>2026-04-25T13:32:00Z</time></trkpt><trkpt lat="45.91637979168802" lon="12.322038520301307"><ele>73.66666666666667</ele><time>2026-04-25T13:32:01Z</time></trkpt><trkpt lat="45.91654153709994" lon="12.321958144629207"><ele>75.0</ele><time>2026-04-25T13:32:02Z</time></trkpt><trkpt lat="45.91670561146986" lon="12.321876310729015"><ele>75.0</ele><time>2026-04-25T13:32:03Z</time></trkpt><trkpt lat="45.91687087735749" lon="12.321792078826073"><ele>75.0</ele><time>2026-04-25T13:32:04Z</time></trkpt><trkpt lat="45.917035013423444" lon="12.321707913377482"><ele>75.0</ele><time>2026-04-25T13:32:05Z</time></trkpt><trkpt lat="45.91720139400584" lon="12.321621698245638"><ele>75.0</ele><time>2026-04-25T13:32:06Z</time></trkpt><trkpt lat="45.917364739475445" lon="12.321538568212008"><ele>75.0</ele><time>2026-04-25T13:32:07Z</time></trkpt><trkpt lat="45.917525783294316" lon="12.321454212458024"><ele>75.0</ele><time>2026-04-25T13:32:08Z</time></trkpt><trkpt lat="45.917690079223476" lon="12.321370051217288"><ele>74.33333333333333</ele><time>2026-04-25T13:32:09Z</time></trkpt><trkpt lat="45.9178559863038" lon="12.321286249996028"><ele>73.66666666666666</ele><time>2026-04-25T13:32:10Z</time></trkpt><trkpt lat="45.918022937221274" lon="12.321200433592804"><ele>73.0</ele><time>2026-04-25T13:32:11Z</time></trkpt><trkpt lat="45.91819020147608" lon="12.32111452359127"><ele>73.0</ele><time>2026-04-25T13:32:12Z</time></trkpt><trkpt lat="45.91835950961574" lon="12.32102913290459"><ele>73.0</ele><time>2026-04-25T13:32:13Z</time></trkpt><trkpt lat="45.918529292431906" lon="12.32094373654288"><ele>73.0</ele><time>2026-04-25T13:32:14Z</time></trkpt><trkpt lat="45.91869860790379" lon="12.320859313943938"><ele>73.0</ele><time>2026-04-25T13:32:15Z</time></trkpt><trkpt lat="45.91886810200035" lon="12.320773654948985"><ele>73.0</ele><time>2026-04-25T13:32:16Z</time></trkpt><trkpt lat="45.91903704116127" lon="12.320688544469341"><ele>73.0</ele><time>2026-04-25T13:32:17Z</time></trkpt><trkpt lat="45.91920863748829" lon="12.320607125631932"><ele>73.66666666666666</ele><time>2026-04-25T13:32:18Z</time></trkpt><trkpt lat="45.91938152283406" lon="12.320535528800876"><ele>74.33333333333333</ele><time>2026-04-25T13:32:19Z</time></trkpt><trkpt lat="45.91955837755842" lon="12.320474741746933"><ele>75.0</ele><time>2026-04-25T13:32:20Z</time></trkpt><trkpt lat="45.919738436225465" lon="12.320424064676088"><ele>75.0</ele><time>2026-04-25T13:32:21Z</time></trkpt><trkpt lat="45.91992011136053" lon="12.32038244402368"><ele>75.0</ele><time>2026-04-25T13:32:22Z</time></trkpt><trkpt lat="45.920104434787824" lon="12.320352883524015"><ele>75.0</ele><time>2026-04-25T13:32:23Z</time></trkpt><trkpt lat="45.92028799388635" lon="12.320333531473317"><ele>76.0</ele><time>2026-04-25T13:32:24Z</time></trkpt><trkpt lat="45.920472943062315" lon="12.320327350079909"><ele>77.0</ele><time>2026-04-25T13:32:25Z</time></trkpt><trkpt lat="45.92065942618846" lon="12.320329967038557"><ele>78.0</ele><time>2026-04-25T13:32:26Z</time></trkpt><trkpt lat="45.9208448545575" lon="12.320337797318516"><ele>78.66666666666667</ele><time>2026-04-25T13:32:27Z</time></trkpt><trkpt lat="45.92102991467317" lon="12.320352344259994"><ele>79.33333333333334</ele><time>2026-04-25T13:32:28Z</time></trkpt><trkpt lat="45.92121678321366" lon="12.320369784185456"><ele>80.0</ele><time>2026-04-25T13:32:29Z</time></trkpt><trkpt lat="45.921403397200656" lon="12.32038987257272"><ele>80.0</ele><time>2026-04-25T13:32:30Z</time></trkpt><trkpt lat="45.92159148879944" lon="12.320411256309486"><ele>80.0</ele><time>2026-04-25T13:32:31Z</time></trkpt><trkpt lat="45.92177949585561" lon="12.320433922828649"><ele>80.0</ele><time>2026-04-25T13:32:32Z</time></trkpt><trkpt lat="45.92196617063211" lon="12.320455172121685"><ele>80.0</ele><time>2026-04-25T13:32:33Z</time></trkpt><trkpt lat="45.92215316577863" lon="12.320473592261209"><ele>80.0</ele><time>2026-04-25T13:32:34Z</time></trkpt><trkpt lat="45.92234294449892" lon="12.320497155094685"><ele>80.0</ele><time>2026-04-25T13:32:35Z</time></trkpt><trkpt lat="45.922534935140206" lon="12.320525173125159"><ele>79.33333333333334</ele><time>2026-04-25T13:32:36Z</time></trkpt><trkpt lat="45.9227254439815" lon="12.320550196574349"><ele>78.66666666666667</ele><time>2026-04-25T13:32:37Z</time></trkpt><trkpt lat="45.922910491727876" lon="12.320576668275377"><ele>78.0</ele><time>2026-04-25T13:32:38Z</time></trkpt><trkpt lat="45.92309753136102" lon="12.32060120854917"><ele>77.66666666666667</ele><time>2026-04-25T13:32:39Z</time></trkpt><trkpt lat="45.92328141972343" lon="12.320622912193494"><ele>77.33333333333334</ele><time>2026-04-25T13:32:40Z</time></trkpt><trkpt lat="45.92346291480398" lon="12.320644393865626"><ele>77.0</ele><time>2026-04-25T13:32:41Z</time></trkpt><trkpt lat="45.923644047373756" lon="12.320664803176118"><ele>77.0</ele><time>2026-04-25T13:32:42Z</time></trkpt><trkpt lat="45.923826170897286" lon="12.32068771050452"><ele>77.0</ele><time>2026-04-25T13:32:43Z</time></trkpt><trkpt lat="45.924007741469254" lon="12.320708477036028"><ele>77.0</ele><time>2026-04-25T13:32:44Z</time></trkpt><trkpt lat="45.92418865804656" lon="12.32073060093639"><ele>77.33333333333334</ele><time>2026-04-25T13:32:45Z</time></trkpt><trkpt lat="45.92437201628527" lon="12.320753530322206"><ele>77.66666666666667</ele><time>2026-04-25T13:32:46Z</time></trkpt><trkpt lat="45.92455535765271" lon="12.320775706938571"><ele>78.0</ele><time>2026-04-25T13:32:47Z</time></trkpt><trkpt lat="45.92474001248428" lon="12.320794830096359"><ele>78.0</ele><time>2026-04-25T13:32:48Z</time></trkpt><trkpt lat="45.92492264403102" lon="12.320815666614315"><ele>78.0</ele><time>2026-04-25T13:32:49Z</time></trkpt><trkpt lat="45.92510589705692" lon="12.320838211555689"><ele>78.0</ele><time>2026-04-25T13:32:50Z</time></trkpt><trkpt lat="45.92528606209652" lon="12.320857646136027"><ele>79.0</ele><time>2026-04-25T13:32:51Z</time></trkpt><trkpt lat="45.925459630344655" lon="12.320879919937418"><ele>80.0</ele><time>2026-04-25T13:32:52Z</time></trkpt><trkpt lat="45.9256311546897" lon="12.320902537947035"><ele>81.0</ele><time>2026-04-25T13:32:53Z</time></trkpt><trkpt lat="45.925800349889776" lon="12.320926028836885"><ele>81.0</ele><time>2026-04-25T13:32:54Z</time></trkpt><trkpt lat="45.92596791393386" lon="12.320941918211917"><ele>81.0</ele><time>2026-04-25T13:32:55Z</time></trkpt><trkpt lat="45.92613529026844" lon="12.320957971149152"><ele>81.0</ele><time>2026-04-25T13:32:56Z</time></trkpt><trkpt lat="45.92630054401831" lon="12.320976210177642"><ele>81.0</ele><time>2026-04-25T13:32:57Z</time></trkpt><trkpt lat="45.926467284797376" lon="12.320996112095571"><ele>81.0</ele><time>2026-04-25T13:32:58Z</time></trkpt><trkpt lat="45.92663342618398" lon="12.321015833313867"><ele>81.0</ele><time>2026-04-25T13:32:59Z</time></trkpt><trkpt lat="45.92680012755984" lon="12.32103689019947"><ele>81.66666666666667</ele><time>2026-04-25T13:33:00Z</time></trkpt><trkpt lat="45.92696787534138" lon="12.321058880076349"><ele>82.33333333333334</ele><time>2026-04-25T13:33:01Z</time></trkpt><trkpt lat="45.92713724276279" lon="12.32108090903877"><ele>83.0</ele><time>2026-04-25T13:33:02Z</time></trkpt><trkpt lat="45.92730515632823" lon="12.321099889391068"><ele>83.0</ele><time>2026-04-25T13:33:03Z</time></trkpt><trkpt lat="45.92747476944633" lon="12.321118840695512"><ele>83.0</ele><time>2026-04-25T13:33:04Z</time></trkpt><trkpt lat="45.92764469928962" lon="12.321138709930915"><ele>83.0</ele><time>2026-04-25T13:33:05Z</time></trkpt><trkpt lat="45.92781291311315" lon="12.321160062252678"><ele>81.66666666666667</ele><time>2026-04-25T13:33:06Z</time></trkpt><trkpt lat="45.92797620148814" lon="12.321181309073292"><ele>80.33333333333333</ele><time>2026-04-25T13:33:07Z</time></trkpt><trkpt lat="45.92814011706367" lon="12.321202570154508"><ele>79.0</ele><time>2026-04-25T13:33:08Z</time></trkpt><trkpt lat="45.92830225701459" lon="12.321222812068392"><ele>79.33333333333333</ele><time>2026-04-25T13:33:09Z</time></trkpt><trkpt lat="45.928464389268925" lon="12.321243257527351"><ele>79.66666666666667</ele><time>2026-04-25T13:33:10Z</time></trkpt><trkpt lat="45.928626749144684" lon="12.321263684936122"><ele>80.0</ele><time>2026-04-25T13:33:11Z</time></trkpt><trkpt lat="45.928786204116705" lon="12.32128274607546"><ele>80.0</ele><time>2026-04-25T13:33:12Z</time></trkpt><trkpt lat="45.9289389860567" lon="12.32129876011654"><ele>80.0</ele><time>2026-04-25T13:33:13Z</time></trkpt><trkpt lat="45.92908435467267" lon="12.321315128433586"><ele>80.0</ele><time>2026-04-25T13:33:14Z</time></trkpt><trkpt lat="45.92922171764912" lon="12.321331387052227"><ele>80.0</ele><time>2026-04-25T13:33:15Z</time></trkpt><trkpt lat="45.92935153533606" lon="12.321346917729514"><ele>80.5</ele><time>2026-04-25T13:33:16Z</time></trkpt><trkpt lat="45.929472834445534" lon="12.321359569323556"><ele>81.0</ele><time>2026-04-25T13:33:17Z</time></trkpt><trkpt lat="45.92959015062851" lon="12.321373730013743"><ele>81.5</ele><time>2026-04-25T13:33:18Z</time></trkpt><trkpt lat="45.92970216362697" lon="12.32138611660051"><ele>82.0</ele><time>2026-04-25T13:33:19Z</time></trkpt><trkpt lat="45.9298151754486" lon="12.321399821486166"><ele>82.0</ele><time>2026-04-25T13:33:20Z</time></trkpt><trkpt lat="45.92992775555115" lon="12.321414096342885"><ele>82.0</ele><time>2026-04-25T13:33:21Z</time></trkpt><trkpt lat="45.93004110618877" lon="12.3214309766855"><ele>82.0</ele><time>2026-04-25T13:33:22Z</time></trkpt><trkpt lat="45.930159524700194" lon="12.321447379041041"><ele>82.0</ele><time>2026-04-25T13:33:23Z</time></trkpt><trkpt lat="45.93028149614033" lon="12.32145986799106"><ele>82.25</ele><time>2026-04-25T13:33:24Z</time></trkpt><trkpt lat="45.93040395012184" lon="12.321472838120807"><ele>82.5</ele><time>2026-04-25T13:33:25Z</time></trkpt><trkpt lat="45.93053100311407" lon="12.321485625513347"><ele>82.75</ele><time>2026-04-25T13:33:26Z</time></trkpt><trkpt lat="45.93065753262693" lon="12.321499568887731"><ele>83.0</ele><time>2026-04-25T13:33:27Z</time></trkpt><trkpt lat="45.93078083466399" lon="12.321514893415095"><ele>83.75</ele><time>2026-04-25T13:33:28Z</time></trkpt><trkpt lat="45.93090431365793" lon="12.321528715638866"><ele>84.5</ele><time>2026-04-25T13:33:29Z</time></trkpt><trkpt lat="45.93103110546693" lon="12.321545268232644"><ele>85.25</ele><time>2026-04-25T13:33:30Z</time></trkpt><trkpt lat="45.93115780000369" lon="12.321563693581261"><ele>86.0</ele><time>2026-04-25T13:33:31Z</time></trkpt><trkpt lat="45.93128432619503" lon="12.32158126723424"><ele>86.0</ele><time>2026-04-25T13:33:32Z</time></trkpt><trkpt lat="45.93140841430318" lon="12.32159772139708"><ele>86.0</ele><time>2026-04-25T13:33:33Z</time></trkpt><trkpt lat="45.93153377843551" lon="12.321615689257158"><ele>86.0</ele><time>2026-04-25T13:33:34Z</time></trkpt><trkpt lat="45.93166484768709" lon="12.321631677305037"><ele>86.0</ele><time>2026-04-25T13:33:35Z</time></trkpt><trkpt lat="45.9318003989137" lon="12.321649121608989"><ele>85.75</ele><time>2026-04-25T13:33:36Z</time></trkpt><trkpt lat="45.931939849106016" lon="12.32166455770166"><ele>85.5</ele><time>2026-04-25T13:33:37Z</time></trkpt><trkpt lat="45.93208144990416" lon="12.32168110683391"><ele>85.25</ele><time>2026-04-25T13:33:38Z</time></trkpt><trkpt lat="45.932225382843484" lon="12.321696970284414"><ele>85.0</ele><time>2026-04-25T13:33:39Z</time></trkpt><trkpt lat="45.93236704543837" lon="12.321713822173582"><ele>85.0</ele><time>2026-04-25T13:33:40Z</time></trkpt><trkpt lat="45.93251039424925" lon="12.321730364375755"><ele>85.0</ele><time>2026-04-25T13:33:41Z</time></trkpt><trkpt lat="45.93265551469035" lon="12.321744793123608"><ele>85.0</ele><time>2026-04-25T13:33:42Z</time></trkpt><trkpt lat="45.93280002845856" lon="12.321760839680811"><ele>85.0</ele><time>2026-04-25T13:33:43Z</time></trkpt><trkpt lat="45.93294920561237" lon="12.321775608082238"><ele>85.0</ele><time>2026-04-25T13:33:44Z</time></trkpt><trkpt lat="45.93309911164061" lon="12.32179027294303"><ele>85.0</ele><time>2026-04-25T13:33:45Z</time></trkpt><trkpt lat="45.933249128319694" lon="12.321805843476128"><ele>85.0</ele><time>2026-04-25T13:33:46Z</time></trkpt><trkpt lat="45.93339915390711" lon="12.321823611156532"><ele>85.0</ele><time>2026-04-25T13:33:47Z</time></trkpt><trkpt lat="45.933545813178284" lon="12.321841328100044"><ele>85.0</ele><time>2026-04-25T13:33:48Z</time></trkpt><trkpt lat="45.93369262689568" lon="12.321858305291537"><ele>85.0</ele><time>2026-04-25T13:33:49Z</time></trkpt><trkpt lat="45.933837882215755" lon="12.321877649573862"><ele>85.0</ele><time>2026-04-25T13:33:50Z</time></trkpt><trkpt lat="45.933984370649284" lon="12.321897902262082"><ele>85.0</ele><time>2026-04-25T13:33:51Z</time></trkpt><trkpt lat="45.934133651075264" lon="12.321915818631194"><ele>85.0</ele><time>2026-04-25T13:33:52Z</time></trkpt><trkpt lat="45.93428048107859" lon="12.321929013340249"><ele>85.0</ele><time>2026-04-25T13:33:53Z</time></trkpt><trkpt lat="45.93442788816998" lon="12.321947473458623"><ele>85.0</ele><time>2026-04-25T13:33:54Z</time></trkpt><trkpt lat="45.934575800112185" lon="12.32196386213883"><ele>86.0</ele><time>2026-04-25T13:33:55Z</time></trkpt><trkpt lat="45.934728085929294" lon="12.321980717644688"><ele>87.0</ele><time>2026-04-25T13:33:56Z</time></trkpt><trkpt lat="45.93488082986142" lon="12.322000101823523"><ele>88.0</ele><time>2026-04-25T13:33:57Z</time></trkpt><trkpt lat="45.93503703232016" lon="12.32201901406227"><ele>87.66666666666666</ele><time>2026-04-25T13:33:58Z</time></trkpt><trkpt lat="45.935195686465036" lon="12.322036524132358"><ele>87.33333333333333</ele><time>2026-04-25T13:33:59Z</time></trkpt><trkpt lat="45.93535591791352" lon="12.322055474265435"><ele>87.0</ele><time>2026-04-25T13:34:00Z</time></trkpt><trkpt lat="45.93551601697954" lon="12.322074616864008"><ele>87.0</ele><time>2026-04-25T13:34:01Z</time></trkpt><trkpt lat="45.93567499301919" lon="12.322094662624394"><ele>87.0</ele><time>2026-04-25T13:34:02Z</time></trkpt><trkpt lat="45.93583374186351" lon="12.322115894365083"><ele>87.0</ele><time>2026-04-25T13:34:03Z</time></trkpt><trkpt lat="45.9359976947649" lon="12.322133928543437"><ele>87.33333333333333</ele><time>2026-04-25T13:34:04Z</time></trkpt><trkpt lat="45.93616085981932" lon="12.32215174986637"><ele>87.66666666666666</ele><time>2026-04-25T13:34:05Z</time></trkpt><trkpt lat="45.93632231065973" lon="12.322171662333078"><ele>88.0</ele><time>2026-04-25T13:34:06Z</time></trkpt><trkpt lat="45.9364843747909" lon="12.322191657215763"><ele>88.0</ele><time>2026-04-25T13:34:07Z</time></trkpt><trkpt lat="45.93664608130154" lon="12.32221083147026"><ele>88.0</ele><time>2026-04-25T13:34:08Z</time></trkpt><trkpt lat="45.93680676127864" lon="12.322226586891691"><ele>88.0</ele><time>2026-04-25T13:34:09Z</time></trkpt><trkpt lat="45.93696634395993" lon="12.32224473353295"><ele>88.0</ele><time>2026-04-25T13:34:10Z</time></trkpt><trkpt lat="45.93712294608163" lon="12.32226515879924"><ele>88.0</ele><time>2026-04-25T13:34:11Z</time></trkpt><trkpt lat="45.937273715271324" lon="12.322280741013026"><ele>88.0</ele><time>2026-04-25T13:34:12Z</time></trkpt><trkpt lat="45.93742811567219" lon="12.322295945373497"><ele>88.33333333333333</ele><time>2026-04-25T13:34:13Z</time></trkpt><trkpt lat="45.937585876597545" lon="12.322313826959164"><ele>88.66666666666667</ele><time>2026-04-25T13:34:14Z</time></trkpt><trkpt lat="45.93774568543627" lon="12.322334556144577"><ele>89.0</ele><time>2026-04-25T13:34:15Z</time></trkpt><trkpt lat="45.93790695230612" lon="12.322356658162148"><ele>89.0</ele><time>2026-04-25T13:34:16Z</time></trkpt><trkpt lat="45.9380698051067" lon="12.322376534459785"><ele>89.0</ele><time>2026-04-25T13:34:17Z</time></trkpt><trkpt lat="45.938232129399516" lon="12.322392009401899"><ele>89.0</ele><time>2026-04-25T13:34:18Z</time></trkpt><trkpt lat="45.938390270109316" lon="12.322425023690482"><ele>88.66666666666667</ele><time>2026-04-25T13:34:19Z</time></trkpt><trkpt lat="45.93854969104756" lon="12.322441879026599"><ele>88.33333333333333</ele><time>2026-04-25T13:34:20Z</time></trkpt><trkpt lat="45.938708947951426" lon="12.322464451456321"><ele>88.0</ele><time>2026-04-25T13:34:21Z</time></trkpt><trkpt lat="45.93886971064528" lon="12.32248637098369"><ele>88.0</ele><time>2026-04-25T13:34:22Z</time></trkpt><trkpt lat="45.939030588275685" lon="12.322503620641893"><ele>88.0</ele><time>2026-04-25T13:34:23Z</time></trkpt><trkpt lat="45.939189143312824" lon="12.322522407617546"><ele>88.0</ele><time>2026-04-25T13:34:24Z</time></trkpt><trkpt lat="45.939341204370685" lon="12.322542589767815"><ele>88.5</ele><time>2026-04-25T13:34:25Z</time></trkpt><trkpt lat="45.93949175592714" lon="12.322560559245348"><ele>89.0</ele><time>2026-04-25T13:34:26Z</time></trkpt><trkpt lat="45.93963968064378" lon="12.322580905680908"><ele>89.5</ele><time>2026-04-25T13:34:27Z</time></trkpt><trkpt lat="45.939784791700625" lon="12.322602107187835"><ele>90.0</ele><time>2026-04-25T13:34:28Z</time></trkpt><trkpt lat="45.939927765441595" lon="12.322623406473978"><ele>90.75</ele><time>2026-04-25T13:34:29Z</time></trkpt><trkpt lat="45.94006841656994" lon="12.322639749793955"><ele>91.5</ele><time>2026-04-25T13:34:30Z</time></trkpt><trkpt lat="45.94020586104124" lon="12.32265437616523"><ele>92.25</ele><time>2026-04-25T13:34:31Z</time></trkpt><trkpt lat="45.940342333018584" lon="12.322671827459335"><ele>93.0</ele><time>2026-04-25T13:34:32Z</time></trkpt><trkpt lat="45.94047465787889" lon="12.322688347522002"><ele>93.0</ele><time>2026-04-25T13:34:33Z</time></trkpt><trkpt lat="45.940600478101146" lon="12.322706276307635"><ele>93.0</ele><time>2026-04-25T13:34:34Z</time></trkpt><trkpt lat="45.94071960332325" lon="12.322723179210447"><ele>93.0</ele><time>2026-04-25T13:34:35Z</time></trkpt><trkpt lat="45.9408366580866" lon="12.322737085361306"><ele>93.0</ele><time>2026-04-25T13:34:36Z</time></trkpt><trkpt lat="45.94095011891634" lon="12.322750942003323"><ele>92.60000000000001</ele><time>2026-04-25T13:34:37Z</time></trkpt><trkpt lat="45.94106059061228" lon="12.322769096577563"><ele>92.2</ele><time>2026-04-25T13:34:38Z</time></trkpt><trkpt lat="45.94116648087274" lon="12.322786731018109"><ele>91.8</ele><time>2026-04-25T13:34:39Z</time></trkpt><trkpt lat="45.94126568132214" lon="12.322806950737052"><ele>91.4</ele><time>2026-04-25T13:34:40Z</time></trkpt><trkpt lat="45.94135931149515" lon="12.322829241755771"><ele>91.0</ele><time>2026-04-25T13:34:41Z</time></trkpt><trkpt lat="45.94144751886621" lon="12.322858095606644"><ele>91.0</ele><time>2026-04-25T13:34:42Z</time></trkpt><trkpt lat="45.941528124324435" lon="12.322889915556866"><ele>91.0</ele><time>2026-04-25T13:34:43Z</time></trkpt><trkpt lat="45.941603220586" lon="12.32292603162183"><ele>91.0</ele><time>2026-04-25T13:34:44Z</time></trkpt><trkpt lat="45.94167242928291" lon="12.322969245352995"><ele>91.0</ele><time>2026-04-25T13:34:45Z</time></trkpt><trkpt lat="45.94173620828982" lon="12.32301945684952"><ele>91.0</ele><time>2026-04-25T13:34:46Z</time></trkpt><trkpt lat="45.941799203699304" lon="12.32308816249003"><ele>91.0</ele><time>2026-04-25T13:34:47Z</time></trkpt><trkpt lat="45.94185737519344" lon="12.32317704046803"><ele>91.19999999999999</ele><time>2026-04-25T13:34:48Z</time></trkpt><trkpt lat="45.941934736583406" lon="12.323252794734097"><ele>91.39999999999999</ele><time>2026-04-25T13:34:49Z</time></trkpt><trkpt lat="45.942018606065815" lon="12.323307781829596"><ele>91.6</ele><time>2026-04-25T13:34:50Z</time></trkpt><trkpt lat="45.942108468945584" lon="12.32330186675016"><ele>91.8</ele><time>2026-04-25T13:34:51Z</time></trkpt><trkpt lat="45.94220168153135" lon="12.323248870847802"><ele>92.0</ele><time>2026-04-25T13:34:52Z</time></trkpt><trkpt lat="45.94229433431368" lon="12.323170781114445"><ele>92.0</ele><time>2026-04-25T13:34:53Z</time></trkpt><trkpt lat="45.94239989064054" lon="12.32309878506746"><ele>92.0</ele><time>2026-04-25T13:34:54Z</time></trkpt><trkpt lat="45.94252039355754" lon="12.323052326365042"><ele>92.0</ele><time>2026-04-25T13:34:55Z</time></trkpt><trkpt lat="45.942654682873446" lon="12.3230322948486"><ele>92.0</ele><time>2026-04-25T13:34:56Z</time></trkpt><trkpt lat="45.94279548836064" lon="12.323025280782788"><ele>93.0</ele><time>2026-04-25T13:34:57Z</time></trkpt><trkpt lat="45.94294427843205" lon="12.323017981792397"><ele>94.0</ele><time>2026-04-25T13:34:58Z</time></trkpt><trkpt lat="45.943094368447866" lon="12.323013390482759"><ele>95.0</ele><time>2026-04-25T13:34:59Z</time></trkpt><trkpt lat="45.943245641228906" lon="12.323012144461616"><ele>94.66666666666667</ele><time>2026-04-25T13:35:00Z</time></trkpt><trkpt lat="45.94339962623952" lon="12.323024045639137"><ele>94.33333333333333</ele><time>2026-04-25T13:35:01Z</time></trkpt><trkpt lat="45.94355454243125" lon="12.323038735109858"><ele>94.0</ele><time>2026-04-25T13:35:02Z</time></trkpt><trkpt lat="45.943706693527865" lon="12.323054992145646"><ele>94.33333333333333</ele><time>2026-04-25T13:35:03Z</time></trkpt><trkpt lat="45.9438587834336" lon="12.323072751215737"><ele>94.66666666666667</ele><time>2026-04-25T13:35:04Z</time></trkpt><trkpt lat="45.94401257631949" lon="12.32309269483877"><ele>95.0</ele><time>2026-04-25T13:35:05Z</time></trkpt><trkpt lat="45.94416960316876" lon="12.32311137416442"><ele>94.66666666666667</ele><time>2026-04-25T13:35:06Z</time></trkpt><trkpt lat="45.944326912051835" lon="12.323124186557031"><ele>94.33333333333333</ele><time>2026-04-25T13:35:07Z</time></trkpt><trkpt lat="45.944492264442125" lon="12.323141583308216"><ele>94.0</ele><time>2026-04-25T13:35:08Z</time></trkpt><trkpt lat="45.94466898484062" lon="12.323183343748747"><ele>94.0</ele><time>2026-04-25T13:35:09.001Z</time></trkpt><trkpt lat="45.94484412661355" lon="12.323205293077052"><ele>94.0</ele><time>2026-04-25T13:35:10.001Z</time></trkpt><trkpt lat="45.9450274519302" lon="12.323228224770226"><ele>94.0</ele><time>2026-04-25T13:35:11.001Z</time></trkpt><trkpt lat="45.94519935760688" lon="12.323248601513486"><ele>94.66666666666666</ele><time>2026-04-25T13:35:12.001Z</time></trkpt><trkpt lat="45.94537577291368" lon="12.323250642622307"><ele>95.33333333333333</ele><time>2026-04-25T13:35:13.001Z</time></trkpt><trkpt lat="45.94555691405387" lon="12.323275259816464"><ele>96.0</ele><time>2026-04-25T13:35:14.001Z</time></trkpt><trkpt lat="45.945737731924304" lon="12.323301122068827"><ele>96.0</ele><time>2026-04-25T13:35:15.001Z</time></trkpt><trkpt lat="45.945900548257455" lon="12.323322021508229"><ele>96.0</ele><time>2026-04-25T13:35:16.001Z</time></trkpt><trkpt lat="45.94605359995908" lon="12.323339756540577"><ele>96.0</ele><time>2026-04-25T13:35:17.001Z</time></trkpt><trkpt lat="45.946195987909284" lon="12.323355552473684"><ele>96.0</ele><time>2026-04-25T13:35:18.001Z</time></trkpt><trkpt lat="45.946330348537664" lon="12.323373054689165"><ele>96.0</ele><time>2026-04-25T13:35:19Z</time></trkpt><trkpt lat="45.94645802687242" lon="12.323390342301131"><ele>96.0</ele><time>2026-04-25T13:35:20Z</time></trkpt><trkpt lat="45.946576893333514" lon="12.32340836538328"><ele>96.0</ele><time>2026-04-25T13:35:21Z</time></trkpt><trkpt lat="45.94668861852365" lon="12.323424609737964"><ele>96.19999999999999</ele><time>2026-04-25T13:35:22Z</time></trkpt><trkpt lat="45.946794002288904" lon="12.323446833064885"><ele>96.39999999999999</ele><time>2026-04-25T13:35:23Z</time></trkpt><trkpt lat="45.94688632374581" lon="12.323483067455978"><ele>96.6</ele><time>2026-04-25T13:35:24Z</time></trkpt><trkpt lat="45.94697170964814" lon="12.323537206773052"><ele>96.8</ele><time>2026-04-25T13:35:25Z</time></trkpt><trkpt lat="45.947044412861516" lon="12.3236185990872"><ele>97.0</ele><time>2026-04-25T13:35:26Z</time></trkpt><trkpt lat="45.94711397991696" lon="12.32371486363025"><ele>97.0</ele><time>2026-04-25T13:35:27Z</time></trkpt><trkpt lat="45.94719652889863" lon="12.323784191879497"><ele>97.0</ele><time>2026-04-25T13:35:28Z</time></trkpt><trkpt lat="45.94729434835243" lon="12.323812776689065"><ele>97.0</ele><time>2026-04-25T13:35:29Z</time></trkpt><trkpt lat="45.94739452924651" lon="12.323797521601023"><ele>97.0</ele><time>2026-04-25T13:35:30Z</time></trkpt><trkpt lat="45.94749298185029" lon="12.323732324415658"><ele>97.0</ele><time>2026-04-25T13:35:31Z</time></trkpt><trkpt lat="45.94758950549985" lon="12.323635425150991"><ele>97.5</ele><time>2026-04-25T13:35:32Z</time></trkpt><trkpt lat="45.94771181123944" lon="12.323570506027378"><ele>98.0</ele><time>2026-04-25T13:35:33Z</time></trkpt><trkpt lat="45.947852647340056" lon="12.323560624660495"><ele>98.5</ele><time>2026-04-25T13:35:34Z</time></trkpt><trkpt lat="45.948001279331805" lon="12.323571528578602"><ele>99.0</ele><time>2026-04-25T13:35:35Z</time></trkpt><trkpt lat="45.948157347427085" lon="12.323594097329703"><ele>99.0</ele><time>2026-04-25T13:35:36Z</time></trkpt><trkpt lat="45.948316598959885" lon="12.323611390673902"><ele>99.0</ele><time>2026-04-25T13:35:37Z</time></trkpt><trkpt lat="45.948488703202806" lon="12.323629590757099"><ele>99.0</ele><time>2026-04-25T13:35:38Z</time></trkpt><trkpt lat="45.94866544554997" lon="12.323659387930528"><ele>99.0</ele><time>2026-04-25T13:35:39Z</time></trkpt><trkpt lat="45.94883275591649" lon="12.323678026333317"><ele>99.0</ele><time>2026-04-25T13:35:40Z</time></trkpt><trkpt lat="45.94905252845828" lon="12.323700812960482"><ele>99.0</ele><time>2026-04-25T13:35:41Z</time></trkpt><trkpt lat="45.94924687168435" lon="12.323728846639272"><ele>99.0</ele><time>2026-04-25T13:35:42Z</time></trkpt><trkpt lat="45.94943272003985" lon="12.323751233740456"><ele>99.0</ele><time>2026-04-25T13:35:43Z</time></trkpt><trkpt lat="45.94961021777288" lon="12.323771049301024"><ele>99.0</ele><time>2026-04-25T13:35:44Z</time></trkpt><trkpt lat="45.94978384431411" lon="12.323790404783663"><ele>99.0</ele><time>2026-04-25T13:35:45Z</time></trkpt><trkpt lat="45.94995208839025" lon="12.323810033667165"><ele>99.0</ele><time>2026-04-25T13:35:46Z</time></trkpt><trkpt lat="45.95011471967614" lon="12.323829994049207"><ele>99.0</ele><time>2026-04-25T13:35:47Z</time></trkpt><trkpt lat="45.95027166512603" lon="12.323851957710175"><ele>99.0</ele><time>2026-04-25T13:35:48Z</time></trkpt><trkpt lat="45.950427388626466" lon="12.323868919559365"><ele>99.0</ele><time>2026-04-25T13:35:49Z</time></trkpt><trkpt lat="45.9505793190421" lon="12.32388661898056"><ele>99.0</ele><time>2026-04-25T13:35:50Z</time></trkpt><trkpt lat="45.95072703549029" lon="12.323900147612832"><ele>99.25</ele><time>2026-04-25T13:35:51Z</time></trkpt><trkpt lat="45.95086947845749" lon="12.323915966619314"><ele>99.5</ele><time>2026-04-25T13:35:52Z</time></trkpt><trkpt lat="45.95101182799944" lon="12.323933648813211"><ele>99.75</ele><time>2026-04-25T13:35:53Z</time></trkpt><trkpt lat="45.95115100475513" lon="12.323949021826362"><ele>100.0</ele><time>2026-04-25T13:35:54Z</time></trkpt><trkpt lat="45.95128424968172" lon="12.32396510528043"><ele>100.0</ele><time>2026-04-25T13:35:55Z</time></trkpt><trkpt lat="45.951419027483524" lon="12.323983456493385"><ele>100.0</ele><time>2026-04-25T13:35:56Z</time></trkpt><trkpt lat="45.951550016796354" lon="12.324009299088969"><ele>100.0</ele><time>2026-04-25T13:35:57Z</time></trkpt><trkpt lat="45.9516852888786" lon="12.324022882647263"><ele>100.0</ele><time>2026-04-25T13:35:58Z</time></trkpt><trkpt lat="45.951827980609174" lon="12.324038462514512"><ele>100.0</ele><time>2026-04-25T13:35:59Z</time></trkpt><trkpt lat="45.951974525799734" lon="12.324056875786974"><ele>100.0</ele><time>2026-04-25T13:36:00Z</time></trkpt><trkpt lat="45.95212603092881" lon="12.324074236979374"><ele>100.0</ele><time>2026-04-25T13:36:01Z</time></trkpt><trkpt lat="45.95227645702077" lon="12.324090263633556"><ele>100.0</ele><time>2026-04-25T13:36:02Z</time></trkpt><trkpt lat="45.952428928365364" lon="12.32410668578025"><ele>100.0</ele><time>2026-04-25T13:36:03Z</time></trkpt><trkpt lat="45.9525815966695" lon="12.324123979771558"><ele>100.0</ele><time>2026-04-25T13:36:04Z</time></trkpt><trkpt lat="45.952738367166916" lon="12.324138024556634"><ele>100.33333333333334</ele><time>2026-04-25T13:36:05Z</time></trkpt><trkpt lat="45.95288878778774" lon="12.324161097865995"><ele>100.66666666666666</ele><time>2026-04-25T13:36:06Z</time></trkpt><trkpt lat="45.95304342921431" lon="12.324184807644748"><ele>101.0</ele><time>2026-04-25T13:36:07Z</time></trkpt><trkpt lat="45.953199976150806" lon="12.324214553817935"><ele>101.33333333333333</ele><time>2026-04-25T13:36:08Z</time></trkpt><trkpt lat="45.95337935295079" lon="12.324236049834028"><ele>101.66666666666666</ele><time>2026-04-25T13:36:09Z</time></trkpt><trkpt lat="45.95357061302171" lon="12.32425896993936"><ele>102.0</ele><time>2026-04-25T13:36:10Z</time></trkpt><trkpt lat="45.95373910719091" lon="12.324258056621368"><ele>102.0</ele><time>2026-04-25T13:36:11Z</time></trkpt><trkpt lat="45.953912919497505" lon="12.324282560769232"><ele>102.0</ele><time>2026-04-25T13:36:12Z</time></trkpt><trkpt lat="45.95407665078323" lon="12.324303368923548"><ele>102.0</ele><time>2026-04-25T13:36:13Z</time></trkpt><trkpt lat="45.95424621824244" lon="12.32432681796829"><ele>102.66666666666666</ele><time>2026-04-25T13:36:14Z</time></trkpt><trkpt lat="45.954416015490956" lon="12.324352363971727"><ele>103.33333333333333</ele><time>2026-04-25T13:36:15Z</time></trkpt><trkpt lat="45.95457157781049" lon="12.324365707004587"><ele>104.0</ele><time>2026-04-25T13:36:16Z</time></trkpt><trkpt lat="45.95471657351551" lon="12.324379277052552"><ele>104.0</ele><time>2026-04-25T13:36:17Z</time></trkpt><trkpt lat="45.9548584761532" lon="12.324395496947236"><ele>104.0</ele><time>2026-04-25T13:36:18Z</time></trkpt><trkpt lat="45.954995962241306" lon="12.32441451932711"><ele>104.0</ele><time>2026-04-25T13:36:19Z</time></trkpt><trkpt lat="45.9551323687447" lon="12.324431664047689"><ele>104.0</ele><time>2026-04-25T13:36:20Z</time></trkpt><trkpt lat="45.955270044994485" lon="12.324443880862166"><ele>104.25</ele><time>2026-04-25T13:36:21Z</time></trkpt><trkpt lat="45.95540248369251" lon="12.324458603973342"><ele>104.5</ele><time>2026-04-25T13:36:22Z</time></trkpt><trkpt lat="45.95553024728302" lon="12.324475436195579"><ele>104.75</ele><time>2026-04-25T13:36:23Z</time></trkpt><trkpt lat="45.95565509391518" lon="12.324491850614189"><ele>105.0</ele><time>2026-04-25T13:36:24Z</time></trkpt><trkpt lat="45.95578189004227" lon="12.324410218501162"><ele>103.75</ele><time>2026-04-25T13:36:25Z</time></trkpt><trkpt lat="45.955898958718336" lon="12.32451746615265"><ele>102.5</ele><time>2026-04-25T13:36:26Z</time></trkpt><trkpt lat="45.95602541744024" lon="12.324538752373174"><ele>101.25</ele><time>2026-04-25T13:36:27Z</time></trkpt><trkpt lat="45.956162044399996" lon="12.324554881937253"><ele>100.0</ele><time>2026-04-25T13:36:28Z</time></trkpt><trkpt lat="45.95629879385255" lon="12.324574179148083"><ele>100.0</ele><time>2026-04-25T13:36:29Z</time></trkpt><trkpt lat="45.95643495709118" lon="12.324589290018373"><ele>100.0</ele><time>2026-04-25T13:36:30Z</time></trkpt><trkpt lat="45.95657868654691" lon="12.32460612536501"><ele>100.0</ele><time>2026-04-25T13:36:31Z</time></trkpt><trkpt lat="45.95672273427281" lon="12.324622324336342"><ele>100.0</ele><time>2026-04-25T13:36:32Z</time></trkpt><trkpt lat="45.95686563766429" lon="12.324636675675162"><ele>100.25</ele><time>2026-04-25T13:36:33Z</time></trkpt><trkpt lat="45.957012791859135" lon="12.324648819382633"><ele>100.5</ele><time>2026-04-25T13:36:34Z</time></trkpt><trkpt lat="45.95715690762123" lon="12.324666774114668"><ele>100.75</ele><time>2026-04-25T13:36:35Z</time></trkpt><trkpt lat="45.95729741690087" lon="12.32468821775466"><ele>101.0</ele><time>2026-04-25T13:36:36Z</time></trkpt><trkpt lat="45.95744126320487" lon="12.324705995538702"><ele>101.25</ele><time>2026-04-25T13:36:37Z</time></trkpt><trkpt lat="45.95759133523244" lon="12.32472203834362"><ele>101.5</ele><time>2026-04-25T13:36:38Z</time></trkpt><trkpt lat="45.957737130353415" lon="12.324738698942472"><ele>101.75</ele><time>2026-04-25T13:36:39Z</time></trkpt><trkpt lat="45.95788366224909" lon="12.324755782027472"><ele>102.0</ele><time>2026-04-25T13:36:40Z</time></trkpt><trkpt lat="45.958035484757026" lon="12.324774353830856"><ele>102.25</ele><time>2026-04-25T13:36:41Z</time></trkpt><trkpt lat="45.958183709806235" lon="12.324794791040006"><ele>102.5</ele><time>2026-04-25T13:36:42Z</time></trkpt><trkpt lat="45.958326393102325" lon="12.324815377824226"><ele>102.75</ele><time>2026-04-25T13:36:43Z</time></trkpt><trkpt lat="45.95846076966476" lon="12.324829354287731"><ele>103.0</ele><time>2026-04-25T13:36:44Z</time></trkpt><trkpt lat="45.95858988623052" lon="12.324845408905512"><ele>103.25</ele><time>2026-04-25T13:36:45Z</time></trkpt><trkpt lat="45.95870918685557" lon="12.324856201962177"><ele>103.5</ele><time>2026-04-25T13:36:46Z</time></trkpt><trkpt lat="45.958832159282906" lon="12.324872298286008"><ele>103.75</ele><time>2026-04-25T13:36:47Z</time></trkpt><trkpt lat="45.95895165899902" lon="12.324889378671156"><ele>104.0</ele><time>2026-04-25T13:36:48Z</time></trkpt><trkpt lat="45.95907412168298" lon="12.324907863961894"><ele>104.5</ele><time>2026-04-25T13:36:49Z</time></trkpt><trkpt lat="45.95920070273746" lon="12.324926490279465"><ele>105.0</ele><time>2026-04-25T13:36:50Z</time></trkpt><trkpt lat="45.95932925172063" lon="12.324936056963596"><ele>105.5</ele><time>2026-04-25T13:36:51Z</time></trkpt><trkpt lat="45.95946085538352" lon="12.324957020154303"><ele>106.0</ele><time>2026-04-25T13:36:52Z</time></trkpt><trkpt lat="45.95959494240663" lon="12.324964553282278"><ele>106.0</ele><time>2026-04-25T13:36:53Z</time></trkpt><trkpt lat="45.95973119736347" lon="12.324969866568207"><ele>106.0</ele><time>2026-04-25T13:36:54Z</time></trkpt><trkpt lat="45.95986953133241" lon="12.324964752659437"><ele>106.0</ele><time>2026-04-25T13:36:55Z</time></trkpt><trkpt lat="45.96001009107664" lon="12.324946195035063"><ele>106.0</ele><time>2026-04-25T13:36:56Z</time></trkpt><trkpt lat="45.96015077390789" lon="12.324917230262356"><ele>105.5</ele><time>2026-04-25T13:36:57Z</time></trkpt><trkpt lat="45.96029045741795" lon="12.324877464860723"><ele>105.0</ele><time>2026-04-25T13:36:58Z</time></trkpt><trkpt lat="45.960431976571606" lon="12.324823896091528"><ele>104.5</ele><time>2026-04-25T13:36:59Z</time></trkpt><trkpt lat="45.960570423718465" lon="12.324757939762636"><ele>104.0</ele><time>2026-04-25T13:37:00Z</time></trkpt><trkpt lat="45.96070904759441" lon="12.324685818960779"><ele>104.0</ele><time>2026-04-25T13:37:01Z</time></trkpt><trkpt lat="45.9608474932458" lon="12.324605563754178"><ele>104.0</ele><time>2026-04-25T13:37:02Z</time></trkpt><trkpt lat="45.96098654305714" lon="12.324521088712341"><ele>104.0</ele><time>2026-04-25T13:37:03Z</time></trkpt><trkpt lat="45.961131861006834" lon="12.324444071103336"><ele>105.0</ele><time>2026-04-25T13:37:04Z</time></trkpt><trkpt lat="45.961276916694395" lon="12.324368327514652"><ele>106.0</ele><time>2026-04-25T13:37:05Z</time></trkpt><trkpt lat="45.96142511822723" lon="12.324287853938241"><ele>107.0</ele><time>2026-04-25T13:37:06Z</time></trkpt><trkpt lat="45.96156780551414" lon="12.324211332531307"><ele>107.0</ele><time>2026-04-25T13:37:07Z</time></trkpt><trkpt lat="45.96170716633678" lon="12.324133537507585"><ele>107.0</ele><time>2026-04-25T13:37:08Z</time></trkpt><trkpt lat="45.961848667418735" lon="12.32405710431132"><ele>107.0</ele><time>2026-04-25T13:37:09Z</time></trkpt><trkpt lat="45.96198508950975" lon="12.323979346849054"><ele>107.0</ele><time>2026-04-25T13:37:10Z</time></trkpt><trkpt lat="45.96211613291146" lon="12.323903170889661"><ele>107.0</ele><time>2026-04-25T13:37:11Z</time></trkpt><trkpt lat="45.96224927096215" lon="12.323826775459452"><ele>107.0</ele><time>2026-04-25T13:37:12Z</time></trkpt><trkpt lat="45.962383640556325" lon="12.32375208243496"><ele>107.0</ele><time>2026-04-25T13:37:13Z</time></trkpt><trkpt lat="45.96250980268701" lon="12.323685076229346"><ele>107.0</ele><time>2026-04-25T13:37:14Z</time></trkpt><trkpt lat="45.962641748425455" lon="12.32361445679096"><ele>107.0</ele><time>2026-04-25T13:37:15Z</time></trkpt><trkpt lat="45.96277003080506" lon="12.32354188071729"><ele>107.0</ele><time>2026-04-25T13:37:16Z</time></trkpt><trkpt lat="45.96289847832873" lon="12.323477380202434"><ele>107.0</ele><time>2026-04-25T13:37:17Z</time></trkpt><trkpt lat="45.96302547506915" lon="12.32340281786961"><ele>107.0</ele><time>2026-04-25T13:37:18Z</time></trkpt><trkpt lat="45.963152705230165" lon="12.32333378371419"><ele>107.0</ele><time>2026-04-25T13:37:19Z</time></trkpt><trkpt lat="45.96327663597044" lon="12.323265523826846"><ele>107.0</ele><time>2026-04-25T13:37:20Z</time></trkpt><trkpt lat="45.96340080970446" lon="12.323194597134536"><ele>107.0</ele><time>2026-04-25T13:37:21Z</time></trkpt><trkpt lat="45.96351268232119" lon="12.323121365915126"><ele>107.0</ele><time>2026-04-25T13:37:22Z</time></trkpt><trkpt lat="45.963615962450476" lon="12.323040543535217"><ele>107.19999999999999</ele><time>2026-04-25T13:37:23Z</time></trkpt><trkpt lat="45.96371428078431" lon="12.322965764941001"><ele>107.39999999999999</ele><time>2026-04-25T13:37:24Z</time></trkpt><trkpt lat="45.96381014483437" lon="12.322892820869452"><ele>107.60000000000001</ele><time>2026-04-25T13:37:25Z</time></trkpt><trkpt lat="45.96389394474974" lon="12.3228151575327"><ele>107.80000000000001</ele><time>2026-04-25T13:37:26Z</time></trkpt><trkpt lat="45.9639694708156" lon="12.322731548829173"><ele>108.0</ele><time>2026-04-25T13:37:27Z</time></trkpt><trkpt lat="45.96404154082281" lon="12.322655746070572"><ele>108.0</ele><time>2026-04-25T13:37:28Z</time></trkpt><trkpt lat="45.96410629027298" lon="12.322573441963696"><ele>108.0</ele><time>2026-04-25T13:37:29Z</time></trkpt><trkpt lat="45.964158968669494" lon="12.32249456925123"><ele>108.0</ele><time>2026-04-25T13:37:30Z</time></trkpt><trkpt lat="45.964215089453894" lon="12.322417950464365"><ele>108.0</ele><time>2026-04-25T13:37:31Z</time></trkpt><trkpt lat="45.96426639037445" lon="12.322339991307302"><ele>108.0</ele><time>2026-04-25T13:37:32Z</time></trkpt><trkpt lat="45.96435759165638" lon="12.322226794708568"><ele>108.0</ele><time>2026-04-25T13:37:34Z</time></trkpt><trkpt lat="45.964443463056206" lon="12.322092734285134"><ele>107.80000000000001</ele><time>2026-04-25T13:37:36Z</time></trkpt><trkpt lat="45.964523265793844" lon="12.321991671931018"><ele>107.60000000000001</ele><time>2026-04-25T13:37:38Z</time></trkpt><trkpt lat="45.96460354577435" lon="12.32189398397507"><ele>107.39999999999999</ele><time>2026-04-25T13:37:40Z</time></trkpt><trkpt lat="45.964668704841415" lon="12.321831794067146"><ele>107.19999999999999</ele><time>2026-04-25T13:37:42Z</time></trkpt><trkpt lat="45.96473972918037" lon="12.321762759193156"><ele>107.0</ele><time>2026-04-25T13:37:44Z</time></trkpt><trkpt lat="45.96479811017449" lon="12.321691065376465"><ele>106.99999999999999</ele><time>2026-04-25T13:37:46Z</time></trkpt><trkpt lat="45.96484606591465" lon="12.321611027423852"><ele>107.0</ele><time>2026-04-25T13:37:48Z</time></trkpt><trkpt lat="45.96488704919852" lon="12.321530268492866"><ele>107.0</ele><time>2026-04-25T13:37:51Z</time></trkpt><trkpt lat="45.96495363553525" lon="12.321460988367486"><ele>107.0</ele><time>2026-04-25T13:37:56Z</time></trkpt><trkpt lat="45.965000508557736" lon="12.321384973190407"><ele>106.99999999999999</ele><time>2026-04-25T13:37:57Z</time></trkpt><trkpt lat="45.96506223182862" lon="12.321285128299499"><ele>107.0</ele><time>2026-04-25T13:37:58Z</time></trkpt><trkpt lat="45.96512683622226" lon="12.32116738669746"><ele>107.25</ele><time>2026-04-25T13:37:59Z</time></trkpt><trkpt lat="45.96519565562283" lon="12.321036770193366"><ele>107.5</ele><time>2026-04-25T13:38:00Z</time></trkpt><trkpt lat="45.96526584761084" lon="12.32088669147763"><ele>107.75</ele><time>2026-04-25T13:38:01Z</time></trkpt><trkpt lat="45.96533001997136" lon="12.320717563391204"><ele>108.0</ele><time>2026-04-25T13:38:02Z</time></trkpt><trkpt lat="45.9654003008596" lon="12.320548282007888"><ele>108.5</ele><time>2026-04-25T13:38:03Z</time></trkpt><trkpt lat="45.965474010395035" lon="12.320373946213863"><ele>109.0</ele><time>2026-04-25T13:38:04Z</time></trkpt><trkpt lat="45.965553643762505" lon="12.320194358907026"><ele>109.5</ele><time>2026-04-25T13:38:05Z</time></trkpt><trkpt lat="45.96563618414744" lon="12.320017157084033"><ele>110.0</ele><time>2026-04-25T13:38:06Z</time></trkpt><trkpt lat="45.96571325160162" lon="12.31981890128403"><ele>110.33333333333333</ele><time>2026-04-25T13:38:07Z</time></trkpt><trkpt lat="45.96580403209944" lon="12.319639269884865"><ele>110.66666666666666</ele><time>2026-04-25T13:38:08Z</time></trkpt><trkpt lat="45.9659085219696" lon="12.319472875409664"><ele>111.0</ele><time>2026-04-25T13:38:09Z</time></trkpt><trkpt lat="45.96599302735052" lon="12.319283232238622"><ele>110.66666666666666</ele><time>2026-04-25T13:38:10Z</time></trkpt><trkpt lat="45.96609647393301" lon="12.319114214832672"><ele>110.33333333333333</ele><time>2026-04-25T13:38:11Z</time></trkpt><trkpt lat="45.966201683915266" lon="12.318949716688426"><ele>110.0</ele><time>2026-04-25T13:38:12Z</time></trkpt><trkpt lat="45.966308624249656" lon="12.31878298772599"><ele>110.0</ele><time>2026-04-25T13:38:13Z</time></trkpt><trkpt lat="45.96641882773013" lon="12.318614335074507"><ele>110.0</ele><time>2026-04-25T13:38:14Z</time></trkpt><trkpt lat="45.96653379014062" lon="12.31845009131226"><ele>110.0</ele><time>2026-04-25T13:38:15Z</time></trkpt><trkpt lat="45.96664813744577" lon="12.318280937838184"><ele>109.66666666666666</ele><time>2026-04-25T13:38:16Z</time></trkpt><trkpt lat="45.966765580651284" lon="12.318110868873783"><ele>109.33333333333334</ele><time>2026-04-25T13:38:17Z</time></trkpt><trkpt lat="45.9668775638789" lon="12.317938684784377"><ele>109.0</ele><time>2026-04-25T13:38:18Z</time></trkpt><trkpt lat="45.96699086238126" lon="12.317767958272766"><ele>109.0</ele><time>2026-04-25T13:38:19Z</time></trkpt><trkpt lat="45.96710265301094" lon="12.317598175480299"><ele>109.0</ele><time>2026-04-25T13:38:20Z</time></trkpt><trkpt lat="45.967216365594055" lon="12.317425864937173"><ele>109.0</ele><time>2026-04-25T13:38:21Z</time></trkpt><trkpt lat="45.967329770444145" lon="12.317254621900778"><ele>109.66666666666667</ele><time>2026-04-25T13:38:22Z</time></trkpt><trkpt lat="45.967444486398655" lon="12.317085842436706"><ele>110.33333333333334</ele><time>2026-04-25T13:38:23Z</time></trkpt><trkpt lat="45.967561029589966" lon="12.316913350234396"><ele>111.0</ele><time>2026-04-25T13:38:24Z</time></trkpt><trkpt lat="45.96767704227031" lon="12.316743184935389"><ele>111.0</ele><time>2026-04-25T13:38:25Z</time></trkpt><trkpt lat="45.9677934248983" lon="12.316570253385743"><ele>111.0</ele><time>2026-04-25T13:38:26Z</time></trkpt><trkpt lat="45.967911449713505" lon="12.316398979381983"><ele>111.0</ele><time>2026-04-25T13:38:27Z</time></trkpt><trkpt lat="45.96802870574782" lon="12.316230826949742"><ele>111.0</ele><time>2026-04-25T13:38:28Z</time></trkpt><trkpt lat="45.968150194116454" lon="12.316060193896918"><ele>111.0</ele><time>2026-04-25T13:38:29Z</time></trkpt><trkpt lat="45.968272928213864" lon="12.315891948805092"><ele>111.0</ele><time>2026-04-25T13:38:30Z</time></trkpt><trkpt lat="45.96839433596709" lon="12.31572165066561"><ele>111.0</ele><time>2026-04-25T13:38:31Z</time></trkpt><trkpt lat="45.96851899968363" lon="12.315552755919722"><ele>111.0</ele><time>2026-04-25T13:38:32Z</time></trkpt><trkpt lat="45.96864652432681" lon="12.31538414505744"><ele>111.0</ele><time>2026-04-25T13:38:33Z</time></trkpt><trkpt lat="45.968772746847556" lon="12.3152164780496"><ele>111.0</ele><time>2026-04-25T13:38:34Z</time></trkpt><trkpt lat="45.96889920643887" lon="12.315047246369968"><ele>111.0</ele><time>2026-04-25T13:38:35Z</time></trkpt><trkpt lat="45.96902680114687" lon="12.314877395362517"><ele>111.0</ele><time>2026-04-25T13:38:36Z</time></trkpt><trkpt lat="45.969153335659826" lon="12.314708665580563"><ele>111.33333333333334</ele><time>2026-04-25T13:38:37Z</time></trkpt><trkpt lat="45.96927958612874" lon="12.314536598846162"><ele>111.66666666666667</ele><time>2026-04-25T13:38:38Z</time></trkpt><trkpt lat="45.96940463509299" lon="12.314364742327884"><ele>112.0</ele><time>2026-04-25T13:38:39Z</time></trkpt><trkpt lat="45.96952721386048" lon="12.314196578128193"><ele>112.0</ele><time>2026-04-25T13:38:40Z</time></trkpt><trkpt lat="45.969646593905864" lon="12.314033412861566"><ele>112.0</ele><time>2026-04-25T13:38:41Z</time></trkpt><trkpt lat="45.96975859802066" lon="12.313878698767082"><ele>112.0</ele><time>2026-04-25T13:38:42Z</time></trkpt><trkpt lat="45.96986178185108" lon="12.313732621320414"><ele>112.0</ele><time>2026-04-25T13:38:43Z</time></trkpt><trkpt lat="45.96996391377196" lon="12.313590712922009"><ele>112.0</ele><time>2026-04-25T13:38:44Z</time></trkpt><trkpt lat="45.97006387240515" lon="12.313449050337319"><ele>112.0</ele><time>2026-04-25T13:38:45Z</time></trkpt><trkpt lat="45.97016460654435" lon="12.313312299872454"><ele>112.0</ele><time>2026-04-25T13:38:46Z</time></trkpt><trkpt lat="45.97026653317269" lon="12.31317691250281"><ele>112.75</ele><time>2026-04-25T13:38:47Z</time></trkpt><trkpt lat="45.970368867793994" lon="12.313038038160192"><ele>113.5</ele><time>2026-04-25T13:38:48Z</time></trkpt><trkpt lat="45.97047234210548" lon="12.312899226019656"><ele>114.25</ele><time>2026-04-25T13:38:49Z</time></trkpt><trkpt lat="45.97056956978301" lon="12.312768411201917"><ele>115.0</ele><time>2026-04-25T13:38:50Z</time></trkpt><trkpt lat="45.970662972835434" lon="12.312646846431244"><ele>115.0</ele><time>2026-04-25T13:38:51Z</time></trkpt><trkpt lat="45.97074930501154" lon="12.312532169199246"><ele>115.0</ele><time>2026-04-25T13:38:52Z</time></trkpt><trkpt lat="45.97083110328678" lon="12.312422932621855"><ele>115.0</ele><time>2026-04-25T13:38:53Z</time></trkpt><trkpt lat="45.97090895183886" lon="12.312319668768685"><ele>115.0</ele><time>2026-04-25T13:38:54Z</time></trkpt><trkpt lat="45.97097943278247" lon="12.312219080587168"><ele>115.0</ele><time>2026-04-25T13:38:55Z</time></trkpt><trkpt lat="45.97104549404538" lon="12.312121172659424"><ele>114.6</ele><time>2026-04-25T13:38:56Z</time></trkpt><trkpt lat="45.97110910745909" lon="12.312030866723141"><ele>114.2</ele><time>2026-04-25T13:38:57Z</time></trkpt><trkpt lat="45.97116639030226" lon="12.311934937083487"><ele>113.80000000000001</ele><time>2026-04-25T13:38:58Z</time></trkpt><trkpt lat="45.97122815156671" lon="12.311838354277644"><ele>113.4</ele><time>2026-04-25T13:38:59Z</time></trkpt><trkpt lat="45.971302317477026" lon="12.311744986510064"><ele>113.0</ele><time>2026-04-25T13:39:00Z</time></trkpt><trkpt lat="45.971385996549145" lon="12.311646312616043"><ele>113.0</ele><time>2026-04-25T13:39:01Z</time></trkpt><trkpt lat="45.97147137816084" lon="12.31153711256881"><ele>113.00000000000001</ele><time>2026-04-25T13:39:02Z</time></trkpt><trkpt lat="45.97155699705699" lon="12.311429518940335"><ele>113.00000000000001</ele><time>2026-04-25T13:39:03Z</time></trkpt><trkpt lat="45.97163719467024" lon="12.311327025461393"><ele>113.0</ele><time>2026-04-25T13:39:04Z</time></trkpt><trkpt lat="45.971713957547415" lon="12.311225931786307"><ele>113.0</ele><time>2026-04-25T13:39:05Z</time></trkpt><trkpt lat="45.97178228450736" lon="12.31113009350559"><ele>113.60000000000001</ele><time>2026-04-25T13:39:06Z</time></trkpt><trkpt lat="45.971851409395825" lon="12.311033632317795"><ele>114.20000000000002</ele><time>2026-04-25T13:39:07Z</time></trkpt><trkpt lat="45.971923949876995" lon="12.310929079977198"><ele>114.8</ele><time>2026-04-25T13:39:08Z</time></trkpt><trkpt lat="45.972002387400494" lon="12.310820769846872"><ele>115.4</ele><time>2026-04-25T13:39:09Z</time></trkpt><trkpt lat="45.97208539633119" lon="12.310704842365961"><ele>116.0</ele><time>2026-04-25T13:39:10Z</time></trkpt><trkpt lat="45.97217959585815" lon="12.310584755180326"><ele>115.75</ele><time>2026-04-25T13:39:11Z</time></trkpt><trkpt lat="45.97227419341691" lon="12.310452193826217"><ele>115.5</ele><time>2026-04-25T13:39:12Z</time></trkpt><trkpt lat="45.9723739453941" lon="12.310316677302694"><ele>115.25</ele><time>2026-04-25T13:39:13Z</time></trkpt><trkpt lat="45.972478170109376" lon="12.310176139525908"><ele>115.0</ele><time>2026-04-25T13:39:14Z</time></trkpt><trkpt lat="45.972578014389114" lon="12.310036609863474"><ele>115.0</ele><time>2026-04-25T13:39:15Z</time></trkpt><trkpt lat="45.97268587134711" lon="12.309892874447476"><ele>115.0</ele><time>2026-04-25T13:39:16Z</time></trkpt><trkpt lat="45.972789921655234" lon="12.309751080654692"><ele>115.0</ele><time>2026-04-25T13:39:17Z</time></trkpt><trkpt lat="45.972891520820525" lon="12.30960943983756"><ele>115.0</ele><time>2026-04-25T13:39:18Z</time></trkpt><trkpt lat="45.9729896373353" lon="12.309475112010404"><ele>114.75</ele><time>2026-04-25T13:39:19Z</time></trkpt><trkpt lat="45.97308780445263" lon="12.309349805512785"><ele>114.5</ele><time>2026-04-25T13:39:20Z</time></trkpt><trkpt lat="45.973183464371644" lon="12.309228292009413"><ele>114.25</ele><time>2026-04-25T13:39:21Z</time></trkpt><trkpt lat="45.973278214065225" lon="12.309106768745812"><ele>114.0</ele><time>2026-04-25T13:39:22Z</time></trkpt><trkpt lat="45.97336930293387" lon="12.30898779829445"><ele>114.75</ele><time>2026-04-25T13:39:23Z</time></trkpt><trkpt lat="45.97346130336305" lon="12.30887467288024"><ele>115.5</ele><time>2026-04-25T13:39:24Z</time></trkpt><trkpt lat="45.97355482450946" lon="12.308763713527313"><ele>116.25</ele><time>2026-04-25T13:39:25Z</time></trkpt><trkpt lat="45.97365041127991" lon="12.308649362774945"><ele>117.0</ele><time>2026-04-25T13:39:26Z</time></trkpt><trkpt lat="45.973762230179624" lon="12.308546483585735"><ele>117.0</ele><time>2026-04-25T13:39:27Z</time></trkpt><trkpt lat="45.97387903719706" lon="12.308444526607639"><ele>117.0</ele><time>2026-04-25T13:39:28Z</time></trkpt><trkpt lat="45.97400080266058" lon="12.308353629588902"><ele>117.0</ele><time>2026-04-25T13:39:29Z</time></trkpt><trkpt lat="45.97412975118209" lon="12.308272887561285"><ele>117.0</ele><time>2026-04-25T13:39:30Z</time></trkpt><trkpt lat="45.97426410540988" lon="12.308201140544885"><ele>117.25</ele><time>2026-04-25T13:39:31Z</time></trkpt><trkpt lat="45.97440141874167" lon="12.30813494274343"><ele>117.5</ele><time>2026-04-25T13:39:32Z</time></trkpt><trkpt lat="45.97453948487367" lon="12.308073076123296"><ele>117.75</ele><time>2026-04-25T13:39:33Z</time></trkpt><trkpt lat="45.97468183440684" lon="12.308015024977188"><ele>118.0</ele><time>2026-04-25T13:39:34Z</time></trkpt><trkpt lat="45.97482191311209" lon="12.307955984006338"><ele>118.25</ele><time>2026-04-25T13:39:35Z</time></trkpt><trkpt lat="45.97495827676497" lon="12.307899958251989"><ele>118.5</ele><time>2026-04-25T13:39:36Z</time></trkpt><trkpt lat="45.97509013872455" lon="12.307846316001887"><ele>118.75</ele><time>2026-04-25T13:39:37Z</time></trkpt><trkpt lat="45.9752193851403" lon="12.307792956027894"><ele>119.0</ele><time>2026-04-25T13:39:38Z</time></trkpt><trkpt lat="45.975339858403544" lon="12.307738544234317"><ele>119.0</ele><time>2026-04-25T13:39:39Z</time></trkpt><trkpt lat="45.97545476189993" lon="12.30768763215373"><ele>119.0</ele><time>2026-04-25T13:39:40Z</time></trkpt><trkpt lat="45.975559140873266" lon="12.307642489453725"><ele>119.0</ele><time>2026-04-25T13:39:41Z</time></trkpt><trkpt lat="45.97565012807453" lon="12.307599377250208"><ele>119.0</ele><time>2026-04-25T13:39:42Z</time></trkpt><trkpt lat="45.97572931799711" lon="12.307568272412185"><ele>119.0</ele><time>2026-04-25T13:39:43Z</time></trkpt><trkpt lat="45.97579901482926" lon="12.307538931540673"><ele>118.66666666666666</ele><time>2026-04-25T13:39:44Z</time></trkpt><trkpt lat="45.975906432523104" lon="12.307495858479133"><ele>118.33333333333333</ele><time>2026-04-25T13:39:46Z</time></trkpt><trkpt lat="45.97598020231611" lon="12.307465332049794"><ele>118.0</ele><time>2026-04-25T13:39:48Z</time></trkpt><trkpt lat="45.976067609150455" lon="12.307401728466314"><ele>117.66666666666666</ele><time>2026-04-25T13:39:55Z</time></trkpt><trkpt lat="45.976134500368346" lon="12.307379770366376"><ele>117.33333333333333</ele><time>2026-04-25T13:39:56Z</time></trkpt><trkpt lat="45.976214617256325" lon="12.307351311462469"><ele>117.0</ele><time>2026-04-25T13:39:57Z</time></trkpt><trkpt lat="45.97631201246458" lon="12.307316513379742"><ele>117.0</ele><time>2026-04-25T13:39:58Z</time></trkpt><trkpt lat="45.97641932407621" lon="12.307265436694234"><ele>117.0</ele><time>2026-04-25T13:39:59Z</time></trkpt><trkpt lat="45.976528005934604" lon="12.307219352689591"><ele>117.0</ele><time>2026-04-25T13:40:00Z</time></trkpt><trkpt lat="45.976644485566936" lon="12.307171407383207"><ele>117.0</ele><time>2026-04-25T13:40:01Z</time></trkpt><trkpt lat="45.97676578993243" lon="12.307119579946383"><ele>117.75</ele><time>2026-04-25T13:40:02Z</time></trkpt><trkpt lat="45.976889258695614" lon="12.307068394718282"><ele>118.5</ele><time>2026-04-25T13:40:03Z</time></trkpt><trkpt lat="45.97701406956525" lon="12.307016071306037"><ele>119.25</ele><time>2026-04-25T13:40:04Z</time></trkpt><trkpt lat="45.97714506826104" lon="12.306962081882546"><ele>120.0</ele><time>2026-04-25T13:40:05Z</time></trkpt><trkpt lat="45.977277323182356" lon="12.306907977585306"><ele>120.0</ele><time>2026-04-25T13:40:06Z</time></trkpt><trkpt lat="45.97740945764097" lon="12.306850098945326"><ele>120.0</ele><time>2026-04-25T13:40:07Z</time></trkpt><trkpt lat="45.97754648862962" lon="12.30678876395255"><ele>120.0</ele><time>2026-04-25T13:40:08Z</time></trkpt><trkpt lat="45.977681975035075" lon="12.30673281097325"><ele>120.0</ele><time>2026-04-25T13:40:09Z</time></trkpt><trkpt lat="45.97781366508111" lon="12.30667753508475"><ele>119.5</ele><time>2026-04-25T13:40:10Z</time></trkpt><trkpt lat="45.977939978945" lon="12.306628507533263"><ele>119.0</ele><time>2026-04-25T13:40:11Z</time></trkpt><trkpt lat="45.9780606656223" lon="12.306582767515668"><ele>118.5</ele><time>2026-04-25T13:40:12Z</time></trkpt><trkpt lat="45.978172799799104" lon="12.30653809676885"><ele>118.0</ele><time>2026-04-25T13:40:13Z</time></trkpt><trkpt lat="45.978274819700495" lon="12.306498857588135"><ele>118.50000000000001</ele><time>2026-04-25T13:40:14Z</time></trkpt><trkpt lat="45.978373402184594" lon="12.306460304889542"><ele>119.0</ele><time>2026-04-25T13:40:15Z</time></trkpt><trkpt lat="45.97846358532817" lon="12.30642718810593"><ele>119.5</ele><time>2026-04-25T13:40:16Z</time></trkpt><trkpt lat="45.97854346937209" lon="12.306399987728893"><ele>120.0</ele><time>2026-04-25T13:40:17Z</time></trkpt><trkpt lat="45.97861671977953" lon="12.306391749512544"><ele>120.50000000000001</ele><time>2026-04-25T13:40:18Z</time></trkpt><trkpt lat="45.978686829198836" lon="12.306406831521345"><ele>121.0</ele><time>2026-04-25T13:40:19Z</time></trkpt><trkpt lat="45.978754800589506" lon="12.306451238295464"><ele>121.0</ele><time>2026-04-25T13:40:20Z</time></trkpt><trkpt lat="45.97881869657559" lon="12.30653418710735"><ele>121.0</ele><time>2026-04-25T13:40:21Z</time></trkpt><trkpt lat="45.97887027515407" lon="12.306645932366816"><ele>121.0</ele><time>2026-04-25T13:40:22Z</time></trkpt><trkpt lat="45.97891127336586" lon="12.306774323101562"><ele>121.0</ele><time>2026-04-25T13:40:23Z</time></trkpt><trkpt lat="45.978943974802036" lon="12.306918905432648"><ele>121.0</ele><time>2026-04-25T13:40:24Z</time></trkpt><trkpt lat="45.97898202015476" lon="12.307076620843164"><ele>120.75</ele><time>2026-04-25T13:40:25Z</time></trkpt><trkpt lat="45.979023007902256" lon="12.307249496960821"><ele>120.5</ele><time>2026-04-25T13:40:26Z</time></trkpt><trkpt lat="45.97906426803772" lon="12.307431697803985"><ele>120.25</ele><time>2026-04-25T13:40:27Z</time></trkpt><trkpt lat="45.97911070232853" lon="12.30761890335023"><ele>120.0</ele><time>2026-04-25T13:40:28Z</time></trkpt><trkpt lat="45.97915750010098" lon="12.307809175671542"><ele>120.25</ele><time>2026-04-25T13:40:29Z</time></trkpt><trkpt lat="45.979203734011854" lon="12.308003521488155"><ele>120.5</ele><time>2026-04-25T13:40:30Z</time></trkpt><trkpt lat="45.979252998881186" lon="12.308197786012734"><ele>120.75</ele><time>2026-04-25T13:40:31Z</time></trkpt><trkpt lat="45.97930144670122" lon="12.308379341915696"><ele>121.0</ele><time>2026-04-25T13:40:32Z</time></trkpt><trkpt lat="45.979347289120334" lon="12.30855243580675"><ele>120.75</ele><time>2026-04-25T13:40:33Z</time></trkpt><trkpt lat="45.979391017488524" lon="12.30871765415244"><ele>120.5</ele><time>2026-04-25T13:40:34Z</time></trkpt><trkpt lat="45.97943069619072" lon="12.30887285452347"><ele>120.25</ele><time>2026-04-25T13:40:35Z</time></trkpt><trkpt lat="45.979467996632735" lon="12.309026698305981"><ele>120.0</ele><time>2026-04-25T13:40:36Z</time></trkpt><trkpt lat="45.97950543945909" lon="12.30918401591777"><ele>120.0</ele><time>2026-04-25T13:40:37Z</time></trkpt><trkpt lat="45.97954574894957" lon="12.309346608632026"><ele>120.0</ele><time>2026-04-25T13:40:38Z</time></trkpt><trkpt lat="45.979587264203566" lon="12.309511812128966"><ele>120.0</ele><time>2026-04-25T13:40:39Z</time></trkpt><trkpt lat="45.979628922600114" lon="12.309681913412794"><ele>120.0</ele><time>2026-04-25T13:40:40Z</time></trkpt><trkpt lat="45.97967070132409" lon="12.309855084781788"><ele>119.5</ele><time>2026-04-25T13:40:41Z</time></trkpt><trkpt lat="45.979711602599075" lon="12.310035065135898"><ele>119.0</ele><time>2026-04-25T13:40:42Z</time></trkpt><trkpt lat="45.97975246238203" lon="12.310217032361205"><ele>118.5</ele><time>2026-04-25T13:40:43Z</time></trkpt><trkpt lat="45.979791435079285" lon="12.310387076106192"><ele>118.0</ele><time>2026-04-25T13:40:44Z</time></trkpt><trkpt lat="45.97982856498849" lon="12.31055429402058"><ele>118.0</ele><time>2026-04-25T13:40:45Z</time></trkpt><trkpt lat="45.979869976110805" lon="12.310719061842487"><ele>118.0</ele><time>2026-04-25T13:40:46Z</time></trkpt><trkpt lat="45.97991447579565" lon="12.31088735162017"><ele>118.0</ele><time>2026-04-25T13:40:47Z</time></trkpt><trkpt lat="45.979957396275424" lon="12.311056057265963"><ele>118.0</ele><time>2026-04-25T13:40:48Z</time></trkpt><trkpt lat="45.97999476157004" lon="12.311225785748968"><ele>118.0</ele><time>2026-04-25T13:40:49Z</time></trkpt><trkpt lat="45.98004247183177" lon="12.311401050629646"><ele>118.0</ele><time>2026-04-25T13:40:50Z</time></trkpt><trkpt lat="45.98008966375287" lon="12.311586280861524"><ele>118.0</ele><time>2026-04-25T13:40:51Z</time></trkpt><trkpt lat="45.98014073485898" lon="12.311767185344673"><ele>118.0</ele><time>2026-04-25T13:40:52Z</time></trkpt><trkpt lat="45.9801823327298" lon="12.311953869616262"><ele>118.0</ele><time>2026-04-25T13:40:53Z</time></trkpt><trkpt lat="45.980229186911615" lon="12.31214297901743"><ele>118.0</ele><time>2026-04-25T13:40:54Z</time></trkpt><trkpt lat="45.98027512869736" lon="12.31233778883827"><ele>118.0</ele><time>2026-04-25T13:40:55Z</time></trkpt><trkpt lat="45.980325992887984" lon="12.312535851665286"><ele>118.0</ele><time>2026-04-25T13:40:56Z</time></trkpt><trkpt lat="45.980375354272034" lon="12.312732458349645"><ele>117.75</ele><time>2026-04-25T13:40:57Z</time></trkpt><trkpt lat="45.98042410565215" lon="12.312929880298114"><ele>117.5</ele><time>2026-04-25T13:40:58Z</time></trkpt><trkpt lat="45.980473332255" lon="12.313130162433891"><ele>117.25</ele><time>2026-04-25T13:40:59Z</time></trkpt><trkpt lat="45.98052135724012" lon="12.313327104199146"><ele>117.0</ele><time>2026-04-25T13:41:00Z</time></trkpt><trkpt lat="45.98056629218357" lon="12.313519460760306"><ele>116.75</ele><time>2026-04-25T13:41:01Z</time></trkpt><trkpt lat="45.980609850746454" lon="12.31371353462673"><ele>116.5</ele><time>2026-04-25T13:41:02Z</time></trkpt><trkpt lat="45.98065469349988" lon="12.313902860622038"><ele>116.25</ele><time>2026-04-25T13:41:03Z</time></trkpt><trkpt lat="45.9807004230718" lon="12.31409206994233"><ele>116.0</ele><time>2026-04-25T13:41:04Z</time></trkpt><trkpt lat="45.980747789218924" lon="12.314285865846339"><ele>115.75</ele><time>2026-04-25T13:41:05Z</time></trkpt><trkpt lat="45.98079589336767" lon="12.314483182837613"><ele>115.5</ele><time>2026-04-25T13:41:06Z</time></trkpt><trkpt lat="45.980845096100815" lon="12.314683526972901"><ele>115.25</ele><time>2026-04-25T13:41:07Z</time></trkpt><trkpt lat="45.98089352138594" lon="12.314885527395253"><ele>115.0</ele><time>2026-04-25T13:41:08Z</time></trkpt><trkpt lat="45.98094389888897" lon="12.315092857943348"><ele>116.66666666666667</ele><time>2026-04-25T13:41:09Z</time></trkpt><trkpt lat="45.98099342940515" lon="12.315300224194552"><ele>118.33333333333334</ele><time>2026-04-25T13:41:10Z</time></trkpt><trkpt lat="45.981044542763385" lon="12.31550932011166"><ele>120.0</ele><time>2026-04-25T13:41:11Z</time></trkpt><trkpt lat="45.98109762791019" lon="12.31572186570771"><ele>120.0</ele><time>2026-04-25T13:41:12Z</time></trkpt><trkpt lat="45.98122062275744" lon="12.316150417978315"><ele>120.0</ele><time>2026-04-25T13:41:14Z</time></trkpt><trkpt lat="45.981291520735006" lon="12.316356303997717"><ele>119.0</ele><time>2026-04-25T13:41:15Z</time></trkpt><trkpt lat="45.981369439946235" lon="12.316560600017624"><ele>118.0</ele><time>2026-04-25T13:41:16Z</time></trkpt><trkpt lat="45.98145370765795" lon="12.316757866370061"><ele>117.0</ele><time>2026-04-25T13:41:17Z</time></trkpt><trkpt lat="45.981547147330446" lon="12.316952019115181"><ele>117.0</ele><time>2026-04-25T13:41:18Z</time></trkpt><trkpt lat="45.98164799042579" lon="12.317137807469416"><ele>117.0</ele><time>2026-04-25T13:41:19Z</time></trkpt><trkpt lat="45.981755146331" lon="12.317316954442678"><ele>117.0</ele><time>2026-04-25T13:41:20Z</time></trkpt><trkpt lat="45.98186541253132" lon="12.317481938097083"><ele>117.0</ele><time>2026-04-25T13:41:21Z</time></trkpt><trkpt lat="45.98197457733209" lon="12.317630499650944"><ele>117.0</ele><time>2026-04-25T13:41:22Z</time></trkpt><trkpt lat="45.98207986103021" lon="12.317769166184998"><ele>117.0</ele><time>2026-04-25T13:41:23Z</time></trkpt><trkpt lat="45.982180833843024" lon="12.317897006189197"><ele>117.0</ele><time>2026-04-25T13:41:24Z</time></trkpt><trkpt lat="45.98227395607863" lon="12.318021811426169"><ele>117.0</ele><time>2026-04-25T13:41:25Z</time></trkpt><trkpt lat="45.982360353477894" lon="12.318145588118005"><ele>117.0</ele><time>2026-04-25T13:41:26Z</time></trkpt><trkpt lat="45.98244501631452" lon="12.318261840796776"><ele>117.0</ele><time>2026-04-25T13:41:27Z</time></trkpt><trkpt lat="45.982523116599495" lon="12.318370372191858"><ele>117.0</ele><time>2026-04-25T13:41:28Z</time></trkpt><trkpt lat="45.98259706295614" lon="12.318471800314994"><ele>117.5</ele><time>2026-04-25T13:41:29Z</time></trkpt><trkpt lat="45.98266529138731" lon="12.318562398569453"><ele>118.0</ele><time>2026-04-25T13:41:30Z</time></trkpt><trkpt lat="45.982723760177464" lon="12.318651581022731"><ele>118.5</ele><time>2026-04-25T13:41:31Z</time></trkpt><trkpt lat="45.98276561562121" lon="12.31874653804834"><ele>119.0</ele><time>2026-04-25T13:41:32Z</time></trkpt><trkpt lat="45.98280361061354" lon="12.31884618119126"><ele>119.5</ele><time>2026-04-25T13:41:33Z</time></trkpt><trkpt lat="45.98285415763898" lon="12.31893880995877"><ele>120.0</ele><time>2026-04-25T13:41:34Z</time></trkpt><trkpt lat="45.982926109937594" lon="12.319037646612562"><ele>120.75</ele><time>2026-04-25T13:41:35Z</time></trkpt><trkpt lat="45.983041238082144" lon="12.319063889474668"><ele>121.5</ele><time>2026-04-25T13:41:36Z</time></trkpt><trkpt lat="45.983157379882094" lon="12.319134941897811"><ele>122.25</ele><time>2026-04-25T13:41:37Z</time></trkpt><trkpt lat="45.98328829231979" lon="12.319226605360264"><ele>123.0</ele><time>2026-04-25T13:41:38Z</time></trkpt><trkpt lat="45.983431979559036" lon="12.319318865183687"><ele>123.33333333333334</ele><time>2026-04-25T13:41:39Z</time></trkpt><trkpt lat="45.983583485504" lon="12.319401965588302"><ele>123.66666666666667</ele><time>2026-04-25T13:41:40Z</time></trkpt><trkpt lat="45.983746270577484" lon="12.31948418091189"><ele>124.0</ele><time>2026-04-25T13:41:41Z</time></trkpt><trkpt lat="45.983913638915624" lon="12.319558332759758"><ele>124.0</ele><time>2026-04-25T13:41:42Z</time></trkpt><trkpt lat="45.984079187762106" lon="12.319647511839454"><ele>124.0</ele><time>2026-04-25T13:41:43Z</time></trkpt><trkpt lat="45.98425748510382" lon="12.319711037241602"><ele>124.0</ele><time>2026-04-25T13:41:44Z</time></trkpt><trkpt lat="45.98442982735836" lon="12.319773552859663"><ele>124.0</ele><time>2026-04-25T13:41:45Z</time></trkpt><trkpt lat="45.984584664236955" lon="12.319831143960302"><ele>124.0</ele><time>2026-04-25T13:41:46Z</time></trkpt><trkpt lat="45.984727618708646" lon="12.3198877292998"><ele>124.0</ele><time>2026-04-25T13:41:47Z</time></trkpt><trkpt lat="45.98485983301062" lon="12.319945328558612"><ele>124.0</ele><time>2026-04-25T13:41:48Z</time></trkpt><trkpt lat="45.98498477203622" lon="12.31999668445388"><ele>124.6</ele><time>2026-04-25T13:41:49Z</time></trkpt><trkpt lat="45.985099830154944" lon="12.320037354265292"><ele>125.2</ele><time>2026-04-25T13:41:50Z</time></trkpt><trkpt lat="45.985189839622926" lon="12.32006677197037"><ele>125.79999999999998</ele><time>2026-04-25T13:41:51Z</time></trkpt><trkpt lat="45.985270335904524" lon="12.320092735281314"><ele>126.39999999999999</ele><time>2026-04-25T13:41:53Z</time></trkpt><trkpt lat="45.98537298816805" lon="12.320151763340318"><ele>127.0</ele><time>2026-04-25T13:41:59Z</time></trkpt><trkpt lat="45.9854763782402" lon="12.320249430036466"><ele>127.0</ele><time>2026-04-25T13:42:01Z</time></trkpt><trkpt lat="45.985537478820504" lon="12.320333617736127"><ele>126.99999999999999</ele><time>2026-04-25T13:42:02Z</time></trkpt><trkpt lat="45.985587928861555" lon="12.32043845455083"><ele>126.99999999999999</ele><time>2026-04-25T13:42:03Z</time></trkpt><trkpt lat="45.985630123058876" lon="12.32056308612631"><ele>127.0</ele><time>2026-04-25T13:42:04Z</time></trkpt><trkpt lat="45.98567697227138" lon="12.320683724199972"><ele>127.0</ele><time>2026-04-25T13:42:05Z</time></trkpt><trkpt lat="45.98575713679409" lon="12.320753921634381"><ele>127.19999999999999</ele><time>2026-04-25T13:42:06Z</time></trkpt><trkpt lat="45.98582122348247" lon="12.320881983016942"><ele>127.39999999999999</ele><time>2026-04-25T13:42:07Z</time></trkpt><trkpt lat="45.98587314114127" lon="12.320987083906216"><ele>127.60000000000001</ele><time>2026-04-25T13:42:08Z</time></trkpt><trkpt lat="45.985887272614306" lon="12.321115723230415"><ele>127.80000000000001</ele><time>2026-04-25T13:42:09Z</time></trkpt><trkpt lat="45.98589553046801" lon="12.321237484766087"><ele>128.0</ele><time>2026-04-25T13:42:10Z</time></trkpt><trkpt lat="45.985860826890715" lon="12.321377287420724"><ele>128.0</ele><time>2026-04-25T13:42:11Z</time></trkpt><trkpt lat="45.985841162817295" lon="12.321523502900922"><ele>128.0</ele><time>2026-04-25T13:42:12Z</time></trkpt><trkpt lat="45.98581992711271" lon="12.321682487164422"><ele>128.0</ele><time>2026-04-25T13:42:13Z</time></trkpt><trkpt lat="45.985801496305804" lon="12.321851970492403"><ele>128.0</ele><time>2026-04-25T13:42:14Z</time></trkpt><trkpt lat="45.98578393290534" lon="12.32202643642054"><ele>128.0</ele><time>2026-04-25T13:42:15Z</time></trkpt><trkpt lat="45.98576549140684" lon="12.32220601187334"><ele>128.0</ele><time>2026-04-25T13:42:16Z</time></trkpt><trkpt lat="45.98574492019182" lon="12.3223914114065"><ele>128.0</ele><time>2026-04-25T13:42:17Z</time></trkpt><trkpt lat="45.98572541206305" lon="12.322581584938526"><ele>128.0</ele><time>2026-04-25T13:42:18Z</time></trkpt><trkpt lat="45.98570689618481" lon="12.322769454995038"><ele>128.25</ele><time>2026-04-25T13:42:19Z</time></trkpt><trkpt lat="45.985686906780245" lon="12.322956772867057"><ele>128.5</ele><time>2026-04-25T13:42:20Z</time></trkpt><trkpt lat="45.98566756637509" lon="12.323149443251"><ele>128.75</ele><time>2026-04-25T13:42:21Z</time></trkpt><trkpt lat="45.985650247877" lon="12.323342021741265"><ele>129.0</ele><time>2026-04-25T13:42:22Z</time></trkpt><trkpt lat="45.9856317801576" lon="12.323540276477512"><ele>129.0</ele><time>2026-04-25T13:42:23Z</time></trkpt><trkpt lat="45.98561686699972" lon="12.323728533797121"><ele>129.0</ele><time>2026-04-25T13:42:24Z</time></trkpt><trkpt lat="45.98560396750744" lon="12.32392230666234"><ele>129.0</ele><time>2026-04-25T13:42:25Z</time></trkpt><trkpt lat="45.985587293084286" lon="12.3241215437515"><ele>129.0</ele><time>2026-04-25T13:42:26Z</time></trkpt><trkpt lat="45.98558628825688" lon="12.32432688631176"><ele>129.25</ele><time>2026-04-25T13:42:27Z</time></trkpt><trkpt lat="45.98559385528321" lon="12.324532734328487"><ele>129.5</ele><time>2026-04-25T13:42:28Z</time></trkpt><trkpt lat="45.98560215217139" lon="12.32473167074527"><ele>129.75</ele><time>2026-04-25T13:42:29Z</time></trkpt><trkpt lat="45.98561571969837" lon="12.324927735151665"><ele>130.0</ele><time>2026-04-25T13:42:30Z</time></trkpt><trkpt lat="45.985630226898664" lon="12.325113317057859"><ele>130.0</ele><time>2026-04-25T13:42:31Z</time></trkpt><trkpt lat="45.98564382842644" lon="12.325302608228535"><ele>130.0</ele><time>2026-04-25T13:42:32Z</time></trkpt><trkpt lat="45.98566244516068" lon="12.325487129528174"><ele>130.0</ele><time>2026-04-25T13:42:33Z</time></trkpt><trkpt lat="45.985677753637994" lon="12.325655447357775"><ele>130.0</ele><time>2026-04-25T13:42:34Z</time></trkpt><trkpt lat="45.985686320045914" lon="12.325807795977726"><ele>130.2</ele><time>2026-04-25T13:42:35Z</time></trkpt><trkpt lat="45.98570486621267" lon="12.325962207849821"><ele>130.4</ele><time>2026-04-25T13:42:36Z</time></trkpt><trkpt lat="45.985721566332245" lon="12.326116159811036"><ele>130.6</ele><time>2026-04-25T13:42:37Z</time></trkpt><trkpt lat="45.98573667241492" lon="12.326265650274502"><ele>130.8</ele><time>2026-04-25T13:42:38Z</time></trkpt><trkpt lat="45.98575068906646" lon="12.326418814336222"><ele>131.0</ele><time>2026-04-25T13:42:39Z</time></trkpt><trkpt lat="45.98576611946205" lon="12.326572152407179"><ele>131.0</ele><time>2026-04-25T13:42:40Z</time></trkpt><trkpt lat="45.98578035224809" lon="12.326729368678489"><ele>131.0</ele><time>2026-04-25T13:42:41Z</time></trkpt><trkpt lat="45.9857969025952" lon="12.326886653207294"><ele>131.0</ele><time>2026-04-25T13:42:42Z</time></trkpt><trkpt lat="45.98581297747719" lon="12.327028807714392"><ele>131.0</ele><time>2026-04-25T13:42:43Z</time></trkpt><trkpt lat="45.98582825178315" lon="12.327167249781091"><ele>131.0</ele><time>2026-04-25T13:42:44Z</time></trkpt><trkpt lat="45.98584613608458" lon="12.327292557974593"><ele>131.5</ele><time>2026-04-25T13:42:45Z</time></trkpt><trkpt lat="45.98586507978141" lon="12.327416814766927"><ele>132.0</ele><time>2026-04-25T13:42:46Z</time></trkpt><trkpt lat="45.98588157256636" lon="12.327535849932698"><ele>132.5</ele><time>2026-04-25T13:42:47Z</time></trkpt><trkpt lat="45.9858984918367" lon="12.327643094247346"><ele>133.0</ele><time>2026-04-25T13:42:48Z</time></trkpt><trkpt lat="45.985921660490895" lon="12.327750878642641"><ele>133.5</ele><time>2026-04-25T13:42:49Z</time></trkpt><trkpt lat="45.985929979781716" lon="12.327844566405842"><ele>134.0</ele><time>2026-04-25T13:42:50Z</time></trkpt><trkpt lat="45.98595598073663" lon="12.328005616636343"><ele>134.2</ele><time>2026-04-25T13:42:52Z</time></trkpt><trkpt lat="45.986033822559" lon="12.328124186318329"><ele>134.4</ele><time>2026-04-25T13:42:54Z</time></trkpt><trkpt lat="45.98612112417871" lon="12.328076244935023"><ele>134.6</ele><time>2026-04-25T13:42:55Z</time></trkpt><trkpt lat="45.98619279406222" lon="12.328073921264052"><ele>134.8</ele><time>2026-04-25T13:42:56Z</time></trkpt><trkpt lat="45.98630541744231" lon="12.328193681209967"><ele>135.0</ele><time>2026-04-25T13:42:58Z</time></trkpt><trkpt lat="45.98636006938485" lon="12.328282676933995"><ele>135.0</ele><time>2026-04-25T13:42:59Z</time></trkpt><trkpt lat="45.986423143132924" lon="12.328371227468738"><ele>135.0</ele><time>2026-04-25T13:43:00Z</time></trkpt><trkpt lat="45.986496110674736" lon="12.328453580855731"><ele>135.0</ele><time>2026-04-25T13:43:01Z</time></trkpt><trkpt lat="45.986571767449874" lon="12.328543993859752"><ele>135.0</ele><time>2026-04-25T13:43:02Z</time></trkpt><trkpt lat="45.98665278997075" lon="12.328642816064134"><ele>135.0</ele><time>2026-04-25T13:43:03Z</time></trkpt><trkpt lat="45.98673669545628" lon="12.328740118311114"><ele>135.6</ele><time>2026-04-25T13:43:04Z</time></trkpt><trkpt lat="45.98682113061283" lon="12.328839410230351"><ele>136.2</ele><time>2026-04-25T13:43:05Z</time></trkpt><trkpt lat="45.98690694256374" lon="12.328936201573852"><ele>136.8</ele><time>2026-04-25T13:43:06Z</time></trkpt><trkpt lat="45.98699490519058" lon="12.329033380552952"><ele>137.4</ele><time>2026-04-25T13:43:07Z</time></trkpt><trkpt lat="45.98708067759712" lon="12.329135167993277"><ele>138.0</ele><time>2026-04-25T13:43:08Z</time></trkpt><trkpt lat="45.98716776393577" lon="12.329240258302207"><ele>138.6</ele><time>2026-04-25T13:43:09Z</time></trkpt><trkpt lat="45.98725251762122" lon="12.329345857504647"><ele>139.20000000000002</ele><time>2026-04-25T13:43:10Z</time></trkpt><trkpt lat="45.9873350763503" lon="12.329451171706603"><ele>139.8</ele><time>2026-04-25T13:43:11Z</time></trkpt><trkpt lat="45.98740710664244" lon="12.329546754670053"><ele>140.4</ele><time>2026-04-25T13:43:12Z</time></trkpt><trkpt lat="45.98746279031044" lon="12.32964875299217"><ele>141.0</ele><time>2026-04-25T13:43:13Z</time></trkpt><trkpt lat="45.98749991251642" lon="12.329776528260206"><ele>141.4</ele><time>2026-04-25T13:43:14Z</time></trkpt><trkpt lat="45.987508130521434" lon="12.32991898077662"><ele>141.8</ele><time>2026-04-25T13:43:15Z</time></trkpt><trkpt lat="45.9874841329582" lon="12.33006137893662"><ele>142.20000000000002</ele><time>2026-04-25T13:43:16Z</time></trkpt><trkpt lat="45.987441252428184" lon="12.330190380089023"><ele>142.6</ele><time>2026-04-25T13:43:17Z</time></trkpt><trkpt lat="45.98737601862765" lon="12.330305386440894"><ele>143.0</ele><time>2026-04-25T13:43:18Z</time></trkpt><trkpt lat="45.98730313612815" lon="12.330416206279677"><ele>143.0</ele><time>2026-04-25T13:43:19Z</time></trkpt><trkpt lat="45.98723191196412" lon="12.33054104405369"><ele>143.0</ele><time>2026-04-25T13:43:20Z</time></trkpt><trkpt lat="45.98716417452311" lon="12.330675801985459"><ele>143.0</ele><time>2026-04-25T13:43:21Z</time></trkpt><trkpt lat="45.987102799418615" lon="12.330803381430119"><ele>143.0</ele><time>2026-04-25T13:43:22Z</time></trkpt><trkpt lat="45.987052419963305" lon="12.330909994458946"><ele>143.0</ele><time>2026-04-25T13:43:23Z</time></trkpt><trkpt lat="45.98702193833646" lon="12.331022460085846"><ele>145.20000000000002</ele><time>2026-04-25T13:43:24Z</time></trkpt><trkpt lat="45.98701662570399" lon="12.331152848896329"><ele>147.4</ele><time>2026-04-25T13:43:25Z</time></trkpt><trkpt lat="45.98704383843252" lon="12.33128510313955"><ele>149.60000000000002</ele><time>2026-04-25T13:43:26Z</time></trkpt><trkpt lat="45.987098410708725" lon="12.331411186085578"><ele>151.8</ele><time>2026-04-25T13:43:27Z</time></trkpt><trkpt lat="45.987160080679544" lon="12.331538270629585"><ele>154.0</ele><time>2026-04-25T13:43:28Z</time></trkpt><trkpt lat="45.987210086624756" lon="12.33168280542191"><ele>156.0</ele><time>2026-04-25T13:43:29Z</time></trkpt><trkpt lat="45.9872462994618" lon="12.331849815653419"><ele>158.0</ele><time>2026-04-25T13:43:30Z</time></trkpt><trkpt lat="45.98726930964398" lon="12.33202874946622"><ele>160.0</ele><time>2026-04-25T13:43:31Z</time></trkpt><trkpt lat="45.98727845172314" lon="12.332206838953947"><ele>162.0</ele><time>2026-04-25T13:43:32Z</time></trkpt><trkpt lat="45.987287869078706" lon="12.332372462295506"><ele>163.2</ele><time>2026-04-25T13:43:33Z</time></trkpt><trkpt lat="45.98729279336442" lon="12.33252522575433"><ele>164.39999999999998</ele><time>2026-04-25T13:43:34Z</time></trkpt><trkpt lat="45.987298828881194" lon="12.332672985820103"><ele>165.60000000000002</ele><time>2026-04-25T13:43:35Z</time></trkpt><trkpt lat="45.98730437083944" lon="12.332825238578456"><ele>166.8</ele><time>2026-04-25T13:43:36Z</time></trkpt><trkpt lat="45.98729868853896" lon="12.332979903062935"><ele>168.0</ele><time>2026-04-25T13:43:37Z</time></trkpt><trkpt lat="45.987269421340336" lon="12.333137261707192"><ele>169.2</ele><time>2026-04-25T13:43:38Z</time></trkpt><trkpt lat="45.98720457831393" lon="12.333275527225318"><ele>170.4</ele><time>2026-04-25T13:43:39Z</time></trkpt><trkpt lat="45.987152945602574" lon="12.333424674662826"><ele>171.6</ele><time>2026-04-25T13:43:40Z</time></trkpt><trkpt lat="45.98708980454868" lon="12.33355558489949"><ele>172.79999999999998</ele><time>2026-04-25T13:43:41Z</time></trkpt><trkpt lat="45.987041739999235" lon="12.333683940366946"><ele>174.0</ele><time>2026-04-25T13:43:42Z</time></trkpt><trkpt lat="45.9870197774529" lon="12.33381269234017"><ele>175.79999999999998</ele><time>2026-04-25T13:43:43Z</time></trkpt><trkpt lat="45.98701668837156" lon="12.3339321169186"><ele>177.6</ele><time>2026-04-25T13:43:44Z</time></trkpt><trkpt lat="45.987006426993574" lon="12.33405407137286"><ele>179.4</ele><time>2026-04-25T13:43:45Z</time></trkpt><trkpt lat="45.987032744396096" lon="12.334188103295348"><ele>181.2</ele><time>2026-04-25T13:43:46Z</time></trkpt><trkpt lat="45.98703280269881" lon="12.33433543915476"><ele>183.0</ele><time>2026-04-25T13:43:47Z</time></trkpt><trkpt lat="45.98699583542497" lon="12.334480229268165"><ele>183.0</ele><time>2026-04-25T13:43:48Z</time></trkpt><trkpt lat="45.98698481265621" lon="12.334635139241009"><ele>183.0</ele><time>2026-04-25T13:43:49Z</time></trkpt><trkpt lat="45.986967921419854" lon="12.33479323829808"><ele>183.0</ele><time>2026-04-25T13:43:50Z</time></trkpt><trkpt lat="45.98697661850972" lon="12.33495768695069"><ele>183.0</ele><time>2026-04-25T13:43:51Z</time></trkpt><trkpt lat="45.98700173573391" lon="12.335128437009391"><ele>183.0</ele><time>2026-04-25T13:43:52Z</time></trkpt><trkpt lat="45.98703748436631" lon="12.335293516428216"><ele>183.0</ele><time>2026-04-25T13:43:53Z</time></trkpt><trkpt lat="45.98704971540307" lon="12.33545209984483"><ele>183.0</ele><time>2026-04-25T13:43:54Z</time></trkpt><trkpt lat="45.987075113504304" lon="12.335609940120658"><ele>183.0</ele><time>2026-04-25T13:43:55Z</time></trkpt><trkpt lat="45.98710101352248" lon="12.335770899622911"><ele>183.0</ele><time>2026-04-25T13:43:56Z</time></trkpt><trkpt lat="45.98713711477569" lon="12.335934590770014"><ele>183.0</ele><time>2026-04-25T13:43:57Z</time></trkpt><trkpt lat="45.98716329939642" lon="12.336107840326964"><ele>183.0</ele><time>2026-04-25T13:43:58Z</time></trkpt><trkpt lat="45.987194653711015" lon="12.336280895123913"><ele>183.0</ele><time>2026-04-25T13:43:59Z</time></trkpt><trkpt lat="45.987220660037416" lon="12.336449874355685"><ele>182.25</ele><time>2026-04-25T13:44:00Z</time></trkpt><trkpt lat="45.98724825170842" lon="12.33661449594373"><ele>181.5</ele><time>2026-04-25T13:44:01Z</time></trkpt><trkpt lat="45.987275307926694" lon="12.336776745408804"><ele>180.75</ele><time>2026-04-25T13:44:02Z</time></trkpt><trkpt lat="45.98730357885366" lon="12.336941051228527"><ele>180.0</ele><time>2026-04-25T13:44:03Z</time></trkpt><trkpt lat="45.98732984099713" lon="12.337102830713407"><ele>179.5</ele><time>2026-04-25T13:44:04Z</time></trkpt><trkpt lat="45.98735461338598" lon="12.337260532639856"><ele>179.0</ele><time>2026-04-25T13:44:05Z</time></trkpt><trkpt lat="45.987383478183084" lon="12.337420357201621"><ele>178.5</ele><time>2026-04-25T13:44:06Z</time></trkpt><trkpt lat="45.987410806494694" lon="12.337581113226223"><ele>178.0</ele><time>2026-04-25T13:44:07Z</time></trkpt><trkpt lat="45.98743697518353" lon="12.337739634549997"><ele>178.0</ele><time>2026-04-25T13:44:08Z</time></trkpt><trkpt lat="45.98746320613288" lon="12.33789273853198"><ele>178.0</ele><time>2026-04-25T13:44:09Z</time></trkpt><trkpt lat="45.98749026963294" lon="12.3380498537437"><ele>178.0</ele><time>2026-04-25T13:44:10Z</time></trkpt><trkpt lat="45.98751915152727" lon="12.338211504710628"><ele>178.0</ele><time>2026-04-25T13:44:11Z</time></trkpt><trkpt lat="45.9875431044218" lon="12.33837717210828"><ele>180.5</ele><time>2026-04-25T13:44:12Z</time></trkpt><trkpt lat="45.98757112764271" lon="12.338547406583842"><ele>183.0</ele><time>2026-04-25T13:44:13Z</time></trkpt><trkpt lat="45.987590895510785" lon="12.338725593034079"><ele>185.5</ele><time>2026-04-25T13:44:14Z</time></trkpt><trkpt lat="45.98759895600019" lon="12.338910995741076"><ele>188.0</ele><time>2026-04-25T13:44:15Z</time></trkpt><trkpt lat="45.987596572827265" lon="12.339100721139491"><ele>188.75</ele><time>2026-04-25T13:44:16Z</time></trkpt><trkpt lat="45.987578931405395" lon="12.339296366040664"><ele>189.5</ele><time>2026-04-25T13:44:17Z</time></trkpt><trkpt lat="45.9875580393875" lon="12.339484751332057"><ele>190.25</ele><time>2026-04-25T13:44:18Z</time></trkpt><trkpt lat="45.98753940214981" lon="12.339683694798161"><ele>191.0</ele><time>2026-04-25T13:44:19Z</time></trkpt><trkpt lat="45.987519955520405" lon="12.339877024900025"><ele>191.0</ele><time>2026-04-25T13:44:20Z</time></trkpt><trkpt lat="45.98750851318594" lon="12.340070044112307"><ele>191.0</ele><time>2026-04-25T13:44:21Z</time></trkpt><trkpt lat="45.98751012636671" lon="12.340262107012089"><ele>191.0</ele><time>2026-04-25T13:44:22Z</time></trkpt><trkpt lat="45.987524426791154" lon="12.340454373351285"><ele>191.0</ele><time>2026-04-25T13:44:23Z</time></trkpt><trkpt lat="45.98754992544387" lon="12.340649092165238"><ele>190.0</ele><time>2026-04-25T13:44:24Z</time></trkpt><trkpt lat="45.98758099013783" lon="12.34084575179037"><ele>189.0</ele><time>2026-04-25T13:44:25Z</time></trkpt><trkpt lat="45.987604849992714" lon="12.341036536172277"><ele>188.0</ele><time>2026-04-25T13:44:26Z</time></trkpt><trkpt lat="45.98762046028068" lon="12.341223013259189"><ele>187.0</ele><time>2026-04-25T13:44:27Z</time></trkpt><trkpt lat="45.98763139941194" lon="12.341406528578949"><ele>186.75</ele><time>2026-04-25T13:44:28Z</time></trkpt><trkpt lat="45.98763441449421" lon="12.341592259086385"><ele>186.5</ele><time>2026-04-25T13:44:29Z</time></trkpt><trkpt lat="45.98763174146082" lon="12.341775951735688"><ele>186.25</ele><time>2026-04-25T13:44:30Z</time></trkpt><trkpt lat="45.98762575631672" lon="12.341956493361444"><ele>186.0</ele><time>2026-04-25T13:44:31Z</time></trkpt><trkpt lat="45.987618953322304" lon="12.342126280903761"><ele>183.4</ele><time>2026-04-25T13:44:32Z</time></trkpt><trkpt lat="45.987610971547525" lon="12.342290319260584"><ele>180.8</ele><time>2026-04-25T13:44:33Z</time></trkpt><trkpt lat="45.98760284111586" lon="12.342449995925527"><ele>178.20000000000002</ele><time>2026-04-25T13:44:34Z</time></trkpt><trkpt lat="45.98759594548754" lon="12.342606134060793"><ele>175.60000000000002</ele><time>2026-04-25T13:44:35Z</time></trkpt><trkpt lat="45.98759732374976" lon="12.342757420860565"><ele>173.0</ele><time>2026-04-25T13:44:36Z</time></trkpt><trkpt lat="45.98761766269849" lon="12.342901654330653"><ele>173.0</ele><time>2026-04-25T13:44:37Z</time></trkpt><trkpt lat="45.9876510278615" lon="12.343043273443742"><ele>173.0</ele><time>2026-04-25T13:44:38Z</time></trkpt><trkpt lat="45.98768777406436" lon="12.343173717324339"><ele>173.0</ele><time>2026-04-25T13:44:39Z</time></trkpt><trkpt lat="45.98772140511152" lon="12.343291462072456"><ele>173.0</ele><time>2026-04-25T13:44:40Z</time></trkpt><trkpt lat="45.98777644756302" lon="12.343387477352623"><ele>173.0</ele><time>2026-04-25T13:44:41Z</time></trkpt><trkpt lat="45.98784158834255" lon="12.343478576872453"><ele>171.66666666666666</ele><time>2026-04-25T13:44:42Z</time></trkpt><trkpt lat="45.98791564113766" lon="12.343551888551636"><ele>170.33333333333331</ele><time>2026-04-25T13:44:43Z</time></trkpt><trkpt lat="45.9879950695496" lon="12.343614694302254"><ele>169.0</ele><time>2026-04-25T13:44:44Z</time></trkpt><trkpt lat="45.98806341269735" lon="12.343661207789216"><ele>167.66666666666666</ele><time>2026-04-25T13:44:45Z</time></trkpt><trkpt lat="45.98812321475041" lon="12.343706187036389"><ele>166.33333333333334</ele><time>2026-04-25T13:44:46Z</time></trkpt><trkpt lat="45.98817929648311" lon="12.343747954363257"><ele>165.0</ele><time>2026-04-25T13:44:47Z</time></trkpt><trkpt lat="45.98823787351359" lon="12.343792919682889"><ele>165.0</ele><time>2026-04-25T13:44:48Z</time></trkpt><trkpt lat="45.988301102763565" lon="12.343839082626593"><ele>165.0</ele><time>2026-04-25T13:44:49Z</time></trkpt><trkpt lat="45.988375066923886" lon="12.343889418710608"><ele>165.0</ele><time>2026-04-25T13:44:50Z</time></trkpt><trkpt lat="45.98846426681378" lon="12.34397376537169"><ele>165.0</ele><time>2026-04-25T13:44:51Z</time></trkpt><trkpt lat="45.988588375337" lon="12.344051059215566"><ele>165.0</ele><time>2026-04-25T13:44:52Z</time></trkpt><trkpt lat="45.98871939675099" lon="12.344109605793983"><ele>165.5</ele><time>2026-04-25T13:44:53Z</time></trkpt><trkpt lat="45.98884424886492" lon="12.344178927431294"><ele>166.0</ele><time>2026-04-25T13:44:54Z</time></trkpt><trkpt lat="45.988974322973974" lon="12.344222336830992"><ele>166.5</ele><time>2026-04-25T13:44:55Z</time></trkpt><trkpt lat="45.98911371669243" lon="12.344243863273647"><ele>167.0</ele><time>2026-04-25T13:44:56Z</time></trkpt><trkpt lat="45.98925715849509" lon="12.344248069211663"><ele>168.0</ele><time>2026-04-25T13:44:57Z</time></trkpt><trkpt lat="45.98940971474944" lon="12.344237193440682"><ele>169.0</ele><time>2026-04-25T13:44:58Z</time></trkpt><trkpt lat="45.98955996747146" lon="12.344209954615442"><ele>170.0</ele><time>2026-04-25T13:44:59Z</time></trkpt><trkpt lat="45.9897131644947" lon="12.344167475263887"><ele>170.0</ele><time>2026-04-25T13:45:00Z</time></trkpt><trkpt lat="45.98986768204961" lon="12.344128853108357"><ele>170.0</ele><time>2026-04-25T13:45:01Z</time></trkpt><trkpt lat="45.9900224994079" lon="12.344092436569225"><ele>170.0</ele><time>2026-04-25T13:45:02Z</time></trkpt><trkpt lat="45.990176007314425" lon="12.344058592865972"><ele>171.0</ele><time>2026-04-25T13:45:03Z</time></trkpt><trkpt lat="45.99033125051224" lon="12.344034395702671"><ele>172.0</ele><time>2026-04-25T13:45:04Z</time></trkpt><trkpt lat="45.99048186805975" lon="12.343975997726266"><ele>173.0</ele><time>2026-04-25T13:45:05Z</time></trkpt><trkpt lat="45.99061985214977" lon="12.343887226538845"><ele>174.0</ele><time>2026-04-25T13:45:06Z</time></trkpt><trkpt lat="45.99075911754511" lon="12.343816336119218"><ele>175.0</ele><time>2026-04-25T13:45:07Z</time></trkpt><trkpt lat="45.99090245660814" lon="12.343761069383916"><ele>176.0</ele><time>2026-04-25T13:45:08Z</time></trkpt><trkpt lat="45.99103745869662" lon="12.34365283926223"><ele>176.0</ele><time>2026-04-25T13:45:09Z</time></trkpt><trkpt lat="45.9911789918319" lon="12.343554315310122"><ele>176.0</ele><time>2026-04-25T13:45:10Z</time></trkpt><trkpt lat="45.99132211612199" lon="12.343445221368556"><ele>176.0</ele><time>2026-04-25T13:45:11Z</time></trkpt><trkpt lat="45.99147055569948" lon="12.343333001377566"><ele>176.0</ele><time>2026-04-25T13:45:12Z</time></trkpt><trkpt lat="45.99161889357507" lon="12.343217844406066"><ele>176.0</ele><time>2026-04-25T13:45:13Z</time></trkpt><trkpt lat="45.99176865639586" lon="12.343099578103685"><ele>176.0</ele><time>2026-04-25T13:45:14Z</time></trkpt><trkpt lat="45.991916877175534" lon="12.342982306315902"><ele>176.66666666666666</ele><time>2026-04-25T13:45:15Z</time></trkpt><trkpt lat="45.99207004222291" lon="12.342890010046203"><ele>177.33333333333334</ele><time>2026-04-25T13:45:16Z</time></trkpt><trkpt lat="45.992216131143294" lon="12.342776787491093"><ele>178.0</ele><time>2026-04-25T13:45:17Z</time></trkpt><trkpt lat="45.99236105883241" lon="12.342664448887351"><ele>178.0</ele><time>2026-04-25T13:45:18Z</time></trkpt><trkpt lat="45.992495465388586" lon="12.342533549843559"><ele>178.0</ele><time>2026-04-25T13:45:19Z</time></trkpt><trkpt lat="45.99263566964273" lon="12.342424893618963"><ele>178.0</ele><time>2026-04-25T13:45:20Z</time></trkpt><trkpt lat="45.992784882447495" lon="12.342335928141535"><ele>179.33333333333334</ele><time>2026-04-25T13:45:21Z</time></trkpt><trkpt lat="45.99292315324784" lon="12.342229201374844"><ele>180.66666666666666</ele><time>2026-04-25T13:45:22Z</time></trkpt><trkpt lat="45.993060194461684" lon="12.342124654464811"><ele>182.0</ele><time>2026-04-25T13:45:23Z</time></trkpt><trkpt lat="45.99319446792368" lon="12.34202253835316"><ele>182.0</ele><time>2026-04-25T13:45:24Z</time></trkpt><trkpt lat="45.99331897781942" lon="12.341928408642353"><ele>182.0</ele><time>2026-04-25T13:45:25Z</time></trkpt><trkpt lat="45.993430315658024" lon="12.341826213153839"><ele>182.0</ele><time>2026-04-25T13:45:26Z</time></trkpt><trkpt lat="45.9935539707867" lon="12.341783554834134"><ele>182.0</ele><time>2026-04-25T13:45:27Z</time></trkpt><trkpt lat="45.99366153481353" lon="12.341736912445421"><ele>185.0</ele><time>2026-04-25T13:45:28Z</time></trkpt><trkpt lat="45.99374805093012" lon="12.341675889724861"><ele>188.0</ele><time>2026-04-25T13:45:29Z</time></trkpt><trkpt lat="45.993913139093976" lon="12.341901484919374"><ele>191.0</ele><time>2026-04-25T13:45:30Z</time></trkpt><trkpt lat="45.994029353008926" lon="12.34200223225593"><ele>191.0</ele><time>2026-04-25T13:45:31Z</time></trkpt><trkpt lat="45.994140793045545" lon="12.342129432970276"><ele>191.0</ele><time>2026-04-25T13:45:32Z</time></trkpt><trkpt lat="45.994254659780616" lon="12.34226009721796"><ele>191.0</ele><time>2026-04-25T13:45:33Z</time></trkpt><trkpt lat="45.99437379081056" lon="12.342391857050385"><ele>191.0</ele><time>2026-04-25T13:45:34Z</time></trkpt><trkpt lat="45.99448513430564" lon="12.34251055859288"><ele>191.75</ele><time>2026-04-25T13:45:35Z</time></trkpt><trkpt lat="45.99458995623534" lon="12.342619611918705"><ele>192.5</ele><time>2026-04-25T13:45:36Z</time></trkpt><trkpt lat="45.99468779347591" lon="12.342719262448053"><ele>193.25</ele><time>2026-04-25T13:45:37Z</time></trkpt><trkpt lat="45.99479123928476" lon="12.342798925602358"><ele>194.0</ele><time>2026-04-25T13:45:38Z</time></trkpt><trkpt lat="45.99489904361886" lon="12.342846066742828"><ele>195.5</ele><time>2026-04-25T13:45:39Z</time></trkpt><trkpt lat="45.99501067060364" lon="12.34286265565473"><ele>197.0</ele><time>2026-04-25T13:45:40Z</time></trkpt><trkpt lat="45.99512638247636" lon="12.342835038586562"><ele>198.5</ele><time>2026-04-25T13:45:41Z</time></trkpt><trkpt lat="45.99524217725791" lon="12.342773244068736"><ele>200.0</ele><time>2026-04-25T13:45:42Z</time></trkpt><trkpt lat="45.995344795096656" lon="12.342699071605361"><ele>200.0</ele><time>2026-04-25T13:45:43Z</time></trkpt><trkpt lat="45.995423475620754" lon="12.342585456889465"><ele>200.0</ele><time>2026-04-25T13:45:44Z</time></trkpt><trkpt lat="45.995476348536194" lon="12.342438801083823"><ele>200.0</ele><time>2026-04-25T13:45:45Z</time></trkpt><trkpt lat="45.99550151778495" lon="12.34227371857059"><ele>200.0</ele><time>2026-04-25T13:45:46Z</time></trkpt><trkpt lat="45.995491534347146" lon="12.342100974788451"><ele>200.75</ele><time>2026-04-25T13:45:47Z</time></trkpt><trkpt lat="45.99545267692309" lon="12.341934807313981"><ele>201.5</ele><time>2026-04-25T13:45:48Z</time></trkpt><trkpt lat="45.995386678889865" lon="12.341788198193875"><ele>202.25</ele><time>2026-04-25T13:45:49Z</time></trkpt><trkpt lat="45.995298950872424" lon="12.341669381200138"><ele>203.0</ele><time>2026-04-25T13:45:50Z</time></trkpt><trkpt lat="45.9952084926651" lon="12.341563954046507"><ele>203.0</ele><time>2026-04-25T13:45:51Z</time></trkpt><trkpt lat="45.995127860772534" lon="12.341457539728763"><ele>203.0</ele><time>2026-04-25T13:45:52Z</time></trkpt><trkpt lat="45.99506457394083" lon="12.341349185070495"><ele>203.0</ele><time>2026-04-25T13:45:53Z</time></trkpt><trkpt lat="45.995020412893275" lon="12.341240324995248"><ele>203.0</ele><time>2026-04-25T13:45:54Z</time></trkpt><trkpt lat="45.99500551315018" lon="12.341125497304802"><ele>203.0</ele><time>2026-04-25T13:45:55Z</time></trkpt><trkpt lat="45.99501572292331" lon="12.34101790467183"><ele>204.50000000000003</ele><time>2026-04-25T13:45:56Z</time></trkpt><trkpt lat="45.99504737354742" lon="12.340930487435282"><ele>206.0</ele><time>2026-04-25T13:45:57Z</time></trkpt><trkpt lat="45.995093803291496" lon="12.340849236416371"><ele>207.5</ele><time>2026-04-25T13:45:58Z</time></trkpt><trkpt lat="45.995155739461076" lon="12.340770835055663"><ele>209.0</ele><time>2026-04-25T13:45:59Z</time></trkpt><trkpt lat="45.99522945140533" lon="12.34070393982192"><ele>210.50000000000003</ele><time>2026-04-25T13:46:00Z</time></trkpt><trkpt lat="45.99531537012514" lon="12.340652665916014"><ele>212.0</ele><time>2026-04-25T13:46:01Z</time></trkpt><trkpt lat="45.99541030683536" lon="12.340618044595402"><ele>212.0</ele><time>2026-04-25T13:46:02Z</time></trkpt><trkpt lat="45.99551323462457" lon="12.340593426286247"><ele>212.0</ele><time>2026-04-25T13:46:03Z</time></trkpt><trkpt lat="45.99562061830216" lon="12.340575811914182"><ele>212.0</ele><time>2026-04-25T13:46:04Z</time></trkpt><trkpt lat="45.99573287191242" lon="12.340561903514025"><ele>212.0</ele><time>2026-04-25T13:46:05Z</time></trkpt><trkpt lat="45.99584665262733" lon="12.34054741713496"><ele>212.0</ele><time>2026-04-25T13:46:06Z</time></trkpt><trkpt lat="45.99596542579476" lon="12.340533555724688"><ele>214.0</ele><time>2026-04-25T13:46:07Z</time></trkpt><trkpt lat="45.99608816714861" lon="12.340515970795337"><ele>216.0</ele><time>2026-04-25T13:46:08Z</time></trkpt><trkpt lat="45.99621140875087" lon="12.340497210132547"><ele>218.0</ele><time>2026-04-25T13:46:09Z</time></trkpt><trkpt lat="45.99634004561191" lon="12.340479836553396"><ele>220.0</ele><time>2026-04-25T13:46:10Z</time></trkpt><trkpt lat="45.99646920921017" lon="12.340459556126138"><ele>220.0</ele><time>2026-04-25T13:46:11Z</time></trkpt><trkpt lat="45.9966012630671" lon="12.340441381708436"><ele>220.0</ele><time>2026-04-25T13:46:12Z</time></trkpt><trkpt lat="45.99673023274878" lon="12.34042576441143"><ele>220.0</ele><time>2026-04-25T13:46:13Z</time></trkpt><trkpt lat="45.996856265652596" lon="12.340410359811049"><ele>220.0</ele><time>2026-04-25T13:46:14Z</time></trkpt><trkpt lat="45.9969809164913" lon="12.340395142935211"><ele>221.0</ele><time>2026-04-25T13:46:15Z</time></trkpt><trkpt lat="45.997104283663354" lon="12.340381795407275"><ele>222.0</ele><time>2026-04-25T13:46:16Z</time></trkpt><trkpt lat="45.9972273198007" lon="12.340368326247896"><ele>223.0</ele><time>2026-04-25T13:46:17Z</time></trkpt><trkpt lat="45.99734855587437" lon="12.340351268850057"><ele>224.0</ele><time>2026-04-25T13:46:18Z</time></trkpt><trkpt lat="45.99746871032744" lon="12.340332521017103"><ele>225.25</ele><time>2026-04-25T13:46:19Z</time></trkpt><trkpt lat="45.99758989745493" lon="12.340315559757821"><ele>226.5</ele><time>2026-04-25T13:46:20Z</time></trkpt><trkpt lat="45.997711635968244" lon="12.340299034239884"><ele>227.75</ele><time>2026-04-25T13:46:21Z</time></trkpt><trkpt lat="45.99783526598477" lon="12.34028399687885"><ele>229.0</ele><time>2026-04-25T13:46:22Z</time></trkpt><trkpt lat="45.99796067809467" lon="12.340264725430355"><ele>229.0</ele><time>2026-04-25T13:46:23Z</time></trkpt><trkpt lat="45.99808724480779" lon="12.340234743486127"><ele>229.0</ele><time>2026-04-25T13:46:24Z</time></trkpt><trkpt lat="45.99821315346849" lon="12.34019358050505"><ele>229.0</ele><time>2026-04-25T13:46:25Z</time></trkpt><trkpt lat="45.99833448308644" lon="12.34013697759846"><ele>229.0</ele><time>2026-04-25T13:46:26Z</time></trkpt><trkpt lat="45.998448620419495" lon="12.340072415944265"><ele>229.5</ele><time>2026-04-25T13:46:27Z</time></trkpt><trkpt lat="45.99856248499485" lon="12.340017305946201"><ele>230.0</ele><time>2026-04-25T13:46:28Z</time></trkpt><trkpt lat="45.99867617428704" lon="12.33998756032194"><ele>230.5</ele><time>2026-04-25T13:46:29Z</time></trkpt><trkpt lat="45.998783995277236" lon="12.339991036420981"><ele>231.0</ele><time>2026-04-25T13:46:30Z</time></trkpt><trkpt lat="45.99888673385201" lon="12.340046813554483"><ele>231.0</ele><time>2026-04-25T13:46:31Z</time></trkpt><trkpt lat="45.99897792200533" lon="12.340137420820078"><ele>231.0</ele><time>2026-04-25T13:46:32Z</time></trkpt><trkpt lat="45.99905337909788" lon="12.340266287386944"><ele>231.0</ele><time>2026-04-25T13:46:33Z</time></trkpt><trkpt lat="45.99912110593689" lon="12.340410085793406"><ele>231.0</ele><time>2026-04-25T13:46:34Z</time></trkpt><trkpt lat="45.99919058612418" lon="12.340552951252064"><ele>234.0</ele><time>2026-04-25T13:46:35Z</time></trkpt><trkpt lat="45.99927100626158" lon="12.34066431071362"><ele>237.00000000000003</ele><time>2026-04-25T13:46:36Z</time></trkpt><trkpt lat="45.99936437892432" lon="12.340749695404245"><ele>240.00000000000003</ele><time>2026-04-25T13:46:37Z</time></trkpt><trkpt lat="45.99946620602078" lon="12.340808884351624"><ele>243.0</ele><time>2026-04-25T13:46:38Z</time></trkpt><trkpt lat="45.999569761927745" lon="12.340861179039162"><ele>246.0</ele><time>2026-04-25T13:46:39Z</time></trkpt><trkpt lat="45.99967719094062" lon="12.340908528743984"><ele>246.0</ele><time>2026-04-25T13:46:40Z</time></trkpt><trkpt lat="45.9997815530295" lon="12.34094189063806"><ele>246.00000000000003</ele><time>2026-04-25T13:46:41Z</time></trkpt><trkpt lat="45.99988008175802" lon="12.340971420252268"><ele>246.00000000000003</ele><time>2026-04-25T13:46:42Z</time></trkpt><trkpt lat="45.99997636571536" lon="12.340987434956544"><ele>246.0</ele><time>2026-04-25T13:46:43Z</time></trkpt><trkpt lat="46.00007493806299" lon="12.340977909146915"><ele>246.0</ele><time>2026-04-25T13:46:44Z</time></trkpt><trkpt lat="46.0001823050239" lon="12.340926805132254"><ele>246.0</ele><time>2026-04-25T13:46:45Z</time></trkpt><trkpt lat="46.000284816126666" lon="12.340856164237456"><ele>246.0</ele><time>2026-04-25T13:46:46Z</time></trkpt><trkpt lat="46.00038279838743" lon="12.34076175693259"><ele>246.0</ele><time>2026-04-25T13:46:47Z</time></trkpt><trkpt lat="46.000473251387824" lon="12.340656082128156"><ele>246.0</ele><time>2026-04-25T13:46:48Z</time></trkpt><trkpt lat="46.00054896943095" lon="12.340531658732383"><ele>246.8</ele><time>2026-04-25T13:46:49Z</time></trkpt><trkpt lat="46.0006037360264" lon="12.340384698551478"><ele>247.60000000000002</ele><time>2026-04-25T13:46:50Z</time></trkpt><trkpt lat="46.00063632076323" lon="12.340233218213454"><ele>248.4</ele><time>2026-04-25T13:46:51Z</time></trkpt><trkpt lat="46.00065846074724" lon="12.340084071719833"><ele>249.2</ele><time>2026-04-25T13:46:52Z</time></trkpt><trkpt lat="46.00068949378497" lon="12.339953796108551"><ele>250.0</ele><time>2026-04-25T13:46:53Z</time></trkpt><trkpt lat="46.00073523414469" lon="12.339845729065734"><ele>249.99999999999997</ele><time>2026-04-25T13:46:54Z</time></trkpt><trkpt lat="46.000797231213404" lon="12.33975739560245"><ele>250.0</ele><time>2026-04-25T13:46:55Z</time></trkpt><trkpt lat="46.00087645166891" lon="12.339740100231056"><ele>250.0</ele><time>2026-04-25T13:46:56Z</time></trkpt><trkpt lat="46.00094589671745" lon="12.33974790921749"><ele>250.0</ele><time>2026-04-25T13:46:57Z</time></trkpt><trkpt lat="46.0010287756979" lon="12.33973551592723"><ele>249.99999999999997</ele><time>2026-04-25T13:46:58Z</time></trkpt><trkpt lat="46.00111947726904" lon="12.3397516123359"><ele>250.0</ele><time>2026-04-25T13:46:59Z</time></trkpt><trkpt lat="46.00121558238509" lon="12.339762716254489"><ele>250.2</ele><time>2026-04-25T13:47:00Z</time></trkpt><trkpt lat="46.001321082056016" lon="12.339770424584895"><ele>250.4</ele><time>2026-04-25T13:47:01Z</time></trkpt><trkpt lat="46.00142354315385" lon="12.339779123753495"><ele>250.60000000000002</ele><time>2026-04-25T13:47:02Z</time></trkpt><trkpt lat="46.00152710441227" lon="12.339787037035933"><ele>250.8</ele><time>2026-04-25T13:47:03Z</time></trkpt><trkpt lat="46.00163571479861" lon="12.339793390132368"><ele>251.0</ele><time>2026-04-25T13:47:04Z</time></trkpt><trkpt lat="46.00174785549452" lon="12.339803136963985"><ele>252.25</ele><time>2026-04-25T13:47:05Z</time></trkpt><trkpt lat="46.001860705931385" lon="12.339825669080442"><ele>253.5</ele><time>2026-04-25T13:47:06Z</time></trkpt><trkpt lat="46.00198392872676" lon="12.339854540394567"><ele>254.75</ele><time>2026-04-25T13:47:07Z</time></trkpt><trkpt lat="46.00210660405826" lon="12.339904081905972"><ele>256.0</ele><time>2026-04-25T13:47:08Z</time></trkpt><trkpt lat="46.00223260869353" lon="12.33996785871461"><ele>256.0</ele><time>2026-04-25T13:47:09Z</time></trkpt><trkpt lat="46.00235609284681" lon="12.340037722819451"><ele>256.0</ele><time>2026-04-25T13:47:10Z</time></trkpt><trkpt lat="46.00248721832354" lon="12.340095092354291"><ele>256.0</ele><time>2026-04-25T13:47:11Z</time></trkpt><trkpt lat="46.00263152235663" lon="12.340132774170684"><ele>256.0</ele><time>2026-04-25T13:47:12Z</time></trkpt><trkpt lat="46.00277418580543" lon="12.340160700285047"><ele>257.0</ele><time>2026-04-25T13:47:13Z</time></trkpt><trkpt lat="46.00292078060916" lon="12.340179051835031"><ele>258.0</ele><time>2026-04-25T13:47:14Z</time></trkpt><trkpt lat="46.00306923488505" lon="12.340189930458864"><ele>259.0</ele><time>2026-04-25T13:47:15Z</time></trkpt><trkpt lat="46.00321941068102" lon="12.340203405742177"><ele>260.0</ele><time>2026-04-25T13:47:16Z</time></trkpt><trkpt lat="46.00336776121304" lon="12.34021463175775"><ele>261.5</ele><time>2026-04-25T13:47:17Z</time></trkpt><trkpt lat="46.00351427053059" lon="12.340209756824526"><ele>263.0</ele><time>2026-04-25T13:47:18Z</time></trkpt><trkpt lat="46.0036625473393" lon="12.340193534745133"><ele>264.5</ele><time>2026-04-25T13:47:19Z</time></trkpt><trkpt lat="46.00380939311708" lon="12.340162549957258"><ele>266.0</ele><time>2026-04-25T13:47:20Z</time></trkpt><trkpt lat="46.00395683219323" lon="12.340118129260887"><ele>266.0</ele><time>2026-04-25T13:47:21Z</time></trkpt><trkpt lat="46.00410458680329" lon="12.340070924690448"><ele>266.0</ele><time>2026-04-25T13:47:22Z</time></trkpt><trkpt lat="46.0042549734922" lon="12.34002764223432"><ele>266.0</ele><time>2026-04-25T13:47:23Z</time></trkpt><trkpt lat="46.00440291376254" lon="12.339997943663782"><ele>268.6666666666667</ele><time>2026-04-25T13:47:24Z</time></trkpt><trkpt lat="46.004555498463176" lon="12.339990109242091"><ele>271.3333333333333</ele><time>2026-04-25T13:47:25Z</time></trkpt><trkpt lat="46.004703750488446" lon="12.339998652558034"><ele>274.0</ele><time>2026-04-25T13:47:26Z</time></trkpt><trkpt lat="46.00485239495416" lon="12.340014776868347"><ele>274.0</ele><time>2026-04-25T13:47:27Z</time></trkpt><trkpt lat="46.004995261431546" lon="12.340010070481464"><ele>274.0</ele><time>2026-04-25T13:47:28Z</time></trkpt><trkpt lat="46.0051276364731" lon="12.339984689592551"><ele>274.0</ele><time>2026-04-25T13:47:29Z</time></trkpt><trkpt lat="46.005249080832044" lon="12.339933363202036"><ele>274.0</ele><time>2026-04-25T13:47:30Z</time></trkpt><trkpt lat="46.00536292612853" lon="12.339863116006239"><ele>275.5</ele><time>2026-04-25T13:47:31Z</time></trkpt><trkpt lat="46.00546701333193" lon="12.339782270219974"><ele>277.0</ele><time>2026-04-25T13:47:32Z</time></trkpt><trkpt lat="46.005565242829846" lon="12.339703169381446"><ele>278.5</ele><time>2026-04-25T13:47:33Z</time></trkpt><trkpt lat="46.00566451564267" lon="12.339621081008545"><ele>280.0</ele><time>2026-04-25T13:47:34Z</time></trkpt><trkpt lat="46.00576522097941" lon="12.339547641860962"><ele>282.0</ele><time>2026-04-25T13:47:35Z</time></trkpt><trkpt lat="46.005867898122844" lon="12.339486453200518"><ele>284.0</ele><time>2026-04-25T13:47:36Z</time></trkpt><trkpt lat="46.005970008688166" lon="12.339444504542463"><ele>286.0</ele><time>2026-04-25T13:47:37Z</time></trkpt><trkpt lat="46.00605948061224" lon="12.339410427398635"><ele>288.0</ele><time>2026-04-25T13:47:38Z</time></trkpt><trkpt lat="46.00614312212265" lon="12.339388171423561"><ele>290.0</ele><time>2026-04-25T13:47:39Z</time></trkpt><trkpt lat="46.00621698236635" lon="12.339371597117104"><ele>290.0</ele><time>2026-04-25T13:47:40Z</time></trkpt><trkpt lat="46.00629122647649" lon="12.33934924544862"><ele>290.0</ele><time>2026-04-25T13:47:41Z</time></trkpt><trkpt lat="46.006370694681564" lon="12.33931893526136"><ele>290.0</ele><time>2026-04-25T13:47:42Z</time></trkpt><trkpt lat="46.006459120156734" lon="12.339303513071854"><ele>290.0</ele><time>2026-04-25T13:47:43Z</time></trkpt><trkpt lat="46.006547146170874" lon="12.339266660897966"><ele>290.0</ele><time>2026-04-25T13:47:44Z</time></trkpt><trkpt lat="46.00663455088198" lon="12.339233256333673"><ele>290.0</ele><time>2026-04-25T13:47:45Z</time></trkpt><trkpt lat="46.00672440401296" lon="12.339198916023044"><ele>291.0</ele><time>2026-04-25T13:47:46Z</time></trkpt><trkpt lat="46.0068086942725" lon="12.339143510550779"><ele>292.0</ele><time>2026-04-25T13:47:47Z</time></trkpt><trkpt lat="46.00689390546934" lon="12.339101333729756"><ele>293.0</ele><time>2026-04-25T13:47:48Z</time></trkpt><trkpt lat="46.006977136182925" lon="12.339068080706298"><ele>294.0</ele><time>2026-04-25T13:47:49Z</time></trkpt><trkpt lat="46.00705549432232" lon="12.339055457761665"><ele>295.0</ele><time>2026-04-25T13:47:50Z</time></trkpt><trkpt lat="46.00712532391235" lon="12.33907332775098"><ele>296.0</ele><time>2026-04-25T13:47:51Z</time></trkpt><trkpt lat="46.00719835062175" lon="12.339142494740523"><ele>296.0</ele><time>2026-04-25T13:47:52Z</time></trkpt><trkpt lat="46.00726265897885" lon="12.339222173895642"><ele>296.0</ele><time>2026-04-25T13:47:53Z</time></trkpt><trkpt lat="46.00733286023573" lon="12.33931198024542"><ele>296.0</ele><time>2026-04-25T13:47:54Z</time></trkpt><trkpt lat="46.007413844062995" lon="12.339400120660459"><ele>296.0</ele><time>2026-04-25T13:47:55Z</time></trkpt><trkpt lat="46.00750826240546" lon="12.339476036404939"><ele>296.0</ele><time>2026-04-25T13:47:56Z</time></trkpt><trkpt lat="46.0076088883904" lon="12.339543936036945"><ele>297.2</ele><time>2026-04-25T13:47:57Z</time></trkpt><trkpt lat="46.007716272106386" lon="12.33959587361068"><ele>298.40000000000003</ele><time>2026-04-25T13:47:58Z</time></trkpt><trkpt lat="46.007826661493745" lon="12.339628460917568"><ele>299.6</ele><time>2026-04-25T13:47:59Z</time></trkpt><trkpt lat="46.00793608034798" lon="12.339640355937"><ele>300.8</ele><time>2026-04-25T13:48:00Z</time></trkpt><trkpt lat="46.008040631121595" lon="12.33963833263272"><ele>302.0</ele><time>2026-04-25T13:48:01Z</time></trkpt><trkpt lat="46.00814446941976" lon="12.339640038242354"><ele>302.0</ele><time>2026-04-25T13:48:02Z</time></trkpt><trkpt lat="46.00825001767922" lon="12.339645520278482"><ele>302.0</ele><time>2026-04-25T13:48:03Z</time></trkpt><trkpt lat="46.00835619605788" lon="12.339659722904397"><ele>302.0</ele><time>2026-04-25T13:48:04Z</time></trkpt><trkpt lat="46.00846182600271" lon="12.339684036858078"><ele>302.0</ele><time>2026-04-25T13:48:05Z</time></trkpt><trkpt lat="46.00856428264698" lon="12.339722107285043"><ele>302.0</ele><time>2026-04-25T13:48:06Z</time></trkpt><trkpt lat="46.00866119919344" lon="12.3397745956736"><ele>302.2</ele><time>2026-04-25T13:48:07Z</time></trkpt><trkpt lat="46.00874851766067" lon="12.33984370643567"><ele>302.4</ele><time>2026-04-25T13:48:08Z</time></trkpt><trkpt lat="46.00881347311571" lon="12.33993173049192"><ele>302.6</ele><time>2026-04-25T13:48:09Z</time></trkpt><trkpt lat="46.008860812721686" lon="12.340035882273"><ele>302.8</ele><time>2026-04-25T13:48:10Z</time></trkpt><trkpt lat="46.00889040408324" lon="12.34016429430784"><ele>303.0</ele><time>2026-04-25T13:48:11Z</time></trkpt><trkpt lat="46.008900962904065" lon="12.34030732809049"><ele>303.0</ele><time>2026-04-25T13:48:12Z</time></trkpt><trkpt lat="46.00889342971924" lon="12.340460906952526"><ele>303.0</ele><time>2026-04-25T13:48:13Z</time></trkpt><trkpt lat="46.00887362918028" lon="12.340625455143117"><ele>303.0</ele><time>2026-04-25T13:48:14Z</time></trkpt><trkpt lat="46.00885465960192" lon="12.340796312987743"><ele>303.0</ele><time>2026-04-25T13:48:15Z</time></trkpt><trkpt lat="46.00883448759353" lon="12.34097471086665"><ele>304.0</ele><time>2026-04-25T13:48:16Z</time></trkpt><trkpt lat="46.00881734406909" lon="12.341151519980697"><ele>305.0</ele><time>2026-04-25T13:48:17Z</time></trkpt><trkpt lat="46.00879889238964" lon="12.341336660813187"><ele>306.0</ele><time>2026-04-25T13:48:18Z</time></trkpt><trkpt lat="46.00875881091456" lon="12.341523565391755"><ele>307.0</ele><time>2026-04-25T13:48:19Z</time></trkpt><trkpt lat="46.00874936636843" lon="12.341715840921166"><ele>308.75</ele><time>2026-04-25T13:48:20Z</time></trkpt><trkpt lat="46.00872041134769" lon="12.341903717102298"><ele>310.5</ele><time>2026-04-25T13:48:21Z</time></trkpt><trkpt lat="46.00869679819223" lon="12.342082015111352"><ele>312.25</ele><time>2026-04-25T13:48:22Z</time></trkpt><trkpt lat="46.00867585852996" lon="12.342250331260079"><ele>314.0</ele><time>2026-04-25T13:48:23Z</time></trkpt><trkpt lat="46.00865689037952" lon="12.342410041679546"><ele>314.8</ele><time>2026-04-25T13:48:24Z</time></trkpt><trkpt lat="46.008644714761786" lon="12.34256861209732"><ele>315.59999999999997</ele><time>2026-04-25T13:48:25Z</time></trkpt><trkpt lat="46.00864476892488" lon="12.342731862177033"><ele>316.4</ele><time>2026-04-25T13:48:26Z</time></trkpt><trkpt lat="46.00866971746298" lon="12.342885827826718"><ele>317.2</ele><time>2026-04-25T13:48:27Z</time></trkpt><trkpt lat="46.00872161764544" lon="12.34303096236965"><ele>318.0</ele><time>2026-04-25T13:48:28Z</time></trkpt><trkpt lat="46.00875663893693" lon="12.343182124565237"><ele>318.3333333333333</ele><time>2026-04-25T13:48:29Z</time></trkpt><trkpt lat="46.00879408203626" lon="12.34330754726479"><ele>318.6666666666667</ele><time>2026-04-25T13:48:30Z</time></trkpt><trkpt lat="46.00883182608205" lon="12.343419805635016"><ele>319.0</ele><time>2026-04-25T13:48:31Z</time></trkpt><trkpt lat="46.0088327248832" lon="12.343533017720137"><ele>319.33333333333337</ele><time>2026-04-25T13:48:32Z</time></trkpt><trkpt lat="46.008802662765966" lon="12.3436509391205"><ele>319.6666666666667</ele><time>2026-04-25T13:48:33Z</time></trkpt><trkpt lat="46.008747656520896" lon="12.34375251498916"><ele>320.0</ele><time>2026-04-25T13:48:34Z</time></trkpt><trkpt lat="46.008667474549256" lon="12.343824122092185"><ele>320.0</ele><time>2026-04-25T13:48:35Z</time></trkpt><trkpt lat="46.008578633667554" lon="12.343870252323484"><ele>320.0</ele><time>2026-04-25T13:48:36Z</time></trkpt><trkpt lat="46.00849893567059" lon="12.343913743159616"><ele>320.0</ele><time>2026-04-25T13:48:37Z</time></trkpt><trkpt lat="46.008440768565" lon="12.343973659324913"><ele>320.0</ele><time>2026-04-25T13:48:38Z</time></trkpt><trkpt lat="46.00838644437895" lon="12.344048008824522"><ele>320.0</ele><time>2026-04-25T13:48:39Z</time></trkpt><trkpt lat="46.00839097886439" lon="12.344179743242181"><ele>320.0</ele><time>2026-04-25T13:48:40Z</time></trkpt><trkpt lat="46.00841600918663" lon="12.344291936267517"><ele>320.6</ele><time>2026-04-25T13:48:41Z</time></trkpt><trkpt lat="46.008466015890725" lon="12.344396973194758"><ele>321.2</ele><time>2026-04-25T13:48:42Z</time></trkpt><trkpt lat="46.00851750733086" lon="12.344508426477496"><ele>321.79999999999995</ele><time>2026-04-25T13:48:43Z</time></trkpt><trkpt lat="46.00857625611148" lon="12.344623961576149"><ele>322.4</ele><time>2026-04-25T13:48:44Z</time></trkpt><trkpt lat="46.008648762592635" lon="12.344732257922038"><ele>323.0</ele><time>2026-04-25T13:48:45Z</time></trkpt><trkpt lat="46.00873274857114" lon="12.344824528077597"><ele>324.79999999999995</ele><time>2026-04-25T13:48:46Z</time></trkpt><trkpt lat="46.00882793066455" lon="12.344885769726584"><ele>326.6</ele><time>2026-04-25T13:48:47Z</time></trkpt><trkpt lat="46.00893531763217" lon="12.344910409795112"><ele>328.4</ele><time>2026-04-25T13:48:48Z</time></trkpt><trkpt lat="46.00904229640459" lon="12.344906274454557"><ele>330.20000000000005</ele><time>2026-04-25T13:48:49Z</time></trkpt><trkpt lat="46.009154176072265" lon="12.344885013674936"><ele>332.0</ele><time>2026-04-25T13:48:50Z</time></trkpt><trkpt lat="46.009270918651175" lon="12.344865945678517"><ele>332.0</ele><time>2026-04-25T13:48:51Z</time></trkpt><trkpt lat="46.00939068400653" lon="12.3448561104985"><ele>332.0</ele><time>2026-04-25T13:48:52Z</time></trkpt><trkpt lat="46.00951425405746" lon="12.344847236830539"><ele>332.0</ele><time>2026-04-25T13:48:53Z</time></trkpt><trkpt lat="46.00963763884843" lon="12.344849739478516"><ele>332.0</ele><time>2026-04-25T13:48:54Z</time></trkpt><trkpt lat="46.00975905211206" lon="12.344856737205236"><ele>332.0</ele><time>2026-04-25T13:48:55Z</time></trkpt><trkpt lat="46.00987388728982" lon="12.344869263675912"><ele>332.0</ele><time>2026-04-25T13:48:56Z</time></trkpt><trkpt lat="46.009983233606874" lon="12.344895631402329"><ele>332.0</ele><time>2026-04-25T13:48:57Z</time></trkpt><trkpt lat="46.010086944620845" lon="12.344925088482874"><ele>332.0</ele><time>2026-04-25T13:48:58Z</time></trkpt><trkpt lat="46.010189946212684" lon="12.344957494749103"><ele>332.0</ele><time>2026-04-25T13:48:59Z</time></trkpt><trkpt lat="46.010293311803125" lon="12.344980353238645"><ele>333.6</ele><time>2026-04-25T13:49:00Z</time></trkpt><trkpt lat="46.01039679604856" lon="12.344980897906469"><ele>335.20000000000005</ele><time>2026-04-25T13:49:01Z</time></trkpt><trkpt lat="46.0104978104021" lon="12.344948686758226"><ele>336.8</ele><time>2026-04-25T13:49:02Z</time></trkpt><trkpt lat="46.010582537895836" lon="12.344934903754993"><ele>338.4</ele><time>2026-04-25T13:49:03Z</time></trkpt><trkpt lat="46.010659413797" lon="12.34491493846182"><ele>340.0</ele><time>2026-04-25T13:49:04Z</time></trkpt><trkpt lat="46.010748895735134" lon="12.344902947251402"><ele>342.0</ele><time>2026-04-25T13:49:05Z</time></trkpt><trkpt lat="46.01084218750823" lon="12.34495736431407"><ele>344.0</ele><time>2026-04-25T13:49:06Z</time></trkpt><trkpt lat="46.010921560675726" lon="12.345035947055939"><ele>346.0</ele><time>2026-04-25T13:49:07Z</time></trkpt><trkpt lat="46.01096306157328" lon="12.345160925547082"><ele>348.0</ele><time>2026-04-25T13:49:08Z</time></trkpt><trkpt lat="46.011015888762564" lon="12.34528124320488"><ele>350.0</ele><time>2026-04-25T13:49:09Z</time></trkpt><trkpt lat="46.01103632871661" lon="12.345425422527637"><ele>348.2</ele><time>2026-04-25T13:49:10Z</time></trkpt><trkpt lat="46.01104456742778" lon="12.345576361443458"><ele>346.4</ele><time>2026-04-25T13:49:11Z</time></trkpt><trkpt lat="46.01104019138492" lon="12.34572568796147"><ele>344.6</ele><time>2026-04-25T13:49:12Z</time></trkpt><trkpt lat="46.01102595256668" lon="12.34586186002412"><ele>342.8</ele><time>2026-04-25T13:49:13Z</time></trkpt><trkpt lat="46.011020974921166" lon="12.345991289366955"><ele>341.0</ele><time>2026-04-25T13:49:14Z</time></trkpt><trkpt lat="46.01103523745308" lon="12.346113413791024"><ele>341.0</ele><time>2026-04-25T13:49:15Z</time></trkpt><trkpt lat="46.01105526376785" lon="12.34623374677055"><ele>341.0</ele><time>2026-04-25T13:49:16Z</time></trkpt><trkpt lat="46.011129346487785" lon="12.346318488445624"><ele>341.0</ele><time>2026-04-25T13:49:17Z</time></trkpt><trkpt lat="46.01120488325998" lon="12.346386094610423"><ele>341.0</ele><time>2026-04-25T13:49:18Z</time></trkpt><trkpt lat="46.0112975578377" lon="12.346409077288582"><ele>341.0</ele><time>2026-04-25T13:49:19Z</time></trkpt><trkpt lat="46.01139542398074" lon="12.346382340268269"><ele>341.0</ele><time>2026-04-25T13:49:20Z</time></trkpt><trkpt lat="46.01149925587538" lon="12.346332226268503"><ele>341.0</ele><time>2026-04-25T13:49:21Z</time></trkpt><trkpt lat="46.011606177086094" lon="12.346268262017832"><ele>341.0</ele><time>2026-04-25T13:49:22Z</time></trkpt><trkpt lat="46.01171419743109" lon="12.346190949117629"><ele>341.0</ele><time>2026-04-25T13:49:23Z</time></trkpt><trkpt lat="46.01181579559857" lon="12.34610357236533"><ele>346.5</ele><time>2026-04-25T13:49:24Z</time></trkpt><trkpt lat="46.01191832992523" lon="12.346015384043223"><ele>352.0</ele><time>2026-04-25T13:49:25Z</time></trkpt><trkpt lat="46.01202652848419" lon="12.345950609056025"><ele>357.5</ele><time>2026-04-25T13:49:26Z</time></trkpt><trkpt lat="46.012138637028634" lon="12.34590484309252"><ele>363.0</ele><time>2026-04-25T13:49:27Z</time></trkpt><trkpt lat="46.01224997466004" lon="12.345873596860276"><ele>363.0</ele><time>2026-04-25T13:49:28Z</time></trkpt><trkpt lat="46.012360285646906" lon="12.345859252849698"><ele>363.0</ele><time>2026-04-25T13:49:29Z</time></trkpt><trkpt lat="46.01246457273505" lon="12.345864821594311"><ele>363.0</ele><time>2026-04-25T13:49:30Z</time></trkpt><trkpt lat="46.01256705630308" lon="12.345880716416682"><ele>363.0</ele><time>2026-04-25T13:49:31Z</time></trkpt><trkpt lat="46.01266964504609" lon="12.34592126020767"><ele>363.0</ele><time>2026-04-25T13:49:32Z</time></trkpt><trkpt lat="46.01277016843052" lon="12.345991198018616"><ele>363.79999999999995</ele><time>2026-04-25T13:49:33Z</time></trkpt><trkpt lat="46.01286149102279" lon="12.346078318797169"><ele>364.6</ele><time>2026-04-25T13:49:34Z</time></trkpt><trkpt lat="46.01294304517397" lon="12.34618191916631"><ele>365.4</ele><time>2026-04-25T13:49:35Z</time></trkpt><trkpt lat="46.01299474797921" lon="12.346317127793403"><ele>366.20000000000005</ele><time>2026-04-25T13:49:36Z</time></trkpt><trkpt lat="46.01305424480391" lon="12.346443144546305"><ele>367.0</ele><time>2026-04-25T13:49:37Z</time></trkpt><trkpt lat="46.013110095467766" lon="12.34657227136036"><ele>367.6</ele><time>2026-04-25T13:49:38Z</time></trkpt><trkpt lat="46.013165222483885" lon="12.346701109525132"><ele>368.20000000000005</ele><time>2026-04-25T13:49:39Z</time></trkpt><trkpt lat="46.01323315013234" lon="12.346818891048038"><ele>368.8</ele><time>2026-04-25T13:49:40Z</time></trkpt><trkpt lat="46.01328554081322" lon="12.346952758537592"><ele>369.4</ele><time>2026-04-25T13:49:41Z</time></trkpt><trkpt lat="46.01333851409191" lon="12.347080350571515"><ele>370.0</ele><time>2026-04-25T13:49:42Z</time></trkpt><trkpt lat="46.01339034693851" lon="12.347202276357866"><ele>369.4</ele><time>2026-04-25T13:49:43Z</time></trkpt><trkpt lat="46.013441555704645" lon="12.347319037744878"><ele>368.8</ele><time>2026-04-25T13:49:44Z</time></trkpt><trkpt lat="46.01348828012063" lon="12.347433079002013"><ele>368.20000000000005</ele><time>2026-04-25T13:49:45Z</time></trkpt><trkpt lat="46.01351748048773" lon="12.347554341507822"><ele>367.6</ele><time>2026-04-25T13:49:46Z</time></trkpt><trkpt lat="46.013493389814506" lon="12.347688039881616"><ele>367.0</ele><time>2026-04-25T13:49:47Z</time></trkpt><trkpt lat="46.01346769879138" lon="12.34782464282735"><ele>367.0</ele><time>2026-04-25T13:49:48Z</time></trkpt><trkpt lat="46.0134569609659" lon="12.347970470466397"><ele>367.0</ele><time>2026-04-25T13:49:49Z</time></trkpt><trkpt lat="46.0134440231469" lon="12.348116985009758"><ele>367.0</ele><time>2026-04-25T13:49:50Z</time></trkpt><trkpt lat="46.0134434214225" lon="12.34826798508987"><ele>367.0</ele><time>2026-04-25T13:49:51Z</time></trkpt><trkpt lat="46.0134416174444" lon="12.348423889115137"><ele>367.0</ele><time>2026-04-25T13:49:52Z</time></trkpt><trkpt lat="46.01343998189179" lon="12.348583430227642"><ele>368.20000000000005</ele><time>2026-04-25T13:49:53Z</time></trkpt><trkpt lat="46.01344379684222" lon="12.348743821659456"><ele>369.4</ele><time>2026-04-25T13:49:54Z</time></trkpt><trkpt lat="46.013457218631814" lon="12.348899798502854"><ele>370.6</ele><time>2026-04-25T13:49:55Z</time></trkpt><trkpt lat="46.013467205962215" lon="12.349056017665216"><ele>371.79999999999995</ele><time>2026-04-25T13:49:56Z</time></trkpt><trkpt lat="46.01353075601284" lon="12.349198534411084"><ele>373.0</ele><time>2026-04-25T13:49:57Z</time></trkpt><trkpt lat="46.01356712927237" lon="12.349357519391647"><ele>373.75</ele><time>2026-04-25T13:49:58Z</time></trkpt><trkpt lat="46.01361793632373" lon="12.349510672669092"><ele>374.5</ele><time>2026-04-25T13:49:59Z</time></trkpt><trkpt lat="46.01366264866089" lon="12.34966707632845"><ele>375.25</ele><time>2026-04-25T13:50:00Z</time></trkpt><trkpt lat="46.01369950078892" lon="12.349822626905388"><ele>376.0</ele><time>2026-04-25T13:50:01Z</time></trkpt><trkpt lat="46.01372783376059" lon="12.34997808840097"><ele>376.4</ele><time>2026-04-25T13:50:02Z</time></trkpt><trkpt lat="46.013746944054795" lon="12.350135323821094"><ele>376.8</ele><time>2026-04-25T13:50:03Z</time></trkpt><trkpt lat="46.01375065707449" lon="12.350292715769847"><ele>377.2</ele><time>2026-04-25T13:50:04Z</time></trkpt><trkpt lat="46.01373652417106" lon="12.350449022442866"><ele>377.59999999999997</ele><time>2026-04-25T13:50:05Z</time></trkpt><trkpt lat="46.01371665633906" lon="12.350611586684982"><ele>378.0</ele><time>2026-04-25T13:50:06Z</time></trkpt><trkpt lat="46.013692751339015" lon="12.350772202978485"><ele>379.0</ele><time>2026-04-25T13:50:07Z</time></trkpt><trkpt lat="46.013668594183635" lon="12.350931982206983"><ele>380.0</ele><time>2026-04-25T13:50:08Z</time></trkpt><trkpt lat="46.01364635630351" lon="12.351094461410396"><ele>381.0</ele><time>2026-04-25T13:50:09Z</time></trkpt><trkpt lat="46.01362427519737" lon="12.351258457328075"><ele>382.0</ele><time>2026-04-25T13:50:10Z</time></trkpt><trkpt lat="46.01360932221235" lon="12.351422815308217"><ele>383.0</ele><time>2026-04-25T13:50:11Z</time></trkpt><trkpt lat="46.013573271534234" lon="12.351579039225074"><ele>384.0</ele><time>2026-04-25T13:50:12Z</time></trkpt><trkpt lat="46.01353388824989" lon="12.351723303859162"><ele>385.0</ele><time>2026-04-25T13:50:13Z</time></trkpt><trkpt lat="46.01350244156353" lon="12.351846472838691"><ele>386.0</ele><time>2026-04-25T13:50:14Z</time></trkpt><trkpt lat="46.01349338361889" lon="12.35195307762373"><ele>387.0</ele><time>2026-04-25T13:50:15Z</time></trkpt><trkpt lat="46.01351687500003" lon="12.352041456398503"><ele>387.0</ele><time>2026-04-25T13:50:16Z</time></trkpt><trkpt lat="46.01356558466517" lon="12.35212255552693"><ele>387.0</ele><time>2026-04-25T13:50:17Z</time></trkpt><trkpt lat="46.01363622552063" lon="12.35216394643434"><ele>387.0</ele><time>2026-04-25T13:50:18Z</time></trkpt><trkpt lat="46.01371706623677" lon="12.3521549807708"><ele>387.0</ele><time>2026-04-25T13:50:19Z</time></trkpt><trkpt lat="46.013788869836134" lon="12.352091456460395"><ele>387.0</ele><time>2026-04-25T13:50:20Z</time></trkpt><trkpt lat="46.01384669738574" lon="12.35196991178582"><ele>387.0</ele><time>2026-04-25T13:50:21Z</time></trkpt><trkpt lat="46.01389060052312" lon="12.351797069344023"><ele>387.0</ele><time>2026-04-25T13:50:22Z</time></trkpt><trkpt lat="46.013926496262386" lon="12.35160027720213"><ele>387.0</ele><time>2026-04-25T13:50:23Z</time></trkpt><trkpt lat="46.014004884451175" lon="12.351414612758962"><ele>387.0</ele><time>2026-04-25T13:50:24Z</time></trkpt><trkpt lat="46.014055771504225" lon="12.351239108048876"><ele>387.0</ele><time>2026-04-25T13:50:25Z</time></trkpt><trkpt lat="46.014116595854794" lon="12.351091357026268"><ele>389.40000000000003</ele><time>2026-04-25T13:50:26Z</time></trkpt><trkpt lat="46.01416092289594" lon="12.350962554425456"><ele>391.8</ele><time>2026-04-25T13:50:27Z</time></trkpt><trkpt lat="46.014192276233956" lon="12.350851021407037"><ele>394.2</ele><time>2026-04-25T13:50:28Z</time></trkpt><trkpt lat="46.01426002423907" lon="12.350663255889566"><ele>396.6</ele><time>2026-04-25T13:50:29Z</time></trkpt><trkpt lat="46.01429526012052" lon="12.350554590833989"><ele>399.0</ele><time>2026-04-25T13:50:30Z</time></trkpt><trkpt lat="46.014332744802026" lon="12.350469256571376"><ele>399.0</ele><time>2026-04-25T13:50:31Z</time></trkpt><trkpt lat="46.01439689285735" lon="12.350444700414844"><ele>399.0</ele><time>2026-04-25T13:50:32Z</time></trkpt><trkpt lat="46.01451021466048" lon="12.35048251976274"><ele>399.0</ele><time>2026-04-25T13:50:34Z</time></trkpt><trkpt lat="46.01455335979096" lon="12.350605779807974"><ele>399.0</ele><time>2026-04-25T13:50:35Z</time></trkpt><trkpt lat="46.01457101572642" lon="12.350735790001796"><ele>399.0</ele><time>2026-04-25T13:50:36Z</time></trkpt><trkpt lat="46.01454210974106" lon="12.350860569004702"><ele>400.4</ele><time>2026-04-25T13:50:37Z</time></trkpt><trkpt lat="46.01451713797057" lon="12.351012548641716"><ele>401.79999999999995</ele><time>2026-04-25T13:50:38Z</time></trkpt><trkpt lat="46.01448960227897" lon="12.351162226428318"><ele>403.20000000000005</ele><time>2026-04-25T13:50:39Z</time></trkpt><trkpt lat="46.014462011802166" lon="12.351303802495925"><ele>404.6</ele><time>2026-04-25T13:50:40Z</time></trkpt><trkpt lat="46.01443869695801" lon="12.351457748318657"><ele>406.0</ele><time>2026-04-25T13:50:41Z</time></trkpt><trkpt lat="46.01439917994369" lon="12.351614241670989"><ele>408.25</ele><time>2026-04-25T13:50:42Z</time></trkpt><trkpt lat="46.01435324397917" lon="12.351774385576414"><ele>410.5</ele><time>2026-04-25T13:50:43Z</time></trkpt><trkpt lat="46.01430320297279" lon="12.351935503459327"><ele>412.75</ele><time>2026-04-25T13:50:44Z</time></trkpt><trkpt lat="46.01425178206733" lon="12.352094626004913"><ele>415.0</ele><time>2026-04-25T13:50:45Z</time></trkpt><trkpt lat="46.01419328534124" lon="12.352256592171862"><ele>410.25</ele><time>2026-04-25T13:50:46Z</time></trkpt><trkpt lat="46.01413412457289" lon="12.35241601855264"><ele>405.5</ele><time>2026-04-25T13:50:47Z</time></trkpt><trkpt lat="46.014069598227735" lon="12.3525684344608"><ele>400.75</ele><time>2026-04-25T13:50:48Z</time></trkpt><trkpt lat="46.01401355839246" lon="12.352724773399046"><ele>396.0</ele><time>2026-04-25T13:50:49Z</time></trkpt><trkpt lat="46.01396495443983" lon="12.352886298101454"><ele>398.25</ele><time>2026-04-25T13:50:50Z</time></trkpt><trkpt lat="46.01392627186652" lon="12.353055923467618"><ele>400.5</ele><time>2026-04-25T13:50:51Z</time></trkpt><trkpt lat="46.01390717601294" lon="12.353231388723929"><ele>402.75</ele><time>2026-04-25T13:50:52Z</time></trkpt><trkpt lat="46.0138891943019" lon="12.353407024273386"><ele>405.0</ele><time>2026-04-25T13:50:53Z</time></trkpt><trkpt lat="46.013875923886424" lon="12.353587598980797"><ele>405.0</ele><time>2026-04-25T13:50:54Z</time></trkpt><trkpt lat="46.01384520041089" lon="12.353766533855929"><ele>405.0</ele><time>2026-04-25T13:50:55Z</time></trkpt><trkpt lat="46.01379829283587" lon="12.353939925165268"><ele>405.0</ele><time>2026-04-25T13:50:56Z</time></trkpt><trkpt lat="46.013739553847934" lon="12.354099587365198"><ele>405.0</ele><time>2026-04-25T13:50:57Z</time></trkpt><trkpt lat="46.01368035726346" lon="12.354252753801212"><ele>408.25</ele><time>2026-04-25T13:50:58Z</time></trkpt><trkpt lat="46.01363915363285" lon="12.354408736219906"><ele>411.5</ele><time>2026-04-25T13:50:59Z</time></trkpt><trkpt lat="46.013625578689265" lon="12.354574087564021"><ele>414.75</ele><time>2026-04-25T13:51:00Z</time></trkpt><trkpt lat="46.013619354528785" lon="12.354737405671202"><ele>418.0</ele><time>2026-04-25T13:51:01Z</time></trkpt><trkpt lat="46.01362916837394" lon="12.354899027940434"><ele>420.5</ele><time>2026-04-25T13:51:02Z</time></trkpt><trkpt lat="46.01365167102197" lon="12.355059479435086"><ele>423.0</ele><time>2026-04-25T13:51:03Z</time></trkpt><trkpt lat="46.01367925791282" lon="12.355223022239018"><ele>425.5</ele><time>2026-04-25T13:51:04Z</time></trkpt><trkpt lat="46.013678027210375" lon="12.355398216347742"><ele>428.0</ele><time>2026-04-25T13:51:05Z</time></trkpt><trkpt lat="46.013685814707486" lon="12.355569889398755"><ele>429.0</ele><time>2026-04-25T13:51:06Z</time></trkpt><trkpt lat="46.013687686188106" lon="12.355745675641018"><ele>430.0</ele><time>2026-04-25T13:51:07Z</time></trkpt><trkpt lat="46.01368306951019" lon="12.35592267242064"><ele>431.0</ele><time>2026-04-25T13:51:08Z</time></trkpt><trkpt lat="46.01368714703055" lon="12.356100575863989"><ele>432.0</ele><time>2026-04-25T13:51:09Z</time></trkpt><trkpt lat="46.01367695897776" lon="12.356270005659093"><ele>432.20000000000005</ele><time>2026-04-25T13:51:10Z</time></trkpt><trkpt lat="46.01367483860089" lon="12.35643343931143"><ele>432.40000000000003</ele><time>2026-04-25T13:51:11Z</time></trkpt><trkpt lat="46.013695670210474" lon="12.356591359620031"><ele>432.59999999999997</ele><time>2026-04-25T13:51:12Z</time></trkpt><trkpt lat="46.013740258182885" lon="12.356740534306564"><ele>432.79999999999995</ele><time>2026-04-25T13:51:13Z</time></trkpt><trkpt lat="46.01379255964238" lon="12.356873225164591"><ele>433.0</ele><time>2026-04-25T13:51:14Z</time></trkpt><trkpt lat="46.01386059909569" lon="12.356982519329968"><ele>433.0</ele><time>2026-04-25T13:51:15Z</time></trkpt><trkpt lat="46.013942645376254" lon="12.357068221458407"><ele>432.99999999999994</ele><time>2026-04-25T13:51:16Z</time></trkpt><trkpt lat="46.01403145102411" lon="12.357137698116858"><ele>432.99999999999994</ele><time>2026-04-25T13:51:17Z</time></trkpt><trkpt lat="46.0141233260142" lon="12.35719329566846"><ele>433.0</ele><time>2026-04-25T13:51:18Z</time></trkpt><trkpt lat="46.01420542553525" lon="12.357239367788406"><ele>433.0</ele><time>2026-04-25T13:51:19Z</time></trkpt><trkpt lat="46.014277530215786" lon="12.35726194175728"><ele>434.83333333333337</ele><time>2026-04-25T13:51:20Z</time></trkpt><trkpt lat="46.01435530825149" lon="12.357226087254213"><ele>436.6666666666667</ele><time>2026-04-25T13:51:21Z</time></trkpt><trkpt lat="46.01442108260713" lon="12.357162021835578"><ele>438.5</ele><time>2026-04-25T13:51:22Z</time></trkpt><trkpt lat="46.01449033559533" lon="12.357088091694456"><ele>440.33333333333337</ele><time>2026-04-25T13:51:23Z</time></trkpt><trkpt lat="46.01456448464037" lon="12.35702461740632"><ele>442.1666666666667</ele><time>2026-04-25T13:51:24Z</time></trkpt><trkpt lat="46.01465229302493" lon="12.356963269156953"><ele>444.0</ele><time>2026-04-25T13:51:25Z</time></trkpt><trkpt lat="46.014735462342934" lon="12.356904560133907"><ele>449.79999999999995</ele><time>2026-04-25T13:51:26Z</time></trkpt><trkpt lat="46.0148242111812" lon="12.356837727320029"><ele>455.59999999999997</ele><time>2026-04-25T13:51:27Z</time></trkpt><trkpt lat="46.01491429973841" lon="12.356770725742647"><ele>461.4</ele><time>2026-04-25T13:51:28Z</time></trkpt><trkpt lat="46.015013623195614" lon="12.356709392770346"><ele>467.2</ele><time>2026-04-25T13:51:29Z</time></trkpt><trkpt lat="46.01510921709998" lon="12.356661062664882"><ele>473.0</ele><time>2026-04-25T13:51:30Z</time></trkpt><trkpt lat="46.0152144821609" lon="12.356596860271155"><ele>473.79999999999995</ele><time>2026-04-25T13:51:31Z</time></trkpt><trkpt lat="46.015308501296545" lon="12.35654987239977"><ele>474.59999999999997</ele><time>2026-04-25T13:51:32Z</time></trkpt><trkpt lat="46.01542330717721" lon="12.35651177746035"><ele>475.40000000000003</ele><time>2026-04-25T13:51:33Z</time></trkpt><trkpt lat="46.01552572426972" lon="12.356473989708595"><ele>476.20000000000005</ele><time>2026-04-25T13:51:34Z</time></trkpt><trkpt lat="46.015637661036074" lon="12.356448770519227"><ele>477.0</ele><time>2026-04-25T13:51:35Z</time></trkpt><trkpt lat="46.015749928050646" lon="12.35643003887557"><ele>477.40000000000003</ele><time>2026-04-25T13:51:36Z</time></trkpt><trkpt lat="46.01586286698644" lon="12.356419994906311"><ele>477.80000000000007</ele><time>2026-04-25T13:51:37Z</time></trkpt><trkpt lat="46.01597009606484" lon="12.356405312663542"><ele>478.2</ele><time>2026-04-25T13:51:38Z</time></trkpt><trkpt lat="46.016065734992814" lon="12.356388808896773"><ele>478.6</ele><time>2026-04-25T13:51:39Z</time></trkpt><trkpt lat="46.01615546666005" lon="12.356366666677346"><ele>479.0</ele><time>2026-04-25T13:51:40Z</time></trkpt><trkpt lat="46.01624337356464" lon="12.356359826589348"><ele>479.0</ele><time>2026-04-25T13:51:41Z</time></trkpt><trkpt lat="46.01633053777657" lon="12.356376850433069"><ele>479.0</ele><time>2026-04-25T13:51:42Z</time></trkpt><trkpt lat="46.01641420630384" lon="12.356406509076931"><ele>479.0</ele><time>2026-04-25T13:51:43Z</time></trkpt><trkpt lat="46.016494814044094" lon="12.3564776554296"><ele>479.0</ele><time>2026-04-25T13:51:44Z</time></trkpt><trkpt lat="46.0165683212025" lon="12.356583477489147"><ele>479.0</ele><time>2026-04-25T13:51:45Z</time></trkpt><trkpt lat="46.016640657682686" lon="12.35669863285095"><ele>481.79999999999995</ele><time>2026-04-25T13:51:46Z</time></trkpt><trkpt lat="46.01671363237678" lon="12.35682583797688"><ele>484.59999999999997</ele><time>2026-04-25T13:51:47Z</time></trkpt><trkpt lat="46.01678592808189" lon="12.356940669677826"><ele>487.4</ele><time>2026-04-25T13:51:48Z</time></trkpt><trkpt lat="46.01685189602275" lon="12.357051649122626"><ele>490.2</ele><time>2026-04-25T13:51:49Z</time></trkpt><trkpt lat="46.01690320765617" lon="12.357169777974825"><ele>493.0</ele><time>2026-04-25T13:51:50Z</time></trkpt><trkpt lat="46.01694245695019" lon="12.35729497922143"><ele>493.4</ele><time>2026-04-25T13:51:51Z</time></trkpt><trkpt lat="46.01695732266551" lon="12.357437493079608"><ele>493.79999999999995</ele><time>2026-04-25T13:51:52Z</time></trkpt><trkpt lat="46.01692172711682" lon="12.357568461745776"><ele>494.2</ele><time>2026-04-25T13:51:53Z</time></trkpt><trkpt lat="46.01691122450725" lon="12.357715883432245"><ele>494.6</ele><time>2026-04-25T13:51:54Z</time></trkpt><trkpt lat="46.01685070461213" lon="12.357836883926735"><ele>495.0</ele><time>2026-04-25T13:51:55Z</time></trkpt><trkpt lat="46.016766978835406" lon="12.357916807766289"><ele>495.0</ele><time>2026-04-25T13:51:56Z</time></trkpt><trkpt lat="46.016668055318625" lon="12.357958935491466"><ele>495.0</ele><time>2026-04-25T13:51:57Z</time></trkpt><trkpt lat="46.01655702441629" lon="12.358014142636463"><ele>495.0</ele><time>2026-04-25T13:51:58Z</time></trkpt><trkpt lat="46.01646199330801" lon="12.3580995664919"><ele>495.0</ele><time>2026-04-25T13:51:59Z</time></trkpt><trkpt lat="46.01636137389672" lon="12.358151152922325"><ele>495.0</ele><time>2026-04-25T13:52:00Z</time></trkpt><trkpt lat="46.01627586969553" lon="12.358224110001991"><ele>493.8</ele><time>2026-04-25T13:52:01Z</time></trkpt><trkpt lat="46.01619119708838" lon="12.358297019697803"><ele>492.6</ele><time>2026-04-25T13:52:02Z</time></trkpt><trkpt lat="46.016105361208105" lon="12.358371334581886"><ele>491.4</ele><time>2026-04-25T13:52:03Z</time></trkpt><trkpt lat="46.01603686448836" lon="12.358456174011032"><ele>490.2</ele><time>2026-04-25T13:52:04Z</time></trkpt><trkpt lat="46.01599339572248" lon="12.358559385854985"><ele>489.0</ele><time>2026-04-25T13:52:05Z</time></trkpt><trkpt lat="46.015972559359426" lon="12.358680892876183"><ele>489.0</ele><time>2026-04-25T13:52:06Z</time></trkpt><trkpt lat="46.01597755520477" lon="12.35882065053412"><ele>489.0</ele><time>2026-04-25T13:52:07Z</time></trkpt><trkpt lat="46.01597956241007" lon="12.358979763463633"><ele>489.0</ele><time>2026-04-25T13:52:08Z</time></trkpt><trkpt lat="46.015989448775784" lon="12.359147709654657"><ele>489.0</ele><time>2026-04-25T13:52:09Z</time></trkpt><trkpt lat="46.015978957353006" lon="12.359315589532931"><ele>489.0</ele><time>2026-04-25T13:52:10Z</time></trkpt><trkpt lat="46.015961469379704" lon="12.359481066823905"><ele>487.4</ele><time>2026-04-25T13:52:11Z</time></trkpt><trkpt lat="46.015919504585995" lon="12.359624959134853"><ele>485.79999999999995</ele><time>2026-04-25T13:52:12Z</time></trkpt><trkpt lat="46.01585315464193" lon="12.359742422168509"><ele>484.20000000000005</ele><time>2026-04-25T13:52:13Z</time></trkpt><trkpt lat="46.015790970439305" lon="12.359869128170727"><ele>482.6</ele><time>2026-04-25T13:52:14Z</time></trkpt><trkpt lat="46.01574456681736" lon="12.359998240925508"><ele>481.0</ele><time>2026-04-25T13:52:15Z</time></trkpt><trkpt lat="46.01570675357535" lon="12.360127990148031"><ele>481.0</ele><time>2026-04-25T13:52:16Z</time></trkpt><trkpt lat="46.015689827434905" lon="12.360255759776622"><ele>481.0</ele><time>2026-04-25T13:52:17Z</time></trkpt><trkpt lat="46.01570547240152" lon="12.36038398752901"><ele>481.0</ele><time>2026-04-25T13:52:18Z</time></trkpt><trkpt lat="46.015741254225404" lon="12.360509386228609"><ele>481.0</ele><time>2026-04-25T13:52:19Z</time></trkpt><trkpt lat="46.015794522530484" lon="12.360628024790266"><ele>481.0</ele><time>2026-04-25T13:52:20Z</time></trkpt><trkpt lat="46.01586046946689" lon="12.360742574957449"><ele>487.20000000000005</ele><time>2026-04-25T13:52:21Z</time></trkpt><trkpt lat="46.015924224992276" lon="12.360856854436008"><ele>493.40000000000003</ele><time>2026-04-25T13:52:22Z</time></trkpt><trkpt lat="46.01597032726945" lon="12.360995051398561"><ele>499.6</ele><time>2026-04-25T13:52:23Z</time></trkpt><trkpt lat="46.01603501497866" lon="12.36111911881237"><ele>505.8</ele><time>2026-04-25T13:52:24Z</time></trkpt><trkpt lat="46.016056893816724" lon="12.361264620836021"><ele>512.0</ele><time>2026-04-25T13:52:25Z</time></trkpt><trkpt lat="46.01609432568367" lon="12.36141330397308"><ele>512.0</ele><time>2026-04-25T13:52:26Z</time></trkpt><trkpt lat="46.01612757744309" lon="12.361558610102602"><ele>512.0</ele><time>2026-04-25T13:52:27Z</time></trkpt><trkpt lat="46.01615403224904" lon="12.361711026805677"><ele>512.0</ele><time>2026-04-25T13:52:28Z</time></trkpt><trkpt lat="46.016163802638374" lon="12.361866999465954"><ele>512.0</ele><time>2026-04-25T13:52:29Z</time></trkpt><trkpt lat="46.016171879419254" lon="12.362033032848158"><ele>512.0</ele><time>2026-04-25T13:52:30Z</time></trkpt><trkpt lat="46.01618295568475" lon="12.362201514283873"><ele>512.0</ele><time>2026-04-25T13:52:31Z</time></trkpt><trkpt lat="46.01620547488443" lon="12.362361502370376"><ele>512.0</ele><time>2026-04-25T13:52:32Z</time></trkpt><trkpt lat="46.01624745277386" lon="12.362510193059927"><ele>512.0</ele><time>2026-04-25T13:52:33Z</time></trkpt><trkpt lat="46.01628962295613" lon="12.362648105851829"><ele>512.0</ele><time>2026-04-25T13:52:34Z</time></trkpt><trkpt lat="46.01632160109561" lon="12.362784466769051"><ele>512.0</ele><time>2026-04-25T13:52:35Z</time></trkpt><trkpt lat="46.01633359405112" lon="12.362923262295455"><ele>513.2</ele><time>2026-04-25T13:52:36Z</time></trkpt><trkpt lat="46.01631831220417" lon="12.363063618127942"><ele>514.4000000000001</ele><time>2026-04-25T13:52:37Z</time></trkpt><trkpt lat="46.01627882298563" lon="12.363203634428917"><ele>515.5999999999999</ele><time>2026-04-25T13:52:38Z</time></trkpt><trkpt lat="46.0162435028353" lon="12.363353300579373"><ele>516.8</ele><time>2026-04-25T13:52:39Z</time></trkpt><trkpt lat="46.01622342188242" lon="12.36350806220739"><ele>518.0</ele><time>2026-04-25T13:52:40Z</time></trkpt><trkpt lat="46.01619433766743" lon="12.363666413492814"><ele>518.0</ele><time>2026-04-25T13:52:41Z</time></trkpt><trkpt lat="46.016167976546456" lon="12.363830853627599"><ele>518.0</ele><time>2026-04-25T13:52:42Z</time></trkpt><trkpt lat="46.01616248488864" lon="12.364013739308474"><ele>518.0</ele><time>2026-04-25T13:52:43Z</time></trkpt><trkpt lat="46.01615978773739" lon="12.364204486234865"><ele>518.0</ele><time>2026-04-25T13:52:44Z</time></trkpt><trkpt lat="46.016157133281446" lon="12.364397434104212"><ele>520.0</ele><time>2026-04-25T13:52:45Z</time></trkpt><trkpt lat="46.016154316214795" lon="12.36460220181834"><ele>522.0</ele><time>2026-04-25T13:52:46Z</time></trkpt><trkpt lat="46.01616514787193" lon="12.364805151865774"><ele>524.0</ele><time>2026-04-25T13:52:47Z</time></trkpt><trkpt lat="46.016142272665704" lon="12.36500425350021"><ele>526.0</ele><time>2026-04-25T13:52:48Z</time></trkpt><trkpt lat="46.01612247227642" lon="12.36519062249936"><ele>530.75</ele><time>2026-04-25T13:52:49Z</time></trkpt><trkpt lat="46.016095377768984" lon="12.365374407214569"><ele>535.5</ele><time>2026-04-25T13:52:50Z</time></trkpt><trkpt lat="46.01608011628825" lon="12.36554842484889"><ele>540.25</ele><time>2026-04-25T13:52:51Z</time></trkpt><trkpt lat="46.016058694936554" lon="12.365719801860115"><ele>545.0</ele><time>2026-04-25T13:52:52Z</time></trkpt><trkpt lat="46.016046768822314" lon="12.3658858330938"><ele>548.2</ele><time>2026-04-25T13:52:53Z</time></trkpt><trkpt lat="46.01602911013489" lon="12.366047552461284"><ele>551.4</ele><time>2026-04-25T13:52:54Z</time></trkpt><trkpt lat="46.0160221409538" lon="12.36621307288906"><ele>554.6</ele><time>2026-04-25T13:52:55Z</time></trkpt><trkpt lat="46.01600573735954" lon="12.366354030840924"><ele>557.8</ele><time>2026-04-25T13:52:56Z</time></trkpt><trkpt lat="46.01597964918862" lon="12.366470527656187"><ele>561.0</ele><time>2026-04-25T13:52:57Z</time></trkpt><trkpt lat="46.01593880443456" lon="12.36656013058777"><ele>560.6666666666666</ele><time>2026-04-25T13:52:58Z</time></trkpt><trkpt lat="46.015883243503644" lon="12.366622226574716"><ele>560.3333333333334</ele><time>2026-04-25T13:52:59Z</time></trkpt><trkpt lat="46.01581190207404" lon="12.366659511461858"><ele>560.0</ele><time>2026-04-25T13:53:00Z</time></trkpt><trkpt lat="46.015736112541745" lon="12.366666982620316"><ele>559.6666666666667</ele><time>2026-04-25T13:53:01Z</time></trkpt><trkpt lat="46.01565254910692" lon="12.36658168605912"><ele>559.3333333333334</ele><time>2026-04-25T13:53:02Z</time></trkpt><trkpt lat="46.015586511607424" lon="12.366452939215096"><ele>559.0</ele><time>2026-04-25T13:53:03Z</time></trkpt><trkpt lat="46.015520225802426" lon="12.366315271190174"><ele>559.0</ele><time>2026-04-25T13:53:04Z</time></trkpt><trkpt lat="46.01544942204761" lon="12.366164355990577"><ele>559.0</ele><time>2026-04-25T13:53:05Z</time></trkpt><trkpt lat="46.01538745444404" lon="12.366035376086918"><ele>559.0</ele><time>2026-04-25T13:53:06Z</time></trkpt><trkpt lat="46.01532356283165" lon="12.365929323692065"><ele>559.0</ele><time>2026-04-25T13:53:07Z</time></trkpt><trkpt lat="46.01525083520352" lon="12.365862677362047"><ele>559.0</ele><time>2026-04-25T13:53:08Z</time></trkpt><trkpt lat="46.01516034987625" lon="12.365860672775414"><ele>559.0</ele><time>2026-04-25T13:53:09Z</time></trkpt><trkpt lat="46.0150627809764" lon="12.36589143364159"><ele>559.0</ele><time>2026-04-25T13:53:10Z</time></trkpt><trkpt lat="46.01495395475613" lon="12.36596578996389"><ele>559.0</ele><time>2026-04-25T13:53:11Z</time></trkpt><trkpt lat="46.014845161574044" lon="12.366048035065932"><ele>559.0</ele><time>2026-04-25T13:53:12Z</time></trkpt><trkpt lat="46.01474258286091" lon="12.366129419332166"><ele>559.2</ele><time>2026-04-25T13:53:13Z</time></trkpt><trkpt lat="46.014652106232525" lon="12.36621531567336"><ele>559.4</ele><time>2026-04-25T13:53:14Z</time></trkpt><trkpt lat="46.014581098244676" lon="12.366321145773899"><ele>559.6</ele><time>2026-04-25T13:53:15Z</time></trkpt><trkpt lat="46.0145214922729" lon="12.366433015823304"><ele>559.8</ele><time>2026-04-25T13:53:16Z</time></trkpt><trkpt lat="46.0144755011338" lon="12.36656978621213"><ele>560.0</ele><time>2026-04-25T13:53:17Z</time></trkpt><trkpt lat="46.01441484794098" lon="12.36671121840694"><ele>560.0</ele><time>2026-04-25T13:53:18Z</time></trkpt><trkpt lat="46.01437462734484" lon="12.366867863929004"><ele>560.0</ele><time>2026-04-25T13:53:19Z</time></trkpt><trkpt lat="46.01434662849811" lon="12.3670364337421"><ele>560.0</ele><time>2026-04-25T13:53:20Z</time></trkpt><trkpt lat="46.01429017371188" lon="12.367189997044452"><ele>560.0</ele><time>2026-04-25T13:53:21Z</time></trkpt><trkpt lat="46.01421235096125" lon="12.367319883762363"><ele>558.5</ele><time>2026-04-25T13:53:22Z</time></trkpt><trkpt lat="46.01413833087252" lon="12.367454570798019"><ele>557.0</ele><time>2026-04-25T13:53:23Z</time></trkpt><trkpt lat="46.01405828321142" lon="12.367586956936934"><ele>555.5</ele><time>2026-04-25T13:53:24Z</time></trkpt><trkpt lat="46.0139769969989" lon="12.367718417916745"><ele>554.0</ele><time>2026-04-25T13:53:25Z</time></trkpt><trkpt lat="46.013907158020615" lon="12.367862651340944"><ele>554.0</ele><time>2026-04-25T13:53:26Z</time></trkpt><trkpt lat="46.013810923369434" lon="12.367971163548242"><ele>554.0</ele><time>2026-04-25T13:53:27Z</time></trkpt><trkpt lat="46.013733406263945" lon="12.368102738458653"><ele>554.0</ele><time>2026-04-25T13:53:28Z</time></trkpt><trkpt lat="46.013641138298006" lon="12.368207392165962"><ele>554.0</ele><time>2026-04-25T13:53:29Z</time></trkpt><trkpt lat="46.013547886557916" lon="12.368307777373557"><ele>554.2</ele><time>2026-04-25T13:53:30Z</time></trkpt><trkpt lat="46.013456555813654" lon="12.368403911661018"><ele>554.4</ele><time>2026-04-25T13:53:31Z</time></trkpt><trkpt lat="46.01336583770781" lon="12.3684950911156"><ele>554.6</ele><time>2026-04-25T13:53:32Z</time></trkpt><trkpt lat="46.0132784482089" lon="12.368590387110276"><ele>554.8</ele><time>2026-04-25T13:53:33Z</time></trkpt><trkpt lat="46.01319927733016" lon="12.368697471023047"><ele>555.0</ele><time>2026-04-25T13:53:34Z</time></trkpt><trkpt lat="46.01313026190003" lon="12.368820648160508"><ele>560.5</ele><time>2026-04-25T13:53:35Z</time></trkpt><trkpt lat="46.013071607967255" lon="12.368961818059102"><ele>566.0</ele><time>2026-04-25T13:53:36Z</time></trkpt><trkpt lat="46.01301269416635" lon="12.369105734910194"><ele>571.5</ele><time>2026-04-25T13:53:37Z</time></trkpt><trkpt lat="46.012943360129334" lon="12.369245528112224"><ele>577.0</ele><time>2026-04-25T13:53:38Z</time></trkpt><trkpt lat="46.0128550367725" lon="12.369370368162413"><ele>577.0</ele><time>2026-04-25T13:53:39Z</time></trkpt><trkpt lat="46.01275291668688" lon="12.36947002170166"><ele>577.0</ele><time>2026-04-25T13:53:40Z</time></trkpt><trkpt lat="46.012650355492305" lon="12.369537787733183"><ele>577.0</ele><time>2026-04-25T13:53:41Z</time></trkpt><trkpt lat="46.01256207165997" lon="12.369588974630997"><ele>577.0</ele><time>2026-04-25T13:53:42Z</time></trkpt><trkpt lat="46.012490950204956" lon="12.369660725410094"><ele>577.0</ele><time>2026-04-25T13:53:43Z</time></trkpt><trkpt lat="46.01244626854191" lon="12.369754189588178"><ele>575.5</ele><time>2026-04-25T13:53:44Z</time></trkpt><trkpt lat="46.01242487956157" lon="12.369870330617793"><ele>574.0</ele><time>2026-04-25T13:53:45Z</time></trkpt><trkpt lat="46.01242447794884" lon="12.370000537387016"><ele>572.5</ele><time>2026-04-25T13:53:46Z</time></trkpt><trkpt lat="46.012444917044334" lon="12.370129159795278"><ele>571.0</ele><time>2026-04-25T13:53:47Z</time></trkpt><trkpt lat="46.01248858103447" lon="12.370245496123244"><ele>569.5</ele><time>2026-04-25T13:53:48Z</time></trkpt><trkpt lat="46.0125514476363" lon="12.370337634515439"><ele>568.0</ele><time>2026-04-25T13:53:49Z</time></trkpt><trkpt lat="46.0126125462992" lon="12.37040775489116"><ele>573.1666666666667</ele><time>2026-04-25T13:53:50Z</time></trkpt><trkpt lat="46.01265838126874" lon="12.37049337249211"><ele>578.3333333333334</ele><time>2026-04-25T13:53:51Z</time></trkpt><trkpt lat="46.01267720924096" lon="12.37060463416356"><ele>583.5</ele><time>2026-04-25T13:53:52Z</time></trkpt><trkpt lat="46.01266876825162" lon="12.370722681475304"><ele>588.6666666666666</ele><time>2026-04-25T13:53:53Z</time></trkpt><trkpt lat="46.012641810427695" lon="12.37083880245636"><ele>593.8333333333333</ele><time>2026-04-25T13:53:54Z</time></trkpt><trkpt lat="46.0126022364441" lon="12.370950659017515"><ele>599.0</ele><time>2026-04-25T13:53:55Z</time></trkpt><trkpt lat="46.012547037822365" lon="12.371050737712885"><ele>597.8333333333333</ele><time>2026-04-25T13:53:56Z</time></trkpt><trkpt lat="46.01247883239295" lon="12.371134269385921"><ele>596.6666666666666</ele><time>2026-04-25T13:53:57Z</time></trkpt><trkpt lat="46.012403168268484" lon="12.371202644291692"><ele>595.5</ele><time>2026-04-25T13:53:58Z</time></trkpt><trkpt lat="46.01232450609188" lon="12.37127084457125"><ele>594.3333333333334</ele><time>2026-04-25T13:53:59Z</time></trkpt><trkpt lat="46.01225700448357" lon="12.371342886066962"><ele>593.1666666666667</ele><time>2026-04-25T13:54:00Z</time></trkpt><trkpt lat="46.01220464310904" lon="12.371411247705671"><ele>592.0</ele><time>2026-04-25T13:54:01Z</time></trkpt><trkpt lat="46.012158552958155" lon="12.371486645403092"><ele>594.8333333333334</ele><time>2026-04-25T13:54:02Z</time></trkpt><trkpt lat="46.01212373040555" lon="12.371574074096744"><ele>597.6666666666667</ele><time>2026-04-25T13:54:03Z</time></trkpt><trkpt lat="46.012121103465084" lon="12.371674603171542"><ele>600.5</ele><time>2026-04-25T13:54:04Z</time></trkpt><trkpt lat="46.012161204685206" lon="12.371766990830684"><ele>603.3333333333334</ele><time>2026-04-25T13:54:05Z</time></trkpt><trkpt lat="46.012235714391934" lon="12.37182158411562"><ele>606.1666666666666</ele><time>2026-04-25T13:54:06Z</time></trkpt><trkpt lat="46.01232774100811" lon="12.371834908180869"><ele>609.0</ele><time>2026-04-25T13:54:07Z</time></trkpt><trkpt lat="46.01242568285743" lon="12.371821544878927"><ele>612.2</ele><time>2026-04-25T13:54:08Z</time></trkpt><trkpt lat="46.012527410958235" lon="12.371790868456944"><ele>615.4</ele><time>2026-04-25T13:54:09Z</time></trkpt><trkpt lat="46.01262715569766" lon="12.371753395671373"><ele>618.6</ele><time>2026-04-25T13:54:10Z</time></trkpt><trkpt lat="46.01272806887395" lon="12.371714359677965"><ele>621.8</ele><time>2026-04-25T13:54:11Z</time></trkpt><trkpt lat="46.012822751444716" lon="12.371653060851802"><ele>625.0</ele><time>2026-04-25T13:54:12Z</time></trkpt><trkpt lat="46.0129077144943" lon="12.371568881354893"><ele>625.0</ele><time>2026-04-25T13:54:13Z</time></trkpt><trkpt lat="46.01298339624636" lon="12.371465345658004"><ele>625.0</ele><time>2026-04-25T13:54:14Z</time></trkpt><trkpt lat="46.01305814020906" lon="12.371359574678927"><ele>625.0</ele><time>2026-04-25T13:54:15Z</time></trkpt><trkpt lat="46.01313288961153" lon="12.371255664895186"><ele>625.0</ele><time>2026-04-25T13:54:16Z</time></trkpt><trkpt lat="46.01320033650838" lon="12.371140804890079"><ele>625.0</ele><time>2026-04-25T13:54:17Z</time></trkpt><trkpt lat="46.013263530286906" lon="12.371021578018409"><ele>625.0</ele><time>2026-04-25T13:54:18Z</time></trkpt><trkpt lat="46.01331614063077" lon="12.370889916453981"><ele>625.0</ele><time>2026-04-25T13:54:19Z</time></trkpt><trkpt lat="46.01335595001891" lon="12.370759150098394"><ele>625.0</ele><time>2026-04-25T13:54:20Z</time></trkpt><trkpt lat="46.01338350537463" lon="12.37062960825912"><ele>625.0</ele><time>2026-04-25T13:54:21Z</time></trkpt><trkpt lat="46.013405552264096" lon="12.370503493168677"><ele>625.0</ele><time>2026-04-25T13:54:22Z</time></trkpt><trkpt lat="46.01342748301401" lon="12.370385096398538"><ele>625.0000000000001</ele><time>2026-04-25T13:54:23Z</time></trkpt><trkpt lat="46.01345481740875" lon="12.370287905883444"><ele>625.0</ele><time>2026-04-25T13:54:24Z</time></trkpt><trkpt lat="46.01348763098068" lon="12.370207738449585"><ele>625.0</ele><time>2026-04-25T13:54:25Z</time></trkpt><trkpt lat="46.01353505671544" lon="12.370142250699121"><ele>625.0</ele><time>2026-04-25T13:54:26Z</time></trkpt><trkpt lat="46.01359872553622" lon="12.370100561610931"><ele>625.0</ele><time>2026-04-25T13:54:27Z</time></trkpt><trkpt lat="46.013670280239765" lon="12.370111611878848"><ele>625.0000000000001</ele><time>2026-04-25T13:54:28Z</time></trkpt><trkpt lat="46.013731941956394" lon="12.37018605284279"><ele>625.0</ele><time>2026-04-25T13:54:29Z</time></trkpt><trkpt lat="46.01376470023916" lon="12.370302503829453"><ele>625.0</ele><time>2026-04-25T13:54:30Z</time></trkpt><trkpt lat="46.013766949773256" lon="12.370432633065125"><ele>625.0</ele><time>2026-04-25T13:54:31Z</time></trkpt><trkpt lat="46.01371649633288" lon="12.370576853490695"><ele>625.0</ele><time>2026-04-25T13:54:32Z</time></trkpt><trkpt lat="46.013659858283916" lon="12.370760958058984"><ele>625.0</ele><time>2026-04-25T13:54:33Z</time></trkpt><trkpt lat="46.01359388080785" lon="12.370985520715466"><ele>628.6666666666667</ele><time>2026-04-25T13:54:34Z</time></trkpt><trkpt lat="46.01353925999074" lon="12.371245110020725"><ele>632.3333333333334</ele><time>2026-04-25T13:54:35Z</time></trkpt><trkpt lat="46.013447825442086" lon="12.371498620667193"><ele>636.0</ele><time>2026-04-25T13:54:36Z</time></trkpt><trkpt lat="46.0133597135287" lon="12.371726367349016"><ele>632.3333333333334</ele><time>2026-04-25T13:54:37Z</time></trkpt><trkpt lat="46.0132603953354" lon="12.371922487628932"><ele>628.6666666666667</ele><time>2026-04-25T13:54:38Z</time></trkpt><trkpt lat="46.01315603908666" lon="12.372101679371278"><ele>625.0</ele><time>2026-04-25T13:54:39Z</time></trkpt><trkpt lat="46.01303963326049" lon="12.372248635216572"><ele>631.25</ele><time>2026-04-25T13:54:40Z</time></trkpt><trkpt lat="46.012918172839896" lon="12.372362168061477"><ele>637.5</ele><time>2026-04-25T13:54:41Z</time></trkpt><trkpt lat="46.012793212222036" lon="12.372455492655018"><ele>643.75</ele><time>2026-04-25T13:54:42Z</time></trkpt><trkpt lat="46.012675537975234" lon="12.372536916685169"><ele>650.0</ele><time>2026-04-25T13:54:43Z</time></trkpt><trkpt lat="46.012569654892474" lon="12.372612716258876"><ele>647.2</ele><time>2026-04-25T13:54:44Z</time></trkpt><trkpt lat="46.012486717397934" lon="12.372710707383535"><ele>644.4</ele><time>2026-04-25T13:54:45Z</time></trkpt><trkpt lat="46.01242042462976" lon="12.37283090215796"><ele>641.6</ele><time>2026-04-25T13:54:46Z</time></trkpt><trkpt lat="46.01236758523836" lon="12.372972131612492"><ele>638.8</ele><time>2026-04-25T13:54:47Z</time></trkpt><trkpt lat="46.01232740742427" lon="12.37312925612472"><ele>636.0</ele><time>2026-04-25T13:54:48Z</time></trkpt><trkpt lat="46.01228033423812" lon="12.373285522296266"><ele>643.75</ele><time>2026-04-25T13:54:49Z</time></trkpt><trkpt lat="46.01220743655734" lon="12.373421542822056"><ele>651.5</ele><time>2026-04-25T13:54:50Z</time></trkpt><trkpt lat="46.012109211361484" lon="12.373531260078744"><ele>659.25</ele><time>2026-04-25T13:54:51Z</time></trkpt><trkpt lat="46.01198805197511" lon="12.373613251280728"><ele>667.0</ele><time>2026-04-25T13:54:52Z</time></trkpt><trkpt lat="46.011857209799444" lon="12.373691816374068"><ele>667.0</ele><time>2026-04-25T13:54:53Z</time></trkpt><trkpt lat="46.011725785473814" lon="12.373785257181593"><ele>667.0</ele><time>2026-04-25T13:54:54Z</time></trkpt><trkpt lat="46.01160337137287" lon="12.373901917654262"><ele>667.0</ele><time>2026-04-25T13:54:55Z</time></trkpt><trkpt lat="46.0114929046516" lon="12.374025377900796"><ele>667.0</ele><time>2026-04-25T13:54:56Z</time></trkpt><trkpt lat="46.011387964284424" lon="12.374143423810501"><ele>666.0</ele><time>2026-04-25T13:54:57Z</time></trkpt><trkpt lat="46.011291387847315" lon="12.374270759875053"><ele>665.0</ele><time>2026-04-25T13:54:58Z</time></trkpt><trkpt lat="46.01120688119934" lon="12.374409999891363"><ele>664.0</ele><time>2026-04-25T13:54:59Z</time></trkpt><trkpt lat="46.011133935426344" lon="12.37456214468937"><ele>663.0</ele><time>2026-04-25T13:55:00Z</time></trkpt><trkpt lat="46.01108018037254" lon="12.374731126796647"><ele>663.0</ele><time>2026-04-25T13:55:01Z</time></trkpt><trkpt lat="46.011046720193406" lon="12.374913768283285"><ele>663.0</ele><time>2026-04-25T13:55:02Z</time></trkpt><trkpt lat="46.01103387503863" lon="12.375108794984756"><ele>663.0</ele><time>2026-04-25T13:55:03Z</time></trkpt><trkpt lat="46.01103157808282" lon="12.375314534577981"><ele>663.0</ele><time>2026-04-25T13:55:04Z</time></trkpt><trkpt lat="46.011011817241716" lon="12.375526280766532"><ele>665.75</ele><time>2026-04-25T13:55:05Z</time></trkpt><trkpt lat="46.010981782592296" lon="12.375730432167558"><ele>668.5</ele><time>2026-04-25T13:55:06Z</time></trkpt><trkpt lat="46.010947001718506" lon="12.375919870003406"><ele>671.25</ele><time>2026-04-25T13:55:07Z</time></trkpt><trkpt lat="46.01091688301182" lon="12.376097826037068"><ele>674.0</ele><time>2026-04-25T13:55:08Z</time></trkpt><trkpt lat="46.01089294202011" lon="12.376272181925524"><ele>675.2</ele><time>2026-04-25T13:55:09Z</time></trkpt><trkpt lat="46.01087476353659" lon="12.376444414400787"><ele>676.4000000000001</ele><time>2026-04-25T13:55:10Z</time></trkpt><trkpt lat="46.010864161134776" lon="12.37660753870126"><ele>677.6</ele><time>2026-04-25T13:55:11Z</time></trkpt><trkpt lat="46.01087504243456" lon="12.376756575404888"><ele>678.8</ele><time>2026-04-25T13:55:12Z</time></trkpt><trkpt lat="46.01091301623234" lon="12.376899900927857"><ele>680.0</ele><time>2026-04-25T13:55:13Z</time></trkpt><trkpt lat="46.01097265000753" lon="12.37704662781621"><ele>677.25</ele><time>2026-04-25T13:55:14Z</time></trkpt><trkpt lat="46.01105071669818" lon="12.377186412715826"><ele>674.5</ele><time>2026-04-25T13:55:15Z</time></trkpt><trkpt lat="46.01114352713075" lon="12.377312309356194"><ele>671.75</ele><time>2026-04-25T13:55:16Z</time></trkpt><trkpt lat="46.01124840178136" lon="12.377416131630088"><ele>669.0</ele><time>2026-04-25T13:55:17Z</time></trkpt><trkpt lat="46.01136435660183" lon="12.377498380249147"><ele>669.0</ele><time>2026-04-25T13:55:18Z</time></trkpt><trkpt lat="46.01148314510888" lon="12.377570406428353"><ele>669.0</ele><time>2026-04-25T13:55:19Z</time></trkpt><trkpt lat="46.01159892840354" lon="12.377640965562065"><ele>669.0</ele><time>2026-04-25T13:55:20Z</time></trkpt><trkpt lat="46.01170454122045" lon="12.377707471173075"><ele>669.0</ele><time>2026-04-25T13:55:21Z</time></trkpt><trkpt lat="46.01180124743881" lon="12.377789781216968"><ele>673.25</ele><time>2026-04-25T13:55:22Z</time></trkpt><trkpt lat="46.01189150802468" lon="12.37790288523291"><ele>677.5</ele><time>2026-04-25T13:55:23Z</time></trkpt><trkpt lat="46.011976881828176" lon="12.378032533900964"><ele>681.75</ele><time>2026-04-25T13:55:24Z</time></trkpt><trkpt lat="46.012060603797984" lon="12.378170265877236"><ele>686.0</ele><time>2026-04-25T13:55:25Z</time></trkpt><trkpt lat="46.01214359343663" lon="12.3783099640786"><ele>686.0</ele><time>2026-04-25T13:55:26Z</time></trkpt><trkpt lat="46.01221591227572" lon="12.378454719640768"><ele>686.0</ele><time>2026-04-25T13:55:27Z</time></trkpt><trkpt lat="46.01226686829042" lon="12.378620368934316"><ele>686.0</ele><time>2026-04-25T13:55:28Z</time></trkpt><trkpt lat="46.012293565481656" lon="12.378799085274657"><ele>686.0</ele><time>2026-04-25T13:55:29Z</time></trkpt><trkpt lat="46.01230983151978" lon="12.378981408639325"><ele>681.25</ele><time>2026-04-25T13:55:30Z</time></trkpt><trkpt lat="46.01232583821947" lon="12.37916551967687"><ele>676.5</ele><time>2026-04-25T13:55:31Z</time></trkpt><trkpt lat="46.01234757203941" lon="12.379352956167068"><ele>671.75</ele><time>2026-04-25T13:55:32Z</time></trkpt><trkpt lat="46.012377582666176" lon="12.379533079907358"><ele>667.0</ele><time>2026-04-25T13:55:33Z</time></trkpt><trkpt lat="46.012422226562855" lon="12.379706711489337"><ele>664.75</ele><time>2026-04-25T13:55:34Z</time></trkpt><trkpt lat="46.01248939878418" lon="12.37987237758288"><ele>662.5</ele><time>2026-04-25T13:55:35Z</time></trkpt><trkpt lat="46.01257475112275" lon="12.380036183391503"><ele>660.25</ele><time>2026-04-25T13:55:36Z</time></trkpt><trkpt lat="46.01266707154484" lon="12.380192892636886"><ele>658.0</ele><time>2026-04-25T13:55:37Z</time></trkpt><trkpt lat="46.01276732113442" lon="12.380338601853326"><ele>667.0</ele><time>2026-04-25T13:55:38Z</time></trkpt><trkpt lat="46.012879499128346" lon="12.380472162364457"><ele>676.0</ele><time>2026-04-25T13:55:39Z</time></trkpt><trkpt lat="46.01300518422602" lon="12.380593034717942"><ele>685.0</ele><time>2026-04-25T13:55:40Z</time></trkpt><trkpt lat="46.01313975213911" lon="12.38070263872604"><ele>685.0</ele><time>2026-04-25T13:55:41Z</time></trkpt><trkpt lat="46.013273369846964" lon="12.380824546365032"><ele>685.0</ele><time>2026-04-25T13:55:42Z</time></trkpt><trkpt lat="46.013394585945385" lon="12.380959942363509"><ele>685.0</ele><time>2026-04-25T13:55:43Z</time></trkpt><trkpt lat="46.013504877105035" lon="12.381092375189663"><ele>689.25</ele><time>2026-04-25T13:55:44Z</time></trkpt><trkpt lat="46.01360689294806" lon="12.38122155814467"><ele>693.5</ele><time>2026-04-25T13:55:45Z</time></trkpt><trkpt lat="46.0137008384258" lon="12.381362312434325"><ele>697.75</ele><time>2026-04-25T13:55:46Z</time></trkpt><trkpt lat="46.01378641402901" lon="12.38151362214083"><ele>702.0</ele><time>2026-04-25T13:55:47Z</time></trkpt><trkpt lat="46.01386999172345" lon="12.381672117180099"><ele>702.0</ele><time>2026-04-25T13:55:48Z</time></trkpt><trkpt lat="46.013947598375424" lon="12.381845146213433"><ele>702.0</ele><time>2026-04-25T13:55:49Z</time></trkpt><trkpt lat="46.01403488131184" lon="12.382012561095806"><ele>702.0</ele><time>2026-04-25T13:55:50Z</time></trkpt><trkpt lat="46.014190382653645" lon="12.382124787917652"><ele>710.3333333333334</ele><time>2026-04-25T13:55:51Z</time></trkpt><trkpt lat="46.01429369154874" lon="12.382312313057138"><ele>718.6666666666667</ele><time>2026-04-25T13:55:52Z</time></trkpt><trkpt lat="46.01439567643518" lon="12.382516134442255"><ele>727.0</ele><time>2026-04-25T13:55:53Z</time></trkpt><trkpt lat="46.014484269152156" lon="12.382707377733249"><ele>727.0</ele><time>2026-04-25T13:55:54Z</time></trkpt><trkpt lat="46.01456123307577" lon="12.382894783953015"><ele>727.0</ele><time>2026-04-25T13:55:55Z</time></trkpt><trkpt lat="46.01461455337179" lon="12.383078757354788"><ele>727.0</ele><time>2026-04-25T13:55:56Z</time></trkpt><trkpt lat="46.014659186960614" lon="12.38326051303503"><ele>727.0</ele><time>2026-04-25T13:55:57Z</time></trkpt><trkpt lat="46.01471846182139" lon="12.383435483011711"><ele>723.5</ele><time>2026-04-25T13:55:58Z</time></trkpt><trkpt lat="46.014796811020446" lon="12.383599529211667"><ele>720.0</ele><time>2026-04-25T13:55:59Z</time></trkpt><trkpt lat="46.01489722853965" lon="12.38375912205764"><ele>716.5</ele><time>2026-04-25T13:56:00Z</time></trkpt><trkpt lat="46.01501401037984" lon="12.383900791230184"><ele>713.0</ele><time>2026-04-25T13:56:01Z</time></trkpt><trkpt lat="46.01514147588862" lon="12.384043229233425"><ele>723.0</ele><time>2026-04-25T13:56:02Z</time></trkpt><trkpt lat="46.01526143247334" lon="12.384199935468127"><ele>733.0</ele><time>2026-04-25T13:56:03Z</time></trkpt><trkpt lat="46.01535403444677" lon="12.38437345355887"><ele>743.0</ele><time>2026-04-25T13:56:04Z</time></trkpt><trkpt lat="46.0154332722302" lon="12.384543293234042"><ele>742.5</ele><time>2026-04-25T13:56:05Z</time></trkpt><trkpt lat="46.01552168489464" lon="12.384698941688656"><ele>742.0</ele><time>2026-04-25T13:56:06Z</time></trkpt><trkpt lat="46.0156317077354" lon="12.384841293451082"><ele>741.5</ele><time>2026-04-25T13:56:07Z</time></trkpt><trkpt lat="46.01575165806809" lon="12.384982562886695"><ele>741.0</ele><time>2026-04-25T13:56:08Z</time></trkpt><trkpt lat="46.015871087215984" lon="12.385129340449138"><ele>747.3333333333334</ele><time>2026-04-25T13:56:09Z</time></trkpt><trkpt lat="46.01599537814412" lon="12.38528195721535"><ele>753.6666666666667</ele><time>2026-04-25T13:56:10Z</time></trkpt><trkpt lat="46.016125983357455" lon="12.385430075073826"><ele>760.0</ele><time>2026-04-25T13:56:11Z</time></trkpt><trkpt lat="46.01625435054745" lon="12.385576652103028"><ele>760.0</ele><time>2026-04-25T13:56:12Z</time></trkpt><trkpt lat="46.016384787616474" lon="12.38572463519416"><ele>760.0</ele><time>2026-04-25T13:56:13Z</time></trkpt><trkpt lat="46.016506466869664" lon="12.385862752444613"><ele>760.0</ele><time>2026-04-25T13:56:14Z</time></trkpt><trkpt lat="46.01662058434177" lon="12.385990936851957"><ele>763.75</ele><time>2026-04-25T13:56:15Z</time></trkpt><trkpt lat="46.01673070773166" lon="12.38611605858233"><ele>767.5</ele><time>2026-04-25T13:56:16Z</time></trkpt><trkpt lat="46.01683704986419" lon="12.386237815268132"><ele>771.25</ele><time>2026-04-25T13:56:17Z</time></trkpt><trkpt lat="46.01693838700045" lon="12.3863672057043"><ele>775.0</ele><time>2026-04-25T13:56:18Z</time></trkpt><trkpt lat="46.017035438102" lon="12.386499194999887"><ele>775.0</ele><time>2026-04-25T13:56:19Z</time></trkpt><trkpt lat="46.01714031206522" lon="12.386616377220204"><ele>775.0</ele><time>2026-04-25T13:56:20Z</time></trkpt><trkpt lat="46.0172427744305" lon="12.386728787242799"><ele>775.0</ele><time>2026-04-25T13:56:21Z</time></trkpt><trkpt lat="46.01734289810375" lon="12.386842703851679"><ele>775.0</ele><time>2026-04-25T13:56:22Z</time></trkpt><trkpt lat="46.017435143190134" lon="12.386971297285962"><ele>777.25</ele><time>2026-04-25T13:56:23Z</time></trkpt><trkpt lat="46.0175183673201" lon="12.38712807184124"><ele>779.5</ele><time>2026-04-25T13:56:24Z</time></trkpt><trkpt lat="46.01759616490532" lon="12.38729115676749"><ele>781.75</ele><time>2026-04-25T13:56:25Z</time></trkpt><trkpt lat="46.01766630128254" lon="12.387484862454784"><ele>784.0</ele><time>2026-04-25T13:56:26Z</time></trkpt><trkpt lat="46.01773873647842" lon="12.387686655358703"><ele>784.0</ele><time>2026-04-25T13:56:27Z</time></trkpt><trkpt lat="46.01781297926817" lon="12.387896112261839"><ele>784.0</ele><time>2026-04-25T13:56:28Z</time></trkpt><trkpt lat="46.01789103703858" lon="12.38810333305627"><ele>784.0</ele><time>2026-04-25T13:56:29Z</time></trkpt><trkpt lat="46.0179644006397" lon="12.388298073580541"><ele>786.75</ele><time>2026-04-25T13:56:30Z</time></trkpt><trkpt lat="46.018029773737396" lon="12.388477197013428"><ele>789.5</ele><time>2026-04-25T13:56:31Z</time></trkpt><trkpt lat="46.01808656941061" lon="12.388635909377815"><ele>792.25</ele><time>2026-04-25T13:56:32Z</time></trkpt><trkpt lat="46.01815631608364" lon="12.388768914476127"><ele>795.0</ele><time>2026-04-25T13:56:33Z</time></trkpt><trkpt lat="46.01823438094416" lon="12.388875941229756"><ele>793.0</ele><time>2026-04-25T13:56:34Z</time></trkpt><trkpt lat="46.018337350809716" lon="12.388960396026468"><ele>791.0</ele><time>2026-04-25T13:56:35Z</time></trkpt><trkpt lat="46.0184579892174" lon="12.389041420869182"><ele>789.0</ele><time>2026-04-25T13:56:36Z</time></trkpt><trkpt lat="46.0185789245214" lon="12.389136587567055"><ele>787.0</ele><time>2026-04-25T13:56:37Z</time></trkpt><trkpt lat="46.0186961817014" lon="12.389258752580904"><ele>787.0</ele><time>2026-04-25T13:56:38Z</time></trkpt><trkpt lat="46.01881259039543" lon="12.389413638658446"><ele>787.0</ele><time>2026-04-25T13:56:39Z</time></trkpt><trkpt lat="46.01892713148895" lon="12.389594508086237"><ele>787.0</ele><time>2026-04-25T13:56:40Z</time></trkpt><trkpt lat="46.01904081877786" lon="12.38979799573734"><ele>792.6666666666666</ele><time>2026-04-25T13:56:41Z</time></trkpt><trkpt lat="46.019154840468225" lon="12.390023670578898"><ele>798.3333333333333</ele><time>2026-04-25T13:56:42Z</time></trkpt><trkpt lat="46.01926633525365" lon="12.39025928758941"><ele>804.0</ele><time>2026-04-25T13:56:43Z</time></trkpt><trkpt lat="46.019376178556435" lon="12.390492167433482"><ele>802.0</ele><time>2026-04-25T13:56:44Z</time></trkpt><trkpt lat="46.01948159217669" lon="12.39070461481318"><ele>800.0</ele><time>2026-04-25T13:56:45Z</time></trkpt><trkpt lat="46.019585359696535" lon="12.39090743643552"><ele>798.0</ele><time>2026-04-25T13:56:46Z</time></trkpt><trkpt lat="46.0196784046024" lon="12.39110249608748"><ele>798.0</ele><time>2026-04-25T13:56:47Z</time></trkpt><trkpt lat="46.01976126831559" lon="12.391288193734583"><ele>798.0</ele><time>2026-04-25T13:56:48Z</time></trkpt><trkpt lat="46.01984422536067" lon="12.391467398639636"><ele>798.0</ele><time>2026-04-25T13:56:49Z</time></trkpt><trkpt lat="46.01992672416452" lon="12.391650835588145"><ele>801.6666666666667</ele><time>2026-04-25T13:56:50Z</time></trkpt><trkpt lat="46.02000975920898" lon="12.391841649139238"><ele>805.3333333333334</ele><time>2026-04-25T13:56:51Z</time></trkpt><trkpt lat="46.02009220438333" lon="12.392035896554694"><ele>809.0</ele><time>2026-04-25T13:56:52Z</time></trkpt><trkpt lat="46.02018777707138" lon="12.39222690408558"><ele>809.0</ele><time>2026-04-25T13:56:53Z</time></trkpt><trkpt lat="46.020307071597415" lon="12.392408788131723"><ele>809.0</ele><time>2026-04-25T13:56:54Z</time></trkpt><trkpt lat="46.020427278570175" lon="12.392596150516711"><ele>809.0</ele><time>2026-04-25T13:56:55Z</time></trkpt><trkpt lat="46.020539653656265" lon="12.39279409336464"><ele>809.0</ele><time>2026-04-25T13:56:56Z</time></trkpt><trkpt lat="46.02064628568132" lon="12.392974715719284"><ele>809.0</ele><time>2026-04-25T13:56:57Z</time></trkpt><trkpt lat="46.0207482222944" lon="12.393139227394816"><ele>809.0</ele><time>2026-04-25T13:56:58Z</time></trkpt><trkpt lat="46.02083877833368" lon="12.393304563910439"><ele>817.0</ele><time>2026-04-25T13:56:59Z</time></trkpt><trkpt lat="46.02095137542193" lon="12.39367287206035"><ele>825.0</ele><time>2026-04-25T13:57:00Z</time></trkpt><trkpt lat="46.02103392033566" lon="12.39388755017746"><ele>825.0</ele><time>2026-04-25T13:57:01Z</time></trkpt><trkpt lat="46.02110868136002" lon="12.394109413840011"><ele>825.0</ele><time>2026-04-25T13:57:02Z</time></trkpt><trkpt lat="46.02118658934355" lon="12.394323998237216"><ele>825.0</ele><time>2026-04-25T13:57:03Z</time></trkpt><trkpt lat="46.02127565151728" lon="12.394529098944545"><ele>827.0</ele><time>2026-04-25T13:57:04Z</time></trkpt><trkpt lat="46.02137492994086" lon="12.394722560698481"><ele>829.0</ele><time>2026-04-25T13:57:05Z</time></trkpt><trkpt lat="46.02146089816266" lon="12.394893593602852"><ele>831.0</ele><time>2026-04-25T13:57:06Z</time></trkpt><trkpt lat="46.02155170853848" lon="12.39505682386991"><ele>831.0</ele><time>2026-04-25T13:57:07Z</time></trkpt><trkpt lat="46.021648531443795" lon="12.395213982689935"><ele>831.0</ele><time>2026-04-25T13:57:08Z</time></trkpt><trkpt lat="46.021764487386335" lon="12.395351799132655"><ele>831.0</ele><time>2026-04-25T13:57:09Z</time></trkpt><trkpt lat="46.021892578138306" lon="12.395488425910996"><ele>837.6666666666667</ele><time>2026-04-25T13:57:10Z</time></trkpt><trkpt lat="46.022016432760516" lon="12.395635515335343"><ele>844.3333333333334</ele><time>2026-04-25T13:57:11Z</time></trkpt><trkpt lat="46.022139027409914" lon="12.395796335730214"><ele>851.0</ele><time>2026-04-25T13:57:12Z</time></trkpt><trkpt lat="46.02225781553428" lon="12.39596879475992"><ele>851.0</ele><time>2026-04-25T13:57:13Z</time></trkpt><trkpt lat="46.022361281260395" lon="12.396165215031441"><ele>851.0</ele><time>2026-04-25T13:57:14Z</time></trkpt><trkpt lat="46.022462247321016" lon="12.39636562430193"><ele>851.0</ele><time>2026-04-25T13:57:15Z</time></trkpt><trkpt lat="46.0225550091815" lon="12.396561897480622"><ele>855.25</ele><time>2026-04-25T13:57:16Z</time></trkpt><trkpt lat="46.02265118432673" lon="12.396734329520065"><ele>859.5</ele><time>2026-04-25T13:57:17Z</time></trkpt><trkpt lat="46.022738532962094" lon="12.396891722953635"><ele>863.75</ele><time>2026-04-25T13:57:18Z</time></trkpt><trkpt lat="46.02284093806081" lon="12.397009620603493"><ele>868.0</ele><time>2026-04-25T13:57:19Z</time></trkpt><trkpt lat="46.02292750851733" lon="12.397108799801359"><ele>868.5999999999999</ele><time>2026-04-25T13:57:20Z</time></trkpt><trkpt lat="46.02300570243785" lon="12.397199692702001"><ele>869.1999999999999</ele><time>2026-04-25T13:57:21Z</time></trkpt><trkpt lat="46.02306307227494" lon="12.397295822955307"><ele>869.8</ele><time>2026-04-25T13:57:22Z</time></trkpt><trkpt lat="46.02310723680196" lon="12.397493004466138"><ele>870.4</ele><time>2026-04-25T13:57:24Z</time></trkpt><trkpt lat="46.02308910201964" lon="12.397627509937402"><ele>871.0</ele><time>2026-04-25T13:57:25Z</time></trkpt><trkpt lat="46.0230343055698" lon="12.39776779296766"><ele>871.0</ele><time>2026-04-25T13:57:26Z</time></trkpt><trkpt lat="46.02295329478885" lon="12.397909613485721"><ele>871.0</ele><time>2026-04-25T13:57:27Z</time></trkpt><trkpt lat="46.02285847000443" lon="12.39805177084102"><ele>871.0</ele><time>2026-04-25T13:57:28Z</time></trkpt><trkpt lat="46.02275991792333" lon="12.398213893941287"><ele>871.0</ele><time>2026-04-25T13:57:29Z</time></trkpt><trkpt lat="46.02266245675265" lon="12.398392065888308"><ele>873.75</ele><time>2026-04-25T13:57:30Z</time></trkpt><trkpt lat="46.02257135718949" lon="12.398568939227035"><ele>876.5</ele><time>2026-04-25T13:57:31Z</time></trkpt><trkpt lat="46.022496071663895" lon="12.398733426236886"><ele>879.25</ele><time>2026-04-25T13:57:32Z</time></trkpt><trkpt lat="46.02242920014167" lon="12.398892097595287"><ele>882.0</ele><time>2026-04-25T13:57:33Z</time></trkpt><trkpt lat="46.02238348401453" lon="12.399047522445755"><ele>884.8333333333334</ele><time>2026-04-25T13:57:34Z</time></trkpt><trkpt lat="46.02236264589166" lon="12.399183937194037"><ele>887.6666666666667</ele><time>2026-04-25T13:57:35Z</time></trkpt><trkpt lat="46.0223504985136" lon="12.399301827332149"><ele>890.5</ele><time>2026-04-25T13:57:36Z</time></trkpt><trkpt lat="46.02233351201425" lon="12.399403267625253"><ele>893.3333333333334</ele><time>2026-04-25T13:57:37Z</time></trkpt><trkpt lat="46.02230635337683" lon="12.399580022288214"><ele>896.1666666666667</ele><time>2026-04-25T13:57:39Z</time></trkpt><trkpt lat="46.02226611961762" lon="12.39966272962921"><ele>899.0</ele><time>2026-04-25T13:57:40Z</time></trkpt><trkpt lat="46.02221534531077" lon="12.399736408317416"><ele>899.0</ele><time>2026-04-25T13:57:41Z</time></trkpt><trkpt lat="46.02214675221058" lon="12.399799264442166"><ele>899.0000000000001</ele><time>2026-04-25T13:57:42Z</time></trkpt><trkpt lat="46.02206034364381" lon="12.399844870452846"><ele>899.0000000000001</ele><time>2026-04-25T13:57:43Z</time></trkpt><trkpt lat="46.02195400224807" lon="12.399863601797904"><ele>899.0</ele><time>2026-04-25T13:57:44Z</time></trkpt><trkpt lat="46.021838260869345" lon="12.399866111644947"><ele>899.0</ele><time>2026-04-25T13:57:45Z</time></trkpt><trkpt lat="46.021721263119915" lon="12.399867500468329"><ele>898.2</ele><time>2026-04-25T13:57:46Z</time></trkpt><trkpt lat="46.02160332299787" lon="12.399849066446748"><ele>897.4000000000001</ele><time>2026-04-25T13:57:47Z</time></trkpt><trkpt lat="46.02149923556484" lon="12.399828222337531"><ele>896.6</ele><time>2026-04-25T13:57:48Z</time></trkpt><trkpt lat="46.02139018145661" lon="12.399792304911253"><ele>895.8</ele><time>2026-04-25T13:57:49Z</time></trkpt><trkpt lat="46.0212958139969" lon="12.399716463409366"><ele>895.0</ele><time>2026-04-25T13:57:50Z</time></trkpt><trkpt lat="46.02120489122375" lon="12.399630831930837"><ele>895.0</ele><time>2026-04-25T13:57:51Z</time></trkpt><trkpt lat="46.021134839943585" lon="12.399530154629833"><ele>895.0</ele><time>2026-04-25T13:57:52Z</time></trkpt><trkpt lat="46.0210630850357" lon="12.399443134238092"><ele>895.0</ele><time>2026-04-25T13:57:53Z</time></trkpt><trkpt lat="46.02099050993407" lon="12.399391539985125"><ele>895.0</ele><time>2026-04-25T13:57:54Z</time></trkpt><trkpt lat="46.02090467743514" lon="12.399403439741981"><ele>895.0</ele><time>2026-04-25T13:57:55Z</time></trkpt><trkpt lat="46.02081296879258" lon="12.399459199968039"><ele>894.0</ele><time>2026-04-25T13:57:56Z</time></trkpt><trkpt lat="46.0207204027124" lon="12.3995776605459"><ele>893.0</ele><time>2026-04-25T13:57:57Z</time></trkpt><trkpt lat="46.02062746622596" lon="12.399717893101329"><ele>892.0</ele><time>2026-04-25T13:57:58Z</time></trkpt><trkpt lat="46.020539069081316" lon="12.399852837988584"><ele>891.0</ele><time>2026-04-25T13:57:59Z</time></trkpt><trkpt lat="46.020430075062826" lon="12.399967826628373"><ele>893.75</ele><time>2026-04-25T13:58:00Z</time></trkpt><trkpt lat="46.02032340148564" lon="12.400055139133634"><ele>896.5</ele><time>2026-04-25T13:58:01Z</time></trkpt><trkpt lat="46.02021182945143" lon="12.400157280553195"><ele>899.25</ele><time>2026-04-25T13:58:02Z</time></trkpt><trkpt lat="46.02010542176385" lon="12.400259502391824"><ele>902.0</ele><time>2026-04-25T13:58:03Z</time></trkpt><trkpt lat="46.019997545292654" lon="12.40036080489374"><ele>902.0</ele><time>2026-04-25T13:58:04Z</time></trkpt><trkpt lat="46.01989511970352" lon="12.40047047718039"><ele>902.0</ele><time>2026-04-25T13:58:05Z</time></trkpt><trkpt lat="46.01979091252129" lon="12.400580277164568"><ele>902.0</ele><time>2026-04-25T13:58:06Z</time></trkpt><trkpt lat="46.01968733761644" lon="12.400673664028517"><ele>902.0</ele><time>2026-04-25T13:58:07Z</time></trkpt><trkpt lat="46.01958546357695" lon="12.400754208279496"><ele>905.0</ele><time>2026-04-25T13:58:08Z</time></trkpt><trkpt lat="46.01947948203105" lon="12.400818806651625"><ele>908.0</ele><time>2026-04-25T13:58:09Z</time></trkpt><trkpt lat="46.01936460601356" lon="12.400865582735529"><ele>911.0</ele><time>2026-04-25T13:58:10Z</time></trkpt><trkpt lat="46.01924557782949" lon="12.400873849402947"><ele>914.0</ele><time>2026-04-25T13:58:11Z</time></trkpt><trkpt lat="46.01912832182723" lon="12.400855368219439"><ele>914.2</ele><time>2026-04-25T13:58:12Z</time></trkpt><trkpt lat="46.01901533247685" lon="12.400866534407399"><ele>914.4000000000001</ele><time>2026-04-25T13:58:13Z</time></trkpt><trkpt lat="46.018921586904135" lon="12.400893987372122"><ele>914.6</ele><time>2026-04-25T13:58:14Z</time></trkpt><trkpt lat="46.01882903934234" lon="12.400941889444555"><ele>914.8</ele><time>2026-04-25T13:58:15.001Z</time></trkpt><trkpt lat="46.01873197876925" lon="12.400982301487796"><ele>915.0</ele><time>2026-04-25T13:58:16.001Z</time></trkpt><trkpt lat="46.01862612353231" lon="12.401023713265303"><ele>915.0</ele><time>2026-04-25T13:58:17.001Z</time></trkpt><trkpt lat="46.01852180384098" lon="12.40106612082976"><ele>915.0</ele><time>2026-04-25T13:58:18.001Z</time></trkpt><trkpt lat="46.01842506982886" lon="12.40111153530649"><ele>915.0</ele><time>2026-04-25T13:58:19.001Z</time></trkpt><trkpt lat="46.01834933921968" lon="12.401167630579282"><ele>915.0</ele><time>2026-04-25T13:58:20.001Z</time></trkpt><trkpt lat="46.01828327041291" lon="12.401250536723701"><ele>915.0</ele><time>2026-04-25T13:58:21.001Z</time></trkpt><trkpt lat="46.018248870473734" lon="12.4013451487799"><ele>916.6</ele><time>2026-04-25T13:58:22.001Z</time></trkpt><trkpt lat="46.01824927481151" lon="12.401468803569658"><ele>918.2</ele><time>2026-04-25T13:58:23.001Z</time></trkpt><trkpt lat="46.01829586372257" lon="12.401591881062194"><ele>919.8</ele><time>2026-04-25T13:58:24.001Z</time></trkpt><trkpt lat="46.01836680206116" lon="12.401691746804145"><ele>921.4</ele><time>2026-04-25T13:58:25.001Z</time></trkpt><trkpt lat="46.018465554828154" lon="12.401746502500096"><ele>923.0</ele><time>2026-04-25T13:58:26.001Z</time></trkpt><trkpt lat="46.01857037825062" lon="12.401749635788011"><ele>923.0</ele><time>2026-04-25T13:58:27.001Z</time></trkpt><trkpt lat="46.01866952961578" lon="12.401694679352694"><ele>923.0</ele><time>2026-04-25T13:58:28.001Z</time></trkpt><trkpt lat="46.01875772311704" lon="12.401608525109658"><ele>923.0</ele><time>2026-04-25T13:58:29.001Z</time></trkpt><trkpt lat="46.01884352559312" lon="12.40153092471764"><ele>923.0</ele><time>2026-04-25T13:58:30.001Z</time></trkpt><trkpt lat="46.018938750797304" lon="12.401479584219416"><ele>923.0</ele><time>2026-04-25T13:58:31.001Z</time></trkpt><trkpt lat="46.01904166248032" lon="12.401466099033483"><ele>923.0</ele><time>2026-04-25T13:58:32.001Z</time></trkpt><trkpt lat="46.019147392504365" lon="12.401482852445442"><ele>923.0</ele><time>2026-04-25T13:58:33.001Z</time></trkpt><trkpt lat="46.01925039549779" lon="12.401506335309922"><ele>923.0</ele><time>2026-04-25T13:58:34.001Z</time></trkpt><trkpt lat="46.01934791418491" lon="12.401529831640719"><ele>923.0</ele><time>2026-04-25T13:58:35Z</time></trkpt><trkpt lat="46.01942718381831" lon="12.401565384246775"><ele>923.0</ele><time>2026-04-25T13:58:36Z</time></trkpt><trkpt lat="46.01949517003987" lon="12.40160281454681"><ele>924.8</ele><time>2026-04-25T13:58:37Z</time></trkpt><trkpt lat="46.019557263532356" lon="12.401676335708087"><ele>926.5999999999999</ele><time>2026-04-25T13:58:38Z</time></trkpt><trkpt lat="46.01961423772502" lon="12.401778886366895"><ele>928.4000000000001</ele><time>2026-04-25T13:58:39Z</time></trkpt><trkpt lat="46.0196617106301" lon="12.40188958671048"><ele>930.2</ele><time>2026-04-25T13:58:40Z</time></trkpt><trkpt lat="46.019699988282184" lon="12.40201757406107"><ele>932.0</ele><time>2026-04-25T13:58:41Z</time></trkpt><trkpt lat="46.019735386279116" lon="12.402154573159685"><ele>934.4000000000001</ele><time>2026-04-25T13:58:42Z</time></trkpt><trkpt lat="46.0197629734028" lon="12.402285140029893"><ele>936.8000000000001</ele><time>2026-04-25T13:58:43Z</time></trkpt><trkpt lat="46.01977801005609" lon="12.40242388604297"><ele>939.2</ele><time>2026-04-25T13:58:44Z</time></trkpt><trkpt lat="46.019771824795306" lon="12.402572595350545"><ele>941.6</ele><time>2026-04-25T13:58:45Z</time></trkpt><trkpt lat="46.019754548308164" lon="12.402718976700493"><ele>944.0</ele><time>2026-04-25T13:58:46Z</time></trkpt><trkpt lat="46.019727503122766" lon="12.402857310821032"><ele>946.8000000000001</ele><time>2026-04-25T13:58:47Z</time></trkpt><trkpt lat="46.0197071545061" lon="12.403005551082892"><ele>949.6000000000001</ele><time>2026-04-25T13:58:48Z</time></trkpt><trkpt lat="46.019711020018605" lon="12.403153231754422"><ele>952.4</ele><time>2026-04-25T13:58:49Z</time></trkpt><trkpt lat="46.01974277450881" lon="12.40329567243695"><ele>955.2</ele><time>2026-04-25T13:58:50Z</time></trkpt><trkpt lat="46.01980864732188" lon="12.403420353494889"><ele>958.0</ele><time>2026-04-25T13:58:51Z</time></trkpt><trkpt lat="46.01988675304853" lon="12.403520249752383"><ele>958.0</ele><time>2026-04-25T13:58:52Z</time></trkpt><trkpt lat="46.0199624026114" lon="12.403599947367994"><ele>958.0</ele><time>2026-04-25T13:58:53Z</time></trkpt><trkpt lat="46.020050069434234" lon="12.403671272855526"><ele>958.0</ele><time>2026-04-25T13:58:54Z</time></trkpt><trkpt lat="46.020146667837196" lon="12.403731819709511"><ele>958.0</ele><time>2026-04-25T13:58:55Z</time></trkpt><trkpt lat="46.020257225061044" lon="12.403796531473569"><ele>958.0</ele><time>2026-04-25T13:58:56Z</time></trkpt><trkpt lat="46.020327975797905" lon="12.403862456499343"><ele>957.3333333333333</ele><time>2026-04-25T13:58:57Z</time></trkpt><trkpt lat="46.02039432492866" lon="12.403941225814707"><ele>956.6666666666666</ele><time>2026-04-25T13:58:58Z</time></trkpt><trkpt lat="46.02040493469527" lon="12.404042003557722"><ele>956.0</ele><time>2026-04-25T13:58:59Z</time></trkpt><trkpt lat="46.02037031211193" lon="12.40413241749285"><ele>955.3333333333333</ele><time>2026-04-25T13:59:00Z</time></trkpt><trkpt lat="46.020303739886536" lon="12.404205726718125"><ele>954.6666666666666</ele><time>2026-04-25T13:59:01Z</time></trkpt><trkpt lat="46.020222689246296" lon="12.404254495026663"><ele>954.0</ele><time>2026-04-25T13:59:02Z</time></trkpt><trkpt lat="46.02013231317554" lon="12.404294522381699"><ele>954.0</ele><time>2026-04-25T13:59:03Z</time></trkpt><trkpt lat="46.02004376655718" lon="12.404337372117839"><ele>954.0</ele><time>2026-04-25T13:59:04Z</time></trkpt><trkpt lat="46.01997492772813" lon="12.404402981430751"><ele>954.0</ele><time>2026-04-25T13:59:05Z</time></trkpt><trkpt lat="46.01992356155149" lon="12.40449129432727"><ele>954.0</ele><time>2026-04-25T13:59:06Z</time></trkpt><trkpt lat="46.019892830129045" lon="12.404602808706137"><ele>954.0</ele><time>2026-04-25T13:59:07Z</time></trkpt><trkpt lat="46.01988215346388" lon="12.40474101182037"><ele>954.0</ele><time>2026-04-25T13:59:08Z</time></trkpt><trkpt lat="46.01989941230184" lon="12.404886149691787"><ele>957.6</ele><time>2026-04-25T13:59:09Z</time></trkpt><trkpt lat="46.01990624657323" lon="12.405027508371552"><ele>961.2</ele><time>2026-04-25T13:59:10Z</time></trkpt><trkpt lat="46.01992909215713" lon="12.40517222066126"><ele>964.8000000000001</ele><time>2026-04-25T13:59:11Z</time></trkpt><trkpt lat="46.019949793955504" lon="12.405308322368429"><ele>968.4000000000001</ele><time>2026-04-25T13:59:12Z</time></trkpt><trkpt lat="46.01997464006663" lon="12.405432896446833"><ele>972.0</ele><time>2026-04-25T13:59:13Z</time></trkpt><trkpt lat="46.0200039223412" lon="12.405544355485063"><ele>972.2</ele><time>2026-04-25T13:59:14Z</time></trkpt><trkpt lat="46.02006189820352" lon="12.405638854043398"><ele>972.4000000000001</ele><time>2026-04-25T13:59:15Z</time></trkpt><trkpt lat="46.0201394287857" lon="12.405720362942327"><ele>972.5999999999999</ele><time>2026-04-25T13:59:16Z</time></trkpt><trkpt lat="46.02022837582253" lon="12.405783870904411"><ele>972.8</ele><time>2026-04-25T13:59:17Z</time></trkpt><trkpt lat="46.02032373893917" lon="12.40584317201782"><ele>973.0</ele><time>2026-04-25T13:59:18Z</time></trkpt><trkpt lat="46.02041865172647" lon="12.405901000203869"><ele>973.0</ele><time>2026-04-25T13:59:19Z</time></trkpt><trkpt lat="46.02050920996736" lon="12.40596261274513"><ele>973.0</ele><time>2026-04-25T13:59:20Z</time></trkpt><trkpt lat="46.02058321346779" lon="12.406041847885131"><ele>973.0</ele><time>2026-04-25T13:59:21Z</time></trkpt><trkpt lat="46.02063516250315" lon="12.406150846757173"><ele>973.0</ele><time>2026-04-25T13:59:22Z</time></trkpt><trkpt lat="46.020664835024334" lon="12.40628783478148"><ele>973.0</ele><time>2026-04-25T13:59:23Z</time></trkpt><trkpt lat="46.02067048449066" lon="12.406434703372614"><ele>976.4</ele><time>2026-04-25T13:59:24Z</time></trkpt><trkpt lat="46.02067315872615" lon="12.406588449605504"><ele>979.8</ele><time>2026-04-25T13:59:25Z</time></trkpt><trkpt lat="46.0206689290045" lon="12.406750150511527"><ele>983.2</ele><time>2026-04-25T13:59:26Z</time></trkpt><trkpt lat="46.02068763533711" lon="12.406900582086356"><ele>986.6</ele><time>2026-04-25T13:59:27Z</time></trkpt><trkpt lat="46.02074247472304" lon="12.407041108342892"><ele>990.0</ele><time>2026-04-25T13:59:28Z</time></trkpt><trkpt lat="46.020802695961734" lon="12.407172802001872"><ele>989.8</ele><time>2026-04-25T13:59:29Z</time></trkpt><trkpt lat="46.02087396577284" lon="12.407303086457006"><ele>989.6</ele><time>2026-04-25T13:59:30Z</time></trkpt><trkpt lat="46.02093707627822" lon="12.407429879590346"><ele>989.4000000000001</ele><time>2026-04-25T13:59:31Z</time></trkpt><trkpt lat="46.02098248087242" lon="12.407573591367896"><ele>989.2</ele><time>2026-04-25T13:59:32Z</time></trkpt><trkpt lat="46.0210257680843" lon="12.407708720260223"><ele>989.0</ele><time>2026-04-25T13:59:33Z</time></trkpt><trkpt lat="46.0210867705784" lon="12.407835320779558"><ele>989.0</ele><time>2026-04-25T13:59:34Z</time></trkpt><trkpt lat="46.0211307231128" lon="12.407959138666701"><ele>989.0000000000001</ele><time>2026-04-25T13:59:35Z</time></trkpt><trkpt lat="46.02115075960465" lon="12.40810818012247"><ele>989.0000000000001</ele><time>2026-04-25T13:59:36Z</time></trkpt><trkpt lat="46.02117344534686" lon="12.408252488415759"><ele>989.0</ele><time>2026-04-25T13:59:37Z</time></trkpt><trkpt lat="46.02120304827041" lon="12.40839687527832"><ele>989.0</ele><time>2026-04-25T13:59:38Z</time></trkpt><trkpt lat="46.02122034646606" lon="12.408546180779885"><ele>991.4000000000001</ele><time>2026-04-25T13:59:39Z</time></trkpt><trkpt lat="46.02126543499702" lon="12.408691186103582"><ele>993.8000000000001</ele><time>2026-04-25T13:59:40Z</time></trkpt><trkpt lat="46.021321037101735" lon="12.408834293274435"><ele>996.1999999999999</ele><time>2026-04-25T13:59:41Z</time></trkpt><trkpt lat="46.02137376761103" lon="12.408945753711812"><ele>998.5999999999999</ele><time>2026-04-25T13:59:42Z</time></trkpt><trkpt lat="46.0214123557217" lon="12.409067755172293"><ele>1001.0</ele><time>2026-04-25T13:59:43Z</time></trkpt><trkpt lat="46.02142863405152" lon="12.409200184038655"><ele>1003.4</ele><time>2026-04-25T13:59:44Z</time></trkpt><trkpt lat="46.02142625943901" lon="12.409344096417767"><ele>1005.8</ele><time>2026-04-25T13:59:45Z</time></trkpt><trkpt lat="46.021420432720426" lon="12.409499763285737"><ele>1008.1999999999999</ele><time>2026-04-25T13:59:46Z</time></trkpt><trkpt lat="46.02140244028382" lon="12.409656494806107"><ele>1010.5999999999999</ele><time>2026-04-25T13:59:47Z</time></trkpt><trkpt lat="46.02139133531109" lon="12.409808169781883"><ele>1013.0</ele><time>2026-04-25T13:59:48Z</time></trkpt><trkpt lat="46.02138624760153" lon="12.409950048963529"><ele>1015.2</ele><time>2026-04-25T13:59:49Z</time></trkpt><trkpt lat="46.02137754644594" lon="12.410083403684727"><ele>1017.4</ele><time>2026-04-25T13:59:50Z</time></trkpt><trkpt lat="46.0213605463423" lon="12.410216065607313"><ele>1019.6000000000001</ele><time>2026-04-25T13:59:51Z</time></trkpt><trkpt lat="46.02133421717127" lon="12.410343995112"><ele>1021.8000000000001</ele><time>2026-04-25T13:59:52Z</time></trkpt><trkpt lat="46.021287482130965" lon="12.410467679558117"><ele>1024.0</ele><time>2026-04-25T13:59:53Z</time></trkpt><trkpt lat="46.02124002377709" lon="12.410585332803251"><ele>1024.0</ele><time>2026-04-25T13:59:54Z</time></trkpt><trkpt lat="46.02119282586598" lon="12.410710304096785"><ele>1024.0</ele><time>2026-04-25T13:59:55Z</time></trkpt><trkpt lat="46.021173473719315" lon="12.41086096629818"><ele>1024.0</ele><time>2026-04-25T13:59:56Z</time></trkpt><trkpt lat="46.021178075055175" lon="12.411008119508148"><ele>1024.0</ele><time>2026-04-25T13:59:57Z</time></trkpt><trkpt lat="46.02120188260706" lon="12.411155567973305"><ele>1024.0</ele><time>2026-04-25T13:59:58Z</time></trkpt><trkpt lat="46.02123357016368" lon="12.411292041150924"><ele>1025.8</ele><time>2026-04-25T13:59:59Z</time></trkpt><trkpt lat="46.021272183399596" lon="12.411422519362542"><ele>1027.6000000000001</ele><time>2026-04-25T14:00:00Z</time></trkpt><trkpt lat="46.021320704965724" lon="12.411551918716633"><ele>1029.4</ele><time>2026-04-25T14:00:01Z</time></trkpt><trkpt lat="46.02137118206581" lon="12.411681635902381"><ele>1031.2</ele><time>2026-04-25T14:00:02Z</time></trkpt><trkpt lat="46.02143222251589" lon="12.411794366542525"><ele>1033.0</ele><time>2026-04-25T14:00:03Z</time></trkpt><trkpt lat="46.02147449968572" lon="12.411895656891192"><ele>1033.0</ele><time>2026-04-25T14:00:04Z</time></trkpt><trkpt lat="46.021510835212" lon="12.411991055598024"><ele>1033.0</ele><time>2026-04-25T14:00:05Z</time></trkpt><trkpt lat="46.02152490051894" lon="12.412105083581453"><ele>1033.0</ele><time>2026-04-25T14:00:06Z</time></trkpt><trkpt lat="46.02152007581939" lon="12.412229903320947"><ele>1033.0</ele><time>2026-04-25T14:00:07Z</time></trkpt><trkpt lat="46.02150327055499" lon="12.4123597754509"><ele>1033.0</ele><time>2026-04-25T14:00:08Z</time></trkpt><trkpt lat="46.02147900442445" lon="12.412492071098857"><ele>1033.0</ele><time>2026-04-25T14:00:09Z</time></trkpt><trkpt lat="46.02145217552839" lon="12.412632161393354"><ele>1034.8</ele><time>2026-04-25T14:00:10Z</time></trkpt><trkpt lat="46.021436443678" lon="12.412782470704405"><ele>1036.6</ele><time>2026-04-25T14:00:11Z</time></trkpt><trkpt lat="46.02143293008496" lon="12.412941355987972"><ele>1038.4</ele><time>2026-04-25T14:00:12Z</time></trkpt><trkpt lat="46.021447558312694" lon="12.4131000181526"><ele>1040.2</ele><time>2026-04-25T14:00:13Z</time></trkpt><trkpt lat="46.02148415628119" lon="12.413251277983981"><ele>1042.0</ele><time>2026-04-25T14:00:14Z</time></trkpt><trkpt lat="46.02153262999511" lon="12.413390945849175"><ele>1043.4</ele><time>2026-04-25T14:00:15Z</time></trkpt><trkpt lat="46.02156790558055" lon="12.41353921080887"><ele>1044.8000000000002</ele><time>2026-04-25T14:00:16Z</time></trkpt><trkpt lat="46.021590190259374" lon="12.41369932167593"><ele>1046.2</ele><time>2026-04-25T14:00:17Z</time></trkpt><trkpt lat="46.02159568197609" lon="12.413850501220718"><ele>1047.6000000000001</ele><time>2026-04-25T14:00:18Z</time></trkpt><trkpt lat="46.02160864902655" lon="12.413985503616903"><ele>1049.0</ele><time>2026-04-25T14:00:19Z</time></trkpt><trkpt lat="46.02164617916395" lon="12.41410582955082"><ele>1045.4</ele><time>2026-04-25T14:00:20Z</time></trkpt><trkpt lat="46.02171058593991" lon="12.414213563957658"><ele>1041.8000000000002</ele><time>2026-04-25T14:00:21.001Z</time></trkpt><trkpt lat="46.02179387230574" lon="12.41430276719202"><ele>1038.1999999999998</ele><time>2026-04-25T14:00:22.001Z</time></trkpt><trkpt lat="46.02188614595859" lon="12.41437683853792"><ele>1034.6</ele><time>2026-04-25T14:00:23.001Z</time></trkpt><trkpt lat="46.02198693333745" lon="12.414438524948064"><ele>1031.0</ele><time>2026-04-25T14:00:24.001Z</time></trkpt><trkpt lat="46.02209139134542" lon="12.414488490204295"><ele>1031.0</ele><time>2026-04-25T14:00:25.001Z</time></trkpt><trkpt lat="46.02219945461639" lon="12.414514462364336"><ele>1031.0</ele><time>2026-04-25T14:00:26.001Z</time></trkpt><trkpt lat="46.02230984466603" lon="12.414506567705203"><ele>1031.0</ele><time>2026-04-25T14:00:27.001Z</time></trkpt><trkpt lat="46.02242096241145" lon="12.41447313071561"><ele>1031.0</ele><time>2026-04-25T14:00:28.001Z</time></trkpt><trkpt lat="46.0225260282853" lon="12.414410360274559"><ele>1031.0</ele><time>2026-04-25T14:00:29.001Z</time></trkpt><trkpt lat="46.0226390930231" lon="12.414355885161546"><ele>1030.0</ele><time>2026-04-25T14:00:30.001Z</time></trkpt><trkpt lat="46.02275380960872" lon="12.414310375467458"><ele>1029.0</ele><time>2026-04-25T14:00:31.001Z</time></trkpt><trkpt lat="46.022870147822374" lon="12.41425366879168"><ele>1028.0</ele><time>2026-04-25T14:00:32.001Z</time></trkpt><trkpt lat="46.022989504538124" lon="12.414199905497854"><ele>1027.0</ele><time>2026-04-25T14:00:33.001Z</time></trkpt><trkpt lat="46.02310948502526" lon="12.414151364524448"><ele>1027.0</ele><time>2026-04-25T14:00:34.001Z</time></trkpt><trkpt lat="46.02322973402025" lon="12.41410649708696"><ele>1027.0</ele><time>2026-04-25T14:00:35.001Z</time></trkpt><trkpt lat="46.02334838886531" lon="12.414061621006866"><ele>1027.0</ele><time>2026-04-25T14:00:36.001Z</time></trkpt><trkpt lat="46.023464021398546" lon="12.414025802192832"><ele>1027.0</ele><time>2026-04-25T14:00:37.001Z</time></trkpt><trkpt lat="46.02358032717433" lon="12.414002100562096"><ele>1029.5</ele><time>2026-04-25T14:00:38.001Z</time></trkpt><trkpt lat="46.023697451641404" lon="12.414009495245853"><ele>1032.0</ele><time>2026-04-25T14:00:39.001Z</time></trkpt><trkpt lat="46.023811435071686" lon="12.414046653397623"><ele>1034.5</ele><time>2026-04-25T14:00:40.001Z</time></trkpt><trkpt lat="46.023921944111855" lon="12.414083631967582"><ele>1037.0</ele><time>2026-04-25T14:00:41.001Z</time></trkpt><trkpt lat="46.024029442922945" lon="12.414144193181711"><ele>1037.0</ele><time>2026-04-25T14:00:42.001Z</time></trkpt><trkpt lat="46.02412912736794" lon="12.414226501847066"><ele>1037.0</ele><time>2026-04-25T14:00:43.001Z</time></trkpt><trkpt lat="46.02422308556571" lon="12.414314259805131"><ele>1037.0</ele><time>2026-04-25T14:00:44.001Z</time></trkpt><trkpt lat="46.02431257411971" lon="12.4144172859141"><ele>1037.0</ele><time>2026-04-25T14:00:45.001Z</time></trkpt><trkpt lat="46.02440080076356" lon="12.414512807111807"><ele>1038.75</ele><time>2026-04-25T14:00:46.001Z</time></trkpt><trkpt lat="46.02450489393977" lon="12.414563756407881"><ele>1040.5</ele><time>2026-04-25T14:00:47.001Z</time></trkpt><trkpt lat="46.0246112583245" lon="12.414592858950332"><ele>1042.25</ele><time>2026-04-25T14:00:48.001Z</time></trkpt><trkpt lat="46.024732894824034" lon="12.414589260036504"><ele>1044.0</ele><time>2026-04-25T14:00:49Z</time></trkpt><trkpt lat="46.024846505157036" lon="12.414577681083694"><ele>1044.0</ele><time>2026-04-25T14:00:50Z</time></trkpt><trkpt lat="46.024963977160176" lon="12.414574287704328"><ele>1044.0</ele><time>2026-04-25T14:00:51Z</time></trkpt><trkpt lat="46.02507765751897" lon="12.414574275892111"><ele>1044.0</ele><time>2026-04-25T14:00:52Z</time></trkpt><trkpt lat="46.025195184891764" lon="12.414578656430388"><ele>1044.0</ele><time>2026-04-25T14:00:53Z</time></trkpt><trkpt lat="46.02531518801046" lon="12.414585939577634"><ele>1041.5</ele><time>2026-04-25T14:00:54Z</time></trkpt><trkpt lat="46.02543265504023" lon="12.414592463728502"><ele>1039.0</ele><time>2026-04-25T14:00:55Z</time></trkpt><trkpt lat="46.02555693553368" lon="12.414605790004956"><ele>1036.5</ele><time>2026-04-25T14:00:56Z</time></trkpt><trkpt lat="46.02567850936821" lon="12.414619336819694"><ele>1034.0</ele><time>2026-04-25T14:00:57Z</time></trkpt><trkpt lat="46.02579633502654" lon="12.414635866894711"><ele>1035.0</ele><time>2026-04-25T14:00:58Z</time></trkpt><trkpt lat="46.02592132206165" lon="12.41464129460979"><ele>1036.0</ele><time>2026-04-25T14:00:59Z</time></trkpt><trkpt lat="46.0260436361495" lon="12.414616307783932"><ele>1037.0</ele><time>2026-04-25T14:01:00Z</time></trkpt><trkpt lat="46.0261604467694" lon="12.414554598115755"><ele>1038.0</ele><time>2026-04-25T14:01:01Z</time></trkpt><trkpt lat="46.02626898732133" lon="12.414467629992568"><ele>1038.0</ele><time>2026-04-25T14:01:02Z</time></trkpt><trkpt lat="46.026366570084974" lon="12.414368265232033"><ele>1038.0</ele><time>2026-04-25T14:01:03Z</time></trkpt><trkpt lat="46.02645823643105" lon="12.414250749881383"><ele>1038.0</ele><time>2026-04-25T14:01:04Z</time></trkpt><trkpt lat="46.02654715974418" lon="12.414128607452055"><ele>1038.0</ele><time>2026-04-25T14:01:05Z</time></trkpt><trkpt lat="46.02663648831903" lon="12.413997342160789"><ele>1038.25</ele><time>2026-04-25T14:01:06Z</time></trkpt><trkpt lat="46.026728268460715" lon="12.413858356579174"><ele>1038.5</ele><time>2026-04-25T14:01:07Z</time></trkpt><trkpt lat="46.026816159339084" lon="12.413723242110347"><ele>1038.75</ele><time>2026-04-25T14:01:08Z</time></trkpt><trkpt lat="46.026902085450644" lon="12.413607504132885"><ele>1039.0</ele><time>2026-04-25T14:01:09Z</time></trkpt><trkpt lat="46.0269937437637" lon="12.413513346824951"><ele>1039.0</ele><time>2026-04-25T14:01:10Z</time></trkpt><trkpt lat="46.02709338981136" lon="12.413443819465765"><ele>1039.0</ele><time>2026-04-25T14:01:11Z</time></trkpt><trkpt lat="46.02721046750921" lon="12.413434243696354"><ele>1039.0</ele><time>2026-04-25T14:01:12Z</time></trkpt><trkpt lat="46.02731892226999" lon="12.413374844928093"><ele>1039.0</ele><time>2026-04-25T14:01:13Z</time></trkpt><trkpt lat="46.027423891366944" lon="12.41328492364043"><ele>1046.0</ele><time>2026-04-25T14:01:14Z</time></trkpt><trkpt lat="46.02753633622741" lon="12.41321228383854"><ele>1053.0</ele><time>2026-04-25T14:01:15Z</time></trkpt><trkpt lat="46.02764799606845" lon="12.413135943501976"><ele>1060.0</ele><time>2026-04-25T14:01:16Z</time></trkpt><trkpt lat="46.027763883156965" lon="12.413057525225291"><ele>1067.0</ele><time>2026-04-25T14:01:17Z</time></trkpt><trkpt lat="46.02788899601534" lon="12.413007102202267"><ele>1067.75</ele><time>2026-04-25T14:01:18Z</time></trkpt><trkpt lat="46.02800891169911" lon="12.412933982686143"><ele>1068.5</ele><time>2026-04-25T14:01:19Z</time></trkpt><trkpt lat="46.028128156921355" lon="12.412862785781703"><ele>1069.25</ele><time>2026-04-25T14:01:20Z</time></trkpt><trkpt lat="46.02824836314744" lon="12.412786905198054"><ele>1070.0</ele><time>2026-04-25T14:01:21Z</time></trkpt><trkpt lat="46.02836738674446" lon="12.412703926893183"><ele>1070.0</ele><time>2026-04-25T14:01:22Z</time></trkpt><trkpt lat="46.02847662111074" lon="12.41260040455326"><ele>1070.0</ele><time>2026-04-25T14:01:23Z</time></trkpt><trkpt lat="46.028590588804796" lon="12.412521074808428"><ele>1070.0</ele><time>2026-04-25T14:01:24Z</time></trkpt><trkpt lat="46.02869720408262" lon="12.412435921690523"><ele>1070.0</ele><time>2026-04-25T14:01:25Z</time></trkpt><trkpt lat="46.02880924179715" lon="12.412355855025085"><ele>1070.0</ele><time>2026-04-25T14:01:26Z</time></trkpt><trkpt lat="46.028926347697464" lon="12.4122904895105"><ele>1070.0</ele><time>2026-04-25T14:01:27Z</time></trkpt><trkpt lat="46.02904394682281" lon="12.41223322978634"><ele>1070.0</ele><time>2026-04-25T14:01:28Z</time></trkpt><trkpt lat="46.0291610322552" lon="12.412157370419802"><ele>1070.0</ele><time>2026-04-25T14:01:29Z</time></trkpt><trkpt lat="46.029281972255816" lon="12.412078733079568"><ele>1072.0</ele><time>2026-04-25T14:01:30Z</time></trkpt><trkpt lat="46.02940028047649" lon="12.411985009578821"><ele>1074.0</ele><time>2026-04-25T14:01:31Z</time></trkpt><trkpt lat="46.02951999898226" lon="12.41189117057278"><ele>1076.0</ele><time>2026-04-25T14:01:32Z</time></trkpt><trkpt lat="46.02963600108669" lon="12.411801189088004"><ele>1078.0</ele><time>2026-04-25T14:01:33Z</time></trkpt><trkpt lat="46.02974647203114" lon="12.411703176250876"><ele>1078.0</ele><time>2026-04-25T14:01:34Z</time></trkpt><trkpt lat="46.02985479210966" lon="12.411614043440256"><ele>1078.0</ele><time>2026-04-25T14:01:35Z</time></trkpt><trkpt lat="46.02996801663629" lon="12.411537732005675"><ele>1078.0</ele><time>2026-04-25T14:01:36Z</time></trkpt><trkpt lat="46.030080932658095" lon="12.411483378157262"><ele>1078.0</ele><time>2026-04-25T14:01:37Z</time></trkpt><trkpt lat="46.030196780998466" lon="12.411458595386273"><ele>1081.5</ele><time>2026-04-25T14:01:38Z</time></trkpt><trkpt lat="46.030317910991" lon="12.411462674697948"><ele>1085.0</ele><time>2026-04-25T14:01:39Z</time></trkpt><trkpt lat="46.030442961204216" lon="12.411482157413335"><ele>1088.5</ele><time>2026-04-25T14:01:40Z</time></trkpt><trkpt lat="46.03057157005179" lon="12.411509296088306"><ele>1092.0</ele><time>2026-04-25T14:01:41Z</time></trkpt><trkpt lat="46.030699606078386" lon="12.411535063397896"><ele>1095.25</ele><time>2026-04-25T14:01:42Z</time></trkpt><trkpt lat="46.030830374801745" lon="12.411549101115076"><ele>1098.5</ele><time>2026-04-25T14:01:43Z</time></trkpt><trkpt lat="46.030961178460025" lon="12.411572889932467"><ele>1101.75</ele><time>2026-04-25T14:01:44Z</time></trkpt><trkpt lat="46.031096468673965" lon="12.411556802916122"><ele>1105.0</ele><time>2026-04-25T14:01:45Z</time></trkpt><trkpt lat="46.031228452475844" lon="12.411512532199517"><ele>1105.0</ele><time>2026-04-25T14:01:46Z</time></trkpt><trkpt lat="46.03135573461053" lon="12.411444571786207"><ele>1105.0</ele><time>2026-04-25T14:01:47Z</time></trkpt><trkpt lat="46.03148142012752" lon="12.411365250650233"><ele>1105.0</ele><time>2026-04-25T14:01:48Z</time></trkpt><trkpt lat="46.031600900265424" lon="12.411261757056376"><ele>1105.0</ele><time>2026-04-25T14:01:49Z</time></trkpt><trkpt lat="46.031730824749225" lon="12.411187202103617"><ele>1103.5</ele><time>2026-04-25T14:01:50Z</time></trkpt><trkpt lat="46.031855916915575" lon="12.41110972319688"><ele>1102.0</ele><time>2026-04-25T14:01:51Z</time></trkpt><trkpt lat="46.03197817771491" lon="12.411036198014589"><ele>1100.5</ele><time>2026-04-25T14:01:52Z</time></trkpt><trkpt lat="46.03210187986935" lon="12.410967894610561"><ele>1099.0</ele><time>2026-04-25T14:01:53Z</time></trkpt><trkpt lat="46.03222529413175" lon="12.41090209403645"><ele>1099.0</ele><time>2026-04-25T14:01:54Z</time></trkpt><trkpt lat="46.03234948432291" lon="12.410836718971971"><ele>1099.0</ele><time>2026-04-25T14:01:55Z</time></trkpt><trkpt lat="46.03246665492424" lon="12.410752079938405"><ele>1099.0</ele><time>2026-04-25T14:01:56Z</time></trkpt><trkpt lat="46.03257528006431" lon="12.41064148348724"><ele>1099.0</ele><time>2026-04-25T14:01:57Z</time></trkpt><trkpt lat="46.032684616043305" lon="12.410517695808625"><ele>1099.75</ele><time>2026-04-25T14:01:58Z</time></trkpt><trkpt lat="46.03278832498502" lon="12.410385189039742"><ele>1100.5</ele><time>2026-04-25T14:01:59Z</time></trkpt><trkpt lat="46.03288506341419" lon="12.410236758689875"><ele>1101.25</ele><time>2026-04-25T14:02:00Z</time></trkpt><trkpt lat="46.03298147600746" lon="12.41008708984919"><ele>1102.0</ele><time>2026-04-25T14:02:01Z</time></trkpt><trkpt lat="46.03307909132803" lon="12.409940885346794"><ele>1102.0</ele><time>2026-04-25T14:02:02Z</time></trkpt><trkpt lat="46.03317849622333" lon="12.409800309590219"><ele>1102.0</ele><time>2026-04-25T14:02:03Z</time></trkpt><trkpt lat="46.033282603607" lon="12.409671940490254"><ele>1102.0</ele><time>2026-04-25T14:02:04Z</time></trkpt><trkpt lat="46.033387710842625" lon="12.409548291425157"><ele>1102.0</ele><time>2026-04-25T14:02:05Z</time></trkpt><trkpt lat="46.0334948567353" lon="12.40942274068368"><ele>1103.5</ele><time>2026-04-25T14:02:06Z</time></trkpt><trkpt lat="46.03360066986264" lon="12.409297166055818"><ele>1105.0</ele><time>2026-04-25T14:02:07Z</time></trkpt><trkpt lat="46.03370554304059" lon="12.40917500958752"><ele>1106.5</ele><time>2026-04-25T14:02:08Z</time></trkpt><trkpt lat="46.03381663342869" lon="12.409056005082268"><ele>1108.0</ele><time>2026-04-25T14:02:09Z</time></trkpt><trkpt lat="46.033933401653535" lon="12.40894561289677"><ele>1108.0</ele><time>2026-04-25T14:02:10Z</time></trkpt><trkpt lat="46.03405105959432" lon="12.40883230540256"><ele>1108.0</ele><time>2026-04-25T14:02:11Z</time></trkpt><trkpt lat="46.034162583265534" lon="12.408705867572278"><ele>1108.0</ele><time>2026-04-25T14:02:12Z</time></trkpt><trkpt lat="46.03426458230298" lon="12.408559876290557"><ele>1108.0</ele><time>2026-04-25T14:02:13Z</time></trkpt><trkpt lat="46.034354753614664" lon="12.408389601760222"><ele>1110.3333333333333</ele><time>2026-04-25T14:02:14Z</time></trkpt><trkpt lat="46.03442706221884" lon="12.408198904551886"><ele>1112.6666666666667</ele><time>2026-04-25T14:02:15Z</time></trkpt><trkpt lat="46.03449785699739" lon="12.40800662996162"><ele>1115.0</ele><time>2026-04-25T14:02:16Z</time></trkpt><trkpt lat="46.034557822538964" lon="12.407805526992165"><ele>1116.3333333333335</ele><time>2026-04-25T14:02:17Z</time></trkpt><trkpt lat="46.03462108697694" lon="12.407598290926144"><ele>1117.6666666666667</ele><time>2026-04-25T14:02:18Z</time></trkpt><trkpt lat="46.03467743194256" lon="12.407398270142192"><ele>1119.0</ele><time>2026-04-25T14:02:19Z</time></trkpt><trkpt lat="46.0347354740071" lon="12.40719598549773"><ele>1119.75</ele><time>2026-04-25T14:02:20Z</time></trkpt><trkpt lat="46.03478928020905" lon="12.407009115836725"><ele>1120.5</ele><time>2026-04-25T14:02:21Z</time></trkpt><trkpt lat="46.03483071076335" lon="12.40684266117523"><ele>1121.25</ele><time>2026-04-25T14:02:22Z</time></trkpt><trkpt lat="46.03485736651469" lon="12.40670222799062"><ele>1122.0</ele><time>2026-04-25T14:02:23Z</time></trkpt><trkpt lat="46.03488530491754" lon="12.406566711393722"><ele>1122.0</ele><time>2026-04-25T14:02:24Z</time></trkpt><trkpt lat="46.03491644166267" lon="12.406442469511651"><ele>1122.0</ele><time>2026-04-25T14:02:25Z</time></trkpt><trkpt lat="46.03494106889386" lon="12.406310214942394"><ele>1122.0</ele><time>2026-04-25T14:02:26Z</time></trkpt><trkpt lat="46.034960997047264" lon="12.406187714707219"><ele>1122.0</ele><time>2026-04-25T14:02:27.001Z</time></trkpt><trkpt lat="46.03498138394188" lon="12.4060660181643"><ele>1122.0</ele><time>2026-04-25T14:02:28.001Z</time></trkpt><trkpt lat="46.03500500436669" lon="12.405951589381246"><ele>1122.0</ele><time>2026-04-25T14:02:29.001Z</time></trkpt><trkpt lat="46.03504684750024" lon="12.405853139065949"><ele>1123.6</ele><time>2026-04-25T14:02:30.001Z</time></trkpt><trkpt lat="46.03510367997224" lon="12.405746900317675"><ele>1125.2</ele><time>2026-04-25T14:02:31.001Z</time></trkpt><trkpt lat="46.0351750591383" lon="12.40565587063752"><ele>1126.8</ele><time>2026-04-25T14:02:32.001Z</time></trkpt><trkpt lat="46.035260317905795" lon="12.405587106507566"><ele>1128.4</ele><time>2026-04-25T14:02:33.001Z</time></trkpt><trkpt lat="46.035355448018045" lon="12.40553919990912"><ele>1130.0</ele><time>2026-04-25T14:02:34.001Z</time></trkpt><trkpt lat="46.03545365173979" lon="12.405508015812856"><ele>1130.2</ele><time>2026-04-25T14:02:35.001Z</time></trkpt><trkpt lat="46.03555809679099" lon="12.405490798679283"><ele>1130.4</ele><time>2026-04-25T14:02:36.001Z</time></trkpt><trkpt lat="46.03566142898223" lon="12.405483416670316"><ele>1130.6</ele><time>2026-04-25T14:02:37.001Z</time></trkpt><trkpt lat="46.0357660204455" lon="12.405477487513668"><ele>1130.8</ele><time>2026-04-25T14:02:38.001Z</time></trkpt><trkpt lat="46.03587508483531" lon="12.40546088163644"><ele>1131.0</ele><time>2026-04-25T14:02:39.001Z</time></trkpt><trkpt lat="46.03598555262465" lon="12.405433320753621"><ele>1128.0</ele><time>2026-04-25T14:02:40.001Z</time></trkpt><trkpt lat="46.036094047696885" lon="12.405372298437078"><ele>1125.0</ele><time>2026-04-25T14:02:41.001Z</time></trkpt><trkpt lat="46.03619674752115" lon="12.405266916572304"><ele>1122.0</ele><time>2026-04-25T14:02:42.001Z</time></trkpt><trkpt lat="46.03628874372884" lon="12.405130574841538"><ele>1119.0</ele><time>2026-04-25T14:02:43.001Z</time></trkpt><trkpt lat="46.03637386614232" lon="12.404993575239981"><ele>1119.0</ele><time>2026-04-25T14:02:44.001Z</time></trkpt><trkpt lat="46.036455437301136" lon="12.40486771079744"><ele>1119.0</ele><time>2026-04-25T14:02:45.001Z</time></trkpt><trkpt lat="46.03654272526529" lon="12.404755674684576"><ele>1119.0</ele><time>2026-04-25T14:02:46.001Z</time></trkpt><trkpt lat="46.03663412666136" lon="12.404654952611834"><ele>1119.0</ele><time>2026-04-25T14:02:47.001Z</time></trkpt><trkpt lat="46.036728048160555" lon="12.404560406010038"><ele>1118.5</ele><time>2026-04-25T14:02:48.001Z</time></trkpt><trkpt lat="46.03682230986554" lon="12.404466555661354"><ele>1118.0</ele><time>2026-04-25T14:02:49Z</time></trkpt><trkpt lat="46.036908708203676" lon="12.404365051992713"><ele>1117.5</ele><time>2026-04-25T14:02:50Z</time></trkpt><trkpt lat="46.03698664096929" lon="12.404255035635458"><ele>1117.0</ele><time>2026-04-25T14:02:51Z</time></trkpt><trkpt lat="46.037069589346395" lon="12.404139866579833"><ele>1117.0</ele><time>2026-04-25T14:02:52Z</time></trkpt><trkpt lat="46.03715558055207" lon="12.404029510432313"><ele>1117.0</ele><time>2026-04-25T14:02:53Z</time></trkpt><trkpt lat="46.03725091026282" lon="12.403934660397349"><ele>1117.0</ele><time>2026-04-25T14:02:54Z</time></trkpt><trkpt lat="46.03735254905144" lon="12.403846936615269"><ele>1117.0</ele><time>2026-04-25T14:02:55Z</time></trkpt><trkpt lat="46.0374532380381" lon="12.40376290892865"><ele>1117.25</ele><time>2026-04-25T14:02:56Z</time></trkpt><trkpt lat="46.037550588004116" lon="12.403672821639418"><ele>1117.5</ele><time>2026-04-25T14:02:57Z</time></trkpt><trkpt lat="46.03764772891913" lon="12.40358089382998"><ele>1117.75</ele><time>2026-04-25T14:02:58Z</time></trkpt><trkpt lat="46.03774434859567" lon="12.403485376378947"><ele>1118.0</ele><time>2026-04-25T14:02:59Z</time></trkpt><trkpt lat="46.03783817925432" lon="12.403384352418529"><ele>1118.0</ele><time>2026-04-25T14:03:00Z</time></trkpt><trkpt lat="46.03792770692024" lon="12.403288526014496"><ele>1118.0</ele><time>2026-04-25T14:03:01Z</time></trkpt><trkpt lat="46.03801486283773" lon="12.403189394695396"><ele>1118.0</ele><time>2026-04-25T14:03:02Z</time></trkpt><trkpt lat="46.03810001633419" lon="12.403086853296838"><ele>1118.0</ele><time>2026-04-25T14:03:03Z</time></trkpt><trkpt lat="46.03818059216724" lon="12.402977458414103"><ele>1118.0</ele><time>2026-04-25T14:03:04Z</time></trkpt><trkpt lat="46.0382565634748" lon="12.40286336207053"><ele>1117.25</ele><time>2026-04-25T14:03:05Z</time></trkpt><trkpt lat="46.03832796025813" lon="12.40274234315721"><ele>1116.5</ele><time>2026-04-25T14:03:06Z</time></trkpt><trkpt lat="46.03839967350483" lon="12.402616486773772"><ele>1115.75</ele><time>2026-04-25T14:03:07Z</time></trkpt><trkpt lat="46.03847129764157" lon="12.402485771792556"><ele>1115.0</ele><time>2026-04-25T14:03:08Z</time></trkpt><trkpt lat="46.038543982750575" lon="12.40234887823792"><ele>1115.0</ele><time>2026-04-25T14:03:09Z</time></trkpt><trkpt lat="46.038614159277735" lon="12.402214053429358"><ele>1115.0</ele><time>2026-04-25T14:03:10Z</time></trkpt><trkpt lat="46.03868341919558" lon="12.40207091245235"><ele>1115.0</ele><time>2026-04-25T14:03:11Z</time></trkpt><trkpt lat="46.03874851968384" lon="12.401919322351304"><ele>1115.0</ele><time>2026-04-25T14:03:12Z</time></trkpt><trkpt lat="46.03881121942589" lon="12.401760363080719"><ele>1115.75</ele><time>2026-04-25T14:03:13Z</time></trkpt><trkpt lat="46.038869449878945" lon="12.401596476812088"><ele>1116.5</ele><time>2026-04-25T14:03:14Z</time></trkpt><trkpt lat="46.03892950464553" lon="12.401428427475"><ele>1117.25</ele><time>2026-04-25T14:03:15Z</time></trkpt><trkpt lat="46.03899783070255" lon="12.401274174303836"><ele>1118.0</ele><time>2026-04-25T14:03:16Z</time></trkpt><trkpt lat="46.03906091014962" lon="12.401124191331197"><ele>1117.8</ele><time>2026-04-25T14:03:17Z</time></trkpt><trkpt lat="46.03911545167635" lon="12.400981403249126"><ele>1117.6</ele><time>2026-04-25T14:03:18Z</time></trkpt><trkpt lat="46.039157575710014" lon="12.400846470698538"><ele>1117.4</ele><time>2026-04-25T14:03:19Z</time></trkpt><trkpt lat="46.039172716662016" lon="12.400705427864628"><ele>1117.2</ele><time>2026-04-25T14:03:20Z</time></trkpt><trkpt lat="46.039158222316686" lon="12.400561176249148"><ele>1117.0</ele><time>2026-04-25T14:03:21Z</time></trkpt><trkpt lat="46.039136588967814" lon="12.400411949022354"><ele>1120.2</ele><time>2026-04-25T14:03:22Z</time></trkpt><trkpt lat="46.03910456285096" lon="12.40026509455481"><ele>1123.4</ele><time>2026-04-25T14:03:23Z</time></trkpt><trkpt lat="46.039071196549756" lon="12.400113459241691"><ele>1126.6</ele><time>2026-04-25T14:03:24Z</time></trkpt><trkpt lat="46.03904417859464" lon="12.399958130989203"><ele>1129.8</ele><time>2026-04-25T14:03:25Z</time></trkpt><trkpt lat="46.03902842791893" lon="12.399789995895226"><ele>1133.0</ele><time>2026-04-25T14:03:26Z</time></trkpt><trkpt lat="46.03902842632353" lon="12.399618559219865"><ele>1133.5</ele><time>2026-04-25T14:03:27Z</time></trkpt><trkpt lat="46.03905029036431" lon="12.399441658238024"><ele>1134.0</ele><time>2026-04-25T14:03:28Z</time></trkpt><trkpt lat="46.03908743475776" lon="12.399273658539926"><ele>1134.5</ele><time>2026-04-25T14:03:29Z</time></trkpt><trkpt lat="46.03913062672854" lon="12.399111565439352"><ele>1135.0</ele><time>2026-04-25T14:03:30Z</time></trkpt><trkpt lat="46.039180864884855" lon="12.398956529576559"><ele>1130.75</ele><time>2026-04-25T14:03:31Z</time></trkpt><trkpt lat="46.039226687016715" lon="12.398797636950848"><ele>1126.5</ele><time>2026-04-25T14:03:32Z</time></trkpt><trkpt lat="46.03927295045449" lon="12.398634336651023"><ele>1122.25</ele><time>2026-04-25T14:03:33Z</time></trkpt><trkpt lat="46.03931594291459" lon="12.398477689965695"><ele>1118.0</ele><time>2026-04-25T14:03:34Z</time></trkpt><trkpt lat="46.039345627577895" lon="12.398323364207696"><ele>1118.0</ele><time>2026-04-25T14:03:35Z</time></trkpt><trkpt lat="46.03935211250739" lon="12.398168017439698"><ele>1118.0</ele><time>2026-04-25T14:03:36Z</time></trkpt><trkpt lat="46.03934239104302" lon="12.39801815923856"><ele>1118.0</ele><time>2026-04-25T14:03:37Z</time></trkpt><trkpt lat="46.03933023439042" lon="12.3978656321785"><ele>1118.0</ele><time>2026-04-25T14:03:38Z</time></trkpt><trkpt lat="46.039322974721465" lon="12.397710018953479"><ele>1118.0</ele><time>2026-04-25T14:03:39Z</time></trkpt><trkpt lat="46.03932489756007" lon="12.397551743681536"><ele>1118.6</ele><time>2026-04-25T14:03:40Z</time></trkpt><trkpt lat="46.03933147574158" lon="12.397395875038697"><ele>1119.1999999999998</ele><time>2026-04-25T14:03:41Z</time></trkpt><trkpt lat="46.039343487224365" lon="12.39723915837018"><ele>1119.8</ele><time>2026-04-25T14:03:42Z</time></trkpt><trkpt lat="46.039359732888684" lon="12.397082548457156"><ele>1120.3999999999999</ele><time>2026-04-25T14:03:43Z</time></trkpt><trkpt lat="46.03937663087356" lon="12.396925977081686"><ele>1121.0</ele><time>2026-04-25T14:03:44Z</time></trkpt><trkpt lat="46.039391976774496" lon="12.396770987689369"><ele>1119.8</ele><time>2026-04-25T14:03:45Z</time></trkpt><trkpt lat="46.03940706128358" lon="12.396624821978738"><ele>1118.6</ele><time>2026-04-25T14:03:46Z</time></trkpt><trkpt lat="46.03942684527723" lon="12.396485941070734"><ele>1117.4</ele><time>2026-04-25T14:03:47Z</time></trkpt><trkpt lat="46.03945270276101" lon="12.396351792012858"><ele>1116.2</ele><time>2026-04-25T14:03:48Z</time></trkpt><trkpt lat="46.039487590215366" lon="12.396227865984574"><ele>1115.0</ele><time>2026-04-25T14:03:49Z</time></trkpt><trkpt lat="46.03952885041448" lon="12.396120472623238"><ele>1114.8333333333335</ele><time>2026-04-25T14:03:50Z</time></trkpt><trkpt lat="46.03958479085953" lon="12.396034569029197"><ele>1114.6666666666667</ele><time>2026-04-25T14:03:51Z</time></trkpt><trkpt lat="46.039652189277646" lon="12.395982200668268"><ele>1114.5</ele><time>2026-04-25T14:03:52Z</time></trkpt><trkpt lat="46.03972885161144" lon="12.395954942839921"><ele>1114.3333333333333</ele><time>2026-04-25T14:03:53Z</time></trkpt><trkpt lat="46.03981919234582" lon="12.39597026284841"><ele>1114.1666666666665</ele><time>2026-04-25T14:03:54Z</time></trkpt><trkpt lat="46.0399186288525" lon="12.3960216108772"><ele>1114.0</ele><time>2026-04-25T14:03:55Z</time></trkpt><trkpt lat="46.04001732789163" lon="12.396101875218063"><ele>1115.5</ele><time>2026-04-25T14:03:56Z</time></trkpt><trkpt lat="46.04012046620996" lon="12.396198499611318"><ele>1117.0</ele><time>2026-04-25T14:03:57Z</time></trkpt><trkpt lat="46.04023046353149" lon="12.396299367953526"><ele>1118.5</ele><time>2026-04-25T14:03:58Z</time></trkpt><trkpt lat="46.040351205389086" lon="12.396401338672183"><ele>1120.0</ele><time>2026-04-25T14:03:59Z</time></trkpt><trkpt lat="46.04047665449461" lon="12.396487163816655"><ele>1117.0</ele><time>2026-04-25T14:04:00Z</time></trkpt><trkpt lat="46.040592075109636" lon="12.39657646883873"><ele>1114.0</ele><time>2026-04-25T14:04:01Z</time></trkpt><trkpt lat="46.04070256556282" lon="12.39666599913109"><ele>1111.0</ele><time>2026-04-25T14:04:02Z</time></trkpt><trkpt lat="46.04081130468458" lon="12.396752667786414"><ele>1108.0</ele><time>2026-04-25T14:04:03Z</time></trkpt><trkpt lat="46.04091367412063" lon="12.39684631014467"><ele>1108.0</ele><time>2026-04-25T14:04:04Z</time></trkpt><trkpt lat="46.04101380987744" lon="12.396956283285574"><ele>1108.0</ele><time>2026-04-25T14:04:05Z</time></trkpt><trkpt lat="46.04110284065052" lon="12.397085423155868"><ele>1108.0</ele><time>2026-04-25T14:04:06Z</time></trkpt><trkpt lat="46.041183058431436" lon="12.397228307643875"><ele>1108.0</ele><time>2026-04-25T14:04:07Z</time></trkpt><trkpt lat="46.04125685738409" lon="12.397380781958203"><ele>1103.25</ele><time>2026-04-25T14:04:08Z</time></trkpt><trkpt lat="46.041332323282404" lon="12.397532080632764"><ele>1098.5</ele><time>2026-04-25T14:04:09Z</time></trkpt><trkpt lat="46.041410783078135" lon="12.397682556531654"><ele>1093.75</ele><time>2026-04-25T14:04:10Z</time></trkpt><trkpt lat="46.041497449463286" lon="12.397829251876477"><ele>1089.0</ele><time>2026-04-25T14:04:11Z</time></trkpt><trkpt lat="46.041586572518106" lon="12.397977831819707"><ele>1090.75</ele><time>2026-04-25T14:04:12Z</time></trkpt><trkpt lat="46.041673540494926" lon="12.39812906919077"><ele>1092.5</ele><time>2026-04-25T14:04:13Z</time></trkpt><trkpt lat="46.04175980713434" lon="12.398282460457418"><ele>1094.25</ele><time>2026-04-25T14:04:14Z</time></trkpt><trkpt lat="46.0418488027648" lon="12.398438478556466"><ele>1096.0</ele><time>2026-04-25T14:04:15Z</time></trkpt><trkpt lat="46.04194469012582" lon="12.398582745002471"><ele>1096.0</ele><time>2026-04-25T14:04:16Z</time></trkpt><trkpt lat="46.04205413183249" lon="12.398709607660564"><ele>1096.0</ele><time>2026-04-25T14:04:17Z</time></trkpt><trkpt lat="46.04216385099384" lon="12.398831212517116"><ele>1096.0</ele><time>2026-04-25T14:04:18Z</time></trkpt><trkpt lat="46.042261243988136" lon="12.398959110373134"><ele>1096.0</ele><time>2026-04-25T14:04:19Z</time></trkpt><trkpt lat="46.04235553140026" lon="12.399089757866953"><ele>1096.0</ele><time>2026-04-25T14:04:20Z</time></trkpt><trkpt lat="46.0424487262213" lon="12.399226473570197"><ele>1096.0</ele><time>2026-04-25T14:04:21Z</time></trkpt><trkpt lat="46.042548609077194" lon="12.39935535280903"><ele>1096.0</ele><time>2026-04-25T14:04:22Z</time></trkpt><trkpt lat="46.04265272416085" lon="12.399478355902172"><ele>1096.0</ele><time>2026-04-25T14:04:23Z</time></trkpt><trkpt lat="46.042755786045554" lon="12.39959527129717"><ele>1090.75</ele><time>2026-04-25T14:04:24Z</time></trkpt><trkpt lat="46.04286176363092" lon="12.399715001452648"><ele>1085.5</ele><time>2026-04-25T14:04:25Z</time></trkpt><trkpt lat="46.04296504033146" lon="12.39984056330354"><ele>1080.25</ele><time>2026-04-25T14:04:26Z</time></trkpt><trkpt lat="46.0430709485751" lon="12.39996441549356"><ele>1075.0</ele><time>2026-04-25T14:04:27Z</time></trkpt><trkpt lat="46.0431782248836" lon="12.400087981394966"><ele>1075.0</ele><time>2026-04-25T14:04:28Z</time></trkpt><trkpt lat="46.04328217685707" lon="12.400209069481733"><ele>1075.0</ele><time>2026-04-25T14:04:29Z</time></trkpt><trkpt lat="46.04338782984658" lon="12.400329998948418"><ele>1075.0</ele><time>2026-04-25T14:04:30Z</time></trkpt><trkpt lat="46.043495021779954" lon="12.4004536628615"><ele>1075.0</ele><time>2026-04-25T14:04:31Z</time></trkpt><trkpt lat="46.04360918453774" lon="12.400562929649164"><ele>1074.25</ele><time>2026-04-25T14:04:32Z</time></trkpt><trkpt lat="46.043724309217936" lon="12.400669327095324"><ele>1073.5</ele><time>2026-04-25T14:04:33.001Z</time></trkpt><trkpt lat="46.04384277367206" lon="12.40076707763194"><ele>1072.75</ele><time>2026-04-25T14:04:34.001Z</time></trkpt><trkpt lat="46.043965789921415" lon="12.400860629069124"><ele>1072.0</ele><time>2026-04-25T14:04:35.001Z</time></trkpt><trkpt lat="46.04408863402914" lon="12.400955407651104"><ele>1071.5</ele><time>2026-04-25T14:04:36.001Z</time></trkpt><trkpt lat="46.04420396668599" lon="12.40105542633483"><ele>1071.0</ele><time>2026-04-25T14:04:37.001Z</time></trkpt><trkpt lat="46.04431874429108" lon="12.401153355725215"><ele>1070.5</ele><time>2026-04-25T14:04:38.001Z</time></trkpt><trkpt lat="46.04443428737731" lon="12.401250906781375"><ele>1070.0</ele><time>2026-04-25T14:04:39.001Z</time></trkpt><trkpt lat="46.04455051088692" lon="12.401342303984205"><ele>1070.0</ele><time>2026-04-25T14:04:40.001Z</time></trkpt><trkpt lat="46.044668184492615" lon="12.401421906504776"><ele>1070.0</ele><time>2026-04-25T14:04:41.001Z</time></trkpt><trkpt lat="46.044789590945925" lon="12.401491362014296"><ele>1070.0</ele><time>2026-04-25T14:04:42.001Z</time></trkpt><trkpt lat="46.044908963738" lon="12.401560594890226"><ele>1070.0</ele><time>2026-04-25T14:04:43.001Z</time></trkpt><trkpt lat="46.04502506816542" lon="12.401640773502967"><ele>1073.75</ele><time>2026-04-25T14:04:44.001Z</time></trkpt><trkpt lat="46.04514111976615" lon="12.401725193623072"><ele>1077.5</ele><time>2026-04-25T14:04:45.001Z</time></trkpt><trkpt lat="46.045263192056176" lon="12.401790449454646"><ele>1081.25</ele><time>2026-04-25T14:04:46Z</time></trkpt><trkpt lat="46.04538683931155" lon="12.401848015489888"><ele>1085.0</ele><time>2026-04-25T14:04:47Z</time></trkpt><trkpt lat="46.0455110247869" lon="12.40189750021655"><ele>1085.0</ele><time>2026-04-25T14:04:48Z</time></trkpt><trkpt lat="46.04564370437324" lon="12.40195491441355"><ele>1085.0</ele><time>2026-04-25T14:04:49Z</time></trkpt><trkpt lat="46.045773642701604" lon="12.402012325804954"><ele>1085.0</ele><time>2026-04-25T14:04:50Z</time></trkpt><trkpt lat="46.0459048631565" lon="12.402045186960226"><ele>1085.0</ele><time>2026-04-25T14:04:51Z</time></trkpt><trkpt lat="46.04603876666483" lon="12.40207280467983"><ele>1089.75</ele><time>2026-04-25T14:04:52Z</time></trkpt><trkpt lat="46.04617094099345" lon="12.402092384691146"><ele>1094.5</ele><time>2026-04-25T14:04:53Z</time></trkpt><trkpt lat="46.04630570934978" lon="12.402102995080137"><ele>1099.25</ele><time>2026-04-25T14:04:54Z</time></trkpt><trkpt lat="46.04644374354291" lon="12.402105291983645"><ele>1104.0</ele><time>2026-04-25T14:04:55Z</time></trkpt><trkpt lat="46.04658090140909" lon="12.402097488067751"><ele>1105.0</ele><time>2026-04-25T14:04:56Z</time></trkpt><trkpt lat="46.04671400902" lon="12.402085376870545"><ele>1106.0</ele><time>2026-04-25T14:04:57Z</time></trkpt><trkpt lat="46.04684372737398" lon="12.402076742128237"><ele>1107.0</ele><time>2026-04-25T14:04:58Z</time></trkpt><trkpt lat="46.04696981860337" lon="12.402078058785458"><ele>1108.0</ele><time>2026-04-25T14:04:59Z</time></trkpt><trkpt lat="46.04709382985558" lon="12.402074346033"><ele>1108.0</ele><time>2026-04-25T14:05:00Z</time></trkpt><trkpt lat="46.047212710385445" lon="12.40206941492017"><ele>1108.0</ele><time>2026-04-25T14:05:01Z</time></trkpt><trkpt lat="46.047326518258174" lon="12.402077447215724"><ele>1108.0</ele><time>2026-04-25T14:05:02Z</time></trkpt><trkpt lat="46.04744011711262" lon="12.402077734897171"><ele>1108.0</ele><time>2026-04-25T14:05:03Z</time></trkpt><trkpt lat="46.04754784365065" lon="12.40204702529862"><ele>1104.2</ele><time>2026-04-25T14:05:04Z</time></trkpt><trkpt lat="46.04765108272661" lon="12.401978106531523"><ele>1100.4</ele><time>2026-04-25T14:05:05Z</time></trkpt><trkpt lat="46.04774473833389" lon="12.401894959461789"><ele>1096.6000000000001</ele><time>2026-04-25T14:05:06Z</time></trkpt><trkpt lat="46.047842624811125" lon="12.401813331263455"><ele>1092.8</ele><time>2026-04-25T14:05:07Z</time></trkpt><trkpt lat="46.047924419144884" lon="12.401710314079818"><ele>1089.0</ele><time>2026-04-25T14:05:08Z</time></trkpt><trkpt lat="46.04799660427479" lon="12.401600303097643"><ele>1089.0</ele><time>2026-04-25T14:05:09Z</time></trkpt><trkpt lat="46.04804684748427" lon="12.401474341829083"><ele>1089.0</ele><time>2026-04-25T14:05:10Z</time></trkpt><trkpt lat="46.048098444151286" lon="12.401355672388242"><ele>1089.0</ele><time>2026-04-25T14:05:11Z</time></trkpt><trkpt lat="46.048130542471924" lon="12.401215926283292"><ele>1089.0</ele><time>2026-04-25T14:05:12Z</time></trkpt><trkpt lat="46.04812956941337" lon="12.401062710241318"><ele>1089.0</ele><time>2026-04-25T14:05:13Z</time></trkpt><trkpt lat="46.04812532324567" lon="12.40090671261265"><ele>1093.0</ele><time>2026-04-25T14:05:14Z</time></trkpt><trkpt lat="46.048110768305676" lon="12.400746410170733"><ele>1097.0</ele><time>2026-04-25T14:05:15Z</time></trkpt><trkpt lat="46.04810823453901" lon="12.40057943304578"><ele>1101.0</ele><time>2026-04-25T14:05:16Z</time></trkpt><trkpt lat="46.04810284540798" lon="12.400408599594531"><ele>1105.0</ele><time>2026-04-25T14:05:17Z</time></trkpt><trkpt lat="46.048099348634146" lon="12.400232608254326"><ele>1105.0</ele><time>2026-04-25T14:05:18Z</time></trkpt><trkpt lat="46.04810240688739" lon="12.400057345855817"><ele>1105.0</ele><time>2026-04-25T14:05:19Z</time></trkpt><trkpt lat="46.04811678555663" lon="12.39988264155466"><ele>1105.0</ele><time>2026-04-25T14:05:20Z</time></trkpt><trkpt lat="46.048139748576965" lon="12.39970787282135"><ele>1105.0</ele><time>2026-04-25T14:05:21Z</time></trkpt><trkpt lat="46.04816546948932" lon="12.39953212911096"><ele>1105.0</ele><time>2026-04-25T14:05:22Z</time></trkpt><trkpt lat="46.04819409019751" lon="12.399358557863842"><ele>1105.0</ele><time>2026-04-25T14:05:23Z</time></trkpt><trkpt lat="46.048211783545455" lon="12.399177856426663"><ele>1105.0</ele><time>2026-04-25T14:05:24Z</time></trkpt><trkpt lat="46.048225281951055" lon="12.398995358600342"><ele>1105.0</ele><time>2026-04-25T14:05:25Z</time></trkpt><trkpt lat="46.0482371727277" lon="12.398821469618895"><ele>1104.2</ele><time>2026-04-25T14:05:26Z</time></trkpt><trkpt lat="46.04824959136603" lon="12.398657094870963"><ele>1103.4</ele><time>2026-04-25T14:05:27Z</time></trkpt><trkpt lat="46.04825814796263" lon="12.398500734072554"><ele>1102.6</ele><time>2026-04-25T14:05:28Z</time></trkpt><trkpt lat="46.04826292937942" lon="12.39835575346501"><ele>1101.8</ele><time>2026-04-25T14:05:29Z</time></trkpt><trkpt lat="46.048263840946326" lon="12.398216917885923"><ele>1101.0</ele><time>2026-04-25T14:05:30Z</time></trkpt><trkpt lat="46.04828411760539" lon="12.398082623488172"><ele>1101.2</ele><time>2026-04-25T14:05:31Z</time></trkpt><trkpt lat="46.04828657715144" lon="12.397953454293855"><ele>1101.3999999999999</ele><time>2026-04-25T14:05:32Z</time></trkpt><trkpt lat="46.04834754857789" lon="12.39785273193972"><ele>1101.6</ele><time>2026-04-25T14:05:33Z</time></trkpt><trkpt lat="46.048404973672845" lon="12.39775767509023"><ele>1101.8</ele><time>2026-04-25T14:05:34Z</time></trkpt><trkpt lat="46.04849022252823" lon="12.397711502272346"><ele>1102.0</ele><time>2026-04-25T14:05:35Z</time></trkpt><trkpt lat="46.048584629630895" lon="12.397721973094589"><ele>1096.75</ele><time>2026-04-25T14:05:36Z</time></trkpt><trkpt lat="46.04868312243775" lon="12.397788483563703"><ele>1091.5</ele><time>2026-04-25T14:05:37Z</time></trkpt><trkpt lat="46.04878540344241" lon="12.397886238175472"><ele>1086.25</ele><time>2026-04-25T14:05:38Z</time></trkpt><trkpt lat="46.04889309621724" lon="12.397998777056005"><ele>1081.0</ele><time>2026-04-25T14:05:39Z</time></trkpt><trkpt lat="46.04901925624567" lon="12.398114350002308"><ele>1077.3333333333333</ele><time>2026-04-25T14:05:40Z</time></trkpt><trkpt lat="46.04915211761596" lon="12.398235688759247"><ele>1073.6666666666667</ele><time>2026-04-25T14:05:41Z</time></trkpt><trkpt lat="46.04928631618956" lon="12.39836140071709"><ele>1070.0</ele><time>2026-04-25T14:05:42Z</time></trkpt><trkpt lat="46.04942554768636" lon="12.398488304565598"><ele>1070.0</ele><time>2026-04-25T14:05:43Z</time></trkpt><trkpt lat="46.049552679911535" lon="12.398607509051178"><ele>1070.0</ele><time>2026-04-25T14:05:44Z</time></trkpt><trkpt lat="46.04967048835594" lon="12.398710490085648"><ele>1070.0</ele><time>2026-04-25T14:05:45Z</time></trkpt><trkpt lat="46.04977436366089" lon="12.398806346988057"><ele>1070.0</ele><time>2026-04-25T14:05:46Z</time></trkpt><trkpt lat="46.049863326840004" lon="12.398926601556065"><ele>1068.0</ele><time>2026-04-25T14:05:47Z</time></trkpt><trkpt lat="46.049953202383236" lon="12.399044813439483"><ele>1066.0</ele><time>2026-04-25T14:05:48Z</time></trkpt><trkpt lat="46.050033551697084" lon="12.399152640232808"><ele>1064.0</ele><time>2026-04-25T14:05:49Z</time></trkpt><trkpt lat="46.0502354275203" lon="12.399349737303462"><ele>1064.0</ele><time>2026-04-25T14:05:50Z</time></trkpt><trkpt lat="46.05036944163087" lon="12.399459774232332"><ele>1064.0</ele><time>2026-04-25T14:05:51Z</time></trkpt><trkpt lat="46.05051403229632" lon="12.399551579880276"><ele>1064.0</ele><time>2026-04-25T14:05:52Z</time></trkpt><trkpt lat="46.05066001922524" lon="12.399634109844811"><ele>1061.0</ele><time>2026-04-25T14:05:53Z</time></trkpt><trkpt lat="46.050798726976666" lon="12.399716231372917"><ele>1058.0</ele><time>2026-04-25T14:05:54Z</time></trkpt><trkpt lat="46.05093127092729" lon="12.399801441488249"><ele>1055.0</ele><time>2026-04-25T14:05:55Z</time></trkpt><trkpt lat="46.05106756749375" lon="12.399866189564717"><ele>1052.0</ele><time>2026-04-25T14:05:56Z</time></trkpt><trkpt lat="46.05118673826283" lon="12.399949652838949"><ele>1052.0</ele><time>2026-04-25T14:05:57Z</time></trkpt><trkpt lat="46.051303624589465" lon="12.400041324496527"><ele>1052.0</ele><time>2026-04-25T14:05:58Z</time></trkpt><trkpt lat="46.05140717877816" lon="12.400174405494127"><ele>1052.0</ele><time>2026-04-25T14:05:59Z</time></trkpt><trkpt lat="46.05150546662069" lon="12.400287438034713"><ele>1052.0</ele><time>2026-04-25T14:06:00Z</time></trkpt><trkpt lat="46.05159707325065" lon="12.40039529575186"><ele>1049.0</ele><time>2026-04-25T14:06:01Z</time></trkpt><trkpt lat="46.051695438077246" lon="12.400495137116824"><ele>1046.0</ele><time>2026-04-25T14:06:02Z</time></trkpt><trkpt lat="46.051794725837105" lon="12.400566730353258"><ele>1043.0</ele><time>2026-04-25T14:06:03Z</time></trkpt><trkpt lat="46.05190348435458" lon="12.400637181588014"><ele>1040.0</ele><time>2026-04-25T14:06:04Z</time></trkpt><trkpt lat="46.052024108763604" lon="12.40067866166981"><ele>1040.0</ele><time>2026-04-25T14:06:05Z</time></trkpt><trkpt lat="46.052143857345" lon="12.40071191598609"><ele>1040.0</ele><time>2026-04-25T14:06:06Z</time></trkpt><trkpt lat="46.052263577454795" lon="12.40076167679991"><ele>1040.0</ele><time>2026-04-25T14:06:06.999Z</time></trkpt><trkpt lat="46.05238984835623" lon="12.400769602075325"><ele>1040.0</ele><time>2026-04-25T14:06:07.999Z</time></trkpt><trkpt lat="46.0525277049238" lon="12.400779757971113"><ele>1044.6666666666667</ele><time>2026-04-25T14:06:08.999Z</time></trkpt><trkpt lat="46.05267689305826" lon="12.400808374088538"><ele>1049.3333333333333</ele><time>2026-04-25T14:06:09.999Z</time></trkpt><trkpt lat="46.05283040951471" lon="12.4008100875392"><ele>1054.0</ele><time>2026-04-25T14:06:10.999Z</time></trkpt><trkpt lat="46.05299248239189" lon="12.40080795648812"><ele>1054.0</ele><time>2026-04-25T14:06:11.999Z</time></trkpt><trkpt lat="46.05317134584063" lon="12.400814413828998"><ele>1054.0</ele><time>2026-04-25T14:06:12.999Z</time></trkpt><trkpt lat="46.05334314652511" lon="12.400824511304043"><ele>1054.0</ele><time>2026-04-25T14:06:13.999Z</time></trkpt><trkpt lat="46.05350498298021" lon="12.400836930313725"><ele>1054.0</ele><time>2026-04-25T14:06:14.999Z</time></trkpt><trkpt lat="46.053664958658544" lon="12.400834149207881"><ele>1054.0</ele><time>2026-04-25T14:06:15.999Z</time></trkpt><trkpt lat="46.053814365068476" lon="12.400864157759601"><ele>1054.0</ele><time>2026-04-25T14:06:16.999Z</time></trkpt><trkpt lat="46.05396577074415" lon="12.40088148932172"><ele>1054.0</ele><time>2026-04-25T14:06:17.999Z</time></trkpt><trkpt lat="46.05411623221611" lon="12.400896821380352"><ele>1054.0</ele><time>2026-04-25T14:06:18.999Z</time></trkpt><trkpt lat="46.05425383594475" lon="12.400908240174429"><ele>1054.0</ele><time>2026-04-25T14:06:19.999Z</time></trkpt><trkpt lat="46.05441000696324" lon="12.400916082145764"><ele>1054.0</ele><time>2026-04-25T14:06:20.999Z</time></trkpt><trkpt lat="46.05456423325159" lon="12.4009027684572"><ele>1053.0</ele><time>2026-04-25T14:06:21.999Z</time></trkpt><trkpt lat="46.05471585993538" lon="12.400904018630174"><ele>1052.0</ele><time>2026-04-25T14:06:22.999Z</time></trkpt><trkpt lat="46.05486426581472" lon="12.400900874051336"><ele>1051.0</ele><time>2026-04-25T14:06:23.999Z</time></trkpt><trkpt lat="46.05501801566831" lon="12.400886025489571"><ele>1048.0</ele><time>2026-04-25T14:06:24.999Z</time></trkpt><trkpt lat="46.055172026746376" lon="12.400844130382437"><ele>1045.0</ele><time>2026-04-25T14:06:25.999Z</time></trkpt><trkpt lat="46.05531820796933" lon="12.400793275565537"><ele>1042.0</ele><time>2026-04-25T14:06:26.999Z</time></trkpt><trkpt lat="46.0554603970889" lon="12.400742051371267"><ele>1042.0</ele><time>2026-04-25T14:06:27.999Z</time></trkpt><trkpt lat="46.055594569267036" lon="12.40070030291474"><ele>1042.0</ele><time>2026-04-25T14:06:28.999Z</time></trkpt><trkpt lat="46.055737659380554" lon="12.400647271466559"><ele>1042.0</ele><time>2026-04-25T14:06:29.999Z</time></trkpt><trkpt lat="46.055877882770744" lon="12.400598775081706"><ele>1042.0</ele><time>2026-04-25T14:06:30.999Z</time></trkpt><trkpt lat="46.05602023946484" lon="12.400558050244802"><ele>1039.75</ele><time>2026-04-25T14:06:31.999Z</time></trkpt><trkpt lat="46.056162627594006" lon="12.400515729909456"><ele>1037.5</ele><time>2026-04-25T14:06:32.999Z</time></trkpt><trkpt lat="46.05630736284676" lon="12.400481987040491"><ele>1035.25</ele><time>2026-04-25T14:06:33.999Z</time></trkpt><trkpt lat="46.05645642422982" lon="12.400451273438408"><ele>1033.0</ele><time>2026-04-25T14:06:34.999Z</time></trkpt><trkpt lat="46.0565993914302" lon="12.400425760561605"><ele>1036.5</ele><time>2026-04-25T14:06:35.999Z</time></trkpt><trkpt lat="46.05674494063608" lon="12.400401739873377"><ele>1040.0</ele><time>2026-04-25T14:06:36.999Z</time></trkpt><trkpt lat="46.05689335298671" lon="12.40038892011513"><ele>1043.5</ele><time>2026-04-25T14:06:37.999Z</time></trkpt><trkpt lat="46.057043720206806" lon="12.400365264514713"><ele>1047.0</ele><time>2026-04-25T14:06:39Z</time></trkpt><trkpt lat="46.05719151771456" lon="12.400340522635613"><ele>1047.0</ele><time>2026-04-25T14:06:40Z</time></trkpt><trkpt lat="46.05731962475611" lon="12.400328433421217"><ele>1047.0</ele><time>2026-04-25T14:06:41Z</time></trkpt><trkpt lat="46.0574487892115" lon="12.400324416865674"><ele>1047.0</ele><time>2026-04-25T14:06:42Z</time></trkpt><trkpt lat="46.0575748444919" lon="12.400330769382592"><ele>1047.0</ele><time>2026-04-25T14:06:43Z</time></trkpt><trkpt lat="46.057705601686486" lon="12.400312766099672"><ele>1044.0</ele><time>2026-04-25T14:06:44Z</time></trkpt><trkpt lat="46.05782366671561" lon="12.400330376038431"><ele>1041.0</ele><time>2026-04-25T14:06:45Z</time></trkpt><trkpt lat="46.05794607099167" lon="12.400359163847188"><ele>1038.0</ele><time>2026-04-25T14:06:46Z</time></trkpt><trkpt lat="46.058069238566496" lon="12.40040414196269"><ele>1035.0</ele><time>2026-04-25T14:06:47Z</time></trkpt><trkpt lat="46.05817763762641" lon="12.400464218064842"><ele>1032.0</ele><time>2026-04-25T14:06:48Z</time></trkpt><trkpt lat="46.05827777892685" lon="12.400526046976744"><ele>1029.0</ele><time>2026-04-25T14:06:49Z</time></trkpt><trkpt lat="46.05837736518996" lon="12.400592309822114"><ele>1026.0</ele><time>2026-04-25T14:06:50Z</time></trkpt><trkpt lat="46.05847464894507" lon="12.400652373999723"><ele>1023.0</ele><time>2026-04-25T14:06:51Z</time></trkpt><trkpt lat="46.058571477711844" lon="12.400703039533182"><ele>1020.0</ele><time>2026-04-25T14:06:52Z</time></trkpt><trkpt lat="46.05866290842917" lon="12.400752666161175"><ele>1019.3333333333334</ele><time>2026-04-25T14:06:53Z</time></trkpt><trkpt lat="46.05874698386154" lon="12.400805246606582"><ele>1018.6666666666667</ele><time>2026-04-25T14:06:54Z</time></trkpt><trkpt lat="46.0588273067225" lon="12.40085499642656"><ele>1018.0</ele><time>2026-04-25T14:06:55Z</time></trkpt><trkpt lat="46.05890316181215" lon="12.400905800601356"><ele>1017.3333333333334</ele><time>2026-04-25T14:06:56Z</time></trkpt><trkpt lat="46.058968563912444" lon="12.40094825540831"><ele>1016.6666666666667</ele><time>2026-04-25T14:06:57Z</time></trkpt><trkpt lat="46.059029907132036" lon="12.400994147511353"><ele>1016.0</ele><time>2026-04-25T14:06:58Z</time></trkpt><trkpt lat="46.059082852641595" lon="12.401043246632186"><ele>1016.1999999999999</ele><time>2026-04-25T14:06:59Z</time></trkpt><trkpt lat="46.059162718911736" lon="12.401122479593548"><ele>1016.3999999999999</ele><time>2026-04-25T14:07:01Z</time></trkpt><trkpt lat="46.05923081390489" lon="12.401178099954006"><ele>1016.6</ele><time>2026-04-25T14:07:04Z</time></trkpt><trkpt lat="46.059301683382344" lon="12.401207370818343"><ele>1016.8</ele><time>2026-04-25T14:07:58Z</time></trkpt><trkpt lat="46.05943394129113" lon="12.401253128072073"><ele>1017.0</ele><time>2026-04-25T14:07:59.999Z</time></trkpt><trkpt lat="46.05952272521355" lon="12.401304618027487"><ele>1016.5</ele><time>2026-04-25T14:08:00.999Z</time></trkpt><trkpt lat="46.059620988253954" lon="12.401361852014881"><ele>1016.0</ele><time>2026-04-25T14:08:01.999Z</time></trkpt><trkpt lat="46.0597251987272" lon="12.401425465389103"><ele>1015.5</ele><time>2026-04-25T14:08:02.999Z</time></trkpt><trkpt lat="46.059834467345944" lon="12.4014934684761"><ele>1015.0</ele><time>2026-04-25T14:08:03.999Z</time></trkpt><trkpt lat="46.05994799239544" lon="12.40156092524517"><ele>1015.0</ele><time>2026-04-25T14:08:04.999Z</time></trkpt><trkpt lat="46.06005859107373" lon="12.40162689833809"><ele>1015.0</ele><time>2026-04-25T14:08:05.999Z</time></trkpt><trkpt lat="46.06017346037624" lon="12.40169523717876"><ele>1015.0</ele><time>2026-04-25T14:08:06.999Z</time></trkpt><trkpt lat="46.060285033361886" lon="12.401762720930444"><ele>1015.0</ele><time>2026-04-25T14:08:07.999Z</time></trkpt><trkpt lat="46.06039766762404" lon="12.401832028179571"><ele>1015.0</ele><time>2026-04-25T14:08:08.999Z</time></trkpt><trkpt lat="46.06051275980701" lon="12.401902657864778"><ele>1015.0</ele><time>2026-04-25T14:08:09.999Z</time></trkpt><trkpt lat="46.06062454552268" lon="12.401972396674312"><ele>1015.0</ele><time>2026-04-25T14:08:10.999Z</time></trkpt><trkpt lat="46.06073921023063" lon="12.402042954428154"><ele>1015.0</ele><time>2026-04-25T14:08:11.999Z</time></trkpt><trkpt lat="46.06085316500919" lon="12.402115134432771"><ele>1015.5</ele><time>2026-04-25T14:08:12.999Z</time></trkpt><trkpt lat="46.060969714258974" lon="12.402187811238061"><ele>1016.0</ele><time>2026-04-25T14:08:13.999Z</time></trkpt><trkpt lat="46.06108534901787" lon="12.402260793799645"><ele>1016.5</ele><time>2026-04-25T14:08:14.999Z</time></trkpt><trkpt lat="46.06120248251884" lon="12.40233193511306"><ele>1017.0</ele><time>2026-04-25T14:08:15.999Z</time></trkpt><trkpt lat="46.06132185444046" lon="12.402399796499536"><ele>1017.0</ele><time>2026-04-25T14:08:16.999Z</time></trkpt><trkpt lat="46.061439138154164" lon="12.402467033225925"><ele>1017.0</ele><time>2026-04-25T14:08:17.999Z</time></trkpt><trkpt lat="46.06155957408186" lon="12.402539318260912"><ele>1017.0</ele><time>2026-04-25T14:08:18.999Z</time></trkpt><trkpt lat="46.061680008133024" lon="12.402610262484403"><ele>1017.0</ele><time>2026-04-25T14:08:19.999Z</time></trkpt><trkpt lat="46.06179979332547" lon="12.402687662267905"><ele>1017.0</ele><time>2026-04-25T14:08:20.999Z</time></trkpt><trkpt lat="46.06192372625888" lon="12.402764975476606"><ele>1017.0</ele><time>2026-04-25T14:08:21.999Z</time></trkpt><trkpt lat="46.062055117160305" lon="12.402841128052556"><ele>1017.0</ele><time>2026-04-25T14:08:22.999Z</time></trkpt><trkpt lat="46.06218757340822" lon="12.402920806738203"><ele>1017.0</ele><time>2026-04-25T14:08:23.999Z</time></trkpt><trkpt lat="46.06232618150975" lon="12.403004220850844"><ele>1016.0</ele><time>2026-04-25T14:08:24.999Z</time></trkpt><trkpt lat="46.06247046135136" lon="12.403090885366286"><ele>1015.0</ele><time>2026-04-25T14:08:25.999Z</time></trkpt><trkpt lat="46.06261993935205" lon="12.4031772371225"><ele>1014.0</ele><time>2026-04-25T14:08:26.999Z</time></trkpt><trkpt lat="46.06277970110445" lon="12.403271598928747"><ele>1014.0</ele><time>2026-04-25T14:08:27.999Z</time></trkpt><trkpt lat="46.06293701882154" lon="12.403363645539132"><ele>1014.0</ele><time>2026-04-25T14:08:28.999Z</time></trkpt><trkpt lat="46.06309655620054" lon="12.40345849392186"><ele>1014.0</ele><time>2026-04-25T14:08:29.999Z</time></trkpt><trkpt lat="46.06326156897122" lon="12.403559102582994"><ele>1014.0</ele><time>2026-04-25T14:08:30.999Z</time></trkpt><trkpt lat="46.063427845831825" lon="12.403659893324388"><ele>1014.0</ele><time>2026-04-25T14:08:31.999Z</time></trkpt><trkpt lat="46.063593390423684" lon="12.403763043333232"><ele>1014.0</ele><time>2026-04-25T14:08:32.999Z</time></trkpt><trkpt lat="46.06375923807651" lon="12.403865525524097"><ele>1014.0</ele><time>2026-04-25T14:08:33.999Z</time></trkpt><trkpt lat="46.06392676495875" lon="12.403963454673697"><ele>1014.0</ele><time>2026-04-25T14:08:34.999Z</time></trkpt><trkpt lat="46.06409064068865" lon="12.404060913741851"><ele>1014.0</ele><time>2026-04-25T14:08:35.999Z</time></trkpt><trkpt lat="46.06425999318335" lon="12.404157017353803"><ele>1014.0</ele><time>2026-04-25T14:08:36.999Z</time></trkpt><trkpt lat="46.06442814945623" lon="12.40425279797845"><ele>1014.0</ele><time>2026-04-25T14:08:37.999Z</time></trkpt><trkpt lat="46.06459249332181" lon="12.404350889558668"><ele>1014.0</ele><time>2026-04-25T14:08:38.999Z</time></trkpt><trkpt lat="46.06475330117778" lon="12.404449947289756"><ele>1014.0</ele><time>2026-04-25T14:08:39.999Z</time></trkpt><trkpt lat="46.064913833771726" lon="12.404548489934145"><ele>1014.0</ele><time>2026-04-25T14:08:40.999Z</time></trkpt><trkpt lat="46.06507407185011" lon="12.40464709144094"><ele>1014.0</ele><time>2026-04-25T14:08:41.999Z</time></trkpt><trkpt lat="46.06523256530205" lon="12.404744388371611"><ele>1014.3333333333333</ele><time>2026-04-25T14:08:42.999Z</time></trkpt><trkpt lat="46.065392328404094" lon="12.40483987423804"><ele>1014.6666666666666</ele><time>2026-04-25T14:08:43.999Z</time></trkpt><trkpt lat="46.0655511502255" lon="12.40493604854773"><ele>1015.0</ele><time>2026-04-25T14:08:45Z</time></trkpt><trkpt lat="46.0657095200819" lon="12.405032866756903"><ele>1014.3333333333333</ele><time>2026-04-25T14:08:46Z</time></trkpt><trkpt lat="46.065865539053654" lon="12.405128374179494"><ele>1013.6666666666667</ele><time>2026-04-25T14:08:47Z</time></trkpt><trkpt lat="46.06602230173343" lon="12.40522320330117"><ele>1013.0</ele><time>2026-04-25T14:08:48Z</time></trkpt><trkpt lat="46.06617775905992" lon="12.405315975169023"><ele>1013.0</ele><time>2026-04-25T14:08:49Z</time></trkpt><trkpt lat="46.0663328738452" lon="12.405408525465457"><ele>1013.0</ele><time>2026-04-25T14:08:50Z</time></trkpt><trkpt lat="46.06649072076724" lon="12.405501235528662"><ele>1013.0</ele><time>2026-04-25T14:08:51Z</time></trkpt><trkpt lat="46.06664770584779" lon="12.405594680203027"><ele>1012.6666666666667</ele><time>2026-04-25T14:08:52Z</time></trkpt><trkpt lat="46.06680543648862" lon="12.405689086293199"><ele>1012.3333333333333</ele><time>2026-04-25T14:08:53Z</time></trkpt><trkpt lat="46.06696560770595" lon="12.40578711791275"><ele>1012.0</ele><time>2026-04-25T14:08:54Z</time></trkpt><trkpt lat="46.067128517286214" lon="12.40588517767601"><ele>1012.0</ele><time>2026-04-25T14:08:55Z</time></trkpt><trkpt lat="46.06729537750968" lon="12.405986782882739"><ele>1012.0</ele><time>2026-04-25T14:08:56Z</time></trkpt><trkpt lat="46.0674648465113" lon="12.406089636017564"><ele>1012.0</ele><time>2026-04-25T14:08:57Z</time></trkpt><trkpt lat="46.06763867083742" lon="12.406191945591054"><ele>1011.0</ele><time>2026-04-25T14:08:58Z</time></trkpt><trkpt lat="46.067814265835096" lon="12.406295572682396"><ele>1010.0</ele><time>2026-04-25T14:08:59Z</time></trkpt><trkpt lat="46.06799655063435" lon="12.406400573481397"><ele>1009.0</ele><time>2026-04-25T14:09:00Z</time></trkpt><trkpt lat="46.068184616499046" lon="12.406513374592423"><ele>1008.3333333333333</ele><time>2026-04-25T14:09:01Z</time></trkpt><trkpt lat="46.06838177919298" lon="12.40663622826185"><ele>1007.6666666666667</ele><time>2026-04-25T14:09:02Z</time></trkpt><trkpt lat="46.068591735118446" lon="12.40678198345931"><ele>1007.0</ele><time>2026-04-25T14:09:03Z</time></trkpt><trkpt lat="46.068821668383364" lon="12.406940173762926"><ele>1007.0</ele><time>2026-04-25T14:09:04Z</time></trkpt><trkpt lat="46.069057511017334" lon="12.407114861551136"><ele>1007.0</ele><time>2026-04-25T14:09:05Z</time></trkpt><trkpt lat="46.06932025864431" lon="12.407260234843248"><ele>1007.0</ele><time>2026-04-25T14:09:06Z</time></trkpt><trkpt lat="46.069591419581215" lon="12.407421474408524"><ele>1007.0</ele><time>2026-04-25T14:09:07Z</time></trkpt><trkpt lat="46.06969808884513" lon="12.407405944032565"><ele>1007.0</ele><time>2026-04-25T14:09:08Z</time></trkpt><trkpt lat="46.06994792038109" lon="12.407556073159027"><ele>1005.5</ele><time>2026-04-25T14:09:09Z</time></trkpt><trkpt lat="46.070202210306995" lon="12.407709279030568"><ele>1004.0</ele><time>2026-04-25T14:09:10Z</time></trkpt><trkpt lat="46.07045134355797" lon="12.407864542204653"><ele>1004.5</ele><time>2026-04-25T14:09:11Z</time></trkpt><trkpt lat="46.070698229216994" lon="12.408012932365558"><ele>1005.0</ele><time>2026-04-25T14:09:12Z</time></trkpt><trkpt lat="46.07094292027308" lon="12.408161053154169"><ele>1005.5</ele><time>2026-04-25T14:09:13Z</time></trkpt><trkpt lat="46.0711838376305" lon="12.40830639687035"><ele>1006.0</ele><time>2026-04-25T14:09:14Z</time></trkpt><trkpt lat="46.07142297544104" lon="12.408451810884321"><ele>1006.0</ele><time>2026-04-25T14:09:15Z</time></trkpt><trkpt lat="46.07166061657196" lon="12.408595481762296"><ele>1006.0</ele><time>2026-04-25T14:09:16Z</time></trkpt><trkpt lat="46.07189709922603" lon="12.40873760614549"><ele>1005.5</ele><time>2026-04-25T14:09:17Z</time></trkpt><trkpt lat="46.0721347137702" lon="12.408878250301102"><ele>1005.0</ele><time>2026-04-25T14:09:18Z</time></trkpt><trkpt lat="46.07236961172869" lon="12.409013457117839"><ele>1005.0</ele><time>2026-04-25T14:09:19Z</time></trkpt><trkpt lat="46.072603925162426" lon="12.409148710164446"><ele>1005.0</ele><time>2026-04-25T14:09:20Z</time></trkpt><trkpt lat="46.07282941675827" lon="12.409308216670693"><ele>1005.0</ele><time>2026-04-25T14:09:21Z</time></trkpt><trkpt lat="46.073059340650204" lon="12.409445811565629"><ele>1005.0</ele><time>2026-04-25T14:09:22Z</time></trkpt><trkpt lat="46.07328834703341" lon="12.409582855966335"><ele>1004.0</ele><time>2026-04-25T14:09:23Z</time></trkpt><trkpt lat="46.07351652634956" lon="12.40971940185329"><ele>1003.0</ele><time>2026-04-25T14:09:24Z</time></trkpt><trkpt lat="46.07374299233189" lon="12.409854922455773"><ele>1003.0</ele><time>2026-04-25T14:09:25Z</time></trkpt><trkpt lat="46.073970637656664" lon="12.409989004064053"><ele>1003.0</ele><time>2026-04-25T14:09:26Z</time></trkpt><trkpt lat="46.074210388171736" lon="12.410082862378994"><ele>1003.0</ele><time>2026-04-25T14:09:27Z</time></trkpt><trkpt lat="46.07443899845088" lon="12.410216532988095"><ele>1003.0</ele><time>2026-04-25T14:09:28Z</time></trkpt><trkpt lat="46.074665127897404" lon="12.410354404438428"><ele>1003.5</ele><time>2026-04-25T14:09:29Z</time></trkpt><trkpt lat="46.07489149512778" lon="12.410495003330531"><ele>1004.0</ele><time>2026-04-25T14:09:30Z</time></trkpt><trkpt lat="46.075120041247565" lon="12.410636580997187"><ele>1005.0</ele><time>2026-04-25T14:09:31Z</time></trkpt><trkpt lat="46.07534368417033" lon="12.410794116112845"><ele>1006.0</ele><time>2026-04-25T14:09:32Z</time></trkpt><trkpt lat="46.075557577017975" lon="12.410994811278597"><ele>1006.5</ele><time>2026-04-25T14:09:33Z</time></trkpt><trkpt lat="46.07578682515348" lon="12.411219825615822"><ele>1007.0</ele><time>2026-04-25T14:09:34Z</time></trkpt><trkpt lat="46.0760010316982" lon="12.411486081859"><ele>1007.0</ele><time>2026-04-25T14:09:35Z</time></trkpt><trkpt lat="46.07622588891572" lon="12.411783494002083"><ele>1007.0</ele><time>2026-04-25T14:09:36Z</time></trkpt><trkpt lat="46.07640116552536" lon="12.41207530858585"><ele>1005.5</ele><time>2026-04-25T14:09:37Z</time></trkpt><trkpt lat="46.07657145183821" lon="12.412417421342399"><ele>1004.0</ele><time>2026-04-25T14:09:38Z</time></trkpt><trkpt lat="46.076742112025194" lon="12.412784912926902"><ele>1005.6666666666667</ele><time>2026-04-25T14:09:39Z</time></trkpt><trkpt lat="46.076876835210875" lon="12.41272953375079"><ele>1007.3333333333333</ele><time>2026-04-25T14:09:40Z</time></trkpt><trkpt lat="46.07700637946368" lon="12.412945232605543"><ele>1009.0</ele><time>2026-04-25T14:09:41Z</time></trkpt><trkpt lat="46.07712731413575" lon="12.413151263345512"><ele>1009.0</ele><time>2026-04-25T14:09:42Z</time></trkpt><trkpt lat="46.07723031938151" lon="12.413351471059887"><ele>1009.0</ele><time>2026-04-25T14:09:43Z</time></trkpt><trkpt lat="46.07732456057319" lon="12.413543449367713"><ele>1009.0</ele><time>2026-04-25T14:09:44Z</time></trkpt><trkpt lat="46.0774152113628" lon="12.413722571523456"><ele>1012.25</ele><time>2026-04-25T14:09:45Z</time></trkpt><trkpt lat="46.07750722739713" lon="12.413874707959556"><ele>1015.5</ele><time>2026-04-25T14:09:46Z</time></trkpt><trkpt lat="46.07760008711358" lon="12.414009243371053"><ele>1018.75</ele><time>2026-04-25T14:09:47Z</time></trkpt><trkpt lat="46.07769810480802" lon="12.414117421759476"><ele>1022.0</ele><time>2026-04-25T14:09:48Z</time></trkpt><trkpt lat="46.07780891880375" lon="12.41418996176259"><ele>1022.0</ele><time>2026-04-25T14:09:49Z</time></trkpt><trkpt lat="46.07794230670959" lon="12.414225262899706"><ele>1022.0</ele><time>2026-04-25T14:09:50Z</time></trkpt><trkpt lat="46.07807592938645" lon="12.414247318123813"><ele>1022.0</ele><time>2026-04-25T14:09:51Z</time></trkpt><trkpt lat="46.07822055646285" lon="12.4142517762493"><ele>1022.0</ele><time>2026-04-25T14:09:52Z</time></trkpt><trkpt lat="46.07837239158157" lon="12.414253512023974"><ele>1023.0</ele><time>2026-04-25T14:09:53Z</time></trkpt><trkpt lat="46.07853577433613" lon="12.414254843768294"><ele>1024.0</ele><time>2026-04-25T14:09:54Z</time></trkpt><trkpt lat="46.07870699482195" lon="12.414254503270103"><ele>1025.0</ele><time>2026-04-25T14:09:55Z</time></trkpt><trkpt lat="46.078882855284554" lon="12.414255723666143"><ele>1025.0</ele><time>2026-04-25T14:09:56Z</time></trkpt><trkpt lat="46.07906355513287" lon="12.41426140894005"><ele>1025.0</ele><time>2026-04-25T14:09:57Z</time></trkpt><trkpt lat="46.07924963837179" lon="12.414277301756021"><ele>1025.0</ele><time>2026-04-25T14:09:57.999Z</time></trkpt><trkpt lat="46.07943087971116" lon="12.414339035421984"><ele>1025.3333333333335</ele><time>2026-04-25T14:09:58.999Z</time></trkpt><trkpt lat="46.07960889855605" lon="12.414433639378899"><ele>1025.6666666666667</ele><time>2026-04-25T14:09:59.999Z</time></trkpt><trkpt lat="46.07977517914346" lon="12.414561108951341"><ele>1026.0</ele><time>2026-04-25T14:10:00.999Z</time></trkpt><trkpt lat="46.07991738242382" lon="12.414747895155802"><ele>1022.0</ele><time>2026-04-25T14:10:01.999Z</time></trkpt><trkpt lat="46.08005367431231" lon="12.41487853332624"><ele>1018.0</ele><time>2026-04-25T14:10:02.999Z</time></trkpt><trkpt lat="46.080195951949264" lon="12.414956296394038"><ele>1014.0</ele><time>2026-04-25T14:10:03.999Z</time></trkpt><trkpt lat="46.080340419763296" lon="12.41501346280025"><ele>1014.0</ele><time>2026-04-25T14:10:04.999Z</time></trkpt><trkpt lat="46.08049335831659" lon="12.415024549643928"><ele>1014.0</ele><time>2026-04-25T14:10:05.999Z</time></trkpt><trkpt lat="46.080684589739874" lon="12.41495692143821"><ele>1014.0</ele><time>2026-04-25T14:10:06.999Z</time></trkpt><trkpt lat="46.08086234751893" lon="12.414931858177372"><ele>1012.6666666666667</ele><time>2026-04-25T14:10:07.999Z</time></trkpt><trkpt lat="46.08104022463561" lon="12.414902444688618"><ele>1011.3333333333334</ele><time>2026-04-25T14:10:08.999Z</time></trkpt><trkpt lat="46.081226403030875" lon="12.414872556073023"><ele>1010.0</ele><time>2026-04-25T14:10:09.999Z</time></trkpt><trkpt lat="46.0814156573872" lon="12.414850603964487"><ele>1010.0</ele><time>2026-04-25T14:10:10.999Z</time></trkpt><trkpt lat="46.08159290700987" lon="12.414833921798738"><ele>1010.0</ele><time>2026-04-25T14:10:11.999Z</time></trkpt><trkpt lat="46.081760995629566" lon="12.414805444131733"><ele>1010.0</ele><time>2026-04-25T14:10:12.999Z</time></trkpt><trkpt lat="46.0819255428258" lon="12.414769237668956"><ele>1010.3333333333334</ele><time>2026-04-25T14:10:13.999Z</time></trkpt><trkpt lat="46.082084217627255" lon="12.414686174893957"><ele>1010.6666666666667</ele><time>2026-04-25T14:10:14.999Z</time></trkpt><trkpt lat="46.082242334476355" lon="12.414569140755258"><ele>1011.0</ele><time>2026-04-25T14:10:15.999Z</time></trkpt><trkpt lat="46.08239178470117" lon="12.414424365996119"><ele>1008.0</ele><time>2026-04-25T14:10:16.999Z</time></trkpt><trkpt lat="46.08254631361817" lon="12.414281744723297"><ele>1005.0</ele><time>2026-04-25T14:10:17.999Z</time></trkpt><trkpt lat="46.08271271345492" lon="12.414144713156064"><ele>1002.0</ele><time>2026-04-25T14:10:18.999Z</time></trkpt><trkpt lat="46.08287625974544" lon="12.414010480720593"><ele>1002.0</ele><time>2026-04-25T14:10:19.999Z</time></trkpt><trkpt lat="46.083039295674986" lon="12.413871835649205"><ele>1002.0</ele><time>2026-04-25T14:10:20.999Z</time></trkpt><trkpt lat="46.08320306486723" lon="12.413734404236216"><ele>1002.0</ele><time>2026-04-25T14:10:21.999Z</time></trkpt><trkpt lat="46.083364480429275" lon="12.413596290274887"><ele>1000.6666666666667</ele><time>2026-04-25T14:10:22.999Z</time></trkpt><trkpt lat="46.083528049234204" lon="12.41345062299044"><ele>999.3333333333334</ele><time>2026-04-25T14:10:23.999Z</time></trkpt><trkpt lat="46.08368858498893" lon="12.41332104180914"><ele>998.0</ele><time>2026-04-25T14:10:24.999Z</time></trkpt><trkpt lat="46.083843299950715" lon="12.413199462149658"><ele>998.0</ele><time>2026-04-25T14:10:25.999Z</time></trkpt><trkpt lat="46.08398696528172" lon="12.41308088180507"><ele>998.0</ele><time>2026-04-25T14:10:26.999Z</time></trkpt><trkpt lat="46.08411161002989" lon="12.41296451388368"><ele>998.0</ele><time>2026-04-25T14:10:27.999Z</time></trkpt><trkpt lat="46.08422379334987" lon="12.412833743385022"><ele>997.5</ele><time>2026-04-25T14:10:28.999Z</time></trkpt><trkpt lat="46.084321208328674" lon="12.412687202823744"><ele>997.0</ele><time>2026-04-25T14:10:29.999Z</time></trkpt><trkpt lat="46.084398234583226" lon="12.412520178965606"><ele>996.5</ele><time>2026-04-25T14:10:30.999Z</time></trkpt><trkpt lat="46.08445032171116" lon="12.412335066755361"><ele>996.0</ele><time>2026-04-25T14:10:31.999Z</time></trkpt><trkpt lat="46.0844815536689" lon="12.412150065945124"><ele>996.0</ele><time>2026-04-25T14:10:32.999Z</time></trkpt><trkpt lat="46.08450198984645" lon="12.411967104308582"><ele>996.0</ele><time>2026-04-25T14:10:33.999Z</time></trkpt><trkpt lat="46.08452406566932" lon="12.411789504705517"><ele>996.0</ele><time>2026-04-25T14:10:34.999Z</time></trkpt><trkpt lat="46.084554076086846" lon="12.411622671292614"><ele>996.0</ele><time>2026-04-25T14:10:35.999Z</time></trkpt><trkpt lat="46.08458984389356" lon="12.411462441149057"><ele>998.5999999999999</ele><time>2026-04-25T14:10:36.999Z</time></trkpt><trkpt lat="46.08464211714908" lon="12.411323660428277"><ele>1001.1999999999999</ele><time>2026-04-25T14:10:37.999Z</time></trkpt><trkpt lat="46.08472777169932" lon="12.411230931138093"><ele>1003.8000000000001</ele><time>2026-04-25T14:10:38.999Z</time></trkpt><trkpt lat="46.084811113204395" lon="12.41113932191475"><ele>1006.4000000000001</ele><time>2026-04-25T14:10:39.999Z</time></trkpt><trkpt lat="46.08490153249015" lon="12.411064472169755"><ele>1009.0</ele><time>2026-04-25T14:10:40.999Z</time></trkpt><trkpt lat="46.085016015660585" lon="12.411050345519142"><ele>1009.0</ele><time>2026-04-25T14:10:41.999Z</time></trkpt><trkpt lat="46.085125391980235" lon="12.411114014214531"><ele>1009.0</ele><time>2026-04-25T14:10:42.999Z</time></trkpt><trkpt lat="46.085219763381424" lon="12.411202343197829"><ele>1009.0</ele><time>2026-04-25T14:10:43.999Z</time></trkpt><trkpt lat="46.085313650471235" lon="12.411300688613691"><ele>1009.0</ele><time>2026-04-25T14:10:44.999Z</time></trkpt><trkpt lat="46.08539969682726" lon="12.411441549535377"><ele>1007.5</ele><time>2026-04-25T14:10:45.999Z</time></trkpt><trkpt lat="46.08548003008573" lon="12.411590632933898"><ele>1006.0</ele><time>2026-04-25T14:10:46.999Z</time></trkpt><trkpt lat="46.08557071578271" lon="12.411749599888743"><ele>1004.5</ele><time>2026-04-25T14:10:47.999Z</time></trkpt><trkpt lat="46.08566700265738" lon="12.411906612322653"><ele>1003.0</ele><time>2026-04-25T14:10:48.999Z</time></trkpt><trkpt lat="46.0857704444279" lon="12.412058058365243"><ele>1000.0</ele><time>2026-04-25T14:10:49.999Z</time></trkpt><trkpt lat="46.0858764850708" lon="12.412197209209685"><ele>997.0</ele><time>2026-04-25T14:10:51Z</time></trkpt><trkpt lat="46.08598253378031" lon="12.412306955225514"><ele>994.0</ele><time>2026-04-25T14:10:52Z</time></trkpt><trkpt lat="46.08609306589137" lon="12.41238992615892"><ele>991.0</ele><time>2026-04-25T14:10:53Z</time></trkpt><trkpt lat="46.086216021509216" lon="12.412442623060825"><ele>991.0</ele><time>2026-04-25T14:10:54Z</time></trkpt><trkpt lat="46.08633909754813" lon="12.412476319539232"><ele>991.0</ele><time>2026-04-25T14:10:55Z</time></trkpt><trkpt lat="46.0864805465931" lon="12.41248354119707"><ele>991.0</ele><time>2026-04-25T14:10:56Z</time></trkpt><trkpt lat="46.086627560833996" lon="12.412467545849177"><ele>991.0</ele><time>2026-04-25T14:10:57Z</time></trkpt><trkpt lat="46.086789429600934" lon="12.41243748530028"><ele>993.3333333333333</ele><time>2026-04-25T14:10:58Z</time></trkpt><trkpt lat="46.0869549936389" lon="12.412376560653984"><ele>995.6666666666667</ele><time>2026-04-25T14:10:59Z</time></trkpt><trkpt lat="46.087114255523105" lon="12.412317658361694"><ele>998.0</ele><time>2026-04-25T14:11:00Z</time></trkpt><trkpt lat="46.08728381510544" lon="12.41225413280938"><ele>998.0</ele><time>2026-04-25T14:11:01Z</time></trkpt><trkpt lat="46.087461491717484" lon="12.412177924426622"><ele>998.0</ele><time>2026-04-25T14:11:02Z</time></trkpt><trkpt lat="46.08765338197618" lon="12.412116056031094"><ele>998.0</ele><time>2026-04-25T14:11:03Z</time></trkpt><trkpt lat="46.08784645629072" lon="12.41205551074122"><ele>1006.0</ele><time>2026-04-25T14:11:04Z</time></trkpt><trkpt lat="46.088042122819225" lon="12.411996001974039"><ele>1014.0</ele><time>2026-04-25T14:11:05Z</time></trkpt><trkpt lat="46.088225421978485" lon="12.411939674373844"><ele>1022.0</ele><time>2026-04-25T14:11:06Z</time></trkpt><trkpt lat="46.08838680084686" lon="12.411871880847821"><ele>1022.0</ele><time>2026-04-25T14:11:07Z</time></trkpt><trkpt lat="46.088538620232704" lon="12.411789556419677"><ele>1022.0</ele><time>2026-04-25T14:11:08Z</time></trkpt><trkpt lat="46.08866382084038" lon="12.411679123099693"><ele>1022.0</ele><time>2026-04-25T14:11:09Z</time></trkpt><trkpt lat="46.08879278779423" lon="12.411596553262154"><ele>1022.0</ele><time>2026-04-25T14:11:10Z</time></trkpt><trkpt lat="46.08891950700042" lon="12.411526024621192"><ele>1022.0</ele><time>2026-04-25T14:11:11Z</time></trkpt><trkpt lat="46.089065718086054" lon="12.411470518894292"><ele>1022.0</ele><time>2026-04-25T14:11:12Z</time></trkpt><trkpt lat="46.08921716402404" lon="12.411503493367231"><ele>1022.0</ele><time>2026-04-25T14:11:13Z</time></trkpt><trkpt lat="46.0893619465911" lon="12.411556920305037"><ele>1019.25</ele><time>2026-04-25T14:11:14Z</time></trkpt><trkpt lat="46.08950281234952" lon="12.411610510061204"><ele>1016.5</ele><time>2026-04-25T14:11:15Z</time></trkpt><trkpt lat="46.08963123708893" lon="12.411700001553328"><ele>1013.75</ele><time>2026-04-25T14:11:16Z</time></trkpt><trkpt lat="46.08975148272802" lon="12.411774322933066"><ele>1011.0</ele><time>2026-04-25T14:11:17Z</time></trkpt><trkpt lat="46.08987043260198" lon="12.411810996701671"><ele>1009.25</ele><time>2026-04-25T14:11:18Z</time></trkpt><trkpt lat="46.089996067688425" lon="12.41181280424929"><ele>1007.5</ele><time>2026-04-25T14:11:19Z</time></trkpt><trkpt lat="46.09012852795238" lon="12.411791197384511"><ele>1005.75</ele><time>2026-04-25T14:11:20Z</time></trkpt><trkpt lat="46.09026138939376" lon="12.41175896765767"><ele>1004.0</ele><time>2026-04-25T14:11:21Z</time></trkpt><trkpt lat="46.090393502930034" lon="12.411721508127679"><ele>1004.0</ele><time>2026-04-25T14:11:22Z</time></trkpt><trkpt lat="46.090527790521044" lon="12.411683529370352"><ele>1004.0</ele><time>2026-04-25T14:11:23Z</time></trkpt><trkpt lat="46.090661475716935" lon="12.411646189159374"><ele>1004.0</ele><time>2026-04-25T14:11:24Z</time></trkpt><trkpt lat="46.090794200123206" lon="12.411610690170505"><ele>1004.0</ele><time>2026-04-25T14:11:25Z</time></trkpt><trkpt lat="46.09092157024386" lon="12.411573481891923"><ele>1004.75</ele><time>2026-04-25T14:11:26Z</time></trkpt><trkpt lat="46.09104820956683" lon="12.411537945592046"><ele>1005.5</ele><time>2026-04-25T14:11:27Z</time></trkpt><trkpt lat="46.091173807134865" lon="12.411504165984914"><ele>1006.25</ele><time>2026-04-25T14:11:28Z</time></trkpt><trkpt lat="46.09130070978405" lon="12.411471601347694"><ele>1007.0</ele><time>2026-04-25T14:11:29Z</time></trkpt><trkpt lat="46.09143080304579" lon="12.41144897600415"><ele>1007.0</ele><time>2026-04-25T14:11:30Z</time></trkpt><trkpt lat="46.091560578201644" lon="12.411416079898629"><ele>1007.0</ele><time>2026-04-25T14:11:31Z</time></trkpt><trkpt lat="46.09169108179873" lon="12.411385579907881"><ele>1007.0</ele><time>2026-04-25T14:11:32Z</time></trkpt><trkpt lat="46.091824329248986" lon="12.411355337402942"><ele>1007.0</ele><time>2026-04-25T14:11:33Z</time></trkpt><trkpt lat="46.09195855923377" lon="12.411318783880132"><ele>1011.75</ele><time>2026-04-25T14:11:34Z</time></trkpt><trkpt lat="46.09209669591037" lon="12.411282060921383"><ele>1016.5</ele><time>2026-04-25T14:11:35Z</time></trkpt><trkpt lat="46.092235065496745" lon="12.411226292993547"><ele>1021.25</ele><time>2026-04-25T14:11:36Z</time></trkpt><trkpt lat="46.09236700539676" lon="12.411157150227778"><ele>1026.0</ele><time>2026-04-25T14:11:37Z</time></trkpt><trkpt lat="46.09249090465276" lon="12.411038161817233"><ele>1026.0</ele><time>2026-04-25T14:11:38Z</time></trkpt><trkpt lat="46.09260670653193" lon="12.410874083642952"><ele>1026.0</ele><time>2026-04-25T14:11:39Z</time></trkpt><trkpt lat="46.092717503922316" lon="12.410684587082677"><ele>1026.0</ele><time>2026-04-25T14:11:40Z</time></trkpt><trkpt lat="46.09282988723068" lon="12.410477174766045"><ele>1031.3333333333333</ele><time>2026-04-25T14:11:41Z</time></trkpt><trkpt lat="46.09294596185429" lon="12.410272774806478"><ele>1036.6666666666665</ele><time>2026-04-25T14:11:42Z</time></trkpt><trkpt lat="46.09306060086822" lon="12.410075969873624"><ele>1042.0</ele><time>2026-04-25T14:11:43Z</time></trkpt><trkpt lat="46.09317322128748" lon="12.409901009200865"><ele>1041.6666666666665</ele><time>2026-04-25T14:11:44Z</time></trkpt><trkpt lat="46.093295548830795" lon="12.409741433647458"><ele>1041.3333333333333</ele><time>2026-04-25T14:11:45Z</time></trkpt><trkpt lat="46.09342577018935" lon="12.409605835224095"><ele>1041.0</ele><time>2026-04-25T14:11:46Z</time></trkpt><trkpt lat="46.0935698535025" lon="12.409498284885922"><ele>1041.0</ele><time>2026-04-25T14:11:46.999Z</time></trkpt><trkpt lat="46.093728155433354" lon="12.409443080142845"><ele>1041.0</ele><time>2026-04-25T14:11:47.999Z</time></trkpt><trkpt lat="46.09389241928549" lon="12.409394964590422"><ele>1041.0</ele><time>2026-04-25T14:11:48.999Z</time></trkpt><trkpt lat="46.09405330003062" lon="12.409325979464551"><ele>1040.0</ele><time>2026-04-25T14:11:49.999Z</time></trkpt><trkpt lat="46.09422083920996" lon="12.40929774072039"><ele>1039.0</ele><time>2026-04-25T14:11:50.999Z</time></trkpt><trkpt lat="46.094387053455335" lon="12.409230602086957"><ele>1038.0</ele><time>2026-04-25T14:11:51.999Z</time></trkpt><trkpt lat="46.09455412567194" lon="12.409137232328833"><ele>1038.0</ele><time>2026-04-25T14:11:52.999Z</time></trkpt><trkpt lat="46.09472485783942" lon="12.40903160179826"><ele>1038.0</ele><time>2026-04-25T14:11:53.999Z</time></trkpt><trkpt lat="46.09489555348019" lon="12.408911931636945"><ele>1038.0</ele><time>2026-04-25T14:11:54.999Z</time></trkpt><trkpt lat="46.09506729217205" lon="12.408788051213028"><ele>1043.6666666666667</ele><time>2026-04-25T14:11:55.999Z</time></trkpt><trkpt lat="46.09524805760879" lon="12.408682797416498"><ele>1049.3333333333335</ele><time>2026-04-25T14:11:56.999Z</time></trkpt><trkpt lat="46.0954378776354" lon="12.408584860981398"><ele>1055.0</ele><time>2026-04-25T14:11:57.999Z</time></trkpt><trkpt lat="46.09561574476909" lon="12.408497811109763"><ele>1052.3333333333335</ele><time>2026-04-25T14:11:58.999Z</time></trkpt><trkpt lat="46.09577886366048" lon="12.40842977294875"><ele>1049.6666666666667</ele><time>2026-04-25T14:11:59.999Z</time></trkpt><trkpt lat="46.09593318967323" lon="12.408361153487592"><ele>1047.0</ele><time>2026-04-25T14:12:00.999Z</time></trkpt><trkpt lat="46.09607210248813" lon="12.408303707909672"><ele>1047.0</ele><time>2026-04-25T14:12:01.999Z</time></trkpt><trkpt lat="46.09620628713492" lon="12.408242990391734"><ele>1047.0</ele><time>2026-04-25T14:12:02.999Z</time></trkpt><trkpt lat="46.09633485196668" lon="12.408192515961955"><ele>1047.0</ele><time>2026-04-25T14:12:03.999Z</time></trkpt><trkpt lat="46.09646184183566" lon="12.408149890958184"><ele>1047.0</ele><time>2026-04-25T14:12:04.999Z</time></trkpt><trkpt lat="46.09658844952062" lon="12.40812671018681"><ele>1046.6</ele><time>2026-04-25T14:12:05.999Z</time></trkpt><trkpt lat="46.09670531426716" lon="12.408119860042564"><ele>1046.2</ele><time>2026-04-25T14:12:06.999Z</time></trkpt><trkpt lat="46.096809883902075" lon="12.408123698346149"><ele>1045.8</ele><time>2026-04-25T14:12:07.999Z</time></trkpt><trkpt lat="46.096910214343865" lon="12.408130885307457"><ele>1045.4</ele><time>2026-04-25T14:12:08.999Z</time></trkpt><trkpt lat="46.09701112770826" lon="12.408141637836605"><ele>1045.0</ele><time>2026-04-25T14:12:09.999Z</time></trkpt><trkpt lat="46.09711451653016" lon="12.408153958110733"><ele>1045.0</ele><time>2026-04-25T14:12:10.999Z</time></trkpt><trkpt lat="46.09722470823358" lon="12.408178321379996"><ele>1045.0</ele><time>2026-04-25T14:12:11.999Z</time></trkpt><trkpt lat="46.09733404149397" lon="12.408210280719992"><ele>1045.0</ele><time>2026-04-25T14:12:12.999Z</time></trkpt><trkpt lat="46.097435581451364" lon="12.408261286444507"><ele>1045.0</ele><time>2026-04-25T14:12:13.999Z</time></trkpt><trkpt lat="46.0975232431034" lon="12.408342970661934"><ele>1045.0</ele><time>2026-04-25T14:12:14.999Z</time></trkpt><trkpt lat="46.09759313077945" lon="12.408451163042676"><ele>1045.75</ele><time>2026-04-25T14:12:15.999Z</time></trkpt><trkpt lat="46.097651058633005" lon="12.408590640182066"><ele>1046.5</ele><time>2026-04-25T14:12:16.999Z</time></trkpt><trkpt lat="46.09770643020115" lon="12.408745373390028"><ele>1047.25</ele><time>2026-04-25T14:12:17.999Z</time></trkpt><trkpt lat="46.09776391197225" lon="12.408916242454962"><ele>1048.0</ele><time>2026-04-25T14:12:18.999Z</time></trkpt><trkpt lat="46.097823838308315" lon="12.409100256997139"><ele>1051.0</ele><time>2026-04-25T14:12:19.999Z</time></trkpt><trkpt lat="46.09788275430512" lon="12.409287880440152"><ele>1054.0</ele><time>2026-04-25T14:12:20.999Z</time></trkpt><trkpt lat="46.0979443651644" lon="12.409475893868112"><ele>1057.0</ele><time>2026-04-25T14:12:21.999Z</time></trkpt><trkpt lat="46.0980051611705" lon="12.40966304380757"><ele>1060.0</ele><time>2026-04-25T14:12:22.999Z</time></trkpt><trkpt lat="46.09806647241301" lon="12.409856443509868"><ele>1059.3333333333333</ele><time>2026-04-25T14:12:23.999Z</time></trkpt><trkpt lat="46.09813452726672" lon="12.410047923809541"><ele>1058.6666666666667</ele><time>2026-04-25T14:12:24.999Z</time></trkpt><trkpt lat="46.09822218329815" lon="12.410240198011248"><ele>1058.0</ele><time>2026-04-25T14:12:25.999Z</time></trkpt><trkpt lat="46.098318736387505" lon="12.410426263786796"><ele>1057.6666666666667</ele><time>2026-04-25T14:12:26.999Z</time></trkpt><trkpt lat="46.09841756955998" lon="12.410610484474578"><ele>1057.3333333333333</ele><time>2026-04-25T14:12:27.999Z</time></trkpt><trkpt lat="46.098513808135976" lon="12.410789952311925"><ele>1057.0</ele><time>2026-04-25T14:12:28.999Z</time></trkpt><trkpt lat="46.09860712069487" lon="12.410959803469655"><ele>1057.0</ele><time>2026-04-25T14:12:29.999Z</time></trkpt><trkpt lat="46.09870399244185" lon="12.41112769479806"><ele>1057.0</ele><time>2026-04-25T14:12:30.999Z</time></trkpt><trkpt lat="46.09880336804146" lon="12.411277212058286"><ele>1057.0</ele><time>2026-04-25T14:12:31.999Z</time></trkpt><trkpt lat="46.098912068069794" lon="12.41141252436453"><ele>1057.0</ele><time>2026-04-25T14:12:32.999Z</time></trkpt><trkpt lat="46.099028692760385" lon="12.411526152642864"><ele>1055.5</ele><time>2026-04-25T14:12:33.999Z</time></trkpt><trkpt lat="46.09915193017745" lon="12.411625015327957"><ele>1054.0</ele><time>2026-04-25T14:12:34.999Z</time></trkpt><trkpt lat="46.099282118092965" lon="12.411703525064707"><ele>1052.5</ele><time>2026-04-25T14:12:35.999Z</time></trkpt><trkpt lat="46.09941954245945" lon="12.411746829194483"><ele>1051.0</ele><time>2026-04-25T14:12:36.999Z</time></trkpt><trkpt lat="46.09955794327454" lon="12.411774956705386"><ele>1051.0</ele><time>2026-04-25T14:12:37.999Z</time></trkpt><trkpt lat="46.099697604523676" lon="12.411772977622137"><ele>1051.0</ele><time>2026-04-25T14:12:38.999Z</time></trkpt><trkpt lat="46.09983484576368" lon="12.411756952301428"><ele>1051.0</ele><time>2026-04-25T14:12:39.999Z</time></trkpt><trkpt lat="46.09997214408722" lon="12.411721871797146"><ele>1051.0</ele><time>2026-04-25T14:12:40.999Z</time></trkpt><trkpt lat="46.10009640753835" lon="12.411662132039726"><ele>1051.0</ele><time>2026-04-25T14:12:41.999Z</time></trkpt><trkpt lat="46.100213952150575" lon="12.411572875872164"><ele>1051.0</ele><time>2026-04-25T14:12:42.999Z</time></trkpt><trkpt lat="46.100318571289364" lon="12.411453584533895"><ele>1051.0</ele><time>2026-04-25T14:12:43.999Z</time></trkpt><trkpt lat="46.10041506202712" lon="12.411302792835931"><ele>1051.0</ele><time>2026-04-25T14:12:44.999Z</time></trkpt><trkpt lat="46.10050994956997" lon="12.411130443535436"><ele>1052.6666666666665</ele><time>2026-04-25T14:12:45.999Z</time></trkpt><trkpt lat="46.100610189830505" lon="12.410954856803162"><ele>1054.3333333333333</ele><time>2026-04-25T14:12:46.999Z</time></trkpt><trkpt lat="46.10071683314964" lon="12.410765664060701"><ele>1056.0</ele><time>2026-04-25T14:12:47.999Z</time></trkpt><trkpt lat="46.100828733367564" lon="12.410569190036545"><ele>1059.0</ele><time>2026-04-25T14:12:48.999Z</time></trkpt><trkpt lat="46.100942097027094" lon="12.410370526727855"><ele>1062.0</ele><time>2026-04-25T14:12:49.999Z</time></trkpt><trkpt lat="46.101051792679414" lon="12.41017730265632"><ele>1065.0</ele><time>2026-04-25T14:12:50.999Z</time></trkpt><trkpt lat="46.10116215828928" lon="12.409990050615862"><ele>1065.0</ele><time>2026-04-25T14:12:51.999Z</time></trkpt><trkpt lat="46.10126207325254" lon="12.409806601758469"><ele>1065.0</ele><time>2026-04-25T14:12:52.999Z</time></trkpt><trkpt lat="46.10136623697425" lon="12.409633589276051"><ele>1065.0</ele><time>2026-04-25T14:12:53.999Z</time></trkpt><trkpt lat="46.10147702857919" lon="12.409472019598264"><ele>1063.0</ele><time>2026-04-25T14:12:54.999Z</time></trkpt><trkpt lat="46.10161219451114" lon="12.40935248857284"><ele>1061.0</ele><time>2026-04-25T14:12:55.999Z</time></trkpt><trkpt lat="46.10177238263089" lon="12.409294975722526"><ele>1059.0</ele><time>2026-04-25T14:12:57Z</time></trkpt><trkpt lat="46.10194895089649" lon="12.409286876222726"><ele>1059.0</ele><time>2026-04-25T14:12:58Z</time></trkpt><trkpt lat="46.10215755104446" lon="12.409328956049245"><ele>1059.0</ele><time>2026-04-25T14:12:59Z</time></trkpt><trkpt lat="46.10237306800307" lon="12.409353349081785"><ele>1059.0</ele><time>2026-04-25T14:13:00Z</time></trkpt><trkpt lat="46.1025574013134" lon="12.409365688211539"><ele>1056.3333333333333</ele><time>2026-04-25T14:13:01Z</time></trkpt><trkpt lat="46.10273104167559" lon="12.409374502026687"><ele>1053.6666666666665</ele><time>2026-04-25T14:13:02Z</time></trkpt><trkpt lat="46.10288363505998" lon="12.409382841986059"><ele>1051.0</ele><time>2026-04-25T14:13:03Z</time></trkpt><trkpt lat="46.10303325095731" lon="12.409391597847167"><ele>1051.0</ele><time>2026-04-25T14:13:04Z</time></trkpt><trkpt lat="46.10318584162999" lon="12.409397352155409"><ele>1051.0</ele><time>2026-04-25T14:13:05Z</time></trkpt><trkpt lat="46.10332543597115" lon="12.40940045122656"><ele>1051.0</ele><time>2026-04-25T14:13:06Z</time></trkpt><trkpt lat="46.103445931398895" lon="12.409402920627087"><ele>1051.0</ele><time>2026-04-25T14:13:07Z</time></trkpt><trkpt lat="46.10355783787944" lon="12.409423823958821"><ele>1049.0</ele><time>2026-04-25T14:13:08Z</time></trkpt><trkpt lat="46.10366770783169" lon="12.409480225977864"><ele>1047.0</ele><time>2026-04-25T14:13:09Z</time></trkpt><trkpt lat="46.10378497844215" lon="12.409572441038062"><ele>1045.0</ele><time>2026-04-25T14:13:10Z</time></trkpt><trkpt lat="46.103920959380176" lon="12.409698815028142"><ele>1043.0</ele><time>2026-04-25T14:13:11Z</time></trkpt><trkpt lat="46.10404094374771" lon="12.409819302622006"><ele>1041.5</ele><time>2026-04-25T14:13:12Z</time></trkpt><trkpt lat="46.1041493691694" lon="12.409926764603895"><ele>1040.0</ele><time>2026-04-25T14:13:13Z</time></trkpt><trkpt lat="46.104253545013044" lon="12.410005391307342"><ele>1038.5</ele><time>2026-04-25T14:13:14Z</time></trkpt><trkpt lat="46.10435826641099" lon="12.410032323834335"><ele>1037.0</ele><time>2026-04-25T14:13:15Z</time></trkpt><trkpt lat="46.1044819438713" lon="12.410013394575627"><ele>1037.0</ele><time>2026-04-25T14:13:16Z</time></trkpt><trkpt lat="46.10460267305556" lon="12.409949380626719"><ele>1037.0</ele><time>2026-04-25T14:13:17Z</time></trkpt><trkpt lat="46.10472925817236" lon="12.409865533986622"><ele>1037.0</ele><time>2026-04-25T14:13:18Z</time></trkpt><trkpt lat="46.10487707676201" lon="12.409783273381949"><ele>1037.0</ele><time>2026-04-25T14:13:19Z</time></trkpt><trkpt lat="46.105040751804715" lon="12.409725647042928"><ele>1033.3333333333335</ele><time>2026-04-25T14:13:20Z</time></trkpt><trkpt lat="46.10523167963753" lon="12.409736785354582"><ele>1029.6666666666667</ele><time>2026-04-25T14:13:21Z</time></trkpt><trkpt lat="46.10542165422455" lon="12.40977935620616"><ele>1026.0</ele><time>2026-04-25T14:13:22Z</time></trkpt><trkpt lat="46.10557270730871" lon="12.409798686527887"><ele>1026.0</ele><time>2026-04-25T14:13:23Z</time></trkpt><trkpt lat="46.10568888690054" lon="12.409857804485442"><ele>1026.0</ele><time>2026-04-25T14:13:24Z</time></trkpt><trkpt lat="46.10576927869052" lon="12.409925534494917"><ele>1026.0</ele><time>2026-04-25T14:13:25Z</time></trkpt><trkpt lat="46.10582744182697" lon="12.410032806909781"><ele>1026.0</ele><time>2026-04-25T14:13:26Z</time></trkpt><trkpt lat="46.105871481283934" lon="12.410171090779544"><ele>1026.0</ele><time>2026-04-25T14:13:27Z</time></trkpt><trkpt lat="46.10590421286891" lon="12.41033848647664"><ele>1024.5</ele><time>2026-04-25T14:13:28Z</time></trkpt><trkpt lat="46.10592881911304" lon="12.410521964093922"><ele>1023.0</ele><time>2026-04-25T14:13:29Z</time></trkpt><trkpt lat="46.105944423099714" lon="12.410702108502125"><ele>1021.5</ele><time>2026-04-25T14:13:30Z</time></trkpt><trkpt lat="46.105952110012275" lon="12.410857237624697"><ele>1020.0</ele><time>2026-04-25T14:13:31Z</time></trkpt><trkpt lat="46.10597812025507" lon="12.410996099920322"><ele>1020.0</ele><time>2026-04-25T14:13:32Z</time></trkpt><trkpt lat="46.10605331465346" lon="12.411131494438363"><ele>1020.0</ele><time>2026-04-25T14:13:33Z</time></trkpt><trkpt lat="46.106151617379986" lon="12.411240117726669"><ele>1020.0</ele><time>2026-04-25T14:13:34Z</time></trkpt><trkpt lat="46.106241690036065" lon="12.411293405085187"><ele>1020.0</ele><time>2026-04-25T14:13:35Z</time></trkpt><trkpt lat="46.106313451482826" lon="12.411355114369622"><ele>1020.0</ele><time>2026-04-25T14:13:36Z</time></trkpt><trkpt lat="46.106382727088736" lon="12.411464159922755"><ele>1022.75</ele><time>2026-04-25T14:13:37Z</time></trkpt><trkpt lat="46.10644263740621" lon="12.411613392256735"><ele>1025.5</ele><time>2026-04-25T14:13:38Z</time></trkpt><trkpt lat="46.10649804118313" lon="12.411782567064929"><ele>1028.25</ele><time>2026-04-25T14:13:39Z</time></trkpt><trkpt lat="46.106547884041134" lon="12.41196445389429"><ele>1031.0</ele><time>2026-04-25T14:13:40Z</time></trkpt><trkpt lat="46.10660187810167" lon="12.412157295734314"><ele>1024.0</ele><time>2026-04-25T14:13:41Z</time></trkpt><trkpt lat="46.10666329450978" lon="12.412345162450183"><ele>1017.0</ele><time>2026-04-25T14:13:42Z</time></trkpt><trkpt lat="46.10672435382928" lon="12.412531345077923"><ele>1010.0</ele><time>2026-04-25T14:13:43Z</time></trkpt><trkpt lat="46.10679094604861" lon="12.41271387954125"><ele>1003.0</ele><time>2026-04-25T14:13:44Z</time></trkpt><trkpt lat="46.106864149681826" lon="12.412894464650268"><ele>1006.75</ele><time>2026-04-25T14:13:45Z</time></trkpt><trkpt lat="46.10694312025013" lon="12.413069555720428"><ele>1010.5</ele><time>2026-04-25T14:13:46Z</time></trkpt><trkpt lat="46.10702195906627" lon="12.413238578558987"><ele>1014.25</ele><time>2026-04-25T14:13:47Z</time></trkpt><trkpt lat="46.10711125768616" lon="12.413395356905836"><ele>1018.0</ele><time>2026-04-25T14:13:48Z</time></trkpt><trkpt lat="46.107207187371465" lon="12.413537219703038"><ele>1018.0</ele><time>2026-04-25T14:13:49Z</time></trkpt><trkpt lat="46.10731978216662" lon="12.413652648210833"><ele>1018.0</ele><time>2026-04-25T14:13:50Z</time></trkpt><trkpt lat="46.10744084928192" lon="12.413753416618222"><ele>1018.0</ele><time>2026-04-25T14:13:51Z</time></trkpt><trkpt lat="46.10758362676392" lon="12.413833100863263"><ele>1018.0</ele><time>2026-04-25T14:13:52Z</time></trkpt><trkpt lat="46.107729244201686" lon="12.41389313373325"><ele>1012.0</ele><time>2026-04-25T14:13:52.999Z</time></trkpt><trkpt lat="46.10788269089642" lon="12.413940634780866"><ele>1006.0</ele><time>2026-04-25T14:13:53.999Z</time></trkpt><trkpt lat="46.10803485899872" lon="12.413961948645305"><ele>1000.0</ele><time>2026-04-25T14:13:54.999Z</time></trkpt><trkpt lat="46.10818752865894" lon="12.413980979537985"><ele>992.3333333333333</ele><time>2026-04-25T14:13:55.999Z</time></trkpt><trkpt lat="46.108329943354974" lon="12.414026073736059"><ele>984.6666666666667</ele><time>2026-04-25T14:13:56.999Z</time></trkpt><trkpt lat="46.10846505487963" lon="12.414122566915138"><ele>977.0</ele><time>2026-04-25T14:13:57.999Z</time></trkpt><trkpt lat="46.10861422920587" lon="12.414191087611965"><ele>977.0</ele><time>2026-04-25T14:13:58.999Z</time></trkpt><trkpt lat="46.108756306362174" lon="12.414281384368785"><ele>977.0</ele><time>2026-04-25T14:13:59.999Z</time></trkpt><trkpt lat="46.108892822480485" lon="12.414373202928836"><ele>977.0</ele><time>2026-04-25T14:14:00.999Z</time></trkpt><trkpt lat="46.109030428384024" lon="12.41446103695826"><ele>976.75</ele><time>2026-04-25T14:14:01.999Z</time></trkpt><trkpt lat="46.10916753850369" lon="12.414548927364661"><ele>976.5</ele><time>2026-04-25T14:14:02.999Z</time></trkpt><trkpt lat="46.10930068331353" lon="12.414624130966978"><ele>976.25</ele><time>2026-04-25T14:14:03.999Z</time></trkpt><trkpt lat="46.109425761843916" lon="12.414699596594899"><ele>976.0</ele><time>2026-04-25T14:14:04.999Z</time></trkpt><trkpt lat="46.10953788248875" lon="12.414787415654098"><ele>976.0</ele><time>2026-04-25T14:14:05.999Z</time></trkpt><trkpt lat="46.109639390880744" lon="12.414888393728951"><ele>976.0</ele><time>2026-04-25T14:14:06.999Z</time></trkpt><trkpt lat="46.109728980286945" lon="12.415007554903413"><ele>976.0</ele><time>2026-04-25T14:14:07.999Z</time></trkpt><trkpt lat="46.10980102730379" lon="12.415148767379506"><ele>976.0</ele><time>2026-04-25T14:14:08.999Z</time></trkpt><trkpt lat="46.10985376206911" lon="12.415311066684929"><ele>976.0</ele><time>2026-04-25T14:14:09.999Z</time></trkpt><trkpt lat="46.10989958794091" lon="12.415483368008925"><ele>976.0</ele><time>2026-04-25T14:14:10.999Z</time></trkpt><trkpt lat="46.10994566525651" lon="12.415648021006419"><ele>976.0</ele><time>2026-04-25T14:14:11.999Z</time></trkpt><trkpt lat="46.10998889313623" lon="12.41580495732657"><ele>976.0</ele><time>2026-04-25T14:14:12.999Z</time></trkpt><trkpt lat="46.11003203587244" lon="12.415959769763557"><ele>973.8</ele><time>2026-04-25T14:14:13.999Z</time></trkpt><trkpt lat="46.110077669133986" lon="12.416108700143502"><ele>971.5999999999999</ele><time>2026-04-25T14:14:14.999Z</time></trkpt><trkpt lat="46.11011714397976" lon="12.416250417064106"><ele>969.4</ele><time>2026-04-25T14:14:15.999Z</time></trkpt><trkpt lat="46.11015780404847" lon="12.41638631373987"><ele>967.2</ele><time>2026-04-25T14:14:16.999Z</time></trkpt><trkpt lat="46.11019286250531" lon="12.416508259447221"><ele>965.0</ele><time>2026-04-25T14:14:17.999Z</time></trkpt><trkpt lat="46.11023280866483" lon="12.416622227614303"><ele>965.0</ele><time>2026-04-25T14:14:18.999Z</time></trkpt><trkpt lat="46.110270526624646" lon="12.41671788568007"><ele>965.0</ele><time>2026-04-25T14:14:19.999Z</time></trkpt><trkpt lat="46.1103028416768" lon="12.416803401859536"><ele>965.0</ele><time>2026-04-25T14:14:20.999Z</time></trkpt><trkpt lat="46.11033738328938" lon="12.416936219159215"><ele>965.0</ele><time>2026-04-25T14:14:22.999Z</time></trkpt><trkpt lat="46.110366422005505" lon="12.417024442819606"><ele>965.0</ele><time>2026-04-25T14:14:24.999Z</time></trkpt><trkpt lat="46.11041078427919" lon="12.417240040843394"><ele>965.5000000000001</ele><time>2026-04-25T14:15:18Z</time></trkpt><trkpt lat="46.110429250889624" lon="12.417344123796763"><ele>966.0</ele><time>2026-04-25T14:15:19Z</time></trkpt><trkpt lat="46.11044019654558" lon="12.417465418656791"><ele>966.5</ele><time>2026-04-25T14:15:20Z</time></trkpt><trkpt lat="46.11044243342727" lon="12.417590130959788"><ele>967.0</ele><time>2026-04-25T14:15:21Z</time></trkpt><trkpt lat="46.110447019982836" lon="12.41772317845416"><ele>967.5000000000001</ele><time>2026-04-25T14:15:22Z</time></trkpt><trkpt lat="46.110465386705435" lon="12.417854227883527"><ele>968.0</ele><time>2026-04-25T14:15:23Z</time></trkpt><trkpt lat="46.11051683016331" lon="12.417976329926201"><ele>966.5000000000001</ele><time>2026-04-25T14:15:24Z</time></trkpt><trkpt lat="46.110618086753696" lon="12.41804609674074"><ele>965.0</ele><time>2026-04-25T14:15:25Z</time></trkpt><trkpt lat="46.11070932252686" lon="12.41803445022617"><ele>963.5</ele><time>2026-04-25T14:15:26Z</time></trkpt><trkpt lat="46.11078695409581" lon="12.418041677157486"><ele>962.0</ele><time>2026-04-25T14:15:27Z</time></trkpt><trkpt lat="46.11086479884894" lon="12.418009338215962"><ele>960.5000000000001</ele><time>2026-04-25T14:15:28Z</time></trkpt><trkpt lat="46.110928420729536" lon="12.417936057211854"><ele>959.0</ele><time>2026-04-25T14:15:29Z</time></trkpt><trkpt lat="46.110973285368075" lon="12.417823966490184"><ele>953.75</ele><time>2026-04-25T14:15:30Z</time></trkpt><trkpt lat="46.11101126961717" lon="12.417685023614183"><ele>948.5</ele><time>2026-04-25T14:15:31Z</time></trkpt><trkpt lat="46.11105153989817" lon="12.417526867462513"><ele>943.25</ele><time>2026-04-25T14:15:32Z</time></trkpt><trkpt lat="46.11108061088399" lon="12.417348418635127"><ele>938.0</ele><time>2026-04-25T14:15:33Z</time></trkpt><trkpt lat="46.111096363993695" lon="12.417166321003899"><ele>937.75</ele><time>2026-04-25T14:15:34Z</time></trkpt><trkpt lat="46.11109696755578" lon="12.416982086488725"><ele>937.5</ele><time>2026-04-25T14:15:35Z</time></trkpt><trkpt lat="46.11107967578593" lon="12.416807991480974"><ele>937.25</ele><time>2026-04-25T14:15:36Z</time></trkpt><trkpt lat="46.11104937277209" lon="12.416649515508507"><ele>937.0</ele><time>2026-04-25T14:15:37Z</time></trkpt><trkpt lat="46.11102515796125" lon="12.416497933519295"><ele>937.0</ele><time>2026-04-25T14:15:38Z</time></trkpt><trkpt lat="46.11102235947655" lon="12.416341926347338"><ele>937.0</ele><time>2026-04-25T14:15:39Z</time></trkpt><trkpt lat="46.11103388388817" lon="12.416174104303328"><ele>937.0</ele><time>2026-04-25T14:15:40Z</time></trkpt><trkpt lat="46.111061200865215" lon="12.416003017636749"><ele>937.0</ele><time>2026-04-25T14:15:41Z</time></trkpt><trkpt lat="46.11109017382014" lon="12.415829057609123"><ele>936.5</ele><time>2026-04-25T14:15:42Z</time></trkpt><trkpt lat="46.11112483920797" lon="12.41565263096785"><ele>936.0</ele><time>2026-04-25T14:15:43Z</time></trkpt><trkpt lat="46.11117377731028" lon="12.415478577072152"><ele>935.5</ele><time>2026-04-25T14:15:44Z</time></trkpt><trkpt lat="46.11123645427432" lon="12.415323589592619"><ele>935.0</ele><time>2026-04-25T14:15:45Z</time></trkpt><trkpt lat="46.111304915999774" lon="12.415195343375157"><ele>934.0</ele><time>2026-04-25T14:15:46Z</time></trkpt><trkpt lat="46.111369634214064" lon="12.415083103153448"><ele>933.0</ele><time>2026-04-25T14:15:47Z</time></trkpt><trkpt lat="46.111414493454454" lon="12.414969406810455"><ele>932.0</ele><time>2026-04-25T14:15:48Z</time></trkpt><trkpt lat="46.11142620661549" lon="12.414844351403465"><ele>931.0</ele><time>2026-04-25T14:15:49Z</time></trkpt><trkpt lat="46.11140066345088" lon="12.414709060990244"><ele>930.0</ele><time>2026-04-25T14:15:50Z</time></trkpt><trkpt lat="46.11132368473336" lon="12.414569988120755"><ele>933.6666666666667</ele><time>2026-04-25T14:15:51Z</time></trkpt><trkpt lat="46.111218752875416" lon="12.414420452364713"><ele>937.3333333333334</ele><time>2026-04-25T14:15:52Z</time></trkpt><trkpt lat="46.111088460656624" lon="12.414216845974874"><ele>941.0</ele><time>2026-04-25T14:15:53Z</time></trkpt><trkpt lat="46.11095817720257" lon="12.41396414660888"><ele>939.0</ele><time>2026-04-25T14:15:54Z</time></trkpt><trkpt lat="46.11082896372845" lon="12.413694285094254"><ele>937.0</ele><time>2026-04-25T14:15:55Z</time></trkpt><trkpt lat="46.11070185869219" lon="12.41349189311867"><ele>935.0</ele><time>2026-04-25T14:15:56Z</time></trkpt><trkpt lat="46.11059913449984" lon="12.413312746393602"><ele>935.0</ele><time>2026-04-25T14:15:57Z</time></trkpt><trkpt lat="46.110512116907145" lon="12.413122980502463"><ele>935.0</ele><time>2026-04-25T14:15:58Z</time></trkpt><trkpt lat="46.11039768269462" lon="12.412984737428417"><ele>935.0</ele><time>2026-04-25T14:15:59Z</time></trkpt><trkpt lat="46.11029255774226" lon="12.41282586260912"><ele>940.6666666666667</ele><time>2026-04-25T14:16:00Z</time></trkpt><trkpt lat="46.11020311778936" lon="12.412634715661781"><ele>946.3333333333333</ele><time>2026-04-25T14:16:01Z</time></trkpt><trkpt lat="46.11010222388494" lon="12.412464726000513"><ele>952.0</ele><time>2026-04-25T14:16:01.999Z</time></trkpt><trkpt lat="46.109988932532616" lon="12.412315935551423"><ele>951.0</ele><time>2026-04-25T14:16:02.999Z</time></trkpt><trkpt lat="46.10986551709129" lon="12.412189581445274"><ele>950.0</ele><time>2026-04-25T14:16:03.999Z</time></trkpt><trkpt lat="46.10974223064851" lon="12.412092352401405"><ele>949.0</ele><time>2026-04-25T14:16:04.999Z</time></trkpt><trkpt lat="46.10962472846675" lon="12.412019232985442"><ele>948.0</ele><time>2026-04-25T14:16:05.999Z</time></trkpt><trkpt lat="46.109513937469664" lon="12.411955558611771"><ele>948.0</ele><time>2026-04-25T14:16:06.999Z</time></trkpt><trkpt lat="46.10941324621282" lon="12.411901964604503"><ele>948.0</ele><time>2026-04-25T14:16:07.999Z</time></trkpt><trkpt lat="46.10932508135119" lon="12.411832160932882"><ele>948.0</ele><time>2026-04-25T14:16:08.999Z</time></trkpt><trkpt lat="46.109252976019945" lon="12.41171522562124"><ele>948.0</ele><time>2026-04-25T14:16:09.999Z</time></trkpt><trkpt lat="46.10917696796892" lon="12.411592399146732"><ele>948.0</ele><time>2026-04-25T14:16:10.999Z</time></trkpt><trkpt lat="46.10913207625866" lon="12.411409315558423"><ele>949.0</ele><time>2026-04-25T14:16:11.999Z</time></trkpt><trkpt lat="46.109115738419746" lon="12.411218679281907"><ele>950.0</ele><time>2026-04-25T14:16:12.999Z</time></trkpt><trkpt lat="46.10910658583448" lon="12.411021119436883"><ele>951.0</ele><time>2026-04-25T14:16:13.999Z</time></trkpt><trkpt lat="46.1091133079466" lon="12.410813170027636"><ele>952.0</ele><time>2026-04-25T14:16:14.999Z</time></trkpt><trkpt lat="46.10913943630781" lon="12.410593823324115"><ele>951.3333333333333</ele><time>2026-04-25T14:16:15.999Z</time></trkpt><trkpt lat="46.109183067973326" lon="12.410370134387282"><ele>950.6666666666667</ele><time>2026-04-25T14:16:16.999Z</time></trkpt><trkpt lat="46.10922936513877" lon="12.410155146440001"><ele>950.0</ele><time>2026-04-25T14:16:17.999Z</time></trkpt><trkpt lat="46.10928066318497" lon="12.409957634387881"><ele>950.0</ele><time>2026-04-25T14:16:18.999Z</time></trkpt><trkpt lat="46.10931283756603" lon="12.409760627609126"><ele>950.0</ele><time>2026-04-25T14:16:19.999Z</time></trkpt><trkpt lat="46.1093346404634" lon="12.409565246785668"><ele>950.0</ele><time>2026-04-25T14:16:20.999Z</time></trkpt><trkpt lat="46.10934535552171" lon="12.40936088938992"><ele>950.0</ele><time>2026-04-25T14:16:21.999Z</time></trkpt><trkpt lat="46.109346211601064" lon="12.409177397723665"><ele>950.25</ele><time>2026-04-25T14:16:22.999Z</time></trkpt><trkpt lat="46.10934227766228" lon="12.40901542839552"><ele>950.5</ele><time>2026-04-25T14:16:23.999Z</time></trkpt><trkpt lat="46.10933266264466" lon="12.408869855844397"><ele>950.75</ele><time>2026-04-25T14:16:24.999Z</time></trkpt><trkpt lat="46.10932245532023" lon="12.408728471231932"><ele>951.0</ele><time>2026-04-25T14:16:25.999Z</time></trkpt><trkpt lat="46.10928776972185" lon="12.408216908899087"><ele>951.0</ele><time>2026-04-25T14:16:26.999Z</time></trkpt><trkpt lat="46.109295732640135" lon="12.408075477458203"><ele>950.9999999999999</ele><time>2026-04-25T14:16:27.999Z</time></trkpt><trkpt lat="46.109353992773144" lon="12.407964743453684"><ele>950.9999999999999</ele><time>2026-04-25T14:16:28.999Z</time></trkpt><trkpt lat="46.109413637578434" lon="12.407868563675613"><ele>951.0</ele><time>2026-04-25T14:16:29.999Z</time></trkpt><trkpt lat="46.10949543780201" lon="12.407803781554668"><ele>951.0</ele><time>2026-04-25T14:16:30.999Z</time></trkpt><trkpt lat="46.10958916319893" lon="12.407754978361162"><ele>951.5</ele><time>2026-04-25T14:16:31.999Z</time></trkpt><trkpt lat="46.10969661750887" lon="12.407733871508537"><ele>952.0</ele><time>2026-04-25T14:16:32.999Z</time></trkpt><trkpt lat="46.109808252994966" lon="12.407784877744882"><ele>952.5</ele><time>2026-04-25T14:16:33.999Z</time></trkpt><trkpt lat="46.10995739954519" lon="12.407788805105998"><ele>953.0</ele><time>2026-04-25T14:16:34.999Z</time></trkpt><trkpt lat="46.110101667071824" lon="12.407868641598144"><ele>954.75</ele><time>2026-04-25T14:16:35.999Z</time></trkpt><trkpt lat="46.11024251556952" lon="12.407945856415697"><ele>956.5</ele><time>2026-04-25T14:16:36.999Z</time></trkpt><trkpt lat="46.11037297010725" lon="12.408012216283725"><ele>958.25</ele><time>2026-04-25T14:16:37.999Z</time></trkpt><trkpt lat="46.110497426346924" lon="12.408079112031661"><ele>960.0</ele><time>2026-04-25T14:16:38.999Z</time></trkpt><trkpt lat="46.110619368821936" lon="12.408136922907591"><ele>959.5</ele><time>2026-04-25T14:16:39.999Z</time></trkpt><trkpt lat="46.110743272431066" lon="12.408185074712295"><ele>959.0</ele><time>2026-04-25T14:16:40.999Z</time></trkpt><trkpt lat="46.11087324612462" lon="12.408214347207153"><ele>958.5</ele><time>2026-04-25T14:16:41.999Z</time></trkpt><trkpt lat="46.11100500916025" lon="12.408212185539504"><ele>958.0</ele><time>2026-04-25T14:16:42.999Z</time></trkpt><trkpt lat="46.11113916086806" lon="12.408186823400314"><ele>958.0</ele><time>2026-04-25T14:16:43.999Z</time></trkpt><trkpt lat="46.11127502763675" lon="12.40813462494428"><ele>958.0</ele><time>2026-04-25T14:16:44.999Z</time></trkpt><trkpt lat="46.11140523185454" lon="12.40806146651473"><ele>958.0</ele><time>2026-04-25T14:16:45.999Z</time></trkpt><trkpt lat="46.11153655918283" lon="12.407968804094457"><ele>958.0</ele><time>2026-04-25T14:16:46.999Z</time></trkpt><trkpt lat="46.11166739480846" lon="12.40785757206158"><ele>955.6666666666666</ele><time>2026-04-25T14:16:47.999Z</time></trkpt><trkpt lat="46.11178900237996" lon="12.407721283213089"><ele>953.3333333333333</ele><time>2026-04-25T14:16:48.999Z</time></trkpt><trkpt lat="46.11188488630331" lon="12.407541731477163"><ele>951.0</ele><time>2026-04-25T14:16:49.999Z</time></trkpt><trkpt lat="46.11196697654985" lon="12.407379976620236"><ele>951.0</ele><time>2026-04-25T14:16:50.999Z</time></trkpt><trkpt lat="46.11204582533655" lon="12.407226484387945"><ele>951.0</ele><time>2026-04-25T14:16:51.999Z</time></trkpt><trkpt lat="46.11215494167171" lon="12.407109811672326"><ele>951.0</ele><time>2026-04-25T14:16:52.999Z</time></trkpt><trkpt lat="46.112269143214775" lon="12.406979295222639"><ele>951.0</ele><time>2026-04-25T14:16:53.999Z</time></trkpt><trkpt lat="46.11240244627782" lon="12.406880997886097"><ele>950.3333333333333</ele><time>2026-04-25T14:16:54.999Z</time></trkpt><trkpt lat="46.11253867442673" lon="12.406773703564076"><ele>949.6666666666666</ele><time>2026-04-25T14:16:55.999Z</time></trkpt><trkpt lat="46.11266197027154" lon="12.406629940442945"><ele>949.0</ele><time>2026-04-25T14:16:56.999Z</time></trkpt><trkpt lat="46.1127612283272" lon="12.406446963511677"><ele>947.0</ele><time>2026-04-25T14:16:57.999Z</time></trkpt><trkpt lat="46.11283056615644" lon="12.40623728875647"><ele>945.0</ele><time>2026-04-25T14:16:58.999Z</time></trkpt><trkpt lat="46.112872745725724" lon="12.406011749719854"><ele>943.0</ele><time>2026-04-25T14:16:59.999Z</time></trkpt><trkpt lat="46.112898221148164" lon="12.405777110013409"><ele>943.0</ele><time>2026-04-25T14:17:00.999Z</time></trkpt><trkpt lat="46.112914898647226" lon="12.40553770699498"><ele>943.0</ele><time>2026-04-25T14:17:01.999Z</time></trkpt><trkpt lat="46.11293036484424" lon="12.40529810430792"><ele>943.0</ele><time>2026-04-25T14:17:02.999Z</time></trkpt><trkpt lat="46.112957529283975" lon="12.405065091663205"><ele>940.6666666666666</ele><time>2026-04-25T14:17:03.999Z</time></trkpt><trkpt lat="46.11298768589111" lon="12.40482612038161"><ele>938.3333333333333</ele><time>2026-04-25T14:17:04.999Z</time></trkpt><trkpt lat="46.113021753365004" lon="12.404605202696292"><ele>936.0</ele><time>2026-04-25T14:17:05.999Z</time></trkpt><trkpt lat="46.113051479149846" lon="12.404384589376823"><ele>934.5</ele><time>2026-04-25T14:17:06.999Z</time></trkpt><trkpt lat="46.11307068916589" lon="12.404167359608406"><ele>933.0</ele><time>2026-04-25T14:17:07.999Z</time></trkpt><trkpt lat="46.11306298356341" lon="12.403950087874517"><ele>931.5</ele><time>2026-04-25T14:17:09Z</time></trkpt><trkpt lat="46.113043073707416" lon="12.403740984024296"><ele>930.0</ele><time>2026-04-25T14:17:10Z</time></trkpt><trkpt lat="46.11302230326347" lon="12.403551622915689"><ele>928.5</ele><time>2026-04-25T14:17:11Z</time></trkpt><trkpt lat="46.11300627666661" lon="12.40337752937809"><ele>927.0</ele><time>2026-04-25T14:17:12Z</time></trkpt><trkpt lat="46.11299406717536" lon="12.403215414326382"><ele>925.5</ele><time>2026-04-25T14:17:13Z</time></trkpt><trkpt lat="46.113000241574404" lon="12.403054870906683"><ele>924.0</ele><time>2026-04-25T14:17:14Z</time></trkpt><trkpt lat="46.113029230529" lon="12.402895908522218"><ele>923.4000000000001</ele><time>2026-04-25T14:17:15Z</time></trkpt><trkpt lat="46.11307342701327" lon="12.402749454630765"><ele>922.8000000000001</ele><time>2026-04-25T14:17:16Z</time></trkpt><trkpt lat="46.11314420882381" lon="12.402633346141872"><ele>922.1999999999999</ele><time>2026-04-25T14:17:17Z</time></trkpt><trkpt lat="46.11318938544507" lon="12.402531097051863"><ele>921.5999999999999</ele><time>2026-04-25T14:17:18Z</time></trkpt><trkpt lat="46.11323557484089" lon="12.402464116002813"><ele>921.0</ele><time>2026-04-25T14:17:19Z</time></trkpt><trkpt lat="46.11328665366908" lon="12.402345053100397"><ele>921.0</ele><time>2026-04-25T14:17:21Z</time></trkpt><trkpt lat="46.113367521743186" lon="12.40228324581118"><ele>921.0</ele><time>2026-04-25T14:17:23Z</time></trkpt><trkpt lat="46.113438794269015" lon="12.40229716934987"><ele>921.0</ele><time>2026-04-25T14:17:24Z</time></trkpt><trkpt lat="46.11352173161206" lon="12.402308696458865"><ele>921.0</ele><time>2026-04-25T14:17:25Z</time></trkpt><trkpt lat="46.113608689647116" lon="12.402315529414086"><ele>921.0</ele><time>2026-04-25T14:17:26Z</time></trkpt><trkpt lat="46.11369525532087" lon="12.402317212913436"><ele>921.0</ele><time>2026-04-25T14:17:27Z</time></trkpt><trkpt lat="46.113775360032356" lon="12.402313536003101"><ele>921.0</ele><time>2026-04-25T14:17:28Z</time></trkpt><trkpt lat="46.11385799704634" lon="12.40230960716954"><ele>921.0</ele><time>2026-04-25T14:17:29Z</time></trkpt><trkpt lat="46.11393034786823" lon="12.40230015322089"><ele>921.0</ele><time>2026-04-25T14:17:30Z</time></trkpt><trkpt lat="46.11403435627767" lon="12.40228574854866"><ele>921.0</ele><time>2026-04-25T14:17:32Z</time></trkpt><trkpt lat="46.11409336643285" lon="12.402239115333375"><ele>921.0</ele><time>2026-04-25T14:17:34Z</time></trkpt><trkpt lat="46.114145085973746" lon="12.402349682398793"><ele>921.0</ele><time>2026-04-25T14:17:37Z</time></trkpt><trkpt lat="46.11415264730851" lon="12.402523533026082"><ele>921.1666666666666</ele><time>2026-04-25T14:17:39Z</time></trkpt><trkpt lat="46.1141631919157" lon="12.40262335555014"><ele>921.3333333333333</ele><time>2026-04-25T14:17:40Z</time></trkpt><trkpt lat="46.11418669218168" lon="12.402733429387835"><ele>921.5</ele><time>2026-04-25T14:17:41Z</time></trkpt><trkpt lat="46.114213840134056" lon="12.402854099840821"><ele>921.6666666666666</ele><time>2026-04-25T14:17:42Z</time></trkpt><trkpt lat="46.11423929673999" lon="12.402977908872506"><ele>921.8333333333333</ele><time>2026-04-25T14:17:43Z</time></trkpt><trkpt lat="46.114261611361925" lon="12.403101440431072"><ele>922.0</ele><time>2026-04-25T14:17:44Z</time></trkpt><trkpt lat="46.1142807611254" lon="12.403224931445422"><ele>922.9999999999999</ele><time>2026-04-25T14:17:45Z</time></trkpt><trkpt lat="46.114302372318576" lon="12.4033446391271"><ele>924.0</ele><time>2026-04-25T14:17:46Z</time></trkpt><trkpt lat="46.114325851425356" lon="12.40346246298537"><ele>925.0</ele><time>2026-04-25T14:17:47Z</time></trkpt><trkpt lat="46.1143560113518" lon="12.403576174279559"><ele>926.0</ele><time>2026-04-25T14:17:48Z</time></trkpt><trkpt lat="46.11439032234283" lon="12.403689596028787"><ele>926.9999999999999</ele><time>2026-04-25T14:17:49Z</time></trkpt><trkpt lat="46.11442879668922" lon="12.403802282893905"><ele>928.0</ele><time>2026-04-25T14:17:50Z</time></trkpt><trkpt lat="46.11447312064769" lon="12.403918143600047"><ele>929.0</ele><time>2026-04-25T14:17:51Z</time></trkpt><trkpt lat="46.114511643541995" lon="12.404023243154539"><ele>930.0</ele><time>2026-04-25T14:17:52Z</time></trkpt><trkpt lat="46.11454583550588" lon="12.40411293100281"><ele>931.0</ele><time>2026-04-25T14:17:53Z</time></trkpt><trkpt lat="46.114584954117134" lon="12.404252367610367"><ele>932.0</ele><time>2026-04-25T14:17:55Z</time></trkpt><trkpt lat="46.11458362375189" lon="12.404077917427632"><ele>933.0</ele><time>2026-04-25T14:18:08.999Z</time></trkpt><trkpt lat="46.11452758637034" lon="12.40398578174837"><ele>933.0</ele><time>2026-04-25T14:18:09.999Z</time></trkpt><trkpt lat="46.11448653951255" lon="12.403876211168209"><ele>933.0</ele><time>2026-04-25T14:18:10.999Z</time></trkpt><trkpt lat="46.11444968896473" lon="12.403765481026198"><ele>933.0</ele><time>2026-04-25T14:18:11.999Z</time></trkpt><trkpt lat="46.1144099004138" lon="12.40365548635796"><ele>933.0</ele><time>2026-04-25T14:18:12.999Z</time></trkpt><trkpt lat="46.114370558238875" lon="12.403554828534304"><ele>933.0</ele><time>2026-04-25T14:18:13.999Z</time></trkpt><trkpt lat="46.114336772202876" lon="12.403454065269784"><ele>933.0</ele><time>2026-04-25T14:18:14.999Z</time></trkpt><trkpt lat="46.11431622917842" lon="12.403327911727674"><ele>932.1666666666666</ele><time>2026-04-25T14:18:15.999Z</time></trkpt><trkpt lat="46.11429671261857" lon="12.403203497593964"><ele>931.3333333333333</ele><time>2026-04-25T14:18:16.999Z</time></trkpt><trkpt lat="46.1142761784474" lon="12.403076071259331"><ele>930.5</ele><time>2026-04-25T14:18:17.999Z</time></trkpt><trkpt lat="46.114261684890266" lon="12.40296388466564"><ele>929.6666666666666</ele><time>2026-04-25T14:18:18.999Z</time></trkpt><trkpt lat="46.114246574749345" lon="12.402853770250713"><ele>928.8333333333333</ele><time>2026-04-25T14:18:19.999Z</time></trkpt><trkpt lat="46.114219814678876" lon="12.402741811895531"><ele>928.0</ele><time>2026-04-25T14:18:20.999Z</time></trkpt><trkpt lat="46.11420208104771" lon="12.402634200462591"><ele>926.9999999999999</ele><time>2026-04-25T14:18:21.999Z</time></trkpt><trkpt lat="46.11418525416567" lon="12.402539324163541"><ele>926.0</ele><time>2026-04-25T14:18:22.999Z</time></trkpt><trkpt lat="46.11416952382227" lon="12.402373511925823"><ele>925.0</ele><time>2026-04-25T14:18:24.999Z</time></trkpt><trkpt lat="46.114206195726354" lon="12.402260087020355"><ele>924.0</ele><time>2026-04-25T14:18:26.999Z</time></trkpt><trkpt lat="46.114304350464046" lon="12.40226166512045"><ele>922.9999999999999</ele><time>2026-04-25T14:18:28.999Z</time></trkpt><trkpt lat="46.11437496133812" lon="12.402304706053862"><ele>922.0</ele><time>2026-04-25T14:18:29.999Z</time></trkpt><trkpt lat="46.11445110646722" lon="12.402323078967763"><ele>921.9999999999999</ele><time>2026-04-25T14:18:30.999Z</time></trkpt><trkpt lat="46.114535312844204" lon="12.402355095049526"><ele>922.0</ele><time>2026-04-25T14:18:31.999Z</time></trkpt><trkpt lat="46.11462435024109" lon="12.402397550870095"><ele>922.0</ele><time>2026-04-25T14:18:32.999Z</time></trkpt><trkpt lat="46.114693103291856" lon="12.402449446010962"><ele>922.0</ele><time>2026-04-25T14:18:33.999Z</time></trkpt><trkpt lat="46.11475800011762" lon="12.402521264188149"><ele>921.9999999999999</ele><time>2026-04-25T14:18:34.999Z</time></trkpt><trkpt lat="46.1148219630693" lon="12.402594340802622"><ele>922.0</ele><time>2026-04-25T14:18:35.999Z</time></trkpt><trkpt lat="46.11487736204411" lon="12.40269241403825"><ele>921.0</ele><time>2026-04-25T14:18:36.998Z</time></trkpt><trkpt lat="46.11493918229168" lon="12.402790694755902"><ele>920.0</ele><time>2026-04-25T14:18:37.998Z</time></trkpt><trkpt lat="46.11501313001121" lon="12.402866641337807"><ele>919.0</ele><time>2026-04-25T14:18:38.998Z</time></trkpt><trkpt lat="46.11510575010253" lon="12.402914327516848"><ele>918.0</ele><time>2026-04-25T14:18:39.998Z</time></trkpt><trkpt lat="46.11520476721404" lon="12.402939486583724"><ele>917.0</ele><time>2026-04-25T14:18:40.998Z</time></trkpt><trkpt lat="46.115304246518384" lon="12.402946310374336"><ele>917.0</ele><time>2026-04-25T14:18:41.998Z</time></trkpt><trkpt lat="46.115396300184564" lon="12.402964317285063"><ele>917.0</ele><time>2026-04-25T14:18:42.998Z</time></trkpt><trkpt lat="46.1154899336382" lon="12.402879652295562"><ele>917.0</ele><time>2026-04-25T14:18:43.998Z</time></trkpt><trkpt lat="46.115573760226084" lon="12.402800699590793"><ele>917.0</ele><time>2026-04-25T14:18:44.998Z</time></trkpt><trkpt lat="46.1156395220163" lon="12.402687461967464"><ele>917.0</ele><time>2026-04-25T14:18:45.998Z</time></trkpt><trkpt lat="46.11571135357407" lon="12.402582188403136"><ele>916.2</ele><time>2026-04-25T14:18:46.998Z</time></trkpt><trkpt lat="46.11578708276333" lon="12.402486189052993"><ele>915.4000000000001</ele><time>2026-04-25T14:18:47.998Z</time></trkpt><trkpt lat="46.11586871159049" lon="12.402400782657462"><ele>914.5999999999999</ele><time>2026-04-25T14:18:48.998Z</time></trkpt><trkpt lat="46.115959567562534" lon="12.40233539495031"><ele>913.8</ele><time>2026-04-25T14:18:49.998Z</time></trkpt><trkpt lat="46.11605726807469" lon="12.402274513179707"><ele>913.0</ele><time>2026-04-25T14:18:50.998Z</time></trkpt><trkpt lat="46.11615694790776" lon="12.402221162238082"><ele>911.5999999999999</ele><time>2026-04-25T14:18:51.998Z</time></trkpt><trkpt lat="46.11625613454767" lon="12.402164269152596"><ele>910.1999999999999</ele><time>2026-04-25T14:18:52.998Z</time></trkpt><trkpt lat="46.116343532162155" lon="12.402090858069512"><ele>908.8</ele><time>2026-04-25T14:18:53.998Z</time></trkpt><trkpt lat="46.11641197841245" lon="12.401975525495235"><ele>907.4</ele><time>2026-04-25T14:18:54.998Z</time></trkpt><trkpt lat="46.11644835588031" lon="12.401813462638334"><ele>906.0</ele><time>2026-04-25T14:18:55.998Z</time></trkpt><trkpt lat="46.11648021307848" lon="12.40164480482298"><ele>906.0</ele><time>2026-04-25T14:18:56.998Z</time></trkpt><trkpt lat="46.11651291361537" lon="12.401464334934605"><ele>906.0</ele><time>2026-04-25T14:18:57.998Z</time></trkpt><trkpt lat="46.11655085862652" lon="12.401279998084103"><ele>906.0</ele><time>2026-04-25T14:18:58.998Z</time></trkpt><trkpt lat="46.11659009745829" lon="12.401114386673976"><ele>906.0</ele><time>2026-04-25T14:18:59.998Z</time></trkpt><trkpt lat="46.11663701298939" lon="12.40095811747755"><ele>904.25</ele><time>2026-04-25T14:19:00.998Z</time></trkpt><trkpt lat="46.11668846485608" lon="12.400803666189637"><ele>902.5</ele><time>2026-04-25T14:19:01.998Z</time></trkpt><trkpt lat="46.11674160774701" lon="12.400654864972003"><ele>900.75</ele><time>2026-04-25T14:19:02.998Z</time></trkpt><trkpt lat="46.11680580772892" lon="12.400513894527412"><ele>899.0</ele><time>2026-04-25T14:19:03.998Z</time></trkpt><trkpt lat="46.11687791306674" lon="12.40038691603716"><ele>896.75</ele><time>2026-04-25T14:19:04.997Z</time></trkpt><trkpt lat="46.1169566313518" lon="12.400263439778328"><ele>894.5</ele><time>2026-04-25T14:19:05.997Z</time></trkpt><trkpt lat="46.11704004127402" lon="12.40014511036456"><ele>892.25</ele><time>2026-04-25T14:19:06.997Z</time></trkpt><trkpt lat="46.117130952527944" lon="12.40003392870394"><ele>890.0</ele><time>2026-04-25T14:19:07.997Z</time></trkpt><trkpt lat="46.117228773127415" lon="12.399933524624446"><ele>890.0</ele><time>2026-04-25T14:19:08.997Z</time></trkpt><trkpt lat="46.1173309280075" lon="12.399841511146194"><ele>890.0</ele><time>2026-04-25T14:19:09.997Z</time></trkpt><trkpt lat="46.11744254170203" lon="12.399763837056625"><ele>890.0</ele><time>2026-04-25T14:19:10.997Z</time></trkpt><trkpt lat="46.1175647550431" lon="12.399695090001694"><ele>890.0</ele><time>2026-04-25T14:19:11.997Z</time></trkpt><trkpt lat="46.11768884195562" lon="12.399631266558139"><ele>887.0</ele><time>2026-04-25T14:19:12.997Z</time></trkpt><trkpt lat="46.11781718433405" lon="12.399575302469467"><ele>884.0</ele><time>2026-04-25T14:19:13.997Z</time></trkpt><trkpt lat="46.11794040724431" lon="12.399504426191736"><ele>881.0</ele><time>2026-04-25T14:19:14.999Z</time></trkpt><trkpt lat="46.118071471422795" lon="12.399462841391108"><ele>878.0</ele><time>2026-04-25T14:19:15.999Z</time></trkpt><trkpt lat="46.1181927670602" lon="12.399403000732"><ele>876.6666666666667</ele><time>2026-04-25T14:19:16.999Z</time></trkpt><trkpt lat="46.11825824970575" lon="12.399138042670643"><ele>875.3333333333333</ele><time>2026-04-25T14:19:17.999Z</time></trkpt><trkpt lat="46.118350738033044" lon="12.398972867184128"><ele>874.0</ele><time>2026-04-25T14:19:18.999Z</time></trkpt><trkpt lat="46.1184384043817" lon="12.39879300836206"><ele>871.6666666666666</ele><time>2026-04-25T14:19:19.999Z</time></trkpt><trkpt lat="46.11852844595845" lon="12.398610650779489"><ele>869.3333333333333</ele><time>2026-04-25T14:19:20.999Z</time></trkpt><trkpt lat="46.11861898348835" lon="12.398425011769003"><ele>867.0</ele><time>2026-04-25T14:19:21.999Z</time></trkpt><trkpt lat="46.11870156131512" lon="12.39823811772203"><ele>867.0</ele><time>2026-04-25T14:19:22.999Z</time></trkpt><trkpt lat="46.11877576107003" lon="12.398044091865062"><ele>867.0</ele><time>2026-04-25T14:19:23.999Z</time></trkpt><trkpt lat="46.11883398324704" lon="12.397841834331171"><ele>867.0</ele><time>2026-04-25T14:19:24.999Z</time></trkpt><trkpt lat="46.11887846988226" lon="12.39763047173923"><ele>864.5</ele><time>2026-04-25T14:19:25.999Z</time></trkpt><trkpt lat="46.11891211071501" lon="12.397428700043074"><ele>862.0</ele><time>2026-04-25T14:19:26.999Z</time></trkpt><trkpt lat="46.118942269875085" lon="12.397233323421252"><ele>859.5</ele><time>2026-04-25T14:19:27.999Z</time></trkpt><trkpt lat="46.11898561009997" lon="12.397053003679323"><ele>857.0</ele><time>2026-04-25T14:19:28.999Z</time></trkpt><trkpt lat="46.1190403803392" lon="12.396879569748318"><ele>856.75</ele><time>2026-04-25T14:19:29.999Z</time></trkpt><trkpt lat="46.11911208513051" lon="12.396711043826818"><ele>856.5</ele><time>2026-04-25T14:19:31Z</time></trkpt><trkpt lat="46.11918650252546" lon="12.39654338575066"><ele>856.25</ele><time>2026-04-25T14:19:32Z</time></trkpt><trkpt lat="46.11926191917007" lon="12.39637216275121"><ele>856.0</ele><time>2026-04-25T14:19:33Z</time></trkpt><trkpt lat="46.119340677706774" lon="12.396195061491328"><ele>856.0</ele><time>2026-04-25T14:19:34Z</time></trkpt><trkpt lat="46.11942523748984" lon="12.39601767373389"><ele>856.0</ele><time>2026-04-25T14:19:35Z</time></trkpt><trkpt lat="46.119515254625526" lon="12.395841094239284"><ele>856.0</ele><time>2026-04-25T14:19:36Z</time></trkpt><trkpt lat="46.11961256086524" lon="12.395665205464043"><ele>855.0</ele><time>2026-04-25T14:19:37Z</time></trkpt><trkpt lat="46.119716449653154" lon="12.395497854148411"><ele>854.0</ele><time>2026-04-25T14:19:38Z</time></trkpt><trkpt lat="46.11982267894116" lon="12.395333155303005"><ele>853.0</ele><time>2026-04-25T14:19:39Z</time></trkpt><trkpt lat="46.11991709207663" lon="12.395150876626468"><ele>853.0</ele><time>2026-04-25T14:19:40Z</time></trkpt><trkpt lat="46.11999641373416" lon="12.394951797699063"><ele>853.0</ele><time>2026-04-25T14:19:41Z</time></trkpt><trkpt lat="46.120060497636665" lon="12.394735227441721"><ele>853.0</ele><time>2026-04-25T14:19:42Z</time></trkpt><trkpt lat="46.12010093979594" lon="12.394513081714786"><ele>851.0</ele><time>2026-04-25T14:19:43Z</time></trkpt><trkpt lat="46.120145425683795" lon="12.394286661541537"><ele>849.0</ele><time>2026-04-25T14:19:44Z</time></trkpt><trkpt lat="46.12019218502021" lon="12.394057451620125"><ele>847.0</ele><time>2026-04-25T14:19:45Z</time></trkpt><trkpt lat="46.120241324885086" lon="12.393833301947735"><ele>845.6666666666666</ele><time>2026-04-25T14:19:46Z</time></trkpt><trkpt lat="46.12030185063397" lon="12.393623714697187"><ele>844.3333333333333</ele><time>2026-04-25T14:19:47Z</time></trkpt><trkpt lat="46.12037859307502" lon="12.393438542418135"><ele>843.0</ele><time>2026-04-25T14:19:48Z</time></trkpt><trkpt lat="46.12046815253954" lon="12.393269895830176"><ele>843.0</ele><time>2026-04-25T14:19:49Z</time></trkpt><trkpt lat="46.12056270668729" lon="12.393114828027336"><ele>843.0</ele><time>2026-04-25T14:19:50Z</time></trkpt><trkpt lat="46.12066573017511" lon="12.392970501699043"><ele>843.0</ele><time>2026-04-25T14:19:51Z</time></trkpt><trkpt lat="46.12077331355532" lon="12.392832089412863"><ele>843.0</ele><time>2026-04-25T14:19:52Z</time></trkpt><trkpt lat="46.12087928369831" lon="12.392684074791596"><ele>844.75</ele><time>2026-04-25T14:19:53Z</time></trkpt><trkpt lat="46.12097724720747" lon="12.392526716529147"><ele>846.5</ele><time>2026-04-25T14:19:54Z</time></trkpt><trkpt lat="46.121064130257594" lon="12.392364346559233"><ele>848.25</ele><time>2026-04-25T14:19:55Z</time></trkpt><trkpt lat="46.121141730742444" lon="12.392201965208617"><ele>850.0</ele><time>2026-04-25T14:19:56Z</time></trkpt><trkpt lat="46.12121902424683" lon="12.392045413619126"><ele>850.0</ele><time>2026-04-25T14:19:57Z</time></trkpt><trkpt lat="46.12129068038912" lon="12.3918882469864"><ele>850.0</ele><time>2026-04-25T14:19:58Z</time></trkpt><trkpt lat="46.12135552810678" lon="12.391747086876299"><ele>850.0</ele><time>2026-04-25T14:19:59Z</time></trkpt><trkpt lat="46.121413080210814" lon="12.391617947332144"><ele>850.0</ele><time>2026-04-25T14:20:00Z</time></trkpt><trkpt lat="46.121466545154775" lon="12.391497574027136"><ele>850.0</ele><time>2026-04-25T14:20:01Z</time></trkpt><trkpt lat="46.121524201679776" lon="12.391383603102053"><ele>850.0</ele><time>2026-04-25T14:20:02Z</time></trkpt><trkpt lat="46.12158142515356" lon="12.391273126802659"><ele>850.0</ele><time>2026-04-25T14:20:03Z</time></trkpt><trkpt lat="46.121640099329184" lon="12.391165881591384"><ele>850.0</ele><time>2026-04-25T14:20:04Z</time></trkpt><trkpt lat="46.121699203450824" lon="12.391055151774577"><ele>850.0</ele><time>2026-04-25T14:20:05Z</time></trkpt><trkpt lat="46.121758109589734" lon="12.390939452045544"><ele>852.6</ele><time>2026-04-25T14:20:06Z</time></trkpt><trkpt lat="46.121814926294206" lon="12.390817390149088"><ele>855.2</ele><time>2026-04-25T14:20:07Z</time></trkpt><trkpt lat="46.1218756534784" lon="12.390693431583193"><ele>857.8</ele><time>2026-04-25T14:20:08Z</time></trkpt><trkpt lat="46.12193898868141" lon="12.390579658564825"><ele>860.4</ele><time>2026-04-25T14:20:09Z</time></trkpt><trkpt lat="46.12200805739892" lon="12.390472789487609"><ele>863.0</ele><time>2026-04-25T14:20:10Z</time></trkpt><trkpt lat="46.12208104922832" lon="12.390367732592594"><ele>863.0</ele><time>2026-04-25T14:20:11Z</time></trkpt><trkpt lat="46.1221605810139" lon="12.390272287881194"><ele>863.0</ele><time>2026-04-25T14:20:12Z</time></trkpt><trkpt lat="46.12224391058409" lon="12.390179518018899"><ele>863.0</ele><time>2026-04-25T14:20:13Z</time></trkpt><trkpt lat="46.12232556954715" lon="12.390089827298102"><ele>863.0</ele><time>2026-04-25T14:20:14Z</time></trkpt><trkpt lat="46.12241075972683" lon="12.390001736053692"><ele>863.0</ele><time>2026-04-25T14:20:15Z</time></trkpt><trkpt lat="46.12249712215459" lon="12.389912615781714"><ele>863.2</ele><time>2026-04-25T14:20:15.999Z</time></trkpt><trkpt lat="46.12258243567334" lon="12.389831087088586"><ele>863.4</ele><time>2026-04-25T14:20:16.999Z</time></trkpt><trkpt lat="46.12267209842499" lon="12.389752882939767"><ele>863.6000000000001</ele><time>2026-04-25T14:20:17.999Z</time></trkpt><trkpt lat="46.12276524820796" lon="12.389673370483308"><ele>863.8000000000001</ele><time>2026-04-25T14:20:18.999Z</time></trkpt><trkpt lat="46.12286347563896" lon="12.38958993546957"><ele>864.0</ele><time>2026-04-25T14:20:19.999Z</time></trkpt><trkpt lat="46.12296169896193" lon="12.389508269487813"><ele>864.0</ele><time>2026-04-25T14:20:20.999Z</time></trkpt><trkpt lat="46.12305564420633" lon="12.389426091746506"><ele>864.0000000000001</ele><time>2026-04-25T14:20:21.999Z</time></trkpt><trkpt lat="46.12314300087076" lon="12.38935392688815"><ele>864.0000000000001</ele><time>2026-04-25T14:20:22.999Z</time></trkpt><trkpt lat="46.123219287536834" lon="12.389280970162758"><ele>864.0</ele><time>2026-04-25T14:20:23.999Z</time></trkpt><trkpt lat="46.123287701513846" lon="12.389209738884553"><ele>864.0</ele><time>2026-04-25T14:20:24.999Z</time></trkpt><trkpt lat="46.12334296554638" lon="12.389125711915344"><ele>862.3333333333334</ele><time>2026-04-25T14:20:25.999Z</time></trkpt><trkpt lat="46.123379462568906" lon="12.389019569605951"><ele>860.6666666666667</ele><time>2026-04-25T14:20:26.999Z</time></trkpt><trkpt lat="46.1234003341187" lon="12.388902961506528"><ele>859.0</ele><time>2026-04-25T14:20:27.999Z</time></trkpt><trkpt lat="46.12340322515357" lon="12.388773669799596"><ele>857.3333333333334</ele><time>2026-04-25T14:20:28.999Z</time></trkpt><trkpt lat="46.12340132044364" lon="12.38864815749033"><ele>855.6666666666667</ele><time>2026-04-25T14:20:29.999Z</time></trkpt><trkpt lat="46.123390093237596" lon="12.388531016745027"><ele>854.0</ele><time>2026-04-25T14:20:30.999Z</time></trkpt><trkpt lat="46.12337436540638" lon="12.388419271430816"><ele>854.0000000000001</ele><time>2026-04-25T14:20:31.999Z</time></trkpt><trkpt lat="46.123347984350886" lon="12.38830485943083"><ele>854.0</ele><time>2026-04-25T14:20:32.999Z</time></trkpt><trkpt lat="46.12332967975045" lon="12.38819799825901"><ele>854.0</ele><time>2026-04-25T14:20:33.999Z</time></trkpt><trkpt lat="46.12331891410056" lon="12.388085330872332"><ele>854.0</ele><time>2026-04-25T14:20:34.999Z</time></trkpt><trkpt lat="46.12331368005974" lon="12.387967658240207"><ele>854.0000000000001</ele><time>2026-04-25T14:20:35.999Z</time></trkpt><trkpt lat="46.12331133825811" lon="12.387842134147787"><ele>854.0</ele><time>2026-04-25T14:20:36.999Z</time></trkpt><trkpt lat="46.123310386847024" lon="12.38771706210798"><ele>854.1666666666667</ele><time>2026-04-25T14:20:37.999Z</time></trkpt><trkpt lat="46.123304613555945" lon="12.387594960430736"><ele>854.3333333333334</ele><time>2026-04-25T14:20:38.999Z</time></trkpt><trkpt lat="46.123290563308714" lon="12.387478832864666"><ele>854.5</ele><time>2026-04-25T14:20:39.999Z</time></trkpt><trkpt lat="46.123264263350265" lon="12.387359836239122"><ele>854.6666666666667</ele><time>2026-04-25T14:20:40.999Z</time></trkpt><trkpt lat="46.12323876489263" lon="12.387246496503675"><ele>854.8333333333334</ele><time>2026-04-25T14:20:41.999Z</time></trkpt><trkpt lat="46.12320955936528" lon="12.387128056507375"><ele>855.0</ele><time>2026-04-25T14:20:42.999Z</time></trkpt><trkpt lat="46.123179365535094" lon="12.38700811825137"><ele>853.1666666666666</ele><time>2026-04-25T14:20:43.999Z</time></trkpt><trkpt lat="46.12314757257168" lon="12.38688606065261"><ele>851.3333333333333</ele><time>2026-04-25T14:20:44.999Z</time></trkpt><trkpt lat="46.12310597288085" lon="12.386775244858706"><ele>849.5</ele><time>2026-04-25T14:20:45.999Z</time></trkpt><trkpt lat="46.123057211388755" lon="12.386671048263205"><ele>847.6666666666666</ele><time>2026-04-25T14:20:46.999Z</time></trkpt><trkpt lat="46.12300688761831" lon="12.386568706680087"><ele>845.8333333333333</ele><time>2026-04-25T14:20:47.999Z</time></trkpt><trkpt lat="46.122952927275115" lon="12.38646981512849"><ele>844.0</ele><time>2026-04-25T14:20:48.999Z</time></trkpt><trkpt lat="46.12289432226866" lon="12.386376623032982"><ele>844.1666666666666</ele><time>2026-04-25T14:20:49.999Z</time></trkpt><trkpt lat="46.122831202238956" lon="12.3862960589696"><ele>844.3333333333333</ele><time>2026-04-25T14:20:50.999Z</time></trkpt><trkpt lat="46.12276524192436" lon="12.386225461637315"><ele>844.5</ele><time>2026-04-25T14:20:51.999Z</time></trkpt><trkpt lat="46.12269522372829" lon="12.386161534123824"><ele>844.6666666666667</ele><time>2026-04-25T14:20:52.999Z</time></trkpt><trkpt lat="46.12262450050104" lon="12.38610311717554"><ele>844.8333333333334</ele><time>2026-04-25T14:20:53.999Z</time></trkpt><trkpt lat="46.12255203347662" lon="12.386041140068125"><ele>845.0</ele><time>2026-04-25T14:20:54.999Z</time></trkpt><trkpt lat="46.122484126566135" lon="12.385976132775294"><ele>845.0000000000001</ele><time>2026-04-25T14:20:55.999Z</time></trkpt><trkpt lat="46.122418555932356" lon="12.385906792881395"><ele>845.0</ele><time>2026-04-25T14:20:56.999Z</time></trkpt><trkpt lat="46.122356282867024" lon="12.3858240754604"><ele>845.0</ele><time>2026-04-25T14:20:57.999Z</time></trkpt><trkpt lat="46.12229944570859" lon="12.385733694827495"><ele>845.0</ele><time>2026-04-25T14:20:58.999Z</time></trkpt><trkpt lat="46.12224621144604" lon="12.38564100641153"><ele>845.0000000000001</ele><time>2026-04-25T14:20:59.999Z</time></trkpt><trkpt lat="46.12220104386864" lon="12.38553830834879"><ele>845.0</ele><time>2026-04-25T14:21:00.999Z</time></trkpt><trkpt lat="46.12216091920042" lon="12.385438779404415"><ele>842.5000000000001</ele><time>2026-04-25T14:21:01.999Z</time></trkpt><trkpt lat="46.12212985197379" lon="12.385352713462444"><ele>840.0</ele><time>2026-04-25T14:21:02.999Z</time></trkpt><trkpt lat="46.122092935520634" lon="12.385234402869221"><ele>837.5</ele><time>2026-04-25T14:21:04.999Z</time></trkpt><trkpt lat="46.12206336281226" lon="12.385145075051527"><ele>835.0</ele><time>2026-04-25T14:21:08.999Z</time></trkpt><trkpt lat="46.12200382724126" lon="12.385032206331898"><ele>832.5000000000001</ele><time>2026-04-25T14:21:11.999Z</time></trkpt><trkpt lat="46.12195340464505" lon="12.384920200983865"><ele>830.0</ele><time>2026-04-25T14:21:13.999Z</time></trkpt><trkpt lat="46.12189554979876" lon="12.38480327048491"><ele>830.0000000000001</ele><time>2026-04-25T14:21:15.999Z</time></trkpt><trkpt lat="46.12186241903873" lon="12.384704596906563"><ele>830.0</ele><time>2026-04-25T14:21:17.999Z</time></trkpt><trkpt lat="46.121798788486025" lon="12.384645523458872"><ele>830.0</ele><time>2026-04-25T14:21:34Z</time></trkpt><trkpt lat="46.12173159092385" lon="12.384519974819803"><ele>830.0</ele><time>2026-04-25T14:21:36Z</time></trkpt><trkpt lat="46.121685393991584" lon="12.384428943596578"><ele>830.0000000000001</ele><time>2026-04-25T14:21:37Z</time></trkpt><trkpt lat="46.121629100584826" lon="12.384314525997727"><ele>830.0</ele><time>2026-04-25T14:21:38Z</time></trkpt><trkpt lat="46.12156763810806" lon="12.384192255990603"><ele>827.25</ele><time>2026-04-25T14:21:39Z</time></trkpt><trkpt lat="46.121498878259494" lon="12.384055593586588"><ele>824.5</ele><time>2026-04-25T14:21:40Z</time></trkpt><trkpt lat="46.12143034640306" lon="12.383904579443563"><ele>821.75</ele><time>2026-04-25T14:21:41Z</time></trkpt><trkpt lat="46.12136242021687" lon="12.383742728919662"><ele>819.0</ele><time>2026-04-25T14:21:42Z</time></trkpt><trkpt lat="46.12129442356283" lon="12.38356980414297"><ele>819.0</ele><time>2026-04-25T14:21:43Z</time></trkpt><trkpt lat="46.12122470805801" lon="12.383396911040546"><ele>819.0</ele><time>2026-04-25T14:21:44Z</time></trkpt><trkpt lat="46.12115384987925" lon="12.383231127117321"><ele>819.0</ele><time>2026-04-25T14:21:45Z</time></trkpt><trkpt lat="46.12108428141911" lon="12.383069652670928"><ele>819.0</ele><time>2026-04-25T14:21:46Z</time></trkpt><trkpt lat="46.12101701623779" lon="12.382908767592724"><ele>818.5</ele><time>2026-04-25T14:21:47Z</time></trkpt><trkpt lat="46.12095462531288" lon="12.382752410795895"><ele>818.0</ele><time>2026-04-25T14:21:48Z</time></trkpt><trkpt lat="46.12088753848859" lon="12.38260056767565"><ele>817.5</ele><time>2026-04-25T14:21:49Z</time></trkpt><trkpt lat="46.120826519583794" lon="12.382445124129552"><ele>817.0</ele><time>2026-04-25T14:21:50Z</time></trkpt><trkpt lat="46.12076641960836" lon="12.382287314557638"><ele>805.5</ele><time>2026-04-25T14:21:51Z</time></trkpt><trkpt lat="46.1207170503578" lon="12.382114107215962"><ele>794.0</ele><time>2026-04-25T14:21:52Z</time></trkpt><trkpt lat="46.12067066891721" lon="12.381934186971291"><ele>782.5</ele><time>2026-04-25T14:21:53Z</time></trkpt><trkpt lat="46.12063275059493" lon="12.38174192602671"><ele>771.0</ele><time>2026-04-25T14:21:54Z</time></trkpt><trkpt lat="46.12060447147328" lon="12.381540361435412"><ele>772.0</ele><time>2026-04-25T14:21:55Z</time></trkpt><trkpt lat="46.12058768302107" lon="12.381333546823099"><ele>773.0</ele><time>2026-04-25T14:21:56Z</time></trkpt><trkpt lat="46.12058307716096" lon="12.381119821266354"><ele>774.0</ele><time>2026-04-25T14:21:57Z</time></trkpt><trkpt lat="46.120588807729995" lon="12.380907952423067"><ele>775.0</ele><time>2026-04-25T14:21:58Z</time></trkpt><trkpt lat="46.12060132020147" lon="12.380700047828146"><ele>776.25</ele><time>2026-04-25T14:21:59Z</time></trkpt><trkpt lat="46.12061454495855" lon="12.380493344662515"><ele>777.5</ele><time>2026-04-25T14:22:00Z</time></trkpt><trkpt lat="46.12062757864252" lon="12.38029642925503"><ele>778.75</ele><time>2026-04-25T14:22:01Z</time></trkpt><trkpt lat="46.120639643133494" lon="12.38011002285184"><ele>780.0</ele><time>2026-04-25T14:22:02Z</time></trkpt><trkpt lat="46.12065245039171" lon="12.37993076807891"><ele>780.0</ele><time>2026-04-25T14:22:03Z</time></trkpt><trkpt lat="46.120664689448866" lon="12.379763239558073"><ele>780.0</ele><time>2026-04-25T14:22:04Z</time></trkpt><trkpt lat="46.12068513754382" lon="12.37962529844239"><ele>780.0</ele><time>2026-04-25T14:22:05Z</time></trkpt><trkpt lat="46.120721346271424" lon="12.379505268709066"><ele>780.0</ele><time>2026-04-25T14:22:06Z</time></trkpt><trkpt lat="46.12079052882534" lon="12.379431587364312"><ele>780.0</ele><time>2026-04-25T14:22:07Z</time></trkpt><trkpt lat="46.12088297826428" lon="12.379403639208764"><ele>781.75</ele><time>2026-04-25T14:22:08Z</time></trkpt><trkpt lat="46.12099799877561" lon="12.379419501863037"><ele>783.5</ele><time>2026-04-25T14:22:09Z</time></trkpt><trkpt lat="46.12112217965742" lon="12.379459363030247"><ele>785.25</ele><time>2026-04-25T14:22:10Z</time></trkpt><trkpt lat="46.12126005367981" lon="12.379503195840535"><ele>787.0</ele><time>2026-04-25T14:22:11Z</time></trkpt><trkpt lat="46.12139596943572" lon="12.379540805222515"><ele>787.0</ele><time>2026-04-25T14:22:12Z</time></trkpt><trkpt lat="46.121533882676495" lon="12.37957302808859"><ele>787.0</ele><time>2026-04-25T14:22:13Z</time></trkpt><trkpt lat="46.12167096632158" lon="12.379606280795322"><ele>787.0</ele><time>2026-04-25T14:22:14Z</time></trkpt><trkpt lat="46.121806867848605" lon="12.379644286367297"><ele>787.0</ele><time>2026-04-25T14:22:15Z</time></trkpt><trkpt lat="46.121944749256066" lon="12.379687143108562"><ele>790.25</ele><time>2026-04-25T14:22:16Z</time></trkpt><trkpt lat="46.122073580054355" lon="12.37974627769298"><ele>793.5</ele><time>2026-04-25T14:22:16.999Z</time></trkpt><trkpt lat="46.122190681952155" lon="12.379821439632323"><ele>796.75</ele><time>2026-04-25T14:22:17.999Z</time></trkpt><trkpt lat="46.12229162991098" lon="12.379909630316913"><ele>800.0</ele><time>2026-04-25T14:22:18.999Z</time></trkpt><trkpt lat="46.12237552325415" lon="12.379967029801296"><ele>797.1666666666667</ele><time>2026-04-25T14:22:19.999Z</time></trkpt><trkpt lat="46.12245502837697" lon="12.380012995228903"><ele>794.3333333333334</ele><time>2026-04-25T14:22:20.999Z</time></trkpt><trkpt lat="46.12252749280657" lon="12.380010998492184"><ele>791.5</ele><time>2026-04-25T14:22:21.999Z</time></trkpt><trkpt lat="46.12258058197452" lon="12.379945094018403"><ele>788.6666666666667</ele><time>2026-04-25T14:22:22.999Z</time></trkpt><trkpt lat="46.122596278317815" lon="12.379844992083001"><ele>785.8333333333334</ele><time>2026-04-25T14:22:23.999Z</time></trkpt><trkpt lat="46.12256508853698" lon="12.379748012790056"><ele>783.0</ele><time>2026-04-25T14:22:24.999Z</time></trkpt><trkpt lat="46.122500099750596" lon="12.379672530364573"><ele>782.5</ele><time>2026-04-25T14:22:25.999Z</time></trkpt><trkpt lat="46.122401408448845" lon="12.379620478688704"><ele>782.0</ele><time>2026-04-25T14:22:26.999Z</time></trkpt><trkpt lat="46.12230466910395" lon="12.37954442298285"><ele>781.5</ele><time>2026-04-25T14:22:27.999Z</time></trkpt><trkpt lat="46.12222142842936" lon="12.37942533913535"><ele>781.0</ele><time>2026-04-25T14:22:28.999Z</time></trkpt><trkpt lat="46.1221507963456" lon="12.379273190701756"><ele>781.0</ele><time>2026-04-25T14:22:29.999Z</time></trkpt><trkpt lat="46.12207925456244" lon="12.379098452677006"><ele>781.0</ele><time>2026-04-25T14:22:30.999Z</time></trkpt><trkpt lat="46.12199975195205" lon="12.378914569943783"><ele>781.0</ele><time>2026-04-25T14:22:31.999Z</time></trkpt><trkpt lat="46.121916266703806" lon="12.378722652092609"><ele>781.0</ele><time>2026-04-25T14:22:32.999Z</time></trkpt><trkpt lat="46.12182597277081" lon="12.37852677064256"><ele>774.6666666666666</ele><time>2026-04-25T14:22:33.999Z</time></trkpt><trkpt lat="46.12173539841781" lon="12.378332908791219"><ele>768.3333333333333</ele><time>2026-04-25T14:22:34.999Z</time></trkpt><trkpt lat="46.12164305297979" lon="12.378141307911488"><ele>762.0</ele><time>2026-04-25T14:22:35.999Z</time></trkpt><trkpt lat="46.121537618226256" lon="12.377962906640384"><ele>760.0</ele><time>2026-04-25T14:22:36.999Z</time></trkpt><trkpt lat="46.12142557138559" lon="12.377795903975796"><ele>758.0</ele><time>2026-04-25T14:22:37.999Z</time></trkpt><trkpt lat="46.12132412748866" lon="12.37761208651912"><ele>756.0</ele><time>2026-04-25T14:22:38.999Z</time></trkpt><trkpt lat="46.121248045407924" lon="12.377404134259123"><ele>756.0</ele><time>2026-04-25T14:22:39.999Z</time></trkpt><trkpt lat="46.121185619540206" lon="12.377187196897802"><ele>756.0</ele><time>2026-04-25T14:22:40.999Z</time></trkpt><trkpt lat="46.12111872581846" lon="12.376975857026274"><ele>756.0</ele><time>2026-04-25T14:22:41.999Z</time></trkpt><trkpt lat="46.12102602153271" lon="12.376785933077581"><ele>750.3333333333334</ele><time>2026-04-25T14:22:42.999Z</time></trkpt><trkpt lat="46.12091003662612" lon="12.376626579658264"><ele>744.6666666666667</ele><time>2026-04-25T14:22:43.999Z</time></trkpt><trkpt lat="46.1207941064474" lon="12.376480056319917"><ele>739.0</ele><time>2026-04-25T14:22:44.999Z</time></trkpt><trkpt lat="46.12069182063035" lon="12.37634924034564"><ele>734.0</ele><time>2026-04-25T14:22:45.999Z</time></trkpt><trkpt lat="46.12060022972449" lon="12.376227837326738"><ele>729.0</ele><time>2026-04-25T14:22:46.999Z</time></trkpt><trkpt lat="46.12052203369516" lon="12.37611121143062"><ele>724.0</ele><time>2026-04-25T14:22:47.999Z</time></trkpt><trkpt lat="46.12045962549155" lon="12.375996564926155"><ele>719.0</ele><time>2026-04-25T14:22:48.999Z</time></trkpt><trkpt lat="46.12043013032963" lon="12.375868039763548"><ele>714.0</ele><time>2026-04-25T14:22:49.999Z</time></trkpt><trkpt lat="46.12043149548795" lon="12.375722181002411"><ele>714.0</ele><time>2026-04-25T14:22:50.999Z</time></trkpt><trkpt lat="46.12047185605504" lon="12.375578543207409"><ele>714.0</ele><time>2026-04-25T14:22:51.999Z</time></trkpt><trkpt lat="46.12054433265037" lon="12.375465723562435"><ele>714.0</ele><time>2026-04-25T14:22:52.999Z</time></trkpt><trkpt lat="46.12064903404666" lon="12.375411985351752"><ele>714.0</ele><time>2026-04-25T14:22:53.999Z</time></trkpt><trkpt lat="46.1207562696058" lon="12.375392346895794"><ele>714.0</ele><time>2026-04-25T14:22:54.999Z</time></trkpt><trkpt lat="46.12086200337457" lon="12.375369594451069"><ele>714.0</ele><time>2026-04-25T14:22:55.999Z</time></trkpt><trkpt lat="46.120968882563176" lon="12.375308336553948"><ele>714.0</ele><time>2026-04-25T14:22:56.999Z</time></trkpt><trkpt lat="46.12107057387083" lon="12.375209005641297"><ele>714.0</ele><time>2026-04-25T14:22:57.999Z</time></trkpt><trkpt lat="46.121174770180936" lon="12.375068957976369"><ele>714.0</ele><time>2026-04-25T14:22:58.999Z</time></trkpt><trkpt lat="46.12128317877239" lon="12.374926942148292"><ele>714.0</ele><time>2026-04-25T14:22:59.999Z</time></trkpt><trkpt lat="46.12140434184319" lon="12.3747785970187"><ele>714.0</ele><time>2026-04-25T14:23:00.999Z</time></trkpt><trkpt lat="46.12153240791386" lon="12.374620732542837"><ele>714.0</ele><time>2026-04-25T14:23:01.999Z</time></trkpt><trkpt lat="46.121662115100754" lon="12.374457526041816"><ele>710.0</ele><time>2026-04-25T14:23:02.999Z</time></trkpt><trkpt lat="46.121790844751246" lon="12.37429438266354"><ele>706.0</ele><time>2026-04-25T14:23:03.999Z</time></trkpt><trkpt lat="46.12192063806066" lon="12.37413193075488"><ele>702.0</ele><time>2026-04-25T14:23:04.999Z</time></trkpt><trkpt lat="46.12205455634257" lon="12.373972394126298"><ele>700.6666666666666</ele><time>2026-04-25T14:23:05.999Z</time></trkpt><trkpt lat="46.122193623258134" lon="12.37382195374751"><ele>699.3333333333333</ele><time>2026-04-25T14:23:06.999Z</time></trkpt><trkpt lat="46.12234251863025" lon="12.373690701500115"><ele>698.0</ele><time>2026-04-25T14:23:07.999Z</time></trkpt><trkpt lat="46.122494062396434" lon="12.37358505211859"><ele>698.0</ele><time>2026-04-25T14:23:08.999Z</time></trkpt><trkpt lat="46.122642264741174" lon="12.373496468725767"><ele>698.0</ele><time>2026-04-25T14:23:09.999Z</time></trkpt><trkpt lat="46.12276263774785" lon="12.373395825199804"><ele>698.0</ele><time>2026-04-25T14:23:10.999Z</time></trkpt><trkpt lat="46.12286310675255" lon="12.37326332400764"><ele>698.0</ele><time>2026-04-25T14:23:11.999Z</time></trkpt><trkpt lat="46.12293698326103" lon="12.37310197293637"><ele>698.25</ele><time>2026-04-25T14:23:12.999Z</time></trkpt><trkpt lat="46.123010417533436" lon="12.372931839054575"><ele>698.5</ele><time>2026-04-25T14:23:13.999Z</time></trkpt><trkpt lat="46.123090654715085" lon="12.372755392220459"><ele>698.75</ele><time>2026-04-25T14:23:14.999Z</time></trkpt><trkpt lat="46.123177980933384" lon="12.372597896023718"><ele>699.0</ele><time>2026-04-25T14:23:15.999Z</time></trkpt><trkpt lat="46.12328277042305" lon="12.372465535906068"><ele>696.3333333333334</ele><time>2026-04-25T14:23:16.999Z</time></trkpt><trkpt lat="46.12339480774709" lon="12.372365220527925"><ele>693.6666666666666</ele><time>2026-04-25T14:23:17.999Z</time></trkpt><trkpt lat="46.12349004803255" lon="12.372311577629375"><ele>691.0</ele><time>2026-04-25T14:23:18.999Z</time></trkpt><trkpt lat="46.12356026420038" lon="12.372267540168217"><ele>688.3333333333333</ele><time>2026-04-25T14:23:19.999Z</time></trkpt><trkpt lat="46.12362186137716" lon="12.372223778248397"><ele>685.6666666666666</ele><time>2026-04-25T14:23:21.999Z</time></trkpt><trkpt lat="46.12364944612773" lon="12.372308791268763"><ele>683.0</ele><time>2026-04-25T14:24:22Z</time></trkpt><trkpt lat="46.12372455299644" lon="12.372214583704867"><ele>684.4</ele><time>2026-04-25T14:24:43.999Z</time></trkpt><trkpt lat="46.12378348759205" lon="12.372168982086603"><ele>685.8</ele><time>2026-04-25T14:24:44.999Z</time></trkpt><trkpt lat="46.123858427771566" lon="12.372081792658216"><ele>687.2</ele><time>2026-04-25T14:24:45.999Z</time></trkpt><trkpt lat="46.12393013434331" lon="12.371984112170018"><ele>688.6</ele><time>2026-04-25T14:24:46.999Z</time></trkpt><trkpt lat="46.12399472025117" lon="12.37187275288733"><ele>690.0</ele><time>2026-04-25T14:24:47.999Z</time></trkpt><trkpt lat="46.12405715871343" lon="12.371759310184652"><ele>686.0</ele><time>2026-04-25T14:24:48.999Z</time></trkpt><trkpt lat="46.12411678971181" lon="12.371641488279739"><ele>682.0</ele><time>2026-04-25T14:24:49.999Z</time></trkpt><trkpt lat="46.12418115049754" lon="12.371524740285656"><ele>678.0</ele><time>2026-04-25T14:24:50.999Z</time></trkpt><trkpt lat="46.12424869721271" lon="12.37140457638601"><ele>674.0</ele><time>2026-04-25T14:24:51.999Z</time></trkpt><trkpt lat="46.124320678942205" lon="12.371302716063974"><ele>670.0</ele><time>2026-04-25T14:24:52.999Z</time></trkpt><trkpt lat="46.1244001782806" lon="12.37119663469714"><ele>670.0</ele><time>2026-04-25T14:24:53.999Z</time></trkpt><trkpt lat="46.12447580206473" lon="12.371092188115965"><ele>670.0</ele><time>2026-04-25T14:24:54.999Z</time></trkpt><trkpt lat="46.12455903116149" lon="12.37100041379919"><ele>670.0</ele><time>2026-04-25T14:24:55.999Z</time></trkpt><trkpt lat="46.12465768541625" lon="12.370927622293358"><ele>670.0</ele><time>2026-04-25T14:24:56.999Z</time></trkpt><trkpt lat="46.12477311865284" lon="12.370886803238587"><ele>670.0</ele><time>2026-04-25T14:24:57.999Z</time></trkpt><trkpt lat="46.12487751097547" lon="12.370843472515832"><ele>665.4</ele><time>2026-04-25T14:24:58.999Z</time></trkpt><trkpt lat="46.124984056905554" lon="12.370806019972694"><ele>660.8</ele><time>2026-04-25T14:24:59.999Z</time></trkpt><trkpt lat="46.12508271673422" lon="12.370762680546372"><ele>656.2</ele><time>2026-04-25T14:25:00.999Z</time></trkpt><trkpt lat="46.12517079090306" lon="12.370706989740919"><ele>651.6</ele><time>2026-04-25T14:25:01.999Z</time></trkpt><trkpt lat="46.12525659338739" lon="12.370627283169009"><ele>647.0</ele><time>2026-04-25T14:25:02.999Z</time></trkpt><trkpt lat="46.12532364268088" lon="12.370512636498862"><ele>646.0</ele><time>2026-04-25T14:25:03.999Z</time></trkpt><trkpt lat="46.125357074643475" lon="12.370371162373422"><ele>645.0</ele><time>2026-04-25T14:25:04.999Z</time></trkpt><trkpt lat="46.125384232224555" lon="12.370219725990244"><ele>644.0</ele><time>2026-04-25T14:25:05.999Z</time></trkpt><trkpt lat="46.12542684690893" lon="12.370067184203066"><ele>643.0</ele><time>2026-04-25T14:25:06.999Z</time></trkpt><trkpt lat="46.12548413259872" lon="12.369921820405645"><ele>642.0</ele><time>2026-04-25T14:25:07.999Z</time></trkpt><trkpt lat="46.1255449075382" lon="12.369784398615021"><ele>637.4</ele><time>2026-04-25T14:25:08.999Z</time></trkpt><trkpt lat="46.12560550463886" lon="12.369645738142035"><ele>632.8000000000001</ele><time>2026-04-25T14:25:09.999Z</time></trkpt><trkpt lat="46.12564718890972" lon="12.369519428167742"><ele>628.2</ele><time>2026-04-25T14:25:10.999Z</time></trkpt><trkpt lat="46.12568442235596" lon="12.369402998083878"><ele>623.6</ele><time>2026-04-25T14:25:11.999Z</time></trkpt><trkpt lat="46.12572636451911" lon="12.369325867412869"><ele>619.0</ele><time>2026-04-25T14:25:12.999Z</time></trkpt><trkpt lat="46.12583111897825" lon="12.369316398800503"><ele>619.0</ele><time>2026-04-25T14:25:14.999Z</time></trkpt><trkpt lat="46.125867462577204" lon="12.369392963865229"><ele>619.0</ele><time>2026-04-25T14:25:15.999Z</time></trkpt><trkpt lat="46.125857376556695" lon="12.36950677021205"><ele>619.0</ele><time>2026-04-25T14:25:16.999Z</time></trkpt><trkpt lat="46.125815934403875" lon="12.369645129034076"><ele>619.0</ele><time>2026-04-25T14:25:17.999Z</time></trkpt><trkpt lat="46.125789562340046" lon="12.369791116984649"><ele>619.0</ele><time>2026-04-25T14:25:18.999Z</time></trkpt><trkpt lat="46.125806625105355" lon="12.369956837149793"><ele>621.25</ele><time>2026-04-25T14:25:19.999Z</time></trkpt><trkpt lat="46.125875438626906" lon="12.37011396839181"><ele>623.5</ele><time>2026-04-25T14:25:20.999Z</time></trkpt><trkpt lat="46.12595452683955" lon="12.370246617739719"><ele>625.75</ele><time>2026-04-25T14:25:21.999Z</time></trkpt><trkpt lat="46.12603220346898" lon="12.370370203261652"><ele>628.0</ele><time>2026-04-25T14:25:22.999Z</time></trkpt><trkpt lat="46.12610515277106" lon="12.37046802753921"><ele>628.0</ele><time>2026-04-25T14:25:23.999Z</time></trkpt><trkpt lat="46.12617235762751" lon="12.370531620356667"><ele>628.0</ele><time>2026-04-25T14:25:24.999Z</time></trkpt><trkpt lat="46.12625152775259" lon="12.37053666013709"><ele>628.0</ele><time>2026-04-25T14:25:25.999Z</time></trkpt><trkpt lat="46.12632575496767" lon="12.370475040260768"><ele>628.0</ele><time>2026-04-25T14:25:26.999Z</time></trkpt><trkpt lat="46.126379088937114" lon="12.370376959544707"><ele>628.0</ele><time>2026-04-25T14:25:27.999Z</time></trkpt><trkpt lat="46.1263791476319" lon="12.370236223028849"><ele>628.0</ele><time>2026-04-25T14:25:28.999Z</time></trkpt><trkpt lat="46.12633708515807" lon="12.37008749914825"><ele>628.0</ele><time>2026-04-25T14:25:29.999Z</time></trkpt><trkpt lat="46.12628121136916" lon="12.369952767555608"><ele>628.0</ele><time>2026-04-25T14:25:30.999Z</time></trkpt><trkpt lat="46.126254662898525" lon="12.36981342448263"><ele>628.0</ele><time>2026-04-25T14:25:31.999Z</time></trkpt><trkpt lat="46.12624799763778" lon="12.369670308790969"><ele>628.0</ele><time>2026-04-25T14:25:33Z</time></trkpt><trkpt lat="46.126272426880526" lon="12.369517993823195"><ele>628.0</ele><time>2026-04-25T14:25:34Z</time></trkpt><trkpt lat="46.12632036924492" lon="12.369368353978661"><ele>625.75</ele><time>2026-04-25T14:25:35Z</time></trkpt><trkpt lat="46.12638255699549" lon="12.369229564717893"><ele>623.5</ele><time>2026-04-25T14:25:36Z</time></trkpt><trkpt lat="46.126416360180606" lon="12.369077580934636"><ele>621.25</ele><time>2026-04-25T14:25:37Z</time></trkpt><trkpt lat="46.126423545319874" lon="12.368916459512205"><ele>619.0</ele><time>2026-04-25T14:25:38Z</time></trkpt><trkpt lat="46.126399133774456" lon="12.368750676151937"><ele>614.25</ele><time>2026-04-25T14:25:39Z</time></trkpt><trkpt lat="46.126347798673535" lon="12.36859100959013"><ele>609.5</ele><time>2026-04-25T14:25:40Z</time></trkpt><trkpt lat="46.126282873259505" lon="12.36843959628631"><ele>604.75</ele><time>2026-04-25T14:25:41Z</time></trkpt><trkpt lat="46.126196064501" lon="12.36831726766296"><ele>600.0</ele><time>2026-04-25T14:25:42Z</time></trkpt><trkpt lat="46.12608776159294" lon="12.368222037535762"><ele>600.0</ele><time>2026-04-25T14:25:43Z</time></trkpt><trkpt lat="46.1259718367558" lon="12.36816708505091"><ele>600.0</ele><time>2026-04-25T14:25:44Z</time></trkpt><trkpt lat="46.12584972599923" lon="12.368144942423417"><ele>600.0</ele><time>2026-04-25T14:25:45Z</time></trkpt><trkpt lat="46.12571689585289" lon="12.368180677478012"><ele>600.0</ele><time>2026-04-25T14:25:46Z</time></trkpt><trkpt lat="46.125596614377926" lon="12.368233585625616"><ele>597.5</ele><time>2026-04-25T14:25:47Z</time></trkpt><trkpt lat="46.125482878099106" lon="12.368322245408448"><ele>595.0</ele><time>2026-04-25T14:25:48Z</time></trkpt><trkpt lat="46.12537826146051" lon="12.36841399980411"><ele>592.5</ele><time>2026-04-25T14:25:49Z</time></trkpt><trkpt lat="46.12526008066676" lon="12.368459105363504"><ele>590.0</ele><time>2026-04-25T14:25:50Z</time></trkpt><trkpt lat="46.12513594502871" lon="12.36846272163683"><ele>590.0</ele><time>2026-04-25T14:25:51Z</time></trkpt><trkpt lat="46.12500996291249" lon="12.368441219560953"><ele>590.0</ele><time>2026-04-25T14:25:52Z</time></trkpt><trkpt lat="46.124888847446975" lon="12.368401816652026"><ele>590.0</ele><time>2026-04-25T14:25:53Z</time></trkpt><trkpt lat="46.12477082638144" lon="12.368346644124243"><ele>590.0</ele><time>2026-04-25T14:25:54Z</time></trkpt><trkpt lat="46.12467437921174" lon="12.368292146999776"><ele>590.8333333333333</ele><time>2026-04-25T14:25:55Z</time></trkpt><trkpt lat="46.124602198302014" lon="12.368226264433329"><ele>591.6666666666666</ele><time>2026-04-25T14:25:56Z</time></trkpt><trkpt lat="46.12456828061898" lon="12.368126414232101"><ele>592.5</ele><time>2026-04-25T14:25:57Z</time></trkpt><trkpt lat="46.12458618524618" lon="12.36801035143471"><ele>593.3333333333334</ele><time>2026-04-25T14:25:58Z</time></trkpt><trkpt lat="46.124642583571564" lon="12.367944484119105"><ele>594.1666666666667</ele><time>2026-04-25T14:25:59Z</time></trkpt><trkpt lat="46.1247394189968" lon="12.367947922819782"><ele>595.0</ele><time>2026-04-25T14:26:00Z</time></trkpt><trkpt lat="46.12483625623308" lon="12.367985199198536"><ele>589.25</ele><time>2026-04-25T14:26:01Z</time></trkpt><trkpt lat="46.1249368396372" lon="12.368000594778122"><ele>583.5</ele><time>2026-04-25T14:26:02Z</time></trkpt><trkpt lat="46.12504304850218" lon="12.367963349988061"><ele>577.75</ele><time>2026-04-25T14:26:03Z</time></trkpt><trkpt lat="46.12514594985251" lon="12.367857839991945"><ele>572.0</ele><time>2026-04-25T14:26:04Z</time></trkpt><trkpt lat="46.12521676269508" lon="12.367722584479143"><ele>572.0</ele><time>2026-04-25T14:26:05Z</time></trkpt><trkpt lat="46.12529719402462" lon="12.367575629957866"><ele>572.0</ele><time>2026-04-25T14:26:06Z</time></trkpt><trkpt lat="46.12539669386784" lon="12.367488428475708"><ele>572.0</ele><time>2026-04-25T14:26:07Z</time></trkpt><trkpt lat="46.12551375319358" lon="12.367410458721967"><ele>572.0</ele><time>2026-04-25T14:26:08Z</time></trkpt><trkpt lat="46.12563723709423" lon="12.367360499624617"><ele>573.75</ele><time>2026-04-25T14:26:09Z</time></trkpt><trkpt lat="46.125759820177656" lon="12.367323016470136"><ele>575.5</ele><time>2026-04-25T14:26:10Z</time></trkpt><trkpt lat="46.12587762916614" lon="12.3672631539211"><ele>577.25</ele><time>2026-04-25T14:26:11Z</time></trkpt><trkpt lat="46.12598747267795" lon="12.367154138648205"><ele>579.0</ele><time>2026-04-25T14:26:12Z</time></trkpt><trkpt lat="46.12608283131402" lon="12.367026785567347"><ele>573.25</ele><time>2026-04-25T14:26:13Z</time></trkpt><trkpt lat="46.12617591683734" lon="12.366898884035088"><ele>567.5</ele><time>2026-04-25T14:26:14Z</time></trkpt><trkpt lat="46.1262663459719" lon="12.366777186241155"><ele>561.75</ele><time>2026-04-25T14:26:15Z</time></trkpt><trkpt lat="46.12636716585726" lon="12.366684700885886"><ele>556.0</ele><time>2026-04-25T14:26:16Z</time></trkpt><trkpt lat="46.126476370877484" lon="12.366636562881197"><ele>556.6</ele><time>2026-04-25T14:26:17Z</time></trkpt><trkpt lat="46.126582503752196" lon="12.366644750330748"><ele>557.2</ele><time>2026-04-25T14:26:18Z</time></trkpt><trkpt lat="46.1266783225743" lon="12.36668586363157"><ele>557.8</ele><time>2026-04-25T14:26:19Z</time></trkpt><trkpt lat="46.126756822784145" lon="12.366741501172772"><ele>558.4</ele><time>2026-04-25T14:26:20Z</time></trkpt><trkpt lat="46.126834180351985" lon="12.366731074011355"><ele>559.0</ele><time>2026-04-25T14:26:21Z</time></trkpt><trkpt lat="46.126881937135295" lon="12.366640628350703"><ele>559.0</ele><time>2026-04-25T14:26:22Z</time></trkpt><trkpt lat="46.126871627640206" lon="12.366525087696283"><ele>559.0</ele><time>2026-04-25T14:26:23Z</time></trkpt><trkpt lat="46.12682556570871" lon="12.366425346267178"><ele>559.0</ele><time>2026-04-25T14:26:24Z</time></trkpt><trkpt lat="46.12673145058054" lon="12.366361290136604"><ele>559.0</ele><time>2026-04-25T14:26:25Z</time></trkpt><trkpt lat="46.12661904106082" lon="12.366289716526737"><ele>559.0</ele><time>2026-04-25T14:26:26Z</time></trkpt><trkpt lat="46.12649448513617" lon="12.366222633602645"><ele>555.5</ele><time>2026-04-25T14:26:27Z</time></trkpt><trkpt lat="46.12636022392877" lon="12.366174377299382"><ele>552.0</ele><time>2026-04-25T14:26:28Z</time></trkpt><trkpt lat="46.12622346162964" lon="12.366143765155977"><ele>548.5</ele><time>2026-04-25T14:26:29Z</time></trkpt><trkpt lat="46.126086638201954" lon="12.366125017754838"><ele>545.0</ele><time>2026-04-25T14:26:30Z</time></trkpt><trkpt lat="46.12596190915022" lon="12.36610425736298"><ele>545.0</ele><time>2026-04-25T14:26:31Z</time></trkpt><trkpt lat="46.125850552141664" lon="12.366071089470902"><ele>545.0</ele><time>2026-04-25T14:26:31.999Z</time></trkpt><trkpt lat="46.1257572100805" lon="12.366005273314254"><ele>545.0</ele><time>2026-04-25T14:26:32.999Z</time></trkpt><trkpt lat="46.125687758019815" lon="12.365885247268261"><ele>545.0</ele><time>2026-04-25T14:26:33.999Z</time></trkpt><trkpt lat="46.12564186396418" lon="12.365727800855277"><ele>545.0</ele><time>2026-04-25T14:26:34.999Z</time></trkpt><trkpt lat="46.12561193276778" lon="12.365561074929884"><ele>540.25</ele><time>2026-04-25T14:26:35.999Z</time></trkpt><trkpt lat="46.1255545289054" lon="12.365400808059972"><ele>535.5</ele><time>2026-04-25T14:26:36.999Z</time></trkpt><trkpt lat="46.12546751279122" lon="12.365276895844037"><ele>530.75</ele><time>2026-04-25T14:26:37.999Z</time></trkpt><trkpt lat="46.12535894957407" lon="12.365197297515849"><ele>526.0</ele><time>2026-04-25T14:26:38.999Z</time></trkpt><trkpt lat="46.12525178736857" lon="12.365174910638357"><ele>526.0</ele><time>2026-04-25T14:26:39.999Z</time></trkpt><trkpt lat="46.12514392925314" lon="12.365171192739892"><ele>526.0</ele><time>2026-04-25T14:26:40.999Z</time></trkpt><trkpt lat="46.125061217936945" lon="12.365196421866614"><ele>526.0</ele><time>2026-04-25T14:26:41.999Z</time></trkpt><trkpt lat="46.12499075040347" lon="12.365184419981837"><ele>526.0</ele><time>2026-04-25T14:26:42.999Z</time></trkpt><trkpt lat="46.12493452734679" lon="12.365118300470455"><ele>526.0</ele><time>2026-04-25T14:26:43.999Z</time></trkpt><trkpt lat="46.12491734892951" lon="12.365003233293105"><ele>526.0</ele><time>2026-04-25T14:26:44.999Z</time></trkpt><trkpt lat="46.12495287954201" lon="12.364865533042742"><ele>526.0</ele><time>2026-04-25T14:26:45.999Z</time></trkpt><trkpt lat="46.125021421148205" lon="12.364713494963521"><ele>526.0</ele><time>2026-04-25T14:26:46.999Z</time></trkpt><trkpt lat="46.12508969018729" lon="12.364540174250301"><ele>526.0</ele><time>2026-04-25T14:26:47.999Z</time></trkpt><trkpt lat="46.12516011671452" lon="12.364357870082841"><ele>526.0</ele><time>2026-04-25T14:26:48.999Z</time></trkpt><trkpt lat="46.125226918110165" lon="12.3641762834297"><ele>523.5</ele><time>2026-04-25T14:26:49.999Z</time></trkpt><trkpt lat="46.12529618284879" lon="12.363993981301006"><ele>521.0</ele><time>2026-04-25T14:26:50.999Z</time></trkpt><trkpt lat="46.125368135260246" lon="12.363833261051626"><ele>518.5</ele><time>2026-04-25T14:26:51.999Z</time></trkpt><trkpt lat="46.12544616916151" lon="12.363719317726698"><ele>516.0</ele><time>2026-04-25T14:26:52.999Z</time></trkpt><trkpt lat="46.12554231760299" lon="12.363653938930499"><ele>514.75</ele><time>2026-04-25T14:26:53.999Z</time></trkpt><trkpt lat="46.12566410805136" lon="12.363640730917318"><ele>513.5</ele><time>2026-04-25T14:26:54.999Z</time></trkpt><trkpt lat="46.125801450996555" lon="12.363653297356144"><ele>512.25</ele><time>2026-04-25T14:26:55.999Z</time></trkpt><trkpt lat="46.125937365912584" lon="12.363661818630494"><ele>511.0</ele><time>2026-04-25T14:26:56.999Z</time></trkpt><trkpt lat="46.126073037514594" lon="12.363658973232521"><ele>511.0</ele><time>2026-04-25T14:26:57.999Z</time></trkpt><trkpt lat="46.12619505995228" lon="12.363639909481785"><ele>511.0</ele><time>2026-04-25T14:26:58.999Z</time></trkpt><trkpt lat="46.1262924306021" lon="12.3635761357353"><ele>511.0</ele><time>2026-04-25T14:26:59.999Z</time></trkpt><trkpt lat="46.12636162612732" lon="12.363461193310268"><ele>511.0</ele><time>2026-04-25T14:27:00.999Z</time></trkpt><trkpt lat="46.12638803164584" lon="12.363319251910484"><ele>511.0</ele><time>2026-04-25T14:27:01.999Z</time></trkpt><trkpt lat="46.126393812491905" lon="12.363163189815754"><ele>511.4</ele><time>2026-04-25T14:27:02.999Z</time></trkpt><trkpt lat="46.12639749249553" lon="12.363016192443133"><ele>511.8</ele><time>2026-04-25T14:27:03.999Z</time></trkpt><trkpt lat="46.12642009058844" lon="12.362892482839444"><ele>512.1999999999999</ele><time>2026-04-25T14:27:04.999Z</time></trkpt><trkpt lat="46.126469836509244" lon="12.362776453395236"><ele>512.6</ele><time>2026-04-25T14:27:05.999Z</time></trkpt><trkpt lat="46.12653914415429" lon="12.362688104383762"><ele>513.0</ele><time>2026-04-25T14:27:06.999Z</time></trkpt><trkpt lat="46.1266360084578" lon="12.362636017231475"><ele>511.2</ele><time>2026-04-25T14:27:07.999Z</time></trkpt><trkpt lat="46.12674258162817" lon="12.36258933283138"><ele>509.4</ele><time>2026-04-25T14:27:08.999Z</time></trkpt><trkpt lat="46.12685198113102" lon="12.362536118038793"><ele>507.59999999999997</ele><time>2026-04-25T14:27:09.999Z</time></trkpt><trkpt lat="46.126955389830336" lon="12.362502555605719"><ele>505.79999999999995</ele><time>2026-04-25T14:27:10.999Z</time></trkpt><trkpt lat="46.127067362888184" lon="12.362495929348709"><ele>504.0</ele><time>2026-04-25T14:27:11.999Z</time></trkpt><trkpt lat="46.12719779112134" lon="12.362514358720462"><ele>504.0</ele><time>2026-04-25T14:27:12.999Z</time></trkpt><trkpt lat="46.12732815110703" lon="12.362556223845335"><ele>504.0</ele><time>2026-04-25T14:27:13.999Z</time></trkpt><trkpt lat="46.12746025918372" lon="12.362595397264615"><ele>504.0</ele><time>2026-04-25T14:27:14.999Z</time></trkpt><trkpt lat="46.12759269309213" lon="12.362638052226542"><ele>504.0</ele><time>2026-04-25T14:27:15.999Z</time></trkpt><trkpt lat="46.1277244722345" lon="12.362682404619175"><ele>501.75</ele><time>2026-04-25T14:27:16.999Z</time></trkpt><trkpt lat="46.12785211481535" lon="12.36270097537917"><ele>499.5</ele><time>2026-04-25T14:27:17.999Z</time></trkpt><trkpt lat="46.12799400956973" lon="12.36269401114846"><ele>497.25</ele><time>2026-04-25T14:27:18.999Z</time></trkpt><trkpt lat="46.12813643510496" lon="12.362656829828108"><ele>495.0</ele><time>2026-04-25T14:27:19.999Z</time></trkpt><trkpt lat="46.12826985933953" lon="12.362620648090674"><ele>492.8</ele><time>2026-04-25T14:27:20.999Z</time></trkpt><trkpt lat="46.12838576145464" lon="12.36262565250824"><ele>490.6</ele><time>2026-04-25T14:27:21.999Z</time></trkpt><trkpt lat="46.128478170667734" lon="12.36267894375322"><ele>488.4</ele><time>2026-04-25T14:27:22.999Z</time></trkpt><trkpt lat="46.12855202089873" lon="12.362769394287922"><ele>486.2</ele><time>2026-04-25T14:27:23.999Z</time></trkpt><trkpt lat="46.12859896818018" lon="12.362869481112835"><ele>484.0</ele><time>2026-04-25T14:27:24.999Z</time></trkpt><trkpt lat="46.12866094130089" lon="12.362913438545114"><ele>484.00000000000006</ele><time>2026-04-25T14:27:25.999Z</time></trkpt><trkpt lat="46.12872451646747" lon="12.362890875908539"><ele>484.0</ele><time>2026-04-25T14:27:26.999Z</time></trkpt><trkpt lat="46.128766506703684" lon="12.362805245753197"><ele>484.0</ele><time>2026-04-25T14:27:27.999Z</time></trkpt><trkpt lat="46.12876476586134" lon="12.362697066383141"><ele>484.0</ele><time>2026-04-25T14:27:28.999Z</time></trkpt><trkpt lat="46.12869742361535" lon="12.362585799975786"><ele>484.00000000000006</ele><time>2026-04-25T14:27:29.999Z</time></trkpt><trkpt lat="46.12861802847251" lon="12.3624765485329"><ele>484.0</ele><time>2026-04-25T14:27:30.999Z</time></trkpt><trkpt lat="46.128541571419355" lon="12.362339943607989"><ele>480.5</ele><time>2026-04-25T14:27:31.999Z</time></trkpt><trkpt lat="46.12846333287908" lon="12.362186198894008"><ele>477.0</ele><time>2026-04-25T14:27:32.999Z</time></trkpt><trkpt lat="46.1283923030981" lon="12.362028243802914"><ele>473.5</ele><time>2026-04-25T14:27:33.999Z</time></trkpt><trkpt lat="46.12832045142192" lon="12.361874104038778"><ele>470.0</ele><time>2026-04-25T14:27:34.999Z</time></trkpt><trkpt lat="46.12824214865796" lon="12.361727982257364"><ele>470.0</ele><time>2026-04-25T14:27:35.999Z</time></trkpt><trkpt lat="46.12815282436451" lon="12.361587855542117"><ele>470.0</ele><time>2026-04-25T14:27:36.999Z</time></trkpt><trkpt lat="46.12804851413939" lon="12.361472487732199"><ele>470.0</ele><time>2026-04-25T14:27:37.999Z</time></trkpt><trkpt lat="46.12794145018071" lon="12.361364565414897"><ele>470.0</ele><time>2026-04-25T14:27:39Z</time></trkpt><trkpt lat="46.1278431429807" lon="12.361256916672678"><ele>470.0</ele><time>2026-04-25T14:27:40Z</time></trkpt><trkpt lat="46.127770258479266" lon="12.361120735423636"><ele>470.0</ele><time>2026-04-25T14:27:41Z</time></trkpt><trkpt lat="46.127729922492875" lon="12.360942358906055"><ele>470.0</ele><time>2026-04-25T14:27:42Z</time></trkpt><trkpt lat="46.12772335244886" lon="12.36074567956518"><ele>470.0</ele><time>2026-04-25T14:27:43Z</time></trkpt><trkpt lat="46.127713728691056" lon="12.360551221635257"><ele>466.75</ele><time>2026-04-25T14:27:44Z</time></trkpt><trkpt lat="46.12766806777794" lon="12.3603584317773"><ele>463.5</ele><time>2026-04-25T14:27:45Z</time></trkpt><trkpt lat="46.12759615353243" lon="12.360179326398248"><ele>460.25</ele><time>2026-04-25T14:27:46Z</time></trkpt><trkpt lat="46.12750994411949" lon="12.359994685687402"><ele>457.0</ele><time>2026-04-25T14:27:47Z</time></trkpt><trkpt lat="46.12742379112338" lon="12.359814154220947"><ele>457.33333333333337</ele><time>2026-04-25T14:27:48Z</time></trkpt><trkpt lat="46.127335325501726" lon="12.35963402388905"><ele>457.66666666666663</ele><time>2026-04-25T14:27:49Z</time></trkpt><trkpt lat="46.12723519070669" lon="12.35944996844017"><ele>458.0</ele><time>2026-04-25T14:27:50Z</time></trkpt><trkpt lat="46.12712720281131" lon="12.359275728262046"><ele>458.0</ele><time>2026-04-25T14:27:51Z</time></trkpt><trkpt lat="46.12701275629212" lon="12.359102566746918"><ele>458.0</ele><time>2026-04-25T14:27:52Z</time></trkpt><trkpt lat="46.1268917043744" lon="12.358933810923338"><ele>458.0</ele><time>2026-04-25T14:27:53Z</time></trkpt><trkpt lat="46.126778742069476" lon="12.358749802527763"><ele>458.66666666666663</ele><time>2026-04-25T14:27:54Z</time></trkpt><trkpt lat="46.12668060769437" lon="12.358555287575157"><ele>459.33333333333337</ele><time>2026-04-25T14:27:55Z</time></trkpt><trkpt lat="46.126592181905984" lon="12.358347862324619"><ele>460.0</ele><time>2026-04-25T14:27:56Z</time></trkpt><trkpt lat="46.126502250680176" lon="12.358148504328476"><ele>454.0</ele><time>2026-04-25T14:27:57Z</time></trkpt><trkpt lat="46.126398860490994" lon="12.357964101885448"><ele>448.0</ele><time>2026-04-25T14:27:58Z</time></trkpt><trkpt lat="46.1262906128636" lon="12.357784729563898"><ele>442.0</ele><time>2026-04-25T14:27:59Z</time></trkpt><trkpt lat="46.12618944446741" lon="12.357593448493033"><ele>442.0</ele><time>2026-04-25T14:28:00Z</time></trkpt><trkpt lat="46.126107465729895" lon="12.357398360308423"><ele>442.0</ele><time>2026-04-25T14:28:01Z</time></trkpt><trkpt lat="46.12604747417489" lon="12.357219066324516"><ele>442.0</ele><time>2026-04-25T14:28:02Z</time></trkpt><trkpt lat="46.12597330951138" lon="12.357055150540585"><ele>442.0</ele><time>2026-04-25T14:28:03Z</time></trkpt><trkpt lat="46.125873881832064" lon="12.356911425367601"><ele>439.0</ele><time>2026-04-25T14:28:04Z</time></trkpt><trkpt lat="46.12576236398564" lon="12.356795433935247"><ele>436.0</ele><time>2026-04-25T14:28:05Z</time></trkpt><trkpt lat="46.12564610083276" lon="12.356651197700383"><ele>433.0</ele><time>2026-04-25T14:28:06Z</time></trkpt><trkpt lat="46.12553635992408" lon="12.356505900479897"><ele>430.0</ele><time>2026-04-25T14:28:07Z</time></trkpt><trkpt lat="46.125424097642465" lon="12.356364103163722"><ele>423.75</ele><time>2026-04-25T14:28:08Z</time></trkpt><trkpt lat="46.12530758046383" lon="12.356241821465114"><ele>417.5</ele><time>2026-04-25T14:28:09Z</time></trkpt><trkpt lat="46.1251881978143" lon="12.356134793241875"><ele>411.25</ele><time>2026-04-25T14:28:10Z</time></trkpt><trkpt lat="46.125067573805055" lon="12.356031613759495"><ele>405.0</ele><time>2026-04-25T14:28:11Z</time></trkpt><trkpt lat="46.12494859817905" lon="12.355918095732243"><ele>403.0</ele><time>2026-04-25T14:28:12Z</time></trkpt><trkpt lat="46.124838705425475" lon="12.355789932088578"><ele>401.0</ele><time>2026-04-25T14:28:13Z</time></trkpt><trkpt lat="46.12472845153706" lon="12.355666112383595"><ele>399.0</ele><time>2026-04-25T14:28:14Z</time></trkpt><trkpt lat="46.124609866559574" lon="12.355546155362166"><ele>397.0</ele><time>2026-04-25T14:28:15Z</time></trkpt><trkpt lat="46.12450418323456" lon="12.355419444054485"><ele>397.0</ele><time>2026-04-25T14:28:16Z</time></trkpt><trkpt lat="46.12439096038249" lon="12.355317201294973"><ele>397.0</ele><time>2026-04-25T14:28:17Z</time></trkpt><trkpt lat="46.12428338644533" lon="12.355242576723588"><ele>397.0</ele><time>2026-04-25T14:28:18Z</time></trkpt><trkpt lat="46.1241924452708" lon="12.355172102730817"><ele>397.0</ele><time>2026-04-25T14:28:19Z</time></trkpt><trkpt lat="46.124136736609" lon="12.355100678481826"><ele>397.0</ele><time>2026-04-25T14:28:20Z</time></trkpt><trkpt lat="46.1241098573067" lon="12.355018537025469"><ele>397.0</ele><time>2026-04-25T14:28:21Z</time></trkpt><trkpt lat="46.12413230042413" lon="12.354875565468939"><ele>397.0</ele><time>2026-04-25T14:28:23Z</time></trkpt><trkpt lat="46.12417750310735" lon="12.35479423964733"><ele>397.0</ele><time>2026-04-25T14:28:24Z</time></trkpt><trkpt lat="46.12423943365755" lon="12.35471401793471"><ele>397.0</ele><time>2026-04-25T14:28:25Z</time></trkpt><trkpt lat="46.124316874355095" lon="12.354634509802702"><ele>397.0</ele><time>2026-04-25T14:28:26Z</time></trkpt><trkpt lat="46.12439533220325" lon="12.354535432097817"><ele>396.75</ele><time>2026-04-25T14:28:27Z</time></trkpt><trkpt lat="46.124483083621406" lon="12.354420058243047"><ele>396.5</ele><time>2026-04-25T14:28:28Z</time></trkpt><trkpt lat="46.1245664716663" lon="12.354299173986632"><ele>396.25</ele><time>2026-04-25T14:28:29Z</time></trkpt><trkpt lat="46.124660666996704" lon="12.354172320264489"><ele>396.0</ele><time>2026-04-25T14:28:30Z</time></trkpt><trkpt lat="46.124773744958716" lon="12.35405508673238"><ele>396.0</ele><time>2026-04-25T14:28:31Z</time></trkpt><trkpt lat="46.124886414527786" lon="12.353933904535863"><ele>396.0</ele><time>2026-04-25T14:28:32Z</time></trkpt><trkpt lat="46.12500208846993" lon="12.353811668575679"><ele>396.0</ele><time>2026-04-25T14:28:33Z</time></trkpt><trkpt lat="46.12511870427412" lon="12.353680124023052"><ele>396.0</ele><time>2026-04-25T14:28:34Z</time></trkpt><trkpt lat="46.12523088734024" lon="12.353548067353183"><ele>396.0</ele><time>2026-04-25T14:28:35Z</time></trkpt><trkpt lat="46.12534222520456" lon="12.353416630809882"><ele>396.0</ele><time>2026-04-25T14:28:35.999Z</time></trkpt><trkpt lat="46.125455764917874" lon="12.35328598649957"><ele>396.0</ele><time>2026-04-25T14:28:36.999Z</time></trkpt><trkpt lat="46.125569855358314" lon="12.353154773922599"><ele>396.0</ele><time>2026-04-25T14:28:37.999Z</time></trkpt><trkpt lat="46.1256863337507" lon="12.353026411841814"><ele>396.0</ele><time>2026-04-25T14:28:38.999Z</time></trkpt><trkpt lat="46.12580155938424" lon="12.352895164985197"><ele>396.0</ele><time>2026-04-25T14:28:39.999Z</time></trkpt><trkpt lat="46.12591467251554" lon="12.352760911193707"><ele>396.0</ele><time>2026-04-25T14:28:40.999Z</time></trkpt><trkpt lat="46.126024491147" lon="12.352614261241731"><ele>396.0</ele><time>2026-04-25T14:28:41.999Z</time></trkpt><trkpt lat="46.126132842198395" lon="12.352465156259816"><ele>396.0</ele><time>2026-04-25T14:28:42.999Z</time></trkpt><trkpt lat="46.126241327552876" lon="12.352314060519612"><ele>396.0</ele><time>2026-04-25T14:28:43.999Z</time></trkpt><trkpt lat="46.12634882694884" lon="12.352162169122495"><ele>396.0</ele><time>2026-04-25T14:28:44.999Z</time></trkpt><trkpt lat="46.12645614067578" lon="12.352013437258028"><ele>396.5</ele><time>2026-04-25T14:28:45.999Z</time></trkpt><trkpt lat="46.126561553608525" lon="12.35185805480149"><ele>397.0</ele><time>2026-04-25T14:28:46.999Z</time></trkpt><trkpt lat="46.126663841231455" lon="12.351710474918967"><ele>397.5</ele><time>2026-04-25T14:28:47.999Z</time></trkpt><trkpt lat="46.126772633053456" lon="12.351559659373715"><ele>398.0</ele><time>2026-04-25T14:28:48.999Z</time></trkpt><trkpt lat="46.12688715999205" lon="12.351404407816224"><ele>397.75</ele><time>2026-04-25T14:28:49.999Z</time></trkpt><trkpt lat="46.12699594372943" lon="12.351251675136774"><ele>397.5</ele><time>2026-04-25T14:28:50.999Z</time></trkpt><trkpt lat="46.127100054428844" lon="12.35111636332769"><ele>397.25</ele><time>2026-04-25T14:28:51.999Z</time></trkpt><trkpt lat="46.12719385141462" lon="12.350979792143532"><ele>397.0</ele><time>2026-04-25T14:28:52.999Z</time></trkpt><trkpt lat="46.127285954940795" lon="12.350845564885539"><ele>397.0</ele><time>2026-04-25T14:28:53.999Z</time></trkpt><trkpt lat="46.127378938372054" lon="12.35071425129734"><ele>397.0</ele><time>2026-04-25T14:28:54.999Z</time></trkpt><trkpt lat="46.12746787919607" lon="12.350583019832893"><ele>397.0</ele><time>2026-04-25T14:28:55.999Z</time></trkpt><trkpt lat="46.12755843640715" lon="12.350454591954527"><ele>397.0</ele><time>2026-04-25T14:28:56.999Z</time></trkpt><trkpt lat="46.127649345090376" lon="12.350329635331745"><ele>396.75</ele><time>2026-04-25T14:28:57.999Z</time></trkpt><trkpt lat="46.12773507127067" lon="12.35020072227978"><ele>396.5</ele><time>2026-04-25T14:28:58.999Z</time></trkpt><trkpt lat="46.12782515479133" lon="12.350070182662304"><ele>396.25</ele><time>2026-04-25T14:28:59.999Z</time></trkpt><trkpt lat="46.12791687893936" lon="12.349936457619256"><ele>396.0</ele><time>2026-04-25T14:29:00.999Z</time></trkpt><trkpt lat="46.128013310619366" lon="12.349796235879184"><ele>395.75</ele><time>2026-04-25T14:29:01.999Z</time></trkpt><trkpt lat="46.12810872598381" lon="12.349652138119376"><ele>395.5</ele><time>2026-04-25T14:29:02.999Z</time></trkpt><trkpt lat="46.128208213175604" lon="12.349503385428838"><ele>395.25</ele><time>2026-04-25T14:29:03.999Z</time></trkpt><trkpt lat="46.128308111142225" lon="12.349351856968745"><ele>395.0</ele><time>2026-04-25T14:29:04.999Z</time></trkpt><trkpt lat="46.128411935125904" lon="12.349196172576905"><ele>395.0</ele><time>2026-04-25T14:29:05.999Z</time></trkpt><trkpt lat="46.12851824018734" lon="12.349033808092386"><ele>395.0</ele><time>2026-04-25T14:29:06.999Z</time></trkpt><trkpt lat="46.12862331593139" lon="12.348868158711385"><ele>395.0</ele><time>2026-04-25T14:29:07.999Z</time></trkpt><trkpt lat="46.12873555195145" lon="12.348694310174563"><ele>395.0</ele><time>2026-04-25T14:29:08.999Z</time></trkpt><trkpt lat="46.12884757075819" lon="12.348515841626272"><ele>395.0</ele><time>2026-04-25T14:29:09.999Z</time></trkpt><trkpt lat="46.12895804750813" lon="12.348331526286051"><ele>395.0</ele><time>2026-04-25T14:29:10.999Z</time></trkpt><trkpt lat="46.129070711926886" lon="12.348146923000415"><ele>394.66666666666663</ele><time>2026-04-25T14:29:11.999Z</time></trkpt><trkpt lat="46.12918387132308" lon="12.347958525621276"><ele>394.33333333333337</ele><time>2026-04-25T14:29:12.999Z</time></trkpt><trkpt lat="46.12929462800471" lon="12.347770414682138"><ele>394.0</ele><time>2026-04-25T14:29:13.999Z</time></trkpt><trkpt lat="46.12940175238263" lon="12.347587408446394"><ele>394.0</ele><time>2026-04-25T14:29:14.999Z</time></trkpt><trkpt lat="46.129510763840976" lon="12.347405716266767"><ele>394.0</ele><time>2026-04-25T14:29:15.999Z</time></trkpt><trkpt lat="46.129610942908414" lon="12.347217442454417"><ele>394.0</ele><time>2026-04-25T14:29:16.999Z</time></trkpt><trkpt lat="46.1297043253427" lon="12.347030178723035"><ele>393.6666666666667</ele><time>2026-04-25T14:29:17.999Z</time></trkpt><trkpt lat="46.12980213540248" lon="12.346833985684908"><ele>393.33333333333337</ele><time>2026-04-25T14:29:18.999Z</time></trkpt><trkpt lat="46.12990266595565" lon="12.346635133514601"><ele>393.0</ele><time>2026-04-25T14:29:19.999Z</time></trkpt><trkpt lat="46.13000549716367" lon="12.346442412631763"><ele>393.0</ele><time>2026-04-25T14:29:20.999Z</time></trkpt><trkpt lat="46.130101961377314" lon="12.346246187680025"><ele>393.0</ele><time>2026-04-25T14:29:21.999Z</time></trkpt><trkpt lat="46.13020365420811" lon="12.346053020486755"><ele>393.0</ele><time>2026-04-25T14:29:22.999Z</time></trkpt><trkpt lat="46.130302083970875" lon="12.345853982752583"><ele>393.0</ele><time>2026-04-25T14:29:23.999Z</time></trkpt><trkpt lat="46.13040126078739" lon="12.345663370827927"><ele>393.0</ele><time>2026-04-25T14:29:24.999Z</time></trkpt><trkpt lat="46.130500421704866" lon="12.345480100466474"><ele>393.0</ele><time>2026-04-25T14:29:25.999Z</time></trkpt><trkpt lat="46.1305956723087" lon="12.34529375270748"><ele>392.33333333333337</ele><time>2026-04-25T14:29:26.999Z</time></trkpt><trkpt lat="46.13068744971511" lon="12.34511335232052"><ele>391.6666666666667</ele><time>2026-04-25T14:29:27.999Z</time></trkpt><trkpt lat="46.1307811309322" lon="12.344933824618298"><ele>391.0</ele><time>2026-04-25T14:29:28.999Z</time></trkpt><trkpt lat="46.130871867126956" lon="12.34474869192866"><ele>390.75</ele><time>2026-04-25T14:29:29.999Z</time></trkpt><trkpt lat="46.13095468589328" lon="12.344570636971467"><ele>390.5</ele><time>2026-04-25T14:29:30.999Z</time></trkpt><trkpt lat="46.13104104330696" lon="12.344392226608232"><ele>390.25</ele><time>2026-04-25T14:29:31.999Z</time></trkpt><trkpt lat="46.131126360600234" lon="12.344223654458581"><ele>390.0</ele><time>2026-04-25T14:29:32.999Z</time></trkpt><trkpt lat="46.13120246719247" lon="12.344065964466141"><ele>390.0</ele><time>2026-04-25T14:29:33.999Z</time></trkpt><trkpt lat="46.131278474805164" lon="12.343916972473439"><ele>390.0</ele><time>2026-04-25T14:29:34.999Z</time></trkpt><trkpt lat="46.131350208693895" lon="12.343772516596523"><ele>390.0</ele><time>2026-04-25T14:29:35.999Z</time></trkpt><trkpt lat="46.131420145575085" lon="12.34363771434676"><ele>390.0</ele><time>2026-04-25T14:29:36.999Z</time></trkpt><trkpt lat="46.13148885102488" lon="12.343514121945303"><ele>390.2</ele><time>2026-04-25T14:29:37.999Z</time></trkpt><trkpt lat="46.13156375647323" lon="12.343411079606742"><ele>390.4</ele><time>2026-04-25T14:29:38.999Z</time></trkpt><trkpt lat="46.131642289474534" lon="12.343321832563946"><ele>390.6</ele><time>2026-04-25T14:29:39.999Z</time></trkpt><trkpt lat="46.131720996494984" lon="12.343246973811505"><ele>390.8</ele><time>2026-04-25T14:29:40.999Z</time></trkpt><trkpt lat="46.131804691892704" lon="12.343197225656581"><ele>391.0</ele><time>2026-04-25T14:29:41.999Z</time></trkpt><trkpt lat="46.13188810132197" lon="12.343159191509185"><ele>390.99999999999994</ele><time>2026-04-25T14:29:42.999Z</time></trkpt><trkpt lat="46.13196913490023" lon="12.343142111149664"><ele>391.0</ele><time>2026-04-25T14:29:43.999Z</time></trkpt><trkpt lat="46.132039737857816" lon="12.343144091678827"><ele>391.0</ele><time>2026-04-25T14:29:45Z</time></trkpt><trkpt lat="46.13210535897142" lon="12.343166965888416"><ele>391.0</ele><time>2026-04-25T14:29:46Z</time></trkpt><trkpt lat="46.132164539523515" lon="12.343204672064022"><ele>391.0</ele><time>2026-04-25T14:29:47Z</time></trkpt><trkpt lat="46.13222971572139" lon="12.343230092800113"><ele>390.99999999999994</ele><time>2026-04-25T14:29:48Z</time></trkpt><trkpt lat="46.132294280092864" lon="12.343240956052085"><ele>391.0</ele><time>2026-04-25T14:29:49Z</time></trkpt><trkpt lat="46.13235900382043" lon="12.343209434230058"><ele>391.1428571428571</ele><time>2026-04-25T14:29:50Z</time></trkpt><trkpt lat="46.1324130053761" lon="12.34315221203392"><ele>391.2857142857143</ele><time>2026-04-25T14:29:51Z</time></trkpt><trkpt lat="46.13244621165855" lon="12.343068905684632"><ele>391.42857142857144</ele><time>2026-04-25T14:29:52Z</time></trkpt><trkpt lat="46.13246484361287" lon="12.34297653898179"><ele>391.57142857142856</ele><time>2026-04-25T14:29:53Z</time></trkpt><trkpt lat="46.13244419959986" lon="12.342869363542855"><ele>391.7142857142857</ele><time>2026-04-25T14:29:54Z</time></trkpt><trkpt lat="46.13240767675197" lon="12.34277287534823"><ele>391.85714285714283</ele><time>2026-04-25T14:29:55Z</time></trkpt><trkpt lat="46.13236498735884" lon="12.342691952753427"><ele>392.0</ele><time>2026-04-25T14:29:56Z</time></trkpt><trkpt lat="46.132329646940754" lon="12.342602298187275"><ele>391.99999999999994</ele><time>2026-04-25T14:29:57Z</time></trkpt><trkpt lat="46.13231542387814" lon="12.342499163127687"><ele>392.0</ele><time>2026-04-25T14:29:58Z</time></trkpt><trkpt lat="46.13231102516164" lon="12.342390873574704"><ele>392.0</ele><time>2026-04-25T14:29:59Z</time></trkpt><trkpt lat="46.13231340607574" lon="12.342272772994564"><ele>392.0</ele><time>2026-04-25T14:30:00Z</time></trkpt><trkpt lat="46.1323062412341" lon="12.342147380604445"><ele>391.99999999999994</ele><time>2026-04-25T14:30:01Z</time></trkpt><trkpt lat="46.13228915071303" lon="12.342020986344332"><ele>392.0</ele><time>2026-04-25T14:30:02Z</time></trkpt><trkpt lat="46.13225706094092" lon="12.34189735300937"><ele>392.40000000000003</ele><time>2026-04-25T14:30:03Z</time></trkpt><trkpt lat="46.13221799314499" lon="12.341769159798282"><ele>392.8</ele><time>2026-04-25T14:30:04Z</time></trkpt><trkpt lat="46.13219166214808" lon="12.341626891090197"><ele>393.2</ele><time>2026-04-25T14:30:05Z</time></trkpt><trkpt lat="46.13217820536534" lon="12.341473231173051"><ele>393.6</ele><time>2026-04-25T14:30:06Z</time></trkpt><trkpt lat="46.13218104398742" lon="12.341315389585878"><ele>394.0</ele><time>2026-04-25T14:30:07Z</time></trkpt><trkpt lat="46.13219513372933" lon="12.341152949925103"><ele>394.25</ele><time>2026-04-25T14:30:08Z</time></trkpt><trkpt lat="46.13221799164307" lon="12.340991855975489"><ele>394.5</ele><time>2026-04-25T14:30:09Z</time></trkpt><trkpt lat="46.13223766631538" lon="12.340830159105936"><ele>394.75</ele><time>2026-04-25T14:30:10Z</time></trkpt><trkpt lat="46.13225921830724" lon="12.340662989268838"><ele>395.0</ele><time>2026-04-25T14:30:11Z</time></trkpt><trkpt lat="46.13228914898738" lon="12.340490305632336"><ele>395.0</ele><time>2026-04-25T14:30:12Z</time></trkpt><trkpt lat="46.132328557447934" lon="12.34031882765867"><ele>395.0</ele><time>2026-04-25T14:30:13Z</time></trkpt><trkpt lat="46.13237166645314" lon="12.340148243363915"><ele>395.0</ele><time>2026-04-25T14:30:14Z</time></trkpt><trkpt lat="46.13240923342582" lon="12.339968689319782"><ele>395.0</ele><time>2026-04-25T14:30:15Z</time></trkpt><trkpt lat="46.132443939844066" lon="12.339785651928764"><ele>394.5</ele><time>2026-04-25T14:30:16Z</time></trkpt><trkpt lat="46.13247843151952" lon="12.339596151552197"><ele>394.0</ele><time>2026-04-25T14:30:17Z</time></trkpt><trkpt lat="46.13251151508746" lon="12.339401978415392"><ele>393.5</ele><time>2026-04-25T14:30:18Z</time></trkpt><trkpt lat="46.13254640138971" lon="12.339216291660486"><ele>393.0</ele><time>2026-04-25T14:30:19Z</time></trkpt><trkpt lat="46.13256901558997" lon="12.339037393397417"><ele>392.75</ele><time>2026-04-25T14:30:20Z</time></trkpt><trkpt lat="46.13258317246419" lon="12.338852482054708"><ele>392.5</ele><time>2026-04-25T14:30:21Z</time></trkpt><trkpt lat="46.13258950858705" lon="12.338665256562825"><ele>392.25</ele><time>2026-04-25T14:30:22Z</time></trkpt><trkpt lat="46.132587314844365" lon="12.338474139733208"><ele>392.0</ele><time>2026-04-25T14:30:23Z</time></trkpt><trkpt lat="46.132576483829666" lon="12.33827702949693"><ele>392.0</ele><time>2026-04-25T14:30:24Z</time></trkpt><trkpt lat="46.13257011664949" lon="12.338080780186699"><ele>392.0</ele><time>2026-04-25T14:30:25Z</time></trkpt><trkpt lat="46.13256290917609" lon="12.337880743398545"><ele>392.0</ele><time>2026-04-25T14:30:26Z</time></trkpt><trkpt lat="46.132556418079446" lon="12.337681595319179"><ele>392.0</ele><time>2026-04-25T14:30:27Z</time></trkpt><trkpt lat="46.13255135969674" lon="12.337476988415442"><ele>392.0</ele><time>2026-04-25T14:30:28Z</time></trkpt><trkpt lat="46.13253768723065" lon="12.337273338428801"><ele>392.0</ele><time>2026-04-25T14:30:29Z</time></trkpt><trkpt lat="46.13252173387881" lon="12.337084231992302"><ele>392.0</ele><time>2026-04-25T14:30:30Z</time></trkpt><trkpt lat="46.132502540341385" lon="12.336912282818252"><ele>392.0</ele><time>2026-04-25T14:30:31Z</time></trkpt><trkpt lat="46.132477992232005" lon="12.336743109273973"><ele>392.0</ele><time>2026-04-25T14:30:32Z</time></trkpt><trkpt lat="46.13245495005373" lon="12.336582187415647"><ele>392.0</ele><time>2026-04-25T14:30:33Z</time></trkpt><trkpt lat="46.132432357813045" lon="12.336427732379539"><ele>392.0</ele><time>2026-04-25T14:30:34Z</time></trkpt><trkpt lat="46.13241125744631" lon="12.336287134338605"><ele>392.0</ele><time>2026-04-25T14:30:35Z</time></trkpt><trkpt lat="46.13238669710222" lon="12.336138934409979"><ele>392.0</ele><time>2026-04-25T14:30:36Z</time></trkpt><trkpt lat="46.13236495223538" lon="12.335992356411868"><ele>391.20000000000005</ele><time>2026-04-25T14:30:37Z</time></trkpt><trkpt lat="46.13234555068021" lon="12.335848406929317"><ele>390.4</ele><time>2026-04-25T14:30:38Z</time></trkpt><trkpt lat="46.132324259789854" lon="12.335699733164754"><ele>389.6</ele><time>2026-04-25T14:30:38.999Z</time></trkpt><trkpt lat="46.13230007790435" lon="12.335544111705097"><ele>388.79999999999995</ele><time>2026-04-25T14:30:39.999Z</time></trkpt><trkpt lat="46.13227557028805" lon="12.335381588855034"><ele>388.0</ele><time>2026-04-25T14:30:40.999Z</time></trkpt><trkpt lat="46.13224708210739" lon="12.335218656658197"><ele>388.0</ele><time>2026-04-25T14:30:41.999Z</time></trkpt><trkpt lat="46.1322209036827" lon="12.335046123850642"><ele>388.0</ele><time>2026-04-25T14:30:42.999Z</time></trkpt><trkpt lat="46.13219422436905" lon="12.334870185144151"><ele>388.0</ele><time>2026-04-25T14:30:43.999Z</time></trkpt><trkpt lat="46.1321650268761" lon="12.334684777466709"><ele>388.0</ele><time>2026-04-25T14:30:44.999Z</time></trkpt><trkpt lat="46.13213660481107" lon="12.33448978075177"><ele>388.0</ele><time>2026-04-25T14:30:45.999Z</time></trkpt><trkpt lat="46.13210584664738" lon="12.334297675408465"><ele>388.0</ele><time>2026-04-25T14:30:46.999Z</time></trkpt><trkpt lat="46.13207640146165" lon="12.33410398204464"><ele>388.0</ele><time>2026-04-25T14:30:47.999Z</time></trkpt><trkpt lat="46.13204570315143" lon="12.333906404339144"><ele>388.0</ele><time>2026-04-25T14:30:48.999Z</time></trkpt><trkpt lat="46.13201573106148" lon="12.33370840389227"><ele>388.0</ele><time>2026-04-25T14:30:49.999Z</time></trkpt><trkpt lat="46.131985101168354" lon="12.333512284551125"><ele>388.0</ele><time>2026-04-25T14:30:50.999Z</time></trkpt><trkpt lat="46.131955132192026" lon="12.3333217656086"><ele>388.0</ele><time>2026-04-25T14:30:51.999Z</time></trkpt><trkpt lat="46.13193249423718" lon="12.333130028315988"><ele>388.0</ele><time>2026-04-25T14:30:52.999Z</time></trkpt><trkpt lat="46.13192642440283" lon="12.33293898059778"><ele>387.5</ele><time>2026-04-25T14:30:53.999Z</time></trkpt><trkpt lat="46.13193833336526" lon="12.332747698539565"><ele>387.0</ele><time>2026-04-25T14:30:54.999Z</time></trkpt><trkpt lat="46.13196542900061" lon="12.332556299403237"><ele>386.5</ele><time>2026-04-25T14:30:55.999Z</time></trkpt><trkpt lat="46.13200294642619" lon="12.332371259624626"><ele>386.0</ele><time>2026-04-25T14:30:56.999Z</time></trkpt><trkpt lat="46.132042452044075" lon="12.332184310152908"><ele>386.0</ele><time>2026-04-25T14:30:57.999Z</time></trkpt><trkpt lat="46.13207974678683" lon="12.331996378105647"><ele>386.0</ele><time>2026-04-25T14:30:58.999Z</time></trkpt><trkpt lat="46.13211238977149" lon="12.331807039345433"><ele>386.0</ele><time>2026-04-25T14:30:59.999Z</time></trkpt><trkpt lat="46.132153011145036" lon="12.331630798251066"><ele>386.0</ele><time>2026-04-25T14:31:00.999Z</time></trkpt><trkpt lat="46.13219270348795" lon="12.33146021990539"><ele>386.0</ele><time>2026-04-25T14:31:01.999Z</time></trkpt><trkpt lat="46.13222639405514" lon="12.331294283611685"><ele>386.0</ele><time>2026-04-25T14:31:02.999Z</time></trkpt><trkpt lat="46.13225844207109" lon="12.331130370814959"><ele>386.0</ele><time>2026-04-25T14:31:03.999Z</time></trkpt><trkpt lat="46.13229819750765" lon="12.330988367613767"><ele>386.0</ele><time>2026-04-25T14:31:04.999Z</time></trkpt><trkpt lat="46.132331136946576" lon="12.330852240449122"><ele>386.0</ele><time>2026-04-25T14:31:05.999Z</time></trkpt><trkpt lat="46.132361401989776" lon="12.330712356935399"><ele>386.0</ele><time>2026-04-25T14:31:06.999Z</time></trkpt><trkpt lat="46.13238452614737" lon="12.330576605367707"><ele>386.0</ele><time>2026-04-25T14:31:07.999Z</time></trkpt><trkpt lat="46.13240591437089" lon="12.330433748432123"><ele>386.0</ele><time>2026-04-25T14:31:08.999Z</time></trkpt><trkpt lat="46.132413895916116" lon="12.330284160470068"><ele>386.0</ele><time>2026-04-25T14:31:09.999Z</time></trkpt><trkpt lat="46.1324175152105" lon="12.33013555657708"><ele>386.0</ele><time>2026-04-25T14:31:10.999Z</time></trkpt><trkpt lat="46.13241428848762" lon="12.329992995953386"><ele>385.6</ele><time>2026-04-25T14:31:11.999Z</time></trkpt><trkpt lat="46.13241187834801" lon="12.329850620425663"><ele>385.20000000000005</ele><time>2026-04-25T14:31:12.999Z</time></trkpt><trkpt lat="46.13241280222442" lon="12.329711663520037"><ele>384.79999999999995</ele><time>2026-04-25T14:31:13.999Z</time></trkpt><trkpt lat="46.132410329204646" lon="12.329570251564338"><ele>384.4</ele><time>2026-04-25T14:31:14.999Z</time></trkpt><trkpt lat="46.13241001144082" lon="12.329425819721063"><ele>384.0</ele><time>2026-04-25T14:31:15.999Z</time></trkpt><trkpt lat="46.13240731763409" lon="12.329288389715597"><ele>384.0</ele><time>2026-04-25T14:31:16.999Z</time></trkpt><trkpt lat="46.1324031806288" lon="12.329148730177094"><ele>384.0</ele><time>2026-04-25T14:31:17.999Z</time></trkpt><trkpt lat="46.13240305886676" lon="12.32900051911967"><ele>384.0</ele><time>2026-04-25T14:31:18.999Z</time></trkpt><trkpt lat="46.132400919797135" lon="12.328845401304081"><ele>384.0</ele><time>2026-04-25T14:31:19.999Z</time></trkpt><trkpt lat="46.13239906296839" lon="12.32868326659825"><ele>384.0</ele><time>2026-04-25T14:31:20.999Z</time></trkpt><trkpt lat="46.132396804369634" lon="12.328512013949943"><ele>384.0</ele><time>2026-04-25T14:31:21.999Z</time></trkpt><trkpt lat="46.13239075656479" lon="12.328328676536515"><ele>384.0</ele><time>2026-04-25T14:31:22.999Z</time></trkpt><trkpt lat="46.132389475552486" lon="12.328144037867053"><ele>384.0</ele><time>2026-04-25T14:31:23.999Z</time></trkpt><trkpt lat="46.13238152574307" lon="12.327965025856635"><ele>384.0</ele><time>2026-04-25T14:31:24.999Z</time></trkpt><trkpt lat="46.132376674846505" lon="12.327784365187709"><ele>383.5</ele><time>2026-04-25T14:31:25.999Z</time></trkpt><trkpt lat="46.13237691219378" lon="12.327600810647798"><ele>383.0</ele><time>2026-04-25T14:31:26.999Z</time></trkpt><trkpt lat="46.132377065051344" lon="12.327413229596882"><ele>382.5</ele><time>2026-04-25T14:31:27.999Z</time></trkpt><trkpt lat="46.13238051863958" lon="12.327230037941078"><ele>382.0</ele><time>2026-04-25T14:31:28.999Z</time></trkpt><trkpt lat="46.13238392104836" lon="12.327045225505433"><ele>381.75</ele><time>2026-04-25T14:31:29.999Z</time></trkpt><trkpt lat="46.132388989475835" lon="12.3268625163684"><ele>381.5</ele><time>2026-04-25T14:31:30.999Z</time></trkpt><trkpt lat="46.13239863643179" lon="12.326683672780938"><ele>381.25</ele><time>2026-04-25T14:31:31.999Z</time></trkpt><trkpt lat="46.13240464703966" lon="12.326516600049676"><ele>381.0</ele><time>2026-04-25T14:31:32.999Z</time></trkpt><trkpt lat="46.13241044563893" lon="12.326356161731976"><ele>381.0</ele><time>2026-04-25T14:31:33.999Z</time></trkpt><trkpt lat="46.132415840062585" lon="12.326204414898816"><ele>381.0</ele><time>2026-04-25T14:31:34.999Z</time></trkpt><trkpt lat="46.132420489561085" lon="12.326059695448519"><ele>381.0</ele><time>2026-04-25T14:31:35.999Z</time></trkpt><trkpt lat="46.13242532311145" lon="12.325917894874872"><ele>381.0</ele><time>2026-04-25T14:31:36.999Z</time></trkpt><trkpt lat="46.132431299834906" lon="12.325776437256565"><ele>381.0</ele><time>2026-04-25T14:31:37.999Z</time></trkpt><trkpt lat="46.132437941632034" lon="12.325636738257613"><ele>381.0</ele><time>2026-04-25T14:31:38.999Z</time></trkpt><trkpt lat="46.13244389014383" lon="12.325496954531333"><ele>381.0</ele><time>2026-04-25T14:31:39.999Z</time></trkpt><trkpt lat="46.132448694843326" lon="12.325356419122834"><ele>381.0</ele><time>2026-04-25T14:31:40.999Z</time></trkpt><trkpt lat="46.13245458379653" lon="12.325215427938769"><ele>381.0</ele><time>2026-04-25T14:31:41.999Z</time></trkpt><trkpt lat="46.13245960860651" lon="12.325069731975757"><ele>381.0</ele><time>2026-04-25T14:31:42.999Z</time></trkpt><trkpt lat="46.13246257981157" lon="12.324918779521488"><ele>381.0</ele><time>2026-04-25T14:31:43.999Z</time></trkpt><trkpt lat="46.13246927582904" lon="12.324756657262514"><ele>381.0</ele><time>2026-04-25T14:31:44.999Z</time></trkpt><trkpt lat="46.13247480350994" lon="12.324584278496145"><ele>381.0</ele><time>2026-04-25T14:31:45.999Z</time></trkpt><trkpt lat="46.13248008800252" lon="12.32440552026319"><ele>381.0</ele><time>2026-04-25T14:31:46.999Z</time></trkpt><trkpt lat="46.13248607127389" lon="12.324220792369672"><ele>381.0</ele><time>2026-04-25T14:31:47.999Z</time></trkpt><trkpt lat="46.13249099068098" lon="12.324034538585064"><ele>381.0</ele><time>2026-04-25T14:31:48.999Z</time></trkpt><trkpt lat="46.13249843966357" lon="12.3238460671312"><ele>381.0</ele><time>2026-04-25T14:31:49.999Z</time></trkpt><trkpt lat="46.132505454399364" lon="12.323649318527817"><ele>381.0</ele><time>2026-04-25T14:31:51Z</time></trkpt><trkpt lat="46.13251132501221" lon="12.323452167320971"><ele>381.5</ele><time>2026-04-25T14:31:52Z</time></trkpt><trkpt lat="46.13251644777058" lon="12.323253376823194"><ele>382.0</ele><time>2026-04-25T14:31:53Z</time></trkpt><trkpt lat="46.13252404944521" lon="12.323049999359593"><ele>382.5</ele><time>2026-04-25T14:31:54Z</time></trkpt><trkpt lat="46.13253192360144" lon="12.322845912253868"><ele>383.0</ele><time>2026-04-25T14:31:55Z</time></trkpt><trkpt lat="46.13253839081582" lon="12.322635950486573"><ele>382.0</ele><time>2026-04-25T14:31:56Z</time></trkpt><trkpt lat="46.13254587288598" lon="12.322422475229452"><ele>381.0</ele><time>2026-04-25T14:31:57Z</time></trkpt><trkpt lat="46.13254938144166" lon="12.322212017913511"><ele>380.0</ele><time>2026-04-25T14:31:58Z</time></trkpt><trkpt lat="46.13255562120424" lon="12.321999877094772"><ele>379.0</ele><time>2026-04-25T14:31:59Z</time></trkpt><trkpt lat="46.13256212646064" lon="12.321787067607511"><ele>379.0</ele><time>2026-04-25T14:32:00Z</time></trkpt><trkpt lat="46.1325703869571" lon="12.3215768706511"><ele>379.0</ele><time>2026-04-25T14:32:01Z</time></trkpt><trkpt lat="46.13257785616144" lon="12.321368668765762"><ele>379.0</ele><time>2026-04-25T14:32:02Z</time></trkpt><trkpt lat="46.13258433386543" lon="12.321164315516679"><ele>379.0</ele><time>2026-04-25T14:32:03Z</time></trkpt><trkpt lat="46.13258973682572" lon="12.320962484955258"><ele>379.0</ele><time>2026-04-25T14:32:04Z</time></trkpt><trkpt lat="46.13259355500261" lon="12.32076163889425"><ele>379.0</ele><time>2026-04-25T14:32:05Z</time></trkpt><trkpt lat="46.13259566373443" lon="12.3205648087557"><ele>379.0</ele><time>2026-04-25T14:32:06Z</time></trkpt><trkpt lat="46.13259030243491" lon="12.320368865001964"><ele>379.0</ele><time>2026-04-25T14:32:07Z</time></trkpt><trkpt lat="46.13257845471806" lon="12.32017071770225"><ele>379.0</ele><time>2026-04-25T14:32:08Z</time></trkpt><trkpt lat="46.132569766629175" lon="12.319972937515006"><ele>379.0</ele><time>2026-04-25T14:32:09Z</time></trkpt><trkpt lat="46.13256285981178" lon="12.319777311062131"><ele>379.0</ele><time>2026-04-25T14:32:10Z</time></trkpt><trkpt lat="46.13255736095357" lon="12.319580907663065"><ele>379.0</ele><time>2026-04-25T14:32:11Z</time></trkpt><trkpt lat="46.13254883132582" lon="12.319384882575951"><ele>378.75</ele><time>2026-04-25T14:32:12Z</time></trkpt><trkpt lat="46.132542761270805" lon="12.319196542361965"><ele>378.5</ele><time>2026-04-25T14:32:13Z</time></trkpt><trkpt lat="46.132537021775946" lon="12.319005441676703"><ele>378.25</ele><time>2026-04-25T14:32:14Z</time></trkpt><trkpt lat="46.13252885386197" lon="12.318815432177074"><ele>378.0</ele><time>2026-04-25T14:32:15Z</time></trkpt><trkpt lat="46.13252281695641" lon="12.31863461355874"><ele>378.4</ele><time>2026-04-25T14:32:16Z</time></trkpt><trkpt lat="46.132521538929296" lon="12.31845948273063"><ele>378.79999999999995</ele><time>2026-04-25T14:32:17Z</time></trkpt><trkpt lat="46.13251864000459" lon="12.318298198863404"><ele>379.2</ele><time>2026-04-25T14:32:18Z</time></trkpt><trkpt lat="46.13251498574345" lon="12.318148904474244"><ele>379.6</ele><time>2026-04-25T14:32:19Z</time></trkpt><trkpt lat="46.13251216277116" lon="12.318005592690508"><ele>380.0</ele><time>2026-04-25T14:32:20Z</time></trkpt><trkpt lat="46.13251402808107" lon="12.317867583346665"><ele>381.0</ele><time>2026-04-25T14:32:21Z</time></trkpt><trkpt lat="46.13251834982868" lon="12.317733058325771"><ele>382.0</ele><time>2026-04-25T14:32:22Z</time></trkpt><trkpt lat="46.132529822124646" lon="12.317605921662063"><ele>383.0</ele><time>2026-04-25T14:32:23Z</time></trkpt><trkpt lat="46.132545315346064" lon="12.317494716949266"><ele>384.0</ele><time>2026-04-25T14:32:24Z</time></trkpt><trkpt lat="46.132572321217964" lon="12.317389567104797"><ele>384.99999999999994</ele><time>2026-04-25T14:32:25Z</time></trkpt><trkpt lat="46.13261121179834" lon="12.317301497401687"><ele>386.0</ele><time>2026-04-25T14:32:26Z</time></trkpt><trkpt lat="46.13266239932221" lon="12.317236492844149"><ele>388.6</ele><time>2026-04-25T14:32:27Z</time></trkpt><trkpt lat="46.13273323308213" lon="12.317198918034476"><ele>391.20000000000005</ele><time>2026-04-25T14:32:28Z</time></trkpt><trkpt lat="46.13282154028899" lon="12.317188357950371"><ele>393.79999999999995</ele><time>2026-04-25T14:32:29Z</time></trkpt><trkpt lat="46.132917537814166" lon="12.317188309268893"><ele>396.4</ele><time>2026-04-25T14:32:30Z</time></trkpt><trkpt lat="46.13301842286246" lon="12.317174347817103"><ele>399.0</ele><time>2026-04-25T14:32:31Z</time></trkpt><trkpt lat="46.133132145759916" lon="12.317151704897622"><ele>398.5</ele><time>2026-04-25T14:32:32Z</time></trkpt><trkpt lat="46.133259371705584" lon="12.317118922780042"><ele>398.0</ele><time>2026-04-25T14:32:33Z</time></trkpt><trkpt lat="46.13339149047583" lon="12.317073400677502"><ele>397.5</ele><time>2026-04-25T14:32:34Z</time></trkpt><trkpt lat="46.133532164139616" lon="12.317015302466583"><ele>397.0</ele><time>2026-04-25T14:32:35Z</time></trkpt><trkpt lat="46.13368133534736" lon="12.31696295138036"><ele>397.0</ele><time>2026-04-25T14:32:36Z</time></trkpt><trkpt lat="46.133840550910676" lon="12.316914577542269"><ele>397.0</ele><time>2026-04-25T14:32:37Z</time></trkpt><trkpt lat="46.13401129760145" lon="12.3168660101567"><ele>397.0</ele><time>2026-04-25T14:32:38Z</time></trkpt><trkpt lat="46.13418981048094" lon="12.316830172247101"><ele>394.33333333333337</ele><time>2026-04-25T14:32:39Z</time></trkpt><trkpt lat="46.134370481101826" lon="12.316806792733278"><ele>391.66666666666663</ele><time>2026-04-25T14:32:40Z</time></trkpt><trkpt lat="46.13455046987396" lon="12.31679662688943"><ele>389.0</ele><time>2026-04-25T14:32:40.999Z</time></trkpt><trkpt lat="46.13471248264795" lon="12.316799541277295"><ele>389.0</ele><time>2026-04-25T14:32:41.999Z</time></trkpt><trkpt lat="46.13487034209017" lon="12.31680193106079"><ele>389.0</ele><time>2026-04-25T14:32:42.999Z</time></trkpt><trkpt lat="46.13502065021766" lon="12.316809289089202"><ele>389.0</ele><time>2026-04-25T14:32:43.999Z</time></trkpt><trkpt lat="46.135180884803475" lon="12.316812029068123"><ele>388.0</ele><time>2026-04-25T14:32:44.999Z</time></trkpt><trkpt lat="46.13533651821412" lon="12.316816441466045"><ele>387.0</ele><time>2026-04-25T14:32:45.999Z</time></trkpt><trkpt lat="46.13548690580698" lon="12.316814622193261"><ele>386.0</ele><time>2026-04-25T14:32:46.999Z</time></trkpt><trkpt lat="46.135633167588615" lon="12.316816522423581"><ele>386.66666666666663</ele><time>2026-04-25T14:32:47.999Z</time></trkpt><trkpt lat="46.13578603949731" lon="12.316819082352376"><ele>387.33333333333337</ele><time>2026-04-25T14:32:48.999Z</time></trkpt><trkpt lat="46.13593973021119" lon="12.316829074158548"><ele>388.0</ele><time>2026-04-25T14:32:49.999Z</time></trkpt><trkpt lat="46.136097555594496" lon="12.31683535736086"><ele>388.0</ele><time>2026-04-25T14:32:50.999Z</time></trkpt><trkpt lat="46.136259560965364" lon="12.316847069237026"><ele>388.0</ele><time>2026-04-25T14:32:51.999Z</time></trkpt><trkpt lat="46.136423660348534" lon="12.3168643874727"><ele>388.0</ele><time>2026-04-25T14:32:52.999Z</time></trkpt><trkpt lat="46.13659297927741" lon="12.316883037516387"><ele>388.33333333333337</ele><time>2026-04-25T14:32:53.999Z</time></trkpt><trkpt lat="46.136765597385676" lon="12.316909474470531"><ele>388.66666666666663</ele><time>2026-04-25T14:32:54.999Z</time></trkpt><trkpt lat="46.1369390911198" lon="12.316941530317331"><ele>389.0</ele><time>2026-04-25T14:32:55.999Z</time></trkpt><trkpt lat="46.13710804160127" lon="12.316979021606828"><ele>389.0</ele><time>2026-04-25T14:32:56.999Z</time></trkpt><trkpt lat="46.137277913782015" lon="12.31702076837745"><ele>389.0</ele><time>2026-04-25T14:32:57.999Z</time></trkpt><trkpt lat="46.137450920014494" lon="12.317055772515262"><ele>389.0</ele><time>2026-04-25T14:32:58.999Z</time></trkpt><trkpt lat="46.13762352094189" lon="12.317076706798867"><ele>389.3333333333333</ele><time>2026-04-25T14:32:59.999Z</time></trkpt><trkpt lat="46.13779824352012" lon="12.317077169090316"><ele>389.66666666666663</ele><time>2026-04-25T14:33:00.999Z</time></trkpt><trkpt lat="46.137977369224934" lon="12.317053236013411"><ele>390.0</ele><time>2026-04-25T14:33:01.999Z</time></trkpt><trkpt lat="46.13815550007069" lon="12.317016853195755"><ele>389.66666666666663</ele><time>2026-04-25T14:33:02.999Z</time></trkpt><trkpt lat="46.138334099620465" lon="12.316955728854245"><ele>389.3333333333333</ele><time>2026-04-25T14:33:03.999Z</time></trkpt><trkpt lat="46.13851466715196" lon="12.316879793056355"><ele>389.0</ele><time>2026-04-25T14:33:04.999Z</time></trkpt><trkpt lat="46.13869609836968" lon="12.316792970367223"><ele>389.0</ele><time>2026-04-25T14:33:05.999Z</time></trkpt><trkpt lat="46.13887289519335" lon="12.316712489644651"><ele>389.0</ele><time>2026-04-25T14:33:06.999Z</time></trkpt><trkpt lat="46.13904532824699" lon="12.316639664469982"><ele>389.0</ele><time>2026-04-25T14:33:07.999Z</time></trkpt><trkpt lat="46.139219267014546" lon="12.316577140541165"><ele>387.66666666666663</ele><time>2026-04-25T14:33:08.999Z</time></trkpt><trkpt lat="46.13938972034571" lon="12.316518321386466"><ele>386.33333333333337</ele><time>2026-04-25T14:33:09.999Z</time></trkpt><trkpt lat="46.13956349252637" lon="12.316473649926268"><ele>385.0</ele><time>2026-04-25T14:33:10.999Z</time></trkpt><trkpt lat="46.13973142370806" lon="12.316434813625476"><ele>385.0</ele><time>2026-04-25T14:33:11.999Z</time></trkpt><trkpt lat="46.13990257168609" lon="12.316409582090103"><ele>385.0</ele><time>2026-04-25T14:33:12.999Z</time></trkpt><trkpt lat="46.14006405343842" lon="12.316388997702242"><ele>385.0</ele><time>2026-04-25T14:33:13.999Z</time></trkpt><trkpt lat="46.14021915803379" lon="12.31638537955903"><ele>385.0</ele><time>2026-04-25T14:33:14.999Z</time></trkpt><trkpt lat="46.14037393880897" lon="12.316398849147037"><ele>385.0</ele><time>2026-04-25T14:33:15.999Z</time></trkpt><trkpt lat="46.14052848003561" lon="12.316423225939504"><ele>385.0</ele><time>2026-04-25T14:33:16.999Z</time></trkpt><trkpt lat="46.140688099990406" lon="12.316470380319497"><ele>385.0</ele><time>2026-04-25T14:33:17.999Z</time></trkpt><trkpt lat="46.1408472359892" lon="12.316529047435738"><ele>385.0</ele><time>2026-04-25T14:33:18.999Z</time></trkpt><trkpt lat="46.14101236049302" lon="12.31659126229766"><ele>385.0</ele><time>2026-04-25T14:33:19.999Z</time></trkpt><trkpt lat="46.14117959432123" lon="12.316658559446058"><ele>385.0</ele><time>2026-04-25T14:33:20.999Z</time></trkpt><trkpt lat="46.141349230263124" lon="12.316731624819004"><ele>385.0</ele><time>2026-04-25T14:33:21.999Z</time></trkpt><trkpt lat="46.14152152572333" lon="12.316809052967747"><ele>385.0</ele><time>2026-04-25T14:33:22.999Z</time></trkpt><trkpt lat="46.14169433420908" lon="12.3168929959367"><ele>385.33333333333337</ele><time>2026-04-25T14:33:23.999Z</time></trkpt><trkpt lat="46.14186510967354" lon="12.316986077103554"><ele>385.66666666666663</ele><time>2026-04-25T14:33:24.999Z</time></trkpt><trkpt lat="46.1420394848696" lon="12.317087429139617"><ele>386.0</ele><time>2026-04-25T14:33:25.999Z</time></trkpt><trkpt lat="46.14221237741725" lon="12.31719981959561"><ele>385.66666666666663</ele><time>2026-04-25T14:33:26.999Z</time></trkpt><trkpt lat="46.14238236922728" lon="12.317323495086551"><ele>385.33333333333337</ele><time>2026-04-25T14:33:27.999Z</time></trkpt><trkpt lat="46.14254952372515" lon="12.317454645737147"><ele>385.0</ele><time>2026-04-25T14:33:28.999Z</time></trkpt><trkpt lat="46.14270644714164" lon="12.317596300800151"><ele>385.0</ele><time>2026-04-25T14:33:29.999Z</time></trkpt><trkpt lat="46.14285853386676" lon="12.31773765375122"><ele>385.0</ele><time>2026-04-25T14:33:30.999Z</time></trkpt><trkpt lat="46.1430072304265" lon="12.317872751898777"><ele>385.0</ele><time>2026-04-25T14:33:31.999Z</time></trkpt><trkpt lat="46.143159967854096" lon="12.317994390913729"><ele>385.33333333333337</ele><time>2026-04-25T14:33:32.999Z</time></trkpt><trkpt lat="46.14332172150067" lon="12.318085379963655"><ele>385.66666666666663</ele><time>2026-04-25T14:33:33.999Z</time></trkpt><trkpt lat="46.143493048042366" lon="12.318165819198503"><ele>386.0</ele><time>2026-04-25T14:33:34.999Z</time></trkpt><trkpt lat="46.14366950787653" lon="12.318227222697791"><ele>386.0</ele><time>2026-04-25T14:33:35.999Z</time></trkpt><trkpt lat="46.14384791458488" lon="12.318284917316646"><ele>386.0</ele><time>2026-04-25T14:33:36.999Z</time></trkpt><trkpt lat="46.14402219234726" lon="12.318358065152816"><ele>386.0</ele><time>2026-04-25T14:33:37.999Z</time></trkpt><trkpt lat="46.14418972836423" lon="12.318450362902892"><ele>387.3333333333333</ele><time>2026-04-25T14:33:38.999Z</time></trkpt><trkpt lat="46.14435826172883" lon="12.318569015895946"><ele>388.66666666666663</ele><time>2026-04-25T14:33:39.999Z</time></trkpt><trkpt lat="46.1445178214585" lon="12.318703474725146"><ele>390.0</ele><time>2026-04-25T14:33:40.999Z</time></trkpt><trkpt lat="46.14466917609375" lon="12.318859759993105"><ele>388.66666666666663</ele><time>2026-04-25T14:33:41.999Z</time></trkpt><trkpt lat="46.144812867057865" lon="12.31901550732185"><ele>387.3333333333333</ele><time>2026-04-25T14:33:42.999Z</time></trkpt><trkpt lat="46.144960120917965" lon="12.319149556368332"><ele>386.0</ele><time>2026-04-25T14:33:43.999Z</time></trkpt><trkpt lat="46.14511673846005" lon="12.319252963492595"><ele>386.0</ele><time>2026-04-25T14:33:44.999Z</time></trkpt><trkpt lat="46.14528245301823" lon="12.319330621432089"><ele>386.0</ele><time>2026-04-25T14:33:45.999Z</time></trkpt><trkpt lat="46.14545016380455" lon="12.319394818296331"><ele>386.0</ele><time>2026-04-25T14:33:46.999Z</time></trkpt><trkpt lat="46.145625124395856" lon="12.319428872449329"><ele>388.3333333333333</ele><time>2026-04-25T14:33:47.999Z</time></trkpt><trkpt lat="46.145801196797045" lon="12.319438024607505"><ele>390.66666666666663</ele><time>2026-04-25T14:33:48.999Z</time></trkpt><trkpt lat="46.14598096509" lon="12.319425506871951"><ele>393.0</ele><time>2026-04-25T14:33:49.999Z</time></trkpt><trkpt lat="46.14616430225519" lon="12.319393799129601"><ele>393.0</ele><time>2026-04-25T14:33:50.999Z</time></trkpt><trkpt lat="46.146347731969065" lon="12.3193579382775"><ele>393.0</ele><time>2026-04-25T14:33:51.999Z</time></trkpt><trkpt lat="46.14653519195657" lon="12.319325588384588"><ele>393.0</ele><time>2026-04-25T14:33:52.999Z</time></trkpt><trkpt lat="46.14672037781497" lon="12.319294247836032"><ele>393.33333333333337</ele><time>2026-04-25T14:33:53.999Z</time></trkpt><trkpt lat="46.14690826023485" lon="12.319257053167782"><ele>393.6666666666667</ele><time>2026-04-25T14:33:54.999Z</time></trkpt><trkpt lat="46.14709798227975" lon="12.319220893419232"><ele>394.0</ele><time>2026-04-25T14:33:55.999Z</time></trkpt><trkpt lat="46.14727921972242" lon="12.319187006418563"><ele>393.33333333333337</ele><time>2026-04-25T14:33:57Z</time></trkpt><trkpt lat="46.14746050318092" lon="12.31915533576864"><ele>392.66666666666663</ele><time>2026-04-25T14:33:58Z</time></trkpt><trkpt lat="46.1476402951433" lon="12.319127688085356"><ele>392.0</ele><time>2026-04-25T14:33:59Z</time></trkpt><trkpt lat="46.1478245439372" lon="12.319119179450906"><ele>392.0</ele><time>2026-04-25T14:34:00Z</time></trkpt><trkpt lat="46.14801458700698" lon="12.31913316405586"><ele>392.0</ele><time>2026-04-25T14:34:01Z</time></trkpt><trkpt lat="46.14820778885171" lon="12.319157889741481"><ele>392.0</ele><time>2026-04-25T14:34:02Z</time></trkpt><trkpt lat="46.14840342266668" lon="12.319197443569738"><ele>391.66666666666663</ele><time>2026-04-25T14:34:03Z</time></trkpt><trkpt lat="46.148593229890494" lon="12.3192380017924"><ele>391.33333333333337</ele><time>2026-04-25T14:34:04Z</time></trkpt><trkpt lat="46.148779109257006" lon="12.319267565010996"><ele>391.0</ele><time>2026-04-25T14:34:05Z</time></trkpt><trkpt lat="46.14895922499273" lon="12.319295820884038"><ele>390.6666666666667</ele><time>2026-04-25T14:34:06Z</time></trkpt><trkpt lat="46.14913584221494" lon="12.31929936214103"><ele>390.33333333333337</ele><time>2026-04-25T14:34:07Z</time></trkpt><trkpt lat="46.14931496436288" lon="12.3192794773471"><ele>390.0</ele><time>2026-04-25T14:34:08Z</time></trkpt><trkpt lat="46.14949362846005" lon="12.319246541189873"><ele>390.0</ele><time>2026-04-25T14:34:09Z</time></trkpt><trkpt lat="46.14967118015633" lon="12.319203030890051"><ele>390.0</ele><time>2026-04-25T14:34:10Z</time></trkpt><trkpt lat="46.149843418890086" lon="12.31915819812094"><ele>390.0</ele><time>2026-04-25T14:34:11Z</time></trkpt><trkpt lat="46.1500119384834" lon="12.319119072523353"><ele>390.25</ele><time>2026-04-25T14:34:12Z</time></trkpt><trkpt lat="46.15016407788627" lon="12.31906696351487"><ele>390.5</ele><time>2026-04-25T14:34:13Z</time></trkpt><trkpt lat="46.15030849529003" lon="12.319040697154767"><ele>390.75</ele><time>2026-04-25T14:34:14Z</time></trkpt><trkpt lat="46.15044850438123" lon="12.31901625934459"><ele>391.0</ele><time>2026-04-25T14:34:15Z</time></trkpt><trkpt lat="46.15058763825229" lon="12.319051939098552"><ele>390.0</ele><time>2026-04-25T14:34:16Z</time></trkpt><trkpt lat="46.150727284067884" lon="12.319103111239688"><ele>389.0</ele><time>2026-04-25T14:34:17Z</time></trkpt><trkpt lat="46.150901073415426" lon="12.319191944836076"><ele>388.0</ele><time>2026-04-25T14:34:18Z</time></trkpt><trkpt lat="46.15106872526181" lon="12.31925649779034"><ele>388.0</ele><time>2026-04-25T14:34:19Z</time></trkpt><trkpt lat="46.15124370891488" lon="12.319315511107963"><ele>388.0</ele><time>2026-04-25T14:34:20Z</time></trkpt><trkpt lat="46.15142057001677" lon="12.319347991796064"><ele>388.0</ele><time>2026-04-25T14:34:21Z</time></trkpt><trkpt lat="46.15160212383669" lon="12.319368845080426"><ele>389.33333333333337</ele><time>2026-04-25T14:34:22Z</time></trkpt><trkpt lat="46.15178412256457" lon="12.319380466729108"><ele>390.66666666666663</ele><time>2026-04-25T14:34:23Z</time></trkpt><trkpt lat="46.15197423774078" lon="12.31939032022382"><ele>392.0</ele><time>2026-04-25T14:34:24Z</time></trkpt><trkpt lat="46.15216428636463" lon="12.3193891757869"><ele>392.0</ele><time>2026-04-25T14:34:25Z</time></trkpt><trkpt lat="46.15235318924087" lon="12.319377110702705"><ele>392.0</ele><time>2026-04-25T14:34:26Z</time></trkpt><trkpt lat="46.15254648652298" lon="12.319362380413969"><ele>392.0</ele><time>2026-04-25T14:34:27Z</time></trkpt><trkpt lat="46.15274662864164" lon="12.319360006177936"><ele>391.66666666666663</ele><time>2026-04-25T14:34:28Z</time></trkpt><trkpt lat="46.15295068923151" lon="12.319358300741307"><ele>391.33333333333337</ele><time>2026-04-25T14:34:29Z</time></trkpt><trkpt lat="46.15316507806434" lon="12.319359841707508"><ele>391.0</ele><time>2026-04-25T14:34:30Z</time></trkpt><trkpt lat="46.15341214000946" lon="12.31937745682578"><ele>391.0</ele><time>2026-04-25T14:34:31Z</time></trkpt><trkpt lat="46.153685707199806" lon="12.31941021311944"><ele>391.0</ele><time>2026-04-25T14:34:32Z</time></trkpt><trkpt lat="46.15398570803514" lon="12.319423578754279"><ele>391.0</ele><time>2026-04-25T14:34:33Z</time></trkpt><trkpt lat="46.153972682747884" lon="12.319306373882005"><ele>391.0</ele><time>2026-04-25T14:34:34Z</time></trkpt><trkpt lat="46.15418149926121" lon="12.31926963688677"><ele>391.0</ele><time>2026-04-25T14:34:35Z</time></trkpt><trkpt lat="46.15438280153302" lon="12.319234502812579"><ele>390.0</ele><time>2026-04-25T14:34:36Z</time></trkpt><trkpt lat="46.15458564738493" lon="12.31918567986123"><ele>389.0</ele><time>2026-04-25T14:34:37Z</time></trkpt><trkpt lat="46.15479242602463" lon="12.319132887078375"><ele>388.0</ele><time>2026-04-25T14:34:38Z</time></trkpt><trkpt lat="46.15499478486847" lon="12.319063713757645"><ele>386.6666666666667</ele><time>2026-04-25T14:34:39Z</time></trkpt><trkpt lat="46.15518619016311" lon="12.318998120342247"><ele>385.33333333333337</ele><time>2026-04-25T14:34:40Z</time></trkpt><trkpt lat="46.15537913327873" lon="12.318916332734187"><ele>384.0</ele><time>2026-04-25T14:34:41Z</time></trkpt><trkpt lat="46.15559411484196" lon="12.318861323508434"><ele>387.0</ele><time>2026-04-25T14:34:42Z</time></trkpt><trkpt lat="46.15580174018854" lon="12.31879390497676"><ele>390.0</ele><time>2026-04-25T14:34:43Z</time></trkpt><trkpt lat="46.15600560253976" lon="12.318735584915009"><ele>393.0</ele><time>2026-04-25T14:34:44Z</time></trkpt><trkpt lat="46.15620655685989" lon="12.318670853232335"><ele>393.0</ele><time>2026-04-25T14:34:45Z</time></trkpt><trkpt lat="46.156407988081725" lon="12.31860821134966"><ele>393.0</ele><time>2026-04-25T14:34:46Z</time></trkpt><trkpt lat="46.15661101671001" lon="12.318545853404265"><ele>393.0</ele><time>2026-04-25T14:34:47Z</time></trkpt><trkpt lat="46.15681322982444" lon="12.318500848397655"><ele>392.0</ele><time>2026-04-25T14:34:48Z</time></trkpt><trkpt lat="46.15701531127585" lon="12.318426334652166"><ele>391.0</ele><time>2026-04-25T14:34:49Z</time></trkpt><trkpt lat="46.15721283800472" lon="12.31836647285139"><ele>390.0</ele><time>2026-04-25T14:34:50Z</time></trkpt><trkpt lat="46.1574049130147" lon="12.318357287049688"><ele>387.6666666666667</ele><time>2026-04-25T14:34:51Z</time></trkpt><trkpt lat="46.15761150366566" lon="12.31828358488376"><ele>385.33333333333337</ele><time>2026-04-25T14:34:52Z</time></trkpt><trkpt lat="46.15780438779019" lon="12.31824235755075"><ele>383.0</ele><time>2026-04-25T14:34:53Z</time></trkpt><trkpt lat="46.15801587887427" lon="12.318209364442408"><ele>382.6666666666667</ele><time>2026-04-25T14:34:53.999Z</time></trkpt><trkpt lat="46.158217004000306" lon="12.31818366529073"><ele>382.3333333333333</ele><time>2026-04-25T14:34:54.999Z</time></trkpt><trkpt lat="46.158426109270636" lon="12.318163210730571"><ele>382.0</ele><time>2026-04-25T14:34:55.999Z</time></trkpt><trkpt lat="46.15859198779547" lon="12.318121073981189"><ele>382.0</ele><time>2026-04-25T14:34:56.999Z</time></trkpt><trkpt lat="46.158785754389015" lon="12.318135859796989"><ele>382.0</ele><time>2026-04-25T14:34:57.999Z</time></trkpt><trkpt lat="46.158972615727826" lon="12.31817333241725"><ele>382.0</ele><time>2026-04-25T14:34:58.999Z</time></trkpt><trkpt lat="46.15915738002928" lon="12.318234356146242"><ele>382.66666666666663</ele><time>2026-04-25T14:34:59.999Z</time></trkpt><trkpt lat="46.15934093159563" lon="12.31830866284808"><ele>383.3333333333333</ele><time>2026-04-25T14:35:00.999Z</time></trkpt><trkpt lat="46.159519763631195" lon="12.318397104182926"><ele>384.0</ele><time>2026-04-25T14:35:01.999Z</time></trkpt><trkpt lat="46.15969575928558" lon="12.318501314978976"><ele>384.66666666666663</ele><time>2026-04-25T14:35:02.999Z</time></trkpt><trkpt lat="46.15986683971221" lon="12.3186170044257"><ele>385.3333333333333</ele><time>2026-04-25T14:35:03.999Z</time></trkpt><trkpt lat="46.16003147811989" lon="12.3187613779681"><ele>386.0</ele><time>2026-04-25T14:35:04.999Z</time></trkpt><trkpt lat="46.160191744338555" lon="12.318914495003046"><ele>386.0</ele><time>2026-04-25T14:35:05.999Z</time></trkpt><trkpt lat="46.16034497730623" lon="12.319068550414999"><ele>386.0</ele><time>2026-04-25T14:35:06.999Z</time></trkpt><trkpt lat="46.160481497266225" lon="12.319220061866725"><ele>386.0</ele><time>2026-04-25T14:35:07.999Z</time></trkpt><trkpt lat="46.1606102778375" lon="12.319358333104056"><ele>386.0</ele><time>2026-04-25T14:35:08.999Z</time></trkpt><trkpt lat="46.160730944703" lon="12.319481754803835"><ele>386.0</ele><time>2026-04-25T14:35:09.999Z</time></trkpt><trkpt lat="46.160849594551344" lon="12.31959120904357"><ele>386.0</ele><time>2026-04-25T14:35:10.999Z</time></trkpt><trkpt lat="46.16097014374435" lon="12.319680439155142"><ele>386.0</ele><time>2026-04-25T14:35:11.999Z</time></trkpt><trkpt lat="46.16110587570167" lon="12.319738969373564"><ele>386.0</ele><time>2026-04-25T14:35:12.999Z</time></trkpt><trkpt lat="46.16125751039468" lon="12.319754954792712"><ele>386.0</ele><time>2026-04-25T14:35:13.999Z</time></trkpt><trkpt lat="46.16141790087166" lon="12.319727016971001"><ele>386.0</ele><time>2026-04-25T14:35:14.999Z</time></trkpt><trkpt lat="46.16158082587163" lon="12.319645946545046"><ele>390.66666666666663</ele><time>2026-04-25T14:35:15.999Z</time></trkpt><trkpt lat="46.1617374031583" lon="12.319511683674301"><ele>395.33333333333337</ele><time>2026-04-25T14:35:16.999Z</time></trkpt><trkpt lat="46.161896916991125" lon="12.319344247859364"><ele>400.0</ele><time>2026-04-25T14:35:17.999Z</time></trkpt><trkpt lat="46.16206802434214" lon="12.319131857217718"><ele>400.0</ele><time>2026-04-25T14:35:18.999Z</time></trkpt><trkpt lat="46.16224283392171" lon="12.318929892596032"><ele>400.0</ele><time>2026-04-25T14:35:19.999Z</time></trkpt><trkpt lat="46.16242080920438" lon="12.318740620172159"><ele>400.0</ele><time>2026-04-25T14:35:20.999Z</time></trkpt><trkpt lat="46.16259165910699" lon="12.318562692872522"><ele>400.0</ele><time>2026-04-25T14:35:21.999Z</time></trkpt><trkpt lat="46.16275683530418" lon="12.318406264061561"><ele>400.0</ele><time>2026-04-25T14:35:22.999Z</time></trkpt><trkpt lat="46.16291100472406" lon="12.318239606039366"><ele>400.0</ele><time>2026-04-25T14:35:23.999Z</time></trkpt><trkpt lat="46.163060430125064" lon="12.318064109707956"><ele>400.0</ele><time>2026-04-25T14:35:24.999Z</time></trkpt><trkpt lat="46.16321386413264" lon="12.317888290306191"><ele>400.0</ele><time>2026-04-25T14:35:25.999Z</time></trkpt><trkpt lat="46.163361836376396" lon="12.317705809084151"><ele>400.0</ele><time>2026-04-25T14:35:26.999Z</time></trkpt><trkpt lat="46.1635010456537" lon="12.317503754274355"><ele>400.0</ele><time>2026-04-25T14:35:27.999Z</time></trkpt><trkpt lat="46.16363998549358" lon="12.317292266715548"><ele>400.0</ele><time>2026-04-25T14:35:28.999Z</time></trkpt><trkpt lat="46.16377170971754" lon="12.317073701600373"><ele>400.0</ele><time>2026-04-25T14:35:29.999Z</time></trkpt><trkpt lat="46.16389508340909" lon="12.316867732744969"><ele>400.33333333333337</ele><time>2026-04-25T14:35:30.999Z</time></trkpt><trkpt lat="46.164009792840695" lon="12.316680209440356"><ele>400.66666666666663</ele><time>2026-04-25T14:35:31.999Z</time></trkpt><trkpt lat="46.164114620926796" lon="12.316511232305782"><ele>401.0</ele><time>2026-04-25T14:35:32.999Z</time></trkpt><trkpt lat="46.16431158843709" lon="12.316202785991832"><ele>399.5</ele><time>2026-04-25T14:35:34.999Z</time></trkpt><trkpt lat="46.16440992010978" lon="12.316067612886336"><ele>398.0</ele><time>2026-04-25T14:35:35.999Z</time></trkpt><trkpt lat="46.16450913635896" lon="12.315961928908385"><ele>396.5</ele><time>2026-04-25T14:35:36.999Z</time></trkpt><trkpt lat="46.16461426368655" lon="12.315857286120234"><ele>395.0</ele><time>2026-04-25T14:35:37.999Z</time></trkpt><trkpt lat="46.16472254081141" lon="12.31576159534766"><ele>395.0</ele><time>2026-04-25T14:35:38.999Z</time></trkpt><trkpt lat="46.16483879000144" lon="12.315685718355793"><ele>395.0</ele><time>2026-04-25T14:35:39.999Z</time></trkpt><trkpt lat="46.16496331655623" lon="12.315623147796511"><ele>395.0</ele><time>2026-04-25T14:35:40.999Z</time></trkpt><trkpt lat="46.16509532258789" lon="12.315577779452516"><ele>395.0</ele><time>2026-04-25T14:35:41.999Z</time></trkpt><trkpt lat="46.165231801774766" lon="12.315538035932397"><ele>394.0</ele><time>2026-04-25T14:35:42.999Z</time></trkpt><trkpt lat="46.16537202782993" lon="12.315511662774863"><ele>393.0</ele><time>2026-04-25T14:35:43.999Z</time></trkpt><trkpt lat="46.165511463180735" lon="12.31549599991261"><ele>392.0</ele><time>2026-04-25T14:35:44.999Z</time></trkpt><trkpt lat="46.165653887298724" lon="12.315487805117751"><ele>391.0</ele><time>2026-04-25T14:35:45.999Z</time></trkpt><trkpt lat="46.16578527266906" lon="12.31548912406179"><ele>390.5</ele><time>2026-04-25T14:35:46.999Z</time></trkpt><trkpt lat="46.165907976975916" lon="12.315499869989127"><ele>390.0</ele><time>2026-04-25T14:35:47.999Z</time></trkpt><trkpt lat="46.166023584061364" lon="12.315517823714872"><ele>389.5</ele><time>2026-04-25T14:35:48.999Z</time></trkpt><trkpt lat="46.16613290159022" lon="12.315542970941028"><ele>389.0</ele><time>2026-04-25T14:35:49.999Z</time></trkpt><trkpt lat="46.1662448767163" lon="12.315562489853152"><ele>389.0</ele><time>2026-04-25T14:35:50.999Z</time></trkpt><trkpt lat="46.1663620437334" lon="12.315559714000699"><ele>389.0</ele><time>2026-04-25T14:35:51.999Z</time></trkpt><trkpt lat="46.16648259690206" lon="12.315529332296958"><ele>389.0</ele><time>2026-04-25T14:35:52.999Z</time></trkpt><trkpt lat="46.166604568466404" lon="12.315461097559973"><ele>389.0</ele><time>2026-04-25T14:35:53.999Z</time></trkpt><trkpt lat="46.16671784770959" lon="12.315373301540715"><ele>389.0</ele><time>2026-04-25T14:35:54.999Z</time></trkpt><trkpt lat="46.1668172459926" lon="12.315277308163806"><ele>389.0</ele><time>2026-04-25T14:35:55.999Z</time></trkpt><trkpt lat="46.16690723255462" lon="12.315183739140467"><ele>389.0</ele><time>2026-04-25T14:35:56.999Z</time></trkpt><trkpt lat="46.16698871190876" lon="12.31508579056802"><ele>389.0</ele><time>2026-04-25T14:35:57.999Z</time></trkpt><trkpt lat="46.16709817624284" lon="12.314837689478603"><ele>389.6</ele><time>2026-04-25T14:35:59.999Z</time></trkpt><trkpt lat="46.16710975097562" lon="12.314687449202415"><ele>390.2</ele><time>2026-04-25T14:36:00.999Z</time></trkpt><trkpt lat="46.16708088487221" lon="12.314542559796584"><ele>390.8</ele><time>2026-04-25T14:36:01.999Z</time></trkpt><trkpt lat="46.167032957440355" lon="12.314418853640309"><ele>391.40000000000003</ele><time>2026-04-25T14:36:03Z</time></trkpt><trkpt lat="46.16698898672848" lon="12.314304015503293"><ele>392.0</ele><time>2026-04-25T14:36:04Z</time></trkpt><trkpt lat="46.16691718664518" lon="12.31422553561291"><ele>392.0</ele><time>2026-04-25T14:36:05Z</time></trkpt><trkpt lat="46.16684564133047" lon="12.314131402612329"><ele>392.0</ele><time>2026-04-25T14:36:06Z</time></trkpt><trkpt lat="46.16678058796094" lon="12.314027589904924"><ele>392.0</ele><time>2026-04-25T14:36:07Z</time></trkpt><trkpt lat="46.16674778148392" lon="12.313901415953435"><ele>392.0</ele><time>2026-04-25T14:36:08Z</time></trkpt><trkpt lat="46.1667378186637" lon="12.313778770190405"><ele>392.0</ele><time>2026-04-25T14:36:09Z</time></trkpt><trkpt lat="46.16674320562498" lon="12.313654004501078"><ele>392.40000000000003</ele><time>2026-04-25T14:36:10Z</time></trkpt><trkpt lat="46.16674567117989" lon="12.313513275725041"><ele>392.8</ele><time>2026-04-25T14:36:11Z</time></trkpt><trkpt lat="46.16674851526746" lon="12.313365721778917"><ele>393.2</ele><time>2026-04-25T14:36:12Z</time></trkpt><trkpt lat="46.16675098700195" lon="12.313219723957921"><ele>393.6</ele><time>2026-04-25T14:36:13Z</time></trkpt><trkpt lat="46.16675347585489" lon="12.313074436092446"><ele>394.0</ele><time>2026-04-25T14:36:14Z</time></trkpt><trkpt lat="46.16675963240224" lon="12.31292645575784"><ele>394.33333333333337</ele><time>2026-04-25T14:36:15Z</time></trkpt><trkpt lat="46.166765856327444" lon="12.31278294459946"><ele>394.6666666666667</ele><time>2026-04-25T14:36:16Z</time></trkpt><trkpt lat="46.16676208621758" lon="12.312663948874768"><ele>395.0</ele><time>2026-04-25T14:36:17Z</time></trkpt><trkpt lat="46.16676489792481" lon="12.31255496035344"><ele>395.33333333333337</ele><time>2026-04-25T14:36:19Z</time></trkpt><trkpt lat="46.16678792929987" lon="12.312414393799774"><ele>395.6666666666667</ele><time>2026-04-25T14:37:22.999Z</time></trkpt><trkpt lat="46.166804300365825" lon="12.312311367917234"><ele>396.0</ele><time>2026-04-25T14:37:23.999Z</time></trkpt><trkpt lat="46.166833120935614" lon="12.312206388186434"><ele>396.6</ele><time>2026-04-25T14:37:24.999Z</time></trkpt><trkpt lat="46.16688782294428" lon="12.312086276206305"><ele>397.20000000000005</ele><time>2026-04-25T14:37:25.999Z</time></trkpt><trkpt lat="46.16695655131364" lon="12.31197627127066"><ele>397.79999999999995</ele><time>2026-04-25T14:37:26.999Z</time></trkpt><trkpt lat="46.167040615946014" lon="12.311874963202133"><ele>398.4</ele><time>2026-04-25T14:37:27.999Z</time></trkpt><trkpt lat="46.16713911993876" lon="12.311790929356533"><ele>399.0</ele><time>2026-04-25T14:37:28.999Z</time></trkpt><trkpt lat="46.16724690873146" lon="12.311720162845234"><ele>398.25</ele><time>2026-04-25T14:37:29.999Z</time></trkpt><trkpt lat="46.16736096275123" lon="12.311655664971418"><ele>397.5</ele><time>2026-04-25T14:37:30.999Z</time></trkpt><trkpt lat="46.16747906324612" lon="12.311590215967259"><ele>396.75</ele><time>2026-04-25T14:37:31.999Z</time></trkpt><trkpt lat="46.167597986298475" lon="12.311521565266068"><ele>396.0</ele><time>2026-04-25T14:37:32.999Z</time></trkpt><trkpt lat="46.16771933150256" lon="12.311448205933603"><ele>397.5</ele><time>2026-04-25T14:37:33.999Z</time></trkpt><trkpt lat="46.167844660209106" lon="12.311375207344748"><ele>399.0</ele><time>2026-04-25T14:37:34.999Z</time></trkpt><trkpt lat="46.167972699989484" lon="12.31130355193771"><ele>400.5</ele><time>2026-04-25T14:37:35.999Z</time></trkpt><trkpt lat="46.16810346925654" lon="12.311228706801469"><ele>402.0</ele><time>2026-04-25T14:37:36.999Z</time></trkpt><trkpt lat="46.168233752499766" lon="12.3111565751913"><ele>402.0</ele><time>2026-04-25T14:37:37.999Z</time></trkpt><trkpt lat="46.16836720888006" lon="12.311082240704023"><ele>402.0</ele><time>2026-04-25T14:37:38.999Z</time></trkpt><trkpt lat="46.1685053392526" lon="12.311000345437996"><ele>402.0</ele><time>2026-04-25T14:37:39.999Z</time></trkpt><trkpt lat="46.16864272825976" lon="12.310912595328354"><ele>402.0</ele><time>2026-04-25T14:37:40.999Z</time></trkpt><trkpt lat="46.1687927075106" lon="12.310832489701289"><ele>402.0</ele><time>2026-04-25T14:37:41.999Z</time></trkpt><trkpt lat="46.16895322705941" lon="12.310764971267995"><ele>402.0</ele><time>2026-04-25T14:37:42.999Z</time></trkpt><trkpt lat="46.16911746033513" lon="12.310688147981507"><ele>402.0</ele><time>2026-04-25T14:37:43.999Z</time></trkpt><trkpt lat="46.16928149186827" lon="12.310621402445008"><ele>405.0</ele><time>2026-04-25T14:37:44.999Z</time></trkpt><trkpt lat="46.169448169139585" lon="12.310543973171477"><ele>408.0</ele><time>2026-04-25T14:37:45.999Z</time></trkpt><trkpt lat="46.16960662420855" lon="12.310458805699888"><ele>411.0</ele><time>2026-04-25T14:37:46.999Z</time></trkpt><trkpt lat="46.16976362729614" lon="12.310375673978637"><ele>405.0</ele><time>2026-04-25T14:37:47.999Z</time></trkpt><trkpt lat="46.16992843998042" lon="12.310285585055365"><ele>399.0</ele><time>2026-04-25T14:37:48.999Z</time></trkpt><trkpt lat="46.170087447160775" lon="12.310186458367918"><ele>393.0</ele><time>2026-04-25T14:37:49.999Z</time></trkpt><trkpt lat="46.17023611884581" lon="12.310076848312464"><ele>393.0</ele><time>2026-04-25T14:37:50.999Z</time></trkpt><trkpt lat="46.17034379698216" lon="12.309930457176256"><ele>393.0</ele><time>2026-04-25T14:37:51.999Z</time></trkpt><trkpt lat="46.170500166490335" lon="12.309804948149804"><ele>393.0</ele><time>2026-04-25T14:37:52.999Z</time></trkpt><trkpt lat="46.170637975540785" lon="12.309660690721673"><ele>392.66666666666663</ele><time>2026-04-25T14:37:53.999Z</time></trkpt><trkpt lat="46.17076368910735" lon="12.309510613875068"><ele>392.3333333333333</ele><time>2026-04-25T14:37:54.999Z</time></trkpt><trkpt lat="46.170887354537115" lon="12.309350700018001"><ele>392.0</ele><time>2026-04-25T14:37:55.999Z</time></trkpt><trkpt lat="46.1710124189492" lon="12.309184921160128"><ele>392.0</ele><time>2026-04-25T14:37:56.999Z</time></trkpt><trkpt lat="46.171125356052485" lon="12.308997120050444"><ele>392.0</ele><time>2026-04-25T14:37:57.999Z</time></trkpt><trkpt lat="46.17124006963842" lon="12.308807644974946"><ele>392.0</ele><time>2026-04-25T14:37:58.999Z</time></trkpt><trkpt lat="46.17133825138021" lon="12.308628330945918"><ele>391.0</ele><time>2026-04-25T14:37:59.999Z</time></trkpt><trkpt lat="46.17144391199661" lon="12.30843454121479"><ele>390.0</ele><time>2026-04-25T14:38:00.999Z</time></trkpt><trkpt lat="46.17155763637242" lon="12.308240079760694"><ele>389.0</ele><time>2026-04-25T14:38:01.999Z</time></trkpt><trkpt lat="46.171659001959426" lon="12.308039302084898"><ele>389.0</ele><time>2026-04-25T14:38:02.999Z</time></trkpt><trkpt lat="46.17175321682619" lon="12.307825706903166"><ele>389.0</ele><time>2026-04-25T14:38:03.999Z</time></trkpt><trkpt lat="46.171865184685196" lon="12.307633762723377"><ele>389.0</ele><time>2026-04-25T14:38:04.999Z</time></trkpt><trkpt lat="46.17198680189228" lon="12.307468567090158"><ele>389.0</ele><time>2026-04-25T14:38:05.999Z</time></trkpt><trkpt lat="46.172112447856485" lon="12.307288031040844"><ele>389.0</ele><time>2026-04-25T14:38:06.999Z</time></trkpt><trkpt lat="46.17288110459546" lon="12.307362686162609"><ele>389.3333333333333</ele><time>2026-04-25T14:38:07.999Z</time></trkpt><trkpt lat="46.17302951762459" lon="12.307162634799056"><ele>389.66666666666663</ele><time>2026-04-25T14:38:09Z</time></trkpt><trkpt lat="46.17317343750321" lon="12.306954442569472"><ele>390.0</ele><time>2026-04-25T14:38:10Z</time></trkpt><trkpt lat="46.17331598550504" lon="12.306742396062072"><ele>388.0</ele><time>2026-04-25T14:38:11Z</time></trkpt><trkpt lat="46.17345189666353" lon="12.30652928472674"><ele>386.0</ele><time>2026-04-25T14:38:12Z</time></trkpt><trkpt lat="46.17358965514904" lon="12.306308746571787"><ele>384.0</ele><time>2026-04-25T14:38:13Z</time></trkpt><trkpt lat="46.1737274799962" lon="12.306097971181579"><ele>384.0</ele><time>2026-04-25T14:38:14Z</time></trkpt><trkpt lat="46.173857366995506" lon="12.305867240685856"><ele>384.0</ele><time>2026-04-25T14:38:15Z</time></trkpt><trkpt lat="46.17398866398385" lon="12.305642610993054"><ele>384.0</ele><time>2026-04-25T14:38:16Z</time></trkpt><trkpt lat="46.17411467182378" lon="12.30541134743552"><ele>384.66666666666663</ele><time>2026-04-25T14:38:17Z</time></trkpt><trkpt lat="46.17424077459972" lon="12.305186378094541"><ele>385.3333333333333</ele><time>2026-04-25T14:38:18Z</time></trkpt><trkpt lat="46.17436512593828" lon="12.304953158291463"><ele>386.0</ele><time>2026-04-25T14:38:19Z</time></trkpt><trkpt lat="46.17448971250472" lon="12.304721166069989"><ele>386.0</ele><time>2026-04-25T14:38:20Z</time></trkpt><trkpt lat="46.17461697240577" lon="12.304492757779343"><ele>386.0</ele><time>2026-04-25T14:38:21Z</time></trkpt><trkpt lat="46.17474204732864" lon="12.30425928950349"><ele>386.0</ele><time>2026-04-25T14:38:22Z</time></trkpt><trkpt lat="46.174865919239856" lon="12.304023607602304"><ele>384.3333333333333</ele><time>2026-04-25T14:38:23Z</time></trkpt><trkpt lat="46.17498937630945" lon="12.303789354727014"><ele>382.66666666666663</ele><time>2026-04-25T14:38:24Z</time></trkpt><trkpt lat="46.17511711347793" lon="12.303557715842912"><ele>381.0</ele><time>2026-04-25T14:38:25Z</time></trkpt><trkpt lat="46.17524333905411" lon="12.303325019368513"><ele>381.0</ele><time>2026-04-25T14:38:26Z</time></trkpt><trkpt lat="46.175371469764904" lon="12.303100068931025"><ele>381.0</ele><time>2026-04-25T14:38:27Z</time></trkpt><trkpt lat="46.17550007944206" lon="12.302872264967021"><ele>381.0</ele><time>2026-04-25T14:38:28Z</time></trkpt><trkpt lat="46.17562953714629" lon="12.30264713143165"><ele>380.0</ele><time>2026-04-25T14:38:29Z</time></trkpt><trkpt lat="46.175763686775866" lon="12.302419162326478"><ele>379.0</ele><time>2026-04-25T14:38:30Z</time></trkpt><trkpt lat="46.17590144650592" lon="12.302196439995553"><ele>378.0</ele><time>2026-04-25T14:38:31Z</time></trkpt><trkpt lat="46.17605137452432" lon="12.30197887280423"><ele>377.6666666666667</ele><time>2026-04-25T14:38:32Z</time></trkpt><trkpt lat="46.17618903873556" lon="12.301755937409938"><ele>377.33333333333337</ele><time>2026-04-25T14:38:33Z</time></trkpt><trkpt lat="46.17634318298314" lon="12.301558184778674"><ele>377.0</ele><time>2026-04-25T14:38:34Z</time></trkpt><trkpt lat="46.176487766216006" lon="12.301368010420537"><ele>375.5</ele><time>2026-04-25T14:38:35Z</time></trkpt><trkpt lat="46.17664591821038" lon="12.301139918234876"><ele>374.0</ele><time>2026-04-25T14:38:36Z</time></trkpt><trkpt lat="46.176827955094545" lon="12.3009272318347"><ele>374.0</ele><time>2026-04-25T14:38:37Z</time></trkpt><trkpt lat="46.17696375610397" lon="12.300733909575401"><ele>374.0</ele><time>2026-04-25T14:38:38Z</time></trkpt><trkpt lat="46.17712893357461" lon="12.300537656220135"><ele>374.0</ele><time>2026-04-25T14:38:39Z</time></trkpt><trkpt lat="46.17729276389102" lon="12.300339944826215"><ele>376.33333333333337</ele><time>2026-04-25T14:38:40Z</time></trkpt><trkpt lat="46.177448770198986" lon="12.300137604165892"><ele>378.6666666666667</ele><time>2026-04-25T14:38:41Z</time></trkpt><trkpt lat="46.177620689209895" lon="12.299935574672304"><ele>381.0</ele><time>2026-04-25T14:38:42Z</time></trkpt><trkpt lat="46.177785561003645" lon="12.299745341323604"><ele>383.33333333333337</ele><time>2026-04-25T14:38:43Z</time></trkpt><trkpt lat="46.17794416930023" lon="12.299557354659557"><ele>385.6666666666667</ele><time>2026-04-25T14:38:44Z</time></trkpt><trkpt lat="46.17810927567311" lon="12.299364722183089"><ele>388.0</ele><time>2026-04-25T14:38:45Z</time></trkpt><trkpt lat="46.1782714393256" lon="12.299170821242768"><ele>388.0</ele><time>2026-04-25T14:38:46Z</time></trkpt><trkpt lat="46.17843084353735" lon="12.298973128464677"><ele>388.0</ele><time>2026-04-25T14:38:47Z</time></trkpt><trkpt lat="46.178591124368026" lon="12.298781523090575"><ele>388.0</ele><time>2026-04-25T14:38:48Z</time></trkpt><trkpt lat="46.1787546809006" lon="12.298586975521244"><ele>390.0</ele><time>2026-04-25T14:38:49Z</time></trkpt><trkpt lat="46.17891545144465" lon="12.298393741149834"><ele>392.0</ele><time>2026-04-25T14:38:50Z</time></trkpt><trkpt lat="46.1790674306901" lon="12.298184912231823"><ele>394.0</ele><time>2026-04-25T14:38:51Z</time></trkpt><trkpt lat="46.17923301546363" lon="12.297990968742758"><ele>394.0</ele><time>2026-04-25T14:38:52Z</time></trkpt><trkpt lat="46.179391683048316" lon="12.297791587494043"><ele>394.0</ele><time>2026-04-25T14:38:53Z</time></trkpt><trkpt lat="46.17955570760616" lon="12.297600251065532"><ele>394.0</ele><time>2026-04-25T14:38:54Z</time></trkpt><trkpt lat="46.17971868783065" lon="12.29740489232141"><ele>394.33333333333337</ele><time>2026-04-25T14:38:55Z</time></trkpt><trkpt lat="46.179881595364876" lon="12.297197928794192"><ele>394.66666666666663</ele><time>2026-04-25T14:38:56Z</time></trkpt><trkpt lat="46.180043993053424" lon="12.296999282499538"><ele>395.0</ele><time>2026-04-25T14:38:57Z</time></trkpt><trkpt lat="46.18021731156752" lon="12.296811777316227"><ele>395.0</ele><time>2026-04-25T14:38:58Z</time></trkpt><trkpt lat="46.18038907033909" lon="12.296624702726046"><ele>395.0</ele><time>2026-04-25T14:38:59Z</time></trkpt><trkpt lat="46.180555491079446" lon="12.29642457202934"><ele>395.0</ele><time>2026-04-25T14:39:00Z</time></trkpt><trkpt lat="46.18071661790999" lon="12.296219642278157"><ele>395.66666666666663</ele><time>2026-04-25T14:39:01Z</time></trkpt><trkpt lat="46.18088229187726" lon="12.296003644464099"><ele>396.33333333333337</ele><time>2026-04-25T14:39:02Z</time></trkpt><trkpt lat="46.18104347828421" lon="12.295786573749032"><ele>397.0</ele><time>2026-04-25T14:39:03Z</time></trkpt><trkpt lat="46.18121633993416" lon="12.295583283241243"><ele>397.0</ele><time>2026-04-25T14:39:04Z</time></trkpt><trkpt lat="46.181384230585216" lon="12.295385218527178"><ele>397.0</ele><time>2026-04-25T14:39:05Z</time></trkpt><trkpt lat="46.181563543846984" lon="12.295198285315765"><ele>397.0</ele><time>2026-04-25T14:39:06Z</time></trkpt><trkpt lat="46.181732477171714" lon="12.294989434845062"><ele>397.0</ele><time>2026-04-25T14:39:07Z</time></trkpt><trkpt lat="46.181914647239694" lon="12.29480538033582"><ele>397.0</ele><time>2026-04-25T14:39:08Z</time></trkpt><trkpt lat="46.182090336475554" lon="12.29461330491519"><ele>397.0</ele><time>2026-04-25T14:39:09Z</time></trkpt><trkpt lat="46.18227180519659" lon="12.294414509615509"><ele>398.0</ele><time>2026-04-25T14:39:10Z</time></trkpt><trkpt lat="46.18246082664922" lon="12.294236109830564"><ele>399.0</ele><time>2026-04-25T14:39:11Z</time></trkpt><trkpt lat="46.18263713440337" lon="12.294052499377836"><ele>400.0</ele><time>2026-04-25T14:39:12Z</time></trkpt><trkpt lat="46.18282354158522" lon="12.293863471406034"><ele>400.0</ele><time>2026-04-25T14:39:12.999Z</time></trkpt><trkpt lat="46.1830118481475" lon="12.293678761837626"><ele>400.0</ele><time>2026-04-25T14:39:13.999Z</time></trkpt><trkpt lat="46.183184487132" lon="12.293479961454823"><ele>400.0</ele><time>2026-04-25T14:39:14.999Z</time></trkpt><trkpt lat="46.18336386439011" lon="12.293283247383128"><ele>399.5</ele><time>2026-04-25T14:39:15.999Z</time></trkpt><trkpt lat="46.18354444525842" lon="12.293097808904298"><ele>399.0</ele><time>2026-04-25T14:39:16.999Z</time></trkpt><trkpt lat="46.18374567403462" lon="12.29292860331594"><ele>399.0</ele><time>2026-04-25T14:39:17.999Z</time></trkpt><trkpt lat="46.183929608936005" lon="12.2927513194425"><ele>399.0</ele><time>2026-04-25T14:39:18.999Z</time></trkpt><trkpt lat="46.18412332585354" lon="12.292569503974455"><ele>400.0</ele><time>2026-04-25T14:39:19.999Z</time></trkpt><trkpt lat="46.18431292233092" lon="12.292371683460217"><ele>401.0</ele><time>2026-04-25T14:39:20.999Z</time></trkpt><trkpt lat="46.184505416781604" lon="12.292204903723096"><ele>401.0</ele><time>2026-04-25T14:39:21.999Z</time></trkpt><trkpt lat="46.184702661551285" lon="12.292043644493003"><ele>401.0</ele><time>2026-04-25T14:39:22.999Z</time></trkpt><trkpt lat="46.184907977565125" lon="12.291903786245255"><ele>396.5</ele><time>2026-04-25T14:39:23.999Z</time></trkpt><trkpt lat="46.185107123319135" lon="12.29173215665641"><ele>392.0</ele><time>2026-04-25T14:39:24.999Z</time></trkpt><trkpt lat="46.18529497088864" lon="12.291552401814991"><ele>393.5</ele><time>2026-04-25T14:39:25.999Z</time></trkpt><trkpt lat="46.185501511248916" lon="12.291394380349853"><ele>395.0</ele><time>2026-04-25T14:39:26.999Z</time></trkpt><trkpt lat="46.18572076103783" lon="12.291276132299705"><ele>395.0</ele><time>2026-04-25T14:39:27.999Z</time></trkpt><trkpt lat="46.18592724886074" lon="12.291145284994538"><ele>395.0</ele><time>2026-04-25T14:39:28.999Z</time></trkpt><trkpt lat="46.18613747952881" lon="12.291009981026907"><ele>395.0</ele><time>2026-04-25T14:39:29.999Z</time></trkpt><trkpt lat="46.1863500079038" lon="12.290879320737307"><ele>395.0</ele><time>2026-04-25T14:39:30.999Z</time></trkpt><trkpt lat="46.1865604212499" lon="12.29075589428908"><ele>392.5</ele><time>2026-04-25T14:39:31.999Z</time></trkpt><trkpt lat="46.18677752711904" lon="12.290627056419337"><ele>390.0</ele><time>2026-04-25T14:39:32.999Z</time></trkpt><trkpt lat="46.18699289211354" lon="12.290528115557446"><ele>392.0</ele><time>2026-04-25T14:39:33.999Z</time></trkpt><trkpt lat="46.187216716449036" lon="12.290438035656436"><ele>394.0</ele><time>2026-04-25T14:39:34.999Z</time></trkpt><trkpt lat="46.187435741688816" lon="12.290339909631475"><ele>394.0</ele><time>2026-04-25T14:39:35.999Z</time></trkpt><trkpt lat="46.18765571175769" lon="12.290241711213204"><ele>394.0</ele><time>2026-04-25T14:39:36.999Z</time></trkpt><trkpt lat="46.187885535619735" lon="12.290148676353772"><ele>394.0</ele><time>2026-04-25T14:39:37.999Z</time></trkpt><trkpt lat="46.188105073898235" lon="12.290071911426546"><ele>394.0</ele><time>2026-04-25T14:39:38.999Z</time></trkpt><trkpt lat="46.188335559484884" lon="12.29001442347195"><ele>394.0</ele><time>2026-04-25T14:39:39.999Z</time></trkpt><trkpt lat="46.1885639019" lon="12.28995758654048"><ele>394.0</ele><time>2026-04-25T14:39:40.999Z</time></trkpt><trkpt lat="46.18879310616418" lon="12.289905175605295"><ele>393.0</ele><time>2026-04-25T14:39:41.999Z</time></trkpt><trkpt lat="46.189015772898905" lon="12.28985750139472"><ele>392.0</ele><time>2026-04-25T14:39:42.999Z</time></trkpt><trkpt lat="46.18925102720792" lon="12.289802230418408"><ele>397.0</ele><time>2026-04-25T14:39:43.999Z</time></trkpt><trkpt lat="46.18948747318717" lon="12.28975422141222"><ele>402.0</ele><time>2026-04-25T14:39:44.999Z</time></trkpt><trkpt lat="46.189705010064216" lon="12.289713176807627"><ele>403.5</ele><time>2026-04-25T14:39:45.999Z</time></trkpt><trkpt lat="46.189937216155485" lon="12.289665057903429"><ele>405.0</ele><time>2026-04-25T14:39:46.999Z</time></trkpt><trkpt lat="46.190183372549406" lon="12.289671809785323"><ele>405.0</ele><time>2026-04-25T14:39:47.999Z</time></trkpt><trkpt lat="46.1904195385261" lon="12.289682661753766"><ele>405.0</ele><time>2026-04-25T14:39:48.999Z</time></trkpt><trkpt lat="46.190639768809405" lon="12.289678081728548"><ele>404.0</ele><time>2026-04-25T14:39:49.999Z</time></trkpt><trkpt lat="46.190867390627574" lon="12.289673625018812"><ele>403.0</ele><time>2026-04-25T14:39:50.999Z</time></trkpt><trkpt lat="46.191115582586825" lon="12.2896785622337"><ele>403.0</ele><time>2026-04-25T14:39:51.999Z</time></trkpt><trkpt lat="46.19138222542212" lon="12.289689790084415"><ele>403.0</ele><time>2026-04-25T14:39:52.999Z</time></trkpt><trkpt lat="46.19166363801609" lon="12.28970879754463"><ele>402.5</ele><time>2026-04-25T14:39:53.999Z</time></trkpt><trkpt lat="46.19195560565923" lon="12.289740229511013"><ele>402.0</ele><time>2026-04-25T14:39:54.999Z</time></trkpt><trkpt lat="46.19224657934783" lon="12.289772448022717"><ele>395.0</ele><time>2026-04-25T14:39:55.999Z</time></trkpt><trkpt lat="46.192541513116744" lon="12.289793980873656"><ele>388.0</ele><time>2026-04-25T14:39:56.999Z</time></trkpt><trkpt lat="46.19286001010851" lon="12.28981754766971"><ele>389.0</ele><time>2026-04-25T14:39:57.999Z</time></trkpt><trkpt lat="46.19320596190086" lon="12.289858712665705"><ele>390.0</ele><time>2026-04-25T14:39:58.999Z</time></trkpt><trkpt lat="46.193560151035975" lon="12.289896620409852"><ele>390.0</ele><time>2026-04-25T14:39:59.999Z</time></trkpt><trkpt lat="46.193922177912356" lon="12.28994005091507"><ele>390.0</ele><time>2026-04-25T14:40:00.999Z</time></trkpt><trkpt lat="46.19425012662435" lon="12.289979072730212"><ele>390.0</ele><time>2026-04-25T14:40:01.999Z</time></trkpt><trkpt lat="46.19455586858731" lon="12.290004422495413"><ele>390.0</ele><time>2026-04-25T14:40:02.999Z</time></trkpt><trkpt lat="46.194846036240776" lon="12.290023519443041"><ele>390.0</ele><time>2026-04-25T14:40:03.999Z</time></trkpt><trkpt lat="46.19513282695113" lon="12.290027315857746"><ele>390.0</ele><time>2026-04-25T14:40:04.999Z</time></trkpt><trkpt lat="46.19540122314819" lon="12.290055291371488"><ele>390.0</ele><time>2026-04-25T14:40:05.999Z</time></trkpt><trkpt lat="46.195659278855274" lon="12.290071471894118"><ele>390.0</ele><time>2026-04-25T14:40:06.999Z</time></trkpt><trkpt lat="46.19591976957761" lon="12.290074671291272"><ele>391.0</ele><time>2026-04-25T14:40:07.999Z</time></trkpt><trkpt lat="46.19616214105672" lon="12.290090721669058"><ele>392.0</ele><time>2026-04-25T14:40:08.999Z</time></trkpt><trkpt lat="46.19639821479102" lon="12.290101652937794"><ele>392.0</ele><time>2026-04-25T14:40:09.999Z</time></trkpt><trkpt lat="46.19662804255116" lon="12.290117060098513"><ele>392.0</ele><time>2026-04-25T14:40:10.999Z</time></trkpt><trkpt lat="46.196856532132905" lon="12.29011907691711"><ele>392.0</ele><time>2026-04-25T14:40:11.999Z</time></trkpt><trkpt lat="46.197086283159166" lon="12.290104639642832"><ele>392.0</ele><time>2026-04-25T14:40:12.999Z</time></trkpt><trkpt lat="46.19731646084181" lon="12.29010154877443"><ele>391.5</ele><time>2026-04-25T14:40:13.999Z</time></trkpt><trkpt lat="46.19754202322107" lon="12.290098140388105"><ele>391.0</ele><time>2026-04-25T14:40:15Z</time></trkpt><trkpt lat="46.19776630109963" lon="12.290090603358701"><ele>391.0</ele><time>2026-04-25T14:40:16Z</time></trkpt><trkpt lat="46.197999839024654" lon="12.290068493747567"><ele>391.0</ele><time>2026-04-25T14:40:17Z</time></trkpt><trkpt lat="46.19822910805539" lon="12.290045391982838"><ele>391.0</ele><time>2026-04-25T14:40:18Z</time></trkpt><trkpt lat="46.19845132237704" lon="12.290031902877994"><ele>391.0</ele><time>2026-04-25T14:40:19Z</time></trkpt><trkpt lat="46.19867961366455" lon="12.290013359600117"><ele>391.0</ele><time>2026-04-25T14:40:20Z</time></trkpt><trkpt lat="46.19891477448996" lon="12.290009630814966"><ele>391.0</ele><time>2026-04-25T14:40:21Z</time></trkpt><trkpt lat="46.19914822058024" lon="12.289965139040628"><ele>391.0</ele><time>2026-04-25T14:40:22Z</time></trkpt><trkpt lat="46.19938623221796" lon="12.2899335804176"><ele>391.0</ele><time>2026-04-25T14:40:23Z</time></trkpt><trkpt lat="46.19962665629258" lon="12.28990046597174"><ele>393.0</ele><time>2026-04-25T14:40:24Z</time></trkpt><trkpt lat="46.19986598813784" lon="12.28986727399224"><ele>395.0</ele><time>2026-04-25T14:40:25Z</time></trkpt><trkpt lat="46.20010996608891" lon="12.289818852356504"><ele>395.0</ele><time>2026-04-25T14:40:26Z</time></trkpt><trkpt lat="46.20035391582734" lon="12.289768381445471"><ele>395.0</ele><time>2026-04-25T14:40:27Z</time></trkpt><trkpt lat="46.20059435737298" lon="12.289718910907819"><ele>396.0</ele><time>2026-04-25T14:40:28Z</time></trkpt><trkpt lat="46.20083667259218" lon="12.289677465651492"><ele>397.0</ele><time>2026-04-25T14:40:29Z</time></trkpt><trkpt lat="46.20108828744079" lon="12.289618293097764"><ele>397.0</ele><time>2026-04-25T14:40:30Z</time></trkpt><trkpt lat="46.201335922242286" lon="12.289555162376423"><ele>397.0</ele><time>2026-04-25T14:40:31Z</time></trkpt><trkpt lat="46.2015911627037" lon="12.289479415702315"><ele>397.0</ele><time>2026-04-25T14:40:32Z</time></trkpt><trkpt lat="46.201857330312485" lon="12.289376756689165"><ele>397.0</ele><time>2026-04-25T14:40:33Z</time></trkpt><trkpt lat="46.20210713810151" lon="12.289279151510941"><ele>397.0</ele><time>2026-04-25T14:40:34Z</time></trkpt><trkpt lat="46.20232988964668" lon="12.289269893235247"><ele>397.0</ele><time>2026-04-25T14:40:35Z</time></trkpt><trkpt lat="46.20257481171267" lon="12.289203904928963"><ele>396.0</ele><time>2026-04-25T14:40:36Z</time></trkpt><trkpt lat="46.202809952297784" lon="12.28914627007829"><ele>395.0</ele><time>2026-04-25T14:40:37Z</time></trkpt><trkpt lat="46.20304837697615" lon="12.289078880496247"><ele>395.0</ele><time>2026-04-25T14:40:38Z</time></trkpt><trkpt lat="46.2032824309437" lon="12.289010810396288"><ele>395.0</ele><time>2026-04-25T14:40:39Z</time></trkpt><trkpt lat="46.20350684676776" lon="12.288953152873791"><ele>395.0</ele><time>2026-04-25T14:40:40Z</time></trkpt><trkpt lat="46.20373731808429" lon="12.288874522151136"><ele>395.0</ele><time>2026-04-25T14:40:41Z</time></trkpt><trkpt lat="46.20394740389656" lon="12.288798496495119"><ele>395.3333333333333</ele><time>2026-04-25T14:40:42Z</time></trkpt><trkpt lat="46.204147506915916" lon="12.288722450067004"><ele>395.66666666666663</ele><time>2026-04-25T14:40:43Z</time></trkpt><trkpt lat="46.20433735074094" lon="12.28864921337222"><ele>396.0</ele><time>2026-04-25T14:40:44Z</time></trkpt><trkpt lat="46.20452130187502" lon="12.288571223009123"><ele>396.0</ele><time>2026-04-25T14:40:45Z</time></trkpt><trkpt lat="46.20468793795206" lon="12.288499622830031"><ele>396.0</ele><time>2026-04-25T14:40:46Z</time></trkpt><trkpt lat="46.20484518086633" lon="12.28843020352921"><ele>396.0</ele><time>2026-04-25T14:40:47Z</time></trkpt><trkpt lat="46.2049919664187" lon="12.288360320466785"><ele>397.0</ele><time>2026-04-25T14:40:48Z</time></trkpt><trkpt lat="46.20512847762624" lon="12.288285759832558"><ele>398.0</ele><time>2026-04-25T14:40:49Z</time></trkpt><trkpt lat="46.205259473411274" lon="12.288190788828892"><ele>399.0</ele><time>2026-04-25T14:40:50Z</time></trkpt><trkpt lat="46.205383910066644" lon="12.28807589185237"><ele>400.0</ele><time>2026-04-25T14:40:51Z</time></trkpt><trkpt lat="46.20550021854688" lon="12.287936705340549"><ele>400.0</ele><time>2026-04-25T14:40:52Z</time></trkpt><trkpt lat="46.2056077565161" lon="12.287765672516665"><ele>400.0</ele><time>2026-04-25T14:40:53Z</time></trkpt><trkpt lat="46.20571729360908" lon="12.28759510885947"><ele>400.0</ele><time>2026-04-25T14:40:54Z</time></trkpt><trkpt lat="46.20583188508089" lon="12.287424218174937"><ele>401.33333333333337</ele><time>2026-04-25T14:40:55Z</time></trkpt><trkpt lat="46.205957805010506" lon="12.287226526668674"><ele>402.66666666666663</ele><time>2026-04-25T14:40:56Z</time></trkpt><trkpt lat="46.206068008795924" lon="12.287043490746344"><ele>404.0</ele><time>2026-04-25T14:40:57Z</time></trkpt><trkpt lat="46.20617135546576" lon="12.28687862839294"><ele>404.0</ele><time>2026-04-25T14:40:58Z</time></trkpt><trkpt lat="46.20626078772153" lon="12.28675599304914"><ele>404.0</ele><time>2026-04-25T14:40:59Z</time></trkpt><trkpt lat="46.20634619919081" lon="12.286621553851669"><ele>404.0</ele><time>2026-04-25T14:41:00Z</time></trkpt><trkpt lat="46.206434640143414" lon="12.286474401934248"><ele>404.0</ele><time>2026-04-25T14:41:01Z</time></trkpt><trkpt lat="46.206523712485044" lon="12.28633547503381"><ele>405.25</ele><time>2026-04-25T14:41:02Z</time></trkpt><trkpt lat="46.206615182268095" lon="12.28619976159553"><ele>406.5</ele><time>2026-04-25T14:41:03Z</time></trkpt><trkpt lat="46.20671496211113" lon="12.286067041367918"><ele>407.75</ele><time>2026-04-25T14:41:04Z</time></trkpt><trkpt lat="46.20682940884562" lon="12.28594774827449"><ele>409.0</ele><time>2026-04-25T14:41:05Z</time></trkpt><trkpt lat="46.20696451960542" lon="12.285842357251092"><ele>409.0</ele><time>2026-04-25T14:41:06Z</time></trkpt><trkpt lat="46.207110403590754" lon="12.285783405890648"><ele>409.0</ele><time>2026-04-25T14:41:07Z</time></trkpt><trkpt lat="46.20726525400686" lon="12.285752274640373"><ele>409.0</ele><time>2026-04-25T14:41:08Z</time></trkpt><trkpt lat="46.20741246504168" lon="12.28575868301323"><ele>408.0</ele><time>2026-04-25T14:41:09Z</time></trkpt><trkpt lat="46.20756476233899" lon="12.285769327605648"><ele>407.0</ele><time>2026-04-25T14:41:10Z</time></trkpt><trkpt lat="46.20766738014846" lon="12.285738408804026"><ele>406.0</ele><time>2026-04-25T14:41:11Z</time></trkpt><trkpt lat="46.20781031355747" lon="12.285721947911638"><ele>405.0</ele><time>2026-04-25T14:41:12Z</time></trkpt><trkpt lat="46.207966241166666" lon="12.285716961376238"><ele>405.0</ele><time>2026-04-25T14:41:13Z</time></trkpt><trkpt lat="46.20812683449556" lon="12.285719020658052"><ele>405.0</ele><time>2026-04-25T14:41:14Z</time></trkpt><trkpt lat="46.208298125022765" lon="12.285734759844836"><ele>405.0</ele><time>2026-04-25T14:41:15Z</time></trkpt><trkpt lat="46.20847017273144" lon="12.28576053383511"><ele>406.33333333333337</ele><time>2026-04-25T14:41:16Z</time></trkpt><trkpt lat="46.20864057078806" lon="12.285780538000418"><ele>407.6666666666667</ele><time>2026-04-25T14:41:17Z</time></trkpt><trkpt lat="46.20880777621285" lon="12.285797120316543"><ele>409.0</ele><time>2026-04-25T14:41:18Z</time></trkpt><trkpt lat="46.208968166538575" lon="12.285836551896196"><ele>408.0</ele><time>2026-04-25T14:41:19Z</time></trkpt><trkpt lat="46.20912895585655" lon="12.285892141951965"><ele>407.0</ele><time>2026-04-25T14:41:20Z</time></trkpt><trkpt lat="46.2092845470953" lon="12.285963313581792"><ele>406.0</ele><time>2026-04-25T14:41:21Z</time></trkpt><trkpt lat="46.20944655374823" lon="12.286031970841501"><ele>406.0</ele><time>2026-04-25T14:41:22Z</time></trkpt><trkpt lat="46.20962429298371" lon="12.286107062696464"><ele>406.0</ele><time>2026-04-25T14:41:23Z</time></trkpt><trkpt lat="46.209792917278584" lon="12.286180807567964"><ele>406.0</ele><time>2026-04-25T14:41:24Z</time></trkpt><trkpt lat="46.209968246478795" lon="12.28625482561539"><ele>404.33333333333337</ele><time>2026-04-25T14:41:25Z</time></trkpt><trkpt lat="46.210142865958716" lon="12.286333787184914"><ele>402.66666666666663</ele><time>2026-04-25T14:41:25.999Z</time></trkpt><trkpt lat="46.21033354476794" lon="12.286415254419385"><ele>401.0</ele><time>2026-04-25T14:41:26.999Z</time></trkpt><trkpt lat="46.21053481685737" lon="12.286504620283972"><ele>405.0</ele><time>2026-04-25T14:41:27.999Z</time></trkpt><trkpt lat="46.21075475219072" lon="12.286595059967617"><ele>409.0</ele><time>2026-04-25T14:41:28.999Z</time></trkpt><trkpt lat="46.21098316741507" lon="12.286684293771382"><ele>409.0</ele><time>2026-04-25T14:41:29.999Z</time></trkpt><trkpt lat="46.211240878772394" lon="12.286784581230984"><ele>409.0</ele><time>2026-04-25T14:41:30.999Z</time></trkpt><trkpt lat="46.21155476791104" lon="12.286917248219568"><ele>415.5</ele><time>2026-04-25T14:41:31.999Z</time></trkpt><trkpt lat="46.21192631568635" lon="12.287043436144188"><ele>422.0</ele><time>2026-04-25T14:41:32.999Z</time></trkpt><trkpt lat="46.21217398398233" lon="12.287136379896376"><ele>428.5</ele><time>2026-04-25T14:41:33.999Z</time></trkpt><trkpt lat="46.21242537453961" lon="12.287232009876735"><ele>435.0</ele><time>2026-04-25T14:41:34.999Z</time></trkpt><trkpt lat="46.212675325170586" lon="12.287333088976132"><ele>425.0</ele><time>2026-04-25T14:41:35.999Z</time></trkpt><trkpt lat="46.212918167041984" lon="12.287434128611993"><ele>415.0</ele><time>2026-04-25T14:41:36.999Z</time></trkpt><trkpt lat="46.21315748013918" lon="12.287533822260048"><ele>415.0</ele><time>2026-04-25T14:41:37.999Z</time></trkpt><trkpt lat="46.21339392892381" lon="12.28762973717412"><ele>415.0</ele><time>2026-04-25T14:41:38.999Z</time></trkpt><trkpt lat="46.21362332899244" lon="12.28772177530197"><ele>415.0</ele><time>2026-04-25T14:41:39.999Z</time></trkpt><trkpt lat="46.21385185444214" lon="12.287814079315215"><ele>415.0</ele><time>2026-04-25T14:41:40.999Z</time></trkpt><trkpt lat="46.21408691564403" lon="12.287909695433651"><ele>419.0</ele><time>2026-04-25T14:41:41.999Z</time></trkpt><trkpt lat="46.214293229047875" lon="12.288000082119925"><ele>423.0</ele><time>2026-04-25T14:41:42.999Z</time></trkpt><trkpt lat="46.2144913291396" lon="12.288077444302647"><ele>427.0</ele><time>2026-04-25T14:41:43.999Z</time></trkpt><trkpt lat="46.21470457408541" lon="12.288146303051748"><ele>420.0</ele><time>2026-04-25T14:41:44.999Z</time></trkpt><trkpt lat="46.214921796144964" lon="12.288199368259322"><ele>413.0</ele><time>2026-04-25T14:41:45.999Z</time></trkpt><trkpt lat="46.21513441263568" lon="12.288235541713858"><ele>406.0</ele><time>2026-04-25T14:41:46.999Z</time></trkpt><trkpt lat="46.21535412216334" lon="12.288252556328239"><ele>406.0</ele><time>2026-04-25T14:41:47.999Z</time></trkpt><trkpt lat="46.215576133206426" lon="12.288255657772513"><ele>406.0</ele><time>2026-04-25T14:41:48.999Z</time></trkpt><trkpt lat="46.2158010378357" lon="12.288240165205407"><ele>406.0</ele><time>2026-04-25T14:41:49.999Z</time></trkpt><trkpt lat="46.216029997861604" lon="12.288204115313851"><ele>405.0</ele><time>2026-04-25T14:41:50.999Z</time></trkpt><trkpt lat="46.21625273454735" lon="12.288152288005307"><ele>404.0</ele><time>2026-04-25T14:41:51.999Z</time></trkpt><trkpt lat="46.216478081522844" lon="12.288077457388393"><ele>413.5</ele><time>2026-04-25T14:41:52.999Z</time></trkpt><trkpt lat="46.21670228209498" lon="12.287978932846743"><ele>423.0</ele><time>2026-04-25T14:41:53.999Z</time></trkpt><trkpt lat="46.216924557273565" lon="12.287869744978412"><ele>423.0</ele><time>2026-04-25T14:41:54.999Z</time></trkpt><trkpt lat="46.21714579436441" lon="12.287752571022233"><ele>423.0</ele><time>2026-04-25T14:41:55.999Z</time></trkpt><trkpt lat="46.21736793501001" lon="12.287629697009573"><ele>415.5</ele><time>2026-04-25T14:41:56.999Z</time></trkpt><trkpt lat="46.217594373087536" lon="12.287499716592256"><ele>408.0</ele><time>2026-04-25T14:41:57.999Z</time></trkpt><trkpt lat="46.21782987233497" lon="12.287361592854019"><ele>412.0</ele><time>2026-04-25T14:41:58.999Z</time></trkpt><trkpt lat="46.21805951658739" lon="12.287237025923321"><ele>416.0</ele><time>2026-04-25T14:41:59.999Z</time></trkpt><trkpt lat="46.21828516932864" lon="12.287110700128105"><ele>416.0</ele><time>2026-04-25T14:42:00.999Z</time></trkpt><trkpt lat="46.218503462931814" lon="12.286985384162433"><ele>416.0</ele><time>2026-04-25T14:42:01.999Z</time></trkpt><trkpt lat="46.218712150516055" lon="12.28686036341034"><ele>416.0</ele><time>2026-04-25T14:42:02.999Z</time></trkpt><trkpt lat="46.218920820098205" lon="12.286741491702353"><ele>416.0</ele><time>2026-04-25T14:42:03.999Z</time></trkpt><trkpt lat="46.219119353224464" lon="12.286637308241039"><ele>416.0</ele><time>2026-04-25T14:42:04.999Z</time></trkpt><trkpt lat="46.21931880682581" lon="12.286531358109912"><ele>417.66666666666663</ele><time>2026-04-25T14:42:05.999Z</time></trkpt><trkpt lat="46.219519197993314" lon="12.286441092057288"><ele>419.33333333333337</ele><time>2026-04-25T14:42:06.999Z</time></trkpt><trkpt lat="46.219722458096484" lon="12.286356825674504"><ele>421.0</ele><time>2026-04-25T14:42:07.999Z</time></trkpt><trkpt lat="46.21992468578396" lon="12.286285105454805"><ele>422.33333333333337</ele><time>2026-04-25T14:42:08.999Z</time></trkpt><trkpt lat="46.22012709889816" lon="12.286226844483528"><ele>423.66666666666663</ele><time>2026-04-25T14:42:09.999Z</time></trkpt><trkpt lat="46.220329505428445" lon="12.286175587109119"><ele>425.0</ele><time>2026-04-25T14:42:10.999Z</time></trkpt><trkpt lat="46.22053300181044" lon="12.286120695098516"><ele>424.3333333333333</ele><time>2026-04-25T14:42:11.999Z</time></trkpt><trkpt lat="46.22073772256481" lon="12.28607844179545"><ele>423.66666666666663</ele><time>2026-04-25T14:42:12.999Z</time></trkpt><trkpt lat="46.22093945747743" lon="12.286049033481365"><ele>423.0</ele><time>2026-04-25T14:42:13.999Z</time></trkpt><trkpt lat="46.22114087224598" lon="12.286026785818114"><ele>423.0</ele><time>2026-04-25T14:42:14.999Z</time></trkpt><trkpt lat="46.221324426860555" lon="12.286013567953088"><ele>423.0</ele><time>2026-04-25T14:42:15.999Z</time></trkpt><trkpt lat="46.22147314653365" lon="12.28599475125109"><ele>423.0</ele><time>2026-04-25T14:42:16.999Z</time></trkpt><trkpt lat="46.22159952929326" lon="12.285982314957462"><ele>421.5</ele><time>2026-04-25T14:42:17.999Z</time></trkpt><trkpt lat="46.22171194303075" lon="12.285975976814058"><ele>420.0</ele><time>2026-04-25T14:42:18.999Z</time></trkpt><trkpt lat="46.22214418449977" lon="12.28602473374769"><ele>419.0</ele><time>2026-04-25T14:42:19.999Z</time></trkpt><trkpt lat="46.222336678507844" lon="12.286054549319816"><ele>418.0</ele><time>2026-04-25T14:42:21Z</time></trkpt><trkpt lat="46.22253233086722" lon="12.286086708911615"><ele>417.0</ele><time>2026-04-25T14:42:22Z</time></trkpt><trkpt lat="46.222721945192234" lon="12.286128133334415"><ele>417.0</ele><time>2026-04-25T14:42:23Z</time></trkpt><trkpt lat="46.22291069834071" lon="12.286172100852255"><ele>417.0</ele><time>2026-04-25T14:42:24Z</time></trkpt><trkpt lat="46.22309392101756" lon="12.286227731539249"><ele>417.0</ele><time>2026-04-25T14:42:25Z</time></trkpt><trkpt lat="46.22326030036183" lon="12.286284776435393"><ele>416.75</ele><time>2026-04-25T14:42:26Z</time></trkpt><trkpt lat="46.223414817214966" lon="12.286345673742948"><ele>416.5</ele><time>2026-04-25T14:42:27Z</time></trkpt><trkpt lat="46.223559020503316" lon="12.286407671496315"><ele>416.25</ele><time>2026-04-25T14:42:28Z</time></trkpt><trkpt lat="46.22369083725744" lon="12.286467406548148"><ele>416.0</ele><time>2026-04-25T14:42:29Z</time></trkpt><trkpt lat="46.223813255274784" lon="12.286527047245144"><ele>415.20000000000005</ele><time>2026-04-25T14:42:30Z</time></trkpt><trkpt lat="46.22392821016693" lon="12.286587239528755"><ele>414.40000000000003</ele><time>2026-04-25T14:42:31Z</time></trkpt><trkpt lat="46.224035417885986" lon="12.286642338241204"><ele>413.6</ele><time>2026-04-25T14:42:32Z</time></trkpt><trkpt lat="46.22413608162302" lon="12.286694334687631"><ele>412.8</ele><time>2026-04-25T14:42:33Z</time></trkpt><trkpt lat="46.22423534094386" lon="12.286739158535893"><ele>412.0</ele><time>2026-04-25T14:42:34Z</time></trkpt><trkpt lat="46.224331021443355" lon="12.286779023000678"><ele>414.40000000000003</ele><time>2026-04-25T14:42:35Z</time></trkpt><trkpt lat="46.22442355888681" lon="12.286808593954484"><ele>416.8</ele><time>2026-04-25T14:42:36Z</time></trkpt><trkpt lat="46.224511964384845" lon="12.286828873031826"><ele>419.2</ele><time>2026-04-25T14:42:37Z</time></trkpt><trkpt lat="46.22459263739714" lon="12.286870410648516"><ele>421.6</ele><time>2026-04-25T14:42:38Z</time></trkpt><trkpt lat="46.224664886398074" lon="12.286945779442128"><ele>424.0</ele><time>2026-04-25T14:42:39Z</time></trkpt><trkpt lat="46.22473309531135" lon="12.287044569713034"><ele>426.5</ele><time>2026-04-25T14:42:40Z</time></trkpt><trkpt lat="46.22482951920782" lon="12.287107140829724"><ele>429.0</ele><time>2026-04-25T14:42:41Z</time></trkpt><trkpt lat="46.22494624083109" lon="12.287126382562592"><ele>431.5</ele><time>2026-04-25T14:42:42Z</time></trkpt><trkpt lat="46.22507331875962" lon="12.287133413005279"><ele>434.0</ele><time>2026-04-25T14:42:43Z</time></trkpt><trkpt lat="46.22520198494556" lon="12.28716176025667"><ele>434.0</ele><time>2026-04-25T14:42:44Z</time></trkpt><trkpt lat="46.22533384633544" lon="12.287256488746587"><ele>434.0</ele><time>2026-04-25T14:42:45Z</time></trkpt><trkpt lat="46.22548508453148" lon="12.287369529519209"><ele>434.0</ele><time>2026-04-25T14:42:46Z</time></trkpt><trkpt lat="46.225658862275104" lon="12.287509114871408"><ele>432.0</ele><time>2026-04-25T14:42:47Z</time></trkpt><trkpt lat="46.225848523662414" lon="12.287668257793829"><ele>430.0</ele><time>2026-04-25T14:42:48Z</time></trkpt><trkpt lat="46.2260533300284" lon="12.287821912322816"><ele>430.0</ele><time>2026-04-25T14:42:49Z</time></trkpt><trkpt lat="46.22628068769759" lon="12.287959758856074"><ele>430.0</ele><time>2026-04-25T14:42:50Z</time></trkpt><trkpt lat="46.22651820721051" lon="12.288095186782252"><ele>426.5</ele><time>2026-04-25T14:42:51Z</time></trkpt><trkpt lat="46.22675089553679" lon="12.288210590790774"><ele>423.0</ele><time>2026-04-25T14:42:52Z</time></trkpt><trkpt lat="46.22698247361593" lon="12.288309073539965"><ele>423.0</ele><time>2026-04-25T14:42:53Z</time></trkpt><trkpt lat="46.227212521418515" lon="12.288406110332147"><ele>423.0</ele><time>2026-04-25T14:42:54Z</time></trkpt><trkpt lat="46.227447352374526" lon="12.288485805136352"><ele>428.0</ele><time>2026-04-25T14:42:55Z</time></trkpt><trkpt lat="46.22767914094198" lon="12.288559983280708"><ele>433.0</ele><time>2026-04-25T14:42:56Z</time></trkpt><trkpt lat="46.22790965932672" lon="12.288645345452684"><ele>433.0</ele><time>2026-04-25T14:42:57Z</time></trkpt><trkpt lat="46.228141917843146" lon="12.288737567550747"><ele>433.0</ele><time>2026-04-25T14:42:58Z</time></trkpt><trkpt lat="46.228368714054525" lon="12.28883396392849"><ele>433.0</ele><time>2026-04-25T14:42:59Z</time></trkpt><trkpt lat="46.22859794048755" lon="12.288936135900734"><ele>433.0</ele><time>2026-04-25T14:43:00Z</time></trkpt><trkpt lat="46.228827930713265" lon="12.289051590190233"><ele>433.5</ele><time>2026-04-25T14:43:01Z</time></trkpt><trkpt lat="46.22906155009489" lon="12.289175042628962"><ele>434.0</ele><time>2026-04-25T14:43:02Z</time></trkpt><trkpt lat="46.22926968831721" lon="12.289309592257814"><ele>434.0</ele><time>2026-04-25T14:43:03Z</time></trkpt><trkpt lat="46.22947857005289" lon="12.289399440921477"><ele>434.0</ele><time>2026-04-25T14:43:04Z</time></trkpt><trkpt lat="46.229678512105494" lon="12.289462868605524"><ele>434.0</ele><time>2026-04-25T14:43:05Z</time></trkpt><trkpt lat="46.22985271489444" lon="12.289567846267952"><ele>434.3333333333333</ele><time>2026-04-25T14:43:06Z</time></trkpt><trkpt lat="46.230006147265655" lon="12.2896612343143"><ele>434.66666666666663</ele><time>2026-04-25T14:43:07Z</time></trkpt><trkpt lat="46.230193045440465" lon="12.289737469216782"><ele>435.0</ele><time>2026-04-25T14:43:08Z</time></trkpt><trkpt lat="46.23036724075896" lon="12.289833417417263"><ele>435.0</ele><time>2026-04-25T14:43:09Z</time></trkpt><trkpt lat="46.230534590831844" lon="12.289935022564539"><ele>435.0</ele><time>2026-04-25T14:43:10Z</time></trkpt><trkpt lat="46.230695503603584" lon="12.290042507257153"><ele>435.0</ele><time>2026-04-25T14:43:11Z</time></trkpt><trkpt lat="46.230869636939595" lon="12.290142016014807"><ele>435.66666666666663</ele><time>2026-04-25T14:43:12Z</time></trkpt><trkpt lat="46.23104014165413" lon="12.290269428172827"><ele>436.3333333333333</ele><time>2026-04-25T14:43:13Z</time></trkpt><trkpt lat="46.23119604372908" lon="12.29041288032437"><ele>437.0</ele><time>2026-04-25T14:43:14Z</time></trkpt><trkpt lat="46.23135627500538" lon="12.290610391053427"><ele>438.0</ele><time>2026-04-25T14:43:15Z</time></trkpt><trkpt lat="46.231530108190476" lon="12.290784228199302"><ele>439.0</ele><time>2026-04-25T14:43:16Z</time></trkpt><trkpt lat="46.23168427526965" lon="12.29094913308084"><ele>440.0</ele><time>2026-04-25T14:43:17Z</time></trkpt><trkpt lat="46.23180423897572" lon="12.291097088419262"><ele>440.0</ele><time>2026-04-25T14:43:18Z</time></trkpt><trkpt lat="46.23194017987708" lon="12.291332209903235"><ele>440.0</ele><time>2026-04-25T14:43:19Z</time></trkpt><trkpt lat="46.23210455672168" lon="12.291582073579441"><ele>441.5</ele><time>2026-04-25T14:43:20Z</time></trkpt><trkpt lat="46.232283183600885" lon="12.291823993581785"><ele>443.0</ele><time>2026-04-25T14:43:21Z</time></trkpt><trkpt lat="46.232452263637036" lon="12.292049981515174"><ele>443.0</ele><time>2026-04-25T14:43:22Z</time></trkpt><trkpt lat="46.232575616164695" lon="12.292227115058543"><ele>443.0</ele><time>2026-04-25T14:43:23Z</time></trkpt><trkpt lat="46.232745474362126" lon="12.292433509427774"><ele>443.0</ele><time>2026-04-25T14:43:24Z</time></trkpt><trkpt lat="46.23292279076535" lon="12.292643301782514"><ele>445.0</ele><time>2026-04-25T14:43:25Z</time></trkpt><trkpt lat="46.23311411472451" lon="12.292824683874455"><ele>447.0</ele><time>2026-04-25T14:43:26Z</time></trkpt><trkpt lat="46.233304577435746" lon="12.293005784326072"><ele>440.5</ele><time>2026-04-25T14:43:27Z</time></trkpt><trkpt lat="46.233501193025155" lon="12.293178607945702"><ele>434.0</ele><time>2026-04-25T14:43:28Z</time></trkpt><trkpt lat="46.23368350323271" lon="12.293358352350074"><ele>434.0</ele><time>2026-04-25T14:43:29Z</time></trkpt><trkpt lat="46.23385731075646" lon="12.293533893519912"><ele>434.0</ele><time>2026-04-25T14:43:30Z</time></trkpt><trkpt lat="46.23403686389948" lon="12.293699590294077"><ele>434.0</ele><time>2026-04-25T14:43:30.999Z</time></trkpt><trkpt lat="46.23422734067905" lon="12.293843995057545"><ele>433.0</ele><time>2026-04-25T14:43:31.999Z</time></trkpt><trkpt lat="46.23441966500494" lon="12.293967337696944"><ele>432.0</ele><time>2026-04-25T14:43:32.999Z</time></trkpt><trkpt lat="46.23461489531528" lon="12.294079491670013"><ele>431.0</ele><time>2026-04-25T14:43:33.999Z</time></trkpt><trkpt lat="46.234816691345785" lon="12.294177463737103"><ele>434.3333333333333</ele><time>2026-04-25T14:43:34.999Z</time></trkpt><trkpt lat="46.23502220144061" lon="12.29426904309197"><ele>437.66666666666663</ele><time>2026-04-25T14:43:35.999Z</time></trkpt><trkpt lat="46.23523209099849" lon="12.29435561805809"><ele>441.0</ele><time>2026-04-25T14:43:36.999Z</time></trkpt><trkpt lat="46.2354416946578" lon="12.294436448200377"><ele>441.0</ele><time>2026-04-25T14:43:37.999Z</time></trkpt><trkpt lat="46.23566609653903" lon="12.294501891675367"><ele>441.0</ele><time>2026-04-25T14:43:38.999Z</time></trkpt><trkpt lat="46.23588713408866" lon="12.294571839526835"><ele>441.0</ele><time>2026-04-25T14:43:39.999Z</time></trkpt><trkpt lat="46.23610065266346" lon="12.294657271016844"><ele>441.0</ele><time>2026-04-25T14:43:40.999Z</time></trkpt><trkpt lat="46.23631864039035" lon="12.29473712451922"><ele>441.0</ele><time>2026-04-25T14:43:41.999Z</time></trkpt><trkpt lat="46.236544268810924" lon="12.294813494648608"><ele>439.0</ele><time>2026-04-25T14:43:42.999Z</time></trkpt><trkpt lat="46.23676095098892" lon="12.294894572799308"><ele>437.0</ele><time>2026-04-25T14:43:43.999Z</time></trkpt><trkpt lat="46.23697219231348" lon="12.294976844840082"><ele>435.0</ele><time>2026-04-25T14:43:44.999Z</time></trkpt><trkpt lat="46.23719270705377" lon="12.295051934609004"><ele>436.0</ele><time>2026-04-25T14:43:45.999Z</time></trkpt><trkpt lat="46.23740548914128" lon="12.295130364847456"><ele>437.0</ele><time>2026-04-25T14:43:46.999Z</time></trkpt><trkpt lat="46.23761394903829" lon="12.295210921633469"><ele>438.0</ele><time>2026-04-25T14:43:47.999Z</time></trkpt><trkpt lat="46.23781992753729" lon="12.295287875146556"><ele>438.0</ele><time>2026-04-25T14:43:48.999Z</time></trkpt><trkpt lat="46.23801489323673" lon="12.295370975811858"><ele>438.0</ele><time>2026-04-25T14:43:49.999Z</time></trkpt><trkpt lat="46.23819977184989" lon="12.295431043554377"><ele>438.0</ele><time>2026-04-25T14:43:50.999Z</time></trkpt><trkpt lat="46.23838431561831" lon="12.295498526759404"><ele>436.66666666666663</ele><time>2026-04-25T14:43:51.999Z</time></trkpt><trkpt lat="46.23856385225821" lon="12.295552901292897"><ele>435.3333333333333</ele><time>2026-04-25T14:43:52.999Z</time></trkpt><trkpt lat="46.23873958498208" lon="12.295587076051023"><ele>434.0</ele><time>2026-04-25T14:43:53.999Z</time></trkpt><trkpt lat="46.238913583354524" lon="12.295608276489224"><ele>434.0</ele><time>2026-04-25T14:43:54.999Z</time></trkpt><trkpt lat="46.239098708855174" lon="12.295630002614617"><ele>434.0</ele><time>2026-04-25T14:43:55.999Z</time></trkpt><trkpt lat="46.23926312405802" lon="12.295620676422372"><ele>434.0</ele><time>2026-04-25T14:43:56.999Z</time></trkpt><trkpt lat="46.239423063444825" lon="12.295539790503335"><ele>435.0</ele><time>2026-04-25T14:43:57.999Z</time></trkpt><trkpt lat="46.23961650489431" lon="12.295533094103876"><ele>436.0</ele><time>2026-04-25T14:43:58.999Z</time></trkpt><trkpt lat="46.239796494200945" lon="12.295485537533377"><ele>437.0</ele><time>2026-04-25T14:43:59.999Z</time></trkpt><trkpt lat="46.239983457892976" lon="12.295408190540602"><ele>437.0</ele><time>2026-04-25T14:44:00.999Z</time></trkpt><trkpt lat="46.2401673615395" lon="12.295321867667516"><ele>437.0</ele><time>2026-04-25T14:44:01.999Z</time></trkpt><trkpt lat="46.24033886859317" lon="12.295219023070013"><ele>437.0</ele><time>2026-04-25T14:44:02.999Z</time></trkpt><trkpt lat="46.24050803460417" lon="12.295110742719142"><ele>436.0</ele><time>2026-04-25T14:44:03.999Z</time></trkpt><trkpt lat="46.240663410957865" lon="12.294995489217008"><ele>435.0</ele><time>2026-04-25T14:44:04.999Z</time></trkpt><trkpt lat="46.24081325416849" lon="12.294886674891908"><ele>434.0</ele><time>2026-04-25T14:44:05.999Z</time></trkpt><trkpt lat="46.240950544001734" lon="12.29478030199582"><ele>438.3333333333333</ele><time>2026-04-25T14:44:06.999Z</time></trkpt><trkpt lat="46.24110490039455" lon="12.294701863467434"><ele>442.66666666666663</ele><time>2026-04-25T14:44:07.999Z</time></trkpt><trkpt lat="46.24125010352552" lon="12.294632899944448"><ele>447.0</ele><time>2026-04-25T14:44:08.999Z</time></trkpt><trkpt lat="46.24140804871675" lon="12.294585788305936"><ele>450.66666666666663</ele><time>2026-04-25T14:44:09.999Z</time></trkpt><trkpt lat="46.24157505952726" lon="12.294577249490725"><ele>454.3333333333333</ele><time>2026-04-25T14:44:10.999Z</time></trkpt><trkpt lat="46.24174996109344" lon="12.29460950519627"><ele>458.0</ele><time>2026-04-25T14:44:11.999Z</time></trkpt><trkpt lat="46.241926020431" lon="12.294661299488382"><ele>458.0</ele><time>2026-04-25T14:44:12.999Z</time></trkpt><trkpt lat="46.24210480643757" lon="12.294750871105752"><ele>458.0</ele><time>2026-04-25T14:44:13.999Z</time></trkpt><trkpt lat="46.242280181180774" lon="12.294859549543132"><ele>458.0</ele><time>2026-04-25T14:44:14.999Z</time></trkpt><trkpt lat="46.24245457599667" lon="12.295011446630076"><ele>453.3333333333333</ele><time>2026-04-25T14:44:15.999Z</time></trkpt><trkpt lat="46.242633011792854" lon="12.2951673323724"><ele>448.66666666666663</ele><time>2026-04-25T14:44:16.999Z</time></trkpt><trkpt lat="46.24279806337364" lon="12.29536361416065"><ele>444.0</ele><time>2026-04-25T14:44:17.999Z</time></trkpt><trkpt lat="46.24295560544182" lon="12.295536434216464"><ele>443.0</ele><time>2026-04-25T14:44:18.999Z</time></trkpt><trkpt lat="46.24310779131736" lon="12.295694827718473"><ele>442.0</ele><time>2026-04-25T14:44:19.999Z</time></trkpt><trkpt lat="46.24325743300365" lon="12.29584782517239"><ele>441.0</ele><time>2026-04-25T14:44:20.999Z</time></trkpt><trkpt lat="46.24340605755955" lon="12.295993624840548"><ele>441.0</ele><time>2026-04-25T14:44:21.999Z</time></trkpt><trkpt lat="46.243555072990944" lon="12.296153197439095"><ele>441.0</ele><time>2026-04-25T14:44:22.999Z</time></trkpt><trkpt lat="46.243702957683055" lon="12.296298196406159"><ele>441.0</ele><time>2026-04-25T14:44:23.999Z</time></trkpt><trkpt lat="46.24385137320289" lon="12.296450669215124"><ele>440.33333333333337</ele><time>2026-04-25T14:44:24.999Z</time></trkpt><trkpt lat="46.24399837498763" lon="12.296606568145148"><ele>439.6666666666667</ele><time>2026-04-25T14:44:25.999Z</time></trkpt><trkpt lat="46.24414957533797" lon="12.296761291206076"><ele>439.0</ele><time>2026-04-25T14:44:27Z</time></trkpt><trkpt lat="46.24430373784527" lon="12.29691437671"><ele>439.0</ele><time>2026-04-25T14:44:28Z</time></trkpt><trkpt lat="46.24445415920943" lon="12.297069916542359"><ele>439.0</ele><time>2026-04-25T14:44:29Z</time></trkpt><trkpt lat="46.24460302710274" lon="12.29723936030834"><ele>439.0</ele><time>2026-04-25T14:44:30Z</time></trkpt><trkpt lat="46.244765795494146" lon="12.29739266024599"><ele>437.33333333333337</ele><time>2026-04-25T14:44:31Z</time></trkpt><trkpt lat="46.24492391560934" lon="12.297554119736862"><ele>435.66666666666663</ele><time>2026-04-25T14:44:32Z</time></trkpt><trkpt lat="46.245107082471655" lon="12.29774303181937"><ele>434.0</ele><time>2026-04-25T14:44:33Z</time></trkpt><trkpt lat="46.24523312691239" lon="12.297899857537127"><ele>434.0</ele><time>2026-04-25T14:44:34Z</time></trkpt><trkpt lat="46.24537715913071" lon="12.298059921342109"><ele>434.0</ele><time>2026-04-25T14:44:35Z</time></trkpt><trkpt lat="46.24551656860668" lon="12.298241404258812"><ele>434.0</ele><time>2026-04-25T14:44:36Z</time></trkpt><trkpt lat="46.2456547716541" lon="12.298419479191859"><ele>434.0</ele><time>2026-04-25T14:44:37Z</time></trkpt><trkpt lat="46.245795933068926" lon="12.298585146841477"><ele>434.0</ele><time>2026-04-25T14:44:38Z</time></trkpt><trkpt lat="46.24595442680654" lon="12.29872867358232"><ele>434.0</ele><time>2026-04-25T14:44:39Z</time></trkpt><trkpt lat="46.24612459286613" lon="12.29884321056182"><ele>432.66666666666663</ele><time>2026-04-25T14:44:40Z</time></trkpt><trkpt lat="46.246300052201335" lon="12.29893451567601"><ele>431.33333333333337</ele><time>2026-04-25T14:44:41Z</time></trkpt><trkpt lat="46.246480490559115" lon="12.299029866992091"><ele>430.0</ele><time>2026-04-25T14:44:42Z</time></trkpt><trkpt lat="46.24667274545101" lon="12.299074172995027"><ele>430.0</ele><time>2026-04-25T14:44:43Z</time></trkpt><trkpt lat="46.246870670121915" lon="12.29907988904147"><ele>430.0</ele><time>2026-04-25T14:44:44Z</time></trkpt><trkpt lat="46.24707692063212" lon="12.299098157603964"><ele>430.0</ele><time>2026-04-25T14:44:45Z</time></trkpt><trkpt lat="46.24729364514614" lon="12.299079977757598"><ele>429.33333333333337</ele><time>2026-04-25T14:44:46Z</time></trkpt><trkpt lat="46.247497249058476" lon="12.29903360317486"><ele>428.66666666666663</ele><time>2026-04-25T14:44:47Z</time></trkpt><trkpt lat="46.24770060219579" lon="12.298968384692541"><ele>428.0</ele><time>2026-04-25T14:44:48Z</time></trkpt><trkpt lat="46.247870147366825" lon="12.29886253893801"><ele>429.66666666666663</ele><time>2026-04-25T14:44:49Z</time></trkpt><trkpt lat="46.248094055451055" lon="12.298801261446172"><ele>431.33333333333337</ele><time>2026-04-25T14:44:50Z</time></trkpt><trkpt lat="46.248304134829944" lon="12.29871466797925"><ele>433.0</ele><time>2026-04-25T14:44:51Z</time></trkpt><trkpt lat="46.24850867305556" lon="12.298665645935825"><ele>433.0</ele><time>2026-04-25T14:44:52Z</time></trkpt><trkpt lat="46.24871973413343" lon="12.29862758327828"><ele>433.0</ele><time>2026-04-25T14:44:53Z</time></trkpt><trkpt lat="46.24894518988719" lon="12.29860483908406"><ele>433.0</ele><time>2026-04-25T14:44:54Z</time></trkpt><trkpt lat="46.249134194486174" lon="12.298554823365004"><ele>433.33333333333337</ele><time>2026-04-25T14:44:55Z</time></trkpt><trkpt lat="46.249332701663135" lon="12.298521463980917"><ele>433.66666666666663</ele><time>2026-04-25T14:44:56Z</time></trkpt><trkpt lat="46.24953704453185" lon="12.298488620346458"><ele>434.0</ele><time>2026-04-25T14:44:57Z</time></trkpt><trkpt lat="46.24973362714956" lon="12.298440456022313"><ele>435.66666666666663</ele><time>2026-04-25T14:44:58Z</time></trkpt><trkpt lat="46.24993080849015" lon="12.298392821374424"><ele>437.33333333333337</ele><time>2026-04-25T14:44:59Z</time></trkpt><trkpt lat="46.250144808411285" lon="12.298349483242704"><ele>439.0</ele><time>2026-04-25T14:45:00Z</time></trkpt><trkpt lat="46.25035140332914" lon="12.29832254696686"><ele>439.0</ele><time>2026-04-25T14:45:01Z</time></trkpt><trkpt lat="46.25056207459222" lon="12.298317017481503"><ele>439.0</ele><time>2026-04-25T14:45:02Z</time></trkpt><trkpt lat="46.250774075675395" lon="12.29833238121989"><ele>439.0</ele><time>2026-04-25T14:45:03Z</time></trkpt><trkpt lat="46.250982403768624" lon="12.298351133828167"><ele>438.33333333333337</ele><time>2026-04-25T14:45:04Z</time></trkpt><trkpt lat="46.251188667045966" lon="12.298378659776937"><ele>437.66666666666663</ele><time>2026-04-25T14:45:05Z</time></trkpt><trkpt lat="46.251403850292846" lon="12.298407779807905"><ele>437.0</ele><time>2026-04-25T14:45:06Z</time></trkpt><trkpt lat="46.25161479723134" lon="12.29844344632761"><ele>439.0</ele><time>2026-04-25T14:45:07Z</time></trkpt><trkpt lat="46.25181615611706" lon="12.298469105514602"><ele>441.0</ele><time>2026-04-25T14:45:08Z</time></trkpt><trkpt lat="46.25203277420585" lon="12.298511400463683"><ele>443.0</ele><time>2026-04-25T14:45:09Z</time></trkpt><trkpt lat="46.2522199004739" lon="12.298545395972553"><ele>446.0</ele><time>2026-04-25T14:45:10Z</time></trkpt><trkpt lat="46.25239213355532" lon="12.298572743781826"><ele>449.0</ele><time>2026-04-25T14:45:11Z</time></trkpt><trkpt lat="46.25258839326518" lon="12.298574893289663"><ele>452.0</ele><time>2026-04-25T14:45:12Z</time></trkpt><trkpt lat="46.25282880538913" lon="12.29859133802637"><ele>452.0</ele><time>2026-04-25T14:45:13Z</time></trkpt><trkpt lat="46.25302724074613" lon="12.298593094325978"><ele>452.0</ele><time>2026-04-25T14:45:14Z</time></trkpt><trkpt lat="46.25323283883319" lon="12.298610763953034"><ele>452.0</ele><time>2026-04-25T14:45:15Z</time></trkpt><trkpt lat="46.253443472179256" lon="12.298625544523958"><ele>451.0</ele><time>2026-04-25T14:45:16Z</time></trkpt><trkpt lat="46.25363944875275" lon="12.298631724316127"><ele>450.0</ele><time>2026-04-25T14:45:17Z</time></trkpt><trkpt lat="46.25383917179035" lon="12.298635367057578"><ele>449.0</ele><time>2026-04-25T14:45:18Z</time></trkpt><trkpt lat="46.25403016413972" lon="12.298648263108547"><ele>448.0</ele><time>2026-04-25T14:45:19Z</time></trkpt><trkpt lat="46.25423391576044" lon="12.298615373168879"><ele>447.0</ele><time>2026-04-25T14:45:20Z</time></trkpt><trkpt lat="46.25444918701677" lon="12.298590774497002"><ele>446.0</ele><time>2026-04-25T14:45:21Z</time></trkpt><trkpt lat="46.25465371730848" lon="12.29856400701634"><ele>447.66666666666663</ele><time>2026-04-25T14:45:22Z</time></trkpt><trkpt lat="46.25483730407552" lon="12.298554487917281"><ele>449.33333333333337</ele><time>2026-04-25T14:45:23Z</time></trkpt><trkpt lat="46.254991906692744" lon="12.298606885003743"><ele>451.0</ele><time>2026-04-25T14:45:24Z</time></trkpt><trkpt lat="46.25516661296738" lon="12.29863649186392"><ele>451.0</ele><time>2026-04-25T14:45:25Z</time></trkpt><trkpt lat="46.255322933657794" lon="12.298667783652968"><ele>451.0</ele><time>2026-04-25T14:45:26Z</time></trkpt><trkpt lat="46.25548985567767" lon="12.298713669244133"><ele>451.0</ele><time>2026-04-25T14:45:27Z</time></trkpt><trkpt lat="46.25563587302244" lon="12.298781736106838"><ele>450.25</ele><time>2026-04-25T14:45:28Z</time></trkpt><trkpt lat="46.2557736296808" lon="12.29886138109668"><ele>449.5</ele><time>2026-04-25T14:45:29Z</time></trkpt><trkpt lat="46.25589156025548" lon="12.298953511377897"><ele>448.75</ele><time>2026-04-25T14:45:30Z</time></trkpt><trkpt lat="46.25600050081184" lon="12.299071135254378"><ele>448.0</ele><time>2026-04-25T14:45:31Z</time></trkpt><trkpt lat="46.25610326130214" lon="12.299212220454017"><ele>442.0</ele><time>2026-04-25T14:45:32Z</time></trkpt><trkpt lat="46.25619534865267" lon="12.29936385297547"><ele>436.0</ele><time>2026-04-25T14:45:32.999Z</time></trkpt><trkpt lat="46.25625988972022" lon="12.299588048832758"><ele>430.0</ele><time>2026-04-25T14:45:33.999Z</time></trkpt><trkpt lat="46.25631122597158" lon="12.299813950754036"><ele>437.0</ele><time>2026-04-25T14:45:34.999Z</time></trkpt><trkpt lat="46.25679153399362" lon="12.299072236513885"><ele>437.0</ele><time>2026-04-25T14:45:35.999Z</time></trkpt><trkpt lat="46.25690297032786" lon="12.2991394467735"><ele>437.00000000000006</ele><time>2026-04-25T14:45:37.999Z</time></trkpt><trkpt lat="46.25697951508998" lon="12.299155182154404"><ele>437.00000000000006</ele><time>2026-04-25T14:45:38.999Z</time></trkpt><trkpt lat="46.25708151408758" lon="12.29918900261275"><ele>437.0</ele><time>2026-04-25T14:45:39.999Z</time></trkpt><trkpt lat="46.257168492489846" lon="12.29920950634703"><ele>437.0</ele><time>2026-04-25T14:45:40.999Z</time></trkpt><trkpt lat="46.25729640514637" lon="12.299272057309588"><ele>441.66666666666663</ele><time>2026-04-25T14:45:41.999Z</time></trkpt><trkpt lat="46.25745418378815" lon="12.299362613977658"><ele>446.33333333333337</ele><time>2026-04-25T14:45:42.999Z</time></trkpt><trkpt lat="46.25761466755254" lon="12.299447747051245"><ele>451.0</ele><time>2026-04-25T14:45:43.999Z</time></trkpt><trkpt lat="46.25777965222854" lon="12.299530402252856"><ele>451.0</ele><time>2026-04-25T14:45:44.999Z</time></trkpt><trkpt lat="46.25795033719737" lon="12.299616552405602"><ele>451.0</ele><time>2026-04-25T14:45:45.999Z</time></trkpt><trkpt lat="46.258137161585154" lon="12.299691984840768"><ele>451.0</ele><time>2026-04-25T14:45:46.999Z</time></trkpt><trkpt lat="46.25833350139501" lon="12.299758379072422"><ele>447.33333333333337</ele><time>2026-04-25T14:45:47.999Z</time></trkpt><trkpt lat="46.258544669083626" lon="12.2998170503889"><ele>443.66666666666663</ele><time>2026-04-25T14:45:48.999Z</time></trkpt><trkpt lat="46.25876833886962" lon="12.299861129760783"><ele>440.0</ele><time>2026-04-25T14:45:49.999Z</time></trkpt><trkpt lat="46.258976855245876" lon="12.29991603459598"><ele>440.0</ele><time>2026-04-25T14:45:50.999Z</time></trkpt><trkpt lat="46.25919514051104" lon="12.29996786726564"><ele>440.0</ele><time>2026-04-25T14:45:51.999Z</time></trkpt><trkpt lat="46.259400149895036" lon="12.300034569255084"><ele>440.0</ele><time>2026-04-25T14:45:52.999Z</time></trkpt><trkpt lat="46.25960247800854" lon="12.300109505933854"><ele>441.66666666666663</ele><time>2026-04-25T14:45:53.999Z</time></trkpt><trkpt lat="46.25980004741924" lon="12.300204568039465"><ele>443.33333333333337</ele><time>2026-04-25T14:45:54.999Z</time></trkpt><trkpt lat="46.25999313435438" lon="12.3002947925211"><ele>445.0</ele><time>2026-04-25T14:45:55.999Z</time></trkpt><trkpt lat="46.260183192965066" lon="12.30039554134352"><ele>445.0</ele><time>2026-04-25T14:45:56.999Z</time></trkpt><trkpt lat="46.26036983229857" lon="12.3004833133102"><ele>445.0</ele><time>2026-04-25T14:45:57.999Z</time></trkpt><trkpt lat="46.2605426178788" lon="12.300590796714474"><ele>445.0</ele><time>2026-04-25T14:45:58.999Z</time></trkpt><trkpt lat="46.26072175815189" lon="12.300719575055952"><ele>447.0</ele><time>2026-04-25T14:45:59.999Z</time></trkpt><trkpt lat="46.26087690852767" lon="12.300867186236038"><ele>449.0</ele><time>2026-04-25T14:46:00.999Z</time></trkpt><trkpt lat="46.2610297647505" lon="12.301019780193586"><ele>451.0</ele><time>2026-04-25T14:46:01.999Z</time></trkpt><trkpt lat="46.26118874610945" lon="12.301169666875662"><ele>451.0</ele><time>2026-04-25T14:46:02.999Z</time></trkpt><trkpt lat="46.261359272597566" lon="12.301298772537864"><ele>451.0</ele><time>2026-04-25T14:46:03.999Z</time></trkpt><trkpt lat="46.26154212893377" lon="12.301427010771542"><ele>451.0</ele><time>2026-04-25T14:46:04.999Z</time></trkpt><trkpt lat="46.26172743126038" lon="12.301544137641939"><ele>450.33333333333337</ele><time>2026-04-25T14:46:05.999Z</time></trkpt><trkpt lat="46.26190923952344" lon="12.301666092315674"><ele>449.66666666666663</ele><time>2026-04-25T14:46:06.999Z</time></trkpt><trkpt lat="46.26208700393296" lon="12.301782212855944"><ele>449.0</ele><time>2026-04-25T14:46:07.999Z</time></trkpt><trkpt lat="46.262269904753815" lon="12.301911517125493"><ele>448.3333333333333</ele><time>2026-04-25T14:46:08.999Z</time></trkpt><trkpt lat="46.26246148339403" lon="12.302035448459817"><ele>447.66666666666663</ele><time>2026-04-25T14:46:09.999Z</time></trkpt><trkpt lat="46.26264594000039" lon="12.302157924999456"><ele>447.0</ele><time>2026-04-25T14:46:10.999Z</time></trkpt><trkpt lat="46.26282843976042" lon="12.302275757355478"><ele>447.0</ele><time>2026-04-25T14:46:11.999Z</time></trkpt><trkpt lat="46.26301244744128" lon="12.302400959994017"><ele>447.0</ele><time>2026-04-25T14:46:12.999Z</time></trkpt><trkpt lat="46.2631923975987" lon="12.302524217820661"><ele>447.0</ele><time>2026-04-25T14:46:13.999Z</time></trkpt><trkpt lat="46.26336570252653" lon="12.30264590034115"><ele>453.33333333333337</ele><time>2026-04-25T14:46:14.999Z</time></trkpt><trkpt lat="46.26353057425661" lon="12.302755579966115"><ele>459.6666666666667</ele><time>2026-04-25T14:46:15.999Z</time></trkpt><trkpt lat="46.26367824668389" lon="12.302853362026767"><ele>466.0</ele><time>2026-04-25T14:46:16.999Z</time></trkpt><trkpt lat="46.263814046868006" lon="12.30294199962346"><ele>466.0</ele><time>2026-04-25T14:46:17.999Z</time></trkpt><trkpt lat="46.263946407699834" lon="12.30301710781021"><ele>466.0</ele><time>2026-04-25T14:46:18.999Z</time></trkpt><trkpt lat="46.2640721465599" lon="12.303056938043285"><ele>466.0</ele><time>2026-04-25T14:46:19.999Z</time></trkpt><trkpt lat="46.26419325943338" lon="12.303088636716318"><ele>466.0</ele><time>2026-04-25T14:46:20.999Z</time></trkpt><trkpt lat="46.26430347015099" lon="12.30307919373519"><ele>469.5</ele><time>2026-04-25T14:46:21.999Z</time></trkpt><trkpt lat="46.26442068555033" lon="12.303063554474937"><ele>473.0</ele><time>2026-04-25T14:46:22.999Z</time></trkpt><trkpt lat="46.26454654951861" lon="12.30299396546202"><ele>476.5</ele><time>2026-04-25T14:46:23.999Z</time></trkpt><trkpt lat="46.264673021203286" lon="12.302948919816252"><ele>480.0</ele><time>2026-04-25T14:46:24.999Z</time></trkpt><trkpt lat="46.26477672246598" lon="12.30286585044615"><ele>478.8</ele><time>2026-04-25T14:46:25.999Z</time></trkpt><trkpt lat="46.26487845044875" lon="12.302768268751283"><ele>477.6</ele><time>2026-04-25T14:46:26.999Z</time></trkpt><trkpt lat="46.26496764492767" lon="12.30265843158814"><ele>476.4</ele><time>2026-04-25T14:46:27.999Z</time></trkpt><trkpt lat="46.265035706192975" lon="12.302545321765193"><ele>475.2</ele><time>2026-04-25T14:46:28.999Z</time></trkpt><trkpt lat="46.265104062255126" lon="12.302436490219831"><ele>474.0</ele><time>2026-04-25T14:46:29.999Z</time></trkpt><trkpt lat="46.26516966267719" lon="12.302332780623242"><ele>475.4</ele><time>2026-04-25T14:46:30.999Z</time></trkpt><trkpt lat="46.265235403847846" lon="12.302245716597557"><ele>476.79999999999995</ele><time>2026-04-25T14:46:31.999Z</time></trkpt><trkpt lat="46.265298173222256" lon="12.302164487999388"><ele>478.20000000000005</ele><time>2026-04-25T14:46:33Z</time></trkpt><trkpt lat="46.26536960028083" lon="12.302080529016024"><ele>479.6</ele><time>2026-04-25T14:46:34Z</time></trkpt><trkpt lat="46.26545359347327" lon="12.301987197924392"><ele>481.0</ele><time>2026-04-25T14:46:35Z</time></trkpt><trkpt lat="46.265543451284266" lon="12.30188813012343"><ele>479.0</ele><time>2026-04-25T14:46:36Z</time></trkpt><trkpt lat="46.26564471546546" lon="12.301794155783687"><ele>477.0</ele><time>2026-04-25T14:46:37Z</time></trkpt><trkpt lat="46.26576496830446" lon="12.30170352195033"><ele>475.0</ele><time>2026-04-25T14:46:38Z</time></trkpt><trkpt lat="46.26588969497205" lon="12.301634228743268"><ele>473.0</ele><time>2026-04-25T14:46:39Z</time></trkpt><trkpt lat="46.26602994753071" lon="12.30157510536747"><ele>473.0</ele><time>2026-04-25T14:46:40Z</time></trkpt><trkpt lat="46.26616213653189" lon="12.301535109532894"><ele>473.0</ele><time>2026-04-25T14:46:41Z</time></trkpt><trkpt lat="46.2663019488532" lon="12.301511039726876"><ele>473.0</ele><time>2026-04-25T14:46:42Z</time></trkpt><trkpt lat="46.2664452392017" lon="12.301491916574397"><ele>473.0</ele><time>2026-04-25T14:46:43Z</time></trkpt><trkpt lat="46.266579477159" lon="12.301469927908052"><ele>474.0</ele><time>2026-04-25T14:46:44Z</time></trkpt><trkpt lat="46.2667067914688" lon="12.30144498422956"><ele>475.0</ele><time>2026-04-25T14:46:45Z</time></trkpt><trkpt lat="46.266832748616395" lon="12.301427342052964"><ele>476.0</ele><time>2026-04-25T14:46:46Z</time></trkpt><trkpt lat="46.26696850112271" lon="12.301415494697592"><ele>477.0</ele><time>2026-04-25T14:46:47Z</time></trkpt><trkpt lat="46.26710597580436" lon="12.301411290123019"><ele>474.5</ele><time>2026-04-25T14:46:48Z</time></trkpt><trkpt lat="46.26724719874828" lon="12.301435547526472"><ele>472.0</ele><time>2026-04-25T14:46:49Z</time></trkpt><trkpt lat="46.26739071121585" lon="12.301465791134694"><ele>469.5</ele><time>2026-04-25T14:46:50Z</time></trkpt><trkpt lat="46.26754062372032" lon="12.301506497329695"><ele>467.0</ele><time>2026-04-25T14:46:51Z</time></trkpt><trkpt lat="46.26770058089773" lon="12.301549466435874"><ele>467.0</ele><time>2026-04-25T14:46:52Z</time></trkpt><trkpt lat="46.26785659855791" lon="12.301590919120969"><ele>467.0</ele><time>2026-04-25T14:46:53Z</time></trkpt><trkpt lat="46.26801635708153" lon="12.3016295794808"><ele>467.0</ele><time>2026-04-25T14:46:54Z</time></trkpt><trkpt lat="46.268180844142826" lon="12.301671328542998"><ele>468.0</ele><time>2026-04-25T14:46:55Z</time></trkpt><trkpt lat="46.26834008913496" lon="12.301711348690082"><ele>469.0</ele><time>2026-04-25T14:46:56Z</time></trkpt><trkpt lat="46.268499538041915" lon="12.301744647870075"><ele>470.0</ele><time>2026-04-25T14:46:57Z</time></trkpt><trkpt lat="46.268660721141586" lon="12.301769852999415"><ele>470.0</ele><time>2026-04-25T14:46:58Z</time></trkpt><trkpt lat="46.26882493444208" lon="12.301779356728392"><ele>470.0</ele><time>2026-04-25T14:46:59Z</time></trkpt><trkpt lat="46.26898696942323" lon="12.301784803267806"><ele>470.0</ele><time>2026-04-25T14:47:00Z</time></trkpt><trkpt lat="46.269158218924666" lon="12.301779361238339"><ele>470.3333333333333</ele><time>2026-04-25T14:47:01Z</time></trkpt><trkpt lat="46.269324379362295" lon="12.301766815896842"><ele>470.66666666666663</ele><time>2026-04-25T14:47:02Z</time></trkpt><trkpt lat="46.2694924879299" lon="12.301752883457972"><ele>471.0</ele><time>2026-04-25T14:47:03Z</time></trkpt><trkpt lat="46.26963703187585" lon="12.301728591762474"><ele>470.0</ele><time>2026-04-25T14:47:04Z</time></trkpt><trkpt lat="46.269810470485936" lon="12.301701424988458"><ele>469.0</ele><time>2026-04-25T14:47:05Z</time></trkpt><trkpt lat="46.26996818377144" lon="12.301621535488982"><ele>468.0</ele><time>2026-04-25T14:47:06Z</time></trkpt><trkpt lat="46.27012186985095" lon="12.301549681257749"><ele>468.0</ele><time>2026-04-25T14:47:07Z</time></trkpt><trkpt lat="46.27027358185326" lon="12.301468203915563"><ele>468.0</ele><time>2026-04-25T14:47:08Z</time></trkpt><trkpt lat="46.27042678476915" lon="12.301361470193525"><ele>468.0</ele><time>2026-04-25T14:47:09Z</time></trkpt><trkpt lat="46.27057948069491" lon="12.301259181405937"><ele>471.0</ele><time>2026-04-25T14:47:10Z</time></trkpt><trkpt lat="46.27074465653585" lon="12.30114682366277"><ele>474.0</ele><time>2026-04-25T14:47:11Z</time></trkpt><trkpt lat="46.270898264682835" lon="12.301039723226417"><ele>477.0</ele><time>2026-04-25T14:47:12Z</time></trkpt><trkpt lat="46.27106838270775" lon="12.30092898176991"><ele>477.0</ele><time>2026-04-25T14:47:13Z</time></trkpt><trkpt lat="46.27120891234595" lon="12.300829736036281"><ele>477.0</ele><time>2026-04-25T14:47:14Z</time></trkpt><trkpt lat="46.271362302272294" lon="12.300735994614547"><ele>477.0</ele><time>2026-04-25T14:47:15Z</time></trkpt><trkpt lat="46.27150490719127" lon="12.300651180842394"><ele>479.5</ele><time>2026-04-25T14:47:16Z</time></trkpt><trkpt lat="46.271633730486926" lon="12.300580629831655"><ele>482.0</ele><time>2026-04-25T14:47:17Z</time></trkpt><trkpt lat="46.27177134577463" lon="12.300524018912483"><ele>484.5</ele><time>2026-04-25T14:47:18Z</time></trkpt><trkpt lat="46.27191812620563" lon="12.300480850115441"><ele>487.0</ele><time>2026-04-25T14:47:19Z</time></trkpt><trkpt lat="46.2720606941038" lon="12.3004529367286"><ele>487.0</ele><time>2026-04-25T14:47:20Z</time></trkpt><trkpt lat="46.27220512841547" lon="12.300464148440764"><ele>487.0</ele><time>2026-04-25T14:47:21Z</time></trkpt><trkpt lat="46.27235348436031" lon="12.300489067650732"><ele>487.0</ele><time>2026-04-25T14:47:22Z</time></trkpt><trkpt lat="46.272516685331006" lon="12.300508026242154"><ele>487.6666666666667</ele><time>2026-04-25T14:47:23Z</time></trkpt><trkpt lat="46.27266948611846" lon="12.300563880423242"><ele>488.33333333333337</ele><time>2026-04-25T14:47:24Z</time></trkpt><trkpt lat="46.27280226208221" lon="12.30062920131819"><ele>489.0</ele><time>2026-04-25T14:47:25Z</time></trkpt><trkpt lat="46.27295847910944" lon="12.30070117826543"><ele>485.66666666666663</ele><time>2026-04-25T14:47:26Z</time></trkpt><trkpt lat="46.27310292731872" lon="12.300789646869932"><ele>482.3333333333333</ele><time>2026-04-25T14:47:27Z</time></trkpt><trkpt lat="46.27325493695351" lon="12.30085849067405"><ele>479.0</ele><time>2026-04-25T14:47:28Z</time></trkpt><trkpt lat="46.27342495484714" lon="12.300894192877925"><ele>479.0</ele><time>2026-04-25T14:47:29Z</time></trkpt><trkpt lat="46.273592913208134" lon="12.300939844267178"><ele>479.0</ele><time>2026-04-25T14:47:30Z</time></trkpt><trkpt lat="46.27376501439386" lon="12.300976772052708"><ele>479.0</ele><time>2026-04-25T14:47:31Z</time></trkpt><trkpt lat="46.2739168528153" lon="12.300996644974438"><ele>481.66666666666663</ele><time>2026-04-25T14:47:32Z</time></trkpt><trkpt lat="46.274069135799884" lon="12.301030509523146"><ele>484.33333333333337</ele><time>2026-04-25T14:47:33Z</time></trkpt><trkpt lat="46.27421562725951" lon="12.301004552049777"><ele>487.0</ele><time>2026-04-25T14:47:34Z</time></trkpt><trkpt lat="46.27437794741081" lon="12.300985226670702"><ele>487.0</ele><time>2026-04-25T14:47:35Z</time></trkpt><trkpt lat="46.27454678912068" lon="12.300966101650234"><ele>487.0</ele><time>2026-04-25T14:47:36Z</time></trkpt><trkpt lat="46.274711735101484" lon="12.300964563610925"><ele>487.0</ele><time>2026-04-25T14:47:37Z</time></trkpt><trkpt lat="46.27488953015107" lon="12.300933240853224"><ele>488.0</ele><time>2026-04-25T14:47:38Z</time></trkpt><trkpt lat="46.275045345111536" lon="12.300932787728451"><ele>489.0</ele><time>2026-04-25T14:47:39Z</time></trkpt><trkpt lat="46.2751855755599" lon="12.300917043977812"><ele>490.0</ele><time>2026-04-25T14:47:40Z</time></trkpt><trkpt lat="46.275365598135885" lon="12.300903715627499"><ele>490.0</ele><time>2026-04-25T14:47:41Z</time></trkpt><trkpt lat="46.275531605132684" lon="12.30088164155346"><ele>490.0</ele><time>2026-04-25T14:47:42Z</time></trkpt><trkpt lat="46.27569749629244" lon="12.300877546204111"><ele>490.0</ele><time>2026-04-25T14:47:42.999Z</time></trkpt><trkpt lat="46.27590417529671" lon="12.300877981331762"><ele>491.25</ele><time>2026-04-25T14:47:43.999Z</time></trkpt><trkpt lat="46.27603805769803" lon="12.300845730841441"><ele>492.5</ele><time>2026-04-25T14:47:44.999Z</time></trkpt><trkpt lat="46.27620564263652" lon="12.300842132459257"><ele>493.75</ele><time>2026-04-25T14:47:45.999Z</time></trkpt><trkpt lat="46.27635008329704" lon="12.300826500687926"><ele>495.0</ele><time>2026-04-25T14:47:46.999Z</time></trkpt><trkpt lat="46.27648802161797" lon="12.30081967114598"><ele>495.75</ele><time>2026-04-25T14:47:47.999Z</time></trkpt><trkpt lat="46.27660714563984" lon="12.300817023454965"><ele>496.5</ele><time>2026-04-25T14:47:48.999Z</time></trkpt><trkpt lat="46.27672259061393" lon="12.300815765771828"><ele>497.25</ele><time>2026-04-25T14:47:49.999Z</time></trkpt><trkpt lat="46.27684347550975" lon="12.30084049541369"><ele>498.0</ele><time>2026-04-25T14:47:50.999Z</time></trkpt><trkpt lat="46.27696060752148" lon="12.300890969944696"><ele>498.0</ele><time>2026-04-25T14:47:51.999Z</time></trkpt><trkpt lat="46.277080848537025" lon="12.300964011841625"><ele>498.0</ele><time>2026-04-25T14:47:52.999Z</time></trkpt><trkpt lat="46.27720125576045" lon="12.301066890372706"><ele>498.0</ele><time>2026-04-25T14:47:53.999Z</time></trkpt><trkpt lat="46.27732523141948" lon="12.301212557035786"><ele>498.0</ele><time>2026-04-25T14:47:54.999Z</time></trkpt><trkpt lat="46.27746294605578" lon="12.301373674017656"><ele>495.0</ele><time>2026-04-25T14:47:55.999Z</time></trkpt><trkpt lat="46.27761844744186" lon="12.30153197401109"><ele>492.0</ele><time>2026-04-25T14:47:56.999Z</time></trkpt><trkpt lat="46.27778132475601" lon="12.301663668504984"><ele>489.0</ele><time>2026-04-25T14:47:57.999Z</time></trkpt><trkpt lat="46.27794709841134" lon="12.301783899776854"><ele>498.33333333333337</ele><time>2026-04-25T14:47:58.999Z</time></trkpt><trkpt lat="46.27810819290574" lon="12.301885653086622"><ele>507.6666666666667</ele><time>2026-04-25T14:47:59.999Z</time></trkpt><trkpt lat="46.278262257906114" lon="12.301992849402076"><ele>517.0</ele><time>2026-04-25T14:48:00.999Z</time></trkpt><trkpt lat="46.27839180139684" lon="12.30210968609343"><ele>517.0</ele><time>2026-04-25T14:48:01.999Z</time></trkpt><trkpt lat="46.278520490548026" lon="12.302213344120606"><ele>517.0</ele><time>2026-04-25T14:48:02.999Z</time></trkpt><trkpt lat="46.27861944483678" lon="12.302355651533338"><ele>517.0</ele><time>2026-04-25T14:48:03.999Z</time></trkpt><trkpt lat="46.278711539781604" lon="12.30249897558255"><ele>517.0</ele><time>2026-04-25T14:48:04.999Z</time></trkpt><trkpt lat="46.27880933921673" lon="12.30261252687998"><ele>514.2</ele><time>2026-04-25T14:48:05.999Z</time></trkpt><trkpt lat="46.27891609026059" lon="12.302681767660708"><ele>511.40000000000003</ele><time>2026-04-25T14:48:06.999Z</time></trkpt><trkpt lat="46.27901769866348" lon="12.302727411533233"><ele>508.59999999999997</ele><time>2026-04-25T14:48:07.999Z</time></trkpt><trkpt lat="46.2791127101158" lon="12.302752567881232"><ele>505.79999999999995</ele><time>2026-04-25T14:48:08.999Z</time></trkpt><trkpt lat="46.279193856921886" lon="12.302765898207738"><ele>503.0</ele><time>2026-04-25T14:48:09.999Z</time></trkpt><trkpt lat="46.27925684260204" lon="12.302775834590662"><ele>503.0</ele><time>2026-04-25T14:48:10.999Z</time></trkpt><trkpt lat="46.279317881824824" lon="12.302806825634436"><ele>503.0</ele><time>2026-04-25T14:48:12.999Z</time></trkpt><trkpt lat="46.27924780986176" lon="12.302704918772454"><ele>503.0</ele><time>2026-04-25T14:48:36.999Z</time></trkpt><trkpt lat="46.27911607020235" lon="12.302675822671738"><ele>503.0</ele><time>2026-04-25T14:48:39Z</time></trkpt><trkpt lat="46.278944483573426" lon="12.30264650123045"><ele>500.0</ele><time>2026-04-25T14:48:40Z</time></trkpt><trkpt lat="46.27883176536299" lon="12.302581260765576"><ele>497.0</ele><time>2026-04-25T14:48:41Z</time></trkpt><trkpt lat="46.278723619622475" lon="12.302474980227723"><ele>494.0</ele><time>2026-04-25T14:48:42Z</time></trkpt><trkpt lat="46.27863132196904" lon="12.302354555940301"><ele>491.0</ele><time>2026-04-25T14:48:43Z</time></trkpt><trkpt lat="46.278538118820805" lon="12.302231465235165"><ele>490.5</ele><time>2026-04-25T14:48:44Z</time></trkpt><trkpt lat="46.27844478687411" lon="12.302120687619416"><ele>490.0</ele><time>2026-04-25T14:48:45Z</time></trkpt><trkpt lat="46.27833869825386" lon="12.302025903810472"><ele>489.5</ele><time>2026-04-25T14:48:46Z</time></trkpt><trkpt lat="46.278211906313096" lon="12.3019230080135"><ele>489.0</ele><time>2026-04-25T14:48:47Z</time></trkpt><trkpt lat="46.27806891584322" lon="12.301833199394896"><ele>489.0</ele><time>2026-04-25T14:48:48Z</time></trkpt><trkpt lat="46.27793072682437" lon="12.301741119699862"><ele>489.0</ele><time>2026-04-25T14:48:49Z</time></trkpt><trkpt lat="46.277801465539554" lon="12.301628625979978"><ele>489.0</ele><time>2026-04-25T14:48:50Z</time></trkpt><trkpt lat="46.27767394678188" lon="12.301499194405684"><ele>500.66666666666663</ele><time>2026-04-25T14:48:51Z</time></trkpt><trkpt lat="46.27756061976542" lon="12.301347228248222"><ele>512.3333333333333</ele><time>2026-04-25T14:48:52Z</time></trkpt><trkpt lat="46.277443347649026" lon="12.301202483818935"><ele>524.0</ele><time>2026-04-25T14:48:53Z</time></trkpt><trkpt lat="46.27732620011271" lon="12.301058640391496"><ele>517.5</ele><time>2026-04-25T14:48:54Z</time></trkpt><trkpt lat="46.27719440526072" lon="12.300957610882515"><ele>511.0</ele><time>2026-04-25T14:48:55Z</time></trkpt><trkpt lat="46.27705869127434" lon="12.300910979110613"><ele>504.5</ele><time>2026-04-25T14:48:56Z</time></trkpt><trkpt lat="46.276935950481615" lon="12.300847419365972"><ele>498.0</ele><time>2026-04-25T14:48:57Z</time></trkpt><trkpt lat="46.27678969315897" lon="12.300827956269657"><ele>498.0</ele><time>2026-04-25T14:48:58Z</time></trkpt><trkpt lat="46.27665152165647" lon="12.300821274098428"><ele>498.0</ele><time>2026-04-25T14:48:59Z</time></trkpt><trkpt lat="46.276510199751904" lon="12.300830936887047"><ele>498.0</ele><time>2026-04-25T14:49:00Z</time></trkpt><trkpt lat="46.276364610034314" lon="12.300841845470348"><ele>498.0</ele><time>2026-04-25T14:49:01Z</time></trkpt><trkpt lat="46.276218812678316" lon="12.30084858563497"><ele>497.25</ele><time>2026-04-25T14:49:02Z</time></trkpt><trkpt lat="46.276067634349886" lon="12.300852957711014"><ele>496.5</ele><time>2026-04-25T14:49:03Z</time></trkpt><trkpt lat="46.27591999943044" lon="12.300865709778439"><ele>495.75</ele><time>2026-04-25T14:49:04Z</time></trkpt><trkpt lat="46.275774863276254" lon="12.300877029746346"><ele>495.0</ele><time>2026-04-25T14:49:05Z</time></trkpt><trkpt lat="46.27562420096735" lon="12.30088926404994"><ele>493.33333333333337</ele><time>2026-04-25T14:49:06Z</time></trkpt><trkpt lat="46.275474365822966" lon="12.300898052284687"><ele>491.6666666666667</ele><time>2026-04-25T14:49:07Z</time></trkpt><trkpt lat="46.27531822673642" lon="12.300907195324287"><ele>490.0</ele><time>2026-04-25T14:49:08Z</time></trkpt><trkpt lat="46.27517014183431" lon="12.300921095669695"><ele>490.0</ele><time>2026-04-25T14:49:09Z</time></trkpt><trkpt lat="46.27502779974192" lon="12.300939614499905"><ele>490.0</ele><time>2026-04-25T14:49:10Z</time></trkpt><trkpt lat="46.27488732945395" lon="12.30094990288366"><ele>490.0</ele><time>2026-04-25T14:49:11Z</time></trkpt><trkpt lat="46.274760844102516" lon="12.300957638554701"><ele>490.0</ele><time>2026-04-25T14:49:12Z</time></trkpt><trkpt lat="46.274620645839626" lon="12.300972792770185"><ele>489.25</ele><time>2026-04-25T14:49:13Z</time></trkpt><trkpt lat="46.274483481925444" lon="12.300993958920122"><ele>488.5</ele><time>2026-04-25T14:49:14Z</time></trkpt><trkpt lat="46.27435475865268" lon="12.301015749408839"><ele>487.75</ele><time>2026-04-25T14:49:15Z</time></trkpt><trkpt lat="46.274236892716935" lon="12.301005371221114"><ele>487.0</ele><time>2026-04-25T14:49:16Z</time></trkpt><trkpt lat="46.27411348827318" lon="12.301000591548174"><ele>487.0</ele><time>2026-04-25T14:49:17Z</time></trkpt><trkpt lat="46.27399307314804" lon="12.300996691018192"><ele>487.0</ele><time>2026-04-25T14:49:18Z</time></trkpt><trkpt lat="46.273866230882966" lon="12.30097378532042"><ele>487.0</ele><time>2026-04-25T14:49:19Z</time></trkpt><trkpt lat="46.273736246403594" lon="12.300947082731607"><ele>487.0</ele><time>2026-04-25T14:49:20Z</time></trkpt><trkpt lat="46.27360678833127" lon="12.3009147692325"><ele>485.0</ele><time>2026-04-25T14:49:21Z</time></trkpt><trkpt lat="46.27346596898197" lon="12.300892889165107"><ele>483.0</ele><time>2026-04-25T14:49:22Z</time></trkpt><trkpt lat="46.27332413251903" lon="12.300856598283188"><ele>481.0</ele><time>2026-04-25T14:49:23Z</time></trkpt><trkpt lat="46.27318072407383" lon="12.300807418217959"><ele>479.0</ele><time>2026-04-25T14:49:24Z</time></trkpt><trkpt lat="46.273039674702446" lon="12.300759036625838"><ele>476.5</ele><time>2026-04-25T14:49:25Z</time></trkpt><trkpt lat="46.27289772024471" lon="12.300718497886415"><ele>474.0</ele><time>2026-04-25T14:49:26Z</time></trkpt><trkpt lat="46.27276657594694" lon="12.300683836837466"><ele>471.5</ele><time>2026-04-25T14:49:27Z</time></trkpt><trkpt lat="46.272629299195685" lon="12.300638145639706"><ele>469.0</ele><time>2026-04-25T14:49:28Z</time></trkpt><trkpt lat="46.2724996031558" lon="12.300579530875902"><ele>473.5</ele><time>2026-04-25T14:49:29Z</time></trkpt><trkpt lat="46.27236069154098" lon="12.300533754441442"><ele>478.0</ele><time>2026-04-25T14:49:30Z</time></trkpt><trkpt lat="46.27222167341001" lon="12.300500647510868"><ele>482.5</ele><time>2026-04-25T14:49:31Z</time></trkpt><trkpt lat="46.272071045393254" lon="12.300524794825334"><ele>487.0</ele><time>2026-04-25T14:49:32Z</time></trkpt><trkpt lat="46.27192503297251" lon="12.30056622090775"><ele>484.5</ele><time>2026-04-25T14:49:33Z</time></trkpt><trkpt lat="46.27178542247737" lon="12.300602146469814"><ele>482.0</ele><time>2026-04-25T14:49:34Z</time></trkpt><trkpt lat="46.27166034344516" lon="12.30066782620083"><ele>479.5</ele><time>2026-04-25T14:49:35Z</time></trkpt><trkpt lat="46.2715246154237" lon="12.300743601758967"><ele>477.0</ele><time>2026-04-25T14:49:36Z</time></trkpt><trkpt lat="46.271393173941554" lon="12.300819824564746"><ele>477.0</ele><time>2026-04-25T14:49:37Z</time></trkpt><trkpt lat="46.271259266248066" lon="12.30089961588314"><ele>477.0</ele><time>2026-04-25T14:49:38Z</time></trkpt><trkpt lat="46.27112985604446" lon="12.300985521021788"><ele>477.0</ele><time>2026-04-25T14:49:39Z</time></trkpt><trkpt lat="46.27099773478475" lon="12.30107198983726"><ele>477.0</ele><time>2026-04-25T14:49:40Z</time></trkpt><trkpt lat="46.27086725993751" lon="12.301138330698652"><ele>477.0</ele><time>2026-04-25T14:49:41Z</time></trkpt><trkpt lat="46.27073499579331" lon="12.301221510452356"><ele>477.0</ele><time>2026-04-25T14:49:42Z</time></trkpt><trkpt lat="46.27060339276895" lon="12.301305055808601"><ele>477.0</ele><time>2026-04-25T14:49:43Z</time></trkpt><trkpt lat="46.2704720687917" lon="12.301387587372059"><ele>477.0</ele><time>2026-04-25T14:49:44Z</time></trkpt><trkpt lat="46.27034911526356" lon="12.301470227629668"><ele>474.75</ele><time>2026-04-25T14:49:45Z</time></trkpt><trkpt lat="46.2702309932183" lon="12.301552423433039"><ele>472.5</ele><time>2026-04-25T14:49:46Z</time></trkpt><trkpt lat="46.270111713486315" lon="12.301620075186024"><ele>470.25</ele><time>2026-04-25T14:49:46.999Z</time></trkpt><trkpt lat="46.269993965960396" lon="12.30169315085067"><ele>468.0</ele><time>2026-04-25T14:49:47.999Z</time></trkpt><trkpt lat="46.26987806717468" lon="12.301730929520298"><ele>468.75</ele><time>2026-04-25T14:49:48.999Z</time></trkpt><trkpt lat="46.26975974558064" lon="12.301763486765369"><ele>469.5</ele><time>2026-04-25T14:49:49.999Z</time></trkpt><trkpt lat="46.269639500875485" lon="12.301787787988237"><ele>470.25</ele><time>2026-04-25T14:49:50.999Z</time></trkpt><trkpt lat="46.26951265820451" lon="12.301796967187373"><ele>471.0</ele><time>2026-04-25T14:49:51.999Z</time></trkpt><trkpt lat="46.26939161797549" lon="12.30180298213609"><ele>471.0</ele><time>2026-04-25T14:49:52.999Z</time></trkpt><trkpt lat="46.26925201794696" lon="12.301827093243045"><ele>471.0</ele><time>2026-04-25T14:49:53.999Z</time></trkpt><trkpt lat="46.26911028259295" lon="12.30184829456897"><ele>471.0</ele><time>2026-04-25T14:49:54.999Z</time></trkpt><trkpt lat="46.26897381808603" lon="12.301859983838165"><ele>471.0</ele><time>2026-04-25T14:49:55.999Z</time></trkpt><trkpt lat="46.26882942877015" lon="12.301864810393928"><ele>470.75</ele><time>2026-04-25T14:49:56.999Z</time></trkpt><trkpt lat="46.268698076019646" lon="12.301845930365978"><ele>470.5</ele><time>2026-04-25T14:49:57.999Z</time></trkpt><trkpt lat="46.26856896305403" lon="12.301826256868072"><ele>470.25</ele><time>2026-04-25T14:49:58.999Z</time></trkpt><trkpt lat="46.26844433308495" lon="12.301796795555516"><ele>470.0</ele><time>2026-04-25T14:49:59.999Z</time></trkpt><trkpt lat="46.26832654315007" lon="12.301764086785457"><ele>470.0</ele><time>2026-04-25T14:50:00.999Z</time></trkpt><trkpt lat="46.26821649806036" lon="12.301727391433282"><ele>470.0</ele><time>2026-04-25T14:50:01.999Z</time></trkpt><trkpt lat="46.26810875451715" lon="12.301686025654345"><ele>470.0</ele><time>2026-04-25T14:50:02.999Z</time></trkpt><trkpt lat="46.26800461978416" lon="12.301646594580587"><ele>470.0</ele><time>2026-04-25T14:50:03.999Z</time></trkpt><trkpt lat="46.26790231549859" lon="12.301609809732488"><ele>470.0</ele><time>2026-04-25T14:50:04.999Z</time></trkpt><trkpt lat="46.267799534810976" lon="12.301573306233923"><ele>469.4</ele><time>2026-04-25T14:50:05.999Z</time></trkpt><trkpt lat="46.267695336778345" lon="12.301541537544761"><ele>468.8</ele><time>2026-04-25T14:50:06.999Z</time></trkpt><trkpt lat="46.26759199539621" lon="12.301509846402011"><ele>468.20000000000005</ele><time>2026-04-25T14:50:07.999Z</time></trkpt><trkpt lat="46.26749287602398" lon="12.30147787610693"><ele>467.6</ele><time>2026-04-25T14:50:08.999Z</time></trkpt><trkpt lat="46.267393469272825" lon="12.301441217791407"><ele>467.0</ele><time>2026-04-25T14:50:09.999Z</time></trkpt><trkpt lat="46.267287380830005" lon="12.301417863098374"><ele>469.0</ele><time>2026-04-25T14:50:10.999Z</time></trkpt><trkpt lat="46.26718627123594" lon="12.30139934747128"><ele>471.00000000000006</ele><time>2026-04-25T14:50:11.999Z</time></trkpt><trkpt lat="46.26707985186012" lon="12.301392184847264"><ele>473.00000000000006</ele><time>2026-04-25T14:50:12.999Z</time></trkpt><trkpt lat="46.26696723539278" lon="12.30138747754686"><ele>475.0</ele><time>2026-04-25T14:50:13.999Z</time></trkpt><trkpt lat="46.26685795476864" lon="12.301390543440242"><ele>477.0</ele><time>2026-04-25T14:50:14.999Z</time></trkpt><trkpt lat="46.266748946554266" lon="12.301406906879478"><ele>476.20000000000005</ele><time>2026-04-25T14:50:15.999Z</time></trkpt><trkpt lat="46.266633637733996" lon="12.301436529257362"><ele>475.40000000000003</ele><time>2026-04-25T14:50:16.999Z</time></trkpt><trkpt lat="46.26652523730472" lon="12.301453994484023"><ele>474.59999999999997</ele><time>2026-04-25T14:50:17.999Z</time></trkpt><trkpt lat="46.26642306855621" lon="12.301477652277676"><ele>473.79999999999995</ele><time>2026-04-25T14:50:18.999Z</time></trkpt><trkpt lat="46.26633071151408" lon="12.301502891855657"><ele>473.0</ele><time>2026-04-25T14:50:19.999Z</time></trkpt><trkpt lat="46.26624882483589" lon="12.301518026573879"><ele>472.99999999999994</ele><time>2026-04-25T14:50:20.999Z</time></trkpt><trkpt lat="46.266160834773096" lon="12.301533761196753"><ele>473.0</ele><time>2026-04-25T14:50:21.999Z</time></trkpt><trkpt lat="46.26608404946642" lon="12.301553379070622"><ele>473.0</ele><time>2026-04-25T14:50:22.999Z</time></trkpt><trkpt lat="46.26601689375014" lon="12.301548935256402"><ele>473.0</ele><time>2026-04-25T14:50:23.999Z</time></trkpt><trkpt lat="46.26589430896827" lon="12.301565128137836"><ele>472.99999999999994</ele><time>2026-04-25T14:50:25.999Z</time></trkpt><trkpt lat="46.26583035815205" lon="12.301592652060792"><ele>473.0</ele><time>2026-04-25T14:50:26.999Z</time></trkpt><trkpt lat="46.26572160394998" lon="12.30164821174705"><ele>473.0</ele><time>2026-04-25T14:50:28.999Z</time></trkpt><trkpt lat="46.26562257485452" lon="12.301718870366024"><ele>472.99999999999994</ele><time>2026-04-25T14:50:30.999Z</time></trkpt><trkpt lat="46.2655133876667" lon="12.301816023913467"><ele>472.99999999999994</ele><time>2026-04-25T14:50:32.999Z</time></trkpt><trkpt lat="46.265451564713764" lon="12.301882991422376"><ele>473.0</ele><time>2026-04-25T14:50:33.999Z</time></trkpt><trkpt lat="46.26539168517914" lon="12.301952108514666"><ele>473.0</ele><time>2026-04-25T14:50:34.999Z</time></trkpt><trkpt lat="46.265329505299135" lon="12.302031622010222"><ele>473.16666666666663</ele><time>2026-04-25T14:50:35.999Z</time></trkpt><trkpt lat="46.26526749194104" lon="12.30212090472165"><ele>473.3333333333333</ele><time>2026-04-25T14:50:36.999Z</time></trkpt><trkpt lat="46.26520620093521" lon="12.302210203303831"><ele>473.5</ele><time>2026-04-25T14:50:37.999Z</time></trkpt><trkpt lat="46.26514886013779" lon="12.302297988725556"><ele>473.66666666666663</ele><time>2026-04-25T14:50:38.999Z</time></trkpt><trkpt lat="46.265092826013735" lon="12.302380724992128"><ele>473.8333333333333</ele><time>2026-04-25T14:50:39.999Z</time></trkpt><trkpt lat="46.265041517357595" lon="12.302464344392336"><ele>474.0</ele><time>2026-04-25T14:50:40.999Z</time></trkpt><trkpt lat="46.264995157486894" lon="12.302545764101872"><ele>474.0</ele><time>2026-04-25T14:50:41.999Z</time></trkpt><trkpt lat="46.2649452726551" lon="12.302618178631137"><ele>474.0</ele><time>2026-04-25T14:50:42.999Z</time></trkpt><trkpt lat="46.264867631871795" lon="12.302766123814264"><ele>474.0</ele><time>2026-04-25T14:50:45Z</time></trkpt><trkpt lat="46.26485826799449" lon="12.302860785553294"><ele>474.0</ele><time>2026-04-25T14:50:46Z</time></trkpt><trkpt lat="46.26487327642354" lon="12.302963915811928"><ele>474.0</ele><time>2026-04-25T14:50:47Z</time></trkpt><trkpt lat="46.264912553530564" lon="12.30304482758304"><ele>474.0</ele><time>2026-04-25T14:50:48Z</time></trkpt><trkpt lat="46.26497392125798" lon="12.30310217829018"><ele>474.0</ele><time>2026-04-25T14:50:49Z</time></trkpt><trkpt lat="46.265045644163095" lon="12.303142394779945"><ele>474.0</ele><time>2026-04-25T14:50:50Z</time></trkpt><trkpt lat="46.265123707800726" lon="12.303156421164363"><ele>474.0</ele><time>2026-04-25T14:50:51Z</time></trkpt><trkpt lat="46.265202447060204" lon="12.30314682960792"><ele>474.0</ele><time>2026-04-25T14:50:52Z</time></trkpt><trkpt lat="46.265283082502876" lon="12.30312849732619"><ele>474.0</ele><time>2026-04-25T14:50:53Z</time></trkpt><trkpt lat="46.26537054614616" lon="12.303096869782209"><ele>474.0</ele><time>2026-04-25T14:50:54Z</time></trkpt><trkpt lat="46.26545669238827" lon="12.303048578949467"><ele>474.0</ele><time>2026-04-25T14:50:55Z</time></trkpt><trkpt lat="46.26555747684165" lon="12.302995198462105"><ele>474.0</ele><time>2026-04-25T14:50:56Z</time></trkpt><trkpt lat="46.2656554032651" lon="12.302933732465869"><ele>474.0</ele><time>2026-04-25T14:50:57Z</time></trkpt><trkpt lat="46.26575218323401" lon="12.302870353935806"><ele>474.0</ele><time>2026-04-25T14:50:58Z</time></trkpt><trkpt lat="46.265850084797584" lon="12.302816328827358"><ele>474.0</ele><time>2026-04-25T14:50:59Z</time></trkpt><trkpt lat="46.26594922590685" lon="12.30276221906777"><ele>472.0</ele><time>2026-04-25T14:51:00Z</time></trkpt><trkpt lat="46.26604639303089" lon="12.302707028257032"><ele>470.0</ele><time>2026-04-25T14:51:01Z</time></trkpt><trkpt lat="46.26614518443619" lon="12.302642620314113"><ele>468.0</ele><time>2026-04-25T14:51:02Z</time></trkpt><trkpt lat="46.26624525742387" lon="12.302578687069564"><ele>466.0</ele><time>2026-04-25T14:51:03Z</time></trkpt><trkpt lat="46.26634472000167" lon="12.302527723048243"><ele>464.0</ele><time>2026-04-25T14:51:04Z</time></trkpt><trkpt lat="46.266444341729034" lon="12.30248670564959"><ele>463.0</ele><time>2026-04-25T14:51:05Z</time></trkpt><trkpt lat="46.26655286039823" lon="12.302464897832607"><ele>462.0</ele><time>2026-04-25T14:51:06Z</time></trkpt><trkpt lat="46.26665967207564" lon="12.30245140312346"><ele>461.0</ele><time>2026-04-25T14:51:07Z</time></trkpt><trkpt lat="46.26677184029384" lon="12.302448659886394"><ele>460.0</ele><time>2026-04-25T14:51:08Z</time></trkpt><trkpt lat="46.26689128285143" lon="12.30245587868022"><ele>459.0</ele><time>2026-04-25T14:51:09Z</time></trkpt><trkpt lat="46.26701254680792" lon="12.302477073438615"><ele>459.0</ele><time>2026-04-25T14:51:10Z</time></trkpt><trkpt lat="46.26712823667454" lon="12.302513405408412"><ele>459.0</ele><time>2026-04-25T14:51:11Z</time></trkpt><trkpt lat="46.267239852174164" lon="12.302560058181347"><ele>459.0</ele><time>2026-04-25T14:51:12Z</time></trkpt><trkpt lat="46.2673432221077" lon="12.30261339873808"><ele>459.0</ele><time>2026-04-25T14:51:13Z</time></trkpt><trkpt lat="46.26743159454429" lon="12.302693533074875"><ele>459.0</ele><time>2026-04-25T14:51:14Z</time></trkpt><trkpt lat="46.26751539163567" lon="12.302780171391543"><ele>458.6</ele><time>2026-04-25T14:51:15Z</time></trkpt><trkpt lat="46.26759479731263" lon="12.302870866197129"><ele>458.2</ele><time>2026-04-25T14:51:16Z</time></trkpt><trkpt lat="46.26767382336063" lon="12.302972815149808"><ele>457.80000000000007</ele><time>2026-04-25T14:51:17Z</time></trkpt><trkpt lat="46.26773905525844" lon="12.303086962567273"><ele>457.40000000000003</ele><time>2026-04-25T14:51:18Z</time></trkpt><trkpt lat="46.267795575824174" lon="12.303216826698213"><ele>457.0</ele><time>2026-04-25T14:51:19Z</time></trkpt><trkpt lat="46.26783822288178" lon="12.303360204822763"><ele>454.75</ele><time>2026-04-25T14:51:20Z</time></trkpt><trkpt lat="46.267871421280056" lon="12.30351219965039"><ele>452.5</ele><time>2026-04-25T14:51:21Z</time></trkpt><trkpt lat="46.2678902196458" lon="12.30367189905752"><ele>450.25</ele><time>2026-04-25T14:51:22Z</time></trkpt><trkpt lat="46.267894954878145" lon="12.30383762708682"><ele>448.0</ele><time>2026-04-25T14:51:23Z</time></trkpt><trkpt lat="46.26787492739717" lon="12.304011188300363"><ele>446.5</ele><time>2026-04-25T14:51:24Z</time></trkpt><trkpt lat="46.2678403797949" lon="12.304197254780542"><ele>445.0</ele><time>2026-04-25T14:51:25Z</time></trkpt><trkpt lat="46.26779841036861" lon="12.304385238857895"><ele>443.5</ele><time>2026-04-25T14:51:26Z</time></trkpt><trkpt lat="46.267751476419974" lon="12.304580669038897"><ele>442.0</ele><time>2026-04-25T14:51:27Z</time></trkpt><trkpt lat="46.26770646546145" lon="12.304786900508088"><ele>442.0</ele><time>2026-04-25T14:51:28Z</time></trkpt><trkpt lat="46.26767322779294" lon="12.305003548513053"><ele>442.0</ele><time>2026-04-25T14:51:29Z</time></trkpt><trkpt lat="46.267653228260286" lon="12.305241504952466"><ele>442.0</ele><time>2026-04-25T14:51:30Z</time></trkpt><trkpt lat="46.26764814893494" lon="12.305490500082247"><ele>440.6666666666667</ele><time>2026-04-25T14:51:31Z</time></trkpt><trkpt lat="46.26765348146003" lon="12.305746431641705"><ele>439.33333333333337</ele><time>2026-04-25T14:51:32Z</time></trkpt><trkpt lat="46.26766647038487" lon="12.306011874974631"><ele>438.0</ele><time>2026-04-25T14:51:33Z</time></trkpt><trkpt lat="46.26768192782278" lon="12.306283558137409"><ele>437.0</ele><time>2026-04-25T14:51:34Z</time></trkpt><trkpt lat="46.26769259538378" lon="12.306574242763306"><ele>436.0</ele><time>2026-04-25T14:51:35Z</time></trkpt><trkpt lat="46.267708714928176" lon="12.30684959263414"><ele>435.0</ele><time>2026-04-25T14:51:36Z</time></trkpt><trkpt lat="46.26772368499281" lon="12.307122393433456"><ele>434.66666666666663</ele><time>2026-04-25T14:51:37Z</time></trkpt><trkpt lat="46.267741137892955" lon="12.307386372605201"><ele>434.3333333333333</ele><time>2026-04-25T14:51:38Z</time></trkpt><trkpt lat="46.26775663168168" lon="12.307645219575376"><ele>434.0</ele><time>2026-04-25T14:51:39Z</time></trkpt><trkpt lat="46.26777318562412" lon="12.30789780833423"><ele>434.3333333333333</ele><time>2026-04-25T14:51:40Z</time></trkpt><trkpt lat="46.26778808579492" lon="12.308147587863955"><ele>434.66666666666663</ele><time>2026-04-25T14:51:41Z</time></trkpt><trkpt lat="46.267805607705526" lon="12.308382338837015"><ele>435.0</ele><time>2026-04-25T14:51:42Z</time></trkpt><trkpt lat="46.26781520779089" lon="12.308618938302875"><ele>435.0</ele><time>2026-04-25T14:51:43Z</time></trkpt><trkpt lat="46.26782889434023" lon="12.308848546307376"><ele>435.0</ele><time>2026-04-25T14:51:44Z</time></trkpt><trkpt lat="46.2678421043183" lon="12.309076731688664"><ele>435.0</ele><time>2026-04-25T14:51:45Z</time></trkpt><trkpt lat="46.26785337940103" lon="12.309302142226766"><ele>435.5</ele><time>2026-04-25T14:51:46Z</time></trkpt><trkpt lat="46.2678632087594" lon="12.309520129079994"><ele>436.0</ele><time>2026-04-25T14:51:47Z</time></trkpt><trkpt lat="46.26787549489216" lon="12.309726098971796"><ele>436.5</ele><time>2026-04-25T14:51:48Z</time></trkpt><trkpt lat="46.26788673738538" lon="12.309920784431899"><ele>437.0</ele><time>2026-04-25T14:51:49Z</time></trkpt><trkpt lat="46.267897839514426" lon="12.310101059300838"><ele>437.6</ele><time>2026-04-25T14:51:50Z</time></trkpt><trkpt lat="46.26790802762552" lon="12.310261276217766"><ele>438.20000000000005</ele><time>2026-04-25T14:51:51Z</time></trkpt><trkpt lat="46.26791784351069" lon="12.310410551168015"><ele>438.8</ele><time>2026-04-25T14:51:52Z</time></trkpt><trkpt lat="46.26792209687975" lon="12.31055268951146"><ele>439.4</ele><time>2026-04-25T14:51:53Z</time></trkpt><trkpt lat="46.26792107783979" lon="12.31068060037037"><ele>440.0</ele><time>2026-04-25T14:51:54Z</time></trkpt><trkpt lat="46.26792723110204" lon="12.310787448233947"><ele>441.6</ele><time>2026-04-25T14:51:55Z</time></trkpt><trkpt lat="46.26801369932135" lon="12.310912258610335"><ele>443.2</ele><time>2026-04-25T14:51:57Z</time></trkpt><trkpt lat="46.26809589064188" lon="12.310928532749106"><ele>444.79999999999995</ele><time>2026-04-25T14:51:57.999Z</time></trkpt><trkpt lat="46.26819329628557" lon="12.310894919581731"><ele>446.4</ele><time>2026-04-25T14:51:58.999Z</time></trkpt><trkpt lat="46.26829874148377" lon="12.310824551667132"><ele>448.0</ele><time>2026-04-25T14:51:59.999Z</time></trkpt><trkpt lat="46.26842619858303" lon="12.31072996155492"><ele>445.33333333333337</ele><time>2026-04-25T14:52:00.999Z</time></trkpt><trkpt lat="46.268577633102396" lon="12.310641248820906"><ele>442.66666666666663</ele><time>2026-04-25T14:52:01.999Z</time></trkpt><trkpt lat="46.26874735185645" lon="12.310537979871533"><ele>440.0</ele><time>2026-04-25T14:52:02.999Z</time></trkpt><trkpt lat="46.26893829907921" lon="12.310427474860493"><ele>441.66666666666663</ele><time>2026-04-25T14:52:03.999Z</time></trkpt><trkpt lat="46.26912786319451" lon="12.310301212347383"><ele>443.33333333333337</ele><time>2026-04-25T14:52:04.999Z</time></trkpt><trkpt lat="46.26932132641154" lon="12.310176103355822"><ele>445.0</ele><time>2026-04-25T14:52:05.999Z</time></trkpt><trkpt lat="46.269518115200334" lon="12.310051528321441"><ele>445.0</ele><time>2026-04-25T14:52:06.999Z</time></trkpt><trkpt lat="46.269716662168044" lon="12.309929060315195"><ele>445.0</ele><time>2026-04-25T14:52:07.999Z</time></trkpt><trkpt lat="46.26991912954557" lon="12.309807560112132"><ele>445.0</ele><time>2026-04-25T14:52:08.999Z</time></trkpt><trkpt lat="46.27012386933707" lon="12.309687304307777"><ele>444.6666666666667</ele><time>2026-04-25T14:52:09.999Z</time></trkpt><trkpt lat="46.27033374768546" lon="12.309571342038295"><ele>444.33333333333337</ele><time>2026-04-25T14:52:10.999Z</time></trkpt><trkpt lat="46.27052861209467" lon="12.309466869217344"><ele>444.0</ele><time>2026-04-25T14:52:11.999Z</time></trkpt><trkpt lat="46.27073043117782" lon="12.309349086970503"><ele>445.0</ele><time>2026-04-25T14:52:12.999Z</time></trkpt><trkpt lat="46.27092796261976" lon="12.309226768677837"><ele>446.0</ele><time>2026-04-25T14:52:13.999Z</time></trkpt><trkpt lat="46.27110455665177" lon="12.309116794542016"><ele>447.0</ele><time>2026-04-25T14:52:14.999Z</time></trkpt><trkpt lat="46.27126566877505" lon="12.309038836862477"><ele>447.0</ele><time>2026-04-25T14:52:15.999Z</time></trkpt><trkpt lat="46.27142106391075" lon="12.309003273867718"><ele>447.0</ele><time>2026-04-25T14:52:16.999Z</time></trkpt><trkpt lat="46.271576214472255" lon="12.308995059176574"><ele>447.0</ele><time>2026-04-25T14:52:17.999Z</time></trkpt><trkpt lat="46.27173746506508" lon="12.30900776652072"><ele>450.0</ele><time>2026-04-25T14:52:18.999Z</time></trkpt><trkpt lat="46.27190997701436" lon="12.30902950833297"><ele>453.0</ele><time>2026-04-25T14:52:19.999Z</time></trkpt><trkpt lat="46.27209341265191" lon="12.309054021644698"><ele>456.0</ele><time>2026-04-25T14:52:20.999Z</time></trkpt><trkpt lat="46.272283304982224" lon="12.309073989708853"><ele>456.66666666666663</ele><time>2026-04-25T14:52:21.999Z</time></trkpt><trkpt lat="46.27248022425307" lon="12.309089308405117"><ele>457.3333333333333</ele><time>2026-04-25T14:52:22.999Z</time></trkpt><trkpt lat="46.272680464568765" lon="12.309103533241013"><ele>458.0</ele><time>2026-04-25T14:52:23.999Z</time></trkpt><trkpt lat="46.27288160288008" lon="12.30913154199502"><ele>458.0</ele><time>2026-04-25T14:52:24.999Z</time></trkpt><trkpt lat="46.2730719834154" lon="12.309147838170931"><ele>458.0</ele><time>2026-04-25T14:52:25.999Z</time></trkpt><trkpt lat="46.27327177022258" lon="12.309168247864115"><ele>458.0</ele><time>2026-04-25T14:52:26.999Z</time></trkpt><trkpt lat="46.27346637661137" lon="12.309187232178148"><ele>455.0</ele><time>2026-04-25T14:52:27.999Z</time></trkpt><trkpt lat="46.2736458086836" lon="12.309199986635907"><ele>452.0</ele><time>2026-04-25T14:52:28.999Z</time></trkpt><trkpt lat="46.273818103437314" lon="12.309179498108689"><ele>449.0</ele><time>2026-04-25T14:52:29.999Z</time></trkpt><trkpt lat="46.27399435719959" lon="12.309139456308118"><ele>447.66666666666663</ele><time>2026-04-25T14:52:30.999Z</time></trkpt><trkpt lat="46.274160853712715" lon="12.309077949228737"><ele>446.33333333333337</ele><time>2026-04-25T14:52:31.999Z</time></trkpt><trkpt lat="46.274332698909134" lon="12.309007756043794"><ele>445.0</ele><time>2026-04-25T14:52:32.999Z</time></trkpt><trkpt lat="46.274502463854525" lon="12.308919294457146"><ele>445.0</ele><time>2026-04-25T14:52:33.999Z</time></trkpt><trkpt lat="46.27467399094663" lon="12.308829355721882"><ele>445.0</ele><time>2026-04-25T14:52:34.999Z</time></trkpt><trkpt lat="46.27483545472157" lon="12.308717976916578"><ele>445.0</ele><time>2026-04-25T14:52:35.999Z</time></trkpt><trkpt lat="46.27498653995264" lon="12.308613682931517"><ele>445.0</ele><time>2026-04-25T14:52:36.999Z</time></trkpt><trkpt lat="46.27513323079939" lon="12.308524881921624"><ele>445.0</ele><time>2026-04-25T14:52:37.999Z</time></trkpt><trkpt lat="46.27526664899961" lon="12.308448799833874"><ele>445.0</ele><time>2026-04-25T14:52:38.999Z</time></trkpt><trkpt lat="46.27539734780006" lon="12.308378654047976"><ele>445.0</ele><time>2026-04-25T14:52:39.999Z</time></trkpt><trkpt lat="46.27550551279243" lon="12.308321520844878"><ele>447.5</ele><time>2026-04-25T14:52:40.999Z</time></trkpt><trkpt lat="46.27561646231602" lon="12.308274292314394"><ele>450.0</ele><time>2026-04-25T14:52:41.999Z</time></trkpt><trkpt lat="46.27573376815876" lon="12.308256991992016"><ele>452.5</ele><time>2026-04-25T14:52:42.999Z</time></trkpt><trkpt lat="46.27585006884514" lon="12.308263602624729"><ele>455.0</ele><time>2026-04-25T14:52:43.999Z</time></trkpt><trkpt lat="46.27596930639465" lon="12.308295490133958"><ele>455.0</ele><time>2026-04-25T14:52:44.999Z</time></trkpt><trkpt lat="46.27608866481628" lon="12.30835420953228"><ele>455.0</ele><time>2026-04-25T14:52:45.999Z</time></trkpt><trkpt lat="46.276202842050964" lon="12.308447400867983"><ele>455.0</ele><time>2026-04-25T14:52:46.999Z</time></trkpt><trkpt lat="46.276314044615475" lon="12.308572107069015"><ele>455.0</ele><time>2026-04-25T14:52:47.999Z</time></trkpt><trkpt lat="46.27641242147336" lon="12.308689831130813"><ele>456.0</ele><time>2026-04-25T14:52:48.999Z</time></trkpt><trkpt lat="46.27652189009992" lon="12.308829579909236"><ele>457.0</ele><time>2026-04-25T14:52:49.999Z</time></trkpt><trkpt lat="46.27663008702391" lon="12.308962200890182"><ele>458.0</ele><time>2026-04-25T14:52:51Z</time></trkpt><trkpt lat="46.27672669633446" lon="12.309072403324047"><ele>459.0</ele><time>2026-04-25T14:52:52Z</time></trkpt><trkpt lat="46.27683119330611" lon="12.309189721104158"><ele>459.0</ele><time>2026-04-25T14:52:53Z</time></trkpt><trkpt lat="46.27692369520642" lon="12.309306226606058"><ele>459.0</ele><time>2026-04-25T14:52:54Z</time></trkpt><trkpt lat="46.27700855794629" lon="12.309418821869508"><ele>459.0</ele><time>2026-04-25T14:52:55Z</time></trkpt><trkpt lat="46.27710143863565" lon="12.309524756724342"><ele>459.0</ele><time>2026-04-25T14:52:56Z</time></trkpt><trkpt lat="46.277175856809855" lon="12.309615404853545"><ele>460.25</ele><time>2026-04-25T14:52:57Z</time></trkpt><trkpt lat="46.277277798549804" lon="12.309723071998764"><ele>461.5</ele><time>2026-04-25T14:52:58Z</time></trkpt><trkpt lat="46.27738043552809" lon="12.30983313674816"><ele>462.75</ele><time>2026-04-25T14:52:59Z</time></trkpt><trkpt lat="46.27749439299704" lon="12.309952846125537"><ele>464.0</ele><time>2026-04-25T14:53:00Z</time></trkpt><trkpt lat="46.277611187246535" lon="12.31006812894697"><ele>464.0</ele><time>2026-04-25T14:53:01Z</time></trkpt><trkpt lat="46.277725185991336" lon="12.310170377660164"><ele>464.0</ele><time>2026-04-25T14:53:02Z</time></trkpt><trkpt lat="46.27784612319391" lon="12.31028200466741"><ele>464.0</ele><time>2026-04-25T14:53:03Z</time></trkpt><trkpt lat="46.277960514352884" lon="12.310379962708444"><ele>464.0</ele><time>2026-04-25T14:53:04Z</time></trkpt><trkpt lat="46.27807497036273" lon="12.31046494569173"><ele>463.5</ele><time>2026-04-25T14:53:05Z</time></trkpt><trkpt lat="46.27819193255898" lon="12.310548825866753"><ele>463.0</ele><time>2026-04-25T14:53:06Z</time></trkpt><trkpt lat="46.2783229888797" lon="12.31065038948409"><ele>462.5</ele><time>2026-04-25T14:53:07Z</time></trkpt><trkpt lat="46.2784598919111" lon="12.31072722833961"><ele>462.0</ele><time>2026-04-25T14:53:08Z</time></trkpt><trkpt lat="46.27858929270321" lon="12.310795872873623"><ele>464.5</ele><time>2026-04-25T14:53:09Z</time></trkpt><trkpt lat="46.2787209887203" lon="12.310856300739118"><ele>467.0</ele><time>2026-04-25T14:53:10Z</time></trkpt><trkpt lat="46.278850153164456" lon="12.310909907664684"><ele>469.5</ele><time>2026-04-25T14:53:11Z</time></trkpt><trkpt lat="46.27897728486218" lon="12.310965220191873"><ele>472.0</ele><time>2026-04-25T14:53:12Z</time></trkpt><trkpt lat="46.27909944636507" lon="12.311020100706246"><ele>472.75</ele><time>2026-04-25T14:53:13Z</time></trkpt><trkpt lat="46.27923085339758" lon="12.311097130911175"><ele>473.5</ele><time>2026-04-25T14:53:14Z</time></trkpt><trkpt lat="46.27935245232009" lon="12.311171254675727"><ele>474.25</ele><time>2026-04-25T14:53:15Z</time></trkpt><trkpt lat="46.27946487969296" lon="12.311239282695256"><ele>475.0</ele><time>2026-04-25T14:53:16Z</time></trkpt><trkpt lat="46.27956123496205" lon="12.311302215375614"><ele>475.00000000000006</ele><time>2026-04-25T14:53:17Z</time></trkpt><trkpt lat="46.27964038104984" lon="12.31136832967433"><ele>475.0</ele><time>2026-04-25T14:53:18Z</time></trkpt><trkpt lat="46.279702291246686" lon="12.311446640426745"><ele>475.0</ele><time>2026-04-25T14:53:19Z</time></trkpt><trkpt lat="46.27971736711049" lon="12.311545953105043"><ele>475.0</ele><time>2026-04-25T14:53:20Z</time></trkpt><trkpt lat="46.2796918374201" lon="12.311641497547077"><ele>475.00000000000006</ele><time>2026-04-25T14:53:21Z</time></trkpt><trkpt lat="46.279610309352975" lon="12.311696337924737"><ele>475.0</ele><time>2026-04-25T14:53:22Z</time></trkpt><trkpt lat="46.27951337984974" lon="12.311730488808928"><ele>478.25</ele><time>2026-04-25T14:53:23Z</time></trkpt><trkpt lat="46.2793891719366" lon="12.311765882481412"><ele>481.5</ele><time>2026-04-25T14:53:24Z</time></trkpt><trkpt lat="46.27925495587175" lon="12.311780365682159"><ele>484.75</ele><time>2026-04-25T14:53:25Z</time></trkpt><trkpt lat="46.27910813679934" lon="12.311805650773378"><ele>488.0</ele><time>2026-04-25T14:53:26Z</time></trkpt><trkpt lat="46.278963393370596" lon="12.311808261713754"><ele>489.25</ele><time>2026-04-25T14:53:27Z</time></trkpt><trkpt lat="46.2788276825677" lon="12.311772441158594"><ele>490.5</ele><time>2026-04-25T14:53:28Z</time></trkpt><trkpt lat="46.27870242892129" lon="12.311703072734732"><ele>491.75</ele><time>2026-04-25T14:53:29Z</time></trkpt><trkpt lat="46.27859845873817" lon="12.311618112042813"><ele>493.0</ele><time>2026-04-25T14:53:30Z</time></trkpt><trkpt lat="46.278502717457314" lon="12.311549145034705"><ele>493.00000000000006</ele><time>2026-04-25T14:53:31Z</time></trkpt><trkpt lat="46.278411992960876" lon="12.311519539620257"><ele>493.0</ele><time>2026-04-25T14:53:32Z</time></trkpt><trkpt lat="46.27832461657979" lon="12.31153418527775"><ele>493.0</ele><time>2026-04-25T14:53:33Z</time></trkpt><trkpt lat="46.27824742880705" lon="12.311597030091386"><ele>493.0</ele><time>2026-04-25T14:53:34Z</time></trkpt><trkpt lat="46.27820553024617" lon="12.311704482308588"><ele>493.00000000000006</ele><time>2026-04-25T14:53:35Z</time></trkpt><trkpt lat="46.27820549226838" lon="12.311825647786304"><ele>493.0</ele><time>2026-04-25T14:53:36Z</time></trkpt><trkpt lat="46.278261678864794" lon="12.311934236342028"><ele>493.0</ele><time>2026-04-25T14:53:37Z</time></trkpt><trkpt lat="46.278365831407825" lon="12.312011406144508"><ele>493.0</ele><time>2026-04-25T14:53:38Z</time></trkpt><trkpt lat="46.27849250702698" lon="12.312062076514108"><ele>493.0</ele><time>2026-04-25T14:53:39Z</time></trkpt><trkpt lat="46.278640171038695" lon="12.312119002355933"><ele>493.0</ele><time>2026-04-25T14:53:40Z</time></trkpt><trkpt lat="46.2788060196128" lon="12.312182892152554"><ele>491.33333333333337</ele><time>2026-04-25T14:53:41Z</time></trkpt><trkpt lat="46.278991232815855" lon="12.312228311025057"><ele>489.66666666666663</ele><time>2026-04-25T14:53:42Z</time></trkpt><trkpt lat="46.27919404723106" lon="12.312248937515882"><ele>488.0</ele><time>2026-04-25T14:53:43Z</time></trkpt><trkpt lat="46.2794206920096" lon="12.31227240024016"><ele>488.0</ele><time>2026-04-25T14:53:44Z</time></trkpt><trkpt lat="46.279681076071306" lon="12.312347428509863"><ele>488.0</ele><time>2026-04-25T14:53:45Z</time></trkpt><trkpt lat="46.27959549293865" lon="12.312196469665581"><ele>488.0</ele><time>2026-04-25T14:53:46Z</time></trkpt><trkpt lat="46.27977031399772" lon="12.312204558956097"><ele>487.66666666666663</ele><time>2026-04-25T14:53:47Z</time></trkpt><trkpt lat="46.27994091236403" lon="12.31222967240364"><ele>487.33333333333337</ele><time>2026-04-25T14:53:48Z</time></trkpt><trkpt lat="46.28010303041364" lon="12.3122560453879"><ele>487.0</ele><time>2026-04-25T14:53:49Z</time></trkpt><trkpt lat="46.28024922079141" lon="12.312286969751105"><ele>491.0</ele><time>2026-04-25T14:53:50Z</time></trkpt><trkpt lat="46.28042712808513" lon="12.31230413930297"><ele>495.0</ele><time>2026-04-25T14:53:51Z</time></trkpt><trkpt lat="46.28052914817951" lon="12.31232397929358"><ele>499.0</ele><time>2026-04-25T14:53:52Z</time></trkpt><trkpt lat="46.280641425612146" lon="12.312341496809493"><ele>503.0</ele><time>2026-04-25T14:53:53Z</time></trkpt><trkpt lat="46.28073839466169" lon="12.312367681654074"><ele>503.0</ele><time>2026-04-25T14:53:54Z</time></trkpt><trkpt lat="46.28082073971244" lon="12.312439247781043"><ele>502.99999999999994</ele><time>2026-04-25T14:53:55Z</time></trkpt><trkpt lat="46.280885366556745" lon="12.312561366196505"><ele>502.99999999999994</ele><time>2026-04-25T14:53:56Z</time></trkpt><trkpt lat="46.280904071781244" lon="12.312715904464214"><ele>503.0</ele><time>2026-04-25T14:53:57Z</time></trkpt><trkpt lat="46.280873785926126" lon="12.312874924078912"><ele>503.0</ele><time>2026-04-25T14:53:58Z</time></trkpt><trkpt lat="46.280794378257355" lon="12.313009157600547"><ele>511.3333333333333</ele><time>2026-04-25T14:53:59Z</time></trkpt><trkpt lat="46.28066649261885" lon="12.313094807936752"><ele>519.6666666666666</ele><time>2026-04-25T14:54:00Z</time></trkpt><trkpt lat="46.28051090768237" lon="12.313145446303317"><ele>528.0</ele><time>2026-04-25T14:54:00.999Z</time></trkpt><trkpt lat="46.28035448971581" lon="12.313237940956691"><ele>528.6666666666666</ele><time>2026-04-25T14:54:01.999Z</time></trkpt><trkpt lat="46.280158501444184" lon="12.31323293118438"><ele>529.3333333333333</ele><time>2026-04-25T14:54:02.999Z</time></trkpt><trkpt lat="46.27996043046251" lon="12.31326601707944"><ele>530.0</ele><time>2026-04-25T14:54:03.999Z</time></trkpt><trkpt lat="46.27974736664296" lon="12.313305350589872"><ele>531.0</ele><time>2026-04-25T14:54:04.999Z</time></trkpt><trkpt lat="46.27953623362226" lon="12.313349692853983"><ele>532.0</ele><time>2026-04-25T14:54:05.999Z</time></trkpt><trkpt lat="46.279318751228864" lon="12.3133841103707"><ele>533.0</ele><time>2026-04-25T14:54:06.999Z</time></trkpt><trkpt lat="46.279109492423146" lon="12.313421714977068"><ele>536.0</ele><time>2026-04-25T14:54:07.999Z</time></trkpt><trkpt lat="46.27887737688019" lon="12.313423588193247"><ele>539.0</ele><time>2026-04-25T14:54:08.999Z</time></trkpt><trkpt lat="46.27872051885187" lon="12.313455995213145"><ele>542.0</ele><time>2026-04-25T14:54:09.999Z</time></trkpt><trkpt lat="46.278578953842235" lon="12.31349461041122"><ele>542.0</ele><time>2026-04-25T14:54:10.999Z</time></trkpt><trkpt lat="46.278454131288136" lon="12.313560007024293"><ele>542.0</ele><time>2026-04-25T14:54:11.999Z</time></trkpt><trkpt lat="46.278327915209275" lon="12.313658223515807"><ele>542.0</ele><time>2026-04-25T14:54:12.999Z</time></trkpt><trkpt lat="46.27820911118807" lon="12.313782939222339"><ele>542.0</ele><time>2026-04-25T14:54:13.999Z</time></trkpt><trkpt lat="46.27809498298448" lon="12.313939420653861"><ele>541.3333333333333</ele><time>2026-04-25T14:54:14.999Z</time></trkpt><trkpt lat="46.27798533708508" lon="12.314111526463256"><ele>540.6666666666666</ele><time>2026-04-25T14:54:15.999Z</time></trkpt><trkpt lat="46.27787367216954" lon="12.314272202546427"><ele>540.0</ele><time>2026-04-25T14:54:16.999Z</time></trkpt><trkpt lat="46.277755777196454" lon="12.31441058909846"><ele>540.0</ele><time>2026-04-25T14:54:17.999Z</time></trkpt><trkpt lat="46.27761517775657" lon="12.314534035899923"><ele>540.0</ele><time>2026-04-25T14:54:18.999Z</time></trkpt><trkpt lat="46.277465632803356" lon="12.314646591444372"><ele>540.0</ele><time>2026-04-25T14:54:19.999Z</time></trkpt><trkpt lat="46.2773035746901" lon="12.314749592742695"><ele>548.3333333333334</ele><time>2026-04-25T14:54:20.999Z</time></trkpt><trkpt lat="46.27712812371012" lon="12.314863751285458"><ele>556.6666666666667</ele><time>2026-04-25T14:54:21.999Z</time></trkpt><trkpt lat="46.276954370954584" lon="12.314962555896743"><ele>565.0</ele><time>2026-04-25T14:54:22.999Z</time></trkpt><trkpt lat="46.276780778188645" lon="12.315018072831945"><ele>565.0</ele><time>2026-04-25T14:54:23.999Z</time></trkpt><trkpt lat="46.276583686961324" lon="12.315067559797438"><ele>565.0</ele><time>2026-04-25T14:54:24.999Z</time></trkpt><trkpt lat="46.276419250309814" lon="12.315075004239926"><ele>565.0</ele><time>2026-04-25T14:54:25.999Z</time></trkpt><trkpt lat="46.276239539707284" lon="12.315078331098254"><ele>565.0</ele><time>2026-04-25T14:54:26.999Z</time></trkpt><trkpt lat="46.27606689828942" lon="12.315087632911963"><ele>565.0</ele><time>2026-04-25T14:54:27.999Z</time></trkpt><trkpt lat="46.275891242913254" lon="12.315094651279269"><ele>565.0</ele><time>2026-04-25T14:54:28.999Z</time></trkpt><trkpt lat="46.275722793806274" lon="12.315111518084022"><ele>566.3333333333334</ele><time>2026-04-25T14:54:29.999Z</time></trkpt><trkpt lat="46.275552815032526" lon="12.3151235001436"><ele>567.6666666666666</ele><time>2026-04-25T14:54:30.999Z</time></trkpt><trkpt lat="46.27537860983599" lon="12.315126513726785"><ele>569.0</ele><time>2026-04-25T14:54:31.999Z</time></trkpt><trkpt lat="46.2752130124464" lon="12.31513818294344"><ele>569.0</ele><time>2026-04-25T14:54:32.999Z</time></trkpt><trkpt lat="46.275062348456956" lon="12.315147781758371"><ele>569.0</ele><time>2026-04-25T14:54:33.999Z</time></trkpt><trkpt lat="46.27490916981148" lon="12.315126031460657"><ele>569.0</ele><time>2026-04-25T14:54:34.999Z</time></trkpt><trkpt lat="46.27475727448099" lon="12.315069726625758"><ele>574.0</ele><time>2026-04-25T14:54:35.999Z</time></trkpt><trkpt lat="46.27460999180761" lon="12.314994100388512"><ele>579.0</ele><time>2026-04-25T14:54:36.999Z</time></trkpt><trkpt lat="46.27446793061938" lon="12.314897164281536"><ele>584.0</ele><time>2026-04-25T14:54:37.999Z</time></trkpt><trkpt lat="46.27433630522483" lon="12.31477555007514"><ele>582.5</ele><time>2026-04-25T14:54:38.999Z</time></trkpt><trkpt lat="46.274211295652364" lon="12.31464185291051"><ele>581.0</ele><time>2026-04-25T14:54:39.999Z</time></trkpt><trkpt lat="46.27409054830966" lon="12.314509149422134"><ele>579.5</ele><time>2026-04-25T14:54:40.999Z</time></trkpt><trkpt lat="46.273982748670974" lon="12.314391340568623"><ele>578.0</ele><time>2026-04-25T14:54:41.999Z</time></trkpt><trkpt lat="46.273881571495906" lon="12.314284643700118"><ele>578.0</ele><time>2026-04-25T14:54:42.999Z</time></trkpt><trkpt lat="46.27379338621453" lon="12.314192364880132"><ele>578.0</ele><time>2026-04-25T14:54:43.999Z</time></trkpt><trkpt lat="46.27371068205025" lon="12.314122721564473"><ele>578.0</ele><time>2026-04-25T14:54:44.999Z</time></trkpt><trkpt lat="46.273625159540984" lon="12.31408970974029"><ele>578.0</ele><time>2026-04-25T14:54:45.999Z</time></trkpt><trkpt lat="46.27353187817772" lon="12.314100884230678"><ele>578.0</ele><time>2026-04-25T14:54:46.999Z</time></trkpt><trkpt lat="46.27344167029739" lon="12.314164190724078"><ele>578.0</ele><time>2026-04-25T14:54:47.999Z</time></trkpt><trkpt lat="46.273376865054914" lon="12.314277678625368"><ele>578.0</ele><time>2026-04-25T14:54:48.999Z</time></trkpt><trkpt lat="46.273366496152065" lon="12.314441802713414"><ele>578.0</ele><time>2026-04-25T14:54:49.999Z</time></trkpt><trkpt lat="46.27339779771655" lon="12.314586063409232"><ele>578.0</ele><time>2026-04-25T14:54:50.999Z</time></trkpt><trkpt lat="46.27348773582657" lon="12.314719358699175"><ele>578.0</ele><time>2026-04-25T14:54:51.999Z</time></trkpt><trkpt lat="46.27361052650911" lon="12.314818691072041"><ele>580.0</ele><time>2026-04-25T14:54:52.999Z</time></trkpt><trkpt lat="46.273770099263096" lon="12.314898048873424"><ele>582.0</ele><time>2026-04-25T14:54:53.999Z</time></trkpt><trkpt lat="46.27392912108147" lon="12.314967308757396"><ele>584.0</ele><time>2026-04-25T14:54:54.999Z</time></trkpt><trkpt lat="46.27405576313991" lon="12.315032920218755"><ele>584.0</ele><time>2026-04-25T14:54:55.999Z</time></trkpt><trkpt lat="46.27416187232825" lon="12.315095708776795"><ele>584.0</ele><time>2026-04-25T14:54:57Z</time></trkpt><trkpt lat="46.274256613398876" lon="12.315168345792907"><ele>584.0</ele><time>2026-04-25T14:54:58Z</time></trkpt><trkpt lat="46.274328349060234" lon="12.315260700979094"><ele>584.0</ele><time>2026-04-25T14:54:59Z</time></trkpt><trkpt lat="46.2743736107756" lon="12.315381742874987"><ele>584.0</ele><time>2026-04-25T14:55:00Z</time></trkpt><trkpt lat="46.2743628649899" lon="12.315528984473561"><ele>589.75</ele><time>2026-04-25T14:55:01Z</time></trkpt><trkpt lat="46.27430139129632" lon="12.315659430761206"><ele>595.5</ele><time>2026-04-25T14:55:02Z</time></trkpt><trkpt lat="46.27419093858208" lon="12.315734884576656"><ele>601.25</ele><time>2026-04-25T14:55:03Z</time></trkpt><trkpt lat="46.27407352964595" lon="12.315731864232237"><ele>607.0</ele><time>2026-04-25T14:55:04Z</time></trkpt><trkpt lat="46.27394018023234" lon="12.315676684982735"><ele>608.0</ele><time>2026-04-25T14:55:05Z</time></trkpt><trkpt lat="46.273789895581956" lon="12.31560705091556"><ele>609.0</ele><time>2026-04-25T14:55:06Z</time></trkpt><trkpt lat="46.27362384451048" lon="12.315550759293464"><ele>610.0</ele><time>2026-04-25T14:55:07Z</time></trkpt><trkpt lat="46.27344809536009" lon="12.315511922244943"><ele>607.6666666666667</ele><time>2026-04-25T14:55:08Z</time></trkpt><trkpt lat="46.27327006506038" lon="12.3154971380634"><ele>605.3333333333334</ele><time>2026-04-25T14:55:09Z</time></trkpt><trkpt lat="46.27307853888011" lon="12.315485665288529"><ele>603.0</ele><time>2026-04-25T14:55:10Z</time></trkpt><trkpt lat="46.27289456712797" lon="12.315490802529236"><ele>603.0</ele><time>2026-04-25T14:55:11Z</time></trkpt><trkpt lat="46.27270710953271" lon="12.315502691040974"><ele>603.0</ele><time>2026-04-25T14:55:12Z</time></trkpt><trkpt lat="46.27253384778275" lon="12.315505270065701"><ele>603.0</ele><time>2026-04-25T14:55:13Z</time></trkpt><trkpt lat="46.272364786116036" lon="12.315479592602353"><ele>603.6666666666666</ele><time>2026-04-25T14:55:14Z</time></trkpt><trkpt lat="46.272196906241895" lon="12.315413471946517"><ele>604.3333333333333</ele><time>2026-04-25T14:55:15Z</time></trkpt><trkpt lat="46.27203721523288" lon="12.315331550338199"><ele>605.0</ele><time>2026-04-25T14:55:16Z</time></trkpt><trkpt lat="46.27188689132814" lon="12.315235168248709"><ele>605.0</ele><time>2026-04-25T14:55:17Z</time></trkpt><trkpt lat="46.27174832701442" lon="12.315142311534446"><ele>605.0</ele><time>2026-04-25T14:55:18Z</time></trkpt><trkpt lat="46.27161769477524" lon="12.31506845688694"><ele>605.0</ele><time>2026-04-25T14:55:19Z</time></trkpt><trkpt lat="46.271502585144866" lon="12.315003496093542"><ele>605.0</ele><time>2026-04-25T14:55:20Z</time></trkpt><trkpt lat="46.27139759047041" lon="12.3149468846901"><ele>605.8</ele><time>2026-04-25T14:55:21Z</time></trkpt><trkpt lat="46.27129236965459" lon="12.314899457733267"><ele>606.6</ele><time>2026-04-25T14:55:22Z</time></trkpt><trkpt lat="46.27119193965571" lon="12.314890797462986"><ele>607.4</ele><time>2026-04-25T14:55:23Z</time></trkpt><trkpt lat="46.27109456096778" lon="12.314931731559684"><ele>608.2</ele><time>2026-04-25T14:55:24Z</time></trkpt><trkpt lat="46.27102731997321" lon="12.315027993780209"><ele>609.0</ele><time>2026-04-25T14:55:25Z</time></trkpt><trkpt lat="46.27099447518924" lon="12.315167217756064"><ele>609.0</ele><time>2026-04-25T14:55:26Z</time></trkpt><trkpt lat="46.27100184817052" lon="12.31532155086332"><ele>609.0</ele><time>2026-04-25T14:55:27Z</time></trkpt><trkpt lat="46.27105947196278" lon="12.31545308221443"><ele>609.0</ele><time>2026-04-25T14:55:28Z</time></trkpt><trkpt lat="46.2711554134766" lon="12.315555501936027"><ele>609.0</ele><time>2026-04-25T14:55:29Z</time></trkpt><trkpt lat="46.27128754738785" lon="12.315628164028569"><ele>613.6666666666666</ele><time>2026-04-25T14:55:30Z</time></trkpt><trkpt lat="46.271440664816524" lon="12.315700009266513"><ele>618.3333333333333</ele><time>2026-04-25T14:55:31Z</time></trkpt><trkpt lat="46.27161169438131" lon="12.315787925157066"><ele>623.0</ele><time>2026-04-25T14:55:32Z</time></trkpt><trkpt lat="46.27179094099214" lon="12.315869310754547"><ele>623.0</ele><time>2026-04-25T14:55:33Z</time></trkpt><trkpt lat="46.27198012477907" lon="12.315932114049904"><ele>623.0</ele><time>2026-04-25T14:55:34Z</time></trkpt><trkpt lat="46.27215978752469" lon="12.315984197205685"><ele>623.0</ele><time>2026-04-25T14:55:35Z</time></trkpt><trkpt lat="46.27232518136946" lon="12.316032149049825"><ele>622.3333333333333</ele><time>2026-04-25T14:55:36Z</time></trkpt><trkpt lat="46.2724895718868" lon="12.316083546108448"><ele>621.6666666666666</ele><time>2026-04-25T14:55:37Z</time></trkpt><trkpt lat="46.27263937903578" lon="12.316127606275868"><ele>621.0</ele><time>2026-04-25T14:55:38Z</time></trkpt><trkpt lat="46.27279270592138" lon="12.316164400148784"><ele>621.0</ele><time>2026-04-25T14:55:39Z</time></trkpt><trkpt lat="46.272932677059785" lon="12.316250750410985"><ele>621.0</ele><time>2026-04-25T14:55:40Z</time></trkpt><trkpt lat="46.27308433229764" lon="12.316258153210129"><ele>621.0</ele><time>2026-04-25T14:55:41Z</time></trkpt><trkpt lat="46.27322642544104" lon="12.316290052815061"><ele>621.0</ele><time>2026-04-25T14:55:42Z</time></trkpt><trkpt lat="46.27336262182363" lon="12.3163272940237"><ele>622.75</ele><time>2026-04-25T14:55:43Z</time></trkpt><trkpt lat="46.27350042097635" lon="12.316361806746539"><ele>624.5</ele><time>2026-04-25T14:55:44Z</time></trkpt><trkpt lat="46.27363874513386" lon="12.316396861592757"><ele>626.25</ele><time>2026-04-25T14:55:45Z</time></trkpt><trkpt lat="46.27377171725171" lon="12.316434502508466"><ele>628.0</ele><time>2026-04-25T14:55:46Z</time></trkpt><trkpt lat="46.273904970390035" lon="12.316469406694344"><ele>629.25</ele><time>2026-04-25T14:55:47Z</time></trkpt><trkpt lat="46.27404119874958" lon="12.316506848190437"><ele>630.5</ele><time>2026-04-25T14:55:48Z</time></trkpt><trkpt lat="46.274171947945575" lon="12.316559510511768"><ele>631.75</ele><time>2026-04-25T14:55:49Z</time></trkpt><trkpt lat="46.274314416095294" lon="12.316627395921447"><ele>633.0</ele><time>2026-04-25T14:55:50Z</time></trkpt><trkpt lat="46.274455154206734" lon="12.316694484490814"><ele>633.0</ele><time>2026-04-25T14:55:51Z</time></trkpt><trkpt lat="46.27458874806982" lon="12.316775127197738"><ele>633.0</ele><time>2026-04-25T14:55:52Z</time></trkpt><trkpt lat="46.27472977674463" lon="12.316851140650154"><ele>633.0</ele><time>2026-04-25T14:55:53Z</time></trkpt><trkpt lat="46.274870468385245" lon="12.316925733802618"><ele>633.0</ele><time>2026-04-25T14:55:54Z</time></trkpt><trkpt lat="46.275012304120615" lon="12.317006709661305"><ele>633.0</ele><time>2026-04-25T14:55:55Z</time></trkpt><trkpt lat="46.27516988122986" lon="12.317057116114086"><ele>633.0</ele><time>2026-04-25T14:55:56Z</time></trkpt><trkpt lat="46.27532218132129" lon="12.317090453848225"><ele>633.0</ele><time>2026-04-25T14:55:57Z</time></trkpt><trkpt lat="46.27548149862324" lon="12.317103149254635"><ele>632.6666666666666</ele><time>2026-04-25T14:55:58Z</time></trkpt><trkpt lat="46.27563998599045" lon="12.317130238500082"><ele>632.3333333333333</ele><time>2026-04-25T14:55:59Z</time></trkpt><trkpt lat="46.275802588351404" lon="12.31716496736258"><ele>632.0</ele><time>2026-04-25T14:56:00Z</time></trkpt><trkpt lat="46.2759641214599" lon="12.317193583395031"><ele>632.0</ele><time>2026-04-25T14:56:01Z</time></trkpt><trkpt lat="46.27612542997116" lon="12.317194466285867"><ele>632.0</ele><time>2026-04-25T14:56:01.999Z</time></trkpt><trkpt lat="46.27628445289024" lon="12.317185866958356"><ele>632.0</ele><time>2026-04-25T14:56:02.999Z</time></trkpt><trkpt lat="46.27644617332411" lon="12.317178635026227"><ele>632.25</ele><time>2026-04-25T14:56:03.999Z</time></trkpt><trkpt lat="46.27660697055488" lon="12.317169231388505"><ele>632.5</ele><time>2026-04-25T14:56:04.999Z</time></trkpt><trkpt lat="46.27674177619582" lon="12.317163912446242"><ele>632.75</ele><time>2026-04-25T14:56:05.999Z</time></trkpt><trkpt lat="46.276857662568545" lon="12.3171544819132"><ele>633.0</ele><time>2026-04-25T14:56:06.999Z</time></trkpt><trkpt lat="46.2769694766388" lon="12.317150682420282"><ele>633.0</ele><time>2026-04-25T14:56:07.999Z</time></trkpt><trkpt lat="46.27706679100657" lon="12.317140254931603"><ele>633.0</ele><time>2026-04-25T14:56:08.999Z</time></trkpt><trkpt lat="46.27715967532191" lon="12.317137196762761"><ele>633.0</ele><time>2026-04-25T14:56:09.999Z</time></trkpt><trkpt lat="46.27724365094869" lon="12.317126660637841"><ele>633.0</ele><time>2026-04-25T14:56:10.999Z</time></trkpt><trkpt lat="46.277319098870905" lon="12.317110575291844"><ele>633.0</ele><time>2026-04-25T14:56:11.999Z</time></trkpt><trkpt lat="46.277411905590824" lon="12.317178531107535"><ele>639.0</ele><time>2026-04-25T14:56:13.999Z</time></trkpt><trkpt lat="46.277409073873194" lon="12.317304033739678"><ele>645.0</ele><time>2026-04-25T14:56:14.999Z</time></trkpt><trkpt lat="46.27734340746351" lon="12.317380595405064"><ele>651.0</ele><time>2026-04-25T14:56:15.999Z</time></trkpt><trkpt lat="46.27724752698908" lon="12.317414219431853"><ele>657.0</ele><time>2026-04-25T14:56:16.999Z</time></trkpt><trkpt lat="46.277146924721634" lon="12.317375525710965"><ele>663.0</ele><time>2026-04-25T14:56:17.999Z</time></trkpt><trkpt lat="46.27700474654397" lon="12.317378810604758"><ele>663.0</ele><time>2026-04-25T14:56:18.999Z</time></trkpt><trkpt lat="46.27685701530157" lon="12.317399457474473"><ele>663.0</ele><time>2026-04-25T14:56:19.999Z</time></trkpt><trkpt lat="46.27670665570122" lon="12.317418867411194"><ele>663.0</ele><time>2026-04-25T14:56:20.999Z</time></trkpt><trkpt lat="46.27655601848859" lon="12.31745012946592"><ele>661.0</ele><time>2026-04-25T14:56:21.999Z</time></trkpt><trkpt lat="46.27640673504502" lon="12.317465792655769"><ele>659.0</ele><time>2026-04-25T14:56:22.999Z</time></trkpt><trkpt lat="46.276265503285614" lon="12.317500863139317"><ele>657.0</ele><time>2026-04-25T14:56:23.999Z</time></trkpt><trkpt lat="46.276137694409044" lon="12.317537271362278"><ele>655.0</ele><time>2026-04-25T14:56:24.999Z</time></trkpt><trkpt lat="46.27601191190329" lon="12.317556958948982"><ele>655.0</ele><time>2026-04-25T14:56:25.999Z</time></trkpt><trkpt lat="46.27587472621916" lon="12.31756857452916"><ele>655.0</ele><time>2026-04-25T14:56:26.999Z</time></trkpt><trkpt lat="46.27574571688378" lon="12.317566753602595"><ele>655.0</ele><time>2026-04-25T14:56:27.999Z</time></trkpt><trkpt lat="46.27560540866616" lon="12.317552342659242"><ele>655.0</ele><time>2026-04-25T14:56:28.999Z</time></trkpt><trkpt lat="46.275467795646584" lon="12.317536248819575"><ele>653.0</ele><time>2026-04-25T14:56:29.999Z</time></trkpt><trkpt lat="46.27532320642547" lon="12.31753983703689"><ele>651.0</ele><time>2026-04-25T14:56:30.999Z</time></trkpt><trkpt lat="46.27517535754281" lon="12.31755364234558"><ele>649.0</ele><time>2026-04-25T14:56:31.999Z</time></trkpt><trkpt lat="46.27502959472402" lon="12.317555036707951"><ele>647.0</ele><time>2026-04-25T14:56:32.999Z</time></trkpt><trkpt lat="46.27488123316812" lon="12.317555574509962"><ele>647.0</ele><time>2026-04-25T14:56:33.999Z</time></trkpt><trkpt lat="46.27472759204519" lon="12.317558077344884"><ele>647.0</ele><time>2026-04-25T14:56:34.999Z</time></trkpt><trkpt lat="46.27458114817474" lon="12.317570559652793"><ele>647.0</ele><time>2026-04-25T14:56:35.999Z</time></trkpt><trkpt lat="46.27443524924073" lon="12.317580198238824"><ele>647.0</ele><time>2026-04-25T14:56:36.999Z</time></trkpt><trkpt lat="46.27429110342498" lon="12.317580333509978"><ele>647.0</ele><time>2026-04-25T14:56:37.999Z</time></trkpt><trkpt lat="46.2741395789531" lon="12.317543445983794"><ele>647.0</ele><time>2026-04-25T14:56:38.999Z</time></trkpt><trkpt lat="46.274000010117085" lon="12.317498853257955"><ele>647.0</ele><time>2026-04-25T14:56:39.999Z</time></trkpt><trkpt lat="46.273857481283365" lon="12.317450497645508"><ele>647.0</ele><time>2026-04-25T14:56:40.999Z</time></trkpt><trkpt lat="46.27371454212147" lon="12.317437527062761"><ele>647.0</ele><time>2026-04-25T14:56:41.999Z</time></trkpt><trkpt lat="46.2735662950734" lon="12.317402657019631"><ele>647.0</ele><time>2026-04-25T14:56:42.999Z</time></trkpt><trkpt lat="46.27343596266339" lon="12.317387376695056"><ele>647.0</ele><time>2026-04-25T14:56:43.999Z</time></trkpt><trkpt lat="46.273312108961896" lon="12.317374777070047"><ele>647.0</ele><time>2026-04-25T14:56:44.999Z</time></trkpt><trkpt lat="46.27318497667648" lon="12.317357277414882"><ele>649.25</ele><time>2026-04-25T14:56:45.999Z</time></trkpt><trkpt lat="46.27304648068066" lon="12.317334345294643"><ele>651.5</ele><time>2026-04-25T14:56:46.999Z</time></trkpt><trkpt lat="46.272907402919536" lon="12.31731427362588"><ele>653.75</ele><time>2026-04-25T14:56:47.999Z</time></trkpt><trkpt lat="46.272753736282425" lon="12.317279264017992"><ele>656.0</ele><time>2026-04-25T14:56:48.999Z</time></trkpt><trkpt lat="46.27251339960087" lon="12.317143736500263"><ele>656.0</ele><time>2026-04-25T14:56:49.999Z</time></trkpt><trkpt lat="46.27239255869299" lon="12.317103749974915"><ele>656.0</ele><time>2026-04-25T14:56:50.999Z</time></trkpt><trkpt lat="46.27226972267762" lon="12.317056638351646"><ele>656.0</ele><time>2026-04-25T14:56:51.999Z</time></trkpt><trkpt lat="46.2721436318987" lon="12.316996417666802"><ele>656.0</ele><time>2026-04-25T14:56:52.999Z</time></trkpt><trkpt lat="46.27200569131492" lon="12.316948878225043"><ele>660.6666666666666</ele><time>2026-04-25T14:56:53.999Z</time></trkpt><trkpt lat="46.271849597975915" lon="12.316920216655122"><ele>665.3333333333334</ele><time>2026-04-25T14:56:54.999Z</time></trkpt><trkpt lat="46.271681053099975" lon="12.316917834343936"><ele>670.0</ele><time>2026-04-25T14:56:55.999Z</time></trkpt><trkpt lat="46.27152256401833" lon="12.316930450874885"><ele>667.5</ele><time>2026-04-25T14:56:56.999Z</time></trkpt><trkpt lat="46.27137293848902" lon="12.316926004646241"><ele>665.0</ele><time>2026-04-25T14:56:57.999Z</time></trkpt><trkpt lat="46.27123597846981" lon="12.316921584928766"><ele>662.5</ele><time>2026-04-25T14:56:58.999Z</time></trkpt><trkpt lat="46.27112585992707" lon="12.3169310222477"><ele>660.0</ele><time>2026-04-25T14:56:59.999Z</time></trkpt><trkpt lat="46.271307393285525" lon="12.31717912429179"><ele>660.0</ele><time>2026-04-25T14:57:00.999Z</time></trkpt><trkpt lat="46.271243179800784" lon="12.31721478185574"><ele>660.0</ele><time>2026-04-25T14:57:01.999Z</time></trkpt><trkpt lat="46.27117571333201" lon="12.317214032280814"><ele>660.0</ele><time>2026-04-25T14:57:03Z</time></trkpt><trkpt lat="46.2710655124994" lon="12.317237780382309"><ele>660.0</ele><time>2026-04-25T14:57:05Z</time></trkpt><trkpt lat="46.27096881838305" lon="12.317274101114272"><ele>660.0</ele><time>2026-04-25T14:57:07Z</time></trkpt><trkpt lat="46.270859377292275" lon="12.31730278536054"><ele>669.2</ele><time>2026-04-25T14:57:09Z</time></trkpt><trkpt lat="46.27075134004022" lon="12.317337220737889"><ele>678.4</ele><time>2026-04-25T14:57:11Z</time></trkpt><trkpt lat="46.27067628422526" lon="12.317341514470746"><ele>687.5999999999999</ele><time>2026-04-25T14:57:12Z</time></trkpt><trkpt lat="46.270575906865936" lon="12.317384520692388"><ele>696.8</ele><time>2026-04-25T14:57:14Z</time></trkpt><trkpt lat="46.270511400842985" lon="12.317385818120975"><ele>706.0</ele><time>2026-04-25T14:57:15Z</time></trkpt><trkpt lat="46.27040828576474" lon="12.317403400847727"><ele>706.0</ele><time>2026-04-25T14:57:17Z</time></trkpt><trkpt lat="46.270347515668284" lon="12.317438391496271"><ele>706.0</ele><time>2026-04-25T14:57:19Z</time></trkpt><trkpt lat="46.27026066881476" lon="12.317453293936735"><ele>706.0</ele><time>2026-04-25T14:57:23Z</time></trkpt><trkpt lat="46.27016974948741" lon="12.317440723466692"><ele>706.0</ele><time>2026-04-25T14:57:26Z</time></trkpt><trkpt lat="46.270101657270864" lon="12.317388421672591"><ele>706.0</ele><time>2026-04-25T14:58:20.999Z</time></trkpt><trkpt lat="46.27014181801204" lon="12.317461130847473"><ele>706.0</ele><time>2026-04-25T14:59:01.999Z</time></trkpt><trkpt lat="46.2700254043133" lon="12.317411567490016"><ele>706.0</ele><time>2026-04-25T15:01:53Z</time></trkpt><trkpt lat="46.269949337485656" lon="12.31743704731226"><ele>706.0</ele><time>2026-04-25T15:01:54Z</time></trkpt><trkpt lat="46.26986994915335" lon="12.317486807441604"><ele>706.0</ele><time>2026-04-25T15:01:55Z</time></trkpt><trkpt lat="46.26982329401826" lon="12.317558313464948"><ele>706.0</ele><time>2026-04-25T15:01:56Z</time></trkpt><trkpt lat="46.269761230094886" lon="12.317637103039573"><ele>706.0</ele><time>2026-04-25T15:01:57Z</time></trkpt><trkpt lat="46.26970276700077" lon="12.317727567749339"><ele>706.0</ele><time>2026-04-25T15:01:58Z</time></trkpt><trkpt lat="46.26964606319331" lon="12.317823179246668"><ele>709.1999999999999</ele><time>2026-04-25T15:01:59Z</time></trkpt><trkpt lat="46.2695846727448" lon="12.31791797909701"><ele>712.4</ele><time>2026-04-25T15:02:00.012Z</time></trkpt><trkpt lat="46.26951624129267" lon="12.31800932096943"><ele>715.6</ele><time>2026-04-25T15:02:01.016Z</time></trkpt><trkpt lat="46.26943097523239" lon="12.318093706755315"><ele>718.8</ele><time>2026-04-25T15:02:02.015Z</time></trkpt><trkpt lat="46.26932849177031" lon="12.318167411713345"><ele>722.0</ele><time>2026-04-25T15:02:03.015Z</time></trkpt><trkpt lat="46.26922535830586" lon="12.318239291120305"><ele>722.0</ele><time>2026-04-25T15:02:04.016Z</time></trkpt><trkpt lat="46.26737779010671" lon="12.32461681590632"><ele>722.0</ele><time>2026-04-25T15:02:41.999Z</time></trkpt><trkpt lat="46.267420495058396" lon="12.324749104135554"><ele>722.0</ele><time>2026-04-25T15:02:42.999Z</time></trkpt><trkpt lat="46.2675213803777" lon="12.325001705788779"><ele>722.0</ele><time>2026-04-25T15:02:43.999Z</time></trkpt><trkpt lat="46.26763240896912" lon="12.325051010697083"><ele>722.0</ele><time>2026-04-25T15:02:44.999Z</time></trkpt><trkpt lat="46.267726183664834" lon="12.325061892106389"><ele>722.0</ele><time>2026-04-25T15:02:45.999Z</time></trkpt><trkpt lat="46.2678255411796" lon="12.325080192631374"><ele>722.0</ele><time>2026-04-25T15:02:46.999Z</time></trkpt><trkpt lat="46.26791996900195" lon="12.325134709929698"><ele>722.0</ele><time>2026-04-25T15:02:47.999Z</time></trkpt><trkpt lat="46.268006080926824" lon="12.325222824967693"><ele>722.0</ele><time>2026-04-25T15:02:48.999Z</time></trkpt><trkpt lat="46.26807906078385" lon="12.325349114407594"><ele>722.0</ele><time>2026-04-25T15:02:50.016Z</time></trkpt><trkpt lat="46.26812849707442" lon="12.325498245048562"><ele>722.0</ele><time>2026-04-25T15:02:51.015Z</time></trkpt><trkpt lat="46.26814990316455" lon="12.325649416436818"><ele>722.0</ele><time>2026-04-25T15:02:52.015Z</time></trkpt><trkpt lat="46.26813502925657" lon="12.325815683114275"><ele>722.0</ele><time>2026-04-25T15:02:53.016Z</time></trkpt><trkpt lat="46.268107669817546" lon="12.325980702061262"><ele>722.0</ele><time>2026-04-25T15:02:54.016Z</time></trkpt><trkpt lat="46.26808126978911" lon="12.326147035536096"><ele>725.0</ele><time>2026-04-25T15:02:55.016Z</time></trkpt><trkpt lat="46.268476129519144" lon="12.330188347554865"><ele>725.0</ele><time>2026-04-25T15:03:14.999Z</time></trkpt><trkpt lat="46.268570212227246" lon="12.330269803516947"><ele>725.0</ele><time>2026-04-25T15:03:15.999Z</time></trkpt><trkpt lat="46.26867180615462" lon="12.330350929146771"><ele>725.0</ele><time>2026-04-25T15:03:16.999Z</time></trkpt><trkpt lat="46.26876292888759" lon="12.330450298363058"><ele>725.0</ele><time>2026-04-25T15:03:17.999Z</time></trkpt><trkpt lat="46.268844516139296" lon="12.330571129589112"><ele>722.75</ele><time>2026-04-25T15:03:18.999Z</time></trkpt><trkpt lat="46.2689230529318" lon="12.330709679966773"><ele>720.5</ele><time>2026-04-25T15:03:19.999Z</time></trkpt><trkpt lat="46.268990672648876" lon="12.330857593415606"><ele>718.25</ele><time>2026-04-25T15:03:21Z</time></trkpt><trkpt lat="46.26905738802454" lon="12.331020556408436"><ele>716.0</ele><time>2026-04-25T15:03:22Z</time></trkpt><trkpt lat="46.26912377893255" lon="12.331196066898777"><ele>722.5</ele><time>2026-04-25T15:03:23Z</time></trkpt><trkpt lat="46.26918578086613" lon="12.331378815039654"><ele>729.0</ele><time>2026-04-25T15:03:24Z</time></trkpt><trkpt lat="46.269245814380554" lon="12.331552360256806"><ele>735.5</ele><time>2026-04-25T15:03:25Z</time></trkpt><trkpt lat="46.26930057497491" lon="12.331717073765097"><ele>742.0</ele><time>2026-04-25T15:03:26Z</time></trkpt><trkpt lat="46.269353592519614" lon="12.331874334575806"><ele>742.0</ele><time>2026-04-25T15:03:27Z</time></trkpt><trkpt lat="46.269403230241856" lon="12.332034259360016"><ele>742.0</ele><time>2026-04-25T15:03:28Z</time></trkpt><trkpt lat="46.26943873429463" lon="12.332208042492063"><ele>742.0</ele><time>2026-04-25T15:03:29Z</time></trkpt><trkpt lat="46.26946303911825" lon="12.33239284925237"><ele>742.0</ele><time>2026-04-25T15:03:30Z</time></trkpt><trkpt lat="46.26947715366208" lon="12.332584921656695"><ele>741.0</ele><time>2026-04-25T15:03:31Z</time></trkpt><trkpt lat="46.2694727056671" lon="12.332782779764424"><ele>740.0</ele><time>2026-04-25T15:03:32Z</time></trkpt><trkpt lat="46.269456338979076" lon="12.332976117802199"><ele>739.0</ele><time>2026-04-25T15:03:33Z</time></trkpt><trkpt lat="46.26943423031717" lon="12.333141125461465"><ele>738.0</ele><time>2026-04-25T15:03:34Z</time></trkpt><trkpt lat="46.26942278206583" lon="12.333295245481173"><ele>738.0</ele><time>2026-04-25T15:03:35Z</time></trkpt><trkpt lat="46.26944520074941" lon="12.333418879893467"><ele>738.0</ele><time>2026-04-25T15:03:36Z</time></trkpt><trkpt lat="46.26950213887575" lon="12.33351057831317"><ele>738.0</ele><time>2026-04-25T15:03:37Z</time></trkpt><trkpt lat="46.269588044453926" lon="12.333572385912701"><ele>738.0</ele><time>2026-04-25T15:03:38Z</time></trkpt><trkpt lat="46.2697023339134" lon="12.333599115492083"><ele>738.0</ele><time>2026-04-25T15:03:39Z</time></trkpt><trkpt lat="46.2698159391923" lon="12.333589049346283"><ele>747.2</ele><time>2026-04-25T15:03:40Z</time></trkpt><trkpt lat="46.26991270714458" lon="12.333674236503052"><ele>756.4</ele><time>2026-04-25T15:03:41Z</time></trkpt><trkpt lat="46.26999732615979" lon="12.333753183933451"><ele>765.6</ele><time>2026-04-25T15:03:42Z</time></trkpt><trkpt lat="46.2700571165537" lon="12.333864769804864"><ele>774.8000000000001</ele><time>2026-04-25T15:03:43Z</time></trkpt><trkpt lat="46.27008026813667" lon="12.334005264593653"><ele>784.0</ele><time>2026-04-25T15:03:44Z</time></trkpt><trkpt lat="46.27006158998315" lon="12.334159568496482"><ele>785.0</ele><time>2026-04-25T15:03:45Z</time></trkpt><trkpt lat="46.27002862159606" lon="12.334327606238764"><ele>786.0</ele><time>2026-04-25T15:03:46Z</time></trkpt><trkpt lat="46.26998885832186" lon="12.334504945843875"><ele>787.0</ele><time>2026-04-25T15:03:47Z</time></trkpt><trkpt lat="46.26994042575133" lon="12.33469129380767"><ele>788.0</ele><time>2026-04-25T15:03:48Z</time></trkpt><trkpt lat="46.269890353069975" lon="12.334878734343793"><ele>791.5</ele><time>2026-04-25T15:03:49Z</time></trkpt><trkpt lat="46.26982475514194" lon="12.335051246467932"><ele>795.0</ele><time>2026-04-25T15:03:50Z</time></trkpt><trkpt lat="46.26973781410155" lon="12.335193455894181"><ele>798.5</ele><time>2026-04-25T15:03:51Z</time></trkpt><trkpt lat="46.26963106705592" lon="12.335313756337277"><ele>802.0</ele><time>2026-04-25T15:03:52Z</time></trkpt><trkpt lat="46.269503319793195" lon="12.335400816066556"><ele>796.5</ele><time>2026-04-25T15:03:53Z</time></trkpt><trkpt lat="46.26936341630311" lon="12.335458527010543"><ele>791.0</ele><time>2026-04-25T15:03:54Z</time></trkpt><trkpt lat="46.269219559759335" lon="12.335496894033602"><ele>785.5</ele><time>2026-04-25T15:03:55Z</time></trkpt><trkpt lat="46.26908351639116" lon="12.335554804819235"><ele>780.0</ele><time>2026-04-25T15:03:56Z</time></trkpt><trkpt lat="46.268955094613375" lon="12.335660856963926"><ele>776.75</ele><time>2026-04-25T15:03:57Z</time></trkpt><trkpt lat="46.26885239662044" lon="12.33579811897305"><ele>773.5</ele><time>2026-04-25T15:03:58Z</time></trkpt><trkpt lat="46.26875743327293" lon="12.335968447824204"><ele>770.25</ele><time>2026-04-25T15:03:59Z</time></trkpt><trkpt lat="46.26869473801486" lon="12.336162218396419"><ele>767.0</ele><time>2026-04-25T15:04:00Z</time></trkpt><trkpt lat="46.26865485589575" lon="12.336370131210238"><ele>771.6666666666666</ele><time>2026-04-25T15:04:01Z</time></trkpt><trkpt lat="46.268655314187654" lon="12.336591309499894"><ele>776.3333333333333</ele><time>2026-04-25T15:04:02Z</time></trkpt><trkpt lat="46.26867375030526" lon="12.336824625655831"><ele>781.0</ele><time>2026-04-25T15:04:03Z</time></trkpt><trkpt lat="46.26871807935075" lon="12.337037806852475"><ele>784.0</ele><time>2026-04-25T15:04:04Z</time></trkpt><trkpt lat="46.26879141932906" lon="12.33723628414621"><ele>787.0</ele><time>2026-04-25T15:04:05Z</time></trkpt><trkpt lat="46.268886850605455" lon="12.337427817108855"><ele>790.0</ele><time>2026-04-25T15:04:06Z</time></trkpt><trkpt lat="46.26898936053415" lon="12.337639293566067"><ele>791.3333333333333</ele><time>2026-04-25T15:04:07Z</time></trkpt><trkpt lat="46.26908620936755" lon="12.337857363665226"><ele>792.6666666666667</ele><time>2026-04-25T15:04:08Z</time></trkpt><trkpt lat="46.269172395908846" lon="12.338031247473506"><ele>794.0</ele><time>2026-04-25T15:04:09Z</time></trkpt><trkpt lat="46.269281032893964" lon="12.338207766889015"><ele>794.0</ele><time>2026-04-25T15:04:10Z</time></trkpt><trkpt lat="46.26941426995892" lon="12.338364628415261"><ele>794.0</ele><time>2026-04-25T15:04:11Z</time></trkpt><trkpt lat="46.269523979787145" lon="12.338538893069735"><ele>794.0</ele><time>2026-04-25T15:04:12Z</time></trkpt><trkpt lat="46.269625386016166" lon="12.338708986423072"><ele>794.0</ele><time>2026-04-25T15:04:13Z</time></trkpt><trkpt lat="46.26972449230681" lon="12.338878548801814"><ele>794.0</ele><time>2026-04-25T15:04:14Z</time></trkpt><trkpt lat="46.269820898502566" lon="12.339041342295124"><ele>794.0</ele><time>2026-04-25T15:04:15Z</time></trkpt><trkpt lat="46.269912891687696" lon="12.339190992195906"><ele>794.0</ele><time>2026-04-25T15:04:16Z</time></trkpt><trkpt lat="46.26999033073413" lon="12.339344045007115"><ele>794.75</ele><time>2026-04-25T15:04:17Z</time></trkpt><trkpt lat="46.27004909713454" lon="12.339506757533902"><ele>795.5</ele><time>2026-04-25T15:04:18Z</time></trkpt><trkpt lat="46.27008214539291" lon="12.339691658672526"><ele>796.25</ele><time>2026-04-25T15:04:19Z</time></trkpt><trkpt lat="46.27008982712018" lon="12.339913857977882"><ele>797.0</ele><time>2026-04-25T15:04:20Z</time></trkpt><trkpt lat="46.270085234166615" lon="12.34015437912356"><ele>797.0</ele><time>2026-04-25T15:04:21Z</time></trkpt><trkpt lat="46.27006241518524" lon="12.340397953961439"><ele>797.0</ele><time>2026-04-25T15:04:22Z</time></trkpt><trkpt lat="46.27006991317778" lon="12.340671634491772"><ele>797.0</ele><time>2026-04-25T15:04:23Z</time></trkpt><trkpt lat="46.27007735842813" lon="12.340915655630702"><ele>799.6666666666667</ele><time>2026-04-25T15:04:24Z</time></trkpt><trkpt lat="46.27006707736737" lon="12.341152831820681"><ele>802.3333333333333</ele><time>2026-04-25T15:04:25Z</time></trkpt><trkpt lat="46.270055629248475" lon="12.341385157038284"><ele>805.0</ele><time>2026-04-25T15:04:26Z</time></trkpt><trkpt lat="46.27004179385425" lon="12.341615417718769"><ele>807.0</ele><time>2026-04-25T15:04:27Z</time></trkpt><trkpt lat="46.27002793925714" lon="12.34185384834138"><ele>809.0</ele><time>2026-04-25T15:04:28Z</time></trkpt><trkpt lat="46.2700130447258" lon="12.342100608053656"><ele>811.0</ele><time>2026-04-25T15:04:29Z</time></trkpt><trkpt lat="46.26999083395001" lon="12.34235830145706"><ele>812.0</ele><time>2026-04-25T15:04:29.999Z</time></trkpt><trkpt lat="46.2699611457523" lon="12.342622123726636"><ele>813.0</ele><time>2026-04-25T15:04:30.999Z</time></trkpt><trkpt lat="46.269923472675494" lon="12.342878434160404"><ele>814.0</ele><time>2026-04-25T15:04:31.999Z</time></trkpt><trkpt lat="46.26987705924317" lon="12.343140505253649"><ele>814.0</ele><time>2026-04-25T15:04:32.999Z</time></trkpt><trkpt lat="46.26983818419023" lon="12.343417511436868"><ele>814.0</ele><time>2026-04-25T15:04:33.999Z</time></trkpt><trkpt lat="46.269797642466564" lon="12.34369953848273"><ele>814.0</ele><time>2026-04-25T15:04:34.999Z</time></trkpt><trkpt lat="46.269772049879535" lon="12.343955570065553"><ele>811.6666666666666</ele><time>2026-04-25T15:04:35.999Z</time></trkpt><trkpt lat="46.269739567520894" lon="12.344215869907533"><ele>809.3333333333333</ele><time>2026-04-25T15:04:36.999Z</time></trkpt><trkpt lat="46.26970229940971" lon="12.344476330910647"><ele>807.0</ele><time>2026-04-25T15:04:37.999Z</time></trkpt><trkpt lat="46.269667847735214" lon="12.344760433246543"><ele>803.6666666666667</ele><time>2026-04-25T15:04:38.999Z</time></trkpt><trkpt lat="46.26959494651176" lon="12.344911760217954"><ele>800.3333333333334</ele><time>2026-04-25T15:04:39.999Z</time></trkpt><trkpt lat="46.269554054548415" lon="12.3451564740949"><ele>797.0</ele><time>2026-04-25T15:04:40.999Z</time></trkpt><trkpt lat="46.26951346800803" lon="12.345395085302618"><ele>798.0</ele><time>2026-04-25T15:04:41.999Z</time></trkpt><trkpt lat="46.2694744244411" lon="12.345625628261532"><ele>799.0</ele><time>2026-04-25T15:04:42.999Z</time></trkpt><trkpt lat="46.26943172110455" lon="12.345847132227838"><ele>800.0</ele><time>2026-04-25T15:04:43.999Z</time></trkpt><trkpt lat="46.26938112392121" lon="12.346061786765778"><ele>800.0</ele><time>2026-04-25T15:04:44.999Z</time></trkpt><trkpt lat="46.26932723881802" lon="12.346269683094341"><ele>800.0</ele><time>2026-04-25T15:04:45.999Z</time></trkpt><trkpt lat="46.26926567555737" lon="12.346471995345594"><ele>800.0</ele><time>2026-04-25T15:04:46.999Z</time></trkpt><trkpt lat="46.26920165196292" lon="12.346668280173516"><ele>802.75</ele><time>2026-04-25T15:04:47.999Z</time></trkpt><trkpt lat="46.26913879352163" lon="12.34686620379772"><ele>805.5</ele><time>2026-04-25T15:04:48.999Z</time></trkpt><trkpt lat="46.26907566491594" lon="12.3470565195991"><ele>808.25</ele><time>2026-04-25T15:04:49.999Z</time></trkpt><trkpt lat="46.269008465644454" lon="12.347241247937458"><ele>811.0</ele><time>2026-04-25T15:04:50.999Z</time></trkpt><trkpt lat="46.26894309309177" lon="12.347414113413809"><ele>812.5</ele><time>2026-04-25T15:04:51.999Z</time></trkpt><trkpt lat="46.26887555150698" lon="12.347562747038124"><ele>814.0</ele><time>2026-04-25T15:04:52.999Z</time></trkpt><trkpt lat="46.268805634287645" lon="12.34769974381574"><ele>815.5</ele><time>2026-04-25T15:04:53.999Z</time></trkpt><trkpt lat="46.26874669457088" lon="12.347827631669658"><ele>817.0</ele><time>2026-04-25T15:04:54.999Z</time></trkpt><trkpt lat="46.2687055184064" lon="12.34797095219233"><ele>810.5</ele><time>2026-04-25T15:04:55.999Z</time></trkpt><trkpt lat="46.26869030094146" lon="12.34813568912162"><ele>804.0</ele><time>2026-04-25T15:04:56.999Z</time></trkpt><trkpt lat="46.268700568182375" lon="12.348316156943714"><ele>797.5</ele><time>2026-04-25T15:04:57.999Z</time></trkpt><trkpt lat="46.26874512310237" lon="12.348495729004416"><ele>791.0</ele><time>2026-04-25T15:04:58.999Z</time></trkpt><trkpt lat="46.268823876239914" lon="12.348682563620082"><ele>791.0</ele><time>2026-04-25T15:04:59.999Z</time></trkpt><trkpt lat="46.26891463667996" lon="12.34887216456861"><ele>791.0</ele><time>2026-04-25T15:05:00.999Z</time></trkpt><trkpt lat="46.269002135639" lon="12.349075620345063"><ele>791.0</ele><time>2026-04-25T15:05:01.999Z</time></trkpt><trkpt lat="46.26906829301841" lon="12.349297980564714"><ele>796.3333333333334</ele><time>2026-04-25T15:05:02.999Z</time></trkpt><trkpt lat="46.26912481366898" lon="12.349532588787671"><ele>801.6666666666667</ele><time>2026-04-25T15:05:03.999Z</time></trkpt><trkpt lat="46.269174336773496" lon="12.349773492560622"><ele>807.0</ele><time>2026-04-25T15:05:04.999Z</time></trkpt><trkpt lat="46.26921619861573" lon="12.35000399629022"><ele>807.0</ele><time>2026-04-25T15:05:05.999Z</time></trkpt><trkpt lat="46.269256834088644" lon="12.350218411555993"><ele>807.0</ele><time>2026-04-25T15:05:06.999Z</time></trkpt><trkpt lat="46.26929417498574" lon="12.350422312998306"><ele>807.0</ele><time>2026-04-25T15:05:07.999Z</time></trkpt><trkpt lat="46.269331595783406" lon="12.350619555295404"><ele>807.0</ele><time>2026-04-25T15:05:08.999Z</time></trkpt><trkpt lat="46.26936785993568" lon="12.350814879768645"><ele>804.75</ele><time>2026-04-25T15:05:09.999Z</time></trkpt><trkpt lat="46.269402355038636" lon="12.351008511495111"><ele>802.5</ele><time>2026-04-25T15:05:10.999Z</time></trkpt><trkpt lat="46.26942956973105" lon="12.351206059142466"><ele>800.25</ele><time>2026-04-25T15:05:11.999Z</time></trkpt><trkpt lat="46.269437230477486" lon="12.351417535353104"><ele>798.0</ele><time>2026-04-25T15:05:12.999Z</time></trkpt><trkpt lat="46.26943142419123" lon="12.35164106840332"><ele>798.3333333333333</ele><time>2026-04-25T15:05:13.999Z</time></trkpt><trkpt lat="46.26940873481422" lon="12.351869002101838"><ele>798.6666666666666</ele><time>2026-04-25T15:05:14.999Z</time></trkpt><trkpt lat="46.26937835955832" lon="12.352084657025632"><ele>799.0</ele><time>2026-04-25T15:05:15.999Z</time></trkpt><trkpt lat="46.26934677327465" lon="12.352288913826849"><ele>799.0</ele><time>2026-04-25T15:05:16.999Z</time></trkpt><trkpt lat="46.269315231939096" lon="12.352480210627663"><ele>799.0</ele><time>2026-04-25T15:05:17.999Z</time></trkpt><trkpt lat="46.26928571675963" lon="12.352660774345722"><ele>799.0</ele><time>2026-04-25T15:05:18.999Z</time></trkpt><trkpt lat="46.26926546757638" lon="12.352839934491856"><ele>799.0</ele><time>2026-04-25T15:05:19.999Z</time></trkpt><trkpt lat="46.269272803743974" lon="12.353016674070847"><ele>795.75</ele><time>2026-04-25T15:05:20.999Z</time></trkpt><trkpt lat="46.26931787508345" lon="12.353173905327484"><ele>792.5</ele><time>2026-04-25T15:05:21.999Z</time></trkpt><trkpt lat="46.269397271524845" lon="12.353315077491162"><ele>789.25</ele><time>2026-04-25T15:05:22.999Z</time></trkpt><trkpt lat="46.269504733834616" lon="12.353416459200607"><ele>786.0</ele><time>2026-04-25T15:05:23.999Z</time></trkpt><trkpt lat="46.26963149497353" lon="12.35348765304096"><ele>786.0</ele><time>2026-04-25T15:05:24.999Z</time></trkpt><trkpt lat="46.269770586141426" lon="12.353546151365867"><ele>786.0</ele><time>2026-04-25T15:05:25.999Z</time></trkpt><trkpt lat="46.26991906855618" lon="12.353618362293338"><ele>786.0</ele><time>2026-04-25T15:05:27Z</time></trkpt><trkpt lat="46.27005427606155" lon="12.35372672455493"><ele>788.25</ele><time>2026-04-25T15:05:28Z</time></trkpt><trkpt lat="46.27015941055691" lon="12.353875971596574"><ele>790.5</ele><time>2026-04-25T15:05:29Z</time></trkpt><trkpt lat="46.27022154750128" lon="12.354067961550355"><ele>792.75</ele><time>2026-04-25T15:05:30Z</time></trkpt><trkpt lat="46.270261305458035" lon="12.354263732607183"><ele>795.0</ele><time>2026-04-25T15:05:31Z</time></trkpt><trkpt lat="46.270298120118376" lon="12.354455923661602"><ele>795.0</ele><time>2026-04-25T15:05:32Z</time></trkpt><trkpt lat="46.27034246429673" lon="12.354649788578035"><ele>795.0</ele><time>2026-04-25T15:05:33Z</time></trkpt><trkpt lat="46.27040525028104" lon="12.354843259931553"><ele>795.0</ele><time>2026-04-25T15:05:34Z</time></trkpt><trkpt lat="46.27047225163238" lon="12.355038910818239"><ele>795.0</ele><time>2026-04-25T15:05:35Z</time></trkpt><trkpt lat="46.27054607469208" lon="12.355236041608189"><ele>797.5</ele><time>2026-04-25T15:05:36Z</time></trkpt><trkpt lat="46.2706224861017" lon="12.355417713045105"><ele>800.0</ele><time>2026-04-25T15:05:37Z</time></trkpt><trkpt lat="46.27070124284496" lon="12.355584451679192"><ele>802.5</ele><time>2026-04-25T15:05:38Z</time></trkpt><trkpt lat="46.27077482723453" lon="12.355749435906398"><ele>805.0</ele><time>2026-04-25T15:05:39Z</time></trkpt><trkpt lat="46.27083926412894" lon="12.355924712950506"><ele>805.0</ele><time>2026-04-25T15:05:40Z</time></trkpt><trkpt lat="46.27089177337898" lon="12.35611214878993"><ele>805.0</ele><time>2026-04-25T15:05:41Z</time></trkpt><trkpt lat="46.27092173674693" lon="12.35631547769984"><ele>805.0</ele><time>2026-04-25T15:05:42Z</time></trkpt><trkpt lat="46.27093473017147" lon="12.356522906174979"><ele>805.0</ele><time>2026-04-25T15:05:43Z</time></trkpt><trkpt lat="46.270939053550585" lon="12.356725063341507"><ele>801.0</ele><time>2026-04-25T15:05:44Z</time></trkpt><trkpt lat="46.27076406913619" lon="12.357002686536354"><ele>797.0</ele><time>2026-04-25T15:05:45Z</time></trkpt><trkpt lat="46.27111918259462" lon="12.356831335500653"><ele>797.0</ele><time>2026-04-25T15:05:46Z</time></trkpt><trkpt lat="46.27116897683296" lon="12.356983497250555"><ele>797.0</ele><time>2026-04-25T15:05:47Z</time></trkpt><trkpt lat="46.27122702896753" lon="12.357146074404966"><ele>797.0</ele><time>2026-04-25T15:05:48Z</time></trkpt><trkpt lat="46.27129242584337" lon="12.357374447143329"><ele>797.0</ele><time>2026-04-25T15:05:49Z</time></trkpt><trkpt lat="46.27135911187614" lon="12.357617044101145"><ele>795.0</ele><time>2026-04-25T15:05:50Z</time></trkpt><trkpt lat="46.27141682306116" lon="12.357792422529021"><ele>793.0</ele><time>2026-04-25T15:05:51Z</time></trkpt><trkpt lat="46.27138506697405" lon="12.358099347668047"><ele>791.0</ele><time>2026-04-25T15:05:52Z</time></trkpt><trkpt lat="46.27144872098759" lon="12.358291122423694"><ele>797.6666666666667</ele><time>2026-04-25T15:05:53Z</time></trkpt><trkpt lat="46.2715059734359" lon="12.358481427112675"><ele>804.3333333333333</ele><time>2026-04-25T15:05:54Z</time></trkpt><trkpt lat="46.27149108560449" lon="12.35875093564093"><ele>811.0</ele><time>2026-04-25T15:05:55Z</time></trkpt><trkpt lat="46.27144177106591" lon="12.359009154963053"><ele>792.0</ele><time>2026-04-25T15:05:56Z</time></trkpt><trkpt lat="46.27133068956519" lon="12.359615449101517"><ele>773.0</ele><time>2026-04-25T15:05:57Z</time></trkpt><trkpt lat="46.27130645264858" lon="12.359862969446896"><ele>771.5</ele><time>2026-04-25T15:05:58Z</time></trkpt><trkpt lat="46.27129458131242" lon="12.360082158006236"><ele>770.0</ele><time>2026-04-25T15:05:59Z</time></trkpt><trkpt lat="46.271277799423004" lon="12.360290107101294"><ele>768.5</ele><time>2026-04-25T15:06:00Z</time></trkpt><trkpt lat="46.27125958839585" lon="12.360483012168231"><ele>767.0</ele><time>2026-04-25T15:06:01Z</time></trkpt><trkpt lat="46.271235862019005" lon="12.360667301950269"><ele>767.0</ele><time>2026-04-25T15:06:02Z</time></trkpt><trkpt lat="46.27118853941563" lon="12.360838916459446"><ele>767.0</ele><time>2026-04-25T15:06:03Z</time></trkpt><trkpt lat="46.27113397214499" lon="12.36097654906952"><ele>767.0</ele><time>2026-04-25T15:06:04Z</time></trkpt><trkpt lat="46.27107864660929" lon="12.361081909994375"><ele>767.0</ele><time>2026-04-25T15:06:05Z</time></trkpt><trkpt lat="46.271018866897435" lon="12.361184101314036"><ele>767.0</ele><time>2026-04-25T15:06:06Z</time></trkpt><trkpt lat="46.27097700637035" lon="12.361295834736419"><ele>767.6</ele><time>2026-04-25T15:06:07Z</time></trkpt><trkpt lat="46.2709481973685" lon="12.361418038050662"><ele>768.2</ele><time>2026-04-25T15:06:08Z</time></trkpt><trkpt lat="46.27092400231782" lon="12.36154599562917"><ele>768.8</ele><time>2026-04-25T15:06:09Z</time></trkpt><trkpt lat="46.27090096731507" lon="12.361679111888238"><ele>769.4</ele><time>2026-04-25T15:06:10Z</time></trkpt><trkpt lat="46.2708832241847" lon="12.361823543343556"><ele>770.0</ele><time>2026-04-25T15:06:11Z</time></trkpt><trkpt lat="46.27087290475279" lon="12.361979522871133"><ele>770.0</ele><time>2026-04-25T15:06:12Z</time></trkpt><trkpt lat="46.27087283637841" lon="12.362139812180846"><ele>770.0</ele><time>2026-04-25T15:06:13Z</time></trkpt><trkpt lat="46.27088817795637" lon="12.362298236086968"><ele>770.0</ele><time>2026-04-25T15:06:14Z</time></trkpt><trkpt lat="46.27092316753154" lon="12.362449116093524"><ele>770.0</ele><time>2026-04-25T15:06:15Z</time></trkpt><trkpt lat="46.27098035072734" lon="12.3625810133076"><ele>770.0</ele><time>2026-04-25T15:06:16Z</time></trkpt><trkpt lat="46.27106476596946" lon="12.362676546663044"><ele>768.75</ele><time>2026-04-25T15:06:17Z</time></trkpt><trkpt lat="46.2711765838434" lon="12.362740168274158"><ele>767.5</ele><time>2026-04-25T15:06:18Z</time></trkpt><trkpt lat="46.27130476698656" lon="12.362778913005055"><ele>766.25</ele><time>2026-04-25T15:06:19Z</time></trkpt><trkpt lat="46.271441852128554" lon="12.362822173572672"><ele>765.0</ele><time>2026-04-25T15:06:20Z</time></trkpt><trkpt lat="46.271577766089266" lon="12.362896822295744"><ele>765.75</ele><time>2026-04-25T15:06:21Z</time></trkpt><trkpt lat="46.27170728096974" lon="12.362991908282558"><ele>766.5</ele><time>2026-04-25T15:06:22Z</time></trkpt><trkpt lat="46.27182793345119" lon="12.363082560558688"><ele>767.25</ele><time>2026-04-25T15:06:23Z</time></trkpt><trkpt lat="46.27194189162378" lon="12.363160968437985"><ele>768.0</ele><time>2026-04-25T15:06:24Z</time></trkpt><trkpt lat="46.27205002608654" lon="12.36323217689839"><ele>768.0</ele><time>2026-04-25T15:06:24.999Z</time></trkpt><trkpt lat="46.272138583127074" lon="12.363314555798095"><ele>768.0</ele><time>2026-04-25T15:06:25.999Z</time></trkpt><trkpt lat="46.272202070574046" lon="12.36343223615678"><ele>768.0</ele><time>2026-04-25T15:06:26.999Z</time></trkpt><trkpt lat="46.27223946781051" lon="12.363588944264343"><ele>768.0</ele><time>2026-04-25T15:06:27.999Z</time></trkpt><trkpt lat="46.27225964035962" lon="12.36378812066789"><ele>762.3333333333334</ele><time>2026-04-25T15:06:28.999Z</time></trkpt><trkpt lat="46.27227045363993" lon="12.36401194647154"><ele>756.6666666666667</ele><time>2026-04-25T15:06:29.999Z</time></trkpt><trkpt lat="46.272282018777986" lon="12.364251929301819"><ele>751.0</ele><time>2026-04-25T15:06:30.999Z</time></trkpt><trkpt lat="46.272297427314435" lon="12.364500502074227"><ele>763.0</ele><time>2026-04-25T15:06:31.999Z</time></trkpt><trkpt lat="46.27231244168756" lon="12.364751231989873"><ele>775.0</ele><time>2026-04-25T15:06:32.999Z</time></trkpt><trkpt lat="46.27232378855135" lon="12.364977265021006"><ele>787.0</ele><time>2026-04-25T15:06:33.999Z</time></trkpt><trkpt lat="46.27233173005678" lon="12.36519298688188"><ele>787.0</ele><time>2026-04-25T15:06:34.999Z</time></trkpt><trkpt lat="46.27234813196165" lon="12.365397339697564"><ele>787.0</ele><time>2026-04-25T15:06:35.999Z</time></trkpt><trkpt lat="46.27237238603267" lon="12.365602434767192"><ele>787.0</ele><time>2026-04-25T15:06:36.999Z</time></trkpt><trkpt lat="46.2724086870136" lon="12.365815132750805"><ele>787.0</ele><time>2026-04-25T15:06:37.999Z</time></trkpt><trkpt lat="46.27245754902151" lon="12.366027865844059"><ele>785.0</ele><time>2026-04-25T15:06:38.999Z</time></trkpt><trkpt lat="46.27250957991588" lon="12.366243790371948"><ele>783.0</ele><time>2026-04-25T15:06:39.999Z</time></trkpt><trkpt lat="46.27255732170928" lon="12.366468724291154"><ele>781.0</ele><time>2026-04-25T15:06:40.999Z</time></trkpt><trkpt lat="46.272606106799486" lon="12.366691509344278"><ele>779.3333333333333</ele><time>2026-04-25T15:06:41.999Z</time></trkpt><trkpt lat="46.27265546864982" lon="12.366908305359411"><ele>777.6666666666667</ele><time>2026-04-25T15:06:42.999Z</time></trkpt><trkpt lat="46.27271584129469" lon="12.367120600220916"><ele>776.0</ele><time>2026-04-25T15:06:43.999Z</time></trkpt><trkpt lat="46.27279495225233" lon="12.367319701386387"><ele>775.75</ele><time>2026-04-25T15:06:44.999Z</time></trkpt><trkpt lat="46.27287935626805" lon="12.367491553962354"><ele>775.5</ele><time>2026-04-25T15:06:45.999Z</time></trkpt><trkpt lat="46.27296449159145" lon="12.367640593165797"><ele>775.25</ele><time>2026-04-25T15:06:46.999Z</time></trkpt><trkpt lat="46.273056406286685" lon="12.36774368418747"><ele>775.0</ele><time>2026-04-25T15:06:47.999Z</time></trkpt><trkpt lat="46.273161775522624" lon="12.36779665305432"><ele>779.0</ele><time>2026-04-25T15:06:48.999Z</time></trkpt><trkpt lat="46.273276305875555" lon="12.367797721583255"><ele>783.0</ele><time>2026-04-25T15:06:49.999Z</time></trkpt><trkpt lat="46.27339437522473" lon="12.367777726530221"><ele>787.0</ele><time>2026-04-25T15:06:50.999Z</time></trkpt><trkpt lat="46.27351208559211" lon="12.367738778399454"><ele>791.0</ele><time>2026-04-25T15:06:51.999Z</time></trkpt><trkpt lat="46.27361882686375" lon="12.367723243723164"><ele>791.0</ele><time>2026-04-25T15:06:52.999Z</time></trkpt><trkpt lat="46.273718227491976" lon="12.3677506706796"><ele>791.0</ele><time>2026-04-25T15:06:53.999Z</time></trkpt><trkpt lat="46.27380331203715" lon="12.367823439799942"><ele>791.0</ele><time>2026-04-25T15:06:54.999Z</time></trkpt><trkpt lat="46.27387080133638" lon="12.367935474758031"><ele>791.0</ele><time>2026-04-25T15:06:55.999Z</time></trkpt><trkpt lat="46.273916699846865" lon="12.368070816065625"><ele>791.0</ele><time>2026-04-25T15:06:56.999Z</time></trkpt><trkpt lat="46.27391757697505" lon="12.368225521008139"><ele>788.25</ele><time>2026-04-25T15:06:57.999Z</time></trkpt><trkpt lat="46.27388349559353" lon="12.368385418031911"><ele>785.5</ele><time>2026-04-25T15:06:58.999Z</time></trkpt><trkpt lat="46.27381559527685" lon="12.368552487170911"><ele>782.75</ele><time>2026-04-25T15:06:59.999Z</time></trkpt><trkpt lat="46.27375185430634" lon="12.368735715809748"><ele>780.0</ele><time>2026-04-25T15:07:00.999Z</time></trkpt><trkpt lat="46.273699754351" lon="12.368918469621182"><ele>778.75</ele><time>2026-04-25T15:07:01.999Z</time></trkpt><trkpt lat="46.27366883777823" lon="12.369103067102047"><ele>777.5</ele><time>2026-04-25T15:07:02.999Z</time></trkpt><trkpt lat="46.27367402427938" lon="12.369284688904914"><ele>776.25</ele><time>2026-04-25T15:07:03.999Z</time></trkpt><trkpt lat="46.273700864969896" lon="12.369467325738812"><ele>775.0</ele><time>2026-04-25T15:07:04.999Z</time></trkpt><trkpt lat="46.27373952760741" lon="12.369653814365998"><ele>776.0</ele><time>2026-04-25T15:07:05.999Z</time></trkpt><trkpt lat="46.273779278206376" lon="12.369840938917953"><ele>777.0</ele><time>2026-04-25T15:07:06.999Z</time></trkpt><trkpt lat="46.27382601735077" lon="12.370029687705772"><ele>778.0</ele><time>2026-04-25T15:07:07.999Z</time></trkpt><trkpt lat="46.27389591465748" lon="12.370212121887779"><ele>779.0</ele><time>2026-04-25T15:07:08.999Z</time></trkpt><trkpt lat="46.27398949022665" lon="12.370383441675289"><ele>782.5</ele><time>2026-04-25T15:07:09.999Z</time></trkpt><trkpt lat="46.274085006792596" lon="12.37054490731649"><ele>786.0</ele><time>2026-04-25T15:07:10.999Z</time></trkpt><trkpt lat="46.274177977917454" lon="12.370698019302779"><ele>789.5</ele><time>2026-04-25T15:07:11.999Z</time></trkpt><trkpt lat="46.27426420309754" lon="12.370840836101351"><ele>793.0</ele><time>2026-04-25T15:07:12.999Z</time></trkpt><trkpt lat="46.274349545496904" lon="12.370979480855096"><ele>793.0</ele><time>2026-04-25T15:07:13.999Z</time></trkpt><trkpt lat="46.274435784237305" lon="12.371115962985908"><ele>793.0</ele><time>2026-04-25T15:07:14.999Z</time></trkpt><trkpt lat="46.27452287685108" lon="12.371260245545969"><ele>793.0</ele><time>2026-04-25T15:07:15.999Z</time></trkpt><trkpt lat="46.2746139716381" lon="12.371411807912583"><ele>793.0</ele><time>2026-04-25T15:07:16.999Z</time></trkpt><trkpt lat="46.27471368452446" lon="12.371570133473089"><ele>795.25</ele><time>2026-04-25T15:07:17.999Z</time></trkpt><trkpt lat="46.27482177726082" lon="12.371719981796232"><ele>797.5</ele><time>2026-04-25T15:07:18.999Z</time></trkpt><trkpt lat="46.274936301726896" lon="12.371847059037153"><ele>799.75</ele><time>2026-04-25T15:07:19.999Z</time></trkpt><trkpt lat="46.2750526230353" lon="12.371955792263165"><ele>802.0</ele><time>2026-04-25T15:07:20.999Z</time></trkpt><trkpt lat="46.27516998628143" lon="12.372054847063577"><ele>802.0</ele><time>2026-04-25T15:07:21.999Z</time></trkpt><trkpt lat="46.27529125736059" lon="12.372140874178688"><ele>802.0</ele><time>2026-04-25T15:07:22.999Z</time></trkpt><trkpt lat="46.27542202160625" lon="12.37220748020854"><ele>802.0</ele><time>2026-04-25T15:07:23.999Z</time></trkpt><trkpt lat="46.27555620540475" lon="12.372261723701904"><ele>802.0</ele><time>2026-04-25T15:07:24.999Z</time></trkpt><trkpt lat="46.27569522538266" lon="12.372308820212053"><ele>800.25</ele><time>2026-04-25T15:07:25.999Z</time></trkpt><trkpt lat="46.27583209958466" lon="12.372355644219729"><ele>798.5</ele><time>2026-04-25T15:07:26.999Z</time></trkpt><trkpt lat="46.27597170522184" lon="12.372401444224867"><ele>796.75</ele><time>2026-04-25T15:07:27.999Z</time></trkpt><trkpt lat="46.27609992790825" lon="12.372445324085959"><ele>795.0</ele><time>2026-04-25T15:07:28.999Z</time></trkpt><trkpt lat="46.27622238396218" lon="12.372485282987258"><ele>795.0</ele><time>2026-04-25T15:07:29.999Z</time></trkpt><trkpt lat="46.276339446071105" lon="12.372526435033572"><ele>795.0</ele><time>2026-04-25T15:07:30.999Z</time></trkpt><trkpt lat="46.27645811361004" lon="12.372565198930891"><ele>795.0</ele><time>2026-04-25T15:07:31.999Z</time></trkpt><trkpt lat="46.27657511087704" lon="12.372612375534544"><ele>795.0</ele><time>2026-04-25T15:07:33Z</time></trkpt><trkpt lat="46.27668462330464" lon="12.372685509244803"><ele>794.25</ele><time>2026-04-25T15:07:34Z</time></trkpt><trkpt lat="46.276779599134635" lon="12.372791609484034"><ele>793.5</ele><time>2026-04-25T15:07:35Z</time></trkpt><trkpt lat="46.27685699180942" lon="12.372929303596296"><ele>792.75</ele><time>2026-04-25T15:07:36Z</time></trkpt><trkpt lat="46.276920392109076" lon="12.373091641926539"><ele>792.0</ele><time>2026-04-25T15:07:37Z</time></trkpt><trkpt lat="46.27697645903289" lon="12.373266754617601"><ele>792.0</ele><time>2026-04-25T15:07:38Z</time></trkpt><trkpt lat="46.27703407692624" lon="12.373436930844054"><ele>792.0</ele><time>2026-04-25T15:07:39Z</time></trkpt><trkpt lat="46.27710772438287" lon="12.37359060243375"><ele>792.0</ele><time>2026-04-25T15:07:40Z</time></trkpt><trkpt lat="46.27719981784474" lon="12.373736635527584"><ele>792.0</ele><time>2026-04-25T15:07:41Z</time></trkpt><trkpt lat="46.27731320324795" lon="12.373855078402865"><ele>791.5</ele><time>2026-04-25T15:07:42Z</time></trkpt><trkpt lat="46.27742995861525" lon="12.373954861077442"><ele>791.0</ele><time>2026-04-25T15:07:43Z</time></trkpt><trkpt lat="46.27755339185527" lon="12.374021162300986"><ele>790.5</ele><time>2026-04-25T15:07:44Z</time></trkpt><trkpt lat="46.277678739145045" lon="12.374036187937113"><ele>790.0</ele><time>2026-04-25T15:07:45Z</time></trkpt><trkpt lat="46.2778010642429" lon="12.374005387066225"><ele>790.0</ele><time>2026-04-25T15:07:46Z</time></trkpt><trkpt lat="46.277916792845225" lon="12.373921359603248"><ele>790.0</ele><time>2026-04-25T15:07:47Z</time></trkpt><trkpt lat="46.27802947181679" lon="12.373798720797554"><ele>790.0</ele><time>2026-04-25T15:07:48Z</time></trkpt><trkpt lat="46.278134047392726" lon="12.373687350727119"><ele>790.0</ele><time>2026-04-25T15:07:49Z</time></trkpt><trkpt lat="46.278241260449306" lon="12.37362251987829"><ele>790.0</ele><time>2026-04-25T15:07:50Z</time></trkpt><trkpt lat="46.27834719686749" lon="12.373602546857123"><ele>790.0</ele><time>2026-04-25T15:07:51Z</time></trkpt><trkpt lat="46.27845005137119" lon="12.373629590403958"><ele>790.0</ele><time>2026-04-25T15:07:52Z</time></trkpt><trkpt lat="46.27853689063838" lon="12.373699280446202"><ele>790.0</ele><time>2026-04-25T15:07:53Z</time></trkpt><trkpt lat="46.27861450725167" lon="12.373820423004103"><ele>790.0</ele><time>2026-04-25T15:07:54Z</time></trkpt><trkpt lat="46.27867564540375" lon="12.373984602164303"><ele>790.0</ele><time>2026-04-25T15:07:55Z</time></trkpt><trkpt lat="46.27873069008451" lon="12.374177601589647"><ele>790.0</ele><time>2026-04-25T15:07:56Z</time></trkpt><trkpt lat="46.278800204233676" lon="12.374374226229154"><ele>790.0</ele><time>2026-04-25T15:07:57Z</time></trkpt><trkpt lat="46.278883844171915" lon="12.37455539399236"><ele>790.0</ele><time>2026-04-25T15:07:58Z</time></trkpt><trkpt lat="46.2789736989274" lon="12.374708709194856"><ele>791.0</ele><time>2026-04-25T15:07:59Z</time></trkpt><trkpt lat="46.27907703574013" lon="12.374835081000759"><ele>792.0</ele><time>2026-04-25T15:08:00Z</time></trkpt><trkpt lat="46.279182529665" lon="12.374953101498134"><ele>793.0</ele><time>2026-04-25T15:08:01Z</time></trkpt><trkpt lat="46.279294732242825" lon="12.37506385525582"><ele>794.0</ele><time>2026-04-25T15:08:02Z</time></trkpt><trkpt lat="46.279416699605285" lon="12.375153640357366"><ele>794.0</ele><time>2026-04-25T15:08:03Z</time></trkpt><trkpt lat="46.279547767698865" lon="12.375221342148802"><ele>794.0</ele><time>2026-04-25T15:08:04Z</time></trkpt><trkpt lat="46.279679859039575" lon="12.375279463948736"><ele>794.0</ele><time>2026-04-25T15:08:05Z</time></trkpt><trkpt lat="46.27981008684186" lon="12.375349898950487"><ele>794.0</ele><time>2026-04-25T15:08:06Z</time></trkpt><trkpt lat="46.27994200070189" lon="12.375429796023443"><ele>790.25</ele><time>2026-04-25T15:08:07Z</time></trkpt><trkpt lat="46.28007329755592" lon="12.375509787488689"><ele>786.5</ele><time>2026-04-25T15:08:08Z</time></trkpt><trkpt lat="46.280206050510685" lon="12.375584770564295"><ele>782.75</ele><time>2026-04-25T15:08:09Z</time></trkpt><trkpt lat="46.28034662879545" lon="12.37562918723241"><ele>779.0</ele><time>2026-04-25T15:08:10Z</time></trkpt><trkpt lat="46.280483359517646" lon="12.375654316657924"><ele>779.75</ele><time>2026-04-25T15:08:11Z</time></trkpt><trkpt lat="46.280614687359815" lon="12.375675797402288"><ele>780.5</ele><time>2026-04-25T15:08:12Z</time></trkpt><trkpt lat="46.28073526931936" lon="12.375703823623011"><ele>781.25</ele><time>2026-04-25T15:08:13Z</time></trkpt><trkpt lat="46.28084243898341" lon="12.375726508706677"><ele>782.0</ele><time>2026-04-25T15:08:14Z</time></trkpt><trkpt lat="46.28094125729483" lon="12.375730099207376"><ele>782.0</ele><time>2026-04-25T15:08:15Z</time></trkpt><trkpt lat="46.28104049704632" lon="12.375684039708034"><ele>782.0</ele><time>2026-04-25T15:08:16Z</time></trkpt><trkpt lat="46.28111644889895" lon="12.375589304369004"><ele>782.0</ele><time>2026-04-25T15:08:17Z</time></trkpt><trkpt lat="46.28118723469216" lon="12.375495690386064"><ele>782.0</ele><time>2026-04-25T15:08:18Z</time></trkpt><trkpt lat="46.28125499754722" lon="12.375413009066873"><ele>782.0</ele><time>2026-04-25T15:08:19Z</time></trkpt><trkpt lat="46.28132412775616" lon="12.375338922551093"><ele>782.0000000000001</ele><time>2026-04-25T15:08:20Z</time></trkpt><trkpt lat="46.281401821520596" lon="12.375293912445755"><ele>782.0</ele><time>2026-04-25T15:08:21Z</time></trkpt><trkpt lat="46.28148019062787" lon="12.375307828110543"><ele>782.0</ele><time>2026-04-25T15:08:22Z</time></trkpt><trkpt lat="46.28155323331224" lon="12.375360585949185"><ele>782.0</ele><time>2026-04-25T15:08:23Z</time></trkpt><trkpt lat="46.28162758410465" lon="12.375449418501349"><ele>782.0000000000001</ele><time>2026-04-25T15:08:23.999Z</time></trkpt><trkpt lat="46.28169880934617" lon="12.375553793596078"><ele>782.0</ele><time>2026-04-25T15:08:24.999Z</time></trkpt><trkpt lat="46.281777846140194" lon="12.375665452592905"><ele>782.0</ele><time>2026-04-25T15:08:25.999Z</time></trkpt><trkpt lat="46.281857804638896" lon="12.375778878412978"><ele>782.0</ele><time>2026-04-25T15:08:26.999Z</time></trkpt><trkpt lat="46.28191867132586" lon="12.375891110868885"><ele>782.0</ele><time>2026-04-25T15:08:27.999Z</time></trkpt><trkpt lat="46.281964053865295" lon="12.376016792399641"><ele>782.0</ele><time>2026-04-25T15:08:28.999Z</time></trkpt><trkpt lat="46.28198080816248" lon="12.376154946173587"><ele>782.0</ele><time>2026-04-25T15:08:29.999Z</time></trkpt><trkpt lat="46.28196573415392" lon="12.37630764916687"><ele>779.5</ele><time>2026-04-25T15:08:30.999Z</time></trkpt><trkpt lat="46.281921040323546" lon="12.376457499121587"><ele>777.0</ele><time>2026-04-25T15:08:31.999Z</time></trkpt><trkpt lat="46.281859956236" lon="12.376612699733771"><ele>774.5</ele><time>2026-04-25T15:08:32.999Z</time></trkpt><trkpt lat="46.28181302546956" lon="12.376787709197242"><ele>772.0</ele><time>2026-04-25T15:08:33.999Z</time></trkpt><trkpt lat="46.28177951933194" lon="12.376984693995114"><ele>774.0</ele><time>2026-04-25T15:08:34.999Z</time></trkpt><trkpt lat="46.28174942365371" lon="12.377195330707607"><ele>776.0</ele><time>2026-04-25T15:08:35.999Z</time></trkpt><trkpt lat="46.28172101196356" lon="12.377402715149959"><ele>778.0</ele><time>2026-04-25T15:08:36.999Z</time></trkpt><trkpt lat="46.28169501538182" lon="12.377598600603617"><ele>780.0</ele><time>2026-04-25T15:08:37.999Z</time></trkpt><trkpt lat="46.28167014803089" lon="12.377795228401116"><ele>780.0</ele><time>2026-04-25T15:08:38.999Z</time></trkpt><trkpt lat="46.28164172812707" lon="12.3779823632228"><ele>780.0</ele><time>2026-04-25T15:08:39.999Z</time></trkpt><trkpt lat="46.281602922984554" lon="12.378164940062186"><ele>780.0</ele><time>2026-04-25T15:08:40.999Z</time></trkpt><trkpt lat="46.281541686173966" lon="12.378340086486013"><ele>780.0</ele><time>2026-04-25T15:08:41.999Z</time></trkpt><trkpt lat="46.281464373709866" lon="12.37851321901707"><ele>775.0</ele><time>2026-04-25T15:08:42.999Z</time></trkpt><trkpt lat="46.28138724036445" lon="12.378666813775205"><ele>770.0</ele><time>2026-04-25T15:08:43.999Z</time></trkpt><trkpt lat="46.2813069047545" lon="12.378835834868259"><ele>765.0</ele><time>2026-04-25T15:08:44.999Z</time></trkpt><trkpt lat="46.28123349728336" lon="12.379009395675943"><ele>760.0</ele><time>2026-04-25T15:08:45.999Z</time></trkpt><trkpt lat="46.28116376716137" lon="12.379187667391188"><ele>760.0</ele><time>2026-04-25T15:08:46.999Z</time></trkpt><trkpt lat="46.281095405783354" lon="12.379369547369754"><ele>760.0</ele><time>2026-04-25T15:08:47.999Z</time></trkpt><trkpt lat="46.28102879204592" lon="12.37954787446092"><ele>760.0</ele><time>2026-04-25T15:08:48.999Z</time></trkpt><trkpt lat="46.280961797642625" lon="12.379726241010108"><ele>760.0</ele><time>2026-04-25T15:08:49.999Z</time></trkpt><trkpt lat="46.28089947073896" lon="12.379896033324052"><ele>756.25</ele><time>2026-04-25T15:08:50.999Z</time></trkpt><trkpt lat="46.28082802421239" lon="12.380048811014227"><ele>752.5</ele><time>2026-04-25T15:08:51.999Z</time></trkpt><trkpt lat="46.28074879981628" lon="12.38019160615331"><ele>748.75</ele><time>2026-04-25T15:08:52.999Z</time></trkpt><trkpt lat="46.280660766334975" lon="12.380297313139085"><ele>745.0</ele><time>2026-04-25T15:08:53.999Z</time></trkpt><trkpt lat="46.280524740613885" lon="12.380397995963477"><ele>745.0</ele><time>2026-04-25T15:08:54.999Z</time></trkpt><trkpt lat="46.280416201236044" lon="12.380500656608701"><ele>745.0</ele><time>2026-04-25T15:08:55.999Z</time></trkpt><trkpt lat="46.2802995353469" lon="12.38060456902808"><ele>745.0</ele><time>2026-04-25T15:08:56.999Z</time></trkpt><trkpt lat="46.28017835885725" lon="12.38070653197606"><ele>745.0</ele><time>2026-04-25T15:08:57.999Z</time></trkpt><trkpt lat="46.280007012832236" lon="12.380771406587682"><ele>752.0</ele><time>2026-04-25T15:08:58.999Z</time></trkpt><trkpt lat="46.279894080520044" lon="12.38086910976092"><ele>759.0</ele><time>2026-04-25T15:08:59.999Z</time></trkpt><trkpt lat="46.27984809256427" lon="12.381070721255243"><ele>766.0</ele><time>2026-04-25T15:09:00.999Z</time></trkpt><trkpt lat="46.27976602068104" lon="12.381164511831646"><ele>773.0</ele><time>2026-04-25T15:09:01.999Z</time></trkpt><trkpt lat="46.2796559504775" lon="12.381190389272126"><ele>773.5999999999999</ele><time>2026-04-25T15:09:02.999Z</time></trkpt><trkpt lat="46.279550262754896" lon="12.381169593494207"><ele>774.1999999999999</ele><time>2026-04-25T15:09:03.999Z</time></trkpt><trkpt lat="46.27945477161629" lon="12.381104343851781"><ele>774.8</ele><time>2026-04-25T15:09:04.999Z</time></trkpt><trkpt lat="46.2793755407013" lon="12.380990906643985"><ele>775.4</ele><time>2026-04-25T15:09:05.999Z</time></trkpt><trkpt lat="46.27929882162238" lon="12.380858679330025"><ele>776.0</ele><time>2026-04-25T15:09:06.999Z</time></trkpt><trkpt lat="46.27922398129624" lon="12.38073268781694"><ele>776.0</ele><time>2026-04-25T15:09:07.999Z</time></trkpt><trkpt lat="46.27914589844414" lon="12.38061820840624"><ele>776.0</ele><time>2026-04-25T15:09:08.999Z</time></trkpt><trkpt lat="46.27906959364927" lon="12.380507924249695"><ele>776.0</ele><time>2026-04-25T15:09:09.999Z</time></trkpt><trkpt lat="46.278994658888756" lon="12.380405278986574"><ele>776.0</ele><time>2026-04-25T15:09:10.999Z</time></trkpt><trkpt lat="46.27891849475857" lon="12.380312413973918"><ele>776.0</ele><time>2026-04-25T15:09:11.999Z</time></trkpt><trkpt lat="46.27882792609854" lon="12.380267597206114"><ele>774.8</ele><time>2026-04-25T15:09:12.999Z</time></trkpt><trkpt lat="46.27873090719688" lon="12.380266716982362"><ele>773.5999999999999</ele><time>2026-04-25T15:09:13.999Z</time></trkpt><trkpt lat="46.27862343288479" lon="12.380331741766256"><ele>772.4</ele><time>2026-04-25T15:09:14.999Z</time></trkpt><trkpt lat="46.2785239043038" lon="12.380419280750809"><ele>771.2</ele><time>2026-04-25T15:09:15.999Z</time></trkpt><trkpt lat="46.278426533506696" lon="12.380506751556046"><ele>770.0</ele><time>2026-04-25T15:09:16.999Z</time></trkpt><trkpt lat="46.27832865968853" lon="12.38056685813997"><ele>770.0</ele><time>2026-04-25T15:09:17.999Z</time></trkpt><trkpt lat="46.278225304070965" lon="12.380600441255707"><ele>770.0</ele><time>2026-04-25T15:09:18.999Z</time></trkpt><trkpt lat="46.278126301185594" lon="12.380626946299444"><ele>770.0</ele><time>2026-04-25T15:09:19.999Z</time></trkpt><trkpt lat="46.27803652458474" lon="12.380669127059546"><ele>770.0</ele><time>2026-04-25T15:09:20.999Z</time></trkpt><trkpt lat="46.277950372195946" lon="12.380720890071348"><ele>770.0</ele><time>2026-04-25T15:09:21.999Z</time></trkpt><trkpt lat="46.27786354677485" lon="12.380773260618248"><ele>764.6</ele><time>2026-04-25T15:09:22.999Z</time></trkpt><trkpt lat="46.27778135392773" lon="12.380832690426248"><ele>759.2</ele><time>2026-04-25T15:09:23.999Z</time></trkpt><trkpt lat="46.27770834111493" lon="12.38090662186373"><ele>753.8</ele><time>2026-04-25T15:09:24.999Z</time></trkpt><trkpt lat="46.27764432344275" lon="12.38100409749812"><ele>748.4</ele><time>2026-04-25T15:09:25.999Z</time></trkpt><trkpt lat="46.27758865198181" lon="12.381124399247543"><ele>743.0</ele><time>2026-04-25T15:09:26.999Z</time></trkpt><trkpt lat="46.27754708928998" lon="12.381247519042386"><ele>746.5999999999999</ele><time>2026-04-25T15:09:27.999Z</time></trkpt><trkpt lat="46.277507433929905" lon="12.381370786602858"><ele>750.1999999999999</ele><time>2026-04-25T15:09:28.999Z</time></trkpt><trkpt lat="46.27746152425163" lon="12.381496538025342"><ele>753.8</ele><time>2026-04-25T15:09:29.999Z</time></trkpt><trkpt lat="46.27741361562305" lon="12.381625252239933"><ele>757.4</ele><time>2026-04-25T15:09:30.999Z</time></trkpt><trkpt lat="46.27736238971895" lon="12.381756922192386"><ele>761.0</ele><time>2026-04-25T15:09:31.999Z</time></trkpt><trkpt lat="46.277315564329726" lon="12.381888935354755"><ele>761.0</ele><time>2026-04-25T15:09:32.999Z</time></trkpt><trkpt lat="46.277279385269175" lon="12.382034786685285"><ele>761.0</ele><time>2026-04-25T15:09:33.999Z</time></trkpt><trkpt lat="46.27725638129878" lon="12.382184584088442"><ele>761.0</ele><time>2026-04-25T15:09:34.999Z</time></trkpt><trkpt lat="46.27725810429005" lon="12.38234222499012"><ele>761.0</ele><time>2026-04-25T15:09:35.999Z</time></trkpt><trkpt lat="46.277275446001255" lon="12.382492522292097"><ele>761.0</ele><time>2026-04-25T15:09:36.999Z</time></trkpt><trkpt lat="46.27728732637589" lon="12.38263164867766"><ele>762.5999999999999</ele><time>2026-04-25T15:09:37.999Z</time></trkpt><trkpt lat="46.27728722311189" lon="12.382766470697895"><ele>764.2</ele><time>2026-04-25T15:09:38.999Z</time></trkpt><trkpt lat="46.277282020475766" lon="12.382898826436962"><ele>765.8</ele><time>2026-04-25T15:09:39.999Z</time></trkpt><trkpt lat="46.2772634363427" lon="12.383028348997938"><ele>767.4000000000001</ele><time>2026-04-25T15:09:40.999Z</time></trkpt><trkpt lat="46.27722807400428" lon="12.38315291794703"><ele>769.0</ele><time>2026-04-25T15:09:41.999Z</time></trkpt><trkpt lat="46.277179883281995" lon="12.383264330946869"><ele>762.4000000000001</ele><time>2026-04-25T15:09:42.999Z</time></trkpt><trkpt lat="46.27712590359659" lon="12.383370915379448"><ele>755.8</ele><time>2026-04-25T15:09:43.999Z</time></trkpt><trkpt lat="46.27707122086153" lon="12.383475337006955"><ele>749.2</ele><time>2026-04-25T15:09:44.999Z</time></trkpt><trkpt lat="46.27702013833626" lon="12.383580530211542"><ele>742.5999999999999</ele><time>2026-04-25T15:09:45.999Z</time></trkpt><trkpt lat="46.27697052855989" lon="12.383696343229268"><ele>736.0</ele><time>2026-04-25T15:09:46.999Z</time></trkpt><trkpt lat="46.27691748824122" lon="12.383812834702331"><ele>738.4</ele><time>2026-04-25T15:09:48Z</time></trkpt><trkpt lat="46.27686654018752" lon="12.383932524065179"><ele>740.8</ele><time>2026-04-25T15:09:49Z</time></trkpt><trkpt lat="46.27681589784026" lon="12.384046421630764"><ele>743.1999999999999</ele><time>2026-04-25T15:09:50Z</time></trkpt><trkpt lat="46.276763785472305" lon="12.384152217134716"><ele>745.5999999999999</ele><time>2026-04-25T15:09:51Z</time></trkpt><trkpt lat="46.27673836769216" lon="12.38427038110554"><ele>748.0</ele><time>2026-04-25T15:09:52Z</time></trkpt><trkpt lat="46.27673533410767" lon="12.384402318121042"><ele>748.0</ele><time>2026-04-25T15:09:53Z</time></trkpt><trkpt lat="46.27675764605603" lon="12.384544868251178"><ele>748.0</ele><time>2026-04-25T15:09:54Z</time></trkpt><trkpt lat="46.276801785486235" lon="12.384693419984615"><ele>748.0</ele><time>2026-04-25T15:09:55Z</time></trkpt><trkpt lat="46.27684649723143" lon="12.384848177204809"><ele>748.0</ele><time>2026-04-25T15:09:56Z</time></trkpt><trkpt lat="46.27688198722716" lon="12.384983646214664"><ele>748.0</ele><time>2026-04-25T15:09:57Z</time></trkpt><trkpt lat="46.27691334943136" lon="12.385114098664925"><ele>747.2</ele><time>2026-04-25T15:09:58Z</time></trkpt><trkpt lat="46.276942545798256" lon="12.385240530583673"><ele>746.4</ele><time>2026-04-25T15:09:59Z</time></trkpt><trkpt lat="46.27696601337514" lon="12.38536831595708"><ele>745.6</ele><time>2026-04-25T15:10:00Z</time></trkpt><trkpt lat="46.276981909642515" lon="12.38550680121567"><ele>744.8000000000001</ele><time>2026-04-25T15:10:01Z</time></trkpt><trkpt lat="46.276995853162134" lon="12.385651042822214"><ele>744.0</ele><time>2026-04-25T15:10:02Z</time></trkpt><trkpt lat="46.27701526395577" lon="12.385801636089095"><ele>742.0</ele><time>2026-04-25T15:10:03Z</time></trkpt><trkpt lat="46.277046792548546" lon="12.385955926756708"><ele>740.0</ele><time>2026-04-25T15:10:04Z</time></trkpt><trkpt lat="46.27709878396445" lon="12.386108705432008"><ele>738.0</ele><time>2026-04-25T15:10:05Z</time></trkpt><trkpt lat="46.277163184410874" lon="12.386253914762916"><ele>736.0</ele><time>2026-04-25T15:10:06Z</time></trkpt><trkpt lat="46.277218087843266" lon="12.386381912090135"><ele>743.5999999999999</ele><time>2026-04-25T15:10:07Z</time></trkpt><trkpt lat="46.27726970460678" lon="12.3865060832936"><ele>751.2</ele><time>2026-04-25T15:10:08Z</time></trkpt><trkpt lat="46.27731615223757" lon="12.38663127487589"><ele>758.8</ele><time>2026-04-25T15:10:09Z</time></trkpt><trkpt lat="46.277357165550285" lon="12.386774576888369"><ele>766.4000000000001</ele><time>2026-04-25T15:10:10Z</time></trkpt><trkpt lat="46.277381342231685" lon="12.386936388088463"><ele>774.0</ele><time>2026-04-25T15:10:11Z</time></trkpt><trkpt lat="46.27738583405245" lon="12.387113700506983"><ele>773.2</ele><time>2026-04-25T15:10:12Z</time></trkpt><trkpt lat="46.277370157893515" lon="12.387301631570706"><ele>772.4000000000001</ele><time>2026-04-25T15:10:13Z</time></trkpt><trkpt lat="46.277360909088586" lon="12.387469158878343"><ele>771.6</ele><time>2026-04-25T15:10:14Z</time></trkpt><trkpt lat="46.27735075670493" lon="12.387616055307673"><ele>770.8</ele><time>2026-04-25T15:10:15Z</time></trkpt><trkpt lat="46.27735088341217" lon="12.387760252153544"><ele>770.0</ele><time>2026-04-25T15:10:16Z</time></trkpt><trkpt lat="46.27736415500803" lon="12.387900815695218"><ele>769.6</ele><time>2026-04-25T15:10:17Z</time></trkpt><trkpt lat="46.277387186431405" lon="12.388035840323969"><ele>769.2</ele><time>2026-04-25T15:10:18Z</time></trkpt><trkpt lat="46.27741012734235" lon="12.388175261650765"><ele>768.8</ele><time>2026-04-25T15:10:19Z</time></trkpt><trkpt lat="46.277429747594205" lon="12.388317951833592"><ele>768.4</ele><time>2026-04-25T15:10:20Z</time></trkpt><trkpt lat="46.277431526394324" lon="12.388475567863546"><ele>768.0</ele><time>2026-04-25T15:10:21Z</time></trkpt><trkpt lat="46.277424420213386" lon="12.388628644730792"><ele>768.0</ele><time>2026-04-25T15:10:21.999Z</time></trkpt><trkpt lat="46.27742812245841" lon="12.38878299238979"><ele>768.0</ele><time>2026-04-25T15:10:22.999Z</time></trkpt><trkpt lat="46.27744734405564" lon="12.388928259267733"><ele>768.0</ele><time>2026-04-25T15:10:23.999Z</time></trkpt><trkpt lat="46.27747522971929" lon="12.389061369143816"><ele>768.0</ele><time>2026-04-25T15:10:24.999Z</time></trkpt><trkpt lat="46.277517579755184" lon="12.389183874095215"><ele>768.0</ele><time>2026-04-25T15:10:25.999Z</time></trkpt><trkpt lat="46.27756718167925" lon="12.389294278134036"><ele>766.8333333333334</ele><time>2026-04-25T15:10:26.999Z</time></trkpt><trkpt lat="46.27761944383546" lon="12.389388715720397"><ele>765.6666666666666</ele><time>2026-04-25T15:10:27.999Z</time></trkpt><trkpt lat="46.277656680457845" lon="12.38949088055624"><ele>764.5</ele><time>2026-04-25T15:10:28.999Z</time></trkpt><trkpt lat="46.277667312536565" lon="12.389603419192099"><ele>763.3333333333333</ele><time>2026-04-25T15:10:29.999Z</time></trkpt><trkpt lat="46.2776581859417" lon="12.389709986648072"><ele>762.1666666666666</ele><time>2026-04-25T15:10:30.999Z</time></trkpt><trkpt lat="46.27765324057131" lon="12.389810092588883"><ele>761.0</ele><time>2026-04-25T15:10:31.999Z</time></trkpt><trkpt lat="46.2776732333624" lon="12.389908068779222"><ele>757.8333333333333</ele><time>2026-04-25T15:10:32.999Z</time></trkpt><trkpt lat="46.2777061336608" lon="12.390000761782824"><ele>754.6666666666666</ele><time>2026-04-25T15:10:33.999Z</time></trkpt><trkpt lat="46.27775593477737" lon="12.390084538906738"><ele>751.5</ele><time>2026-04-25T15:10:34.999Z</time></trkpt><trkpt lat="46.27781801918301" lon="12.390155779234064"><ele>748.3333333333334</ele><time>2026-04-25T15:10:35.999Z</time></trkpt><trkpt lat="46.277899132425276" lon="12.390207515516062"><ele>745.1666666666667</ele><time>2026-04-25T15:10:36.999Z</time></trkpt><trkpt lat="46.277985200790184" lon="12.390252635996395"><ele>742.0</ele><time>2026-04-25T15:10:37.999Z</time></trkpt><trkpt lat="46.278076492780606" lon="12.390298892407882"><ele>745.2</ele><time>2026-04-25T15:10:38.999Z</time></trkpt><trkpt lat="46.27816532118378" lon="12.39035880513476"><ele>748.4000000000001</ele><time>2026-04-25T15:10:39.999Z</time></trkpt><trkpt lat="46.27825362308672" lon="12.390433400932723"><ele>751.5999999999999</ele><time>2026-04-25T15:10:40.999Z</time></trkpt><trkpt lat="46.278346367478434" lon="12.390515078488598"><ele>754.8</ele><time>2026-04-25T15:10:41.999Z</time></trkpt><trkpt lat="46.278439116616205" lon="12.390613423271375"><ele>758.0</ele><time>2026-04-25T15:10:42.999Z</time></trkpt><trkpt lat="46.278526728529016" lon="12.390737391467823"><ele>758.0</ele><time>2026-04-25T15:10:43.999Z</time></trkpt><trkpt lat="46.27861007321634" lon="12.390875999832684"><ele>758.0</ele><time>2026-04-25T15:10:44.999Z</time></trkpt><trkpt lat="46.27869116562994" lon="12.391014203478834"><ele>758.0</ele><time>2026-04-25T15:10:45.999Z</time></trkpt><trkpt lat="46.27876823459649" lon="12.391148162238977"><ele>758.0</ele><time>2026-04-25T15:10:46.999Z</time></trkpt><trkpt lat="46.278845267971406" lon="12.391275275988264"><ele>762.75</ele><time>2026-04-25T15:10:47.999Z</time></trkpt><trkpt lat="46.27892178414184" lon="12.391398352883394"><ele>767.5</ele><time>2026-04-25T15:10:48.999Z</time></trkpt><trkpt lat="46.278994113845904" lon="12.3915213516316"><ele>772.25</ele><time>2026-04-25T15:10:49.999Z</time></trkpt><trkpt lat="46.279065229371895" lon="12.39164715354482"><ele>777.0</ele><time>2026-04-25T15:10:50.999Z</time></trkpt><trkpt lat="46.27913840456835" lon="12.39177940992966"><ele>777.0</ele><time>2026-04-25T15:10:51.999Z</time></trkpt><trkpt lat="46.27921056329031" lon="12.39191882422677"><ele>777.0</ele><time>2026-04-25T15:10:52.999Z</time></trkpt><trkpt lat="46.279267236256096" lon="12.392069258407636"><ele>777.0</ele><time>2026-04-25T15:10:53.999Z</time></trkpt><trkpt lat="46.27930745827514" lon="12.392231794946296"><ele>777.0</ele><time>2026-04-25T15:10:54.999Z</time></trkpt><trkpt lat="46.279341990965264" lon="12.392399503821304"><ele>774.0</ele><time>2026-04-25T15:10:55.999Z</time></trkpt><trkpt lat="46.27937575511769" lon="12.392566137673143"><ele>771.0</ele><time>2026-04-25T15:10:56.999Z</time></trkpt><trkpt lat="46.27941672020336" lon="12.392729959538718"><ele>768.0</ele><time>2026-04-25T15:10:57.999Z</time></trkpt><trkpt lat="46.279464261358804" lon="12.392890452387489"><ele>765.0</ele><time>2026-04-25T15:10:58.999Z</time></trkpt><trkpt lat="46.27952269022775" lon="12.393055033801454"><ele>762.75</ele><time>2026-04-25T15:10:59.999Z</time></trkpt><trkpt lat="46.27959893355079" lon="12.393209670863962"><ele>760.5</ele><time>2026-04-25T15:11:00.999Z</time></trkpt><trkpt lat="46.27968838303676" lon="12.39335456987599"><ele>758.25</ele><time>2026-04-25T15:11:01.999Z</time></trkpt><trkpt lat="46.27977769635594" lon="12.393477030741481"><ele>756.0</ele><time>2026-04-25T15:11:02.999Z</time></trkpt><trkpt lat="46.279856564199456" lon="12.393592546312991"><ele>759.4</ele><time>2026-04-25T15:11:03.999Z</time></trkpt><trkpt lat="46.27993092091289" lon="12.393701677999337"><ele>762.8</ele><time>2026-04-25T15:11:04.999Z</time></trkpt><trkpt lat="46.280006355246634" lon="12.393808815232969"><ele>766.1999999999999</ele><time>2026-04-25T15:11:05.999Z</time></trkpt><trkpt lat="46.28008521349055" lon="12.393918576523093"><ele>769.5999999999999</ele><time>2026-04-25T15:11:06.999Z</time></trkpt><trkpt lat="46.280161558405794" lon="12.394030521669059"><ele>773.0</ele><time>2026-04-25T15:11:07.999Z</time></trkpt><trkpt lat="46.28023662730515" lon="12.394141581634502"><ele>773.0</ele><time>2026-04-25T15:11:08.999Z</time></trkpt><trkpt lat="46.28031483095462" lon="12.394251022590021"><ele>773.0</ele><time>2026-04-25T15:11:09.999Z</time></trkpt><trkpt lat="46.28039530528183" lon="12.394365197127778"><ele>773.0</ele><time>2026-04-25T15:11:10.999Z</time></trkpt><trkpt lat="46.28048325766407" lon="12.39449749526691"><ele>773.0</ele><time>2026-04-25T15:11:11.999Z</time></trkpt><trkpt lat="46.2805729702465" lon="12.394649313097535"><ele>773.75</ele><time>2026-04-25T15:11:12.999Z</time></trkpt><trkpt lat="46.28066334521691" lon="12.394818744494279"><ele>774.5</ele><time>2026-04-25T15:11:13.999Z</time></trkpt><trkpt lat="46.28075144044882" lon="12.394996262996749"><ele>775.25</ele><time>2026-04-25T15:11:14.999Z</time></trkpt><trkpt lat="46.28084134321616" lon="12.395167373904474"><ele>776.0</ele><time>2026-04-25T15:11:15.999Z</time></trkpt><trkpt lat="46.28092933819406" lon="12.395358541551488"><ele>775.3333333333334</ele><time>2026-04-25T15:11:16.999Z</time></trkpt><trkpt lat="46.2810081100967" lon="12.3955470734708"><ele>774.6666666666667</ele><time>2026-04-25T15:11:17.999Z</time></trkpt><trkpt lat="46.2810951462341" lon="12.395738734748653"><ele>774.0</ele><time>2026-04-25T15:11:18.999Z</time></trkpt><trkpt lat="46.28119043521812" lon="12.395934831865295"><ele>774.0</ele><time>2026-04-25T15:11:19.999Z</time></trkpt><trkpt lat="46.28128238037022" lon="12.396195704938632"><ele>774.0</ele><time>2026-04-25T15:11:20.999Z</time></trkpt><trkpt lat="46.28136813444841" lon="12.396433801559123"><ele>774.0</ele><time>2026-04-25T15:11:21.999Z</time></trkpt><trkpt lat="46.281439763977545" lon="12.396646907884506"><ele>777.3333333333333</ele><time>2026-04-25T15:11:22.999Z</time></trkpt><trkpt lat="46.281507418474746" lon="12.396862893665892"><ele>780.6666666666666</ele><time>2026-04-25T15:11:23.999Z</time></trkpt><trkpt lat="46.281570436749" lon="12.397080071675562"><ele>784.0</ele><time>2026-04-25T15:11:24.999Z</time></trkpt><trkpt lat="46.28164831196279" lon="12.397340407291091"><ele>785.0</ele><time>2026-04-25T15:11:25.999Z</time></trkpt><trkpt lat="46.28173834590637" lon="12.397513899592248"><ele>786.0</ele><time>2026-04-25T15:11:26.999Z</time></trkpt><trkpt lat="46.28183501932342" lon="12.39762517174812"><ele>787.0</ele><time>2026-04-25T15:11:27.999Z</time></trkpt><trkpt lat="46.28195253878303" lon="12.397716669213123"><ele>788.0</ele><time>2026-04-25T15:11:28.999Z</time></trkpt><trkpt lat="46.282073224562154" lon="12.397795515068236"><ele>788.0</ele><time>2026-04-25T15:11:29.999Z</time></trkpt><trkpt lat="46.28219601125488" lon="12.397880703819558"><ele>788.0</ele><time>2026-04-25T15:11:30.999Z</time></trkpt><trkpt lat="46.28232713681401" lon="12.39799509241143"><ele>788.0</ele><time>2026-04-25T15:11:31.999Z</time></trkpt><trkpt lat="46.282460053851786" lon="12.398120274510902"><ele>788.0</ele><time>2026-04-25T15:11:32.999Z</time></trkpt><trkpt lat="46.282612649051885" lon="12.39825979368657"><ele>788.6666666666667</ele><time>2026-04-25T15:11:33.999Z</time></trkpt><trkpt lat="46.28280838698573" lon="12.398473098162011"><ele>789.3333333333333</ele><time>2026-04-25T15:11:34.999Z</time></trkpt><trkpt lat="46.28297916853659" lon="12.398631815616293"><ele>790.0</ele><time>2026-04-25T15:11:35.999Z</time></trkpt><trkpt lat="46.283121140260654" lon="12.399029453957532"><ele>795.0</ele><time>2026-04-25T15:11:36.999Z</time></trkpt><trkpt lat="46.28325548827292" lon="12.399214072656083"><ele>800.0</ele><time>2026-04-25T15:11:37.999Z</time></trkpt><trkpt lat="46.28338122616679" lon="12.3994096227468"><ele>805.0</ele><time>2026-04-25T15:11:38.999Z</time></trkpt><trkpt lat="46.283502028520054" lon="12.399611124029844"><ele>805.3333333333333</ele><time>2026-04-25T15:11:39.999Z</time></trkpt><trkpt lat="46.28362904385039" lon="12.39984545897865"><ele>805.6666666666667</ele><time>2026-04-25T15:11:40.999Z</time></trkpt><trkpt lat="46.28374625714634" lon="12.400056826792714"><ele>806.0</ele><time>2026-04-25T15:11:41.999Z</time></trkpt><trkpt lat="46.283879716158005" lon="12.400279831849002"><ele>807.3333333333334</ele><time>2026-04-25T15:11:42.999Z</time></trkpt><trkpt lat="46.28401150139327" lon="12.400452464454448"><ele>808.6666666666667</ele><time>2026-04-25T15:11:43.999Z</time></trkpt><trkpt lat="46.28413537154279" lon="12.400599597628364"><ele>810.0</ele><time>2026-04-25T15:11:44.999Z</time></trkpt><trkpt lat="46.284247329335905" lon="12.400747512771849"><ele>810.0</ele><time>2026-04-25T15:11:45.999Z</time></trkpt><trkpt lat="46.28434099267568" lon="12.4009137449093"><ele>810.0</ele><time>2026-04-25T15:11:46.999Z</time></trkpt><trkpt lat="46.28442057850713" lon="12.401096259206861"><ele>810.0</ele><time>2026-04-25T15:11:47.999Z</time></trkpt><trkpt lat="46.28448434719198" lon="12.401304708579927"><ele>812.0</ele><time>2026-04-25T15:11:48.999Z</time></trkpt><trkpt lat="46.28452261892221" lon="12.40153397364426"><ele>814.0</ele><time>2026-04-25T15:11:49.999Z</time></trkpt><trkpt lat="46.284527546182034" lon="12.401782399915119"><ele>816.0</ele><time>2026-04-25T15:11:51Z</time></trkpt><trkpt lat="46.28454087158743" lon="12.402037970007694"><ele>820.0</ele><time>2026-04-25T15:11:52Z</time></trkpt><trkpt lat="46.284579159490505" lon="12.402299770587135"><ele>824.0</ele><time>2026-04-25T15:11:53Z</time></trkpt><trkpt lat="46.28462327398693" lon="12.40256047120023"><ele>828.0</ele><time>2026-04-25T15:11:54Z</time></trkpt><trkpt lat="46.284681475050405" lon="12.402785920728883"><ele>830.3333333333333</ele><time>2026-04-25T15:11:55Z</time></trkpt><trkpt lat="46.2847426483012" lon="12.403021790745866"><ele>832.6666666666666</ele><time>2026-04-25T15:11:56Z</time></trkpt><trkpt lat="46.28480538684821" lon="12.403278407411207"><ele>835.0</ele><time>2026-04-25T15:11:57Z</time></trkpt><trkpt lat="46.28486464055163" lon="12.403541149084434"><ele>827.3333333333333</ele><time>2026-04-25T15:11:58Z</time></trkpt><trkpt lat="46.28492660022261" lon="12.403803479575117"><ele>819.6666666666667</ele><time>2026-04-25T15:11:59Z</time></trkpt><trkpt lat="46.28499006717666" lon="12.404053923862044"><ele>812.0</ele><time>2026-04-25T15:12:00Z</time></trkpt><trkpt lat="46.28506397544236" lon="12.404289767078827"><ele>811.6666666666667</ele><time>2026-04-25T15:12:01Z</time></trkpt><trkpt lat="46.285152692144116" lon="12.404512032266846"><ele>811.3333333333333</ele><time>2026-04-25T15:12:02Z</time></trkpt><trkpt lat="46.285245601461305" lon="12.404711195641168"><ele>811.0</ele><time>2026-04-25T15:12:03Z</time></trkpt><trkpt lat="46.285341389727634" lon="12.40489770656394"><ele>811.0</ele><time>2026-04-25T15:12:04Z</time></trkpt><trkpt lat="46.285433977380514" lon="12.40507166955532"><ele>811.0</ele><time>2026-04-25T15:12:05Z</time></trkpt><trkpt lat="46.285519549355" lon="12.40523194618202"><ele>811.0</ele><time>2026-04-25T15:12:06Z</time></trkpt><trkpt lat="46.28560945007527" lon="12.40538592894142"><ele>811.0</ele><time>2026-04-25T15:12:07Z</time></trkpt><trkpt lat="46.28571511132967" lon="12.405540645903821"><ele>812.3333333333333</ele><time>2026-04-25T15:12:08Z</time></trkpt><trkpt lat="46.28584874157778" lon="12.405692187791658"><ele>813.6666666666667</ele><time>2026-04-25T15:12:09Z</time></trkpt><trkpt lat="46.28598224259157" lon="12.405992812331908"><ele>815.0</ele><time>2026-04-25T15:12:10Z</time></trkpt><trkpt lat="46.28612390465304" lon="12.406152226924245"><ele>815.0</ele><time>2026-04-25T15:12:11Z</time></trkpt><trkpt lat="46.2862603159263" lon="12.406282739495733"><ele>815.0</ele><time>2026-04-25T15:12:12Z</time></trkpt><trkpt lat="46.286398265935865" lon="12.406392868338315"><ele>815.0</ele><time>2026-04-25T15:12:13Z</time></trkpt><trkpt lat="46.28653044941507" lon="12.406482446342721"><ele>815.0</ele><time>2026-04-25T15:12:14Z</time></trkpt><trkpt lat="46.28665908439861" lon="12.406561431134275"><ele>815.0</ele><time>2026-04-25T15:12:15Z</time></trkpt><trkpt lat="46.28678037801483" lon="12.406620406705814"><ele>815.0</ele><time>2026-04-25T15:12:16Z</time></trkpt><trkpt lat="46.28689381242169" lon="12.406676570402547"><ele>815.0</ele><time>2026-04-25T15:12:17Z</time></trkpt><trkpt lat="46.28699190163303" lon="12.406745979282391"><ele>815.0</ele><time>2026-04-25T15:12:18Z</time></trkpt><trkpt lat="46.28706326365536" lon="12.406842236264563"><ele>815.0</ele><time>2026-04-25T15:12:19Z</time></trkpt><trkpt lat="46.287094172732616" lon="12.406958582530976"><ele>815.0</ele><time>2026-04-25T15:12:20Z</time></trkpt><trkpt lat="46.28708212851482" lon="12.407079957883107"><ele>815.0</ele><time>2026-04-25T15:12:21Z</time></trkpt><trkpt lat="46.287021944401886" lon="12.407178939456909"><ele>815.0</ele><time>2026-04-25T15:12:22Z</time></trkpt><trkpt lat="46.28693025199156" lon="12.407235472633399"><ele>815.0</ele><time>2026-04-25T15:12:23Z</time></trkpt><trkpt lat="46.286820194271165" lon="12.407225774643562"><ele>815.0</ele><time>2026-04-25T15:12:24Z</time></trkpt><trkpt lat="46.28670084732201" lon="12.407163371188185"><ele>815.0</ele><time>2026-04-25T15:12:25Z</time></trkpt><trkpt lat="46.286562812730445" lon="12.407080458036528"><ele>815.0</ele><time>2026-04-25T15:12:26Z</time></trkpt><trkpt lat="46.28640533447526" lon="12.40706197500495"><ele>814.0</ele><time>2026-04-25T15:12:27Z</time></trkpt><trkpt lat="46.28624091102383" lon="12.407094602760507"><ele>813.0</ele><time>2026-04-25T15:12:28Z</time></trkpt><trkpt lat="46.28608998468345" lon="12.407167914880134"><ele>812.0</ele><time>2026-04-25T15:12:29Z</time></trkpt><trkpt lat="46.285968545233075" lon="12.407268503158068"><ele>815.3333333333334</ele><time>2026-04-25T15:12:30Z</time></trkpt><trkpt lat="46.28587471568237" lon="12.407413066078453"><ele>818.6666666666667</ele><time>2026-04-25T15:12:31Z</time></trkpt><trkpt lat="46.28578798511647" lon="12.40759532246604"><ele>822.0</ele><time>2026-04-25T15:12:32Z</time></trkpt><trkpt lat="46.28570020994895" lon="12.40779252877098"><ele>822.0</ele><time>2026-04-25T15:12:33Z</time></trkpt><trkpt lat="46.285615565034426" lon="12.407922923482563"><ele>822.0</ele><time>2026-04-25T15:12:34Z</time></trkpt><trkpt lat="46.28554439979514" lon="12.408046248984277"><ele>822.0</ele><time>2026-04-25T15:12:34.999Z</time></trkpt><trkpt lat="46.28549353110598" lon="12.408184972016807"><ele>822.0</ele><time>2026-04-25T15:12:35.999Z</time></trkpt><trkpt lat="46.28545714972298" lon="12.408339866700711"><ele>828.5</ele><time>2026-04-25T15:12:36.999Z</time></trkpt><trkpt lat="46.285435549436514" lon="12.408498956788357"><ele>835.0</ele><time>2026-04-25T15:12:37.999Z</time></trkpt><trkpt lat="46.28542517164214" lon="12.408666976337944"><ele>841.5</ele><time>2026-04-25T15:12:38.999Z</time></trkpt><trkpt lat="46.28541701311291" lon="12.408845007051553"><ele>848.0</ele><time>2026-04-25T15:12:39.999Z</time></trkpt><trkpt lat="46.285413003500565" lon="12.409030355603235"><ele>847.5</ele><time>2026-04-25T15:12:40.999Z</time></trkpt><trkpt lat="46.28540536361238" lon="12.409224665683606"><ele>847.0</ele><time>2026-04-25T15:12:41.999Z</time></trkpt><trkpt lat="46.28540225666387" lon="12.409427162319073"><ele>846.5</ele><time>2026-04-25T15:12:42.999Z</time></trkpt><trkpt lat="46.28541227826222" lon="12.409636747737153"><ele>846.0</ele><time>2026-04-25T15:12:43.999Z</time></trkpt><trkpt lat="46.28543775496168" lon="12.409844000082787"><ele>846.0</ele><time>2026-04-25T15:12:44.999Z</time></trkpt><trkpt lat="46.28547907957676" lon="12.410051746985445"><ele>846.0</ele><time>2026-04-25T15:12:45.999Z</time></trkpt><trkpt lat="46.28552973059681" lon="12.41026342425415"><ele>846.0</ele><time>2026-04-25T15:12:46.999Z</time></trkpt><trkpt lat="46.285579993521054" lon="12.41047775000846"><ele>838.0</ele><time>2026-04-25T15:12:47.999Z</time></trkpt><trkpt lat="46.28563424876289" lon="12.410697463797463"><ele>830.0</ele><time>2026-04-25T15:12:48.999Z</time></trkpt><trkpt lat="46.28568255778655" lon="12.410913570963645"><ele>822.0</ele><time>2026-04-25T15:12:49.999Z</time></trkpt><trkpt lat="46.2857328770162" lon="12.411124785154726"><ele>820.6666666666667</ele><time>2026-04-25T15:12:50.999Z</time></trkpt><trkpt lat="46.285785935613866" lon="12.411333535209712"><ele>819.3333333333334</ele><time>2026-04-25T15:12:51.999Z</time></trkpt><trkpt lat="46.285835673730524" lon="12.411547178468851"><ele>818.0</ele><time>2026-04-25T15:12:52.999Z</time></trkpt><trkpt lat="46.285885721218" lon="12.411760944429219"><ele>818.0</ele><time>2026-04-25T15:12:53.999Z</time></trkpt><trkpt lat="46.28594839760947" lon="12.411967150748415"><ele>818.0</ele><time>2026-04-25T15:12:54.999Z</time></trkpt><trkpt lat="46.286016908069726" lon="12.412161711264416"><ele>818.0</ele><time>2026-04-25T15:12:55.999Z</time></trkpt><trkpt lat="46.28608700529034" lon="12.412344663611332"><ele>815.25</ele><time>2026-04-25T15:12:56.999Z</time></trkpt><trkpt lat="46.28614741607541" lon="12.412535745755449"><ele>812.5</ele><time>2026-04-25T15:12:57.999Z</time></trkpt><trkpt lat="46.2861922269877" lon="12.412732040274742"><ele>809.75</ele><time>2026-04-25T15:12:58.999Z</time></trkpt><trkpt lat="46.28621433501807" lon="12.41293568367501"><ele>807.0</ele><time>2026-04-25T15:12:59.999Z</time></trkpt><trkpt lat="46.28620992154908" lon="12.413156963433227"><ele>804.6666666666667</ele><time>2026-04-25T15:13:00.999Z</time></trkpt><trkpt lat="46.28619837551667" lon="12.413386959838748"><ele>802.3333333333334</ele><time>2026-04-25T15:13:01.999Z</time></trkpt><trkpt lat="46.286187673788625" lon="12.413613781562063"><ele>800.0</ele><time>2026-04-25T15:13:02.999Z</time></trkpt><trkpt lat="46.28619534415756" lon="12.413852388124402"><ele>800.0</ele><time>2026-04-25T15:13:03.999Z</time></trkpt><trkpt lat="46.28622043273032" lon="12.41410442662968"><ele>800.0</ele><time>2026-04-25T15:13:04.999Z</time></trkpt><trkpt lat="46.286258658529654" lon="12.414360732564042"><ele>800.0</ele><time>2026-04-25T15:13:05.999Z</time></trkpt><trkpt lat="46.28631317905418" lon="12.41461791427119"><ele>799.0</ele><time>2026-04-25T15:13:06.999Z</time></trkpt><trkpt lat="46.286363337753514" lon="12.414865255900207"><ele>798.0</ele><time>2026-04-25T15:13:07.999Z</time></trkpt><trkpt lat="46.28640764697915" lon="12.4151196252279"><ele>797.0</ele><time>2026-04-25T15:13:08.999Z</time></trkpt><trkpt lat="46.286439328983086" lon="12.415377182676005"><ele>799.0</ele><time>2026-04-25T15:13:09.999Z</time></trkpt><trkpt lat="46.286467337363675" lon="12.415636576293956"><ele>801.0</ele><time>2026-04-25T15:13:10.999Z</time></trkpt><trkpt lat="46.286482045440195" lon="12.415885459938966"><ele>803.0</ele><time>2026-04-25T15:13:11.999Z</time></trkpt><trkpt lat="46.28648609021" lon="12.416120687639527"><ele>803.3333333333334</ele><time>2026-04-25T15:13:12.999Z</time></trkpt><trkpt lat="46.28648352240686" lon="12.416357361698045"><ele>803.6666666666667</ele><time>2026-04-25T15:13:13.999Z</time></trkpt><trkpt lat="46.28647555510546" lon="12.416587010907286"><ele>804.0</ele><time>2026-04-25T15:13:14.999Z</time></trkpt><trkpt lat="46.28648060093869" lon="12.416791117157777"><ele>804.0</ele><time>2026-04-25T15:13:15.999Z</time></trkpt><trkpt lat="46.28650027231899" lon="12.416992124371733"><ele>804.0</ele><time>2026-04-25T15:13:16.999Z</time></trkpt><trkpt lat="46.28651219758847" lon="12.41719456653154"><ele>804.0</ele><time>2026-04-25T15:13:17.999Z</time></trkpt><trkpt lat="46.28648691460578" lon="12.417402981519052"><ele>804.0</ele><time>2026-04-25T15:13:18.999Z</time></trkpt><trkpt lat="46.28643003097178" lon="12.417622618565417"><ele>802.3333333333333</ele><time>2026-04-25T15:13:19.999Z</time></trkpt><trkpt lat="46.286365938226474" lon="12.417851141798032"><ele>800.6666666666666</ele><time>2026-04-25T15:13:20.999Z</time></trkpt><trkpt lat="46.286307389117205" lon="12.418076472878779"><ele>799.0</ele><time>2026-04-25T15:13:21.999Z</time></trkpt><trkpt lat="46.28625430875748" lon="12.41828945304941"><ele>798.0</ele><time>2026-04-25T15:13:22.999Z</time></trkpt><trkpt lat="46.28620238245028" lon="12.418494031915694"><ele>797.0</ele><time>2026-04-25T15:13:23.999Z</time></trkpt><trkpt lat="46.28615685560941" lon="12.418696021636467"><ele>796.0</ele><time>2026-04-25T15:13:24.999Z</time></trkpt><trkpt lat="46.2861324154739" lon="12.41887404860197"><ele>795.0</ele><time>2026-04-25T15:13:25.999Z</time></trkpt><trkpt lat="46.286142244878945" lon="12.4190436525917"><ele>794.25</ele><time>2026-04-25T15:13:26.999Z</time></trkpt><trkpt lat="46.28620043478134" lon="12.419208258842811"><ele>793.5</ele><time>2026-04-25T15:13:27.999Z</time></trkpt><trkpt lat="46.28629364701707" lon="12.419365595211886"><ele>792.75</ele><time>2026-04-25T15:13:28.999Z</time></trkpt><trkpt lat="46.28641013621762" lon="12.419499422202485"><ele>792.0</ele><time>2026-04-25T15:13:29.999Z</time></trkpt><trkpt lat="46.286520273175626" lon="12.419622680870702"><ele>790.75</ele><time>2026-04-25T15:13:30.999Z</time></trkpt><trkpt lat="46.286590658360446" lon="12.419792494925867"><ele>789.5</ele><time>2026-04-25T15:13:31.999Z</time></trkpt><trkpt lat="46.28661753741904" lon="12.420010793838925"><ele>788.25</ele><time>2026-04-25T15:13:32.999Z</time></trkpt><trkpt lat="46.28662758250618" lon="12.420238256187528"><ele>787.0</ele><time>2026-04-25T15:13:33.999Z</time></trkpt><trkpt lat="46.28667886798933" lon="12.420454509805387"><ele>783.0</ele><time>2026-04-25T15:13:34.999Z</time></trkpt><trkpt lat="46.28676998569818" lon="12.42063791907466"><ele>779.0</ele><time>2026-04-25T15:13:35.999Z</time></trkpt><trkpt lat="46.28685525147001" lon="12.420812071519311"><ele>775.0</ele><time>2026-04-25T15:13:36.999Z</time></trkpt><trkpt lat="46.28690780033991" lon="12.421009527661136"><ele>775.0</ele><time>2026-04-25T15:13:37.999Z</time></trkpt><trkpt lat="46.2869270954465" lon="12.421235357891625"><ele>775.0</ele><time>2026-04-25T15:13:38.999Z</time></trkpt><trkpt lat="46.28692939073701" lon="12.42148139042885"><ele>775.0</ele><time>2026-04-25T15:13:39.999Z</time></trkpt><trkpt lat="46.28691995576196" lon="12.421735871944199"><ele>772.3333333333333</ele><time>2026-04-25T15:13:40.999Z</time></trkpt><trkpt lat="46.28691110849736" lon="12.421974438898983"><ele>769.6666666666666</ele><time>2026-04-25T15:13:41.999Z</time></trkpt><trkpt lat="46.28691027340232" lon="12.42220657338281"><ele>767.0</ele><time>2026-04-25T15:13:42.999Z</time></trkpt><trkpt lat="46.2869261357922" lon="12.422432969889611"><ele>763.6666666666666</ele><time>2026-04-25T15:13:43.999Z</time></trkpt><trkpt lat="46.28696205041791" lon="12.422651782406902"><ele>760.3333333333334</ele><time>2026-04-25T15:13:44.999Z</time></trkpt><trkpt lat="46.28701847507813" lon="12.422864283416281"><ele>757.0</ele><time>2026-04-25T15:13:45.999Z</time></trkpt><trkpt lat="46.287067897042554" lon="12.423064768341577"><ele>755.0</ele><time>2026-04-25T15:13:46.999Z</time></trkpt><trkpt lat="46.287115354891846" lon="12.423273736849856"><ele>753.0</ele><time>2026-04-25T15:13:47.999Z</time></trkpt><trkpt lat="46.28715960051811" lon="12.4234686761236"><ele>751.0</ele><time>2026-04-25T15:13:48.999Z</time></trkpt><trkpt lat="46.287220092140274" lon="12.423657122275827"><ele>749.0</ele><time>2026-04-25T15:13:49.999Z</time></trkpt><trkpt lat="46.28729810345696" lon="12.423824186474999"><ele>748.75</ele><time>2026-04-25T15:13:51Z</time></trkpt><trkpt lat="46.28739337755432" lon="12.42396871323761"><ele>748.5</ele><time>2026-04-25T15:13:52Z</time></trkpt><trkpt lat="46.28748452425827" lon="12.424115538025815"><ele>748.25</ele><time>2026-04-25T15:13:53Z</time></trkpt><trkpt lat="46.28756308686722" lon="12.424274231822494"><ele>748.0</ele><time>2026-04-25T15:13:54Z</time></trkpt><trkpt lat="46.28760830179729" lon="12.424419220455068"><ele>748.0</ele><time>2026-04-25T15:13:55Z</time></trkpt><trkpt lat="46.287631970895866" lon="12.424538852261968"><ele>748.0</ele><time>2026-04-25T15:13:56Z</time></trkpt><trkpt lat="46.287628541846594" lon="12.424639093591876"><ele>748.0</ele><time>2026-04-25T15:13:57Z</time></trkpt><trkpt lat="46.287591499215694" lon="12.424724393857685"><ele>748.0</ele><time>2026-04-25T15:13:58Z</time></trkpt><trkpt lat="46.28752545670322" lon="12.424759294935747"><ele>748.0</ele><time>2026-04-25T15:13:59Z</time></trkpt><trkpt lat="46.287452877445574" lon="12.424718935955477"><ele>748.0</ele><time>2026-04-25T15:14:00Z</time></trkpt><trkpt lat="46.28739981867885" lon="12.424604389280276"><ele>748.0</ele><time>2026-04-25T15:14:01Z</time></trkpt><trkpt lat="46.28738108987403" lon="12.424454415462652"><ele>748.0</ele><time>2026-04-25T15:14:02Z</time></trkpt><trkpt lat="46.28737445739502" lon="12.424298219969458"><ele>748.0</ele><time>2026-04-25T15:14:03Z</time></trkpt><trkpt lat="46.28733959600201" lon="12.424160139443298"><ele>748.0</ele><time>2026-04-25T15:14:04Z</time></trkpt><trkpt lat="46.28729132063514" lon="12.424069352157924"><ele>748.0</ele><time>2026-04-25T15:14:05Z</time></trkpt><trkpt lat="46.28722217294354" lon="12.424007311806118"><ele>748.5999999999999</ele><time>2026-04-25T15:14:06Z</time></trkpt><trkpt lat="46.287138370949705" lon="12.424006037872157"><ele>749.1999999999999</ele><time>2026-04-25T15:14:07Z</time></trkpt><trkpt lat="46.28705817678488" lon="12.424055992561781"><ele>749.8</ele><time>2026-04-25T15:14:08Z</time></trkpt><trkpt lat="46.2869945937381" lon="12.424170911418937"><ele>750.4</ele><time>2026-04-25T15:14:09Z</time></trkpt><trkpt lat="46.28696089253544" lon="12.424321547522126"><ele>751.0</ele><time>2026-04-25T15:14:10Z</time></trkpt><trkpt lat="46.286964966673786" lon="12.424511434639447"><ele>750.0</ele><time>2026-04-25T15:14:11Z</time></trkpt><trkpt lat="46.28700076617756" lon="12.424711290285435"><ele>749.0</ele><time>2026-04-25T15:14:12Z</time></trkpt><trkpt lat="46.28702143043969" lon="12.42488582442816"><ele>748.0</ele><time>2026-04-25T15:14:13Z</time></trkpt><trkpt lat="46.28701859034209" lon="12.425057899818892"><ele>747.0</ele><time>2026-04-25T15:14:14Z</time></trkpt><trkpt lat="46.28700736722174" lon="12.42524151859928"><ele>747.0</ele><time>2026-04-25T15:14:15Z</time></trkpt><trkpt lat="46.28698745634698" lon="12.425440139370895"><ele>747.0</ele><time>2026-04-25T15:14:16Z</time></trkpt><trkpt lat="46.286956825774915" lon="12.42564795678808"><ele>747.0</ele><time>2026-04-25T15:14:17Z</time></trkpt><trkpt lat="46.286904192768354" lon="12.42584135961632"><ele>747.0</ele><time>2026-04-25T15:14:18Z</time></trkpt><trkpt lat="46.286866020750544" lon="12.42601510544321"><ele>745.5</ele><time>2026-04-25T15:14:19Z</time></trkpt><trkpt lat="46.286861612111" lon="12.426205201270466"><ele>744.0</ele><time>2026-04-25T15:14:20Z</time></trkpt><trkpt lat="46.28689257769936" lon="12.426390327375733"><ele>742.5</ele><time>2026-04-25T15:14:21Z</time></trkpt><trkpt lat="46.28695122623669" lon="12.42655849091414"><ele>741.0</ele><time>2026-04-25T15:14:22Z</time></trkpt><trkpt lat="46.287020809799536" lon="12.426724238731772"><ele>741.0</ele><time>2026-04-25T15:14:23Z</time></trkpt><trkpt lat="46.287091091342006" lon="12.42688041421097"><ele>741.0</ele><time>2026-04-25T15:14:24Z</time></trkpt><trkpt lat="46.28714284211264" lon="12.42704862959963"><ele>741.0</ele><time>2026-04-25T15:14:25Z</time></trkpt><trkpt lat="46.28717953193502" lon="12.427215811220046"><ele>741.0</ele><time>2026-04-25T15:14:26Z</time></trkpt><trkpt lat="46.28720768024222" lon="12.427384190038135"><ele>741.25</ele><time>2026-04-25T15:14:27Z</time></trkpt><trkpt lat="46.2872284936597" lon="12.427549955667116"><ele>741.5</ele><time>2026-04-25T15:14:28Z</time></trkpt><trkpt lat="46.28725174015994" lon="12.427706220967833"><ele>741.75</ele><time>2026-04-25T15:14:29Z</time></trkpt><trkpt lat="46.287261257643635" lon="12.42792055836153"><ele>742.0</ele><time>2026-04-25T15:14:30Z</time></trkpt><trkpt lat="46.28725232833575" lon="12.428139215707949"><ele>742.0</ele><time>2026-04-25T15:14:31Z</time></trkpt><trkpt lat="46.28720790922284" lon="12.42829857114244"><ele>742.0</ele><time>2026-04-25T15:14:32Z</time></trkpt><trkpt lat="46.28717700402314" lon="12.428490957997107"><ele>742.0</ele><time>2026-04-25T15:14:33Z</time></trkpt><trkpt lat="46.28712777006706" lon="12.4286334478779"><ele>742.0</ele><time>2026-04-25T15:14:34Z</time></trkpt><trkpt lat="46.28706044930642" lon="12.428748492788523"><ele>739.6</ele><time>2026-04-25T15:14:35Z</time></trkpt><trkpt lat="46.28704318558792" lon="12.428921449340686"><ele>737.2</ele><time>2026-04-25T15:14:37Z</time></trkpt><trkpt lat="46.287019067437164" lon="12.42907857117898"><ele>734.8</ele><time>2026-04-25T15:14:38Z</time></trkpt><trkpt lat="46.287082152662414" lon="12.42921571558422"><ele>732.4</ele><time>2026-04-25T15:14:39Z</time></trkpt><trkpt lat="46.28717445746403" lon="12.429234488675917"><ele>730.0</ele><time>2026-04-25T15:14:40Z</time></trkpt><trkpt lat="46.28722312610904" lon="12.429126944046962"><ele>723.0</ele><time>2026-04-25T15:14:41Z</time></trkpt><trkpt lat="46.28727419883792" lon="12.429003351980677"><ele>716.0</ele><time>2026-04-25T15:14:42Z</time></trkpt><trkpt lat="46.28730895914962" lon="12.428791583598182"><ele>709.0</ele><time>2026-04-25T15:14:43Z</time></trkpt><trkpt lat="46.287310570135936" lon="12.428564869999414"><ele>702.0</ele><time>2026-04-25T15:14:44Z</time></trkpt><trkpt lat="46.287291337836145" lon="12.42843571464472"><ele>702.0</ele><time>2026-04-25T15:14:45Z</time></trkpt><trkpt lat="46.287335682714684" lon="12.428279638522401"><ele>702.0</ele><time>2026-04-25T15:14:46Z</time></trkpt><trkpt lat="46.287383413112586" lon="12.428137121394213"><ele>702.0</ele><time>2026-04-25T15:14:47Z</time></trkpt><trkpt lat="46.28743469321538" lon="12.428030067296811"><ele>702.0</ele><time>2026-04-25T15:14:48Z</time></trkpt><trkpt lat="46.28750296275504" lon="12.427972530020481"><ele>702.0</ele><time>2026-04-25T15:14:49Z</time></trkpt><trkpt lat="46.28758637400068" lon="12.42798027209007"><ele>702.0</ele><time>2026-04-25T15:14:50Z</time></trkpt><trkpt lat="46.28766424714495" lon="12.42804661579568"><ele>702.0</ele><time>2026-04-25T15:14:51Z</time></trkpt><trkpt lat="46.28774852833505" lon="12.428177758062839"><ele>702.0</ele><time>2026-04-25T15:14:52Z</time></trkpt><trkpt lat="46.28780571901905" lon="12.428376028177768"><ele>702.0</ele><time>2026-04-25T15:14:53Z</time></trkpt><trkpt lat="46.28786507343048" lon="12.428618866207364"><ele>697.6666666666666</ele><time>2026-04-25T15:14:54Z</time></trkpt><trkpt lat="46.28791351647282" lon="12.428868492659635"><ele>693.3333333333333</ele><time>2026-04-25T15:14:55Z</time></trkpt><trkpt lat="46.28795246981883" lon="12.42911076293356"><ele>689.0</ele><time>2026-04-25T15:14:56Z</time></trkpt><trkpt lat="46.28796980835202" lon="12.429336466191362"><ele>689.0</ele><time>2026-04-25T15:14:57Z</time></trkpt><trkpt lat="46.2879569485372" lon="12.42956363028789"><ele>689.0</ele><time>2026-04-25T15:14:58Z</time></trkpt><trkpt lat="46.287936269948446" lon="12.429783130594485"><ele>689.0</ele><time>2026-04-25T15:14:58.999Z</time></trkpt><trkpt lat="46.2879126441443" lon="12.43000727986487"><ele>685.0</ele><time>2026-04-25T15:14:59.999Z</time></trkpt><trkpt lat="46.287853871326206" lon="12.430206613763183"><ele>681.0</ele><time>2026-04-25T15:15:00.999Z</time></trkpt><trkpt lat="46.28777536930355" lon="12.430397474997156"><ele>677.0</ele><time>2026-04-25T15:15:01.999Z</time></trkpt><trkpt lat="46.28766842144444" lon="12.43054029037625"><ele>673.0</ele><time>2026-04-25T15:15:02.999Z</time></trkpt><trkpt lat="46.287554679963364" lon="12.430665884018014"><ele>671.3333333333334</ele><time>2026-04-25T15:15:03.999Z</time></trkpt><trkpt lat="46.28743527984818" lon="12.430801412480818"><ele>669.6666666666666</ele><time>2026-04-25T15:15:04.999Z</time></trkpt><trkpt lat="46.28733353022535" lon="12.430950349730791"><ele>668.0</ele><time>2026-04-25T15:15:05.999Z</time></trkpt><trkpt lat="46.287253320488084" lon="12.431141895621566"><ele>663.6666666666666</ele><time>2026-04-25T15:15:06.999Z</time></trkpt><trkpt lat="46.28717993697918" lon="12.43137619740691"><ele>659.3333333333334</ele><time>2026-04-25T15:15:07.999Z</time></trkpt><trkpt lat="46.28712939777775" lon="12.43160419311258"><ele>655.0</ele><time>2026-04-25T15:15:08.999Z</time></trkpt><trkpt lat="46.28709711552187" lon="12.431838497776086"><ele>655.0</ele><time>2026-04-25T15:15:09.999Z</time></trkpt><trkpt lat="46.287061341636246" lon="12.432047840259225"><ele>655.0</ele><time>2026-04-25T15:15:10.999Z</time></trkpt><trkpt lat="46.287033912339616" lon="12.432262984134733"><ele>655.0</ele><time>2026-04-25T15:15:11.999Z</time></trkpt><trkpt lat="46.28702076740625" lon="12.43245366405563"><ele>655.0</ele><time>2026-04-25T15:15:12.999Z</time></trkpt><trkpt lat="46.28700833718324" lon="12.432663711124272"><ele>653.6</ele><time>2026-04-25T15:15:13.999Z</time></trkpt><trkpt lat="46.286991437890066" lon="12.432839210567872"><ele>652.2</ele><time>2026-04-25T15:15:14.999Z</time></trkpt><trkpt lat="46.28698123497455" lon="12.432988626278055"><ele>650.8</ele><time>2026-04-25T15:15:15.999Z</time></trkpt><trkpt lat="46.28696257985377" lon="12.433126023260659"><ele>649.4</ele><time>2026-04-25T15:15:16.999Z</time></trkpt><trkpt lat="46.28695063049859" lon="12.43326912425535"><ele>648.0</ele><time>2026-04-25T15:15:17.999Z</time></trkpt><trkpt lat="46.28694516934132" lon="12.433418843829555"><ele>647.8</ele><time>2026-04-25T15:15:18.999Z</time></trkpt><trkpt lat="46.286929591670265" lon="12.433548554947405"><ele>647.5999999999999</ele><time>2026-04-25T15:15:19.999Z</time></trkpt><trkpt lat="46.286912301656606" lon="12.43368462153411"><ele>647.4000000000001</ele><time>2026-04-25T15:15:20.999Z</time></trkpt><trkpt lat="46.28690538885637" lon="12.433825510332714"><ele>647.2</ele><time>2026-04-25T15:15:21.999Z</time></trkpt><trkpt lat="46.28689435671581" lon="12.433970214076153"><ele>647.0</ele><time>2026-04-25T15:15:22.999Z</time></trkpt><trkpt lat="46.28687673808704" lon="12.434122213657306"><ele>647.0</ele><time>2026-04-25T15:15:23.999Z</time></trkpt><trkpt lat="46.28686270825668" lon="12.434281423263746"><ele>647.0</ele><time>2026-04-25T15:15:24.999Z</time></trkpt><trkpt lat="46.286855729099905" lon="12.434436718129453"><ele>647.0</ele><time>2026-04-25T15:15:25.999Z</time></trkpt><trkpt lat="46.286843637816816" lon="12.434594114664689"><ele>647.0</ele><time>2026-04-25T15:15:26.999Z</time></trkpt><trkpt lat="46.28682795149769" lon="12.434756868682227"><ele>647.0</ele><time>2026-04-25T15:15:27.999Z</time></trkpt><trkpt lat="46.28681479469392" lon="12.434911544537412"><ele>646.75</ele><time>2026-04-25T15:15:28.999Z</time></trkpt><trkpt lat="46.286782483518444" lon="12.435122549745186"><ele>646.5</ele><time>2026-04-25T15:15:29.999Z</time></trkpt><trkpt lat="46.2867706977938" lon="12.435254047617148"><ele>646.25</ele><time>2026-04-25T15:15:30.999Z</time></trkpt><trkpt lat="46.28675149337488" lon="12.435409431318007"><ele>646.0</ele><time>2026-04-25T15:15:31.999Z</time></trkpt><trkpt lat="46.2867351126088" lon="12.435552444754777"><ele>646.0</ele><time>2026-04-25T15:15:32.999Z</time></trkpt><trkpt lat="46.28672252749285" lon="12.435701193999218"><ele>646.0</ele><time>2026-04-25T15:15:33.999Z</time></trkpt><trkpt lat="46.28670842728732" lon="12.435860908019094"><ele>646.0</ele><time>2026-04-25T15:15:34.999Z</time></trkpt><trkpt lat="46.28669711779927" lon="12.436028717278983"><ele>646.0</ele><time>2026-04-25T15:15:35.999Z</time></trkpt><trkpt lat="46.28669273524644" lon="12.436193377381157"><ele>646.0</ele><time>2026-04-25T15:15:36.999Z</time></trkpt><trkpt lat="46.28668673192115" lon="12.436362662094943"><ele>646.0</ele><time>2026-04-25T15:15:37.999Z</time></trkpt><trkpt lat="46.286702762299214" lon="12.43651305315904"><ele>646.0</ele><time>2026-04-25T15:15:38.999Z</time></trkpt><trkpt lat="46.2867086802519" lon="12.436689838218763"><ele>646.0</ele><time>2026-04-25T15:15:39.999Z</time></trkpt><trkpt lat="46.28672301035384" lon="12.436838970549957"><ele>646.0</ele><time>2026-04-25T15:15:40.999Z</time></trkpt><trkpt lat="46.28671621255626" lon="12.437014223566235"><ele>646.25</ele><time>2026-04-25T15:15:41.999Z</time></trkpt><trkpt lat="46.28671731142019" lon="12.437222360055435"><ele>646.5</ele><time>2026-04-25T15:15:42.999Z</time></trkpt><trkpt lat="46.28671682899919" lon="12.437369571165673"><ele>646.75</ele><time>2026-04-25T15:15:43.999Z</time></trkpt><trkpt lat="46.28670845147211" lon="12.437536828576993"><ele>647.0</ele><time>2026-04-25T15:15:44.999Z</time></trkpt><trkpt lat="46.286697116400475" lon="12.437698481031898"><ele>647.0</ele><time>2026-04-25T15:15:45.999Z</time></trkpt><trkpt lat="46.28668185951699" lon="12.4378517691015"><ele>647.0</ele><time>2026-04-25T15:15:46.999Z</time></trkpt><trkpt lat="46.28663952859696" lon="12.438006689305494"><ele>647.0</ele><time>2026-04-25T15:15:47.999Z</time></trkpt><trkpt lat="46.28658209723424" lon="12.438172927046278"><ele>647.0</ele><time>2026-04-25T15:15:48.999Z</time></trkpt><trkpt lat="46.286534180252794" lon="12.43835529937322"><ele>647.25</ele><time>2026-04-25T15:15:49.999Z</time></trkpt><trkpt lat="46.2865020962593" lon="12.438541055653427"><ele>647.5</ele><time>2026-04-25T15:15:50.999Z</time></trkpt><trkpt lat="46.286479164738644" lon="12.438714385026362"><ele>647.75</ele><time>2026-04-25T15:15:51.999Z</time></trkpt><trkpt lat="46.28644774531421" lon="12.43888355948062"><ele>648.0</ele><time>2026-04-25T15:15:52.999Z</time></trkpt><trkpt lat="46.286410800002244" lon="12.43906339101226"><ele>647.0</ele><time>2026-04-25T15:15:53.999Z</time></trkpt><trkpt lat="46.286374440805474" lon="12.43923817421535"><ele>646.0</ele><time>2026-04-25T15:15:54.999Z</time></trkpt><trkpt lat="46.28633758848157" lon="12.439436232406713"><ele>645.0</ele><time>2026-04-25T15:15:55.999Z</time></trkpt><trkpt lat="46.28629674290951" lon="12.439635244803721"><ele>644.0</ele><time>2026-04-25T15:15:57Z</time></trkpt><trkpt lat="46.28626698846591" lon="12.439801472200262"><ele>643.25</ele><time>2026-04-25T15:15:58Z</time></trkpt><trkpt lat="46.286230485890314" lon="12.439973945934916"><ele>642.5</ele><time>2026-04-25T15:15:59Z</time></trkpt><trkpt lat="46.286190906517355" lon="12.44017104934601"><ele>641.75</ele><time>2026-04-25T15:16:00Z</time></trkpt><trkpt lat="46.28614829442956" lon="12.440373817025597"><ele>641.0</ele><time>2026-04-25T15:16:01Z</time></trkpt><trkpt lat="46.28611751658295" lon="12.440571239353641"><ele>640.75</ele><time>2026-04-25T15:16:02Z</time></trkpt><trkpt lat="46.28609025014006" lon="12.44073124799193"><ele>640.5</ele><time>2026-04-25T15:16:03Z</time></trkpt><trkpt lat="46.28605606060769" lon="12.440939369508579"><ele>640.25</ele><time>2026-04-25T15:16:04Z</time></trkpt><trkpt lat="46.28601577878879" lon="12.441146089791747"><ele>640.0</ele><time>2026-04-25T15:16:05Z</time></trkpt><trkpt lat="46.28597270057685" lon="12.441354368507803"><ele>638.6666666666667</ele><time>2026-04-25T15:16:06Z</time></trkpt><trkpt lat="46.28592933468232" lon="12.441562070247034"><ele>637.3333333333334</ele><time>2026-04-25T15:16:07Z</time></trkpt><trkpt lat="46.28588502128224" lon="12.441781709423799"><ele>636.0</ele><time>2026-04-25T15:16:08Z</time></trkpt><trkpt lat="46.28584560864247" lon="12.442009832165983"><ele>636.6666666666666</ele><time>2026-04-25T15:16:09Z</time></trkpt><trkpt lat="46.28580605979196" lon="12.442246527792621"><ele>637.3333333333333</ele><time>2026-04-25T15:16:10Z</time></trkpt><trkpt lat="46.28575939824308" lon="12.442482220652948"><ele>638.0</ele><time>2026-04-25T15:16:11Z</time></trkpt><trkpt lat="46.285709157525275" lon="12.442726278172593"><ele>637.3333333333333</ele><time>2026-04-25T15:16:12Z</time></trkpt><trkpt lat="46.28566108494804" lon="12.44297025064408"><ele>636.6666666666666</ele><time>2026-04-25T15:16:13Z</time></trkpt><trkpt lat="46.285606441797" lon="12.44321106259937"><ele>636.0</ele><time>2026-04-25T15:16:14Z</time></trkpt><trkpt lat="46.28555639911967" lon="12.443458683967275"><ele>636.0</ele><time>2026-04-25T15:16:15Z</time></trkpt><trkpt lat="46.28550528309037" lon="12.44370967203485"><ele>636.0</ele><time>2026-04-25T15:16:16Z</time></trkpt><trkpt lat="46.28544990952968" lon="12.443961792492408"><ele>636.0</ele><time>2026-04-25T15:16:17Z</time></trkpt><trkpt lat="46.285395280372825" lon="12.444212101521305"><ele>636.3333333333334</ele><time>2026-04-25T15:16:18Z</time></trkpt><trkpt lat="46.28534388108792" lon="12.44446467140572"><ele>636.6666666666667</ele><time>2026-04-25T15:16:19Z</time></trkpt><trkpt lat="46.28529398583317" lon="12.44471971263631"><ele>637.0</ele><time>2026-04-25T15:16:20Z</time></trkpt><trkpt lat="46.28523458189018" lon="12.444960732139906"><ele>638.0</ele><time>2026-04-25T15:16:21Z</time></trkpt><trkpt lat="46.28516287082469" lon="12.445170372203588"><ele>639.0</ele><time>2026-04-25T15:16:22Z</time></trkpt><trkpt lat="46.28507455396327" lon="12.445355140506132"><ele>640.0</ele><time>2026-04-25T15:16:23Z</time></trkpt><trkpt lat="46.28497749047897" lon="12.445521205415378"><ele>641.0</ele><time>2026-04-25T15:16:24Z</time></trkpt><trkpt lat="46.28486841884291" lon="12.445678936825447"><ele>642.0</ele><time>2026-04-25T15:16:25Z</time></trkpt><trkpt lat="46.284752741236154" lon="12.44581576040939"><ele>643.0</ele><time>2026-04-25T15:16:26Z</time></trkpt><trkpt lat="46.284637635552016" lon="12.445953009026367"><ele>643.0</ele><time>2026-04-25T15:16:27Z</time></trkpt><trkpt lat="46.28451857297436" lon="12.446098004700499"><ele>643.0</ele><time>2026-04-25T15:16:28Z</time></trkpt><trkpt lat="46.28440617705885" lon="12.446247258261034"><ele>643.0</ele><time>2026-04-25T15:16:29Z</time></trkpt><trkpt lat="46.28428435384271" lon="12.446410635680417"><ele>643.0</ele><time>2026-04-25T15:16:30Z</time></trkpt><trkpt lat="46.28416064234632" lon="12.446561358080716"><ele>643.0</ele><time>2026-04-25T15:16:31Z</time></trkpt><trkpt lat="46.28404038640167" lon="12.446720010291159"><ele>643.0</ele><time>2026-04-25T15:16:32Z</time></trkpt><trkpt lat="46.2839234890471" lon="12.446877514724605"><ele>643.0</ele><time>2026-04-25T15:16:33Z</time></trkpt><trkpt lat="46.28380577976855" lon="12.44700142210182"><ele>643.0</ele><time>2026-04-25T15:16:34Z</time></trkpt><trkpt lat="46.28369814850421" lon="12.447132849382289"><ele>641.0</ele><time>2026-04-25T15:16:35Z</time></trkpt><trkpt lat="46.28359476248748" lon="12.447267073724932"><ele>641.0</ele><time>2026-04-25T15:16:36Z</time></trkpt></trkseg></trk></gpx>